<?xml version="1.0" encoding="UTF-8" standalone="no" ?>
<gpx xmlns="http://www.topografix.com/GPX/1/1" xmlns:xsi="http://www.w3.org/2001/XMLSchema-instance" xsi:schemaLocation="http://www.topografix.com/GPX/1/1 http://www.topografix.com/GPX/1/1/gpx.xsd" version="1.1" creator="VisuGPX - https://www.visugpx.com">
  <metadata>
    <name> La passerelle de Mazamet</name>
    <desc><![CDATA[Trace AlpineQuest 23/05/2021 9:48:44 AM]]></desc>
  </metadata>
  <trk>
    <name><![CDATA[ La passerelle de Mazamet_1]]></name>
    <trkseg>
      <trkpt lat="43.4746" lon="2.38287">
        <ele>388.921</ele>
        <time>2021-05-23T07:48:44Z</time>
      </trkpt>
      <trkpt lat="43.4746" lon="2.38286">
        <ele>388.593</ele>
        <time>2021-05-23T07:48:46Z</time>
      </trkpt>
      <trkpt lat="43.47459" lon="2.38286">
        <ele>389.478</ele>
        <time>2021-05-23T07:48:48Z</time>
      </trkpt>
      <trkpt lat="43.47459" lon="2.38285">
        <ele>389.943</ele>
        <time>2021-05-23T07:48:50Z</time>
      </trkpt>
      <trkpt lat="43.47458" lon="2.38285">
        <ele>390.539</ele>
        <time>2021-05-23T07:48:52Z</time>
      </trkpt>
      <trkpt lat="43.47458" lon="2.38284">
        <ele>390.887</ele>
        <time>2021-05-23T07:48:54Z</time>
      </trkpt>
      <trkpt lat="43.47458" lon="2.38284">
        <ele>390.947</ele>
        <time>2021-05-23T07:48:56Z</time>
      </trkpt>
      <trkpt lat="43.47458" lon="2.38284">
        <ele>391.098</ele>
        <time>2021-05-23T07:48:58Z</time>
      </trkpt>
      <trkpt lat="43.47458" lon="2.38284">
        <ele>391.13</ele>
        <time>2021-05-23T07:49:00Z</time>
      </trkpt>
      <trkpt lat="43.47458" lon="2.38284">
        <ele>391.165</ele>
        <time>2021-05-23T07:49:02Z</time>
      </trkpt>
      <trkpt lat="43.47458" lon="2.38284">
        <ele>391.194</ele>
        <time>2021-05-23T07:49:04Z</time>
      </trkpt>
      <trkpt lat="43.47458" lon="2.38284">
        <ele>391.183</ele>
        <time>2021-05-23T07:49:06Z</time>
      </trkpt>
      <trkpt lat="43.47458" lon="2.38284">
        <ele>391.188</ele>
        <time>2021-05-23T07:49:08Z</time>
      </trkpt>
      <trkpt lat="43.47458" lon="2.38284">
        <ele>391.229</ele>
        <time>2021-05-23T07:49:10Z</time>
      </trkpt>
      <trkpt lat="43.47458" lon="2.38284">
        <ele>391.257</ele>
        <time>2021-05-23T07:49:12Z</time>
      </trkpt>
      <trkpt lat="43.47458" lon="2.38284">
        <ele>391.264</ele>
        <time>2021-05-23T07:49:14Z</time>
      </trkpt>
      <trkpt lat="43.47458" lon="2.38284">
        <ele>391.268</ele>
        <time>2021-05-23T07:49:16Z</time>
      </trkpt>
      <trkpt lat="43.47458" lon="2.38284">
        <ele>391.276</ele>
        <time>2021-05-23T07:49:18Z</time>
      </trkpt>
      <trkpt lat="43.47458" lon="2.38284">
        <ele>391.281</ele>
        <time>2021-05-23T07:49:20Z</time>
      </trkpt>
      <trkpt lat="43.47458" lon="2.38284">
        <ele>391.283</ele>
        <time>2021-05-23T07:49:22Z</time>
      </trkpt>
      <trkpt lat="43.47458" lon="2.38284">
        <ele>391.283</ele>
        <time>2021-05-23T07:49:24Z</time>
      </trkpt>
      <trkpt lat="43.47458" lon="2.38284">
        <ele>391.286</ele>
        <time>2021-05-23T07:49:26Z</time>
      </trkpt>
      <trkpt lat="43.47458" lon="2.38284">
        <ele>391.29</ele>
        <time>2021-05-23T07:49:28Z</time>
      </trkpt>
      <trkpt lat="43.47458" lon="2.38284">
        <ele>391.286</ele>
        <time>2021-05-23T07:49:30Z</time>
      </trkpt>
      <trkpt lat="43.47458" lon="2.38284">
        <ele>391.283</ele>
        <time>2021-05-23T07:49:32Z</time>
      </trkpt>
      <trkpt lat="43.47458" lon="2.38284">
        <ele>391.282</ele>
        <time>2021-05-23T07:49:34Z</time>
      </trkpt>
      <trkpt lat="43.47458" lon="2.38284">
        <ele>391.273</ele>
        <time>2021-05-23T07:49:36Z</time>
      </trkpt>
      <trkpt lat="43.47458" lon="2.38284">
        <ele>391.275</ele>
        <time>2021-05-23T07:49:38Z</time>
      </trkpt>
      <trkpt lat="43.47458" lon="2.38284">
        <ele>391.279</ele>
        <time>2021-05-23T07:49:40Z</time>
      </trkpt>
      <trkpt lat="43.47458" lon="2.38284">
        <ele>391.274</ele>
        <time>2021-05-23T07:49:42Z</time>
      </trkpt>
      <trkpt lat="43.47458" lon="2.38284">
        <ele>391.269</ele>
        <time>2021-05-23T07:49:44Z</time>
      </trkpt>
      <trkpt lat="43.47458" lon="2.38284">
        <ele>391.283</ele>
        <time>2021-05-23T07:49:46Z</time>
      </trkpt>
      <trkpt lat="43.47458" lon="2.38284">
        <ele>391.295</ele>
        <time>2021-05-23T07:49:48Z</time>
      </trkpt>
      <trkpt lat="43.47458" lon="2.38284">
        <ele>391.327</ele>
        <time>2021-05-23T07:49:50Z</time>
      </trkpt>
      <trkpt lat="43.47458" lon="2.38284">
        <ele>391.33</ele>
        <time>2021-05-23T07:49:52Z</time>
      </trkpt>
      <trkpt lat="43.47458" lon="2.38284">
        <ele>391.34</ele>
        <time>2021-05-23T07:49:54Z</time>
      </trkpt>
      <trkpt lat="43.47458" lon="2.38284">
        <ele>391.33</ele>
        <time>2021-05-23T07:49:56Z</time>
      </trkpt>
      <trkpt lat="43.47458" lon="2.38284">
        <ele>391.351</ele>
        <time>2021-05-23T07:49:58Z</time>
      </trkpt>
      <trkpt lat="43.47458" lon="2.38284">
        <ele>391.387</ele>
        <time>2021-05-23T07:50:00Z</time>
      </trkpt>
      <trkpt lat="43.47458" lon="2.38284">
        <ele>391.397</ele>
        <time>2021-05-23T07:50:02Z</time>
      </trkpt>
      <trkpt lat="43.47457" lon="2.38283">
        <ele>391.357</ele>
        <time>2021-05-23T07:50:04Z</time>
      </trkpt>
      <trkpt lat="43.47456" lon="2.38283">
        <ele>392.875</ele>
        <time>2021-05-23T07:50:06Z</time>
      </trkpt>
      <trkpt lat="43.47455" lon="2.38283">
        <ele>393.236</ele>
        <time>2021-05-23T07:50:08Z</time>
      </trkpt>
      <trkpt lat="43.47454" lon="2.38283">
        <ele>394.368</ele>
        <time>2021-05-23T07:50:10Z</time>
      </trkpt>
      <trkpt lat="43.47454" lon="2.38282">
        <ele>394.865</ele>
        <time>2021-05-23T07:50:12Z</time>
      </trkpt>
      <trkpt lat="43.47454" lon="2.38282">
        <ele>395.938</ele>
        <time>2021-05-23T07:50:14Z</time>
      </trkpt>
      <trkpt lat="43.47454" lon="2.38282">
        <ele>396.048</ele>
        <time>2021-05-23T07:50:16Z</time>
      </trkpt>
      <trkpt lat="43.47454" lon="2.38281">
        <ele>396.201</ele>
        <time>2021-05-23T07:50:18Z</time>
      </trkpt>
      <trkpt lat="43.47454" lon="2.38282">
        <ele>396.896</ele>
        <time>2021-05-23T07:50:20Z</time>
      </trkpt>
      <trkpt lat="43.47454" lon="2.38281">
        <ele>397.058</ele>
        <time>2021-05-23T07:50:22Z</time>
      </trkpt>
      <trkpt lat="43.47454" lon="2.38281">
        <ele>396.993</ele>
        <time>2021-05-23T07:50:24Z</time>
      </trkpt>
      <trkpt lat="43.47454" lon="2.38281">
        <ele>396.982</ele>
        <time>2021-05-23T07:50:26Z</time>
      </trkpt>
      <trkpt lat="43.47454" lon="2.38281">
        <ele>397.005</ele>
        <time>2021-05-23T07:50:28Z</time>
      </trkpt>
      <trkpt lat="43.47454" lon="2.38281">
        <ele>397.019</ele>
        <time>2021-05-23T07:50:30Z</time>
      </trkpt>
      <trkpt lat="43.47454" lon="2.38281">
        <ele>397.022</ele>
        <time>2021-05-23T07:50:32Z</time>
      </trkpt>
      <trkpt lat="43.47454" lon="2.38281">
        <ele>397.023</ele>
        <time>2021-05-23T07:50:34Z</time>
      </trkpt>
      <trkpt lat="43.47454" lon="2.38281">
        <ele>397.02</ele>
        <time>2021-05-23T07:50:36Z</time>
      </trkpt>
      <trkpt lat="43.47454" lon="2.38281">
        <ele>397.018</ele>
        <time>2021-05-23T07:50:39Z</time>
      </trkpt>
      <trkpt lat="43.47454" lon="2.38281">
        <ele>397.015</ele>
        <time>2021-05-23T07:50:41Z</time>
      </trkpt>
      <trkpt lat="43.47454" lon="2.38281">
        <ele>397.013</ele>
        <time>2021-05-23T07:50:43Z</time>
      </trkpt>
      <trkpt lat="43.47454" lon="2.38281">
        <ele>397.009</ele>
        <time>2021-05-23T07:50:45Z</time>
      </trkpt>
      <trkpt lat="43.47454" lon="2.38281">
        <ele>397.002</ele>
        <time>2021-05-23T07:50:47Z</time>
      </trkpt>
      <trkpt lat="43.47454" lon="2.38281">
        <ele>397.002</ele>
        <time>2021-05-23T07:50:49Z</time>
      </trkpt>
      <trkpt lat="43.47454" lon="2.38281">
        <ele>397.003</ele>
        <time>2021-05-23T07:50:51Z</time>
      </trkpt>
      <trkpt lat="43.47454" lon="2.38281">
        <ele>397.005</ele>
        <time>2021-05-23T07:50:53Z</time>
      </trkpt>
      <trkpt lat="43.47454" lon="2.38281">
        <ele>397.003</ele>
        <time>2021-05-23T07:50:55Z</time>
      </trkpt>
      <trkpt lat="43.47454" lon="2.38281">
        <ele>396.999</ele>
        <time>2021-05-23T07:50:57Z</time>
      </trkpt>
      <trkpt lat="43.47454" lon="2.38281">
        <ele>396.992</ele>
        <time>2021-05-23T07:50:59Z</time>
      </trkpt>
      <trkpt lat="43.47454" lon="2.38281">
        <ele>396.985</ele>
        <time>2021-05-23T07:51:01Z</time>
      </trkpt>
      <trkpt lat="43.47454" lon="2.38281">
        <ele>396.977</ele>
        <time>2021-05-23T07:51:03Z</time>
      </trkpt>
      <trkpt lat="43.47454" lon="2.38281">
        <ele>396.97</ele>
        <time>2021-05-23T07:51:05Z</time>
      </trkpt>
      <trkpt lat="43.47454" lon="2.38281">
        <ele>396.964</ele>
        <time>2021-05-23T07:51:07Z</time>
      </trkpt>
      <trkpt lat="43.47454" lon="2.38281">
        <ele>396.958</ele>
        <time>2021-05-23T07:51:09Z</time>
      </trkpt>
      <trkpt lat="43.47454" lon="2.38281">
        <ele>396.95</ele>
        <time>2021-05-23T07:51:11Z</time>
      </trkpt>
      <trkpt lat="43.47454" lon="2.38281">
        <ele>396.946</ele>
        <time>2021-05-23T07:51:13Z</time>
      </trkpt>
      <trkpt lat="43.47454" lon="2.38281">
        <ele>396.943</ele>
        <time>2021-05-23T07:51:15Z</time>
      </trkpt>
      <trkpt lat="43.47454" lon="2.38281">
        <ele>396.938</ele>
        <time>2021-05-23T07:51:17Z</time>
      </trkpt>
      <trkpt lat="43.47454" lon="2.38281">
        <ele>396.935</ele>
        <time>2021-05-23T07:51:19Z</time>
      </trkpt>
      <trkpt lat="43.47454" lon="2.38281">
        <ele>396.94</ele>
        <time>2021-05-23T07:51:21Z</time>
      </trkpt>
      <trkpt lat="43.47454" lon="2.38281">
        <ele>396.94</ele>
        <time>2021-05-23T07:51:23Z</time>
      </trkpt>
      <trkpt lat="43.47454" lon="2.38281">
        <ele>396.938</ele>
        <time>2021-05-23T07:51:25Z</time>
      </trkpt>
      <trkpt lat="43.47454" lon="2.38281">
        <ele>396.937</ele>
        <time>2021-05-23T07:51:27Z</time>
      </trkpt>
      <trkpt lat="43.47454" lon="2.38281">
        <ele>396.926</ele>
        <time>2021-05-23T07:51:29Z</time>
      </trkpt>
      <trkpt lat="43.47454" lon="2.38281">
        <ele>396.922</ele>
        <time>2021-05-23T07:51:31Z</time>
      </trkpt>
      <trkpt lat="43.47454" lon="2.38281">
        <ele>396.914</ele>
        <time>2021-05-23T07:51:33Z</time>
      </trkpt>
      <trkpt lat="43.47454" lon="2.38281">
        <ele>396.914</ele>
        <time>2021-05-23T07:51:35Z</time>
      </trkpt>
      <trkpt lat="43.47454" lon="2.38281">
        <ele>396.918</ele>
        <time>2021-05-23T07:51:37Z</time>
      </trkpt>
      <trkpt lat="43.47454" lon="2.38281">
        <ele>396.91</ele>
        <time>2021-05-23T07:51:40Z</time>
      </trkpt>
      <trkpt lat="43.47454" lon="2.38281">
        <ele>396.902</ele>
        <time>2021-05-23T07:51:42Z</time>
      </trkpt>
      <trkpt lat="43.47454" lon="2.38281">
        <ele>396.887</ele>
        <time>2021-05-23T07:51:44Z</time>
      </trkpt>
      <trkpt lat="43.47454" lon="2.38281">
        <ele>396.87</ele>
        <time>2021-05-23T07:51:46Z</time>
      </trkpt>
      <trkpt lat="43.47454" lon="2.38281">
        <ele>396.864</ele>
        <time>2021-05-23T07:51:48Z</time>
      </trkpt>
      <trkpt lat="43.47454" lon="2.38281">
        <ele>396.872</ele>
        <time>2021-05-23T07:51:50Z</time>
      </trkpt>
      <trkpt lat="43.47454" lon="2.38281">
        <ele>396.875</ele>
        <time>2021-05-23T07:51:52Z</time>
      </trkpt>
      <trkpt lat="43.47454" lon="2.38281">
        <ele>396.633</ele>
        <time>2021-05-23T07:51:54Z</time>
      </trkpt>
      <trkpt lat="43.47453" lon="2.38283">
        <ele>395.903</ele>
        <time>2021-05-23T07:51:56Z</time>
      </trkpt>
      <trkpt lat="43.47452" lon="2.38286">
        <ele>395.418</ele>
        <time>2021-05-23T07:51:58Z</time>
      </trkpt>
      <trkpt lat="43.47451" lon="2.3829">
        <ele>394.978</ele>
        <time>2021-05-23T07:52:00Z</time>
      </trkpt>
      <trkpt lat="43.4745" lon="2.38293">
        <ele>394.371</ele>
        <time>2021-05-23T07:52:02Z</time>
      </trkpt>
      <trkpt lat="43.47448" lon="2.38295">
        <ele>395.499</ele>
        <time>2021-05-23T07:52:04Z</time>
      </trkpt>
      <trkpt lat="43.47446" lon="2.38298">
        <ele>395.636</ele>
        <time>2021-05-23T07:52:06Z</time>
      </trkpt>
      <trkpt lat="43.47445" lon="2.38302">
        <ele>395.004</ele>
        <time>2021-05-23T07:52:08Z</time>
      </trkpt>
      <trkpt lat="43.47445" lon="2.38306">
        <ele>394.038</ele>
        <time>2021-05-23T07:52:10Z</time>
      </trkpt>
      <trkpt lat="43.47443" lon="2.38309">
        <ele>394.57</ele>
        <time>2021-05-23T07:52:12Z</time>
      </trkpt>
      <trkpt lat="43.47442" lon="2.38312">
        <ele>394.404</ele>
        <time>2021-05-23T07:52:14Z</time>
      </trkpt>
      <trkpt lat="43.47442" lon="2.38313">
        <ele>394.774</ele>
        <time>2021-05-23T07:52:15Z</time>
      </trkpt>
      <trkpt lat="43.4744" lon="2.38318">
        <ele>393.164</ele>
        <time>2021-05-23T07:52:18Z</time>
      </trkpt>
      <trkpt lat="43.4744" lon="2.38321">
        <ele>393.325</ele>
        <time>2021-05-23T07:52:20Z</time>
      </trkpt>
      <trkpt lat="43.4744" lon="2.38324">
        <ele>392.103</ele>
        <time>2021-05-23T07:52:22Z</time>
      </trkpt>
      <trkpt lat="43.47439" lon="2.38328">
        <ele>392.39</ele>
        <time>2021-05-23T07:52:24Z</time>
      </trkpt>
      <trkpt lat="43.47439" lon="2.38331">
        <ele>392.582</ele>
        <time>2021-05-23T07:52:26Z</time>
      </trkpt>
      <trkpt lat="43.47438" lon="2.38334">
        <ele>392.114</ele>
        <time>2021-05-23T07:52:28Z</time>
      </trkpt>
      <trkpt lat="43.47438" lon="2.38337">
        <ele>392.153</ele>
        <time>2021-05-23T07:52:30Z</time>
      </trkpt>
      <trkpt lat="43.47437" lon="2.3834">
        <ele>390.354</ele>
        <time>2021-05-23T07:52:32Z</time>
      </trkpt>
      <trkpt lat="43.47437" lon="2.38343">
        <ele>390.464</ele>
        <time>2021-05-23T07:52:34Z</time>
      </trkpt>
      <trkpt lat="43.47437" lon="2.38347">
        <ele>388.807</ele>
        <time>2021-05-23T07:52:36Z</time>
      </trkpt>
      <trkpt lat="43.47437" lon="2.3835">
        <ele>387.962</ele>
        <time>2021-05-23T07:52:38Z</time>
      </trkpt>
      <trkpt lat="43.47438" lon="2.38352">
        <ele>386.542</ele>
        <time>2021-05-23T07:52:40Z</time>
      </trkpt>
      <trkpt lat="43.47439" lon="2.38355">
        <ele>386.481</ele>
        <time>2021-05-23T07:52:42Z</time>
      </trkpt>
      <trkpt lat="43.4744" lon="2.38358">
        <ele>386.118</ele>
        <time>2021-05-23T07:52:44Z</time>
      </trkpt>
      <trkpt lat="43.47441" lon="2.38361">
        <ele>386.492</ele>
        <time>2021-05-23T07:52:46Z</time>
      </trkpt>
      <trkpt lat="43.47442" lon="2.38364">
        <ele>388.045</ele>
        <time>2021-05-23T07:52:48Z</time>
      </trkpt>
      <trkpt lat="43.47444" lon="2.38366">
        <ele>391.789</ele>
        <time>2021-05-23T07:52:50Z</time>
      </trkpt>
      <trkpt lat="43.47446" lon="2.38367">
        <ele>394.047</ele>
        <time>2021-05-23T07:52:52Z</time>
      </trkpt>
      <trkpt lat="43.47449" lon="2.38367">
        <ele>392.021</ele>
        <time>2021-05-23T07:52:54Z</time>
      </trkpt>
      <trkpt lat="43.47451" lon="2.38367">
        <ele>393.941</ele>
        <time>2021-05-23T07:52:56Z</time>
      </trkpt>
      <trkpt lat="43.47453" lon="2.38368">
        <ele>394.833</ele>
        <time>2021-05-23T07:52:58Z</time>
      </trkpt>
      <trkpt lat="43.47456" lon="2.38367">
        <ele>396.609</ele>
        <time>2021-05-23T07:53:00Z</time>
      </trkpt>
      <trkpt lat="43.47459" lon="2.38367">
        <ele>395.688</ele>
        <time>2021-05-23T07:53:02Z</time>
      </trkpt>
      <trkpt lat="43.47461" lon="2.38367">
        <ele>396.534</ele>
        <time>2021-05-23T07:53:04Z</time>
      </trkpt>
      <trkpt lat="43.47463" lon="2.38366">
        <ele>397.046</ele>
        <time>2021-05-23T07:53:06Z</time>
      </trkpt>
      <trkpt lat="43.47466" lon="2.38366">
        <ele>396.162</ele>
        <time>2021-05-23T07:53:08Z</time>
      </trkpt>
      <trkpt lat="43.47469" lon="2.38365">
        <ele>396.64</ele>
        <time>2021-05-23T07:53:10Z</time>
      </trkpt>
      <trkpt lat="43.47471" lon="2.38365">
        <ele>396.484</ele>
        <time>2021-05-23T07:53:12Z</time>
      </trkpt>
      <trkpt lat="43.47473" lon="2.38364">
        <ele>396.359</ele>
        <time>2021-05-23T07:53:14Z</time>
      </trkpt>
      <trkpt lat="43.47475" lon="2.38363">
        <ele>397.307</ele>
        <time>2021-05-23T07:53:16Z</time>
      </trkpt>
      <trkpt lat="43.47478" lon="2.38362">
        <ele>395.75</ele>
        <time>2021-05-23T07:53:18Z</time>
      </trkpt>
      <trkpt lat="43.47481" lon="2.38361">
        <ele>396.215</ele>
        <time>2021-05-23T07:53:20Z</time>
      </trkpt>
      <trkpt lat="43.47483" lon="2.3836">
        <ele>396.743</ele>
        <time>2021-05-23T07:53:22Z</time>
      </trkpt>
      <trkpt lat="43.47486" lon="2.3836">
        <ele>395.994</ele>
        <time>2021-05-23T07:53:24Z</time>
      </trkpt>
      <trkpt lat="43.47489" lon="2.38359">
        <ele>394.825</ele>
        <time>2021-05-23T07:53:26Z</time>
      </trkpt>
      <trkpt lat="43.47491" lon="2.38359">
        <ele>394.442</ele>
        <time>2021-05-23T07:53:28Z</time>
      </trkpt>
      <trkpt lat="43.47494" lon="2.38358">
        <ele>396.032</ele>
        <time>2021-05-23T07:53:30Z</time>
      </trkpt>
      <trkpt lat="43.47496" lon="2.38357">
        <ele>394.733</ele>
        <time>2021-05-23T07:53:32Z</time>
      </trkpt>
      <trkpt lat="43.47499" lon="2.38356">
        <ele>395.405</ele>
        <time>2021-05-23T07:53:34Z</time>
      </trkpt>
      <trkpt lat="43.47501" lon="2.38355">
        <ele>395.537</ele>
        <time>2021-05-23T07:53:36Z</time>
      </trkpt>
      <trkpt lat="43.47504" lon="2.38354">
        <ele>396.337</ele>
        <time>2021-05-23T07:53:38Z</time>
      </trkpt>
      <trkpt lat="43.47506" lon="2.38353">
        <ele>396.335</ele>
        <time>2021-05-23T07:53:40Z</time>
      </trkpt>
      <trkpt lat="43.47508" lon="2.38352">
        <ele>396.344</ele>
        <time>2021-05-23T07:53:42Z</time>
      </trkpt>
      <trkpt lat="43.4751" lon="2.38352">
        <ele>395.522</ele>
        <time>2021-05-23T07:53:44Z</time>
      </trkpt>
      <trkpt lat="43.47513" lon="2.38351">
        <ele>395.121</ele>
        <time>2021-05-23T07:53:46Z</time>
      </trkpt>
      <trkpt lat="43.47516" lon="2.3835">
        <ele>394.665</ele>
        <time>2021-05-23T07:53:48Z</time>
      </trkpt>
      <trkpt lat="43.47518" lon="2.38348">
        <ele>396.017</ele>
        <time>2021-05-23T07:53:50Z</time>
      </trkpt>
      <trkpt lat="43.4752" lon="2.38348">
        <ele>396.187</ele>
        <time>2021-05-23T07:53:52Z</time>
      </trkpt>
      <trkpt lat="43.47522" lon="2.38347">
        <ele>396.227</ele>
        <time>2021-05-23T07:53:54Z</time>
      </trkpt>
      <trkpt lat="43.47524" lon="2.38344">
        <ele>395.837</ele>
        <time>2021-05-23T07:53:56Z</time>
      </trkpt>
      <trkpt lat="43.47527" lon="2.38343">
        <ele>395.832</ele>
        <time>2021-05-23T07:53:58Z</time>
      </trkpt>
      <trkpt lat="43.47529" lon="2.38342">
        <ele>396.168</ele>
        <time>2021-05-23T07:54:00Z</time>
      </trkpt>
      <trkpt lat="43.47532" lon="2.38342">
        <ele>395.895</ele>
        <time>2021-05-23T07:54:02Z</time>
      </trkpt>
      <trkpt lat="43.47534" lon="2.38341">
        <ele>396.4</ele>
        <time>2021-05-23T07:54:04Z</time>
      </trkpt>
      <trkpt lat="43.47536" lon="2.3834">
        <ele>396.171</ele>
        <time>2021-05-23T07:54:06Z</time>
      </trkpt>
      <trkpt lat="43.47538" lon="2.38339">
        <ele>397.199</ele>
        <time>2021-05-23T07:54:08Z</time>
      </trkpt>
      <trkpt lat="43.4754" lon="2.38338">
        <ele>397.125</ele>
        <time>2021-05-23T07:54:10Z</time>
      </trkpt>
      <trkpt lat="43.47541" lon="2.38337">
        <ele>396.133</ele>
        <time>2021-05-23T07:54:12Z</time>
      </trkpt>
      <trkpt lat="43.47543" lon="2.38337">
        <ele>396.345</ele>
        <time>2021-05-23T07:54:14Z</time>
      </trkpt>
      <trkpt lat="43.47546" lon="2.38336">
        <ele>396.114</ele>
        <time>2021-05-23T07:54:16Z</time>
      </trkpt>
      <trkpt lat="43.47548" lon="2.38336">
        <ele>394.833</ele>
        <time>2021-05-23T07:54:18Z</time>
      </trkpt>
      <trkpt lat="43.47551" lon="2.38336">
        <ele>395.324</ele>
        <time>2021-05-23T07:54:20Z</time>
      </trkpt>
      <trkpt lat="43.47554" lon="2.38336">
        <ele>395.029</ele>
        <time>2021-05-23T07:54:22Z</time>
      </trkpt>
      <trkpt lat="43.47556" lon="2.38337">
        <ele>394.726</ele>
        <time>2021-05-23T07:54:24Z</time>
      </trkpt>
      <trkpt lat="43.47559" lon="2.38337">
        <ele>394.115</ele>
        <time>2021-05-23T07:54:26Z</time>
      </trkpt>
      <trkpt lat="43.47561" lon="2.38337">
        <ele>395.078</ele>
        <time>2021-05-23T07:54:28Z</time>
      </trkpt>
      <trkpt lat="43.47563" lon="2.38338">
        <ele>395.171</ele>
        <time>2021-05-23T07:54:30Z</time>
      </trkpt>
      <trkpt lat="43.47567" lon="2.38338">
        <ele>395.747</ele>
        <time>2021-05-23T07:54:32Z</time>
      </trkpt>
      <trkpt lat="43.47569" lon="2.38339">
        <ele>393.656</ele>
        <time>2021-05-23T07:54:34Z</time>
      </trkpt>
      <trkpt lat="43.47571" lon="2.3834">
        <ele>393.032</ele>
        <time>2021-05-23T07:54:36Z</time>
      </trkpt>
      <trkpt lat="43.47573" lon="2.38341">
        <ele>392.469</ele>
        <time>2021-05-23T07:54:38Z</time>
      </trkpt>
      <trkpt lat="43.47575" lon="2.38342">
        <ele>389.97</ele>
        <time>2021-05-23T07:54:40Z</time>
      </trkpt>
      <trkpt lat="43.47578" lon="2.38343">
        <ele>389.252</ele>
        <time>2021-05-23T07:54:42Z</time>
      </trkpt>
      <trkpt lat="43.4758" lon="2.38343">
        <ele>388.135</ele>
        <time>2021-05-23T07:54:44Z</time>
      </trkpt>
      <trkpt lat="43.47582" lon="2.38344">
        <ele>387.921</ele>
        <time>2021-05-23T07:54:46Z</time>
      </trkpt>
      <trkpt lat="43.47584" lon="2.38346">
        <ele>388.367</ele>
        <time>2021-05-23T07:54:48Z</time>
      </trkpt>
      <trkpt lat="43.47587" lon="2.38346">
        <ele>387.997</ele>
        <time>2021-05-23T07:54:50Z</time>
      </trkpt>
      <trkpt lat="43.47589" lon="2.38347">
        <ele>388.722</ele>
        <time>2021-05-23T07:54:52Z</time>
      </trkpt>
      <trkpt lat="43.47591" lon="2.38348">
        <ele>387.37</ele>
        <time>2021-05-23T07:54:54Z</time>
      </trkpt>
      <trkpt lat="43.47593" lon="2.38349">
        <ele>387.092</ele>
        <time>2021-05-23T07:54:56Z</time>
      </trkpt>
      <trkpt lat="43.47596" lon="2.3835">
        <ele>387.112</ele>
        <time>2021-05-23T07:54:58Z</time>
      </trkpt>
      <trkpt lat="43.47598" lon="2.3835">
        <ele>388.503</ele>
        <time>2021-05-23T07:55:00Z</time>
      </trkpt>
      <trkpt lat="43.47601" lon="2.38352">
        <ele>387.675</ele>
        <time>2021-05-23T07:55:02Z</time>
      </trkpt>
      <trkpt lat="43.47603" lon="2.38353">
        <ele>387.589</ele>
        <time>2021-05-23T07:55:04Z</time>
      </trkpt>
      <trkpt lat="43.47605" lon="2.38354">
        <ele>386.845</ele>
        <time>2021-05-23T07:55:06Z</time>
      </trkpt>
      <trkpt lat="43.47607" lon="2.38354">
        <ele>385.935</ele>
        <time>2021-05-23T07:55:08Z</time>
      </trkpt>
      <trkpt lat="43.47608" lon="2.38355">
        <ele>384.166</ele>
        <time>2021-05-23T07:55:10Z</time>
      </trkpt>
      <trkpt lat="43.47609" lon="2.38356">
        <ele>383.673</ele>
        <time>2021-05-23T07:55:12Z</time>
      </trkpt>
      <trkpt lat="43.47611" lon="2.38357">
        <ele>382.824</ele>
        <time>2021-05-23T07:55:14Z</time>
      </trkpt>
      <trkpt lat="43.47612" lon="2.38358">
        <ele>382.357</ele>
        <time>2021-05-23T07:55:16Z</time>
      </trkpt>
      <trkpt lat="43.47611" lon="2.3836">
        <ele>382.027</ele>
        <time>2021-05-23T07:55:18Z</time>
      </trkpt>
      <trkpt lat="43.4761" lon="2.38362">
        <ele>381.162</ele>
        <time>2021-05-23T07:55:20Z</time>
      </trkpt>
      <trkpt lat="43.47609" lon="2.38365">
        <ele>381.655</ele>
        <time>2021-05-23T07:55:22Z</time>
      </trkpt>
      <trkpt lat="43.47608" lon="2.38368">
        <ele>381.745</ele>
        <time>2021-05-23T07:55:24Z</time>
      </trkpt>
      <trkpt lat="43.47607" lon="2.38369">
        <ele>383.13</ele>
        <time>2021-05-23T07:55:26Z</time>
      </trkpt>
      <trkpt lat="43.47609" lon="2.3837">
        <ele>383.026</ele>
        <time>2021-05-23T07:55:28Z</time>
      </trkpt>
      <trkpt lat="43.47609" lon="2.3837">
        <ele>382.24</ele>
        <time>2021-05-23T07:55:30Z</time>
      </trkpt>
      <trkpt lat="43.47611" lon="2.3837">
        <ele>382.256</ele>
        <time>2021-05-23T07:55:32Z</time>
      </trkpt>
      <trkpt lat="43.4761" lon="2.38369">
        <ele>382.242</ele>
        <time>2021-05-23T07:55:34Z</time>
      </trkpt>
      <trkpt lat="43.4761" lon="2.38369">
        <ele>382.281</ele>
        <time>2021-05-23T07:55:36Z</time>
      </trkpt>
      <trkpt lat="43.47609" lon="2.38368">
        <ele>382.319</ele>
        <time>2021-05-23T07:55:38Z</time>
      </trkpt>
      <trkpt lat="43.47609" lon="2.38368">
        <ele>382.335</ele>
        <time>2021-05-23T07:55:40Z</time>
      </trkpt>
      <trkpt lat="43.47609" lon="2.38367">
        <ele>382.348</ele>
        <time>2021-05-23T07:55:42Z</time>
      </trkpt>
      <trkpt lat="43.4761" lon="2.38369">
        <ele>382.408</ele>
        <time>2021-05-23T07:55:44Z</time>
      </trkpt>
      <trkpt lat="43.47612" lon="2.38377">
        <ele>383.675</ele>
        <time>2021-05-23T07:55:52Z</time>
      </trkpt>
      <trkpt lat="43.47613" lon="2.38379">
        <ele>382.972</ele>
        <time>2021-05-23T07:55:54Z</time>
      </trkpt>
      <trkpt lat="43.47614" lon="2.3838">
        <ele>383.779</ele>
        <time>2021-05-23T07:55:56Z</time>
      </trkpt>
      <trkpt lat="43.47614" lon="2.38382">
        <ele>382.575</ele>
        <time>2021-05-23T07:55:58Z</time>
      </trkpt>
      <trkpt lat="43.47614" lon="2.38383">
        <ele>382.282</ele>
        <time>2021-05-23T07:56:00Z</time>
      </trkpt>
      <trkpt lat="43.47613" lon="2.38383">
        <ele>381.986</ele>
        <time>2021-05-23T07:56:02Z</time>
      </trkpt>
      <trkpt lat="43.47611" lon="2.38386">
        <ele>383.248</ele>
        <time>2021-05-23T07:56:04Z</time>
      </trkpt>
      <trkpt lat="43.4761" lon="2.38389">
        <ele>385.569</ele>
        <time>2021-05-23T07:56:06Z</time>
      </trkpt>
      <trkpt lat="43.4761" lon="2.38392">
        <ele>385.154</ele>
        <time>2021-05-23T07:56:08Z</time>
      </trkpt>
      <trkpt lat="43.47609" lon="2.38393">
        <ele>386.369</ele>
        <time>2021-05-23T07:56:10Z</time>
      </trkpt>
      <trkpt lat="43.47608" lon="2.38396">
        <ele>388.291</ele>
        <time>2021-05-23T07:56:12Z</time>
      </trkpt>
      <trkpt lat="43.47607" lon="2.38398">
        <ele>388.117</ele>
        <time>2021-05-23T07:56:14Z</time>
      </trkpt>
      <trkpt lat="43.47604" lon="2.38399">
        <ele>389.03</ele>
        <time>2021-05-23T07:56:16Z</time>
      </trkpt>
      <trkpt lat="43.47603" lon="2.38401">
        <ele>390.375</ele>
        <time>2021-05-23T07:56:18Z</time>
      </trkpt>
      <trkpt lat="43.47604" lon="2.38404">
        <ele>391.149</ele>
        <time>2021-05-23T07:56:20Z</time>
      </trkpt>
      <trkpt lat="43.47603" lon="2.38406">
        <ele>391.092</ele>
        <time>2021-05-23T07:56:22Z</time>
      </trkpt>
      <trkpt lat="43.47603" lon="2.38408">
        <ele>390.41</ele>
        <time>2021-05-23T07:56:24Z</time>
      </trkpt>
      <trkpt lat="43.47604" lon="2.3841">
        <ele>389.992</ele>
        <time>2021-05-23T07:56:26Z</time>
      </trkpt>
      <trkpt lat="43.47603" lon="2.38412">
        <ele>387.401</ele>
        <time>2021-05-23T07:56:28Z</time>
      </trkpt>
      <trkpt lat="43.47603" lon="2.38414">
        <ele>388.573</ele>
        <time>2021-05-23T07:56:30Z</time>
      </trkpt>
      <trkpt lat="43.47602" lon="2.38416">
        <ele>388.144</ele>
        <time>2021-05-23T07:56:32Z</time>
      </trkpt>
      <trkpt lat="43.47601" lon="2.38417">
        <ele>387.316</ele>
        <time>2021-05-23T07:56:34Z</time>
      </trkpt>
      <trkpt lat="43.47601" lon="2.38419">
        <ele>387.854</ele>
        <time>2021-05-23T07:56:36Z</time>
      </trkpt>
      <trkpt lat="43.47601" lon="2.3842">
        <ele>386.444</ele>
        <time>2021-05-23T07:56:38Z</time>
      </trkpt>
      <trkpt lat="43.47601" lon="2.38422">
        <ele>386.324</ele>
        <time>2021-05-23T07:56:40Z</time>
      </trkpt>
      <trkpt lat="43.476" lon="2.38424">
        <ele>385.36</ele>
        <time>2021-05-23T07:56:42Z</time>
      </trkpt>
      <trkpt lat="43.47599" lon="2.38426">
        <ele>385.656</ele>
        <time>2021-05-23T07:56:44Z</time>
      </trkpt>
      <trkpt lat="43.47599" lon="2.38427">
        <ele>386.208</ele>
        <time>2021-05-23T07:56:46Z</time>
      </trkpt>
      <trkpt lat="43.47598" lon="2.38428">
        <ele>385.815</ele>
        <time>2021-05-23T07:56:48Z</time>
      </trkpt>
      <trkpt lat="43.47599" lon="2.3843">
        <ele>385.243</ele>
        <time>2021-05-23T07:56:50Z</time>
      </trkpt>
      <trkpt lat="43.47598" lon="2.38432">
        <ele>385.059</ele>
        <time>2021-05-23T07:56:52Z</time>
      </trkpt>
      <trkpt lat="43.47598" lon="2.38434">
        <ele>385.627</ele>
        <time>2021-05-23T07:56:54Z</time>
      </trkpt>
      <trkpt lat="43.47597" lon="2.38436">
        <ele>385.566</ele>
        <time>2021-05-23T07:56:56Z</time>
      </trkpt>
      <trkpt lat="43.47596" lon="2.38437">
        <ele>386.807</ele>
        <time>2021-05-23T07:56:58Z</time>
      </trkpt>
      <trkpt lat="43.47596" lon="2.38439">
        <ele>387.491</ele>
        <time>2021-05-23T07:57:00Z</time>
      </trkpt>
      <trkpt lat="43.47596" lon="2.38441">
        <ele>386.23</ele>
        <time>2021-05-23T07:57:02Z</time>
      </trkpt>
      <trkpt lat="43.47596" lon="2.38444">
        <ele>386.155</ele>
        <time>2021-05-23T07:57:04Z</time>
      </trkpt>
      <trkpt lat="43.47596" lon="2.38446">
        <ele>386.735</ele>
        <time>2021-05-23T07:57:06Z</time>
      </trkpt>
      <trkpt lat="43.47595" lon="2.38447">
        <ele>385.869</ele>
        <time>2021-05-23T07:57:08Z</time>
      </trkpt>
      <trkpt lat="43.47594" lon="2.38448">
        <ele>385.943</ele>
        <time>2021-05-23T07:57:10Z</time>
      </trkpt>
      <trkpt lat="43.47593" lon="2.38449">
        <ele>387.854</ele>
        <time>2021-05-23T07:57:12Z</time>
      </trkpt>
      <trkpt lat="43.47593" lon="2.38452">
        <ele>388.882</ele>
        <time>2021-05-23T07:57:14Z</time>
      </trkpt>
      <trkpt lat="43.47594" lon="2.38453">
        <ele>389.261</ele>
        <time>2021-05-23T07:57:16Z</time>
      </trkpt>
      <trkpt lat="43.47595" lon="2.38453">
        <ele>390.299</ele>
        <time>2021-05-23T07:57:18Z</time>
      </trkpt>
      <trkpt lat="43.47596" lon="2.38453">
        <ele>390.318</ele>
        <time>2021-05-23T07:57:20Z</time>
      </trkpt>
      <trkpt lat="43.47596" lon="2.38453">
        <ele>390.338</ele>
        <time>2021-05-23T07:57:22Z</time>
      </trkpt>
      <trkpt lat="43.47596" lon="2.38453">
        <ele>390.359</ele>
        <time>2021-05-23T07:57:24Z</time>
      </trkpt>
      <trkpt lat="43.47595" lon="2.38453">
        <ele>391.406</ele>
        <time>2021-05-23T07:57:26Z</time>
      </trkpt>
      <trkpt lat="43.47597" lon="2.38456">
        <ele>392.454</ele>
        <time>2021-05-23T07:57:28Z</time>
      </trkpt>
      <trkpt lat="43.47596" lon="2.38457">
        <ele>392.933</ele>
        <time>2021-05-23T07:57:30Z</time>
      </trkpt>
      <trkpt lat="43.47595" lon="2.38458">
        <ele>392.897</ele>
        <time>2021-05-23T07:57:32Z</time>
      </trkpt>
      <trkpt lat="43.47595" lon="2.38459">
        <ele>392.457</ele>
        <time>2021-05-23T07:57:34Z</time>
      </trkpt>
      <trkpt lat="43.47593" lon="2.3846">
        <ele>393.191</ele>
        <time>2021-05-23T07:57:36Z</time>
      </trkpt>
      <trkpt lat="43.47593" lon="2.38462">
        <ele>393.607</ele>
        <time>2021-05-23T07:57:38Z</time>
      </trkpt>
      <trkpt lat="43.47593" lon="2.38465">
        <ele>393.738</ele>
        <time>2021-05-23T07:57:40Z</time>
      </trkpt>
      <trkpt lat="43.47593" lon="2.38466">
        <ele>395.202</ele>
        <time>2021-05-23T07:57:42Z</time>
      </trkpt>
      <trkpt lat="43.47592" lon="2.38468">
        <ele>394.643</ele>
        <time>2021-05-23T07:57:44Z</time>
      </trkpt>
      <trkpt lat="43.47592" lon="2.3847">
        <ele>395.55</ele>
        <time>2021-05-23T07:57:46Z</time>
      </trkpt>
      <trkpt lat="43.47592" lon="2.38471">
        <ele>395.211</ele>
        <time>2021-05-23T07:57:48Z</time>
      </trkpt>
      <trkpt lat="43.47592" lon="2.38473">
        <ele>395.118</ele>
        <time>2021-05-23T07:57:50Z</time>
      </trkpt>
      <trkpt lat="43.47592" lon="2.38475">
        <ele>395.23</ele>
        <time>2021-05-23T07:57:52Z</time>
      </trkpt>
      <trkpt lat="43.47592" lon="2.38476">
        <ele>394.291</ele>
        <time>2021-05-23T07:57:54Z</time>
      </trkpt>
      <trkpt lat="43.47592" lon="2.38478">
        <ele>393.699</ele>
        <time>2021-05-23T07:57:56Z</time>
      </trkpt>
      <trkpt lat="43.47592" lon="2.3848">
        <ele>394.551</ele>
        <time>2021-05-23T07:57:58Z</time>
      </trkpt>
      <trkpt lat="43.47592" lon="2.38482">
        <ele>396.177</ele>
        <time>2021-05-23T07:58:00Z</time>
      </trkpt>
      <trkpt lat="43.47592" lon="2.38485">
        <ele>398.015</ele>
        <time>2021-05-23T07:58:02Z</time>
      </trkpt>
      <trkpt lat="43.47591" lon="2.38487">
        <ele>397.762</ele>
        <time>2021-05-23T07:58:04Z</time>
      </trkpt>
      <trkpt lat="43.47591" lon="2.38488">
        <ele>397.974</ele>
        <time>2021-05-23T07:58:06Z</time>
      </trkpt>
      <trkpt lat="43.4759" lon="2.3849">
        <ele>398.742</ele>
        <time>2021-05-23T07:58:08Z</time>
      </trkpt>
      <trkpt lat="43.4759" lon="2.38491">
        <ele>399.147</ele>
        <time>2021-05-23T07:58:10Z</time>
      </trkpt>
      <trkpt lat="43.4759" lon="2.38492">
        <ele>397.84</ele>
        <time>2021-05-23T07:58:12Z</time>
      </trkpt>
      <trkpt lat="43.4759" lon="2.38494">
        <ele>398.661</ele>
        <time>2021-05-23T07:58:14Z</time>
      </trkpt>
      <trkpt lat="43.47589" lon="2.38495">
        <ele>399.355</ele>
        <time>2021-05-23T07:58:16Z</time>
      </trkpt>
      <trkpt lat="43.47589" lon="2.38498">
        <ele>399.758</ele>
        <time>2021-05-23T07:58:18Z</time>
      </trkpt>
      <trkpt lat="43.47589" lon="2.38501">
        <ele>400.552</ele>
        <time>2021-05-23T07:58:20Z</time>
      </trkpt>
      <trkpt lat="43.47589" lon="2.38503">
        <ele>400.225</ele>
        <time>2021-05-23T07:58:22Z</time>
      </trkpt>
      <trkpt lat="43.4759" lon="2.38506">
        <ele>401.073</ele>
        <time>2021-05-23T07:58:24Z</time>
      </trkpt>
      <trkpt lat="43.4759" lon="2.38508">
        <ele>400.712</ele>
        <time>2021-05-23T07:58:26Z</time>
      </trkpt>
      <trkpt lat="43.4759" lon="2.3851">
        <ele>399.435</ele>
        <time>2021-05-23T07:58:28Z</time>
      </trkpt>
      <trkpt lat="43.4759" lon="2.38512">
        <ele>399.82</ele>
        <time>2021-05-23T07:58:30Z</time>
      </trkpt>
      <trkpt lat="43.47591" lon="2.38514">
        <ele>399.967</ele>
        <time>2021-05-23T07:58:32Z</time>
      </trkpt>
      <trkpt lat="43.47591" lon="2.38517">
        <ele>400.668</ele>
        <time>2021-05-23T07:58:34Z</time>
      </trkpt>
      <trkpt lat="43.47591" lon="2.38519">
        <ele>401.933</ele>
        <time>2021-05-23T07:58:36Z</time>
      </trkpt>
      <trkpt lat="43.47591" lon="2.38521">
        <ele>401.601</ele>
        <time>2021-05-23T07:58:38Z</time>
      </trkpt>
      <trkpt lat="43.47592" lon="2.38523">
        <ele>400.758</ele>
        <time>2021-05-23T07:58:40Z</time>
      </trkpt>
      <trkpt lat="43.47592" lon="2.38525">
        <ele>401.21</ele>
        <time>2021-05-23T07:58:42Z</time>
      </trkpt>
      <trkpt lat="43.47593" lon="2.38528">
        <ele>401.839</ele>
        <time>2021-05-23T07:58:44Z</time>
      </trkpt>
      <trkpt lat="43.47593" lon="2.3853">
        <ele>402.654</ele>
        <time>2021-05-23T07:58:46Z</time>
      </trkpt>
      <trkpt lat="43.47593" lon="2.38532">
        <ele>402.49</ele>
        <time>2021-05-23T07:58:48Z</time>
      </trkpt>
      <trkpt lat="43.47594" lon="2.38534">
        <ele>402.682</ele>
        <time>2021-05-23T07:58:50Z</time>
      </trkpt>
      <trkpt lat="43.47594" lon="2.38535">
        <ele>403.401</ele>
        <time>2021-05-23T07:58:52Z</time>
      </trkpt>
      <trkpt lat="43.47594" lon="2.38537">
        <ele>403.064</ele>
        <time>2021-05-23T07:58:54Z</time>
      </trkpt>
      <trkpt lat="43.47594" lon="2.38539">
        <ele>403.087</ele>
        <time>2021-05-23T07:58:56Z</time>
      </trkpt>
      <trkpt lat="43.47594" lon="2.38541">
        <ele>403.432</ele>
        <time>2021-05-23T07:58:58Z</time>
      </trkpt>
      <trkpt lat="43.47594" lon="2.38543">
        <ele>403.528</ele>
        <time>2021-05-23T07:59:00Z</time>
      </trkpt>
      <trkpt lat="43.47595" lon="2.38545">
        <ele>404.283</ele>
        <time>2021-05-23T07:59:02Z</time>
      </trkpt>
      <trkpt lat="43.47595" lon="2.38547">
        <ele>403.913</ele>
        <time>2021-05-23T07:59:04Z</time>
      </trkpt>
      <trkpt lat="43.47595" lon="2.38549">
        <ele>404.589</ele>
        <time>2021-05-23T07:59:06Z</time>
      </trkpt>
      <trkpt lat="43.47595" lon="2.38552">
        <ele>405.617</ele>
        <time>2021-05-23T07:59:08Z</time>
      </trkpt>
      <trkpt lat="43.47595" lon="2.38554">
        <ele>406.658</ele>
        <time>2021-05-23T07:59:10Z</time>
      </trkpt>
      <trkpt lat="43.47595" lon="2.38556">
        <ele>407.576</ele>
        <time>2021-05-23T07:59:12Z</time>
      </trkpt>
      <trkpt lat="43.47595" lon="2.38559">
        <ele>408.741</ele>
        <time>2021-05-23T07:59:14Z</time>
      </trkpt>
      <trkpt lat="43.47595" lon="2.38561">
        <ele>409.318</ele>
        <time>2021-05-23T07:59:16Z</time>
      </trkpt>
      <trkpt lat="43.47595" lon="2.38564">
        <ele>411.168</ele>
        <time>2021-05-23T07:59:18Z</time>
      </trkpt>
      <trkpt lat="43.47594" lon="2.38566">
        <ele>412.023</ele>
        <time>2021-05-23T07:59:20Z</time>
      </trkpt>
      <trkpt lat="43.47594" lon="2.38568">
        <ele>412.474</ele>
        <time>2021-05-23T07:59:22Z</time>
      </trkpt>
      <trkpt lat="43.47593" lon="2.3857">
        <ele>413.551</ele>
        <time>2021-05-23T07:59:24Z</time>
      </trkpt>
      <trkpt lat="43.47592" lon="2.38572">
        <ele>413.979</ele>
        <time>2021-05-23T07:59:26Z</time>
      </trkpt>
      <trkpt lat="43.47591" lon="2.38574">
        <ele>414.47</ele>
        <time>2021-05-23T07:59:28Z</time>
      </trkpt>
      <trkpt lat="43.4759" lon="2.38575">
        <ele>414.688</ele>
        <time>2021-05-23T07:59:30Z</time>
      </trkpt>
      <trkpt lat="43.4759" lon="2.38576">
        <ele>414.622</ele>
        <time>2021-05-23T07:59:32Z</time>
      </trkpt>
      <trkpt lat="43.4759" lon="2.38577">
        <ele>414.531</ele>
        <time>2021-05-23T07:59:34Z</time>
      </trkpt>
      <trkpt lat="43.47591" lon="2.38579">
        <ele>414.455</ele>
        <time>2021-05-23T07:59:36Z</time>
      </trkpt>
      <trkpt lat="43.47591" lon="2.38581">
        <ele>414.394</ele>
        <time>2021-05-23T07:59:38Z</time>
      </trkpt>
      <trkpt lat="43.4759" lon="2.38582">
        <ele>414.362</ele>
        <time>2021-05-23T07:59:40Z</time>
      </trkpt>
      <trkpt lat="43.47589" lon="2.38583">
        <ele>414.07</ele>
        <time>2021-05-23T07:59:42Z</time>
      </trkpt>
      <trkpt lat="43.47588" lon="2.38585">
        <ele>413.794</ele>
        <time>2021-05-23T07:59:44Z</time>
      </trkpt>
      <trkpt lat="43.47587" lon="2.38586">
        <ele>413.795</ele>
        <time>2021-05-23T07:59:46Z</time>
      </trkpt>
      <trkpt lat="43.47586" lon="2.38587">
        <ele>413.9</ele>
        <time>2021-05-23T07:59:48Z</time>
      </trkpt>
      <trkpt lat="43.47585" lon="2.38588">
        <ele>414.002</ele>
        <time>2021-05-23T07:59:50Z</time>
      </trkpt>
      <trkpt lat="43.47585" lon="2.38588">
        <ele>414.236</ele>
        <time>2021-05-23T07:59:52Z</time>
      </trkpt>
      <trkpt lat="43.47585" lon="2.38588">
        <ele>414.506</ele>
        <time>2021-05-23T07:59:54Z</time>
      </trkpt>
      <trkpt lat="43.47584" lon="2.3859">
        <ele>414.358</ele>
        <time>2021-05-23T07:59:56Z</time>
      </trkpt>
      <trkpt lat="43.47583" lon="2.38591">
        <ele>414.433</ele>
        <time>2021-05-23T07:59:58Z</time>
      </trkpt>
      <trkpt lat="43.47582" lon="2.38592">
        <ele>414.652</ele>
        <time>2021-05-23T08:00:00Z</time>
      </trkpt>
      <trkpt lat="43.47581" lon="2.38594">
        <ele>414.723</ele>
        <time>2021-05-23T08:00:02Z</time>
      </trkpt>
      <trkpt lat="43.4758" lon="2.38595">
        <ele>415.383</ele>
        <time>2021-05-23T08:00:04Z</time>
      </trkpt>
      <trkpt lat="43.4758" lon="2.38596">
        <ele>415.09</ele>
        <time>2021-05-23T08:00:06Z</time>
      </trkpt>
      <trkpt lat="43.47578" lon="2.38597">
        <ele>414.885</ele>
        <time>2021-05-23T08:00:08Z</time>
      </trkpt>
      <trkpt lat="43.47577" lon="2.38598">
        <ele>414.615</ele>
        <time>2021-05-23T08:00:10Z</time>
      </trkpt>
      <trkpt lat="43.47577" lon="2.386">
        <ele>414.267</ele>
        <time>2021-05-23T08:00:12Z</time>
      </trkpt>
      <trkpt lat="43.47575" lon="2.38602">
        <ele>414.882</ele>
        <time>2021-05-23T08:00:14Z</time>
      </trkpt>
      <trkpt lat="43.47574" lon="2.38604">
        <ele>416.303</ele>
        <time>2021-05-23T08:00:16Z</time>
      </trkpt>
      <trkpt lat="43.47572" lon="2.38606">
        <ele>417.94</ele>
        <time>2021-05-23T08:00:18Z</time>
      </trkpt>
      <trkpt lat="43.47571" lon="2.38607">
        <ele>417.685</ele>
        <time>2021-05-23T08:00:20Z</time>
      </trkpt>
      <trkpt lat="43.4757" lon="2.38608">
        <ele>418.701</ele>
        <time>2021-05-23T08:00:22Z</time>
      </trkpt>
      <trkpt lat="43.47568" lon="2.3861">
        <ele>421.431</ele>
        <time>2021-05-23T08:00:24Z</time>
      </trkpt>
      <trkpt lat="43.47567" lon="2.38612">
        <ele>421.952</ele>
        <time>2021-05-23T08:00:26Z</time>
      </trkpt>
      <trkpt lat="43.47565" lon="2.38614">
        <ele>421.367</ele>
        <time>2021-05-23T08:00:28Z</time>
      </trkpt>
      <trkpt lat="43.47564" lon="2.38617">
        <ele>422.645</ele>
        <time>2021-05-23T08:00:30Z</time>
      </trkpt>
      <trkpt lat="43.47563" lon="2.3862">
        <ele>422.987</ele>
        <time>2021-05-23T08:00:32Z</time>
      </trkpt>
      <trkpt lat="43.47561" lon="2.38622">
        <ele>423.346</ele>
        <time>2021-05-23T08:00:34Z</time>
      </trkpt>
      <trkpt lat="43.47559" lon="2.38625">
        <ele>423.443</ele>
        <time>2021-05-23T08:00:36Z</time>
      </trkpt>
      <trkpt lat="43.47558" lon="2.38627">
        <ele>423.39</ele>
        <time>2021-05-23T08:00:38Z</time>
      </trkpt>
      <trkpt lat="43.47556" lon="2.38628">
        <ele>423.101</ele>
        <time>2021-05-23T08:00:40Z</time>
      </trkpt>
      <trkpt lat="43.47555" lon="2.3863">
        <ele>422.87</ele>
        <time>2021-05-23T08:00:42Z</time>
      </trkpt>
      <trkpt lat="43.47554" lon="2.38632">
        <ele>421.457</ele>
        <time>2021-05-23T08:00:44Z</time>
      </trkpt>
      <trkpt lat="43.47551" lon="2.38634">
        <ele>422.18</ele>
        <time>2021-05-23T08:00:46Z</time>
      </trkpt>
      <trkpt lat="43.4755" lon="2.38636">
        <ele>422.98</ele>
        <time>2021-05-23T08:00:48Z</time>
      </trkpt>
      <trkpt lat="43.47549" lon="2.38638">
        <ele>423.477</ele>
        <time>2021-05-23T08:00:50Z</time>
      </trkpt>
      <trkpt lat="43.47548" lon="2.3864">
        <ele>423.383</ele>
        <time>2021-05-23T08:00:52Z</time>
      </trkpt>
      <trkpt lat="43.47547" lon="2.38641">
        <ele>423.696</ele>
        <time>2021-05-23T08:00:54Z</time>
      </trkpt>
      <trkpt lat="43.47546" lon="2.38643">
        <ele>423.086</ele>
        <time>2021-05-23T08:00:56Z</time>
      </trkpt>
      <trkpt lat="43.47545" lon="2.38645">
        <ele>422.153</ele>
        <time>2021-05-23T08:00:58Z</time>
      </trkpt>
      <trkpt lat="43.47544" lon="2.38647">
        <ele>422.173</ele>
        <time>2021-05-23T08:01:00Z</time>
      </trkpt>
      <trkpt lat="43.47542" lon="2.38649">
        <ele>421.81</ele>
        <time>2021-05-23T08:01:02Z</time>
      </trkpt>
      <trkpt lat="43.47541" lon="2.3865">
        <ele>422.514</ele>
        <time>2021-05-23T08:01:04Z</time>
      </trkpt>
      <trkpt lat="43.4754" lon="2.38652">
        <ele>423.386</ele>
        <time>2021-05-23T08:01:06Z</time>
      </trkpt>
      <trkpt lat="43.47538" lon="2.38655">
        <ele>425.721</ele>
        <time>2021-05-23T08:01:08Z</time>
      </trkpt>
      <trkpt lat="43.47537" lon="2.38657">
        <ele>426.88</ele>
        <time>2021-05-23T08:01:10Z</time>
      </trkpt>
      <trkpt lat="43.47536" lon="2.38659">
        <ele>427.414</ele>
        <time>2021-05-23T08:01:12Z</time>
      </trkpt>
      <trkpt lat="43.47535" lon="2.38662">
        <ele>426.946</ele>
        <time>2021-05-23T08:01:14Z</time>
      </trkpt>
      <trkpt lat="43.47534" lon="2.38663">
        <ele>425.086</ele>
        <time>2021-05-23T08:01:16Z</time>
      </trkpt>
      <trkpt lat="43.47533" lon="2.38666">
        <ele>422.346</ele>
        <time>2021-05-23T08:01:18Z</time>
      </trkpt>
      <trkpt lat="43.47532" lon="2.38668">
        <ele>421.86</ele>
        <time>2021-05-23T08:01:20Z</time>
      </trkpt>
      <trkpt lat="43.4753" lon="2.3867">
        <ele>421.072</ele>
        <time>2021-05-23T08:01:22Z</time>
      </trkpt>
      <trkpt lat="43.47529" lon="2.38674">
        <ele>421.249</ele>
        <time>2021-05-23T08:01:24Z</time>
      </trkpt>
      <trkpt lat="43.47527" lon="2.38677">
        <ele>421.535</ele>
        <time>2021-05-23T08:01:26Z</time>
      </trkpt>
      <trkpt lat="43.47526" lon="2.38679">
        <ele>421.507</ele>
        <time>2021-05-23T08:01:28Z</time>
      </trkpt>
      <trkpt lat="43.47524" lon="2.38682">
        <ele>421.954</ele>
        <time>2021-05-23T08:01:30Z</time>
      </trkpt>
      <trkpt lat="43.47523" lon="2.38684">
        <ele>421.835</ele>
        <time>2021-05-23T08:01:32Z</time>
      </trkpt>
      <trkpt lat="43.47522" lon="2.38686">
        <ele>421.495</ele>
        <time>2021-05-23T08:01:34Z</time>
      </trkpt>
      <trkpt lat="43.47521" lon="2.38688">
        <ele>423.606</ele>
        <time>2021-05-23T08:01:36Z</time>
      </trkpt>
      <trkpt lat="43.47519" lon="2.38691">
        <ele>425.342</ele>
        <time>2021-05-23T08:01:38Z</time>
      </trkpt>
      <trkpt lat="43.47518" lon="2.38695">
        <ele>426.65</ele>
        <time>2021-05-23T08:01:40Z</time>
      </trkpt>
      <trkpt lat="43.47517" lon="2.38698">
        <ele>426.928</ele>
        <time>2021-05-23T08:01:42Z</time>
      </trkpt>
      <trkpt lat="43.47517" lon="2.38701">
        <ele>425.379</ele>
        <time>2021-05-23T08:01:44Z</time>
      </trkpt>
      <trkpt lat="43.47516" lon="2.38703">
        <ele>425.758</ele>
        <time>2021-05-23T08:01:46Z</time>
      </trkpt>
      <trkpt lat="43.47514" lon="2.38706">
        <ele>426.02</ele>
        <time>2021-05-23T08:01:48Z</time>
      </trkpt>
      <trkpt lat="43.47514" lon="2.3871">
        <ele>426.498</ele>
        <time>2021-05-23T08:01:50Z</time>
      </trkpt>
      <trkpt lat="43.47513" lon="2.38714">
        <ele>427.413</ele>
        <time>2021-05-23T08:01:52Z</time>
      </trkpt>
      <trkpt lat="43.47512" lon="2.38718">
        <ele>427.912</ele>
        <time>2021-05-23T08:01:54Z</time>
      </trkpt>
      <trkpt lat="43.47511" lon="2.38721">
        <ele>427.108</ele>
        <time>2021-05-23T08:01:56Z</time>
      </trkpt>
      <trkpt lat="43.47509" lon="2.38723">
        <ele>427.015</ele>
        <time>2021-05-23T08:01:58Z</time>
      </trkpt>
      <trkpt lat="43.47508" lon="2.38727">
        <ele>427.337</ele>
        <time>2021-05-23T08:02:00Z</time>
      </trkpt>
      <trkpt lat="43.47507" lon="2.38729">
        <ele>427.033</ele>
        <time>2021-05-23T08:02:02Z</time>
      </trkpt>
      <trkpt lat="43.47506" lon="2.38731">
        <ele>426.13</ele>
        <time>2021-05-23T08:02:04Z</time>
      </trkpt>
      <trkpt lat="43.47505" lon="2.38734">
        <ele>429.173</ele>
        <time>2021-05-23T08:02:06Z</time>
      </trkpt>
      <trkpt lat="43.47504" lon="2.38738">
        <ele>429.173</ele>
        <time>2021-05-23T08:02:08Z</time>
      </trkpt>
      <trkpt lat="43.47503" lon="2.38741">
        <ele>429.236</ele>
        <time>2021-05-23T08:02:10Z</time>
      </trkpt>
      <trkpt lat="43.47503" lon="2.38742">
        <ele>429.677</ele>
        <time>2021-05-23T08:02:12Z</time>
      </trkpt>
      <trkpt lat="43.47505" lon="2.38744">
        <ele>430.573</ele>
        <time>2021-05-23T08:02:14Z</time>
      </trkpt>
      <trkpt lat="43.47501" lon="2.38748">
        <ele>435.509</ele>
        <time>2021-05-23T08:02:16Z</time>
      </trkpt>
      <trkpt lat="43.475" lon="2.38751">
        <ele>435.351</ele>
        <time>2021-05-23T08:02:18Z</time>
      </trkpt>
      <trkpt lat="43.47499" lon="2.38752">
        <ele>435.129</ele>
        <time>2021-05-23T08:02:20Z</time>
      </trkpt>
      <trkpt lat="43.47498" lon="2.38753">
        <ele>434.229</ele>
        <time>2021-05-23T08:02:22Z</time>
      </trkpt>
      <trkpt lat="43.47497" lon="2.38756">
        <ele>435.103</ele>
        <time>2021-05-23T08:02:24Z</time>
      </trkpt>
      <trkpt lat="43.47495" lon="2.38758">
        <ele>434.958</ele>
        <time>2021-05-23T08:02:26Z</time>
      </trkpt>
      <trkpt lat="43.47494" lon="2.38761">
        <ele>436.073</ele>
        <time>2021-05-23T08:02:28Z</time>
      </trkpt>
      <trkpt lat="43.47492" lon="2.38763">
        <ele>436.908</ele>
        <time>2021-05-23T08:02:30Z</time>
      </trkpt>
      <trkpt lat="43.47491" lon="2.38766">
        <ele>438.522</ele>
        <time>2021-05-23T08:02:32Z</time>
      </trkpt>
      <trkpt lat="43.4749" lon="2.38768">
        <ele>438.693</ele>
        <time>2021-05-23T08:02:34Z</time>
      </trkpt>
      <trkpt lat="43.47488" lon="2.38771">
        <ele>438.027</ele>
        <time>2021-05-23T08:02:36Z</time>
      </trkpt>
      <trkpt lat="43.47486" lon="2.38773">
        <ele>438.566</ele>
        <time>2021-05-23T08:02:38Z</time>
      </trkpt>
      <trkpt lat="43.47485" lon="2.38775">
        <ele>438.162</ele>
        <time>2021-05-23T08:02:40Z</time>
      </trkpt>
      <trkpt lat="43.47483" lon="2.38777">
        <ele>438.265</ele>
        <time>2021-05-23T08:02:42Z</time>
      </trkpt>
      <trkpt lat="43.47482" lon="2.38779">
        <ele>437.584</ele>
        <time>2021-05-23T08:02:44Z</time>
      </trkpt>
      <trkpt lat="43.4748" lon="2.38781">
        <ele>437.641</ele>
        <time>2021-05-23T08:02:46Z</time>
      </trkpt>
      <trkpt lat="43.47479" lon="2.38781">
        <ele>438.102</ele>
        <time>2021-05-23T08:02:47Z</time>
      </trkpt>
      <trkpt lat="43.47477" lon="2.38783">
        <ele>438.048</ele>
        <time>2021-05-23T08:02:50Z</time>
      </trkpt>
      <trkpt lat="43.47475" lon="2.38785">
        <ele>438.014</ele>
        <time>2021-05-23T08:02:52Z</time>
      </trkpt>
      <trkpt lat="43.47474" lon="2.38786">
        <ele>437.996</ele>
        <time>2021-05-23T08:02:54Z</time>
      </trkpt>
      <trkpt lat="43.47472" lon="2.38787">
        <ele>438.589</ele>
        <time>2021-05-23T08:02:56Z</time>
      </trkpt>
      <trkpt lat="43.47471" lon="2.38788">
        <ele>436.577</ele>
        <time>2021-05-23T08:02:58Z</time>
      </trkpt>
      <trkpt lat="43.4747" lon="2.38789">
        <ele>437.961</ele>
        <time>2021-05-23T08:03:00Z</time>
      </trkpt>
      <trkpt lat="43.47468" lon="2.3879">
        <ele>438.943</ele>
        <time>2021-05-23T08:03:02Z</time>
      </trkpt>
      <trkpt lat="43.47466" lon="2.38791">
        <ele>438.95</ele>
        <time>2021-05-23T08:03:04Z</time>
      </trkpt>
      <trkpt lat="43.47465" lon="2.38792">
        <ele>438.955</ele>
        <time>2021-05-23T08:03:06Z</time>
      </trkpt>
      <trkpt lat="43.47463" lon="2.38793">
        <ele>438.38</ele>
        <time>2021-05-23T08:03:08Z</time>
      </trkpt>
      <trkpt lat="43.47462" lon="2.38794">
        <ele>439.206</ele>
        <time>2021-05-23T08:03:10Z</time>
      </trkpt>
      <trkpt lat="43.4746" lon="2.38795">
        <ele>440.359</ele>
        <time>2021-05-23T08:03:12Z</time>
      </trkpt>
      <trkpt lat="43.47459" lon="2.38796">
        <ele>441.191</ele>
        <time>2021-05-23T08:03:14Z</time>
      </trkpt>
      <trkpt lat="43.47457" lon="2.38798">
        <ele>441.344</ele>
        <time>2021-05-23T08:03:16Z</time>
      </trkpt>
      <trkpt lat="43.47455" lon="2.38798">
        <ele>441.587</ele>
        <time>2021-05-23T08:03:18Z</time>
      </trkpt>
      <trkpt lat="43.47453" lon="2.38799">
        <ele>441.27</ele>
        <time>2021-05-23T08:03:20Z</time>
      </trkpt>
      <trkpt lat="43.47451" lon="2.388">
        <ele>441.492</ele>
        <time>2021-05-23T08:03:22Z</time>
      </trkpt>
      <trkpt lat="43.4745" lon="2.38801">
        <ele>441.459</ele>
        <time>2021-05-23T08:03:24Z</time>
      </trkpt>
      <trkpt lat="43.47448" lon="2.38802">
        <ele>441.513</ele>
        <time>2021-05-23T08:03:26Z</time>
      </trkpt>
      <trkpt lat="43.47446" lon="2.38803">
        <ele>440.781</ele>
        <time>2021-05-23T08:03:28Z</time>
      </trkpt>
      <trkpt lat="43.47444" lon="2.38805">
        <ele>440.274</ele>
        <time>2021-05-23T08:03:30Z</time>
      </trkpt>
      <trkpt lat="43.47443" lon="2.38805">
        <ele>441.182</ele>
        <time>2021-05-23T08:03:32Z</time>
      </trkpt>
      <trkpt lat="43.47441" lon="2.38806">
        <ele>442.468</ele>
        <time>2021-05-23T08:03:34Z</time>
      </trkpt>
      <trkpt lat="43.47439" lon="2.38807">
        <ele>442.293</ele>
        <time>2021-05-23T08:03:36Z</time>
      </trkpt>
      <trkpt lat="43.47438" lon="2.38808">
        <ele>442.787</ele>
        <time>2021-05-23T08:03:38Z</time>
      </trkpt>
      <trkpt lat="43.47438" lon="2.3881">
        <ele>443.809</ele>
        <time>2021-05-23T08:03:40Z</time>
      </trkpt>
      <trkpt lat="43.47438" lon="2.3881">
        <ele>443.235</ele>
        <time>2021-05-23T08:03:42Z</time>
      </trkpt>
      <trkpt lat="43.47438" lon="2.3881">
        <ele>443.239</ele>
        <time>2021-05-23T08:03:44Z</time>
      </trkpt>
      <trkpt lat="43.47438" lon="2.3881">
        <ele>443.225</ele>
        <time>2021-05-23T08:03:46Z</time>
      </trkpt>
      <trkpt lat="43.47438" lon="2.3881">
        <ele>443.222</ele>
        <time>2021-05-23T08:03:48Z</time>
      </trkpt>
      <trkpt lat="43.47438" lon="2.3881">
        <ele>443.223</ele>
        <time>2021-05-23T08:03:50Z</time>
      </trkpt>
      <trkpt lat="43.47438" lon="2.3881">
        <ele>443.204</ele>
        <time>2021-05-23T08:03:52Z</time>
      </trkpt>
      <trkpt lat="43.47438" lon="2.3881">
        <ele>443.198</ele>
        <time>2021-05-23T08:03:54Z</time>
      </trkpt>
      <trkpt lat="43.47438" lon="2.3881">
        <ele>443.32</ele>
        <time>2021-05-23T08:03:56Z</time>
      </trkpt>
      <trkpt lat="43.47437" lon="2.3881">
        <ele>443.585</ele>
        <time>2021-05-23T08:03:58Z</time>
      </trkpt>
      <trkpt lat="43.47436" lon="2.38814">
        <ele>444.503</ele>
        <time>2021-05-23T08:04:00Z</time>
      </trkpt>
      <trkpt lat="43.47435" lon="2.38815">
        <ele>444.004</ele>
        <time>2021-05-23T08:04:02Z</time>
      </trkpt>
      <trkpt lat="43.47435" lon="2.38815">
        <ele>444.69</ele>
        <time>2021-05-23T08:04:03Z</time>
      </trkpt>
      <trkpt lat="43.47431" lon="2.38817">
        <ele>446.688</ele>
        <time>2021-05-23T08:04:10Z</time>
      </trkpt>
      <trkpt lat="43.4743" lon="2.38818">
        <ele>446.426</ele>
        <time>2021-05-23T08:04:12Z</time>
      </trkpt>
      <trkpt lat="43.47429" lon="2.38819">
        <ele>446.686</ele>
        <time>2021-05-23T08:04:14Z</time>
      </trkpt>
      <trkpt lat="43.47429" lon="2.3882">
        <ele>446.652</ele>
        <time>2021-05-23T08:04:16Z</time>
      </trkpt>
      <trkpt lat="43.47429" lon="2.38821">
        <ele>446.8</ele>
        <time>2021-05-23T08:04:18Z</time>
      </trkpt>
      <trkpt lat="43.47429" lon="2.38821">
        <ele>446.795</ele>
        <time>2021-05-23T08:04:20Z</time>
      </trkpt>
      <trkpt lat="43.47429" lon="2.38821">
        <ele>446.786</ele>
        <time>2021-05-23T08:04:22Z</time>
      </trkpt>
      <trkpt lat="43.47429" lon="2.38821">
        <ele>446.789</ele>
        <time>2021-05-23T08:04:24Z</time>
      </trkpt>
      <trkpt lat="43.47429" lon="2.38821">
        <ele>446.79</ele>
        <time>2021-05-23T08:04:26Z</time>
      </trkpt>
      <trkpt lat="43.47429" lon="2.38821">
        <ele>446.739</ele>
        <time>2021-05-23T08:04:28Z</time>
      </trkpt>
      <trkpt lat="43.4743" lon="2.38821">
        <ele>446.261</ele>
        <time>2021-05-23T08:04:30Z</time>
      </trkpt>
      <trkpt lat="43.47431" lon="2.38822">
        <ele>446.665</ele>
        <time>2021-05-23T08:04:32Z</time>
      </trkpt>
      <trkpt lat="43.47431" lon="2.38822">
        <ele>446.653</ele>
        <time>2021-05-23T08:04:34Z</time>
      </trkpt>
      <trkpt lat="43.47431" lon="2.38822">
        <ele>446.655</ele>
        <time>2021-05-23T08:04:36Z</time>
      </trkpt>
      <trkpt lat="43.47431" lon="2.38822">
        <ele>446.649</ele>
        <time>2021-05-23T08:04:38Z</time>
      </trkpt>
      <trkpt lat="43.4743" lon="2.38823">
        <ele>446.095</ele>
        <time>2021-05-23T08:04:40Z</time>
      </trkpt>
      <trkpt lat="43.47429" lon="2.38823">
        <ele>446.692</ele>
        <time>2021-05-23T08:04:42Z</time>
      </trkpt>
      <trkpt lat="43.47427" lon="2.38825">
        <ele>446.599</ele>
        <time>2021-05-23T08:04:44Z</time>
      </trkpt>
      <trkpt lat="43.47426" lon="2.38826">
        <ele>448.558</ele>
        <time>2021-05-23T08:04:46Z</time>
      </trkpt>
      <trkpt lat="43.47424" lon="2.38828">
        <ele>448.09</ele>
        <time>2021-05-23T08:04:48Z</time>
      </trkpt>
      <trkpt lat="43.47423" lon="2.38829">
        <ele>446.758</ele>
        <time>2021-05-23T08:04:50Z</time>
      </trkpt>
      <trkpt lat="43.47421" lon="2.3883">
        <ele>446.632</ele>
        <time>2021-05-23T08:04:52Z</time>
      </trkpt>
      <trkpt lat="43.47418" lon="2.3883">
        <ele>446.624</ele>
        <time>2021-05-23T08:04:54Z</time>
      </trkpt>
      <trkpt lat="43.47416" lon="2.3883">
        <ele>445.638</ele>
        <time>2021-05-23T08:04:56Z</time>
      </trkpt>
      <trkpt lat="43.47414" lon="2.3883">
        <ele>447.462</ele>
        <time>2021-05-23T08:04:58Z</time>
      </trkpt>
      <trkpt lat="43.47412" lon="2.38829">
        <ele>447.457</ele>
        <time>2021-05-23T08:05:00Z</time>
      </trkpt>
      <trkpt lat="43.47412" lon="2.38827">
        <ele>446.997</ele>
        <time>2021-05-23T08:05:02Z</time>
      </trkpt>
      <trkpt lat="43.47411" lon="2.38826">
        <ele>446.319</ele>
        <time>2021-05-23T08:05:04Z</time>
      </trkpt>
      <trkpt lat="43.4741" lon="2.38824">
        <ele>445.453</ele>
        <time>2021-05-23T08:05:06Z</time>
      </trkpt>
      <trkpt lat="43.47408" lon="2.38825">
        <ele>444.553</ele>
        <time>2021-05-23T08:05:08Z</time>
      </trkpt>
      <trkpt lat="43.47407" lon="2.38825">
        <ele>444.911</ele>
        <time>2021-05-23T08:05:10Z</time>
      </trkpt>
      <trkpt lat="43.47406" lon="2.38826">
        <ele>445.474</ele>
        <time>2021-05-23T08:05:12Z</time>
      </trkpt>
      <trkpt lat="43.47404" lon="2.38827">
        <ele>446.763</ele>
        <time>2021-05-23T08:05:14Z</time>
      </trkpt>
      <trkpt lat="43.47402" lon="2.38828">
        <ele>446.777</ele>
        <time>2021-05-23T08:05:16Z</time>
      </trkpt>
      <trkpt lat="43.47399" lon="2.38828">
        <ele>446.302</ele>
        <time>2021-05-23T08:05:18Z</time>
      </trkpt>
      <trkpt lat="43.47396" lon="2.38829">
        <ele>444.91</ele>
        <time>2021-05-23T08:05:20Z</time>
      </trkpt>
      <trkpt lat="43.47394" lon="2.3883">
        <ele>444.537</ele>
        <time>2021-05-23T08:05:22Z</time>
      </trkpt>
      <trkpt lat="43.47392" lon="2.38831">
        <ele>445.671</ele>
        <time>2021-05-23T08:05:24Z</time>
      </trkpt>
      <trkpt lat="43.4739" lon="2.38833">
        <ele>446.166</ele>
        <time>2021-05-23T08:05:26Z</time>
      </trkpt>
      <trkpt lat="43.47387" lon="2.38834">
        <ele>446.88</ele>
        <time>2021-05-23T08:05:28Z</time>
      </trkpt>
      <trkpt lat="43.47385" lon="2.38835">
        <ele>447.476</ele>
        <time>2021-05-23T08:05:30Z</time>
      </trkpt>
      <trkpt lat="43.47384" lon="2.38836">
        <ele>447.539</ele>
        <time>2021-05-23T08:05:31Z</time>
      </trkpt>
      <trkpt lat="43.47381" lon="2.38838">
        <ele>446.765</ele>
        <time>2021-05-23T08:05:34Z</time>
      </trkpt>
      <trkpt lat="43.47379" lon="2.38838">
        <ele>446.851</ele>
        <time>2021-05-23T08:05:36Z</time>
      </trkpt>
      <trkpt lat="43.47377" lon="2.38839">
        <ele>445.727</ele>
        <time>2021-05-23T08:05:38Z</time>
      </trkpt>
      <trkpt lat="43.47375" lon="2.3884">
        <ele>445.214</ele>
        <time>2021-05-23T08:05:40Z</time>
      </trkpt>
      <trkpt lat="43.47372" lon="2.38843">
        <ele>446.072</ele>
        <time>2021-05-23T08:05:42Z</time>
      </trkpt>
      <trkpt lat="43.4737" lon="2.38845">
        <ele>445.606</ele>
        <time>2021-05-23T08:05:44Z</time>
      </trkpt>
      <trkpt lat="43.47368" lon="2.38847">
        <ele>445.801</ele>
        <time>2021-05-23T08:05:46Z</time>
      </trkpt>
      <trkpt lat="43.47367" lon="2.3885">
        <ele>446.198</ele>
        <time>2021-05-23T08:05:48Z</time>
      </trkpt>
      <trkpt lat="43.47366" lon="2.38851">
        <ele>445.32</ele>
        <time>2021-05-23T08:05:50Z</time>
      </trkpt>
      <trkpt lat="43.47364" lon="2.38853">
        <ele>444.754</ele>
        <time>2021-05-23T08:05:52Z</time>
      </trkpt>
      <trkpt lat="43.47364" lon="2.38856">
        <ele>444.517</ele>
        <time>2021-05-23T08:05:54Z</time>
      </trkpt>
      <trkpt lat="43.47363" lon="2.38859">
        <ele>444.433</ele>
        <time>2021-05-23T08:05:56Z</time>
      </trkpt>
      <trkpt lat="43.47362" lon="2.38862">
        <ele>444.335</ele>
        <time>2021-05-23T08:05:58Z</time>
      </trkpt>
      <trkpt lat="43.47362" lon="2.38865">
        <ele>443.933</ele>
        <time>2021-05-23T08:06:00Z</time>
      </trkpt>
      <trkpt lat="43.47361" lon="2.38868">
        <ele>443.741</ele>
        <time>2021-05-23T08:06:02Z</time>
      </trkpt>
      <trkpt lat="43.4736" lon="2.3887">
        <ele>441.367</ele>
        <time>2021-05-23T08:06:04Z</time>
      </trkpt>
      <trkpt lat="43.4736" lon="2.38872">
        <ele>440.603</ele>
        <time>2021-05-23T08:06:06Z</time>
      </trkpt>
      <trkpt lat="43.47358" lon="2.38875">
        <ele>440.265</ele>
        <time>2021-05-23T08:06:08Z</time>
      </trkpt>
      <trkpt lat="43.47357" lon="2.38876">
        <ele>438.786</ele>
        <time>2021-05-23T08:06:10Z</time>
      </trkpt>
      <trkpt lat="43.47357" lon="2.38879">
        <ele>437.363</ele>
        <time>2021-05-23T08:06:12Z</time>
      </trkpt>
      <trkpt lat="43.47356" lon="2.38881">
        <ele>436.44</ele>
        <time>2021-05-23T08:06:14Z</time>
      </trkpt>
      <trkpt lat="43.47355" lon="2.38884">
        <ele>434.858</ele>
        <time>2021-05-23T08:06:16Z</time>
      </trkpt>
      <trkpt lat="43.47354" lon="2.38887">
        <ele>434.77</ele>
        <time>2021-05-23T08:06:18Z</time>
      </trkpt>
      <trkpt lat="43.47353" lon="2.38889">
        <ele>434.144</ele>
        <time>2021-05-23T08:06:20Z</time>
      </trkpt>
      <trkpt lat="43.47352" lon="2.38891">
        <ele>434.592</ele>
        <time>2021-05-23T08:06:22Z</time>
      </trkpt>
      <trkpt lat="43.47351" lon="2.38893">
        <ele>434.09</ele>
        <time>2021-05-23T08:06:24Z</time>
      </trkpt>
      <trkpt lat="43.47348" lon="2.38897">
        <ele>436.149</ele>
        <time>2021-05-23T08:06:26Z</time>
      </trkpt>
      <trkpt lat="43.47346" lon="2.38901">
        <ele>438.295</ele>
        <time>2021-05-23T08:06:28Z</time>
      </trkpt>
      <trkpt lat="43.47344" lon="2.38903">
        <ele>439.032</ele>
        <time>2021-05-23T08:06:30Z</time>
      </trkpt>
      <trkpt lat="43.47342" lon="2.38904">
        <ele>439.325</ele>
        <time>2021-05-23T08:06:32Z</time>
      </trkpt>
      <trkpt lat="43.47339" lon="2.38906">
        <ele>439.311</ele>
        <time>2021-05-23T08:06:34Z</time>
      </trkpt>
      <trkpt lat="43.47337" lon="2.38908">
        <ele>440.206</ele>
        <time>2021-05-23T08:06:36Z</time>
      </trkpt>
      <trkpt lat="43.47335" lon="2.38908">
        <ele>440.91</ele>
        <time>2021-05-23T08:06:38Z</time>
      </trkpt>
      <trkpt lat="43.47334" lon="2.3891">
        <ele>440.339</ele>
        <time>2021-05-23T08:06:40Z</time>
      </trkpt>
      <trkpt lat="43.47332" lon="2.3891">
        <ele>439.675</ele>
        <time>2021-05-23T08:06:42Z</time>
      </trkpt>
      <trkpt lat="43.4733" lon="2.38911">
        <ele>440.108</ele>
        <time>2021-05-23T08:06:44Z</time>
      </trkpt>
      <trkpt lat="43.47329" lon="2.38913">
        <ele>440.191</ele>
        <time>2021-05-23T08:06:46Z</time>
      </trkpt>
      <trkpt lat="43.47328" lon="2.38915">
        <ele>440.69</ele>
        <time>2021-05-23T08:06:48Z</time>
      </trkpt>
      <trkpt lat="43.47326" lon="2.38918">
        <ele>440.306</ele>
        <time>2021-05-23T08:06:50Z</time>
      </trkpt>
      <trkpt lat="43.47325" lon="2.38921">
        <ele>438.75</ele>
        <time>2021-05-23T08:06:52Z</time>
      </trkpt>
      <trkpt lat="43.47324" lon="2.38923">
        <ele>438.468</ele>
        <time>2021-05-23T08:06:54Z</time>
      </trkpt>
      <trkpt lat="43.47324" lon="2.38926">
        <ele>437.082</ele>
        <time>2021-05-23T08:06:56Z</time>
      </trkpt>
      <trkpt lat="43.47323" lon="2.3893">
        <ele>437.147</ele>
        <time>2021-05-23T08:06:58Z</time>
      </trkpt>
      <trkpt lat="43.47322" lon="2.38933">
        <ele>437.748</ele>
        <time>2021-05-23T08:07:00Z</time>
      </trkpt>
      <trkpt lat="43.47321" lon="2.38936">
        <ele>436.489</ele>
        <time>2021-05-23T08:07:02Z</time>
      </trkpt>
      <trkpt lat="43.4732" lon="2.38939">
        <ele>435.567</ele>
        <time>2021-05-23T08:07:04Z</time>
      </trkpt>
      <trkpt lat="43.47319" lon="2.38941">
        <ele>435.531</ele>
        <time>2021-05-23T08:07:06Z</time>
      </trkpt>
      <trkpt lat="43.47318" lon="2.38945">
        <ele>435.229</ele>
        <time>2021-05-23T08:07:08Z</time>
      </trkpt>
      <trkpt lat="43.47317" lon="2.38948">
        <ele>435.96</ele>
        <time>2021-05-23T08:07:10Z</time>
      </trkpt>
      <trkpt lat="43.47316" lon="2.38951">
        <ele>435.94</ele>
        <time>2021-05-23T08:07:12Z</time>
      </trkpt>
      <trkpt lat="43.47315" lon="2.38953">
        <ele>434.948</ele>
        <time>2021-05-23T08:07:14Z</time>
      </trkpt>
      <trkpt lat="43.47314" lon="2.38956">
        <ele>436.001</ele>
        <time>2021-05-23T08:07:16Z</time>
      </trkpt>
      <trkpt lat="43.47312" lon="2.38959">
        <ele>436.24</ele>
        <time>2021-05-23T08:07:18Z</time>
      </trkpt>
      <trkpt lat="43.47312" lon="2.38962">
        <ele>434.696</ele>
        <time>2021-05-23T08:07:20Z</time>
      </trkpt>
      <trkpt lat="43.4731" lon="2.38965">
        <ele>434.554</ele>
        <time>2021-05-23T08:07:22Z</time>
      </trkpt>
      <trkpt lat="43.47309" lon="2.38969">
        <ele>434.105</ele>
        <time>2021-05-23T08:07:24Z</time>
      </trkpt>
      <trkpt lat="43.47309" lon="2.38972">
        <ele>433.809</ele>
        <time>2021-05-23T08:07:26Z</time>
      </trkpt>
      <trkpt lat="43.47308" lon="2.38974">
        <ele>432.55</ele>
        <time>2021-05-23T08:07:28Z</time>
      </trkpt>
      <trkpt lat="43.47307" lon="2.38977">
        <ele>433.573</ele>
        <time>2021-05-23T08:07:30Z</time>
      </trkpt>
      <trkpt lat="43.47307" lon="2.3898">
        <ele>432.212</ele>
        <time>2021-05-23T08:07:32Z</time>
      </trkpt>
      <trkpt lat="43.47306" lon="2.38982">
        <ele>430.768</ele>
        <time>2021-05-23T08:07:34Z</time>
      </trkpt>
      <trkpt lat="43.47306" lon="2.38985">
        <ele>429.913</ele>
        <time>2021-05-23T08:07:36Z</time>
      </trkpt>
      <trkpt lat="43.47305" lon="2.38988">
        <ele>428.854</ele>
        <time>2021-05-23T08:07:38Z</time>
      </trkpt>
      <trkpt lat="43.47305" lon="2.38991">
        <ele>430.001</ele>
        <time>2021-05-23T08:07:40Z</time>
      </trkpt>
      <trkpt lat="43.47304" lon="2.38994">
        <ele>429.589</ele>
        <time>2021-05-23T08:07:42Z</time>
      </trkpt>
      <trkpt lat="43.47304" lon="2.38997">
        <ele>427.716</ele>
        <time>2021-05-23T08:07:44Z</time>
      </trkpt>
      <trkpt lat="43.47305" lon="2.39">
        <ele>427.125</ele>
        <time>2021-05-23T08:07:46Z</time>
      </trkpt>
      <trkpt lat="43.47304" lon="2.39004">
        <ele>426.58</ele>
        <time>2021-05-23T08:07:48Z</time>
      </trkpt>
      <trkpt lat="43.47304" lon="2.39007">
        <ele>425.542</ele>
        <time>2021-05-23T08:07:50Z</time>
      </trkpt>
      <trkpt lat="43.47304" lon="2.3901">
        <ele>424.322</ele>
        <time>2021-05-23T08:07:52Z</time>
      </trkpt>
      <trkpt lat="43.47304" lon="2.39013">
        <ele>423.92</ele>
        <time>2021-05-23T08:07:54Z</time>
      </trkpt>
      <trkpt lat="43.47304" lon="2.39017">
        <ele>424.902</ele>
        <time>2021-05-23T08:07:56Z</time>
      </trkpt>
      <trkpt lat="43.47303" lon="2.39021">
        <ele>424.812</ele>
        <time>2021-05-23T08:07:58Z</time>
      </trkpt>
      <trkpt lat="43.47302" lon="2.39023">
        <ele>424.372</ele>
        <time>2021-05-23T08:08:00Z</time>
      </trkpt>
      <trkpt lat="43.47301" lon="2.39026">
        <ele>424.276</ele>
        <time>2021-05-23T08:08:02Z</time>
      </trkpt>
      <trkpt lat="43.47301" lon="2.39029">
        <ele>423.739</ele>
        <time>2021-05-23T08:08:04Z</time>
      </trkpt>
      <trkpt lat="43.47299" lon="2.39033">
        <ele>426.512</ele>
        <time>2021-05-23T08:08:06Z</time>
      </trkpt>
      <trkpt lat="43.47298" lon="2.39036">
        <ele>426.728</ele>
        <time>2021-05-23T08:08:08Z</time>
      </trkpt>
      <trkpt lat="43.47297" lon="2.39038">
        <ele>425.965</ele>
        <time>2021-05-23T08:08:10Z</time>
      </trkpt>
      <trkpt lat="43.47296" lon="2.39041">
        <ele>426.298</ele>
        <time>2021-05-23T08:08:12Z</time>
      </trkpt>
      <trkpt lat="43.47295" lon="2.39045">
        <ele>426.715</ele>
        <time>2021-05-23T08:08:14Z</time>
      </trkpt>
      <trkpt lat="43.47294" lon="2.39049">
        <ele>427.676</ele>
        <time>2021-05-23T08:08:16Z</time>
      </trkpt>
      <trkpt lat="43.47292" lon="2.39053">
        <ele>426.78</ele>
        <time>2021-05-23T08:08:18Z</time>
      </trkpt>
      <trkpt lat="43.47292" lon="2.39057">
        <ele>428.698</ele>
        <time>2021-05-23T08:08:20Z</time>
      </trkpt>
      <trkpt lat="43.47291" lon="2.39061">
        <ele>429.204</ele>
        <time>2021-05-23T08:08:22Z</time>
      </trkpt>
      <trkpt lat="43.4729" lon="2.39065">
        <ele>428.372</ele>
        <time>2021-05-23T08:08:24Z</time>
      </trkpt>
      <trkpt lat="43.47289" lon="2.39068">
        <ele>428.519</ele>
        <time>2021-05-23T08:08:26Z</time>
      </trkpt>
      <trkpt lat="43.47288" lon="2.39071">
        <ele>427.647</ele>
        <time>2021-05-23T08:08:28Z</time>
      </trkpt>
      <trkpt lat="43.47287" lon="2.39074">
        <ele>427.991</ele>
        <time>2021-05-23T08:08:30Z</time>
      </trkpt>
      <trkpt lat="43.47285" lon="2.39077">
        <ele>426.831</ele>
        <time>2021-05-23T08:08:32Z</time>
      </trkpt>
      <trkpt lat="43.47285" lon="2.3908">
        <ele>427.456</ele>
        <time>2021-05-23T08:08:34Z</time>
      </trkpt>
      <trkpt lat="43.47284" lon="2.39083">
        <ele>427.459</ele>
        <time>2021-05-23T08:08:36Z</time>
      </trkpt>
      <trkpt lat="43.47283" lon="2.39086">
        <ele>427.545</ele>
        <time>2021-05-23T08:08:38Z</time>
      </trkpt>
      <trkpt lat="43.47282" lon="2.3909">
        <ele>427.943</ele>
        <time>2021-05-23T08:08:40Z</time>
      </trkpt>
      <trkpt lat="43.47281" lon="2.39093">
        <ele>428.169</ele>
        <time>2021-05-23T08:08:42Z</time>
      </trkpt>
      <trkpt lat="43.4728" lon="2.39096">
        <ele>427.902</ele>
        <time>2021-05-23T08:08:44Z</time>
      </trkpt>
      <trkpt lat="43.47279" lon="2.39099">
        <ele>428.08</ele>
        <time>2021-05-23T08:08:46Z</time>
      </trkpt>
      <trkpt lat="43.47278" lon="2.39104">
        <ele>429.987</ele>
        <time>2021-05-23T08:08:48Z</time>
      </trkpt>
      <trkpt lat="43.47276" lon="2.39107">
        <ele>429.995</ele>
        <time>2021-05-23T08:08:50Z</time>
      </trkpt>
      <trkpt lat="43.47275" lon="2.3911">
        <ele>431.257</ele>
        <time>2021-05-23T08:08:52Z</time>
      </trkpt>
      <trkpt lat="43.47274" lon="2.39114">
        <ele>431.243</ele>
        <time>2021-05-23T08:08:54Z</time>
      </trkpt>
      <trkpt lat="43.47273" lon="2.39118">
        <ele>432.514</ele>
        <time>2021-05-23T08:08:56Z</time>
      </trkpt>
      <trkpt lat="43.47271" lon="2.39121">
        <ele>431.728</ele>
        <time>2021-05-23T08:08:58Z</time>
      </trkpt>
      <trkpt lat="43.4727" lon="2.39125">
        <ele>432.12</ele>
        <time>2021-05-23T08:09:00Z</time>
      </trkpt>
      <trkpt lat="43.4727" lon="2.39128">
        <ele>433.534</ele>
        <time>2021-05-23T08:09:02Z</time>
      </trkpt>
      <trkpt lat="43.4727" lon="2.3913">
        <ele>431.505</ele>
        <time>2021-05-23T08:09:04Z</time>
      </trkpt>
      <trkpt lat="43.47269" lon="2.39133">
        <ele>430.693</ele>
        <time>2021-05-23T08:09:06Z</time>
      </trkpt>
      <trkpt lat="43.47269" lon="2.39135">
        <ele>430.228</ele>
        <time>2021-05-23T08:09:08Z</time>
      </trkpt>
      <trkpt lat="43.47269" lon="2.39138">
        <ele>431.496</ele>
        <time>2021-05-23T08:09:10Z</time>
      </trkpt>
      <trkpt lat="43.47269" lon="2.39141">
        <ele>432.714</ele>
        <time>2021-05-23T08:09:12Z</time>
      </trkpt>
      <trkpt lat="43.47268" lon="2.39143">
        <ele>431.257</ele>
        <time>2021-05-23T08:09:14Z</time>
      </trkpt>
      <trkpt lat="43.47267" lon="2.39146">
        <ele>430.029</ele>
        <time>2021-05-23T08:09:16Z</time>
      </trkpt>
      <trkpt lat="43.47266" lon="2.39149">
        <ele>430.655</ele>
        <time>2021-05-23T08:09:18Z</time>
      </trkpt>
      <trkpt lat="43.47266" lon="2.39152">
        <ele>430.406</ele>
        <time>2021-05-23T08:09:20Z</time>
      </trkpt>
      <trkpt lat="43.47265" lon="2.39155">
        <ele>430.534</ele>
        <time>2021-05-23T08:09:22Z</time>
      </trkpt>
      <trkpt lat="43.47266" lon="2.39157">
        <ele>430.837</ele>
        <time>2021-05-23T08:09:24Z</time>
      </trkpt>
      <trkpt lat="43.47266" lon="2.3916">
        <ele>431.178</ele>
        <time>2021-05-23T08:09:26Z</time>
      </trkpt>
      <trkpt lat="43.47267" lon="2.39162">
        <ele>430.942</ele>
        <time>2021-05-23T08:09:28Z</time>
      </trkpt>
      <trkpt lat="43.47267" lon="2.39165">
        <ele>430.723</ele>
        <time>2021-05-23T08:09:30Z</time>
      </trkpt>
      <trkpt lat="43.47268" lon="2.39167">
        <ele>429.658</ele>
        <time>2021-05-23T08:09:32Z</time>
      </trkpt>
      <trkpt lat="43.47269" lon="2.39169">
        <ele>428.715</ele>
        <time>2021-05-23T08:09:34Z</time>
      </trkpt>
      <trkpt lat="43.4727" lon="2.39172">
        <ele>429.27</ele>
        <time>2021-05-23T08:09:36Z</time>
      </trkpt>
      <trkpt lat="43.4727" lon="2.39176">
        <ele>429.087</ele>
        <time>2021-05-23T08:09:38Z</time>
      </trkpt>
      <trkpt lat="43.47271" lon="2.3918">
        <ele>428.825</ele>
        <time>2021-05-23T08:09:40Z</time>
      </trkpt>
      <trkpt lat="43.4727" lon="2.39184">
        <ele>429.228</ele>
        <time>2021-05-23T08:09:42Z</time>
      </trkpt>
      <trkpt lat="43.47271" lon="2.39187">
        <ele>429.522</ele>
        <time>2021-05-23T08:09:44Z</time>
      </trkpt>
      <trkpt lat="43.47272" lon="2.39191">
        <ele>429.858</ele>
        <time>2021-05-23T08:09:46Z</time>
      </trkpt>
      <trkpt lat="43.47272" lon="2.39194">
        <ele>429.832</ele>
        <time>2021-05-23T08:09:48Z</time>
      </trkpt>
      <trkpt lat="43.47272" lon="2.39198">
        <ele>431.345</ele>
        <time>2021-05-23T08:09:50Z</time>
      </trkpt>
      <trkpt lat="43.47273" lon="2.39202">
        <ele>431.603</ele>
        <time>2021-05-23T08:09:52Z</time>
      </trkpt>
      <trkpt lat="43.47273" lon="2.39207">
        <ele>433.301</ele>
        <time>2021-05-23T08:09:54Z</time>
      </trkpt>
      <trkpt lat="43.47273" lon="2.39211">
        <ele>434.608</ele>
        <time>2021-05-23T08:09:56Z</time>
      </trkpt>
      <trkpt lat="43.47273" lon="2.39215">
        <ele>435.902</ele>
        <time>2021-05-23T08:09:58Z</time>
      </trkpt>
      <trkpt lat="43.47274" lon="2.39218">
        <ele>435.521</ele>
        <time>2021-05-23T08:10:00Z</time>
      </trkpt>
      <trkpt lat="43.47274" lon="2.3922">
        <ele>435.741</ele>
        <time>2021-05-23T08:10:02Z</time>
      </trkpt>
      <trkpt lat="43.47275" lon="2.39224">
        <ele>436.156</ele>
        <time>2021-05-23T08:10:04Z</time>
      </trkpt>
      <trkpt lat="43.47275" lon="2.39227">
        <ele>437.652</ele>
        <time>2021-05-23T08:10:06Z</time>
      </trkpt>
      <trkpt lat="43.47276" lon="2.39231">
        <ele>438.019</ele>
        <time>2021-05-23T08:10:08Z</time>
      </trkpt>
      <trkpt lat="43.47277" lon="2.39234">
        <ele>439.263</ele>
        <time>2021-05-23T08:10:10Z</time>
      </trkpt>
      <trkpt lat="43.47278" lon="2.39237">
        <ele>439.548</ele>
        <time>2021-05-23T08:10:12Z</time>
      </trkpt>
      <trkpt lat="43.47279" lon="2.3924">
        <ele>439.293</ele>
        <time>2021-05-23T08:10:14Z</time>
      </trkpt>
      <trkpt lat="43.47281" lon="2.39243">
        <ele>439.353</ele>
        <time>2021-05-23T08:10:16Z</time>
      </trkpt>
      <trkpt lat="43.47281" lon="2.39247">
        <ele>440.011</ele>
        <time>2021-05-23T08:10:18Z</time>
      </trkpt>
      <trkpt lat="43.47282" lon="2.3925">
        <ele>440.521</ele>
        <time>2021-05-23T08:10:20Z</time>
      </trkpt>
      <trkpt lat="43.47283" lon="2.39252">
        <ele>441.15</ele>
        <time>2021-05-23T08:10:22Z</time>
      </trkpt>
      <trkpt lat="43.47284" lon="2.39254">
        <ele>440.855</ele>
        <time>2021-05-23T08:10:24Z</time>
      </trkpt>
      <trkpt lat="43.47284" lon="2.39257">
        <ele>441.261</ele>
        <time>2021-05-23T08:10:26Z</time>
      </trkpt>
      <trkpt lat="43.47285" lon="2.3926">
        <ele>441.671</ele>
        <time>2021-05-23T08:10:28Z</time>
      </trkpt>
      <trkpt lat="43.47285" lon="2.39262">
        <ele>440.738</ele>
        <time>2021-05-23T08:10:30Z</time>
      </trkpt>
      <trkpt lat="43.47286" lon="2.39264">
        <ele>440.393</ele>
        <time>2021-05-23T08:10:32Z</time>
      </trkpt>
      <trkpt lat="43.47286" lon="2.39267">
        <ele>441.291</ele>
        <time>2021-05-23T08:10:34Z</time>
      </trkpt>
      <trkpt lat="43.47287" lon="2.39269">
        <ele>442.008</ele>
        <time>2021-05-23T08:10:36Z</time>
      </trkpt>
      <trkpt lat="43.47288" lon="2.39271">
        <ele>441.003</ele>
        <time>2021-05-23T08:10:38Z</time>
      </trkpt>
      <trkpt lat="43.47289" lon="2.39273">
        <ele>439.943</ele>
        <time>2021-05-23T08:10:40Z</time>
      </trkpt>
      <trkpt lat="43.4729" lon="2.39276">
        <ele>439.389</ele>
        <time>2021-05-23T08:10:42Z</time>
      </trkpt>
      <trkpt lat="43.47291" lon="2.39278">
        <ele>438.402</ele>
        <time>2021-05-23T08:10:44Z</time>
      </trkpt>
      <trkpt lat="43.47291" lon="2.39281">
        <ele>439.645</ele>
        <time>2021-05-23T08:10:46Z</time>
      </trkpt>
      <trkpt lat="43.47292" lon="2.39283">
        <ele>439.304</ele>
        <time>2021-05-23T08:10:48Z</time>
      </trkpt>
      <trkpt lat="43.47293" lon="2.39286">
        <ele>439.813</ele>
        <time>2021-05-23T08:10:50Z</time>
      </trkpt>
      <trkpt lat="43.47293" lon="2.39289">
        <ele>440.516</ele>
        <time>2021-05-23T08:10:52Z</time>
      </trkpt>
      <trkpt lat="43.47293" lon="2.39291">
        <ele>440.867</ele>
        <time>2021-05-23T08:10:54Z</time>
      </trkpt>
      <trkpt lat="43.47294" lon="2.39294">
        <ele>440.83</ele>
        <time>2021-05-23T08:10:56Z</time>
      </trkpt>
      <trkpt lat="43.47293" lon="2.39297">
        <ele>442.203</ele>
        <time>2021-05-23T08:10:58Z</time>
      </trkpt>
      <trkpt lat="43.47293" lon="2.39299">
        <ele>442.784</ele>
        <time>2021-05-23T08:11:00Z</time>
      </trkpt>
      <trkpt lat="43.47292" lon="2.39302">
        <ele>443.018</ele>
        <time>2021-05-23T08:11:02Z</time>
      </trkpt>
      <trkpt lat="43.47292" lon="2.39303">
        <ele>443.194</ele>
        <time>2021-05-23T08:11:04Z</time>
      </trkpt>
      <trkpt lat="43.47291" lon="2.39304">
        <ele>444.651</ele>
        <time>2021-05-23T08:11:06Z</time>
      </trkpt>
      <trkpt lat="43.47289" lon="2.39305">
        <ele>445.069</ele>
        <time>2021-05-23T08:11:08Z</time>
      </trkpt>
      <trkpt lat="43.47288" lon="2.39306">
        <ele>446.408</ele>
        <time>2021-05-23T08:11:10Z</time>
      </trkpt>
      <trkpt lat="43.47287" lon="2.39307">
        <ele>446.466</ele>
        <time>2021-05-23T08:11:12Z</time>
      </trkpt>
      <trkpt lat="43.47287" lon="2.39307">
        <ele>446.302</ele>
        <time>2021-05-23T08:11:14Z</time>
      </trkpt>
      <trkpt lat="43.47287" lon="2.39308">
        <ele>446.929</ele>
        <time>2021-05-23T08:11:16Z</time>
      </trkpt>
      <trkpt lat="43.47287" lon="2.39307">
        <ele>446.619</ele>
        <time>2021-05-23T08:11:18Z</time>
      </trkpt>
      <trkpt lat="43.47287" lon="2.39307">
        <ele>446.626</ele>
        <time>2021-05-23T08:11:20Z</time>
      </trkpt>
      <trkpt lat="43.47287" lon="2.39307">
        <ele>446.633</ele>
        <time>2021-05-23T08:11:22Z</time>
      </trkpt>
      <trkpt lat="43.47287" lon="2.39307">
        <ele>446.633</ele>
        <time>2021-05-23T08:11:24Z</time>
      </trkpt>
      <trkpt lat="43.47287" lon="2.39307">
        <ele>447.056</ele>
        <time>2021-05-23T08:11:26Z</time>
      </trkpt>
      <trkpt lat="43.47287" lon="2.39308">
        <ele>448.033</ele>
        <time>2021-05-23T08:11:28Z</time>
      </trkpt>
      <trkpt lat="43.47286" lon="2.39308">
        <ele>446.988</ele>
        <time>2021-05-23T08:11:30Z</time>
      </trkpt>
      <trkpt lat="43.47286" lon="2.39309">
        <ele>447.75</ele>
        <time>2021-05-23T08:11:32Z</time>
      </trkpt>
      <trkpt lat="43.47285" lon="2.39309">
        <ele>446.692</ele>
        <time>2021-05-23T08:11:34Z</time>
      </trkpt>
      <trkpt lat="43.47285" lon="2.39309">
        <ele>446.563</ele>
        <time>2021-05-23T08:11:36Z</time>
      </trkpt>
      <trkpt lat="43.47285" lon="2.39309">
        <ele>446.573</ele>
        <time>2021-05-23T08:11:38Z</time>
      </trkpt>
      <trkpt lat="43.47285" lon="2.39309">
        <ele>446.564</ele>
        <time>2021-05-23T08:11:40Z</time>
      </trkpt>
      <trkpt lat="43.47285" lon="2.39309">
        <ele>446.812</ele>
        <time>2021-05-23T08:11:42Z</time>
      </trkpt>
      <trkpt lat="43.47284" lon="2.3931">
        <ele>446.306</ele>
        <time>2021-05-23T08:11:44Z</time>
      </trkpt>
      <trkpt lat="43.47284" lon="2.3931">
        <ele>445.784</ele>
        <time>2021-05-23T08:11:46Z</time>
      </trkpt>
      <trkpt lat="43.47283" lon="2.3931">
        <ele>444.783</ele>
        <time>2021-05-23T08:11:48Z</time>
      </trkpt>
      <trkpt lat="43.47282" lon="2.39311">
        <ele>444.287</ele>
        <time>2021-05-23T08:11:50Z</time>
      </trkpt>
      <trkpt lat="43.47282" lon="2.39311">
        <ele>443.977</ele>
        <time>2021-05-23T08:11:52Z</time>
      </trkpt>
      <trkpt lat="43.4728" lon="2.39311">
        <ele>443.305</ele>
        <time>2021-05-23T08:11:54Z</time>
      </trkpt>
      <trkpt lat="43.47279" lon="2.39311">
        <ele>443.047</ele>
        <time>2021-05-23T08:11:56Z</time>
      </trkpt>
      <trkpt lat="43.47278" lon="2.3931">
        <ele>443.273</ele>
        <time>2021-05-23T08:11:58Z</time>
      </trkpt>
      <trkpt lat="43.47276" lon="2.3931">
        <ele>443.367</ele>
        <time>2021-05-23T08:12:00Z</time>
      </trkpt>
      <trkpt lat="43.47275" lon="2.39311">
        <ele>443.074</ele>
        <time>2021-05-23T08:12:02Z</time>
      </trkpt>
      <trkpt lat="43.47274" lon="2.39314">
        <ele>443.907</ele>
        <time>2021-05-23T08:12:04Z</time>
      </trkpt>
      <trkpt lat="43.47275" lon="2.39316">
        <ele>443.437</ele>
        <time>2021-05-23T08:12:06Z</time>
      </trkpt>
      <trkpt lat="43.47276" lon="2.39318">
        <ele>442.783</ele>
        <time>2021-05-23T08:12:08Z</time>
      </trkpt>
      <trkpt lat="43.47277" lon="2.39321">
        <ele>442.133</ele>
        <time>2021-05-23T08:12:10Z</time>
      </trkpt>
      <trkpt lat="43.47278" lon="2.39323">
        <ele>441.174</ele>
        <time>2021-05-23T08:12:12Z</time>
      </trkpt>
      <trkpt lat="43.47279" lon="2.39325">
        <ele>441.011</ele>
        <time>2021-05-23T08:12:14Z</time>
      </trkpt>
      <trkpt lat="43.4728" lon="2.39328">
        <ele>440.823</ele>
        <time>2021-05-23T08:12:16Z</time>
      </trkpt>
      <trkpt lat="43.47281" lon="2.3933">
        <ele>439.584</ele>
        <time>2021-05-23T08:12:18Z</time>
      </trkpt>
      <trkpt lat="43.47283" lon="2.39332">
        <ele>440.393</ele>
        <time>2021-05-23T08:12:20Z</time>
      </trkpt>
      <trkpt lat="43.47284" lon="2.39334">
        <ele>439.643</ele>
        <time>2021-05-23T08:12:22Z</time>
      </trkpt>
      <trkpt lat="43.47285" lon="2.39337">
        <ele>439.241</ele>
        <time>2021-05-23T08:12:24Z</time>
      </trkpt>
      <trkpt lat="43.47286" lon="2.3934">
        <ele>438.577</ele>
        <time>2021-05-23T08:12:26Z</time>
      </trkpt>
      <trkpt lat="43.47287" lon="2.39343">
        <ele>438.986</ele>
        <time>2021-05-23T08:12:28Z</time>
      </trkpt>
      <trkpt lat="43.47288" lon="2.39346">
        <ele>438.916</ele>
        <time>2021-05-23T08:12:30Z</time>
      </trkpt>
      <trkpt lat="43.47289" lon="2.39348">
        <ele>438.44</ele>
        <time>2021-05-23T08:12:32Z</time>
      </trkpt>
      <trkpt lat="43.47289" lon="2.3935">
        <ele>438.303</ele>
        <time>2021-05-23T08:12:34Z</time>
      </trkpt>
      <trkpt lat="43.4729" lon="2.39354">
        <ele>438.453</ele>
        <time>2021-05-23T08:12:36Z</time>
      </trkpt>
      <trkpt lat="43.4729" lon="2.39356">
        <ele>438.084</ele>
        <time>2021-05-23T08:12:38Z</time>
      </trkpt>
      <trkpt lat="43.4729" lon="2.39359">
        <ele>438.087</ele>
        <time>2021-05-23T08:12:40Z</time>
      </trkpt>
      <trkpt lat="43.47291" lon="2.39361">
        <ele>437.763</ele>
        <time>2021-05-23T08:12:42Z</time>
      </trkpt>
      <trkpt lat="43.47291" lon="2.39364">
        <ele>437.094</ele>
        <time>2021-05-23T08:12:44Z</time>
      </trkpt>
      <trkpt lat="43.47292" lon="2.39366">
        <ele>436.83</ele>
        <time>2021-05-23T08:12:46Z</time>
      </trkpt>
      <trkpt lat="43.47293" lon="2.39368">
        <ele>435.424</ele>
        <time>2021-05-23T08:12:48Z</time>
      </trkpt>
      <trkpt lat="43.47293" lon="2.39371">
        <ele>434.544</ele>
        <time>2021-05-23T08:12:50Z</time>
      </trkpt>
      <trkpt lat="43.47293" lon="2.39374">
        <ele>434.878</ele>
        <time>2021-05-23T08:12:52Z</time>
      </trkpt>
      <trkpt lat="43.47295" lon="2.39376">
        <ele>433.66</ele>
        <time>2021-05-23T08:12:54Z</time>
      </trkpt>
      <trkpt lat="43.47296" lon="2.39379">
        <ele>433.365</ele>
        <time>2021-05-23T08:12:56Z</time>
      </trkpt>
      <trkpt lat="43.47298" lon="2.39382">
        <ele>433.02</ele>
        <time>2021-05-23T08:12:58Z</time>
      </trkpt>
      <trkpt lat="43.47297" lon="2.39385">
        <ele>431.66</ele>
        <time>2021-05-23T08:13:00Z</time>
      </trkpt>
      <trkpt lat="43.47295" lon="2.39386">
        <ele>429.318</ele>
        <time>2021-05-23T08:13:02Z</time>
      </trkpt>
      <trkpt lat="43.47293" lon="2.39384">
        <ele>429.742</ele>
        <time>2021-05-23T08:13:04Z</time>
      </trkpt>
      <trkpt lat="43.47292" lon="2.39383">
        <ele>429.117</ele>
        <time>2021-05-23T08:13:06Z</time>
      </trkpt>
      <trkpt lat="43.4729" lon="2.39381">
        <ele>429.092</ele>
        <time>2021-05-23T08:13:08Z</time>
      </trkpt>
      <trkpt lat="43.47289" lon="2.3938">
        <ele>428.213</ele>
        <time>2021-05-23T08:13:10Z</time>
      </trkpt>
      <trkpt lat="43.47287" lon="2.39379">
        <ele>426.896</ele>
        <time>2021-05-23T08:13:12Z</time>
      </trkpt>
      <trkpt lat="43.47286" lon="2.39378">
        <ele>426.585</ele>
        <time>2021-05-23T08:13:14Z</time>
      </trkpt>
      <trkpt lat="43.47284" lon="2.39376">
        <ele>425.997</ele>
        <time>2021-05-23T08:13:16Z</time>
      </trkpt>
      <trkpt lat="43.47283" lon="2.39374">
        <ele>427.493</ele>
        <time>2021-05-23T08:13:18Z</time>
      </trkpt>
      <trkpt lat="43.47282" lon="2.39372">
        <ele>428.155</ele>
        <time>2021-05-23T08:13:20Z</time>
      </trkpt>
      <trkpt lat="43.4728" lon="2.3937">
        <ele>429.662</ele>
        <time>2021-05-23T08:13:22Z</time>
      </trkpt>
      <trkpt lat="43.47279" lon="2.39368">
        <ele>431.092</ele>
        <time>2021-05-23T08:13:24Z</time>
      </trkpt>
      <trkpt lat="43.47278" lon="2.39366">
        <ele>431.84</ele>
        <time>2021-05-23T08:13:26Z</time>
      </trkpt>
      <trkpt lat="43.47276" lon="2.39365">
        <ele>430.552</ele>
        <time>2021-05-23T08:13:28Z</time>
      </trkpt>
      <trkpt lat="43.47274" lon="2.39363">
        <ele>429.003</ele>
        <time>2021-05-23T08:13:30Z</time>
      </trkpt>
      <trkpt lat="43.47272" lon="2.39361">
        <ele>429.867</ele>
        <time>2021-05-23T08:13:32Z</time>
      </trkpt>
      <trkpt lat="43.4727" lon="2.3936">
        <ele>430.377</ele>
        <time>2021-05-23T08:13:34Z</time>
      </trkpt>
      <trkpt lat="43.47268" lon="2.39358">
        <ele>429.185</ele>
        <time>2021-05-23T08:13:36Z</time>
      </trkpt>
      <trkpt lat="43.47267" lon="2.39357">
        <ele>428.261</ele>
        <time>2021-05-23T08:13:38Z</time>
      </trkpt>
      <trkpt lat="43.47265" lon="2.39356">
        <ele>428.156</ele>
        <time>2021-05-23T08:13:40Z</time>
      </trkpt>
      <trkpt lat="43.47263" lon="2.39354">
        <ele>429.191</ele>
        <time>2021-05-23T08:13:42Z</time>
      </trkpt>
      <trkpt lat="43.47262" lon="2.39353">
        <ele>430.993</ele>
        <time>2021-05-23T08:13:44Z</time>
      </trkpt>
      <trkpt lat="43.4726" lon="2.39351">
        <ele>432.173</ele>
        <time>2021-05-23T08:13:46Z</time>
      </trkpt>
      <trkpt lat="43.47257" lon="2.39349">
        <ele>432.043</ele>
        <time>2021-05-23T08:13:48Z</time>
      </trkpt>
      <trkpt lat="43.47255" lon="2.39347">
        <ele>431.954</ele>
        <time>2021-05-23T08:13:50Z</time>
      </trkpt>
      <trkpt lat="43.47254" lon="2.39347">
        <ele>430.604</ele>
        <time>2021-05-23T08:13:52Z</time>
      </trkpt>
      <trkpt lat="43.47252" lon="2.39346">
        <ele>430.938</ele>
        <time>2021-05-23T08:13:54Z</time>
      </trkpt>
      <trkpt lat="43.4725" lon="2.39345">
        <ele>430.984</ele>
        <time>2021-05-23T08:13:56Z</time>
      </trkpt>
      <trkpt lat="43.47248" lon="2.39345">
        <ele>429.527</ele>
        <time>2021-05-23T08:13:58Z</time>
      </trkpt>
      <trkpt lat="43.47246" lon="2.39344">
        <ele>429.738</ele>
        <time>2021-05-23T08:14:00Z</time>
      </trkpt>
      <trkpt lat="43.47244" lon="2.39343">
        <ele>428.664</ele>
        <time>2021-05-23T08:14:02Z</time>
      </trkpt>
      <trkpt lat="43.47242" lon="2.39343">
        <ele>430.517</ele>
        <time>2021-05-23T08:14:04Z</time>
      </trkpt>
      <trkpt lat="43.4724" lon="2.39342">
        <ele>430.285</ele>
        <time>2021-05-23T08:14:06Z</time>
      </trkpt>
      <trkpt lat="43.47238" lon="2.39341">
        <ele>431.006</ele>
        <time>2021-05-23T08:14:08Z</time>
      </trkpt>
      <trkpt lat="43.47236" lon="2.39339">
        <ele>429.91</ele>
        <time>2021-05-23T08:14:10Z</time>
      </trkpt>
      <trkpt lat="43.47234" lon="2.39338">
        <ele>428.905</ele>
        <time>2021-05-23T08:14:12Z</time>
      </trkpt>
      <trkpt lat="43.47232" lon="2.39337">
        <ele>428.972</ele>
        <time>2021-05-23T08:14:14Z</time>
      </trkpt>
      <trkpt lat="43.4723" lon="2.39337">
        <ele>430.45</ele>
        <time>2021-05-23T08:14:16Z</time>
      </trkpt>
      <trkpt lat="43.47228" lon="2.39336">
        <ele>431.09</ele>
        <time>2021-05-23T08:14:18Z</time>
      </trkpt>
      <trkpt lat="43.47226" lon="2.39336">
        <ele>432.258</ele>
        <time>2021-05-23T08:14:20Z</time>
      </trkpt>
      <trkpt lat="43.47224" lon="2.39335">
        <ele>432.508</ele>
        <time>2021-05-23T08:14:22Z</time>
      </trkpt>
      <trkpt lat="43.47222" lon="2.39335">
        <ele>429.767</ele>
        <time>2021-05-23T08:14:24Z</time>
      </trkpt>
      <trkpt lat="43.4722" lon="2.39334">
        <ele>429.937</ele>
        <time>2021-05-23T08:14:26Z</time>
      </trkpt>
      <trkpt lat="43.47218" lon="2.39334">
        <ele>430.516</ele>
        <time>2021-05-23T08:14:28Z</time>
      </trkpt>
      <trkpt lat="43.47216" lon="2.39334">
        <ele>428.512</ele>
        <time>2021-05-23T08:14:30Z</time>
      </trkpt>
      <trkpt lat="43.47214" lon="2.39334">
        <ele>429.22</ele>
        <time>2021-05-23T08:14:32Z</time>
      </trkpt>
      <trkpt lat="43.47212" lon="2.39334">
        <ele>429.742</ele>
        <time>2021-05-23T08:14:34Z</time>
      </trkpt>
      <trkpt lat="43.4721" lon="2.39334">
        <ele>428.553</ele>
        <time>2021-05-23T08:14:36Z</time>
      </trkpt>
      <trkpt lat="43.47208" lon="2.39334">
        <ele>429.012</ele>
        <time>2021-05-23T08:14:38Z</time>
      </trkpt>
      <trkpt lat="43.47207" lon="2.39334">
        <ele>431.204</ele>
        <time>2021-05-23T08:14:40Z</time>
      </trkpt>
      <trkpt lat="43.47206" lon="2.39331">
        <ele>432.354</ele>
        <time>2021-05-23T08:14:42Z</time>
      </trkpt>
      <trkpt lat="43.47207" lon="2.3933">
        <ele>432.494</ele>
        <time>2021-05-23T08:14:44Z</time>
      </trkpt>
      <trkpt lat="43.47206" lon="2.3933">
        <ele>430.427</ele>
        <time>2021-05-23T08:14:46Z</time>
      </trkpt>
      <trkpt lat="43.47203" lon="2.39332">
        <ele>427.592</ele>
        <time>2021-05-23T08:14:48Z</time>
      </trkpt>
      <trkpt lat="43.47201" lon="2.39334">
        <ele>428.297</ele>
        <time>2021-05-23T08:14:50Z</time>
      </trkpt>
      <trkpt lat="43.472" lon="2.39335">
        <ele>428.857</ele>
        <time>2021-05-23T08:14:52Z</time>
      </trkpt>
      <trkpt lat="43.47199" lon="2.39335">
        <ele>428.426</ele>
        <time>2021-05-23T08:14:54Z</time>
      </trkpt>
      <trkpt lat="43.47197" lon="2.39337">
        <ele>427.549</ele>
        <time>2021-05-23T08:14:56Z</time>
      </trkpt>
      <trkpt lat="43.47196" lon="2.39338">
        <ele>424.62</ele>
        <time>2021-05-23T08:14:58Z</time>
      </trkpt>
      <trkpt lat="43.47195" lon="2.39341">
        <ele>422.783</ele>
        <time>2021-05-23T08:15:00Z</time>
      </trkpt>
      <trkpt lat="43.47194" lon="2.39343">
        <ele>421.299</ele>
        <time>2021-05-23T08:15:02Z</time>
      </trkpt>
      <trkpt lat="43.47194" lon="2.39346">
        <ele>421.63</ele>
        <time>2021-05-23T08:15:04Z</time>
      </trkpt>
      <trkpt lat="43.47193" lon="2.39348">
        <ele>420.512</ele>
        <time>2021-05-23T08:15:06Z</time>
      </trkpt>
      <trkpt lat="43.47192" lon="2.3935">
        <ele>419.371</ele>
        <time>2021-05-23T08:15:08Z</time>
      </trkpt>
      <trkpt lat="43.47192" lon="2.39351">
        <ele>418.751</ele>
        <time>2021-05-23T08:15:10Z</time>
      </trkpt>
      <trkpt lat="43.47193" lon="2.39353">
        <ele>419.519</ele>
        <time>2021-05-23T08:15:12Z</time>
      </trkpt>
      <trkpt lat="43.47193" lon="2.39353">
        <ele>419.505</ele>
        <time>2021-05-23T08:15:14Z</time>
      </trkpt>
      <trkpt lat="43.47193" lon="2.39353">
        <ele>419.493</ele>
        <time>2021-05-23T08:15:16Z</time>
      </trkpt>
      <trkpt lat="43.47193" lon="2.39353">
        <ele>419.499</ele>
        <time>2021-05-23T08:15:18Z</time>
      </trkpt>
      <trkpt lat="43.47194" lon="2.39353">
        <ele>419.177</ele>
        <time>2021-05-23T08:15:20Z</time>
      </trkpt>
      <trkpt lat="43.47194" lon="2.39353">
        <ele>419.134</ele>
        <time>2021-05-23T08:15:22Z</time>
      </trkpt>
      <trkpt lat="43.47196" lon="2.39355">
        <ele>419.958</ele>
        <time>2021-05-23T08:15:24Z</time>
      </trkpt>
      <trkpt lat="43.47197" lon="2.39357">
        <ele>421.362</ele>
        <time>2021-05-23T08:15:26Z</time>
      </trkpt>
      <trkpt lat="43.47198" lon="2.39357">
        <ele>419.603</ele>
        <time>2021-05-23T08:15:28Z</time>
      </trkpt>
      <trkpt lat="43.472" lon="2.39356">
        <ele>419.499</ele>
        <time>2021-05-23T08:15:30Z</time>
      </trkpt>
      <trkpt lat="43.47202" lon="2.39357">
        <ele>418.918</ele>
        <time>2021-05-23T08:15:32Z</time>
      </trkpt>
      <trkpt lat="43.47203" lon="2.39358">
        <ele>418.088</ele>
        <time>2021-05-23T08:15:34Z</time>
      </trkpt>
      <trkpt lat="43.47203" lon="2.3936">
        <ele>418.569</ele>
        <time>2021-05-23T08:15:36Z</time>
      </trkpt>
      <trkpt lat="43.47202" lon="2.3936">
        <ele>418.236</ele>
        <time>2021-05-23T08:15:38Z</time>
      </trkpt>
      <trkpt lat="43.47199" lon="2.39362">
        <ele>417.23</ele>
        <time>2021-05-23T08:15:40Z</time>
      </trkpt>
      <trkpt lat="43.47199" lon="2.39359">
        <ele>415.567</ele>
        <time>2021-05-23T08:15:42Z</time>
      </trkpt>
      <trkpt lat="43.47198" lon="2.39356">
        <ele>415.509</ele>
        <time>2021-05-23T08:15:44Z</time>
      </trkpt>
      <trkpt lat="43.47196" lon="2.39355">
        <ele>414.238</ele>
        <time>2021-05-23T08:15:46Z</time>
      </trkpt>
      <trkpt lat="43.47196" lon="2.39355">
        <ele>413.623</ele>
        <time>2021-05-23T08:15:48Z</time>
      </trkpt>
      <trkpt lat="43.47195" lon="2.39356">
        <ele>414.968</ele>
        <time>2021-05-23T08:15:50Z</time>
      </trkpt>
      <trkpt lat="43.47196" lon="2.39357">
        <ele>415.531</ele>
        <time>2021-05-23T08:15:52Z</time>
      </trkpt>
      <trkpt lat="43.47198" lon="2.39356">
        <ele>415.437</ele>
        <time>2021-05-23T08:15:54Z</time>
      </trkpt>
      <trkpt lat="43.47199" lon="2.39358">
        <ele>415.972</ele>
        <time>2021-05-23T08:15:56Z</time>
      </trkpt>
      <trkpt lat="43.47199" lon="2.3936">
        <ele>415.78</ele>
        <time>2021-05-23T08:15:58Z</time>
      </trkpt>
      <trkpt lat="43.472" lon="2.39362">
        <ele>416.36</ele>
        <time>2021-05-23T08:16:00Z</time>
      </trkpt>
      <trkpt lat="43.472" lon="2.39365">
        <ele>417.26</ele>
        <time>2021-05-23T08:16:02Z</time>
      </trkpt>
      <trkpt lat="43.472" lon="2.39367">
        <ele>417.174</ele>
        <time>2021-05-23T08:16:04Z</time>
      </trkpt>
      <trkpt lat="43.47201" lon="2.39368">
        <ele>416.475</ele>
        <time>2021-05-23T08:16:06Z</time>
      </trkpt>
      <trkpt lat="43.47201" lon="2.3937">
        <ele>416.634</ele>
        <time>2021-05-23T08:16:08Z</time>
      </trkpt>
      <trkpt lat="43.47201" lon="2.39372">
        <ele>417.26</ele>
        <time>2021-05-23T08:16:10Z</time>
      </trkpt>
      <trkpt lat="43.47201" lon="2.39374">
        <ele>417.892</ele>
        <time>2021-05-23T08:16:12Z</time>
      </trkpt>
      <trkpt lat="43.47201" lon="2.39377">
        <ele>419.124</ele>
        <time>2021-05-23T08:16:14Z</time>
      </trkpt>
      <trkpt lat="43.47201" lon="2.39379">
        <ele>419.637</ele>
        <time>2021-05-23T08:16:16Z</time>
      </trkpt>
      <trkpt lat="43.472" lon="2.39381">
        <ele>421.35</ele>
        <time>2021-05-23T08:16:18Z</time>
      </trkpt>
      <trkpt lat="43.47197" lon="2.3938">
        <ele>421.857</ele>
        <time>2021-05-23T08:16:20Z</time>
      </trkpt>
      <trkpt lat="43.47197" lon="2.3938">
        <ele>422.188</ele>
        <time>2021-05-23T08:16:22Z</time>
      </trkpt>
      <trkpt lat="43.47197" lon="2.3938">
        <ele>422.218</ele>
        <time>2021-05-23T08:16:24Z</time>
      </trkpt>
      <trkpt lat="43.47196" lon="2.39382">
        <ele>421.891</ele>
        <time>2021-05-23T08:16:26Z</time>
      </trkpt>
      <trkpt lat="43.47196" lon="2.39384">
        <ele>422.209</ele>
        <time>2021-05-23T08:16:28Z</time>
      </trkpt>
      <trkpt lat="43.47195" lon="2.39387">
        <ele>422.612</ele>
        <time>2021-05-23T08:16:30Z</time>
      </trkpt>
      <trkpt lat="43.47194" lon="2.39388">
        <ele>422.557</ele>
        <time>2021-05-23T08:16:32Z</time>
      </trkpt>
      <trkpt lat="43.47192" lon="2.39389">
        <ele>423.117</ele>
        <time>2021-05-23T08:16:34Z</time>
      </trkpt>
      <trkpt lat="43.47192" lon="2.39391">
        <ele>423.231</ele>
        <time>2021-05-23T08:16:36Z</time>
      </trkpt>
      <trkpt lat="43.47193" lon="2.3939">
        <ele>418.525</ele>
        <time>2021-05-23T08:16:38Z</time>
      </trkpt>
      <trkpt lat="43.47193" lon="2.3939">
        <ele>416.23</ele>
        <time>2021-05-23T08:16:40Z</time>
      </trkpt>
      <trkpt lat="43.47194" lon="2.39391">
        <ele>413.691</ele>
        <time>2021-05-23T08:16:42Z</time>
      </trkpt>
      <trkpt lat="43.47194" lon="2.39393">
        <ele>413.756</ele>
        <time>2021-05-23T08:16:44Z</time>
      </trkpt>
      <trkpt lat="43.47194" lon="2.39395">
        <ele>413.705</ele>
        <time>2021-05-23T08:16:46Z</time>
      </trkpt>
      <trkpt lat="43.47195" lon="2.39397">
        <ele>413.54</ele>
        <time>2021-05-23T08:16:48Z</time>
      </trkpt>
      <trkpt lat="43.47195" lon="2.39399">
        <ele>413.289</ele>
        <time>2021-05-23T08:16:50Z</time>
      </trkpt>
      <trkpt lat="43.47195" lon="2.39401">
        <ele>412.51</ele>
        <time>2021-05-23T08:16:52Z</time>
      </trkpt>
      <trkpt lat="43.47196" lon="2.39403">
        <ele>411.466</ele>
        <time>2021-05-23T08:16:54Z</time>
      </trkpt>
      <trkpt lat="43.47197" lon="2.39405">
        <ele>409.779</ele>
        <time>2021-05-23T08:16:56Z</time>
      </trkpt>
      <trkpt lat="43.47199" lon="2.39406">
        <ele>409.25</ele>
        <time>2021-05-23T08:16:58Z</time>
      </trkpt>
      <trkpt lat="43.47202" lon="2.39406">
        <ele>408.257</ele>
        <time>2021-05-23T08:17:00Z</time>
      </trkpt>
      <trkpt lat="43.47204" lon="2.39407">
        <ele>407.921</ele>
        <time>2021-05-23T08:17:02Z</time>
      </trkpt>
      <trkpt lat="43.47205" lon="2.39409">
        <ele>408.314</ele>
        <time>2021-05-23T08:17:04Z</time>
      </trkpt>
      <trkpt lat="43.47208" lon="2.39409">
        <ele>408.211</ele>
        <time>2021-05-23T08:17:06Z</time>
      </trkpt>
      <trkpt lat="43.4721" lon="2.3941">
        <ele>408.646</ele>
        <time>2021-05-23T08:17:08Z</time>
      </trkpt>
      <trkpt lat="43.47212" lon="2.39411">
        <ele>408.274</ele>
        <time>2021-05-23T08:17:10Z</time>
      </trkpt>
      <trkpt lat="43.47214" lon="2.39413">
        <ele>408.365</ele>
        <time>2021-05-23T08:17:12Z</time>
      </trkpt>
      <trkpt lat="43.47216" lon="2.39414">
        <ele>408.099</ele>
        <time>2021-05-23T08:17:14Z</time>
      </trkpt>
      <trkpt lat="43.47218" lon="2.39416">
        <ele>407.789</ele>
        <time>2021-05-23T08:17:16Z</time>
      </trkpt>
      <trkpt lat="43.47219" lon="2.39417">
        <ele>406.938</ele>
        <time>2021-05-23T08:17:18Z</time>
      </trkpt>
      <trkpt lat="43.4722" lon="2.39419">
        <ele>408.158</ele>
        <time>2021-05-23T08:17:20Z</time>
      </trkpt>
      <trkpt lat="43.47219" lon="2.39419">
        <ele>406.778</ele>
        <time>2021-05-23T08:17:22Z</time>
      </trkpt>
      <trkpt lat="43.47219" lon="2.39419">
        <ele>406.777</ele>
        <time>2021-05-23T08:17:24Z</time>
      </trkpt>
      <trkpt lat="43.47219" lon="2.39419">
        <ele>406.777</ele>
        <time>2021-05-23T08:17:26Z</time>
      </trkpt>
      <trkpt lat="43.47219" lon="2.39419">
        <ele>406.764</ele>
        <time>2021-05-23T08:17:28Z</time>
      </trkpt>
      <trkpt lat="43.47219" lon="2.39419">
        <ele>406.754</ele>
        <time>2021-05-23T08:17:30Z</time>
      </trkpt>
      <trkpt lat="43.47219" lon="2.39419">
        <ele>406.63</ele>
        <time>2021-05-23T08:17:32Z</time>
      </trkpt>
      <trkpt lat="43.4722" lon="2.39421">
        <ele>407.305</ele>
        <time>2021-05-23T08:17:34Z</time>
      </trkpt>
      <trkpt lat="43.4722" lon="2.39423">
        <ele>407.008</ele>
        <time>2021-05-23T08:17:36Z</time>
      </trkpt>
      <trkpt lat="43.47221" lon="2.39424">
        <ele>406.24</ele>
        <time>2021-05-23T08:17:38Z</time>
      </trkpt>
      <trkpt lat="43.47224" lon="2.39422">
        <ele>404.758</ele>
        <time>2021-05-23T08:17:40Z</time>
      </trkpt>
      <trkpt lat="43.47226" lon="2.39423">
        <ele>404.166</ele>
        <time>2021-05-23T08:17:42Z</time>
      </trkpt>
      <trkpt lat="43.47227" lon="2.39422">
        <ele>403.774</ele>
        <time>2021-05-23T08:17:44Z</time>
      </trkpt>
      <trkpt lat="43.47228" lon="2.39421">
        <ele>403.663</ele>
        <time>2021-05-23T08:17:46Z</time>
      </trkpt>
      <trkpt lat="43.4723" lon="2.39421">
        <ele>401.924</ele>
        <time>2021-05-23T08:17:48Z</time>
      </trkpt>
      <trkpt lat="43.4723" lon="2.3942">
        <ele>401.768</ele>
        <time>2021-05-23T08:17:50Z</time>
      </trkpt>
      <trkpt lat="43.4723" lon="2.3942">
        <ele>401.763</ele>
        <time>2021-05-23T08:17:52Z</time>
      </trkpt>
      <trkpt lat="43.4723" lon="2.3942">
        <ele>401.761</ele>
        <time>2021-05-23T08:17:54Z</time>
      </trkpt>
      <trkpt lat="43.4723" lon="2.3942">
        <ele>402.016</ele>
        <time>2021-05-23T08:17:56Z</time>
      </trkpt>
      <trkpt lat="43.47231" lon="2.3942">
        <ele>402.245</ele>
        <time>2021-05-23T08:17:58Z</time>
      </trkpt>
      <trkpt lat="43.47232" lon="2.39421">
        <ele>401.921</ele>
        <time>2021-05-23T08:18:00Z</time>
      </trkpt>
      <trkpt lat="43.47233" lon="2.39422">
        <ele>401.991</ele>
        <time>2021-05-23T08:18:02Z</time>
      </trkpt>
      <trkpt lat="43.47235" lon="2.39422">
        <ele>401.42</ele>
        <time>2021-05-23T08:18:04Z</time>
      </trkpt>
      <trkpt lat="43.47236" lon="2.39423">
        <ele>401.647</ele>
        <time>2021-05-23T08:18:06Z</time>
      </trkpt>
      <trkpt lat="43.47236" lon="2.39425">
        <ele>402.166</ele>
        <time>2021-05-23T08:18:08Z</time>
      </trkpt>
      <trkpt lat="43.47236" lon="2.39427">
        <ele>402.452</ele>
        <time>2021-05-23T08:18:10Z</time>
      </trkpt>
      <trkpt lat="43.47236" lon="2.39429">
        <ele>402.245</ele>
        <time>2021-05-23T08:18:12Z</time>
      </trkpt>
      <trkpt lat="43.47237" lon="2.39431">
        <ele>402.11</ele>
        <time>2021-05-23T08:18:14Z</time>
      </trkpt>
      <trkpt lat="43.47237" lon="2.39434">
        <ele>402.36</ele>
        <time>2021-05-23T08:18:16Z</time>
      </trkpt>
      <trkpt lat="43.47237" lon="2.39437">
        <ele>402.395</ele>
        <time>2021-05-23T08:18:18Z</time>
      </trkpt>
      <trkpt lat="43.47238" lon="2.3944">
        <ele>402.712</ele>
        <time>2021-05-23T08:18:20Z</time>
      </trkpt>
      <trkpt lat="43.47238" lon="2.39443">
        <ele>403.445</ele>
        <time>2021-05-23T08:18:22Z</time>
      </trkpt>
      <trkpt lat="43.47238" lon="2.39446">
        <ele>403.755</ele>
        <time>2021-05-23T08:18:24Z</time>
      </trkpt>
      <trkpt lat="43.47238" lon="2.39448">
        <ele>404.002</ele>
        <time>2021-05-23T08:18:26Z</time>
      </trkpt>
      <trkpt lat="43.47238" lon="2.39451">
        <ele>404.518</ele>
        <time>2021-05-23T08:18:28Z</time>
      </trkpt>
      <trkpt lat="43.47237" lon="2.39452">
        <ele>404.662</ele>
        <time>2021-05-23T08:18:30Z</time>
      </trkpt>
      <trkpt lat="43.47237" lon="2.39454">
        <ele>404.522</ele>
        <time>2021-05-23T08:18:32Z</time>
      </trkpt>
      <trkpt lat="43.47238" lon="2.39456">
        <ele>404.754</ele>
        <time>2021-05-23T08:18:34Z</time>
      </trkpt>
      <trkpt lat="43.47238" lon="2.39458">
        <ele>404.714</ele>
        <time>2021-05-23T08:18:36Z</time>
      </trkpt>
      <trkpt lat="43.47238" lon="2.39459">
        <ele>404.46</ele>
        <time>2021-05-23T08:18:38Z</time>
      </trkpt>
      <trkpt lat="43.47239" lon="2.39459">
        <ele>403.892</ele>
        <time>2021-05-23T08:18:40Z</time>
      </trkpt>
      <trkpt lat="43.47239" lon="2.39458">
        <ele>403.896</ele>
        <time>2021-05-23T08:18:42Z</time>
      </trkpt>
      <trkpt lat="43.47239" lon="2.39458">
        <ele>403.894</ele>
        <time>2021-05-23T08:18:44Z</time>
      </trkpt>
      <trkpt lat="43.47239" lon="2.39458">
        <ele>403.892</ele>
        <time>2021-05-23T08:18:46Z</time>
      </trkpt>
      <trkpt lat="43.47239" lon="2.39458">
        <ele>403.896</ele>
        <time>2021-05-23T08:18:48Z</time>
      </trkpt>
      <trkpt lat="43.47239" lon="2.39458">
        <ele>403.898</ele>
        <time>2021-05-23T08:18:50Z</time>
      </trkpt>
      <trkpt lat="43.47239" lon="2.39458">
        <ele>403.896</ele>
        <time>2021-05-23T08:18:52Z</time>
      </trkpt>
      <trkpt lat="43.47239" lon="2.39458">
        <ele>403.898</ele>
        <time>2021-05-23T08:18:54Z</time>
      </trkpt>
      <trkpt lat="43.47239" lon="2.39458">
        <ele>403.897</ele>
        <time>2021-05-23T08:18:56Z</time>
      </trkpt>
      <trkpt lat="43.47239" lon="2.39458">
        <ele>403.897</ele>
        <time>2021-05-23T08:18:58Z</time>
      </trkpt>
      <trkpt lat="43.47239" lon="2.39458">
        <ele>403.901</ele>
        <time>2021-05-23T08:19:00Z</time>
      </trkpt>
      <trkpt lat="43.47239" lon="2.39458">
        <ele>403.9</ele>
        <time>2021-05-23T08:19:02Z</time>
      </trkpt>
      <trkpt lat="43.47239" lon="2.39458">
        <ele>403.904</ele>
        <time>2021-05-23T08:19:04Z</time>
      </trkpt>
      <trkpt lat="43.47239" lon="2.39458">
        <ele>403.906</ele>
        <time>2021-05-23T08:19:06Z</time>
      </trkpt>
      <trkpt lat="43.47239" lon="2.39458">
        <ele>403.908</ele>
        <time>2021-05-23T08:19:08Z</time>
      </trkpt>
      <trkpt lat="43.47239" lon="2.39458">
        <ele>403.913</ele>
        <time>2021-05-23T08:19:10Z</time>
      </trkpt>
      <trkpt lat="43.47239" lon="2.39459">
        <ele>403.923</ele>
        <time>2021-05-23T08:19:12Z</time>
      </trkpt>
      <trkpt lat="43.47239" lon="2.39459">
        <ele>403.93</ele>
        <time>2021-05-23T08:19:14Z</time>
      </trkpt>
      <trkpt lat="43.47239" lon="2.39459">
        <ele>403.935</ele>
        <time>2021-05-23T08:19:16Z</time>
      </trkpt>
      <trkpt lat="43.47239" lon="2.39459">
        <ele>403.932</ele>
        <time>2021-05-23T08:19:18Z</time>
      </trkpt>
      <trkpt lat="43.47239" lon="2.39459">
        <ele>403.935</ele>
        <time>2021-05-23T08:19:20Z</time>
      </trkpt>
      <trkpt lat="43.47239" lon="2.39459">
        <ele>403.942</ele>
        <time>2021-05-23T08:19:22Z</time>
      </trkpt>
      <trkpt lat="43.47239" lon="2.39459">
        <ele>403.946</ele>
        <time>2021-05-23T08:19:24Z</time>
      </trkpt>
      <trkpt lat="43.47239" lon="2.39459">
        <ele>403.949</ele>
        <time>2021-05-23T08:19:26Z</time>
      </trkpt>
      <trkpt lat="43.47239" lon="2.39459">
        <ele>403.95</ele>
        <time>2021-05-23T08:19:28Z</time>
      </trkpt>
      <trkpt lat="43.47239" lon="2.39459">
        <ele>403.946</ele>
        <time>2021-05-23T08:19:30Z</time>
      </trkpt>
      <trkpt lat="43.47239" lon="2.39459">
        <ele>403.932</ele>
        <time>2021-05-23T08:19:32Z</time>
      </trkpt>
      <trkpt lat="43.47239" lon="2.39459">
        <ele>403.921</ele>
        <time>2021-05-23T08:19:34Z</time>
      </trkpt>
      <trkpt lat="43.47239" lon="2.39459">
        <ele>403.915</ele>
        <time>2021-05-23T08:19:36Z</time>
      </trkpt>
      <trkpt lat="43.47239" lon="2.39459">
        <ele>403.91</ele>
        <time>2021-05-23T08:19:38Z</time>
      </trkpt>
      <trkpt lat="43.47239" lon="2.39459">
        <ele>403.909</ele>
        <time>2021-05-23T08:19:40Z</time>
      </trkpt>
      <trkpt lat="43.47239" lon="2.39459">
        <ele>403.907</ele>
        <time>2021-05-23T08:19:42Z</time>
      </trkpt>
      <trkpt lat="43.47239" lon="2.39459">
        <ele>403.907</ele>
        <time>2021-05-23T08:19:44Z</time>
      </trkpt>
      <trkpt lat="43.47239" lon="2.39459">
        <ele>403.91</ele>
        <time>2021-05-23T08:19:46Z</time>
      </trkpt>
      <trkpt lat="43.47239" lon="2.39459">
        <ele>403.908</ele>
        <time>2021-05-23T08:19:48Z</time>
      </trkpt>
      <trkpt lat="43.47239" lon="2.39458">
        <ele>403.792</ele>
        <time>2021-05-23T08:19:50Z</time>
      </trkpt>
      <trkpt lat="43.47239" lon="2.39458">
        <ele>403.778</ele>
        <time>2021-05-23T08:19:52Z</time>
      </trkpt>
      <trkpt lat="43.47239" lon="2.39458">
        <ele>403.776</ele>
        <time>2021-05-23T08:19:54Z</time>
      </trkpt>
      <trkpt lat="43.47239" lon="2.39458">
        <ele>403.774</ele>
        <time>2021-05-23T08:19:56Z</time>
      </trkpt>
      <trkpt lat="43.47239" lon="2.39457">
        <ele>402.658</ele>
        <time>2021-05-23T08:19:58Z</time>
      </trkpt>
      <trkpt lat="43.47239" lon="2.39457">
        <ele>402.737</ele>
        <time>2021-05-23T08:20:00Z</time>
      </trkpt>
      <trkpt lat="43.47239" lon="2.39457">
        <ele>402.736</ele>
        <time>2021-05-23T08:20:02Z</time>
      </trkpt>
      <trkpt lat="43.47239" lon="2.39457">
        <ele>402.734</ele>
        <time>2021-05-23T08:20:04Z</time>
      </trkpt>
      <trkpt lat="43.47239" lon="2.39457">
        <ele>402.737</ele>
        <time>2021-05-23T08:20:06Z</time>
      </trkpt>
      <trkpt lat="43.47239" lon="2.39457">
        <ele>402.571</ele>
        <time>2021-05-23T08:20:08Z</time>
      </trkpt>
      <trkpt lat="43.47239" lon="2.39457">
        <ele>402.586</ele>
        <time>2021-05-23T08:20:10Z</time>
      </trkpt>
      <trkpt lat="43.47239" lon="2.39457">
        <ele>402.574</ele>
        <time>2021-05-23T08:20:12Z</time>
      </trkpt>
      <trkpt lat="43.47239" lon="2.39457">
        <ele>402.565</ele>
        <time>2021-05-23T08:20:14Z</time>
      </trkpt>
      <trkpt lat="43.47239" lon="2.39457">
        <ele>402.498</ele>
        <time>2021-05-23T08:20:16Z</time>
      </trkpt>
      <trkpt lat="43.47239" lon="2.39457">
        <ele>402.563</ele>
        <time>2021-05-23T08:20:18Z</time>
      </trkpt>
      <trkpt lat="43.47239" lon="2.39457">
        <ele>402.222</ele>
        <time>2021-05-23T08:20:20Z</time>
      </trkpt>
      <trkpt lat="43.47239" lon="2.39457">
        <ele>402.262</ele>
        <time>2021-05-23T08:20:22Z</time>
      </trkpt>
      <trkpt lat="43.47239" lon="2.39457">
        <ele>402.305</ele>
        <time>2021-05-23T08:20:24Z</time>
      </trkpt>
      <trkpt lat="43.47239" lon="2.39456">
        <ele>402.595</ele>
        <time>2021-05-23T08:20:26Z</time>
      </trkpt>
      <trkpt lat="43.4724" lon="2.39454">
        <ele>403.88</ele>
        <time>2021-05-23T08:20:28Z</time>
      </trkpt>
      <trkpt lat="43.4724" lon="2.39453">
        <ele>403.779</ele>
        <time>2021-05-23T08:20:30Z</time>
      </trkpt>
      <trkpt lat="43.47241" lon="2.39455">
        <ele>403.648</ele>
        <time>2021-05-23T08:20:32Z</time>
      </trkpt>
      <trkpt lat="43.4724" lon="2.39457">
        <ele>403.622</ele>
        <time>2021-05-23T08:20:34Z</time>
      </trkpt>
      <trkpt lat="43.47239" lon="2.39458">
        <ele>402.735</ele>
        <time>2021-05-23T08:20:36Z</time>
      </trkpt>
      <trkpt lat="43.47238" lon="2.39459">
        <ele>401.868</ele>
        <time>2021-05-23T08:20:38Z</time>
      </trkpt>
      <trkpt lat="43.47238" lon="2.3946">
        <ele>401.993</ele>
        <time>2021-05-23T08:20:40Z</time>
      </trkpt>
      <trkpt lat="43.47238" lon="2.3946">
        <ele>401.998</ele>
        <time>2021-05-23T08:20:42Z</time>
      </trkpt>
      <trkpt lat="43.47238" lon="2.3946">
        <ele>401.996</ele>
        <time>2021-05-23T08:20:44Z</time>
      </trkpt>
      <trkpt lat="43.47238" lon="2.3946">
        <ele>401.993</ele>
        <time>2021-05-23T08:20:46Z</time>
      </trkpt>
      <trkpt lat="43.47238" lon="2.3946">
        <ele>401.988</ele>
        <time>2021-05-23T08:20:48Z</time>
      </trkpt>
      <trkpt lat="43.47238" lon="2.3946">
        <ele>401.989</ele>
        <time>2021-05-23T08:20:50Z</time>
      </trkpt>
      <trkpt lat="43.47238" lon="2.3946">
        <ele>401.991</ele>
        <time>2021-05-23T08:20:52Z</time>
      </trkpt>
      <trkpt lat="43.47238" lon="2.3946">
        <ele>401.991</ele>
        <time>2021-05-23T08:20:54Z</time>
      </trkpt>
      <trkpt lat="43.47238" lon="2.3946">
        <ele>401.984</ele>
        <time>2021-05-23T08:20:56Z</time>
      </trkpt>
      <trkpt lat="43.47238" lon="2.3946">
        <ele>401.985</ele>
        <time>2021-05-23T08:20:58Z</time>
      </trkpt>
      <trkpt lat="43.47238" lon="2.3946">
        <ele>401.993</ele>
        <time>2021-05-23T08:21:00Z</time>
      </trkpt>
      <trkpt lat="43.47238" lon="2.3946">
        <ele>402.717</ele>
        <time>2021-05-23T08:21:02Z</time>
      </trkpt>
      <trkpt lat="43.47238" lon="2.3946">
        <ele>402.355</ele>
        <time>2021-05-23T08:21:04Z</time>
      </trkpt>
      <trkpt lat="43.47238" lon="2.3946">
        <ele>402.353</ele>
        <time>2021-05-23T08:21:06Z</time>
      </trkpt>
      <trkpt lat="43.47238" lon="2.3946">
        <ele>402.357</ele>
        <time>2021-05-23T08:21:08Z</time>
      </trkpt>
      <trkpt lat="43.47238" lon="2.39461">
        <ele>402.341</ele>
        <time>2021-05-23T08:21:10Z</time>
      </trkpt>
      <trkpt lat="43.47238" lon="2.39461">
        <ele>402.331</ele>
        <time>2021-05-23T08:21:12Z</time>
      </trkpt>
      <trkpt lat="43.47238" lon="2.39461">
        <ele>402.333</ele>
        <time>2021-05-23T08:21:14Z</time>
      </trkpt>
      <trkpt lat="43.47238" lon="2.39461">
        <ele>402.339</ele>
        <time>2021-05-23T08:21:16Z</time>
      </trkpt>
      <trkpt lat="43.47238" lon="2.39461">
        <ele>402.341</ele>
        <time>2021-05-23T08:21:18Z</time>
      </trkpt>
      <trkpt lat="43.47238" lon="2.39461">
        <ele>402.335</ele>
        <time>2021-05-23T08:21:20Z</time>
      </trkpt>
      <trkpt lat="43.47238" lon="2.39461">
        <ele>402.336</ele>
        <time>2021-05-23T08:21:22Z</time>
      </trkpt>
      <trkpt lat="43.47238" lon="2.39461">
        <ele>402.339</ele>
        <time>2021-05-23T08:21:24Z</time>
      </trkpt>
      <trkpt lat="43.47238" lon="2.39461">
        <ele>402.33</ele>
        <time>2021-05-23T08:21:26Z</time>
      </trkpt>
      <trkpt lat="43.47238" lon="2.39461">
        <ele>402.316</ele>
        <time>2021-05-23T08:21:28Z</time>
      </trkpt>
      <trkpt lat="43.47238" lon="2.39461">
        <ele>402.319</ele>
        <time>2021-05-23T08:21:29Z</time>
      </trkpt>
      <trkpt lat="43.47238" lon="2.39461">
        <ele>402.328</ele>
        <time>2021-05-23T08:21:34Z</time>
      </trkpt>
      <trkpt lat="43.47238" lon="2.39461">
        <ele>402.452</ele>
        <time>2021-05-23T08:21:41Z</time>
      </trkpt>
      <trkpt lat="43.47238" lon="2.39461">
        <ele>402.802</ele>
        <time>2021-05-23T08:21:43Z</time>
      </trkpt>
      <trkpt lat="43.47237" lon="2.39463">
        <ele>402.659</ele>
        <time>2021-05-23T08:21:45Z</time>
      </trkpt>
      <trkpt lat="43.47238" lon="2.39466">
        <ele>402.685</ele>
        <time>2021-05-23T08:21:47Z</time>
      </trkpt>
      <trkpt lat="43.47238" lon="2.39468">
        <ele>401.879</ele>
        <time>2021-05-23T08:21:49Z</time>
      </trkpt>
      <trkpt lat="43.47238" lon="2.39472">
        <ele>402.579</ele>
        <time>2021-05-23T08:21:51Z</time>
      </trkpt>
      <trkpt lat="43.47239" lon="2.39474">
        <ele>401.426</ele>
        <time>2021-05-23T08:21:53Z</time>
      </trkpt>
      <trkpt lat="43.4724" lon="2.39476">
        <ele>400.29</ele>
        <time>2021-05-23T08:21:55Z</time>
      </trkpt>
      <trkpt lat="43.47241" lon="2.39479">
        <ele>400.002</ele>
        <time>2021-05-23T08:21:57Z</time>
      </trkpt>
      <trkpt lat="43.47242" lon="2.39481">
        <ele>399.681</ele>
        <time>2021-05-23T08:21:59Z</time>
      </trkpt>
      <trkpt lat="43.47244" lon="2.39485">
        <ele>400.479</ele>
        <time>2021-05-23T08:22:01Z</time>
      </trkpt>
      <trkpt lat="43.47245" lon="2.39487">
        <ele>400.225</ele>
        <time>2021-05-23T08:22:03Z</time>
      </trkpt>
      <trkpt lat="43.47247" lon="2.3949">
        <ele>399.906</ele>
        <time>2021-05-23T08:22:05Z</time>
      </trkpt>
      <trkpt lat="43.47248" lon="2.39493">
        <ele>399.646</ele>
        <time>2021-05-23T08:22:07Z</time>
      </trkpt>
      <trkpt lat="43.47249" lon="2.39496">
        <ele>398.639</ele>
        <time>2021-05-23T08:22:09Z</time>
      </trkpt>
      <trkpt lat="43.47249" lon="2.39499">
        <ele>398.189</ele>
        <time>2021-05-23T08:22:11Z</time>
      </trkpt>
      <trkpt lat="43.4725" lon="2.39503">
        <ele>397.84</ele>
        <time>2021-05-23T08:22:13Z</time>
      </trkpt>
      <trkpt lat="43.47251" lon="2.39506">
        <ele>397.904</ele>
        <time>2021-05-23T08:22:15Z</time>
      </trkpt>
      <trkpt lat="43.47252" lon="2.39509">
        <ele>397.312</ele>
        <time>2021-05-23T08:22:17Z</time>
      </trkpt>
      <trkpt lat="43.47253" lon="2.39513">
        <ele>397.16</ele>
        <time>2021-05-23T08:22:19Z</time>
      </trkpt>
      <trkpt lat="43.47254" lon="2.39516">
        <ele>397.276</ele>
        <time>2021-05-23T08:22:21Z</time>
      </trkpt>
      <trkpt lat="43.47254" lon="2.39519">
        <ele>397.008</ele>
        <time>2021-05-23T08:22:23Z</time>
      </trkpt>
      <trkpt lat="43.47254" lon="2.39521">
        <ele>397.194</ele>
        <time>2021-05-23T08:22:25Z</time>
      </trkpt>
      <trkpt lat="43.47254" lon="2.39524">
        <ele>397.666</ele>
        <time>2021-05-23T08:22:27Z</time>
      </trkpt>
      <trkpt lat="43.47254" lon="2.39527">
        <ele>397.692</ele>
        <time>2021-05-23T08:22:29Z</time>
      </trkpt>
      <trkpt lat="43.47254" lon="2.39528">
        <ele>396.921</ele>
        <time>2021-05-23T08:22:31Z</time>
      </trkpt>
      <trkpt lat="43.47254" lon="2.3953">
        <ele>398.11</ele>
        <time>2021-05-23T08:22:33Z</time>
      </trkpt>
      <trkpt lat="43.47255" lon="2.39531">
        <ele>397.971</ele>
        <time>2021-05-23T08:22:35Z</time>
      </trkpt>
      <trkpt lat="43.47255" lon="2.39531">
        <ele>397.97</ele>
        <time>2021-05-23T08:22:37Z</time>
      </trkpt>
      <trkpt lat="43.47255" lon="2.39531">
        <ele>397.992</ele>
        <time>2021-05-23T08:22:39Z</time>
      </trkpt>
      <trkpt lat="43.47255" lon="2.39531">
        <ele>397.595</ele>
        <time>2021-05-23T08:22:41Z</time>
      </trkpt>
      <trkpt lat="43.47256" lon="2.39533">
        <ele>398.593</ele>
        <time>2021-05-23T08:22:43Z</time>
      </trkpt>
      <trkpt lat="43.47257" lon="2.39537">
        <ele>399.118</ele>
        <time>2021-05-23T08:22:45Z</time>
      </trkpt>
      <trkpt lat="43.47258" lon="2.39539">
        <ele>398.932</ele>
        <time>2021-05-23T08:22:47Z</time>
      </trkpt>
      <trkpt lat="43.47258" lon="2.39541">
        <ele>399.118</ele>
        <time>2021-05-23T08:22:49Z</time>
      </trkpt>
      <trkpt lat="43.47259" lon="2.39543">
        <ele>398.075</ele>
        <time>2021-05-23T08:22:51Z</time>
      </trkpt>
      <trkpt lat="43.4726" lon="2.39545">
        <ele>397.989</ele>
        <time>2021-05-23T08:22:53Z</time>
      </trkpt>
      <trkpt lat="43.4726" lon="2.39548">
        <ele>397.732</ele>
        <time>2021-05-23T08:22:55Z</time>
      </trkpt>
      <trkpt lat="43.4726" lon="2.39551">
        <ele>396.524</ele>
        <time>2021-05-23T08:22:57Z</time>
      </trkpt>
      <trkpt lat="43.47261" lon="2.39554">
        <ele>396.019</ele>
        <time>2021-05-23T08:22:59Z</time>
      </trkpt>
      <trkpt lat="43.47262" lon="2.39557">
        <ele>395</ele>
        <time>2021-05-23T08:23:01Z</time>
      </trkpt>
      <trkpt lat="43.47263" lon="2.3956">
        <ele>394.898</ele>
        <time>2021-05-23T08:23:03Z</time>
      </trkpt>
      <trkpt lat="43.47263" lon="2.39562">
        <ele>394.346</ele>
        <time>2021-05-23T08:23:05Z</time>
      </trkpt>
      <trkpt lat="43.47265" lon="2.39565">
        <ele>394.116</ele>
        <time>2021-05-23T08:23:07Z</time>
      </trkpt>
      <trkpt lat="43.47266" lon="2.39567">
        <ele>393.801</ele>
        <time>2021-05-23T08:23:09Z</time>
      </trkpt>
      <trkpt lat="43.47268" lon="2.39569">
        <ele>393.117</ele>
        <time>2021-05-23T08:23:11Z</time>
      </trkpt>
      <trkpt lat="43.47269" lon="2.39572">
        <ele>393.075</ele>
        <time>2021-05-23T08:23:13Z</time>
      </trkpt>
      <trkpt lat="43.47271" lon="2.39573">
        <ele>391.075</ele>
        <time>2021-05-23T08:23:15Z</time>
      </trkpt>
      <trkpt lat="43.47273" lon="2.39575">
        <ele>390.327</ele>
        <time>2021-05-23T08:23:17Z</time>
      </trkpt>
      <trkpt lat="43.47275" lon="2.39576">
        <ele>389.733</ele>
        <time>2021-05-23T08:23:19Z</time>
      </trkpt>
      <trkpt lat="43.47277" lon="2.39578">
        <ele>389.519</ele>
        <time>2021-05-23T08:23:21Z</time>
      </trkpt>
      <trkpt lat="43.47279" lon="2.39579">
        <ele>386.794</ele>
        <time>2021-05-23T08:23:23Z</time>
      </trkpt>
      <trkpt lat="43.47281" lon="2.3958">
        <ele>386.298</ele>
        <time>2021-05-23T08:23:25Z</time>
      </trkpt>
      <trkpt lat="43.47284" lon="2.39581">
        <ele>384.694</ele>
        <time>2021-05-23T08:23:27Z</time>
      </trkpt>
      <trkpt lat="43.47286" lon="2.39582">
        <ele>384.946</ele>
        <time>2021-05-23T08:23:29Z</time>
      </trkpt>
      <trkpt lat="43.47288" lon="2.39584">
        <ele>386.471</ele>
        <time>2021-05-23T08:23:31Z</time>
      </trkpt>
      <trkpt lat="43.4729" lon="2.39585">
        <ele>386.009</ele>
        <time>2021-05-23T08:23:33Z</time>
      </trkpt>
      <trkpt lat="43.47292" lon="2.39586">
        <ele>386.999</ele>
        <time>2021-05-23T08:23:35Z</time>
      </trkpt>
      <trkpt lat="43.47294" lon="2.39588">
        <ele>385.026</ele>
        <time>2021-05-23T08:23:37Z</time>
      </trkpt>
      <trkpt lat="43.47296" lon="2.39589">
        <ele>384.702</ele>
        <time>2021-05-23T08:23:39Z</time>
      </trkpt>
      <trkpt lat="43.47298" lon="2.3959">
        <ele>384.563</ele>
        <time>2021-05-23T08:23:41Z</time>
      </trkpt>
      <trkpt lat="43.473" lon="2.39591">
        <ele>384.691</ele>
        <time>2021-05-23T08:23:43Z</time>
      </trkpt>
      <trkpt lat="43.47303" lon="2.39591">
        <ele>385.42</ele>
        <time>2021-05-23T08:23:45Z</time>
      </trkpt>
      <trkpt lat="43.47306" lon="2.39591">
        <ele>387.668</ele>
        <time>2021-05-23T08:23:47Z</time>
      </trkpt>
      <trkpt lat="43.47309" lon="2.39592">
        <ele>387.362</ele>
        <time>2021-05-23T08:23:49Z</time>
      </trkpt>
      <trkpt lat="43.47311" lon="2.39591">
        <ele>387.872</ele>
        <time>2021-05-23T08:23:51Z</time>
      </trkpt>
      <trkpt lat="43.47314" lon="2.39591">
        <ele>388.091</ele>
        <time>2021-05-23T08:23:53Z</time>
      </trkpt>
      <trkpt lat="43.47316" lon="2.3959">
        <ele>388.952</ele>
        <time>2021-05-23T08:23:55Z</time>
      </trkpt>
      <trkpt lat="43.47319" lon="2.39589">
        <ele>389.257</ele>
        <time>2021-05-23T08:23:57Z</time>
      </trkpt>
      <trkpt lat="43.47322" lon="2.39587">
        <ele>388.52</ele>
        <time>2021-05-23T08:23:59Z</time>
      </trkpt>
      <trkpt lat="43.47324" lon="2.39586">
        <ele>388.546</ele>
        <time>2021-05-23T08:24:01Z</time>
      </trkpt>
      <trkpt lat="43.47326" lon="2.39584">
        <ele>388.524</ele>
        <time>2021-05-23T08:24:03Z</time>
      </trkpt>
      <trkpt lat="43.47328" lon="2.39581">
        <ele>387.898</ele>
        <time>2021-05-23T08:24:05Z</time>
      </trkpt>
      <trkpt lat="43.4733" lon="2.39579">
        <ele>387.023</ele>
        <time>2021-05-23T08:24:07Z</time>
      </trkpt>
      <trkpt lat="43.47331" lon="2.39577">
        <ele>386.98</ele>
        <time>2021-05-23T08:24:09Z</time>
      </trkpt>
      <trkpt lat="43.47333" lon="2.39575">
        <ele>387.05</ele>
        <time>2021-05-23T08:24:11Z</time>
      </trkpt>
      <trkpt lat="43.47335" lon="2.39573">
        <ele>386.594</ele>
        <time>2021-05-23T08:24:13Z</time>
      </trkpt>
      <trkpt lat="43.47336" lon="2.3957">
        <ele>385.637</ele>
        <time>2021-05-23T08:24:15Z</time>
      </trkpt>
      <trkpt lat="43.47337" lon="2.39568">
        <ele>384.917</ele>
        <time>2021-05-23T08:24:17Z</time>
      </trkpt>
      <trkpt lat="43.47339" lon="2.39565">
        <ele>384.493</ele>
        <time>2021-05-23T08:24:19Z</time>
      </trkpt>
      <trkpt lat="43.4734" lon="2.39562">
        <ele>384.131</ele>
        <time>2021-05-23T08:24:21Z</time>
      </trkpt>
      <trkpt lat="43.47341" lon="2.39558">
        <ele>384.322</ele>
        <time>2021-05-23T08:24:23Z</time>
      </trkpt>
      <trkpt lat="43.47343" lon="2.39554">
        <ele>384.769</ele>
        <time>2021-05-23T08:24:25Z</time>
      </trkpt>
      <trkpt lat="43.47344" lon="2.3955">
        <ele>385.662</ele>
        <time>2021-05-23T08:24:27Z</time>
      </trkpt>
      <trkpt lat="43.47346" lon="2.39547">
        <ele>384.305</ele>
        <time>2021-05-23T08:24:29Z</time>
      </trkpt>
      <trkpt lat="43.47347" lon="2.39544">
        <ele>383.112</ele>
        <time>2021-05-23T08:24:31Z</time>
      </trkpt>
      <trkpt lat="43.47348" lon="2.39541">
        <ele>382.482</ele>
        <time>2021-05-23T08:24:33Z</time>
      </trkpt>
      <trkpt lat="43.47349" lon="2.39538">
        <ele>382.433</ele>
        <time>2021-05-23T08:24:35Z</time>
      </trkpt>
      <trkpt lat="43.47351" lon="2.39534">
        <ele>381.929</ele>
        <time>2021-05-23T08:24:37Z</time>
      </trkpt>
      <trkpt lat="43.47352" lon="2.3953">
        <ele>380.653</ele>
        <time>2021-05-23T08:24:39Z</time>
      </trkpt>
      <trkpt lat="43.47354" lon="2.39527">
        <ele>380.885</ele>
        <time>2021-05-23T08:24:41Z</time>
      </trkpt>
      <trkpt lat="43.47355" lon="2.39524">
        <ele>380.616</ele>
        <time>2021-05-23T08:24:43Z</time>
      </trkpt>
      <trkpt lat="43.47357" lon="2.39522">
        <ele>380.319</ele>
        <time>2021-05-23T08:24:45Z</time>
      </trkpt>
      <trkpt lat="43.47358" lon="2.39519">
        <ele>379.815</ele>
        <time>2021-05-23T08:24:47Z</time>
      </trkpt>
      <trkpt lat="43.47359" lon="2.39516">
        <ele>379.481</ele>
        <time>2021-05-23T08:24:49Z</time>
      </trkpt>
      <trkpt lat="43.4736" lon="2.39513">
        <ele>379.573</ele>
        <time>2021-05-23T08:24:51Z</time>
      </trkpt>
      <trkpt lat="43.47361" lon="2.39509">
        <ele>379.396</ele>
        <time>2021-05-23T08:24:53Z</time>
      </trkpt>
      <trkpt lat="43.47363" lon="2.39505">
        <ele>380.253</ele>
        <time>2021-05-23T08:24:55Z</time>
      </trkpt>
      <trkpt lat="43.47364" lon="2.395">
        <ele>381.127</ele>
        <time>2021-05-23T08:24:57Z</time>
      </trkpt>
      <trkpt lat="43.47365" lon="2.39497">
        <ele>382.018</ele>
        <time>2021-05-23T08:24:59Z</time>
      </trkpt>
      <trkpt lat="43.47367" lon="2.39493">
        <ele>381.898</ele>
        <time>2021-05-23T08:25:01Z</time>
      </trkpt>
      <trkpt lat="43.47368" lon="2.3949">
        <ele>382.147</ele>
        <time>2021-05-23T08:25:03Z</time>
      </trkpt>
      <trkpt lat="43.47369" lon="2.39487">
        <ele>382.367</ele>
        <time>2021-05-23T08:25:05Z</time>
      </trkpt>
      <trkpt lat="43.4737" lon="2.39483">
        <ele>382.235</ele>
        <time>2021-05-23T08:25:07Z</time>
      </trkpt>
      <trkpt lat="43.47371" lon="2.3948">
        <ele>381.304</ele>
        <time>2021-05-23T08:25:09Z</time>
      </trkpt>
      <trkpt lat="43.47373" lon="2.39477">
        <ele>381.597</ele>
        <time>2021-05-23T08:25:11Z</time>
      </trkpt>
      <trkpt lat="43.47374" lon="2.39473">
        <ele>382.881</ele>
        <time>2021-05-23T08:25:13Z</time>
      </trkpt>
      <trkpt lat="43.47375" lon="2.3947">
        <ele>382.55</ele>
        <time>2021-05-23T08:25:15Z</time>
      </trkpt>
      <trkpt lat="43.47376" lon="2.39466">
        <ele>383.137</ele>
        <time>2021-05-23T08:25:17Z</time>
      </trkpt>
      <trkpt lat="43.47377" lon="2.39462">
        <ele>384.365</ele>
        <time>2021-05-23T08:25:19Z</time>
      </trkpt>
      <trkpt lat="43.47379" lon="2.39458">
        <ele>385.848</ele>
        <time>2021-05-23T08:25:21Z</time>
      </trkpt>
      <trkpt lat="43.4738" lon="2.39454">
        <ele>386.286</ele>
        <time>2021-05-23T08:25:23Z</time>
      </trkpt>
      <trkpt lat="43.47382" lon="2.3945">
        <ele>387.186</ele>
        <time>2021-05-23T08:25:25Z</time>
      </trkpt>
      <trkpt lat="43.47383" lon="2.39447">
        <ele>388.38</ele>
        <time>2021-05-23T08:25:27Z</time>
      </trkpt>
      <trkpt lat="43.47385" lon="2.39443">
        <ele>389.341</ele>
        <time>2021-05-23T08:25:29Z</time>
      </trkpt>
      <trkpt lat="43.47386" lon="2.3944">
        <ele>389.733</ele>
        <time>2021-05-23T08:25:31Z</time>
      </trkpt>
      <trkpt lat="43.47388" lon="2.39437">
        <ele>389.777</ele>
        <time>2021-05-23T08:25:33Z</time>
      </trkpt>
      <trkpt lat="43.4739" lon="2.39434">
        <ele>390.933</ele>
        <time>2021-05-23T08:25:35Z</time>
      </trkpt>
      <trkpt lat="43.47392" lon="2.39431">
        <ele>391.703</ele>
        <time>2021-05-23T08:25:37Z</time>
      </trkpt>
      <trkpt lat="43.47393" lon="2.39429">
        <ele>391.904</ele>
        <time>2021-05-23T08:25:39Z</time>
      </trkpt>
      <trkpt lat="43.47395" lon="2.39426">
        <ele>392.559</ele>
        <time>2021-05-23T08:25:41Z</time>
      </trkpt>
      <trkpt lat="43.47397" lon="2.39424">
        <ele>393.087</ele>
        <time>2021-05-23T08:25:43Z</time>
      </trkpt>
      <trkpt lat="43.47399" lon="2.39423">
        <ele>393.223</ele>
        <time>2021-05-23T08:25:45Z</time>
      </trkpt>
      <trkpt lat="43.47402" lon="2.3942">
        <ele>392.371</ele>
        <time>2021-05-23T08:25:47Z</time>
      </trkpt>
      <trkpt lat="43.47404" lon="2.39418">
        <ele>391.963</ele>
        <time>2021-05-23T08:25:49Z</time>
      </trkpt>
      <trkpt lat="43.47407" lon="2.39416">
        <ele>392.002</ele>
        <time>2021-05-23T08:25:51Z</time>
      </trkpt>
      <trkpt lat="43.4741" lon="2.39414">
        <ele>392.019</ele>
        <time>2021-05-23T08:25:53Z</time>
      </trkpt>
      <trkpt lat="43.47411" lon="2.39411">
        <ele>392.076</ele>
        <time>2021-05-23T08:25:55Z</time>
      </trkpt>
      <trkpt lat="43.47413" lon="2.39408">
        <ele>390.24</ele>
        <time>2021-05-23T08:25:57Z</time>
      </trkpt>
      <trkpt lat="43.47413" lon="2.39406">
        <ele>388.502</ele>
        <time>2021-05-23T08:25:59Z</time>
      </trkpt>
      <trkpt lat="43.47415" lon="2.39403">
        <ele>388.09</ele>
        <time>2021-05-23T08:26:01Z</time>
      </trkpt>
      <trkpt lat="43.47417" lon="2.39402">
        <ele>388.948</ele>
        <time>2021-05-23T08:26:03Z</time>
      </trkpt>
      <trkpt lat="43.47419" lon="2.394">
        <ele>388.628</ele>
        <time>2021-05-23T08:26:05Z</time>
      </trkpt>
      <trkpt lat="43.47421" lon="2.39398">
        <ele>389.787</ele>
        <time>2021-05-23T08:26:07Z</time>
      </trkpt>
      <trkpt lat="43.47423" lon="2.39397">
        <ele>389.651</ele>
        <time>2021-05-23T08:26:09Z</time>
      </trkpt>
      <trkpt lat="43.47425" lon="2.39395">
        <ele>391.142</ele>
        <time>2021-05-23T08:26:11Z</time>
      </trkpt>
      <trkpt lat="43.47427" lon="2.39393">
        <ele>391.044</ele>
        <time>2021-05-23T08:26:13Z</time>
      </trkpt>
      <trkpt lat="43.47429" lon="2.39391">
        <ele>392.196</ele>
        <time>2021-05-23T08:26:15Z</time>
      </trkpt>
      <trkpt lat="43.47431" lon="2.39389">
        <ele>393.238</ele>
        <time>2021-05-23T08:26:17Z</time>
      </trkpt>
      <trkpt lat="43.47433" lon="2.39388">
        <ele>394.494</ele>
        <time>2021-05-23T08:26:19Z</time>
      </trkpt>
      <trkpt lat="43.47435" lon="2.39385">
        <ele>394.097</ele>
        <time>2021-05-23T08:26:21Z</time>
      </trkpt>
      <trkpt lat="43.47437" lon="2.39383">
        <ele>393.869</ele>
        <time>2021-05-23T08:26:23Z</time>
      </trkpt>
      <trkpt lat="43.47438" lon="2.3938">
        <ele>393.847</ele>
        <time>2021-05-23T08:26:25Z</time>
      </trkpt>
      <trkpt lat="43.4744" lon="2.39378">
        <ele>394.291</ele>
        <time>2021-05-23T08:26:27Z</time>
      </trkpt>
      <trkpt lat="43.47442" lon="2.39376">
        <ele>394.02</ele>
        <time>2021-05-23T08:26:29Z</time>
      </trkpt>
      <trkpt lat="43.47444" lon="2.39374">
        <ele>393.037</ele>
        <time>2021-05-23T08:26:31Z</time>
      </trkpt>
      <trkpt lat="43.47446" lon="2.39371">
        <ele>392.942</ele>
        <time>2021-05-23T08:26:33Z</time>
      </trkpt>
      <trkpt lat="43.47448" lon="2.39369">
        <ele>393.264</ele>
        <time>2021-05-23T08:26:35Z</time>
      </trkpt>
      <trkpt lat="43.47449" lon="2.39366">
        <ele>392.974</ele>
        <time>2021-05-23T08:26:37Z</time>
      </trkpt>
      <trkpt lat="43.47451" lon="2.39364">
        <ele>392.949</ele>
        <time>2021-05-23T08:26:39Z</time>
      </trkpt>
      <trkpt lat="43.47453" lon="2.39361">
        <ele>392.772</ele>
        <time>2021-05-23T08:26:41Z</time>
      </trkpt>
      <trkpt lat="43.47455" lon="2.39358">
        <ele>391.294</ele>
        <time>2021-05-23T08:26:43Z</time>
      </trkpt>
      <trkpt lat="43.47457" lon="2.39356">
        <ele>392.507</ele>
        <time>2021-05-23T08:26:45Z</time>
      </trkpt>
      <trkpt lat="43.4746" lon="2.39355">
        <ele>393.508</ele>
        <time>2021-05-23T08:26:47Z</time>
      </trkpt>
      <trkpt lat="43.47462" lon="2.39353">
        <ele>395.812</ele>
        <time>2021-05-23T08:26:49Z</time>
      </trkpt>
      <trkpt lat="43.47463" lon="2.3935">
        <ele>395.79</ele>
        <time>2021-05-23T08:26:51Z</time>
      </trkpt>
      <trkpt lat="43.47465" lon="2.39345">
        <ele>395.395</ele>
        <time>2021-05-23T08:26:53Z</time>
      </trkpt>
      <trkpt lat="43.47465" lon="2.3934">
        <ele>398.112</ele>
        <time>2021-05-23T08:26:55Z</time>
      </trkpt>
      <trkpt lat="43.47465" lon="2.39335">
        <ele>400.337</ele>
        <time>2021-05-23T08:26:57Z</time>
      </trkpt>
      <trkpt lat="43.47463" lon="2.39331">
        <ele>403.28</ele>
        <time>2021-05-23T08:26:59Z</time>
      </trkpt>
      <trkpt lat="43.47462" lon="2.39331">
        <ele>402.809</ele>
        <time>2021-05-23T08:27:01Z</time>
      </trkpt>
      <trkpt lat="43.47462" lon="2.39331">
        <ele>402.786</ele>
        <time>2021-05-23T08:27:03Z</time>
      </trkpt>
      <trkpt lat="43.47462" lon="2.3933">
        <ele>403.143</ele>
        <time>2021-05-23T08:27:05Z</time>
      </trkpt>
      <trkpt lat="43.47462" lon="2.39329">
        <ele>403.163</ele>
        <time>2021-05-23T08:27:07Z</time>
      </trkpt>
      <trkpt lat="43.47462" lon="2.39329">
        <ele>403.048</ele>
        <time>2021-05-23T08:27:09Z</time>
      </trkpt>
      <trkpt lat="43.47462" lon="2.39326">
        <ele>402.749</ele>
        <time>2021-05-23T08:27:11Z</time>
      </trkpt>
      <trkpt lat="43.47462" lon="2.39323">
        <ele>402.548</ele>
        <time>2021-05-23T08:27:13Z</time>
      </trkpt>
      <trkpt lat="43.47463" lon="2.3932">
        <ele>402.524</ele>
        <time>2021-05-23T08:27:15Z</time>
      </trkpt>
      <trkpt lat="43.47463" lon="2.39317">
        <ele>402.12</ele>
        <time>2021-05-23T08:27:17Z</time>
      </trkpt>
      <trkpt lat="43.47463" lon="2.39316">
        <ele>401.4</ele>
        <time>2021-05-23T08:27:19Z</time>
      </trkpt>
      <trkpt lat="43.47464" lon="2.39314">
        <ele>400.201</ele>
        <time>2021-05-23T08:27:21Z</time>
      </trkpt>
      <trkpt lat="43.47464" lon="2.39313">
        <ele>401.335</ele>
        <time>2021-05-23T08:27:23Z</time>
      </trkpt>
      <trkpt lat="43.47464" lon="2.39314">
        <ele>401.34</ele>
        <time>2021-05-23T08:27:25Z</time>
      </trkpt>
      <trkpt lat="43.47464" lon="2.39314">
        <ele>401.866</ele>
        <time>2021-05-23T08:27:27Z</time>
      </trkpt>
      <trkpt lat="43.47464" lon="2.39313">
        <ele>401.97</ele>
        <time>2021-05-23T08:27:29Z</time>
      </trkpt>
      <trkpt lat="43.47464" lon="2.39313">
        <ele>401.978</ele>
        <time>2021-05-23T08:27:31Z</time>
      </trkpt>
      <trkpt lat="43.47464" lon="2.39313">
        <ele>401.971</ele>
        <time>2021-05-23T08:27:33Z</time>
      </trkpt>
      <trkpt lat="43.47464" lon="2.39313">
        <ele>400.798</ele>
        <time>2021-05-23T08:27:35Z</time>
      </trkpt>
      <trkpt lat="43.47464" lon="2.39314">
        <ele>400.749</ele>
        <time>2021-05-23T08:27:37Z</time>
      </trkpt>
      <trkpt lat="43.47464" lon="2.39314">
        <ele>400.72</ele>
        <time>2021-05-23T08:27:39Z</time>
      </trkpt>
      <trkpt lat="43.47464" lon="2.39314">
        <ele>400.533</ele>
        <time>2021-05-23T08:27:41Z</time>
      </trkpt>
      <trkpt lat="43.47464" lon="2.39313">
        <ele>400.436</ele>
        <time>2021-05-23T08:27:43Z</time>
      </trkpt>
      <trkpt lat="43.47464" lon="2.39312">
        <ele>400.414</ele>
        <time>2021-05-23T08:27:45Z</time>
      </trkpt>
      <trkpt lat="43.47464" lon="2.39311">
        <ele>400.251</ele>
        <time>2021-05-23T08:27:47Z</time>
      </trkpt>
      <trkpt lat="43.47464" lon="2.39311">
        <ele>399.857</ele>
        <time>2021-05-23T08:27:49Z</time>
      </trkpt>
      <trkpt lat="43.47464" lon="2.39311">
        <ele>399.798</ele>
        <time>2021-05-23T08:27:51Z</time>
      </trkpt>
      <trkpt lat="43.47466" lon="2.3931">
        <ele>398.237</ele>
        <time>2021-05-23T08:27:53Z</time>
      </trkpt>
      <trkpt lat="43.47466" lon="2.39308">
        <ele>398.031</ele>
        <time>2021-05-23T08:27:55Z</time>
      </trkpt>
      <trkpt lat="43.47465" lon="2.39306">
        <ele>397.471</ele>
        <time>2021-05-23T08:27:57Z</time>
      </trkpt>
      <trkpt lat="43.47464" lon="2.39304">
        <ele>397.265</ele>
        <time>2021-05-23T08:27:59Z</time>
      </trkpt>
      <trkpt lat="43.47465" lon="2.39302">
        <ele>397.14</ele>
        <time>2021-05-23T08:28:01Z</time>
      </trkpt>
      <trkpt lat="43.47466" lon="2.39301">
        <ele>396.753</ele>
        <time>2021-05-23T08:28:03Z</time>
      </trkpt>
      <trkpt lat="43.47466" lon="2.39299">
        <ele>396.909</ele>
        <time>2021-05-23T08:28:05Z</time>
      </trkpt>
      <trkpt lat="43.47465" lon="2.39297">
        <ele>397.073</ele>
        <time>2021-05-23T08:28:07Z</time>
      </trkpt>
      <trkpt lat="43.47465" lon="2.39294">
        <ele>396.218</ele>
        <time>2021-05-23T08:28:09Z</time>
      </trkpt>
      <trkpt lat="43.47465" lon="2.39292">
        <ele>396.151</ele>
        <time>2021-05-23T08:28:11Z</time>
      </trkpt>
      <trkpt lat="43.47465" lon="2.3929">
        <ele>396.177</ele>
        <time>2021-05-23T08:28:13Z</time>
      </trkpt>
      <trkpt lat="43.47464" lon="2.39287">
        <ele>396.314</ele>
        <time>2021-05-23T08:28:15Z</time>
      </trkpt>
      <trkpt lat="43.47464" lon="2.39285">
        <ele>395.609</ele>
        <time>2021-05-23T08:28:17Z</time>
      </trkpt>
      <trkpt lat="43.47464" lon="2.39283">
        <ele>395.831</ele>
        <time>2021-05-23T08:28:19Z</time>
      </trkpt>
      <trkpt lat="43.47463" lon="2.3928">
        <ele>395.663</ele>
        <time>2021-05-23T08:28:21Z</time>
      </trkpt>
      <trkpt lat="43.47463" lon="2.39277">
        <ele>395.656</ele>
        <time>2021-05-23T08:28:23Z</time>
      </trkpt>
      <trkpt lat="43.47462" lon="2.39275">
        <ele>397.086</ele>
        <time>2021-05-23T08:28:25Z</time>
      </trkpt>
      <trkpt lat="43.47462" lon="2.39272">
        <ele>397.091</ele>
        <time>2021-05-23T08:28:27Z</time>
      </trkpt>
      <trkpt lat="43.47462" lon="2.3927">
        <ele>397.139</ele>
        <time>2021-05-23T08:28:29Z</time>
      </trkpt>
      <trkpt lat="43.47462" lon="2.39268">
        <ele>396.43</ele>
        <time>2021-05-23T08:28:31Z</time>
      </trkpt>
      <trkpt lat="43.47462" lon="2.39266">
        <ele>395.903</ele>
        <time>2021-05-23T08:28:33Z</time>
      </trkpt>
      <trkpt lat="43.47461" lon="2.39263">
        <ele>395.222</ele>
        <time>2021-05-23T08:28:35Z</time>
      </trkpt>
      <trkpt lat="43.4746" lon="2.39261">
        <ele>394.964</ele>
        <time>2021-05-23T08:28:37Z</time>
      </trkpt>
      <trkpt lat="43.4746" lon="2.39258">
        <ele>394.536</ele>
        <time>2021-05-23T08:28:39Z</time>
      </trkpt>
      <trkpt lat="43.47459" lon="2.39256">
        <ele>394.561</ele>
        <time>2021-05-23T08:28:41Z</time>
      </trkpt>
      <trkpt lat="43.47458" lon="2.39254">
        <ele>394.372</ele>
        <time>2021-05-23T08:28:43Z</time>
      </trkpt>
      <trkpt lat="43.47457" lon="2.39252">
        <ele>395.391</ele>
        <time>2021-05-23T08:28:45Z</time>
      </trkpt>
      <trkpt lat="43.47456" lon="2.39249">
        <ele>395.128</ele>
        <time>2021-05-23T08:28:47Z</time>
      </trkpt>
      <trkpt lat="43.47455" lon="2.39247">
        <ele>396.106</ele>
        <time>2021-05-23T08:28:49Z</time>
      </trkpt>
      <trkpt lat="43.47455" lon="2.39244">
        <ele>395.61</ele>
        <time>2021-05-23T08:28:51Z</time>
      </trkpt>
      <trkpt lat="43.47454" lon="2.39242">
        <ele>395.956</ele>
        <time>2021-05-23T08:28:53Z</time>
      </trkpt>
      <trkpt lat="43.47453" lon="2.39239">
        <ele>394.616</ele>
        <time>2021-05-23T08:28:55Z</time>
      </trkpt>
      <trkpt lat="43.47452" lon="2.39237">
        <ele>395.037</ele>
        <time>2021-05-23T08:28:57Z</time>
      </trkpt>
      <trkpt lat="43.47451" lon="2.39235">
        <ele>397.26</ele>
        <time>2021-05-23T08:28:59Z</time>
      </trkpt>
      <trkpt lat="43.4745" lon="2.39233">
        <ele>396.62</ele>
        <time>2021-05-23T08:29:01Z</time>
      </trkpt>
      <trkpt lat="43.47448" lon="2.3923">
        <ele>396.757</ele>
        <time>2021-05-23T08:29:03Z</time>
      </trkpt>
      <trkpt lat="43.47447" lon="2.39228">
        <ele>397.718</ele>
        <time>2021-05-23T08:29:06Z</time>
      </trkpt>
      <trkpt lat="43.47446" lon="2.39225">
        <ele>398.693</ele>
        <time>2021-05-23T08:29:08Z</time>
      </trkpt>
      <trkpt lat="43.47445" lon="2.39223">
        <ele>399.103</ele>
        <time>2021-05-23T08:29:10Z</time>
      </trkpt>
      <trkpt lat="43.47445" lon="2.3922">
        <ele>400.466</ele>
        <time>2021-05-23T08:29:12Z</time>
      </trkpt>
      <trkpt lat="43.47443" lon="2.39211">
        <ele>401.764</ele>
        <time>2021-05-23T08:29:19Z</time>
      </trkpt>
      <trkpt lat="43.47443" lon="2.39209">
        <ele>402.311</ele>
        <time>2021-05-23T08:29:21Z</time>
      </trkpt>
      <trkpt lat="43.47442" lon="2.39207">
        <ele>402.769</ele>
        <time>2021-05-23T08:29:23Z</time>
      </trkpt>
      <trkpt lat="43.47442" lon="2.39205">
        <ele>402.586</ele>
        <time>2021-05-23T08:29:25Z</time>
      </trkpt>
      <trkpt lat="43.47441" lon="2.39204">
        <ele>402.072</ele>
        <time>2021-05-23T08:29:27Z</time>
      </trkpt>
      <trkpt lat="43.4744" lon="2.39203">
        <ele>402.39</ele>
        <time>2021-05-23T08:29:29Z</time>
      </trkpt>
      <trkpt lat="43.47439" lon="2.39202">
        <ele>402.931</ele>
        <time>2021-05-23T08:29:31Z</time>
      </trkpt>
      <trkpt lat="43.47439" lon="2.39202">
        <ele>403.127</ele>
        <time>2021-05-23T08:29:33Z</time>
      </trkpt>
      <trkpt lat="43.47439" lon="2.39202">
        <ele>403.126</ele>
        <time>2021-05-23T08:29:35Z</time>
      </trkpt>
      <trkpt lat="43.47439" lon="2.39202">
        <ele>403.137</ele>
        <time>2021-05-23T08:29:37Z</time>
      </trkpt>
      <trkpt lat="43.47438" lon="2.39202">
        <ele>402.69</ele>
        <time>2021-05-23T08:29:39Z</time>
      </trkpt>
      <trkpt lat="43.47438" lon="2.39202">
        <ele>401.955</ele>
        <time>2021-05-23T08:29:41Z</time>
      </trkpt>
      <trkpt lat="43.47437" lon="2.39201">
        <ele>402.123</ele>
        <time>2021-05-23T08:29:43Z</time>
      </trkpt>
      <trkpt lat="43.47435" lon="2.392">
        <ele>403.392</ele>
        <time>2021-05-23T08:29:45Z</time>
      </trkpt>
      <trkpt lat="43.47433" lon="2.39198">
        <ele>403.167</ele>
        <time>2021-05-23T08:29:47Z</time>
      </trkpt>
      <trkpt lat="43.47432" lon="2.39196">
        <ele>401.895</ele>
        <time>2021-05-23T08:29:49Z</time>
      </trkpt>
      <trkpt lat="43.47429" lon="2.39194">
        <ele>402.879</ele>
        <time>2021-05-23T08:29:51Z</time>
      </trkpt>
      <trkpt lat="43.47427" lon="2.39192">
        <ele>403.507</ele>
        <time>2021-05-23T08:29:53Z</time>
      </trkpt>
      <trkpt lat="43.47425" lon="2.3919">
        <ele>403.982</ele>
        <time>2021-05-23T08:29:55Z</time>
      </trkpt>
      <trkpt lat="43.47424" lon="2.39188">
        <ele>405.297</ele>
        <time>2021-05-23T08:29:57Z</time>
      </trkpt>
      <trkpt lat="43.47422" lon="2.39186">
        <ele>405.534</ele>
        <time>2021-05-23T08:29:59Z</time>
      </trkpt>
      <trkpt lat="43.47421" lon="2.39183">
        <ele>405.891</ele>
        <time>2021-05-23T08:30:01Z</time>
      </trkpt>
      <trkpt lat="43.4742" lon="2.3918">
        <ele>407.41</ele>
        <time>2021-05-23T08:30:03Z</time>
      </trkpt>
      <trkpt lat="43.4742" lon="2.39178">
        <ele>409.733</ele>
        <time>2021-05-23T08:30:05Z</time>
      </trkpt>
      <trkpt lat="43.47421" lon="2.39177">
        <ele>409.021</ele>
        <time>2021-05-23T08:30:07Z</time>
      </trkpt>
      <trkpt lat="43.47423" lon="2.39176">
        <ele>409.439</ele>
        <time>2021-05-23T08:30:09Z</time>
      </trkpt>
      <trkpt lat="43.47425" lon="2.39178">
        <ele>409.776</ele>
        <time>2021-05-23T08:30:11Z</time>
      </trkpt>
      <trkpt lat="43.47426" lon="2.39181">
        <ele>410.211</ele>
        <time>2021-05-23T08:30:13Z</time>
      </trkpt>
      <trkpt lat="43.47428" lon="2.39184">
        <ele>409.69</ele>
        <time>2021-05-23T08:30:15Z</time>
      </trkpt>
      <trkpt lat="43.47429" lon="2.39186">
        <ele>409.759</ele>
        <time>2021-05-23T08:30:17Z</time>
      </trkpt>
      <trkpt lat="43.4743" lon="2.39188">
        <ele>409.488</ele>
        <time>2021-05-23T08:30:19Z</time>
      </trkpt>
      <trkpt lat="43.47432" lon="2.39189">
        <ele>408.463</ele>
        <time>2021-05-23T08:30:21Z</time>
      </trkpt>
      <trkpt lat="43.47434" lon="2.3919">
        <ele>409.435</ele>
        <time>2021-05-23T08:30:23Z</time>
      </trkpt>
      <trkpt lat="43.47435" lon="2.39192">
        <ele>409.863</ele>
        <time>2021-05-23T08:30:25Z</time>
      </trkpt>
      <trkpt lat="43.47437" lon="2.39193">
        <ele>409.005</ele>
        <time>2021-05-23T08:30:27Z</time>
      </trkpt>
      <trkpt lat="43.47439" lon="2.39195">
        <ele>410.582</ele>
        <time>2021-05-23T08:30:29Z</time>
      </trkpt>
      <trkpt lat="43.4744" lon="2.39196">
        <ele>410.802</ele>
        <time>2021-05-23T08:30:31Z</time>
      </trkpt>
      <trkpt lat="43.47443" lon="2.39198">
        <ele>411.417</ele>
        <time>2021-05-23T08:30:33Z</time>
      </trkpt>
      <trkpt lat="43.47444" lon="2.39199">
        <ele>411.515</ele>
        <time>2021-05-23T08:30:35Z</time>
      </trkpt>
      <trkpt lat="43.47446" lon="2.39201">
        <ele>411.776</ele>
        <time>2021-05-23T08:30:37Z</time>
      </trkpt>
      <trkpt lat="43.47448" lon="2.39202">
        <ele>411.259</ele>
        <time>2021-05-23T08:30:39Z</time>
      </trkpt>
      <trkpt lat="43.47449" lon="2.39204">
        <ele>411.422</ele>
        <time>2021-05-23T08:30:41Z</time>
      </trkpt>
      <trkpt lat="43.47451" lon="2.39207">
        <ele>411.558</ele>
        <time>2021-05-23T08:30:43Z</time>
      </trkpt>
      <trkpt lat="43.47452" lon="2.39209">
        <ele>411.888</ele>
        <time>2021-05-23T08:30:45Z</time>
      </trkpt>
      <trkpt lat="43.47454" lon="2.39212">
        <ele>413.31</ele>
        <time>2021-05-23T08:30:47Z</time>
      </trkpt>
      <trkpt lat="43.47455" lon="2.39216">
        <ele>414.225</ele>
        <time>2021-05-23T08:30:49Z</time>
      </trkpt>
      <trkpt lat="43.47457" lon="2.39219">
        <ele>413.986</ele>
        <time>2021-05-23T08:30:51Z</time>
      </trkpt>
      <trkpt lat="43.47458" lon="2.3922">
        <ele>413.278</ele>
        <time>2021-05-23T08:30:53Z</time>
      </trkpt>
      <trkpt lat="43.4746" lon="2.39221">
        <ele>412.782</ele>
        <time>2021-05-23T08:30:55Z</time>
      </trkpt>
      <trkpt lat="43.47462" lon="2.39222">
        <ele>412.948</ele>
        <time>2021-05-23T08:30:57Z</time>
      </trkpt>
      <trkpt lat="43.47464" lon="2.39224">
        <ele>413.139</ele>
        <time>2021-05-23T08:30:59Z</time>
      </trkpt>
      <trkpt lat="43.47465" lon="2.39226">
        <ele>412.978</ele>
        <time>2021-05-23T08:31:01Z</time>
      </trkpt>
      <trkpt lat="43.47467" lon="2.39228">
        <ele>413.832</ele>
        <time>2021-05-23T08:31:03Z</time>
      </trkpt>
      <trkpt lat="43.47469" lon="2.3923">
        <ele>413.811</ele>
        <time>2021-05-23T08:31:05Z</time>
      </trkpt>
      <trkpt lat="43.4747" lon="2.39232">
        <ele>414.358</ele>
        <time>2021-05-23T08:31:07Z</time>
      </trkpt>
      <trkpt lat="43.47472" lon="2.39235">
        <ele>415.733</ele>
        <time>2021-05-23T08:31:09Z</time>
      </trkpt>
      <trkpt lat="43.47473" lon="2.39238">
        <ele>416.344</ele>
        <time>2021-05-23T08:31:11Z</time>
      </trkpt>
      <trkpt lat="43.47475" lon="2.39241">
        <ele>416.969</ele>
        <time>2021-05-23T08:31:13Z</time>
      </trkpt>
      <trkpt lat="43.47476" lon="2.39245">
        <ele>416.924</ele>
        <time>2021-05-23T08:31:15Z</time>
      </trkpt>
      <trkpt lat="43.47477" lon="2.39247">
        <ele>416.254</ele>
        <time>2021-05-23T08:31:17Z</time>
      </trkpt>
      <trkpt lat="43.47478" lon="2.39249">
        <ele>417.445</ele>
        <time>2021-05-23T08:31:19Z</time>
      </trkpt>
      <trkpt lat="43.4748" lon="2.39252">
        <ele>417.198</ele>
        <time>2021-05-23T08:31:21Z</time>
      </trkpt>
      <trkpt lat="43.47481" lon="2.39254">
        <ele>417.15</ele>
        <time>2021-05-23T08:31:23Z</time>
      </trkpt>
      <trkpt lat="43.47483" lon="2.39257">
        <ele>417.216</ele>
        <time>2021-05-23T08:31:25Z</time>
      </trkpt>
      <trkpt lat="43.47484" lon="2.3926">
        <ele>417.61</ele>
        <time>2021-05-23T08:31:27Z</time>
      </trkpt>
      <trkpt lat="43.47485" lon="2.39262">
        <ele>416.828</ele>
        <time>2021-05-23T08:31:29Z</time>
      </trkpt>
      <trkpt lat="43.47487" lon="2.39265">
        <ele>417.528</ele>
        <time>2021-05-23T08:31:31Z</time>
      </trkpt>
      <trkpt lat="43.47487" lon="2.39268">
        <ele>416.652</ele>
        <time>2021-05-23T08:31:33Z</time>
      </trkpt>
      <trkpt lat="43.47488" lon="2.3927">
        <ele>416.909</ele>
        <time>2021-05-23T08:31:35Z</time>
      </trkpt>
      <trkpt lat="43.47489" lon="2.39273">
        <ele>416.353</ele>
        <time>2021-05-23T08:31:37Z</time>
      </trkpt>
      <trkpt lat="43.4749" lon="2.39276">
        <ele>416.645</ele>
        <time>2021-05-23T08:31:39Z</time>
      </trkpt>
      <trkpt lat="43.47491" lon="2.39277">
        <ele>416.039</ele>
        <time>2021-05-23T08:31:41Z</time>
      </trkpt>
      <trkpt lat="43.47492" lon="2.3928">
        <ele>415.593</ele>
        <time>2021-05-23T08:31:43Z</time>
      </trkpt>
      <trkpt lat="43.47494" lon="2.39282">
        <ele>416.434</ele>
        <time>2021-05-23T08:31:45Z</time>
      </trkpt>
      <trkpt lat="43.47494" lon="2.39285">
        <ele>416.371</ele>
        <time>2021-05-23T08:31:47Z</time>
      </trkpt>
      <trkpt lat="43.47495" lon="2.39287">
        <ele>416.87</ele>
        <time>2021-05-23T08:31:49Z</time>
      </trkpt>
      <trkpt lat="43.47496" lon="2.3929">
        <ele>417.451</ele>
        <time>2021-05-23T08:31:51Z</time>
      </trkpt>
      <trkpt lat="43.47497" lon="2.39293">
        <ele>417.73</ele>
        <time>2021-05-23T08:31:53Z</time>
      </trkpt>
      <trkpt lat="43.47498" lon="2.39296">
        <ele>417.729</ele>
        <time>2021-05-23T08:31:55Z</time>
      </trkpt>
      <trkpt lat="43.47498" lon="2.39298">
        <ele>417.438</ele>
        <time>2021-05-23T08:31:57Z</time>
      </trkpt>
      <trkpt lat="43.475" lon="2.393">
        <ele>416.316</ele>
        <time>2021-05-23T08:31:59Z</time>
      </trkpt>
      <trkpt lat="43.47502" lon="2.393">
        <ele>417.489</ele>
        <time>2021-05-23T08:32:01Z</time>
      </trkpt>
      <trkpt lat="43.47504" lon="2.39299">
        <ele>417.26</ele>
        <time>2021-05-23T08:32:03Z</time>
      </trkpt>
      <trkpt lat="43.47504" lon="2.39296">
        <ele>418.873</ele>
        <time>2021-05-23T08:32:05Z</time>
      </trkpt>
      <trkpt lat="43.47503" lon="2.39293">
        <ele>418.297</ele>
        <time>2021-05-23T08:32:07Z</time>
      </trkpt>
      <trkpt lat="43.47502" lon="2.39291">
        <ele>417.37</ele>
        <time>2021-05-23T08:32:09Z</time>
      </trkpt>
      <trkpt lat="43.47502" lon="2.39289">
        <ele>417.43</ele>
        <time>2021-05-23T08:32:11Z</time>
      </trkpt>
      <trkpt lat="43.47501" lon="2.39285">
        <ele>417.136</ele>
        <time>2021-05-23T08:32:13Z</time>
      </trkpt>
      <trkpt lat="43.47501" lon="2.39282">
        <ele>416.793</ele>
        <time>2021-05-23T08:32:15Z</time>
      </trkpt>
      <trkpt lat="43.47501" lon="2.39279">
        <ele>415.496</ele>
        <time>2021-05-23T08:32:17Z</time>
      </trkpt>
      <trkpt lat="43.47501" lon="2.39276">
        <ele>415.729</ele>
        <time>2021-05-23T08:32:19Z</time>
      </trkpt>
      <trkpt lat="43.475" lon="2.39274">
        <ele>416.586</ele>
        <time>2021-05-23T08:32:21Z</time>
      </trkpt>
      <trkpt lat="43.47498" lon="2.39271">
        <ele>417.039</ele>
        <time>2021-05-23T08:32:23Z</time>
      </trkpt>
      <trkpt lat="43.47498" lon="2.39268">
        <ele>415.879</ele>
        <time>2021-05-23T08:32:25Z</time>
      </trkpt>
      <trkpt lat="43.47497" lon="2.39266">
        <ele>416.028</ele>
        <time>2021-05-23T08:32:27Z</time>
      </trkpt>
      <trkpt lat="43.47497" lon="2.39263">
        <ele>416.497</ele>
        <time>2021-05-23T08:32:29Z</time>
      </trkpt>
      <trkpt lat="43.47496" lon="2.3926">
        <ele>415.44</ele>
        <time>2021-05-23T08:32:31Z</time>
      </trkpt>
      <trkpt lat="43.47495" lon="2.39258">
        <ele>415.679</ele>
        <time>2021-05-23T08:32:33Z</time>
      </trkpt>
      <trkpt lat="43.47494" lon="2.39256">
        <ele>417.506</ele>
        <time>2021-05-23T08:32:35Z</time>
      </trkpt>
      <trkpt lat="43.47493" lon="2.39253">
        <ele>418.107</ele>
        <time>2021-05-23T08:32:37Z</time>
      </trkpt>
      <trkpt lat="43.47492" lon="2.39251">
        <ele>419.456</ele>
        <time>2021-05-23T08:32:39Z</time>
      </trkpt>
      <trkpt lat="43.47491" lon="2.39248">
        <ele>419.731</ele>
        <time>2021-05-23T08:32:41Z</time>
      </trkpt>
      <trkpt lat="43.4749" lon="2.39245">
        <ele>419.652</ele>
        <time>2021-05-23T08:32:43Z</time>
      </trkpt>
      <trkpt lat="43.47489" lon="2.39242">
        <ele>419.38</ele>
        <time>2021-05-23T08:32:45Z</time>
      </trkpt>
      <trkpt lat="43.47488" lon="2.3924">
        <ele>419.086</ele>
        <time>2021-05-23T08:32:47Z</time>
      </trkpt>
      <trkpt lat="43.47487" lon="2.39237">
        <ele>418.568</ele>
        <time>2021-05-23T08:32:49Z</time>
      </trkpt>
      <trkpt lat="43.47485" lon="2.39233">
        <ele>420.681</ele>
        <time>2021-05-23T08:32:51Z</time>
      </trkpt>
      <trkpt lat="43.47483" lon="2.39231">
        <ele>419.368</ele>
        <time>2021-05-23T08:32:53Z</time>
      </trkpt>
      <trkpt lat="43.47482" lon="2.39228">
        <ele>418.369</ele>
        <time>2021-05-23T08:32:55Z</time>
      </trkpt>
      <trkpt lat="43.47481" lon="2.39225">
        <ele>418.959</ele>
        <time>2021-05-23T08:32:57Z</time>
      </trkpt>
      <trkpt lat="43.4748" lon="2.39223">
        <ele>420.705</ele>
        <time>2021-05-23T08:32:59Z</time>
      </trkpt>
      <trkpt lat="43.47479" lon="2.3922">
        <ele>422.372</ele>
        <time>2021-05-23T08:33:01Z</time>
      </trkpt>
      <trkpt lat="43.47478" lon="2.39216">
        <ele>421.67</ele>
        <time>2021-05-23T08:33:03Z</time>
      </trkpt>
      <trkpt lat="43.47477" lon="2.39213">
        <ele>422.214</ele>
        <time>2021-05-23T08:33:05Z</time>
      </trkpt>
      <trkpt lat="43.47475" lon="2.3921">
        <ele>422.862</ele>
        <time>2021-05-23T08:33:07Z</time>
      </trkpt>
      <trkpt lat="43.47474" lon="2.39207">
        <ele>422.907</ele>
        <time>2021-05-23T08:33:09Z</time>
      </trkpt>
      <trkpt lat="43.47473" lon="2.39204">
        <ele>423.456</ele>
        <time>2021-05-23T08:33:11Z</time>
      </trkpt>
      <trkpt lat="43.47472" lon="2.39202">
        <ele>422.18</ele>
        <time>2021-05-23T08:33:13Z</time>
      </trkpt>
      <trkpt lat="43.4747" lon="2.39199">
        <ele>421.779</ele>
        <time>2021-05-23T08:33:15Z</time>
      </trkpt>
      <trkpt lat="43.47469" lon="2.39196">
        <ele>422.255</ele>
        <time>2021-05-23T08:33:17Z</time>
      </trkpt>
      <trkpt lat="43.47468" lon="2.39194">
        <ele>422.177</ele>
        <time>2021-05-23T08:33:19Z</time>
      </trkpt>
      <trkpt lat="43.47466" lon="2.39191">
        <ele>422.621</ele>
        <time>2021-05-23T08:33:21Z</time>
      </trkpt>
      <trkpt lat="43.47465" lon="2.39189">
        <ele>422.262</ele>
        <time>2021-05-23T08:33:23Z</time>
      </trkpt>
      <trkpt lat="43.47463" lon="2.39187">
        <ele>423.752</ele>
        <time>2021-05-23T08:33:25Z</time>
      </trkpt>
      <trkpt lat="43.47462" lon="2.39184">
        <ele>425.113</ele>
        <time>2021-05-23T08:33:27Z</time>
      </trkpt>
      <trkpt lat="43.4746" lon="2.39181">
        <ele>426.278</ele>
        <time>2021-05-23T08:33:29Z</time>
      </trkpt>
      <trkpt lat="43.47459" lon="2.39178">
        <ele>425.359</ele>
        <time>2021-05-23T08:33:31Z</time>
      </trkpt>
      <trkpt lat="43.47457" lon="2.39176">
        <ele>424.944</ele>
        <time>2021-05-23T08:33:33Z</time>
      </trkpt>
      <trkpt lat="43.47455" lon="2.39173">
        <ele>424.844</ele>
        <time>2021-05-23T08:33:35Z</time>
      </trkpt>
      <trkpt lat="43.47454" lon="2.39171">
        <ele>423.957</ele>
        <time>2021-05-23T08:33:37Z</time>
      </trkpt>
      <trkpt lat="43.47453" lon="2.39169">
        <ele>423.394</ele>
        <time>2021-05-23T08:33:39Z</time>
      </trkpt>
      <trkpt lat="43.47453" lon="2.39166">
        <ele>421.87</ele>
        <time>2021-05-23T08:33:41Z</time>
      </trkpt>
      <trkpt lat="43.47452" lon="2.39164">
        <ele>419.836</ele>
        <time>2021-05-23T08:33:43Z</time>
      </trkpt>
      <trkpt lat="43.47451" lon="2.39161">
        <ele>421.066</ele>
        <time>2021-05-23T08:33:45Z</time>
      </trkpt>
      <trkpt lat="43.47449" lon="2.39158">
        <ele>420.634</ele>
        <time>2021-05-23T08:33:47Z</time>
      </trkpt>
      <trkpt lat="43.47449" lon="2.39155">
        <ele>420.979</ele>
        <time>2021-05-23T08:33:49Z</time>
      </trkpt>
      <trkpt lat="43.47448" lon="2.39152">
        <ele>422.637</ele>
        <time>2021-05-23T08:33:51Z</time>
      </trkpt>
      <trkpt lat="43.47448" lon="2.39148">
        <ele>423.872</ele>
        <time>2021-05-23T08:33:53Z</time>
      </trkpt>
      <trkpt lat="43.47448" lon="2.39144">
        <ele>425.647</ele>
        <time>2021-05-23T08:33:55Z</time>
      </trkpt>
      <trkpt lat="43.47449" lon="2.39141">
        <ele>426.212</ele>
        <time>2021-05-23T08:33:57Z</time>
      </trkpt>
      <trkpt lat="43.4745" lon="2.3914">
        <ele>426.555</ele>
        <time>2021-05-23T08:33:59Z</time>
      </trkpt>
      <trkpt lat="43.47452" lon="2.39141">
        <ele>428.06</ele>
        <time>2021-05-23T08:34:01Z</time>
      </trkpt>
      <trkpt lat="43.47453" lon="2.39143">
        <ele>427.816</ele>
        <time>2021-05-23T08:34:03Z</time>
      </trkpt>
      <trkpt lat="43.47454" lon="2.39146">
        <ele>428.233</ele>
        <time>2021-05-23T08:34:05Z</time>
      </trkpt>
      <trkpt lat="43.47454" lon="2.39149">
        <ele>428.276</ele>
        <time>2021-05-23T08:34:07Z</time>
      </trkpt>
      <trkpt lat="43.47454" lon="2.39152">
        <ele>428.273</ele>
        <time>2021-05-23T08:34:09Z</time>
      </trkpt>
      <trkpt lat="43.47454" lon="2.39155">
        <ele>428.122</ele>
        <time>2021-05-23T08:34:11Z</time>
      </trkpt>
      <trkpt lat="43.47455" lon="2.39158">
        <ele>428.477</ele>
        <time>2021-05-23T08:34:13Z</time>
      </trkpt>
      <trkpt lat="43.47456" lon="2.3916">
        <ele>428.279</ele>
        <time>2021-05-23T08:34:15Z</time>
      </trkpt>
      <trkpt lat="43.47456" lon="2.39163">
        <ele>428.968</ele>
        <time>2021-05-23T08:34:17Z</time>
      </trkpt>
      <trkpt lat="43.47457" lon="2.39165">
        <ele>428.661</ele>
        <time>2021-05-23T08:34:19Z</time>
      </trkpt>
      <trkpt lat="43.47459" lon="2.39167">
        <ele>429.125</ele>
        <time>2021-05-23T08:34:21Z</time>
      </trkpt>
      <trkpt lat="43.4746" lon="2.39169">
        <ele>430.002</ele>
        <time>2021-05-23T08:34:23Z</time>
      </trkpt>
      <trkpt lat="43.47462" lon="2.39172">
        <ele>430.078</ele>
        <time>2021-05-23T08:34:25Z</time>
      </trkpt>
      <trkpt lat="43.47464" lon="2.39174">
        <ele>429.976</ele>
        <time>2021-05-23T08:34:27Z</time>
      </trkpt>
      <trkpt lat="43.47466" lon="2.39175">
        <ele>429.509</ele>
        <time>2021-05-23T08:34:29Z</time>
      </trkpt>
      <trkpt lat="43.47468" lon="2.39177">
        <ele>429.491</ele>
        <time>2021-05-23T08:34:31Z</time>
      </trkpt>
      <trkpt lat="43.47469" lon="2.39178">
        <ele>429.538</ele>
        <time>2021-05-23T08:34:33Z</time>
      </trkpt>
      <trkpt lat="43.47471" lon="2.3918">
        <ele>429.408</ele>
        <time>2021-05-23T08:34:35Z</time>
      </trkpt>
      <trkpt lat="43.47472" lon="2.39181">
        <ele>428.871</ele>
        <time>2021-05-23T08:34:37Z</time>
      </trkpt>
      <trkpt lat="43.47474" lon="2.39182">
        <ele>428.804</ele>
        <time>2021-05-23T08:34:39Z</time>
      </trkpt>
      <trkpt lat="43.47476" lon="2.39185">
        <ele>429.295</ele>
        <time>2021-05-23T08:34:41Z</time>
      </trkpt>
      <trkpt lat="43.47477" lon="2.39186">
        <ele>429.414</ele>
        <time>2021-05-23T08:34:43Z</time>
      </trkpt>
      <trkpt lat="43.47479" lon="2.39188">
        <ele>429.538</ele>
        <time>2021-05-23T08:34:45Z</time>
      </trkpt>
      <trkpt lat="43.4748" lon="2.39191">
        <ele>429.921</ele>
        <time>2021-05-23T08:34:47Z</time>
      </trkpt>
      <trkpt lat="43.47482" lon="2.39192">
        <ele>430.212</ele>
        <time>2021-05-23T08:34:49Z</time>
      </trkpt>
      <trkpt lat="43.47484" lon="2.39194">
        <ele>431.463</ele>
        <time>2021-05-23T08:34:51Z</time>
      </trkpt>
      <trkpt lat="43.47485" lon="2.39196">
        <ele>431.877</ele>
        <time>2021-05-23T08:34:53Z</time>
      </trkpt>
      <trkpt lat="43.47487" lon="2.39198">
        <ele>432.112</ele>
        <time>2021-05-23T08:34:55Z</time>
      </trkpt>
      <trkpt lat="43.47488" lon="2.39201">
        <ele>431.837</ele>
        <time>2021-05-23T08:34:57Z</time>
      </trkpt>
      <trkpt lat="43.4749" lon="2.39204">
        <ele>432.408</ele>
        <time>2021-05-23T08:34:59Z</time>
      </trkpt>
      <trkpt lat="43.47491" lon="2.39206">
        <ele>433.486</ele>
        <time>2021-05-23T08:35:01Z</time>
      </trkpt>
      <trkpt lat="43.47492" lon="2.39209">
        <ele>433.207</ele>
        <time>2021-05-23T08:35:03Z</time>
      </trkpt>
      <trkpt lat="43.47494" lon="2.39212">
        <ele>433.68</ele>
        <time>2021-05-23T08:35:05Z</time>
      </trkpt>
      <trkpt lat="43.47495" lon="2.39214">
        <ele>434.118</ele>
        <time>2021-05-23T08:35:07Z</time>
      </trkpt>
      <trkpt lat="43.47497" lon="2.39217">
        <ele>434.315</ele>
        <time>2021-05-23T08:35:09Z</time>
      </trkpt>
      <trkpt lat="43.47498" lon="2.39218">
        <ele>434.445</ele>
        <time>2021-05-23T08:35:11Z</time>
      </trkpt>
      <trkpt lat="43.475" lon="2.39219">
        <ele>434.179</ele>
        <time>2021-05-23T08:35:13Z</time>
      </trkpt>
      <trkpt lat="43.47502" lon="2.39221">
        <ele>433.787</ele>
        <time>2021-05-23T08:35:15Z</time>
      </trkpt>
      <trkpt lat="43.47503" lon="2.39222">
        <ele>434.381</ele>
        <time>2021-05-23T08:35:17Z</time>
      </trkpt>
      <trkpt lat="43.47505" lon="2.39224">
        <ele>434.212</ele>
        <time>2021-05-23T08:35:19Z</time>
      </trkpt>
      <trkpt lat="43.47507" lon="2.39226">
        <ele>434.657</ele>
        <time>2021-05-23T08:35:21Z</time>
      </trkpt>
      <trkpt lat="43.47508" lon="2.39228">
        <ele>434.847</ele>
        <time>2021-05-23T08:35:23Z</time>
      </trkpt>
      <trkpt lat="43.47509" lon="2.3923">
        <ele>434.885</ele>
        <time>2021-05-23T08:35:25Z</time>
      </trkpt>
      <trkpt lat="43.47511" lon="2.39233">
        <ele>434.848</ele>
        <time>2021-05-23T08:35:27Z</time>
      </trkpt>
      <trkpt lat="43.47512" lon="2.39236">
        <ele>435.227</ele>
        <time>2021-05-23T08:35:29Z</time>
      </trkpt>
      <trkpt lat="43.47513" lon="2.39238">
        <ele>434.863</ele>
        <time>2021-05-23T08:35:31Z</time>
      </trkpt>
      <trkpt lat="43.47515" lon="2.39241">
        <ele>435.819</ele>
        <time>2021-05-23T08:35:33Z</time>
      </trkpt>
      <trkpt lat="43.47516" lon="2.39243">
        <ele>435.721</ele>
        <time>2021-05-23T08:35:35Z</time>
      </trkpt>
      <trkpt lat="43.47517" lon="2.39245">
        <ele>435.78</ele>
        <time>2021-05-23T08:35:37Z</time>
      </trkpt>
      <trkpt lat="43.47518" lon="2.39249">
        <ele>436.732</ele>
        <time>2021-05-23T08:35:39Z</time>
      </trkpt>
      <trkpt lat="43.47519" lon="2.39252">
        <ele>436.295</ele>
        <time>2021-05-23T08:35:41Z</time>
      </trkpt>
      <trkpt lat="43.4752" lon="2.39255">
        <ele>436.776</ele>
        <time>2021-05-23T08:35:43Z</time>
      </trkpt>
      <trkpt lat="43.47521" lon="2.39258">
        <ele>436.853</ele>
        <time>2021-05-23T08:35:45Z</time>
      </trkpt>
      <trkpt lat="43.47523" lon="2.39261">
        <ele>436.384</ele>
        <time>2021-05-23T08:35:47Z</time>
      </trkpt>
      <trkpt lat="43.47524" lon="2.39263">
        <ele>436.025</ele>
        <time>2021-05-23T08:35:49Z</time>
      </trkpt>
      <trkpt lat="43.47525" lon="2.39266">
        <ele>437.005</ele>
        <time>2021-05-23T08:35:51Z</time>
      </trkpt>
      <trkpt lat="43.47526" lon="2.39269">
        <ele>437.239</ele>
        <time>2021-05-23T08:35:53Z</time>
      </trkpt>
      <trkpt lat="43.47527" lon="2.39273">
        <ele>436.982</ele>
        <time>2021-05-23T08:35:55Z</time>
      </trkpt>
      <trkpt lat="43.47529" lon="2.39276">
        <ele>437.169</ele>
        <time>2021-05-23T08:35:57Z</time>
      </trkpt>
      <trkpt lat="43.4753" lon="2.39278">
        <ele>437.238</ele>
        <time>2021-05-23T08:35:59Z</time>
      </trkpt>
      <trkpt lat="43.47531" lon="2.39281">
        <ele>437.512</ele>
        <time>2021-05-23T08:36:01Z</time>
      </trkpt>
      <trkpt lat="43.47532" lon="2.39285">
        <ele>438.129</ele>
        <time>2021-05-23T08:36:03Z</time>
      </trkpt>
      <trkpt lat="43.47533" lon="2.39287">
        <ele>437.937</ele>
        <time>2021-05-23T08:36:05Z</time>
      </trkpt>
      <trkpt lat="43.47534" lon="2.3929">
        <ele>437.927</ele>
        <time>2021-05-23T08:36:07Z</time>
      </trkpt>
      <trkpt lat="43.47535" lon="2.39292">
        <ele>437.149</ele>
        <time>2021-05-23T08:36:09Z</time>
      </trkpt>
      <trkpt lat="43.47537" lon="2.39295">
        <ele>437.456</ele>
        <time>2021-05-23T08:36:11Z</time>
      </trkpt>
      <trkpt lat="43.47538" lon="2.39297">
        <ele>437.926</ele>
        <time>2021-05-23T08:36:13Z</time>
      </trkpt>
      <trkpt lat="43.47539" lon="2.393">
        <ele>437.728</ele>
        <time>2021-05-23T08:36:15Z</time>
      </trkpt>
      <trkpt lat="43.47541" lon="2.39302">
        <ele>437.796</ele>
        <time>2021-05-23T08:36:17Z</time>
      </trkpt>
      <trkpt lat="43.47543" lon="2.39302">
        <ele>438.496</ele>
        <time>2021-05-23T08:36:19Z</time>
      </trkpt>
      <trkpt lat="43.47545" lon="2.393">
        <ele>438.571</ele>
        <time>2021-05-23T08:36:21Z</time>
      </trkpt>
      <trkpt lat="43.47545" lon="2.39298">
        <ele>437.952</ele>
        <time>2021-05-23T08:36:23Z</time>
      </trkpt>
      <trkpt lat="43.47544" lon="2.39295">
        <ele>437.283</ele>
        <time>2021-05-23T08:36:25Z</time>
      </trkpt>
      <trkpt lat="43.47543" lon="2.39294">
        <ele>437.372</ele>
        <time>2021-05-23T08:36:27Z</time>
      </trkpt>
      <trkpt lat="43.47543" lon="2.39292">
        <ele>434.55</ele>
        <time>2021-05-23T08:36:29Z</time>
      </trkpt>
      <trkpt lat="43.47542" lon="2.3929">
        <ele>434.247</ele>
        <time>2021-05-23T08:36:31Z</time>
      </trkpt>
      <trkpt lat="43.47541" lon="2.39287">
        <ele>433.875</ele>
        <time>2021-05-23T08:36:33Z</time>
      </trkpt>
      <trkpt lat="43.47541" lon="2.39284">
        <ele>434.026</ele>
        <time>2021-05-23T08:36:35Z</time>
      </trkpt>
      <trkpt lat="43.4754" lon="2.39281">
        <ele>435.483</ele>
        <time>2021-05-23T08:36:37Z</time>
      </trkpt>
      <trkpt lat="43.4754" lon="2.39278">
        <ele>435.778</ele>
        <time>2021-05-23T08:36:39Z</time>
      </trkpt>
      <trkpt lat="43.4754" lon="2.39275">
        <ele>434.612</ele>
        <time>2021-05-23T08:36:41Z</time>
      </trkpt>
      <trkpt lat="43.4754" lon="2.39272">
        <ele>434.968</ele>
        <time>2021-05-23T08:36:43Z</time>
      </trkpt>
      <trkpt lat="43.4754" lon="2.39269">
        <ele>435.295</ele>
        <time>2021-05-23T08:36:45Z</time>
      </trkpt>
      <trkpt lat="43.4754" lon="2.39266">
        <ele>436.073</ele>
        <time>2021-05-23T08:36:47Z</time>
      </trkpt>
      <trkpt lat="43.47539" lon="2.39264">
        <ele>438.494</ele>
        <time>2021-05-23T08:36:49Z</time>
      </trkpt>
      <trkpt lat="43.47537" lon="2.39261">
        <ele>440.307</ele>
        <time>2021-05-23T08:36:51Z</time>
      </trkpt>
      <trkpt lat="43.47536" lon="2.39257">
        <ele>443.887</ele>
        <time>2021-05-23T08:36:53Z</time>
      </trkpt>
      <trkpt lat="43.47536" lon="2.39254">
        <ele>444.688</ele>
        <time>2021-05-23T08:36:55Z</time>
      </trkpt>
      <trkpt lat="43.47535" lon="2.3925">
        <ele>444.082</ele>
        <time>2021-05-23T08:36:57Z</time>
      </trkpt>
      <trkpt lat="43.47534" lon="2.39247">
        <ele>443.757</ele>
        <time>2021-05-23T08:36:59Z</time>
      </trkpt>
      <trkpt lat="43.47534" lon="2.39244">
        <ele>442.57</ele>
        <time>2021-05-23T08:37:01Z</time>
      </trkpt>
      <trkpt lat="43.47534" lon="2.39241">
        <ele>443.999</ele>
        <time>2021-05-23T08:37:03Z</time>
      </trkpt>
      <trkpt lat="43.47533" lon="2.39238">
        <ele>443.857</ele>
        <time>2021-05-23T08:37:05Z</time>
      </trkpt>
      <trkpt lat="43.47531" lon="2.39235">
        <ele>443.712</ele>
        <time>2021-05-23T08:37:07Z</time>
      </trkpt>
      <trkpt lat="43.4753" lon="2.39232">
        <ele>443.588</ele>
        <time>2021-05-23T08:37:09Z</time>
      </trkpt>
      <trkpt lat="43.4753" lon="2.3923">
        <ele>443.236</ele>
        <time>2021-05-23T08:37:11Z</time>
      </trkpt>
      <trkpt lat="43.47528" lon="2.39226">
        <ele>442.607</ele>
        <time>2021-05-23T08:37:13Z</time>
      </trkpt>
      <trkpt lat="43.47527" lon="2.39224">
        <ele>441.496</ele>
        <time>2021-05-23T08:37:15Z</time>
      </trkpt>
      <trkpt lat="43.47525" lon="2.39223">
        <ele>440.098</ele>
        <time>2021-05-23T08:37:17Z</time>
      </trkpt>
      <trkpt lat="43.47524" lon="2.39221">
        <ele>439.489</ele>
        <time>2021-05-23T08:37:19Z</time>
      </trkpt>
      <trkpt lat="43.47523" lon="2.3922">
        <ele>438.139</ele>
        <time>2021-05-23T08:37:21Z</time>
      </trkpt>
      <trkpt lat="43.47521" lon="2.39218">
        <ele>438.97</ele>
        <time>2021-05-23T08:37:23Z</time>
      </trkpt>
      <trkpt lat="43.47521" lon="2.39215">
        <ele>440.41</ele>
        <time>2021-05-23T08:37:25Z</time>
      </trkpt>
      <trkpt lat="43.47522" lon="2.39214">
        <ele>443.198</ele>
        <time>2021-05-23T08:37:27Z</time>
      </trkpt>
      <trkpt lat="43.47523" lon="2.39214">
        <ele>444.794</ele>
        <time>2021-05-23T08:37:29Z</time>
      </trkpt>
      <trkpt lat="43.47524" lon="2.39215">
        <ele>446.293</ele>
        <time>2021-05-23T08:37:31Z</time>
      </trkpt>
      <trkpt lat="43.47526" lon="2.39217">
        <ele>447.088</ele>
        <time>2021-05-23T08:37:33Z</time>
      </trkpt>
      <trkpt lat="43.47527" lon="2.39219">
        <ele>448.079</ele>
        <time>2021-05-23T08:37:35Z</time>
      </trkpt>
      <trkpt lat="43.47528" lon="2.39221">
        <ele>447.956</ele>
        <time>2021-05-23T08:37:37Z</time>
      </trkpt>
      <trkpt lat="43.47529" lon="2.39223">
        <ele>448.037</ele>
        <time>2021-05-23T08:37:39Z</time>
      </trkpt>
      <trkpt lat="43.4753" lon="2.39224">
        <ele>448.253</ele>
        <time>2021-05-23T08:37:41Z</time>
      </trkpt>
      <trkpt lat="43.47531" lon="2.39226">
        <ele>448.495</ele>
        <time>2021-05-23T08:37:43Z</time>
      </trkpt>
      <trkpt lat="43.47532" lon="2.39228">
        <ele>449.282</ele>
        <time>2021-05-23T08:37:45Z</time>
      </trkpt>
      <trkpt lat="43.47533" lon="2.3923">
        <ele>450.223</ele>
        <time>2021-05-23T08:37:47Z</time>
      </trkpt>
      <trkpt lat="43.47534" lon="2.39232">
        <ele>450.255</ele>
        <time>2021-05-23T08:37:49Z</time>
      </trkpt>
      <trkpt lat="43.47536" lon="2.39233">
        <ele>449.679</ele>
        <time>2021-05-23T08:37:51Z</time>
      </trkpt>
      <trkpt lat="43.47537" lon="2.39236">
        <ele>450.027</ele>
        <time>2021-05-23T08:37:53Z</time>
      </trkpt>
      <trkpt lat="43.47538" lon="2.39238">
        <ele>450.345</ele>
        <time>2021-05-23T08:37:55Z</time>
      </trkpt>
      <trkpt lat="43.47539" lon="2.39241">
        <ele>450.266</ele>
        <time>2021-05-23T08:37:57Z</time>
      </trkpt>
      <trkpt lat="43.4754" lon="2.39244">
        <ele>451.292</ele>
        <time>2021-05-23T08:37:59Z</time>
      </trkpt>
      <trkpt lat="43.47541" lon="2.39246">
        <ele>451.503</ele>
        <time>2021-05-23T08:38:01Z</time>
      </trkpt>
      <trkpt lat="43.47542" lon="2.39249">
        <ele>451.774</ele>
        <time>2021-05-23T08:38:03Z</time>
      </trkpt>
      <trkpt lat="43.47543" lon="2.39252">
        <ele>452.21</ele>
        <time>2021-05-23T08:38:05Z</time>
      </trkpt>
      <trkpt lat="43.47543" lon="2.39255">
        <ele>452.548</ele>
        <time>2021-05-23T08:38:07Z</time>
      </trkpt>
      <trkpt lat="43.47544" lon="2.39259">
        <ele>452.838</ele>
        <time>2021-05-23T08:38:09Z</time>
      </trkpt>
      <trkpt lat="43.47545" lon="2.39262">
        <ele>452.802</ele>
        <time>2021-05-23T08:38:11Z</time>
      </trkpt>
      <trkpt lat="43.47546" lon="2.39264">
        <ele>452.635</ele>
        <time>2021-05-23T08:38:13Z</time>
      </trkpt>
      <trkpt lat="43.47547" lon="2.39268">
        <ele>453.215</ele>
        <time>2021-05-23T08:38:15Z</time>
      </trkpt>
      <trkpt lat="43.47548" lon="2.3927">
        <ele>452.922</ele>
        <time>2021-05-23T08:38:17Z</time>
      </trkpt>
      <trkpt lat="43.47549" lon="2.39272">
        <ele>452.375</ele>
        <time>2021-05-23T08:38:19Z</time>
      </trkpt>
      <trkpt lat="43.4755" lon="2.39275">
        <ele>451.544</ele>
        <time>2021-05-23T08:38:21Z</time>
      </trkpt>
      <trkpt lat="43.47551" lon="2.39277">
        <ele>451.668</ele>
        <time>2021-05-23T08:38:23Z</time>
      </trkpt>
      <trkpt lat="43.47552" lon="2.3928">
        <ele>452.133</ele>
        <time>2021-05-23T08:38:25Z</time>
      </trkpt>
      <trkpt lat="43.47554" lon="2.39283">
        <ele>452.508</ele>
        <time>2021-05-23T08:38:27Z</time>
      </trkpt>
      <trkpt lat="43.47555" lon="2.39286">
        <ele>452.448</ele>
        <time>2021-05-23T08:38:29Z</time>
      </trkpt>
      <trkpt lat="43.47556" lon="2.39289">
        <ele>453.036</ele>
        <time>2021-05-23T08:38:31Z</time>
      </trkpt>
      <trkpt lat="43.47557" lon="2.39293">
        <ele>452.857</ele>
        <time>2021-05-23T08:38:33Z</time>
      </trkpt>
      <trkpt lat="43.47558" lon="2.39296">
        <ele>453.638</ele>
        <time>2021-05-23T08:38:35Z</time>
      </trkpt>
      <trkpt lat="43.47558" lon="2.39299">
        <ele>453.883</ele>
        <time>2021-05-23T08:38:37Z</time>
      </trkpt>
      <trkpt lat="43.4756" lon="2.39302">
        <ele>453.688</ele>
        <time>2021-05-23T08:38:39Z</time>
      </trkpt>
      <trkpt lat="43.47562" lon="2.39303">
        <ele>453.873</ele>
        <time>2021-05-23T08:38:41Z</time>
      </trkpt>
      <trkpt lat="43.47564" lon="2.39302">
        <ele>454.139</ele>
        <time>2021-05-23T08:38:43Z</time>
      </trkpt>
      <trkpt lat="43.47565" lon="2.39299">
        <ele>453.715</ele>
        <time>2021-05-23T08:38:45Z</time>
      </trkpt>
      <trkpt lat="43.47565" lon="2.39296">
        <ele>452.67</ele>
        <time>2021-05-23T08:38:47Z</time>
      </trkpt>
      <trkpt lat="43.47565" lon="2.39293">
        <ele>452.544</ele>
        <time>2021-05-23T08:38:49Z</time>
      </trkpt>
      <trkpt lat="43.47564" lon="2.39289">
        <ele>452.526</ele>
        <time>2021-05-23T08:38:51Z</time>
      </trkpt>
      <trkpt lat="43.47563" lon="2.39288">
        <ele>451.076</ele>
        <time>2021-05-23T08:38:53Z</time>
      </trkpt>
      <trkpt lat="43.47562" lon="2.39286">
        <ele>450.579</ele>
        <time>2021-05-23T08:38:55Z</time>
      </trkpt>
      <trkpt lat="43.47561" lon="2.39283">
        <ele>450.617</ele>
        <time>2021-05-23T08:38:57Z</time>
      </trkpt>
      <trkpt lat="43.4756" lon="2.39281">
        <ele>450.832</ele>
        <time>2021-05-23T08:38:59Z</time>
      </trkpt>
      <trkpt lat="43.4756" lon="2.39279">
        <ele>450.686</ele>
        <time>2021-05-23T08:39:01Z</time>
      </trkpt>
      <trkpt lat="43.4756" lon="2.39275">
        <ele>454.944</ele>
        <time>2021-05-23T08:39:03Z</time>
      </trkpt>
      <trkpt lat="43.47559" lon="2.39272">
        <ele>454.792</ele>
        <time>2021-05-23T08:39:05Z</time>
      </trkpt>
      <trkpt lat="43.47558" lon="2.39268">
        <ele>457.074</ele>
        <time>2021-05-23T08:39:07Z</time>
      </trkpt>
      <trkpt lat="43.47557" lon="2.39265">
        <ele>457.053</ele>
        <time>2021-05-23T08:39:09Z</time>
      </trkpt>
      <trkpt lat="43.47556" lon="2.39262">
        <ele>458.013</ele>
        <time>2021-05-23T08:39:11Z</time>
      </trkpt>
      <trkpt lat="43.47556" lon="2.39259">
        <ele>457.789</ele>
        <time>2021-05-23T08:39:13Z</time>
      </trkpt>
      <trkpt lat="43.47556" lon="2.39256">
        <ele>457.919</ele>
        <time>2021-05-23T08:39:15Z</time>
      </trkpt>
      <trkpt lat="43.47556" lon="2.39253">
        <ele>458.202</ele>
        <time>2021-05-23T08:39:17Z</time>
      </trkpt>
      <trkpt lat="43.47555" lon="2.39251">
        <ele>457.874</ele>
        <time>2021-05-23T08:39:19Z</time>
      </trkpt>
      <trkpt lat="43.47554" lon="2.39249">
        <ele>458.323</ele>
        <time>2021-05-23T08:39:21Z</time>
      </trkpt>
      <trkpt lat="43.47553" lon="2.39246">
        <ele>459.21</ele>
        <time>2021-05-23T08:39:23Z</time>
      </trkpt>
      <trkpt lat="43.47553" lon="2.39244">
        <ele>459.612</ele>
        <time>2021-05-23T08:39:25Z</time>
      </trkpt>
      <trkpt lat="43.47552" lon="2.39242">
        <ele>458.379</ele>
        <time>2021-05-23T08:39:27Z</time>
      </trkpt>
      <trkpt lat="43.47548" lon="2.39234">
        <ele>461.398</ele>
        <time>2021-05-23T08:39:34Z</time>
      </trkpt>
      <trkpt lat="43.47546" lon="2.39228">
        <ele>459.616</ele>
        <time>2021-05-23T08:39:41Z</time>
      </trkpt>
      <trkpt lat="43.47545" lon="2.39228">
        <ele>459.366</ele>
        <time>2021-05-23T08:39:43Z</time>
      </trkpt>
      <trkpt lat="43.47546" lon="2.39228">
        <ele>459.289</ele>
        <time>2021-05-23T08:39:45Z</time>
      </trkpt>
      <trkpt lat="43.47546" lon="2.39228">
        <ele>459.29</ele>
        <time>2021-05-23T08:39:47Z</time>
      </trkpt>
      <trkpt lat="43.47546" lon="2.39228">
        <ele>459.072</ele>
        <time>2021-05-23T08:39:49Z</time>
      </trkpt>
      <trkpt lat="43.47546" lon="2.39228">
        <ele>459.051</ele>
        <time>2021-05-23T08:39:51Z</time>
      </trkpt>
      <trkpt lat="43.47546" lon="2.39228">
        <ele>459.046</ele>
        <time>2021-05-23T08:39:53Z</time>
      </trkpt>
      <trkpt lat="43.47546" lon="2.39228">
        <ele>459.041</ele>
        <time>2021-05-23T08:39:55Z</time>
      </trkpt>
      <trkpt lat="43.47546" lon="2.39228">
        <ele>459.044</ele>
        <time>2021-05-23T08:39:57Z</time>
      </trkpt>
      <trkpt lat="43.47546" lon="2.39228">
        <ele>459.038</ele>
        <time>2021-05-23T08:39:59Z</time>
      </trkpt>
      <trkpt lat="43.47546" lon="2.39228">
        <ele>459.046</ele>
        <time>2021-05-23T08:40:01Z</time>
      </trkpt>
      <trkpt lat="43.47546" lon="2.39228">
        <ele>459.057</ele>
        <time>2021-05-23T08:40:03Z</time>
      </trkpt>
      <trkpt lat="43.47546" lon="2.39227">
        <ele>459.07</ele>
        <time>2021-05-23T08:40:05Z</time>
      </trkpt>
      <trkpt lat="43.47546" lon="2.39227">
        <ele>459.067</ele>
        <time>2021-05-23T08:40:07Z</time>
      </trkpt>
      <trkpt lat="43.47546" lon="2.39227">
        <ele>459.06</ele>
        <time>2021-05-23T08:40:09Z</time>
      </trkpt>
      <trkpt lat="43.47546" lon="2.39227">
        <ele>459.061</ele>
        <time>2021-05-23T08:40:11Z</time>
      </trkpt>
      <trkpt lat="43.47546" lon="2.39227">
        <ele>459.068</ele>
        <time>2021-05-23T08:40:13Z</time>
      </trkpt>
      <trkpt lat="43.47546" lon="2.39227">
        <ele>459.068</ele>
        <time>2021-05-23T08:40:15Z</time>
      </trkpt>
      <trkpt lat="43.47546" lon="2.39227">
        <ele>459.078</ele>
        <time>2021-05-23T08:40:17Z</time>
      </trkpt>
      <trkpt lat="43.47546" lon="2.39227">
        <ele>459.076</ele>
        <time>2021-05-23T08:40:19Z</time>
      </trkpt>
      <trkpt lat="43.47545" lon="2.39227">
        <ele>458.86</ele>
        <time>2021-05-23T08:40:21Z</time>
      </trkpt>
      <trkpt lat="43.47545" lon="2.39227">
        <ele>458.803</ele>
        <time>2021-05-23T08:40:23Z</time>
      </trkpt>
      <trkpt lat="43.47545" lon="2.39227">
        <ele>458.801</ele>
        <time>2021-05-23T08:40:25Z</time>
      </trkpt>
      <trkpt lat="43.47545" lon="2.39227">
        <ele>458.784</ele>
        <time>2021-05-23T08:40:27Z</time>
      </trkpt>
      <trkpt lat="43.47545" lon="2.39227">
        <ele>458.772</ele>
        <time>2021-05-23T08:40:29Z</time>
      </trkpt>
      <trkpt lat="43.47545" lon="2.39227">
        <ele>458.775</ele>
        <time>2021-05-23T08:40:31Z</time>
      </trkpt>
      <trkpt lat="43.47545" lon="2.39227">
        <ele>458.763</ele>
        <time>2021-05-23T08:40:33Z</time>
      </trkpt>
      <trkpt lat="43.47545" lon="2.39227">
        <ele>458.755</ele>
        <time>2021-05-23T08:40:35Z</time>
      </trkpt>
      <trkpt lat="43.47545" lon="2.39227">
        <ele>458.747</ele>
        <time>2021-05-23T08:40:37Z</time>
      </trkpt>
      <trkpt lat="43.47545" lon="2.39227">
        <ele>458.734</ele>
        <time>2021-05-23T08:40:39Z</time>
      </trkpt>
      <trkpt lat="43.47545" lon="2.39227">
        <ele>458.739</ele>
        <time>2021-05-23T08:40:41Z</time>
      </trkpt>
      <trkpt lat="43.47545" lon="2.39227">
        <ele>458.719</ele>
        <time>2021-05-23T08:40:43Z</time>
      </trkpt>
      <trkpt lat="43.47545" lon="2.39227">
        <ele>458.704</ele>
        <time>2021-05-23T08:40:45Z</time>
      </trkpt>
      <trkpt lat="43.47545" lon="2.39227">
        <ele>458.688</ele>
        <time>2021-05-23T08:40:47Z</time>
      </trkpt>
      <trkpt lat="43.47545" lon="2.39227">
        <ele>458.688</ele>
        <time>2021-05-23T08:40:49Z</time>
      </trkpt>
      <trkpt lat="43.47545" lon="2.39227">
        <ele>458.688</ele>
        <time>2021-05-23T08:40:51Z</time>
      </trkpt>
      <trkpt lat="43.47545" lon="2.39227">
        <ele>458.689</ele>
        <time>2021-05-23T08:40:53Z</time>
      </trkpt>
      <trkpt lat="43.47545" lon="2.39227">
        <ele>458.691</ele>
        <time>2021-05-23T08:40:55Z</time>
      </trkpt>
      <trkpt lat="43.47545" lon="2.39227">
        <ele>458.691</ele>
        <time>2021-05-23T08:40:57Z</time>
      </trkpt>
      <trkpt lat="43.47545" lon="2.39227">
        <ele>458.676</ele>
        <time>2021-05-23T08:40:59Z</time>
      </trkpt>
      <trkpt lat="43.47545" lon="2.39227">
        <ele>458.677</ele>
        <time>2021-05-23T08:41:01Z</time>
      </trkpt>
      <trkpt lat="43.47545" lon="2.39227">
        <ele>458.133</ele>
        <time>2021-05-23T08:41:03Z</time>
      </trkpt>
      <trkpt lat="43.47545" lon="2.39227">
        <ele>458.099</ele>
        <time>2021-05-23T08:41:05Z</time>
      </trkpt>
      <trkpt lat="43.47545" lon="2.39227">
        <ele>458.105</ele>
        <time>2021-05-23T08:41:07Z</time>
      </trkpt>
      <trkpt lat="43.47545" lon="2.39227">
        <ele>458.103</ele>
        <time>2021-05-23T08:41:09Z</time>
      </trkpt>
      <trkpt lat="43.47545" lon="2.39227">
        <ele>457.955</ele>
        <time>2021-05-23T08:41:11Z</time>
      </trkpt>
      <trkpt lat="43.47545" lon="2.39227">
        <ele>458.453</ele>
        <time>2021-05-23T08:41:13Z</time>
      </trkpt>
      <trkpt lat="43.47545" lon="2.39226">
        <ele>458.497</ele>
        <time>2021-05-23T08:41:15Z</time>
      </trkpt>
      <trkpt lat="43.47544" lon="2.39226">
        <ele>458.591</ele>
        <time>2021-05-23T08:41:17Z</time>
      </trkpt>
      <trkpt lat="43.47544" lon="2.39226">
        <ele>458.584</ele>
        <time>2021-05-23T08:41:19Z</time>
      </trkpt>
      <trkpt lat="43.47544" lon="2.39226">
        <ele>458.581</ele>
        <time>2021-05-23T08:41:21Z</time>
      </trkpt>
      <trkpt lat="43.47544" lon="2.39226">
        <ele>458.571</ele>
        <time>2021-05-23T08:41:23Z</time>
      </trkpt>
      <trkpt lat="43.47544" lon="2.39226">
        <ele>458.575</ele>
        <time>2021-05-23T08:41:25Z</time>
      </trkpt>
      <trkpt lat="43.47544" lon="2.39226">
        <ele>458.764</ele>
        <time>2021-05-23T08:41:27Z</time>
      </trkpt>
      <trkpt lat="43.47544" lon="2.39226">
        <ele>458.798</ele>
        <time>2021-05-23T08:41:29Z</time>
      </trkpt>
      <trkpt lat="43.47544" lon="2.39225">
        <ele>458.754</ele>
        <time>2021-05-23T08:41:31Z</time>
      </trkpt>
      <trkpt lat="43.47544" lon="2.39225">
        <ele>458.747</ele>
        <time>2021-05-23T08:41:33Z</time>
      </trkpt>
      <trkpt lat="43.47543" lon="2.39225">
        <ele>458.736</ele>
        <time>2021-05-23T08:41:35Z</time>
      </trkpt>
      <trkpt lat="43.47543" lon="2.39225">
        <ele>458.737</ele>
        <time>2021-05-23T08:41:37Z</time>
      </trkpt>
      <trkpt lat="43.47543" lon="2.39225">
        <ele>458.634</ele>
        <time>2021-05-23T08:41:39Z</time>
      </trkpt>
      <trkpt lat="43.47544" lon="2.39225">
        <ele>458.256</ele>
        <time>2021-05-23T08:41:41Z</time>
      </trkpt>
      <trkpt lat="43.47543" lon="2.39224">
        <ele>458.57</ele>
        <time>2021-05-23T08:41:43Z</time>
      </trkpt>
      <trkpt lat="43.47543" lon="2.39224">
        <ele>457.987</ele>
        <time>2021-05-23T08:41:45Z</time>
      </trkpt>
      <trkpt lat="43.47543" lon="2.39225">
        <ele>457.709</ele>
        <time>2021-05-23T08:41:47Z</time>
      </trkpt>
      <trkpt lat="43.47543" lon="2.39226">
        <ele>459.468</ele>
        <time>2021-05-23T08:41:49Z</time>
      </trkpt>
      <trkpt lat="43.47543" lon="2.39226">
        <ele>459.563</ele>
        <time>2021-05-23T08:41:51Z</time>
      </trkpt>
      <trkpt lat="43.47544" lon="2.39226">
        <ele>459.804</ele>
        <time>2021-05-23T08:41:53Z</time>
      </trkpt>
      <trkpt lat="43.47545" lon="2.39226">
        <ele>460.672</ele>
        <time>2021-05-23T08:41:55Z</time>
      </trkpt>
      <trkpt lat="43.47545" lon="2.39226">
        <ele>460.667</ele>
        <time>2021-05-23T08:41:57Z</time>
      </trkpt>
      <trkpt lat="43.47545" lon="2.39226">
        <ele>460.937</ele>
        <time>2021-05-23T08:41:59Z</time>
      </trkpt>
      <trkpt lat="43.47545" lon="2.39225">
        <ele>460.373</ele>
        <time>2021-05-23T08:42:01Z</time>
      </trkpt>
      <trkpt lat="43.47544" lon="2.39223">
        <ele>461.158</ele>
        <time>2021-05-23T08:42:03Z</time>
      </trkpt>
      <trkpt lat="43.47542" lon="2.39219">
        <ele>461.405</ele>
        <time>2021-05-23T08:42:09Z</time>
      </trkpt>
      <trkpt lat="43.47542" lon="2.39218">
        <ele>461.209</ele>
        <time>2021-05-23T08:42:11Z</time>
      </trkpt>
      <trkpt lat="43.47542" lon="2.39218">
        <ele>461.211</ele>
        <time>2021-05-23T08:42:13Z</time>
      </trkpt>
      <trkpt lat="43.47542" lon="2.39218">
        <ele>461.216</ele>
        <time>2021-05-23T08:42:15Z</time>
      </trkpt>
      <trkpt lat="43.47542" lon="2.39218">
        <ele>461.212</ele>
        <time>2021-05-23T08:42:17Z</time>
      </trkpt>
      <trkpt lat="43.47542" lon="2.39218">
        <ele>461.137</ele>
        <time>2021-05-23T08:42:19Z</time>
      </trkpt>
      <trkpt lat="43.47542" lon="2.39218">
        <ele>461.104</ele>
        <time>2021-05-23T08:42:21Z</time>
      </trkpt>
      <trkpt lat="43.47543" lon="2.39219">
        <ele>461.564</ele>
        <time>2021-05-23T08:42:23Z</time>
      </trkpt>
      <trkpt lat="43.47543" lon="2.39219">
        <ele>461.807</ele>
        <time>2021-05-23T08:42:25Z</time>
      </trkpt>
      <trkpt lat="43.47543" lon="2.39218">
        <ele>462.022</ele>
        <time>2021-05-23T08:42:27Z</time>
      </trkpt>
      <trkpt lat="43.47543" lon="2.39219">
        <ele>462.022</ele>
        <time>2021-05-23T08:42:29Z</time>
      </trkpt>
      <trkpt lat="43.47543" lon="2.39219">
        <ele>462.029</ele>
        <time>2021-05-23T08:42:31Z</time>
      </trkpt>
      <trkpt lat="43.47543" lon="2.39219">
        <ele>462.036</ele>
        <time>2021-05-23T08:42:33Z</time>
      </trkpt>
      <trkpt lat="43.47543" lon="2.39219">
        <ele>462.037</ele>
        <time>2021-05-23T08:42:35Z</time>
      </trkpt>
      <trkpt lat="43.47543" lon="2.39219">
        <ele>462.045</ele>
        <time>2021-05-23T08:42:37Z</time>
      </trkpt>
      <trkpt lat="43.47543" lon="2.39219">
        <ele>462.045</ele>
        <time>2021-05-23T08:42:39Z</time>
      </trkpt>
      <trkpt lat="43.47543" lon="2.39219">
        <ele>462.046</ele>
        <time>2021-05-23T08:42:41Z</time>
      </trkpt>
      <trkpt lat="43.47543" lon="2.39219">
        <ele>462.049</ele>
        <time>2021-05-23T08:42:43Z</time>
      </trkpt>
      <trkpt lat="43.47543" lon="2.39219">
        <ele>462.057</ele>
        <time>2021-05-23T08:42:45Z</time>
      </trkpt>
      <trkpt lat="43.47543" lon="2.39219">
        <ele>462.06</ele>
        <time>2021-05-23T08:42:47Z</time>
      </trkpt>
      <trkpt lat="43.47543" lon="2.39219">
        <ele>462.063</ele>
        <time>2021-05-23T08:42:49Z</time>
      </trkpt>
      <trkpt lat="43.47543" lon="2.39219">
        <ele>462.063</ele>
        <time>2021-05-23T08:42:51Z</time>
      </trkpt>
      <trkpt lat="43.47543" lon="2.39219">
        <ele>462.061</ele>
        <time>2021-05-23T08:42:53Z</time>
      </trkpt>
      <trkpt lat="43.47543" lon="2.39219">
        <ele>462.056</ele>
        <time>2021-05-23T08:42:55Z</time>
      </trkpt>
      <trkpt lat="43.47543" lon="2.39219">
        <ele>462.055</ele>
        <time>2021-05-23T08:42:57Z</time>
      </trkpt>
      <trkpt lat="43.47543" lon="2.39219">
        <ele>462.057</ele>
        <time>2021-05-23T08:42:59Z</time>
      </trkpt>
      <trkpt lat="43.47543" lon="2.39219">
        <ele>462.06</ele>
        <time>2021-05-23T08:43:01Z</time>
      </trkpt>
      <trkpt lat="43.47543" lon="2.39219">
        <ele>462.061</ele>
        <time>2021-05-23T08:43:03Z</time>
      </trkpt>
      <trkpt lat="43.47543" lon="2.39219">
        <ele>462.061</ele>
        <time>2021-05-23T08:43:05Z</time>
      </trkpt>
      <trkpt lat="43.47543" lon="2.39219">
        <ele>462.062</ele>
        <time>2021-05-23T08:43:07Z</time>
      </trkpt>
      <trkpt lat="43.47542" lon="2.39219">
        <ele>462.125</ele>
        <time>2021-05-23T08:43:09Z</time>
      </trkpt>
      <trkpt lat="43.47542" lon="2.39219">
        <ele>462.407</ele>
        <time>2021-05-23T08:43:11Z</time>
      </trkpt>
      <trkpt lat="43.47542" lon="2.39219">
        <ele>462.453</ele>
        <time>2021-05-23T08:43:13Z</time>
      </trkpt>
      <trkpt lat="43.47542" lon="2.39219">
        <ele>462.456</ele>
        <time>2021-05-23T08:43:15Z</time>
      </trkpt>
      <trkpt lat="43.47542" lon="2.39219">
        <ele>462.464</ele>
        <time>2021-05-23T08:43:17Z</time>
      </trkpt>
      <trkpt lat="43.47542" lon="2.39219">
        <ele>462.904</ele>
        <time>2021-05-23T08:43:19Z</time>
      </trkpt>
      <trkpt lat="43.47542" lon="2.3922">
        <ele>462.018</ele>
        <time>2021-05-23T08:43:21Z</time>
      </trkpt>
      <trkpt lat="43.47542" lon="2.3922">
        <ele>462.065</ele>
        <time>2021-05-23T08:43:23Z</time>
      </trkpt>
      <trkpt lat="43.47541" lon="2.3922">
        <ele>462.065</ele>
        <time>2021-05-23T08:43:25Z</time>
      </trkpt>
      <trkpt lat="43.47541" lon="2.3922">
        <ele>462.074</ele>
        <time>2021-05-23T08:43:27Z</time>
      </trkpt>
      <trkpt lat="43.47541" lon="2.3922">
        <ele>462.084</ele>
        <time>2021-05-23T08:43:29Z</time>
      </trkpt>
      <trkpt lat="43.47541" lon="2.3922">
        <ele>462.079</ele>
        <time>2021-05-23T08:43:31Z</time>
      </trkpt>
      <trkpt lat="43.47541" lon="2.3922">
        <ele>462.077</ele>
        <time>2021-05-23T08:43:33Z</time>
      </trkpt>
      <trkpt lat="43.47541" lon="2.3922">
        <ele>462.068</ele>
        <time>2021-05-23T08:43:35Z</time>
      </trkpt>
      <trkpt lat="43.47541" lon="2.39221">
        <ele>462.388</ele>
        <time>2021-05-23T08:43:37Z</time>
      </trkpt>
      <trkpt lat="43.47542" lon="2.39221">
        <ele>462.595</ele>
        <time>2021-05-23T08:43:39Z</time>
      </trkpt>
      <trkpt lat="43.47543" lon="2.39221">
        <ele>463.347</ele>
        <time>2021-05-23T08:43:41Z</time>
      </trkpt>
      <trkpt lat="43.47542" lon="2.39222">
        <ele>463.407</ele>
        <time>2021-05-23T08:43:43Z</time>
      </trkpt>
      <trkpt lat="43.47542" lon="2.39222">
        <ele>463.267</ele>
        <time>2021-05-23T08:43:45Z</time>
      </trkpt>
      <trkpt lat="43.47542" lon="2.39222">
        <ele>463.266</ele>
        <time>2021-05-23T08:43:47Z</time>
      </trkpt>
      <trkpt lat="43.47542" lon="2.39222">
        <ele>463.269</ele>
        <time>2021-05-23T08:43:49Z</time>
      </trkpt>
      <trkpt lat="43.47542" lon="2.39222">
        <ele>463.263</ele>
        <time>2021-05-23T08:43:51Z</time>
      </trkpt>
      <trkpt lat="43.47542" lon="2.39222">
        <ele>463.266</ele>
        <time>2021-05-23T08:43:53Z</time>
      </trkpt>
      <trkpt lat="43.47542" lon="2.39222">
        <ele>463.293</ele>
        <time>2021-05-23T08:43:55Z</time>
      </trkpt>
      <trkpt lat="43.47542" lon="2.39222">
        <ele>463.328</ele>
        <time>2021-05-23T08:43:57Z</time>
      </trkpt>
      <trkpt lat="43.47542" lon="2.39222">
        <ele>463.344</ele>
        <time>2021-05-23T08:43:59Z</time>
      </trkpt>
      <trkpt lat="43.47543" lon="2.39222">
        <ele>462.846</ele>
        <time>2021-05-23T08:44:01Z</time>
      </trkpt>
      <trkpt lat="43.47543" lon="2.39222">
        <ele>463.103</ele>
        <time>2021-05-23T08:44:03Z</time>
      </trkpt>
      <trkpt lat="43.47544" lon="2.39222">
        <ele>463.225</ele>
        <time>2021-05-23T08:44:06Z</time>
      </trkpt>
      <trkpt lat="43.47544" lon="2.39222">
        <ele>463.226</ele>
        <time>2021-05-23T08:44:08Z</time>
      </trkpt>
      <trkpt lat="43.47544" lon="2.39222">
        <ele>463.211</ele>
        <time>2021-05-23T08:44:10Z</time>
      </trkpt>
      <trkpt lat="43.47544" lon="2.39222">
        <ele>463.216</ele>
        <time>2021-05-23T08:44:12Z</time>
      </trkpt>
      <trkpt lat="43.47544" lon="2.39222">
        <ele>463.201</ele>
        <time>2021-05-23T08:44:14Z</time>
      </trkpt>
      <trkpt lat="43.47544" lon="2.39222">
        <ele>463.195</ele>
        <time>2021-05-23T08:44:16Z</time>
      </trkpt>
      <trkpt lat="43.47544" lon="2.39222">
        <ele>463.194</ele>
        <time>2021-05-23T08:44:18Z</time>
      </trkpt>
      <trkpt lat="43.47544" lon="2.39222">
        <ele>463.19</ele>
        <time>2021-05-23T08:44:20Z</time>
      </trkpt>
      <trkpt lat="43.47544" lon="2.39222">
        <ele>463.182</ele>
        <time>2021-05-23T08:44:22Z</time>
      </trkpt>
      <trkpt lat="43.47544" lon="2.39222">
        <ele>463.172</ele>
        <time>2021-05-23T08:44:24Z</time>
      </trkpt>
      <trkpt lat="43.47544" lon="2.39222">
        <ele>463.165</ele>
        <time>2021-05-23T08:44:26Z</time>
      </trkpt>
      <trkpt lat="43.47544" lon="2.39222">
        <ele>463.169</ele>
        <time>2021-05-23T08:44:28Z</time>
      </trkpt>
      <trkpt lat="43.47544" lon="2.39222">
        <ele>463.166</ele>
        <time>2021-05-23T08:44:30Z</time>
      </trkpt>
      <trkpt lat="43.47544" lon="2.39222">
        <ele>463.165</ele>
        <time>2021-05-23T08:44:32Z</time>
      </trkpt>
      <trkpt lat="43.47544" lon="2.39222">
        <ele>463.153</ele>
        <time>2021-05-23T08:44:34Z</time>
      </trkpt>
      <trkpt lat="43.47544" lon="2.39222">
        <ele>463.163</ele>
        <time>2021-05-23T08:44:36Z</time>
      </trkpt>
      <trkpt lat="43.47544" lon="2.39222">
        <ele>463.162</ele>
        <time>2021-05-23T08:44:38Z</time>
      </trkpt>
      <trkpt lat="43.47544" lon="2.39222">
        <ele>463.168</ele>
        <time>2021-05-23T08:44:40Z</time>
      </trkpt>
      <trkpt lat="43.47544" lon="2.39222">
        <ele>463.178</ele>
        <time>2021-05-23T08:44:42Z</time>
      </trkpt>
      <trkpt lat="43.47544" lon="2.39222">
        <ele>463.18</ele>
        <time>2021-05-23T08:44:44Z</time>
      </trkpt>
      <trkpt lat="43.47544" lon="2.39222">
        <ele>463.181</ele>
        <time>2021-05-23T08:44:46Z</time>
      </trkpt>
      <trkpt lat="43.47544" lon="2.39222">
        <ele>463.184</ele>
        <time>2021-05-23T08:44:48Z</time>
      </trkpt>
      <trkpt lat="43.47544" lon="2.39222">
        <ele>463.183</ele>
        <time>2021-05-23T08:44:50Z</time>
      </trkpt>
      <trkpt lat="43.47544" lon="2.39222">
        <ele>463.186</ele>
        <time>2021-05-23T08:44:52Z</time>
      </trkpt>
      <trkpt lat="43.47545" lon="2.39222">
        <ele>463.187</ele>
        <time>2021-05-23T08:44:54Z</time>
      </trkpt>
      <trkpt lat="43.47545" lon="2.39222">
        <ele>463.188</ele>
        <time>2021-05-23T08:44:56Z</time>
      </trkpt>
      <trkpt lat="43.47545" lon="2.39221">
        <ele>462.537</ele>
        <time>2021-05-23T08:44:58Z</time>
      </trkpt>
      <trkpt lat="43.47546" lon="2.39221">
        <ele>462.837</ele>
        <time>2021-05-23T08:45:00Z</time>
      </trkpt>
      <trkpt lat="43.47547" lon="2.3922">
        <ele>462.592</ele>
        <time>2021-05-23T08:45:02Z</time>
      </trkpt>
      <trkpt lat="43.47547" lon="2.3922">
        <ele>462.347</ele>
        <time>2021-05-23T08:45:04Z</time>
      </trkpt>
      <trkpt lat="43.47547" lon="2.3922">
        <ele>462.127</ele>
        <time>2021-05-23T08:45:06Z</time>
      </trkpt>
      <trkpt lat="43.47547" lon="2.3922">
        <ele>462.126</ele>
        <time>2021-05-23T08:45:08Z</time>
      </trkpt>
      <trkpt lat="43.47547" lon="2.3922">
        <ele>462.126</ele>
        <time>2021-05-23T08:45:10Z</time>
      </trkpt>
      <trkpt lat="43.47548" lon="2.39221">
        <ele>462.28</ele>
        <time>2021-05-23T08:45:12Z</time>
      </trkpt>
      <trkpt lat="43.47549" lon="2.39221">
        <ele>462.305</ele>
        <time>2021-05-23T08:45:14Z</time>
      </trkpt>
      <trkpt lat="43.47549" lon="2.39221">
        <ele>462.661</ele>
        <time>2021-05-23T08:45:16Z</time>
      </trkpt>
      <trkpt lat="43.4755" lon="2.39222">
        <ele>462.579</ele>
        <time>2021-05-23T08:45:18Z</time>
      </trkpt>
      <trkpt lat="43.47551" lon="2.39223">
        <ele>463.154</ele>
        <time>2021-05-23T08:45:20Z</time>
      </trkpt>
      <trkpt lat="43.47551" lon="2.39224">
        <ele>463.255</ele>
        <time>2021-05-23T08:45:22Z</time>
      </trkpt>
      <trkpt lat="43.47551" lon="2.39226">
        <ele>463.277</ele>
        <time>2021-05-23T08:45:24Z</time>
      </trkpt>
      <trkpt lat="43.47552" lon="2.39226">
        <ele>463.359</ele>
        <time>2021-05-23T08:45:26Z</time>
      </trkpt>
      <trkpt lat="43.47552" lon="2.39227">
        <ele>463.362</ele>
        <time>2021-05-23T08:45:28Z</time>
      </trkpt>
      <trkpt lat="43.47552" lon="2.39227">
        <ele>463.364</ele>
        <time>2021-05-23T08:45:30Z</time>
      </trkpt>
      <trkpt lat="43.47552" lon="2.39227">
        <ele>463.365</ele>
        <time>2021-05-23T08:45:32Z</time>
      </trkpt>
      <trkpt lat="43.47552" lon="2.39227">
        <ele>463.365</ele>
        <time>2021-05-23T08:45:34Z</time>
      </trkpt>
      <trkpt lat="43.47552" lon="2.39227">
        <ele>463.373</ele>
        <time>2021-05-23T08:45:36Z</time>
      </trkpt>
      <trkpt lat="43.47552" lon="2.39227">
        <ele>463.36</ele>
        <time>2021-05-23T08:45:38Z</time>
      </trkpt>
      <trkpt lat="43.47552" lon="2.39228">
        <ele>463.328</ele>
        <time>2021-05-23T08:45:40Z</time>
      </trkpt>
      <trkpt lat="43.47552" lon="2.39229">
        <ele>463.415</ele>
        <time>2021-05-23T08:45:42Z</time>
      </trkpt>
      <trkpt lat="43.47552" lon="2.39231">
        <ele>464.088</ele>
        <time>2021-05-23T08:45:44Z</time>
      </trkpt>
      <trkpt lat="43.47552" lon="2.39231">
        <ele>464.089</ele>
        <time>2021-05-23T08:45:46Z</time>
      </trkpt>
      <trkpt lat="43.47551" lon="2.39231">
        <ele>464.095</ele>
        <time>2021-05-23T08:45:48Z</time>
      </trkpt>
      <trkpt lat="43.47551" lon="2.39232">
        <ele>464.096</ele>
        <time>2021-05-23T08:45:50Z</time>
      </trkpt>
      <trkpt lat="43.47551" lon="2.39232">
        <ele>464.098</ele>
        <time>2021-05-23T08:45:52Z</time>
      </trkpt>
      <trkpt lat="43.47551" lon="2.39232">
        <ele>464.103</ele>
        <time>2021-05-23T08:45:54Z</time>
      </trkpt>
      <trkpt lat="43.47551" lon="2.39232">
        <ele>464.106</ele>
        <time>2021-05-23T08:45:56Z</time>
      </trkpt>
      <trkpt lat="43.47551" lon="2.39232">
        <ele>464.119</ele>
        <time>2021-05-23T08:45:58Z</time>
      </trkpt>
      <trkpt lat="43.47551" lon="2.39232">
        <ele>464.124</ele>
        <time>2021-05-23T08:46:00Z</time>
      </trkpt>
      <trkpt lat="43.47551" lon="2.39232">
        <ele>464.13</ele>
        <time>2021-05-23T08:46:02Z</time>
      </trkpt>
      <trkpt lat="43.47551" lon="2.39232">
        <ele>464.131</ele>
        <time>2021-05-23T08:46:04Z</time>
      </trkpt>
      <trkpt lat="43.47551" lon="2.39232">
        <ele>464.131</ele>
        <time>2021-05-23T08:46:06Z</time>
      </trkpt>
      <trkpt lat="43.47551" lon="2.39232">
        <ele>464.127</ele>
        <time>2021-05-23T08:46:08Z</time>
      </trkpt>
      <trkpt lat="43.47551" lon="2.39232">
        <ele>464.127</ele>
        <time>2021-05-23T08:46:10Z</time>
      </trkpt>
      <trkpt lat="43.47551" lon="2.39232">
        <ele>464.129</ele>
        <time>2021-05-23T08:46:12Z</time>
      </trkpt>
      <trkpt lat="43.47551" lon="2.39232">
        <ele>464.14</ele>
        <time>2021-05-23T08:46:14Z</time>
      </trkpt>
      <trkpt lat="43.47551" lon="2.39232">
        <ele>464.141</ele>
        <time>2021-05-23T08:46:16Z</time>
      </trkpt>
      <trkpt lat="43.47551" lon="2.39232">
        <ele>464.143</ele>
        <time>2021-05-23T08:46:18Z</time>
      </trkpt>
      <trkpt lat="43.47551" lon="2.39232">
        <ele>464.138</ele>
        <time>2021-05-23T08:46:20Z</time>
      </trkpt>
      <trkpt lat="43.47551" lon="2.39232">
        <ele>464.14</ele>
        <time>2021-05-23T08:46:22Z</time>
      </trkpt>
      <trkpt lat="43.47551" lon="2.39232">
        <ele>464.128</ele>
        <time>2021-05-23T08:46:24Z</time>
      </trkpt>
      <trkpt lat="43.47551" lon="2.39232">
        <ele>464.132</ele>
        <time>2021-05-23T08:46:26Z</time>
      </trkpt>
      <trkpt lat="43.47551" lon="2.39232">
        <ele>464.134</ele>
        <time>2021-05-23T08:46:28Z</time>
      </trkpt>
      <trkpt lat="43.47551" lon="2.39232">
        <ele>464.133</ele>
        <time>2021-05-23T08:46:30Z</time>
      </trkpt>
      <trkpt lat="43.47551" lon="2.39232">
        <ele>464.65</ele>
        <time>2021-05-23T08:46:32Z</time>
      </trkpt>
      <trkpt lat="43.47551" lon="2.39232">
        <ele>464.642</ele>
        <time>2021-05-23T08:46:34Z</time>
      </trkpt>
      <trkpt lat="43.47551" lon="2.39231">
        <ele>464.643</ele>
        <time>2021-05-23T08:46:36Z</time>
      </trkpt>
      <trkpt lat="43.47551" lon="2.39231">
        <ele>464.644</ele>
        <time>2021-05-23T08:46:38Z</time>
      </trkpt>
      <trkpt lat="43.47551" lon="2.39231">
        <ele>464.641</ele>
        <time>2021-05-23T08:46:40Z</time>
      </trkpt>
      <trkpt lat="43.47551" lon="2.39231">
        <ele>464.639</ele>
        <time>2021-05-23T08:46:42Z</time>
      </trkpt>
      <trkpt lat="43.47551" lon="2.39231">
        <ele>464.64</ele>
        <time>2021-05-23T08:46:44Z</time>
      </trkpt>
      <trkpt lat="43.47551" lon="2.39231">
        <ele>464.634</ele>
        <time>2021-05-23T08:46:46Z</time>
      </trkpt>
      <trkpt lat="43.47551" lon="2.39231">
        <ele>464.633</ele>
        <time>2021-05-23T08:46:48Z</time>
      </trkpt>
      <trkpt lat="43.47551" lon="2.39231">
        <ele>464.623</ele>
        <time>2021-05-23T08:46:50Z</time>
      </trkpt>
      <trkpt lat="43.47551" lon="2.39231">
        <ele>464.621</ele>
        <time>2021-05-23T08:46:52Z</time>
      </trkpt>
      <trkpt lat="43.47551" lon="2.39231">
        <ele>464.621</ele>
        <time>2021-05-23T08:46:54Z</time>
      </trkpt>
      <trkpt lat="43.47551" lon="2.39231">
        <ele>464.622</ele>
        <time>2021-05-23T08:46:56Z</time>
      </trkpt>
      <trkpt lat="43.47551" lon="2.39231">
        <ele>464.619</ele>
        <time>2021-05-23T08:46:58Z</time>
      </trkpt>
      <trkpt lat="43.47551" lon="2.39231">
        <ele>464.614</ele>
        <time>2021-05-23T08:47:00Z</time>
      </trkpt>
      <trkpt lat="43.47551" lon="2.39231">
        <ele>464.619</ele>
        <time>2021-05-23T08:47:02Z</time>
      </trkpt>
      <trkpt lat="43.47551" lon="2.39231">
        <ele>464.618</ele>
        <time>2021-05-23T08:47:04Z</time>
      </trkpt>
      <trkpt lat="43.47551" lon="2.39231">
        <ele>464.618</ele>
        <time>2021-05-23T08:47:06Z</time>
      </trkpt>
      <trkpt lat="43.47551" lon="2.39231">
        <ele>464.614</ele>
        <time>2021-05-23T08:47:08Z</time>
      </trkpt>
      <trkpt lat="43.47551" lon="2.39231">
        <ele>464.613</ele>
        <time>2021-05-23T08:47:10Z</time>
      </trkpt>
      <trkpt lat="43.47551" lon="2.39231">
        <ele>464.618</ele>
        <time>2021-05-23T08:47:12Z</time>
      </trkpt>
      <trkpt lat="43.47551" lon="2.39231">
        <ele>464.617</ele>
        <time>2021-05-23T08:47:14Z</time>
      </trkpt>
      <trkpt lat="43.47551" lon="2.39231">
        <ele>464.62</ele>
        <time>2021-05-23T08:47:16Z</time>
      </trkpt>
      <trkpt lat="43.47551" lon="2.39231">
        <ele>464.622</ele>
        <time>2021-05-23T08:47:18Z</time>
      </trkpt>
      <trkpt lat="43.47551" lon="2.39231">
        <ele>464.617</ele>
        <time>2021-05-23T08:47:20Z</time>
      </trkpt>
      <trkpt lat="43.47551" lon="2.39231">
        <ele>464.615</ele>
        <time>2021-05-23T08:47:22Z</time>
      </trkpt>
      <trkpt lat="43.47551" lon="2.39231">
        <ele>464.613</ele>
        <time>2021-05-23T08:47:24Z</time>
      </trkpt>
      <trkpt lat="43.47551" lon="2.39231">
        <ele>464.613</ele>
        <time>2021-05-23T08:47:26Z</time>
      </trkpt>
      <trkpt lat="43.47551" lon="2.39231">
        <ele>464.607</ele>
        <time>2021-05-23T08:47:28Z</time>
      </trkpt>
      <trkpt lat="43.47551" lon="2.39231">
        <ele>464.608</ele>
        <time>2021-05-23T08:47:30Z</time>
      </trkpt>
      <trkpt lat="43.47551" lon="2.39231">
        <ele>464.604</ele>
        <time>2021-05-23T08:47:32Z</time>
      </trkpt>
      <trkpt lat="43.47551" lon="2.39231">
        <ele>464.606</ele>
        <time>2021-05-23T08:47:34Z</time>
      </trkpt>
      <trkpt lat="43.47551" lon="2.39231">
        <ele>464.605</ele>
        <time>2021-05-23T08:47:36Z</time>
      </trkpt>
      <trkpt lat="43.47551" lon="2.39231">
        <ele>464.608</ele>
        <time>2021-05-23T08:47:38Z</time>
      </trkpt>
      <trkpt lat="43.47551" lon="2.39231">
        <ele>464.609</ele>
        <time>2021-05-23T08:47:40Z</time>
      </trkpt>
      <trkpt lat="43.47551" lon="2.39231">
        <ele>464.609</ele>
        <time>2021-05-23T08:47:42Z</time>
      </trkpt>
      <trkpt lat="43.47551" lon="2.39231">
        <ele>464.614</ele>
        <time>2021-05-23T08:47:44Z</time>
      </trkpt>
      <trkpt lat="43.47551" lon="2.39231">
        <ele>464.613</ele>
        <time>2021-05-23T08:47:46Z</time>
      </trkpt>
      <trkpt lat="43.47551" lon="2.39231">
        <ele>464.614</ele>
        <time>2021-05-23T08:47:48Z</time>
      </trkpt>
      <trkpt lat="43.47551" lon="2.39231">
        <ele>464.618</ele>
        <time>2021-05-23T08:47:50Z</time>
      </trkpt>
      <trkpt lat="43.47551" lon="2.39231">
        <ele>464.616</ele>
        <time>2021-05-23T08:47:52Z</time>
      </trkpt>
      <trkpt lat="43.47551" lon="2.39231">
        <ele>464.616</ele>
        <time>2021-05-23T08:47:54Z</time>
      </trkpt>
      <trkpt lat="43.47551" lon="2.39231">
        <ele>464.612</ele>
        <time>2021-05-23T08:47:56Z</time>
      </trkpt>
      <trkpt lat="43.47551" lon="2.39231">
        <ele>464.606</ele>
        <time>2021-05-23T08:47:58Z</time>
      </trkpt>
      <trkpt lat="43.47551" lon="2.39233">
        <ele>464.951</ele>
        <time>2021-05-23T08:48:00Z</time>
      </trkpt>
      <trkpt lat="43.47551" lon="2.39235">
        <ele>464.966</ele>
        <time>2021-05-23T08:48:02Z</time>
      </trkpt>
      <trkpt lat="43.47552" lon="2.39237">
        <ele>465.715</ele>
        <time>2021-05-23T08:48:04Z</time>
      </trkpt>
      <trkpt lat="43.47552" lon="2.3924">
        <ele>467.221</ele>
        <time>2021-05-23T08:48:06Z</time>
      </trkpt>
      <trkpt lat="43.47553" lon="2.39242">
        <ele>467.694</ele>
        <time>2021-05-23T08:48:08Z</time>
      </trkpt>
      <trkpt lat="43.47554" lon="2.39245">
        <ele>468.737</ele>
        <time>2021-05-23T08:48:10Z</time>
      </trkpt>
      <trkpt lat="43.47555" lon="2.39247">
        <ele>468.636</ele>
        <time>2021-05-23T08:48:12Z</time>
      </trkpt>
      <trkpt lat="43.47556" lon="2.39249">
        <ele>468.988</ele>
        <time>2021-05-23T08:48:14Z</time>
      </trkpt>
      <trkpt lat="43.47557" lon="2.39251">
        <ele>468.588</ele>
        <time>2021-05-23T08:48:16Z</time>
      </trkpt>
      <trkpt lat="43.47558" lon="2.39253">
        <ele>468.491</ele>
        <time>2021-05-23T08:48:18Z</time>
      </trkpt>
      <trkpt lat="43.47559" lon="2.39256">
        <ele>468.601</ele>
        <time>2021-05-23T08:48:20Z</time>
      </trkpt>
      <trkpt lat="43.47561" lon="2.39259">
        <ele>468.561</ele>
        <time>2021-05-23T08:48:22Z</time>
      </trkpt>
      <trkpt lat="43.47562" lon="2.39262">
        <ele>469.142</ele>
        <time>2021-05-23T08:48:24Z</time>
      </trkpt>
      <trkpt lat="43.47563" lon="2.39265">
        <ele>469.169</ele>
        <time>2021-05-23T08:48:26Z</time>
      </trkpt>
      <trkpt lat="43.47564" lon="2.39267">
        <ele>469.019</ele>
        <time>2021-05-23T08:48:28Z</time>
      </trkpt>
      <trkpt lat="43.47565" lon="2.3927">
        <ele>469.459</ele>
        <time>2021-05-23T08:48:30Z</time>
      </trkpt>
      <trkpt lat="43.47567" lon="2.39272">
        <ele>469.631</ele>
        <time>2021-05-23T08:48:32Z</time>
      </trkpt>
      <trkpt lat="43.47568" lon="2.39275">
        <ele>469.4</ele>
        <time>2021-05-23T08:48:34Z</time>
      </trkpt>
      <trkpt lat="43.47569" lon="2.39277">
        <ele>469.322</ele>
        <time>2021-05-23T08:48:36Z</time>
      </trkpt>
      <trkpt lat="43.4757" lon="2.39279">
        <ele>468.944</ele>
        <time>2021-05-23T08:48:38Z</time>
      </trkpt>
      <trkpt lat="43.47571" lon="2.39281">
        <ele>469.341</ele>
        <time>2021-05-23T08:48:40Z</time>
      </trkpt>
      <trkpt lat="43.47572" lon="2.39283">
        <ele>469.094</ele>
        <time>2021-05-23T08:48:42Z</time>
      </trkpt>
      <trkpt lat="43.47573" lon="2.39286">
        <ele>468.819</ele>
        <time>2021-05-23T08:48:44Z</time>
      </trkpt>
      <trkpt lat="43.47574" lon="2.39288">
        <ele>468.461</ele>
        <time>2021-05-23T08:48:46Z</time>
      </trkpt>
      <trkpt lat="43.47575" lon="2.39291">
        <ele>468.449</ele>
        <time>2021-05-23T08:48:48Z</time>
      </trkpt>
      <trkpt lat="43.47575" lon="2.39293">
        <ele>467.851</ele>
        <time>2021-05-23T08:48:50Z</time>
      </trkpt>
      <trkpt lat="43.47576" lon="2.39296">
        <ele>468.113</ele>
        <time>2021-05-23T08:48:52Z</time>
      </trkpt>
      <trkpt lat="43.47576" lon="2.393">
        <ele>469.697</ele>
        <time>2021-05-23T08:48:54Z</time>
      </trkpt>
      <trkpt lat="43.47576" lon="2.39302">
        <ele>470.303</ele>
        <time>2021-05-23T08:48:56Z</time>
      </trkpt>
      <trkpt lat="43.47577" lon="2.39305">
        <ele>470.387</ele>
        <time>2021-05-23T08:48:58Z</time>
      </trkpt>
      <trkpt lat="43.47579" lon="2.39305">
        <ele>470.485</ele>
        <time>2021-05-23T08:49:00Z</time>
      </trkpt>
      <trkpt lat="43.4758" lon="2.39303">
        <ele>470.81</ele>
        <time>2021-05-23T08:49:02Z</time>
      </trkpt>
      <trkpt lat="43.4758" lon="2.393">
        <ele>469.723</ele>
        <time>2021-05-23T08:49:04Z</time>
      </trkpt>
      <trkpt lat="43.47579" lon="2.39298">
        <ele>468.701</ele>
        <time>2021-05-23T08:49:06Z</time>
      </trkpt>
      <trkpt lat="43.47579" lon="2.39295">
        <ele>468.37</ele>
        <time>2021-05-23T08:49:08Z</time>
      </trkpt>
      <trkpt lat="43.47578" lon="2.39293">
        <ele>467.188</ele>
        <time>2021-05-23T08:49:10Z</time>
      </trkpt>
      <trkpt lat="43.47578" lon="2.3929">
        <ele>467.023</ele>
        <time>2021-05-23T08:49:12Z</time>
      </trkpt>
      <trkpt lat="43.47577" lon="2.39287">
        <ele>466.787</ele>
        <time>2021-05-23T08:49:14Z</time>
      </trkpt>
      <trkpt lat="43.47577" lon="2.39284">
        <ele>467.566</ele>
        <time>2021-05-23T08:49:16Z</time>
      </trkpt>
      <trkpt lat="43.47577" lon="2.39281">
        <ele>468.049</ele>
        <time>2021-05-23T08:49:18Z</time>
      </trkpt>
      <trkpt lat="43.47577" lon="2.39279">
        <ele>468.059</ele>
        <time>2021-05-23T08:49:20Z</time>
      </trkpt>
      <trkpt lat="43.47576" lon="2.39277">
        <ele>466.168</ele>
        <time>2021-05-23T08:49:22Z</time>
      </trkpt>
      <trkpt lat="43.47576" lon="2.39275">
        <ele>465.364</ele>
        <time>2021-05-23T08:49:24Z</time>
      </trkpt>
      <trkpt lat="43.47575" lon="2.39272">
        <ele>466.93</ele>
        <time>2021-05-23T08:49:26Z</time>
      </trkpt>
      <trkpt lat="43.47575" lon="2.39269">
        <ele>466.764</ele>
        <time>2021-05-23T08:49:28Z</time>
      </trkpt>
      <trkpt lat="43.47575" lon="2.39266">
        <ele>465.485</ele>
        <time>2021-05-23T08:49:30Z</time>
      </trkpt>
      <trkpt lat="43.47574" lon="2.39263">
        <ele>465.032</ele>
        <time>2021-05-23T08:49:32Z</time>
      </trkpt>
      <trkpt lat="43.47574" lon="2.39261">
        <ele>464.941</ele>
        <time>2021-05-23T08:49:34Z</time>
      </trkpt>
      <trkpt lat="43.47573" lon="2.39258">
        <ele>465.575</ele>
        <time>2021-05-23T08:49:36Z</time>
      </trkpt>
      <trkpt lat="43.47572" lon="2.39255">
        <ele>466.042</ele>
        <time>2021-05-23T08:49:38Z</time>
      </trkpt>
      <trkpt lat="43.47572" lon="2.39252">
        <ele>465.417</ele>
        <time>2021-05-23T08:49:40Z</time>
      </trkpt>
      <trkpt lat="43.47571" lon="2.39249">
        <ele>465.027</ele>
        <time>2021-05-23T08:49:42Z</time>
      </trkpt>
      <trkpt lat="43.4757" lon="2.39245">
        <ele>469.524</ele>
        <time>2021-05-23T08:49:44Z</time>
      </trkpt>
      <trkpt lat="43.47569" lon="2.39241">
        <ele>471.099</ele>
        <time>2021-05-23T08:49:46Z</time>
      </trkpt>
      <trkpt lat="43.47568" lon="2.39238">
        <ele>471.62</ele>
        <time>2021-05-23T08:49:48Z</time>
      </trkpt>
      <trkpt lat="43.47567" lon="2.39234">
        <ele>471.879</ele>
        <time>2021-05-23T08:49:50Z</time>
      </trkpt>
      <trkpt lat="43.47566" lon="2.3923">
        <ele>471.383</ele>
        <time>2021-05-23T08:49:52Z</time>
      </trkpt>
      <trkpt lat="43.47566" lon="2.39227">
        <ele>471.472</ele>
        <time>2021-05-23T08:49:54Z</time>
      </trkpt>
      <trkpt lat="43.47564" lon="2.39224">
        <ele>470.97</ele>
        <time>2021-05-23T08:49:56Z</time>
      </trkpt>
      <trkpt lat="43.47563" lon="2.39221">
        <ele>471.885</ele>
        <time>2021-05-23T08:49:58Z</time>
      </trkpt>
      <trkpt lat="43.47562" lon="2.39218">
        <ele>474.677</ele>
        <time>2021-05-23T08:50:00Z</time>
      </trkpt>
      <trkpt lat="43.47561" lon="2.39215">
        <ele>473.119</ele>
        <time>2021-05-23T08:50:02Z</time>
      </trkpt>
      <trkpt lat="43.47561" lon="2.39212">
        <ele>472.934</ele>
        <time>2021-05-23T08:50:04Z</time>
      </trkpt>
      <trkpt lat="43.4756" lon="2.3921">
        <ele>472.462</ele>
        <time>2021-05-23T08:50:06Z</time>
      </trkpt>
      <trkpt lat="43.47559" lon="2.39207">
        <ele>473.564</ele>
        <time>2021-05-23T08:50:08Z</time>
      </trkpt>
      <trkpt lat="43.47559" lon="2.39203">
        <ele>475.899</ele>
        <time>2021-05-23T08:50:10Z</time>
      </trkpt>
      <trkpt lat="43.47558" lon="2.39201">
        <ele>476.355</ele>
        <time>2021-05-23T08:50:12Z</time>
      </trkpt>
      <trkpt lat="43.47556" lon="2.39198">
        <ele>475.646</ele>
        <time>2021-05-23T08:50:14Z</time>
      </trkpt>
      <trkpt lat="43.47555" lon="2.39195">
        <ele>476.936</ele>
        <time>2021-05-23T08:50:16Z</time>
      </trkpt>
      <trkpt lat="43.47553" lon="2.39192">
        <ele>478.024</ele>
        <time>2021-05-23T08:50:18Z</time>
      </trkpt>
      <trkpt lat="43.47552" lon="2.39189">
        <ele>478.202</ele>
        <time>2021-05-23T08:50:20Z</time>
      </trkpt>
      <trkpt lat="43.47551" lon="2.39187">
        <ele>477.353</ele>
        <time>2021-05-23T08:50:22Z</time>
      </trkpt>
      <trkpt lat="43.4755" lon="2.39184">
        <ele>478.286</ele>
        <time>2021-05-23T08:50:24Z</time>
      </trkpt>
      <trkpt lat="43.47549" lon="2.39181">
        <ele>480.553</ele>
        <time>2021-05-23T08:50:26Z</time>
      </trkpt>
      <trkpt lat="43.47548" lon="2.39179">
        <ele>481.824</ele>
        <time>2021-05-23T08:50:28Z</time>
      </trkpt>
      <trkpt lat="43.47547" lon="2.39176">
        <ele>482.641</ele>
        <time>2021-05-23T08:50:30Z</time>
      </trkpt>
      <trkpt lat="43.47547" lon="2.39173">
        <ele>485.602</ele>
        <time>2021-05-23T08:50:32Z</time>
      </trkpt>
      <trkpt lat="43.47549" lon="2.39171">
        <ele>484.733</ele>
        <time>2021-05-23T08:50:34Z</time>
      </trkpt>
      <trkpt lat="43.47551" lon="2.39169">
        <ele>485.291</ele>
        <time>2021-05-23T08:50:36Z</time>
      </trkpt>
      <trkpt lat="43.47552" lon="2.3917">
        <ele>485.365</ele>
        <time>2021-05-23T08:50:38Z</time>
      </trkpt>
      <trkpt lat="43.47554" lon="2.39172">
        <ele>485.397</ele>
        <time>2021-05-23T08:50:40Z</time>
      </trkpt>
      <trkpt lat="43.47555" lon="2.39175">
        <ele>485.161</ele>
        <time>2021-05-23T08:50:42Z</time>
      </trkpt>
      <trkpt lat="43.47555" lon="2.39178">
        <ele>485.242</ele>
        <time>2021-05-23T08:50:44Z</time>
      </trkpt>
      <trkpt lat="43.47556" lon="2.39181">
        <ele>484.859</ele>
        <time>2021-05-23T08:50:46Z</time>
      </trkpt>
      <trkpt lat="43.47557" lon="2.39184">
        <ele>485.198</ele>
        <time>2021-05-23T08:50:48Z</time>
      </trkpt>
      <trkpt lat="43.47558" lon="2.39187">
        <ele>485.8</ele>
        <time>2021-05-23T08:50:50Z</time>
      </trkpt>
      <trkpt lat="43.47559" lon="2.39189">
        <ele>486.174</ele>
        <time>2021-05-23T08:50:52Z</time>
      </trkpt>
      <trkpt lat="43.47561" lon="2.39192">
        <ele>486.775</ele>
        <time>2021-05-23T08:50:54Z</time>
      </trkpt>
      <trkpt lat="43.47562" lon="2.39194">
        <ele>486.308</ele>
        <time>2021-05-23T08:50:56Z</time>
      </trkpt>
      <trkpt lat="43.47564" lon="2.39196">
        <ele>486.434</ele>
        <time>2021-05-23T08:50:58Z</time>
      </trkpt>
      <trkpt lat="43.47566" lon="2.39197">
        <ele>486.673</ele>
        <time>2021-05-23T08:51:00Z</time>
      </trkpt>
      <trkpt lat="43.47567" lon="2.39199">
        <ele>485.462</ele>
        <time>2021-05-23T08:51:02Z</time>
      </trkpt>
      <trkpt lat="43.47569" lon="2.392">
        <ele>485.803</ele>
        <time>2021-05-23T08:51:04Z</time>
      </trkpt>
      <trkpt lat="43.47571" lon="2.39203">
        <ele>485.907</ele>
        <time>2021-05-23T08:51:06Z</time>
      </trkpt>
      <trkpt lat="43.47572" lon="2.39205">
        <ele>486.355</ele>
        <time>2021-05-23T08:51:08Z</time>
      </trkpt>
      <trkpt lat="43.47573" lon="2.39208">
        <ele>486.963</ele>
        <time>2021-05-23T08:51:10Z</time>
      </trkpt>
      <trkpt lat="43.47574" lon="2.39211">
        <ele>487.518</ele>
        <time>2021-05-23T08:51:12Z</time>
      </trkpt>
      <trkpt lat="43.47576" lon="2.39214">
        <ele>487.485</ele>
        <time>2021-05-23T08:51:14Z</time>
      </trkpt>
      <trkpt lat="43.47577" lon="2.39217">
        <ele>488.516</ele>
        <time>2021-05-23T08:51:16Z</time>
      </trkpt>
      <trkpt lat="43.47578" lon="2.3922">
        <ele>489.57</ele>
        <time>2021-05-23T08:51:18Z</time>
      </trkpt>
      <trkpt lat="43.47578" lon="2.39223">
        <ele>488.878</ele>
        <time>2021-05-23T08:51:20Z</time>
      </trkpt>
      <trkpt lat="43.47578" lon="2.39227">
        <ele>489.701</ele>
        <time>2021-05-23T08:51:22Z</time>
      </trkpt>
      <trkpt lat="43.47579" lon="2.39229">
        <ele>489.709</ele>
        <time>2021-05-23T08:51:24Z</time>
      </trkpt>
      <trkpt lat="43.4758" lon="2.39232">
        <ele>489.383</ele>
        <time>2021-05-23T08:51:26Z</time>
      </trkpt>
      <trkpt lat="43.47581" lon="2.39235">
        <ele>489.318</ele>
        <time>2021-05-23T08:51:28Z</time>
      </trkpt>
      <trkpt lat="43.47582" lon="2.39237">
        <ele>489.401</ele>
        <time>2021-05-23T08:51:30Z</time>
      </trkpt>
      <trkpt lat="43.47584" lon="2.3924">
        <ele>489.387</ele>
        <time>2021-05-23T08:51:32Z</time>
      </trkpt>
      <trkpt lat="43.47585" lon="2.39242">
        <ele>489.429</ele>
        <time>2021-05-23T08:51:34Z</time>
      </trkpt>
      <trkpt lat="43.47587" lon="2.39245">
        <ele>490.553</ele>
        <time>2021-05-23T08:51:36Z</time>
      </trkpt>
      <trkpt lat="43.47588" lon="2.39249">
        <ele>491.919</ele>
        <time>2021-05-23T08:51:38Z</time>
      </trkpt>
      <trkpt lat="43.47589" lon="2.39253">
        <ele>491.887</ele>
        <time>2021-05-23T08:51:40Z</time>
      </trkpt>
      <trkpt lat="43.4759" lon="2.39255">
        <ele>490.64</ele>
        <time>2021-05-23T08:51:42Z</time>
      </trkpt>
      <trkpt lat="43.47591" lon="2.39258">
        <ele>490.526</ele>
        <time>2021-05-23T08:51:44Z</time>
      </trkpt>
      <trkpt lat="43.47592" lon="2.39262">
        <ele>491.123</ele>
        <time>2021-05-23T08:51:46Z</time>
      </trkpt>
      <trkpt lat="43.47593" lon="2.39264">
        <ele>491.052</ele>
        <time>2021-05-23T08:51:48Z</time>
      </trkpt>
      <trkpt lat="43.47594" lon="2.39267">
        <ele>491.177</ele>
        <time>2021-05-23T08:51:50Z</time>
      </trkpt>
      <trkpt lat="43.47595" lon="2.3927">
        <ele>490.987</ele>
        <time>2021-05-23T08:51:52Z</time>
      </trkpt>
      <trkpt lat="43.47596" lon="2.39272">
        <ele>490.518</ele>
        <time>2021-05-23T08:51:54Z</time>
      </trkpt>
      <trkpt lat="43.47598" lon="2.39275">
        <ele>489.654</ele>
        <time>2021-05-23T08:51:56Z</time>
      </trkpt>
      <trkpt lat="43.47599" lon="2.39278">
        <ele>490.529</ele>
        <time>2021-05-23T08:51:58Z</time>
      </trkpt>
      <trkpt lat="43.47599" lon="2.39281">
        <ele>491.67</ele>
        <time>2021-05-23T08:52:00Z</time>
      </trkpt>
      <trkpt lat="43.476" lon="2.39284">
        <ele>491.858</ele>
        <time>2021-05-23T08:52:02Z</time>
      </trkpt>
      <trkpt lat="43.47601" lon="2.39288">
        <ele>491.521</ele>
        <time>2021-05-23T08:52:04Z</time>
      </trkpt>
      <trkpt lat="43.47602" lon="2.39291">
        <ele>491.839</ele>
        <time>2021-05-23T08:52:06Z</time>
      </trkpt>
      <trkpt lat="43.47603" lon="2.39294">
        <ele>491.214</ele>
        <time>2021-05-23T08:52:08Z</time>
      </trkpt>
      <trkpt lat="43.47604" lon="2.39297">
        <ele>491.186</ele>
        <time>2021-05-23T08:52:10Z</time>
      </trkpt>
      <trkpt lat="43.47606" lon="2.393">
        <ele>491.311</ele>
        <time>2021-05-23T08:52:12Z</time>
      </trkpt>
      <trkpt lat="43.47607" lon="2.39302">
        <ele>490.625</ele>
        <time>2021-05-23T08:52:14Z</time>
      </trkpt>
      <trkpt lat="43.47608" lon="2.39304">
        <ele>490.737</ele>
        <time>2021-05-23T08:52:16Z</time>
      </trkpt>
      <trkpt lat="43.47609" lon="2.39308">
        <ele>491.309</ele>
        <time>2021-05-23T08:52:18Z</time>
      </trkpt>
      <trkpt lat="43.47611" lon="2.3931">
        <ele>491.047</ele>
        <time>2021-05-23T08:52:20Z</time>
      </trkpt>
      <trkpt lat="43.47612" lon="2.39313">
        <ele>492.494</ele>
        <time>2021-05-23T08:52:22Z</time>
      </trkpt>
      <trkpt lat="43.47613" lon="2.39317">
        <ele>493.581</ele>
        <time>2021-05-23T08:52:24Z</time>
      </trkpt>
      <trkpt lat="43.47614" lon="2.3932">
        <ele>494.483</ele>
        <time>2021-05-23T08:52:26Z</time>
      </trkpt>
      <trkpt lat="43.47615" lon="2.39322">
        <ele>494.372</ele>
        <time>2021-05-23T08:52:28Z</time>
      </trkpt>
      <trkpt lat="43.47616" lon="2.39325">
        <ele>494.24</ele>
        <time>2021-05-23T08:52:30Z</time>
      </trkpt>
      <trkpt lat="43.47615" lon="2.39329">
        <ele>495.187</ele>
        <time>2021-05-23T08:52:32Z</time>
      </trkpt>
      <trkpt lat="43.47614" lon="2.39332">
        <ele>494.888</ele>
        <time>2021-05-23T08:52:34Z</time>
      </trkpt>
      <trkpt lat="43.47614" lon="2.39334">
        <ele>494.832</ele>
        <time>2021-05-23T08:52:36Z</time>
      </trkpt>
      <trkpt lat="43.47613" lon="2.39338">
        <ele>495.394</ele>
        <time>2021-05-23T08:52:38Z</time>
      </trkpt>
      <trkpt lat="43.47612" lon="2.39342">
        <ele>495.57</ele>
        <time>2021-05-23T08:52:40Z</time>
      </trkpt>
      <trkpt lat="43.47612" lon="2.39347">
        <ele>495.936</ele>
        <time>2021-05-23T08:52:42Z</time>
      </trkpt>
      <trkpt lat="43.47613" lon="2.3935">
        <ele>496.239</ele>
        <time>2021-05-23T08:52:44Z</time>
      </trkpt>
      <trkpt lat="43.47613" lon="2.39352">
        <ele>496.017</ele>
        <time>2021-05-23T08:52:46Z</time>
      </trkpt>
      <trkpt lat="43.47613" lon="2.39355">
        <ele>496.068</ele>
        <time>2021-05-23T08:52:48Z</time>
      </trkpt>
      <trkpt lat="43.47612" lon="2.39357">
        <ele>496.417</ele>
        <time>2021-05-23T08:52:50Z</time>
      </trkpt>
      <trkpt lat="43.47613" lon="2.39359">
        <ele>497.198</ele>
        <time>2021-05-23T08:52:52Z</time>
      </trkpt>
      <trkpt lat="43.47615" lon="2.39363">
        <ele>495.476</ele>
        <time>2021-05-23T08:52:54Z</time>
      </trkpt>
      <trkpt lat="43.47615" lon="2.39366">
        <ele>496.328</ele>
        <time>2021-05-23T08:52:56Z</time>
      </trkpt>
      <trkpt lat="43.47615" lon="2.39369">
        <ele>498.241</ele>
        <time>2021-05-23T08:52:58Z</time>
      </trkpt>
      <trkpt lat="43.47614" lon="2.39372">
        <ele>498.633</ele>
        <time>2021-05-23T08:53:00Z</time>
      </trkpt>
      <trkpt lat="43.47614" lon="2.39375">
        <ele>499.061</ele>
        <time>2021-05-23T08:53:02Z</time>
      </trkpt>
      <trkpt lat="43.47614" lon="2.39378">
        <ele>499.604</ele>
        <time>2021-05-23T08:53:04Z</time>
      </trkpt>
      <trkpt lat="43.47613" lon="2.39383">
        <ele>500.587</ele>
        <time>2021-05-23T08:53:06Z</time>
      </trkpt>
      <trkpt lat="43.47612" lon="2.39386">
        <ele>500.979</ele>
        <time>2021-05-23T08:53:08Z</time>
      </trkpt>
      <trkpt lat="43.47611" lon="2.39388">
        <ele>501.658</ele>
        <time>2021-05-23T08:53:10Z</time>
      </trkpt>
      <trkpt lat="43.4761" lon="2.39391">
        <ele>503.089</ele>
        <time>2021-05-23T08:53:12Z</time>
      </trkpt>
      <trkpt lat="43.4761" lon="2.39394">
        <ele>502.705</ele>
        <time>2021-05-23T08:53:14Z</time>
      </trkpt>
      <trkpt lat="43.47609" lon="2.39398">
        <ele>502.726</ele>
        <time>2021-05-23T08:53:16Z</time>
      </trkpt>
      <trkpt lat="43.47608" lon="2.394">
        <ele>505.341</ele>
        <time>2021-05-23T08:53:18Z</time>
      </trkpt>
      <trkpt lat="43.47606" lon="2.39403">
        <ele>505.213</ele>
        <time>2021-05-23T08:53:20Z</time>
      </trkpt>
      <trkpt lat="43.47605" lon="2.39406">
        <ele>505.572</ele>
        <time>2021-05-23T08:53:22Z</time>
      </trkpt>
      <trkpt lat="43.47606" lon="2.39409">
        <ele>504.896</ele>
        <time>2021-05-23T08:53:24Z</time>
      </trkpt>
      <trkpt lat="43.47606" lon="2.39412">
        <ele>505.268</ele>
        <time>2021-05-23T08:53:26Z</time>
      </trkpt>
      <trkpt lat="43.47606" lon="2.39415">
        <ele>503.703</ele>
        <time>2021-05-23T08:53:28Z</time>
      </trkpt>
      <trkpt lat="43.47605" lon="2.39418">
        <ele>502.517</ele>
        <time>2021-05-23T08:53:30Z</time>
      </trkpt>
      <trkpt lat="43.47604" lon="2.39421">
        <ele>502.705</ele>
        <time>2021-05-23T08:53:32Z</time>
      </trkpt>
      <trkpt lat="43.47603" lon="2.39424">
        <ele>503.965</ele>
        <time>2021-05-23T08:53:34Z</time>
      </trkpt>
      <trkpt lat="43.47602" lon="2.39427">
        <ele>503.694</ele>
        <time>2021-05-23T08:53:36Z</time>
      </trkpt>
      <trkpt lat="43.47601" lon="2.39429">
        <ele>504.125</ele>
        <time>2021-05-23T08:53:38Z</time>
      </trkpt>
      <trkpt lat="43.476" lon="2.39432">
        <ele>504.59</ele>
        <time>2021-05-23T08:53:40Z</time>
      </trkpt>
      <trkpt lat="43.476" lon="2.39436">
        <ele>505.276</ele>
        <time>2021-05-23T08:53:42Z</time>
      </trkpt>
      <trkpt lat="43.476" lon="2.3944">
        <ele>504.549</ele>
        <time>2021-05-23T08:53:44Z</time>
      </trkpt>
      <trkpt lat="43.47599" lon="2.39444">
        <ele>505.243</ele>
        <time>2021-05-23T08:53:46Z</time>
      </trkpt>
      <trkpt lat="43.47598" lon="2.39447">
        <ele>507.223</ele>
        <time>2021-05-23T08:53:48Z</time>
      </trkpt>
      <trkpt lat="43.47599" lon="2.39451">
        <ele>505.531</ele>
        <time>2021-05-23T08:53:50Z</time>
      </trkpt>
      <trkpt lat="43.47598" lon="2.39453">
        <ele>507.618</ele>
        <time>2021-05-23T08:53:52Z</time>
      </trkpt>
      <trkpt lat="43.47597" lon="2.39455">
        <ele>507.555</ele>
        <time>2021-05-23T08:53:54Z</time>
      </trkpt>
      <trkpt lat="43.47596" lon="2.39457">
        <ele>508.863</ele>
        <time>2021-05-23T08:53:56Z</time>
      </trkpt>
      <trkpt lat="43.47595" lon="2.3946">
        <ele>510.052</ele>
        <time>2021-05-23T08:53:58Z</time>
      </trkpt>
      <trkpt lat="43.47595" lon="2.39462">
        <ele>510.778</ele>
        <time>2021-05-23T08:54:00Z</time>
      </trkpt>
      <trkpt lat="43.47594" lon="2.39464">
        <ele>511.406</ele>
        <time>2021-05-23T08:54:02Z</time>
      </trkpt>
      <trkpt lat="43.47594" lon="2.39467">
        <ele>511.592</ele>
        <time>2021-05-23T08:54:04Z</time>
      </trkpt>
      <trkpt lat="43.47594" lon="2.3947">
        <ele>511.052</ele>
        <time>2021-05-23T08:54:06Z</time>
      </trkpt>
      <trkpt lat="43.47594" lon="2.39473">
        <ele>512.31</ele>
        <time>2021-05-23T08:54:08Z</time>
      </trkpt>
      <trkpt lat="43.47595" lon="2.39477">
        <ele>512.266</ele>
        <time>2021-05-23T08:54:10Z</time>
      </trkpt>
      <trkpt lat="43.47597" lon="2.39478">
        <ele>511.988</ele>
        <time>2021-05-23T08:54:12Z</time>
      </trkpt>
      <trkpt lat="43.47598" lon="2.39477">
        <ele>512.046</ele>
        <time>2021-05-23T08:54:14Z</time>
      </trkpt>
      <trkpt lat="43.47599" lon="2.39475">
        <ele>510.263</ele>
        <time>2021-05-23T08:54:16Z</time>
      </trkpt>
      <trkpt lat="43.476" lon="2.39472">
        <ele>512.341</ele>
        <time>2021-05-23T08:54:18Z</time>
      </trkpt>
      <trkpt lat="43.47601" lon="2.3947">
        <ele>511.509</ele>
        <time>2021-05-23T08:54:20Z</time>
      </trkpt>
      <trkpt lat="43.47602" lon="2.39468">
        <ele>512.661</ele>
        <time>2021-05-23T08:54:22Z</time>
      </trkpt>
      <trkpt lat="43.47603" lon="2.39466">
        <ele>512.882</ele>
        <time>2021-05-23T08:54:24Z</time>
      </trkpt>
      <trkpt lat="43.47604" lon="2.39464">
        <ele>513.435</ele>
        <time>2021-05-23T08:54:26Z</time>
      </trkpt>
      <trkpt lat="43.47605" lon="2.39463">
        <ele>514.974</ele>
        <time>2021-05-23T08:54:28Z</time>
      </trkpt>
      <trkpt lat="43.47607" lon="2.39461">
        <ele>515.56</ele>
        <time>2021-05-23T08:54:30Z</time>
      </trkpt>
      <trkpt lat="43.47608" lon="2.39459">
        <ele>513.845</ele>
        <time>2021-05-23T08:54:32Z</time>
      </trkpt>
      <trkpt lat="43.47609" lon="2.39458">
        <ele>513.973</ele>
        <time>2021-05-23T08:54:34Z</time>
      </trkpt>
      <trkpt lat="43.47611" lon="2.39456">
        <ele>512.152</ele>
        <time>2021-05-23T08:54:36Z</time>
      </trkpt>
      <trkpt lat="43.47613" lon="2.39454">
        <ele>513.4</ele>
        <time>2021-05-23T08:54:38Z</time>
      </trkpt>
      <trkpt lat="43.47614" lon="2.3945">
        <ele>515.439</ele>
        <time>2021-05-23T08:54:40Z</time>
      </trkpt>
      <trkpt lat="43.47615" lon="2.39448">
        <ele>515.114</ele>
        <time>2021-05-23T08:54:42Z</time>
      </trkpt>
      <trkpt lat="43.47616" lon="2.39445">
        <ele>514.566</ele>
        <time>2021-05-23T08:54:44Z</time>
      </trkpt>
      <trkpt lat="43.47618" lon="2.39443">
        <ele>515.076</ele>
        <time>2021-05-23T08:54:46Z</time>
      </trkpt>
      <trkpt lat="43.47619" lon="2.3944">
        <ele>517.35</ele>
        <time>2021-05-23T08:54:48Z</time>
      </trkpt>
      <trkpt lat="43.4762" lon="2.39436">
        <ele>517.232</ele>
        <time>2021-05-23T08:54:50Z</time>
      </trkpt>
      <trkpt lat="43.47621" lon="2.39433">
        <ele>518.466</ele>
        <time>2021-05-23T08:54:52Z</time>
      </trkpt>
      <trkpt lat="43.47623" lon="2.39431">
        <ele>518.705</ele>
        <time>2021-05-23T08:54:54Z</time>
      </trkpt>
      <trkpt lat="43.47625" lon="2.39429">
        <ele>519.256</ele>
        <time>2021-05-23T08:54:56Z</time>
      </trkpt>
      <trkpt lat="43.47627" lon="2.39426">
        <ele>518.987</ele>
        <time>2021-05-23T08:54:58Z</time>
      </trkpt>
      <trkpt lat="43.47628" lon="2.39423">
        <ele>518.591</ele>
        <time>2021-05-23T08:55:00Z</time>
      </trkpt>
      <trkpt lat="43.47629" lon="2.3942">
        <ele>518.167</ele>
        <time>2021-05-23T08:55:02Z</time>
      </trkpt>
      <trkpt lat="43.4763" lon="2.39417">
        <ele>517.839</ele>
        <time>2021-05-23T08:55:04Z</time>
      </trkpt>
      <trkpt lat="43.47631" lon="2.39414">
        <ele>519.117</ele>
        <time>2021-05-23T08:55:06Z</time>
      </trkpt>
      <trkpt lat="43.47631" lon="2.3941">
        <ele>521.213</ele>
        <time>2021-05-23T08:55:08Z</time>
      </trkpt>
      <trkpt lat="43.47631" lon="2.39407">
        <ele>521.01</ele>
        <time>2021-05-23T08:55:10Z</time>
      </trkpt>
      <trkpt lat="43.47632" lon="2.39403">
        <ele>523.063</ele>
        <time>2021-05-23T08:55:12Z</time>
      </trkpt>
      <trkpt lat="43.47632" lon="2.39399">
        <ele>523.503</ele>
        <time>2021-05-23T08:55:14Z</time>
      </trkpt>
      <trkpt lat="43.47633" lon="2.39395">
        <ele>525.134</ele>
        <time>2021-05-23T08:55:16Z</time>
      </trkpt>
      <trkpt lat="43.47634" lon="2.39392">
        <ele>524.728</ele>
        <time>2021-05-23T08:55:18Z</time>
      </trkpt>
      <trkpt lat="43.47636" lon="2.3939">
        <ele>522.623</ele>
        <time>2021-05-23T08:55:20Z</time>
      </trkpt>
      <trkpt lat="43.47636" lon="2.39388">
        <ele>521.19</ele>
        <time>2021-05-23T08:55:22Z</time>
      </trkpt>
      <trkpt lat="43.47638" lon="2.39385">
        <ele>520.957</ele>
        <time>2021-05-23T08:55:24Z</time>
      </trkpt>
      <trkpt lat="43.47639" lon="2.39382">
        <ele>522.179</ele>
        <time>2021-05-23T08:55:26Z</time>
      </trkpt>
      <trkpt lat="43.47639" lon="2.39379">
        <ele>523.412</ele>
        <time>2021-05-23T08:55:28Z</time>
      </trkpt>
      <trkpt lat="43.4764" lon="2.39375">
        <ele>524.571</ele>
        <time>2021-05-23T08:55:30Z</time>
      </trkpt>
      <trkpt lat="43.4764" lon="2.39372">
        <ele>525.058</ele>
        <time>2021-05-23T08:55:32Z</time>
      </trkpt>
      <trkpt lat="43.47641" lon="2.39369">
        <ele>524.825</ele>
        <time>2021-05-23T08:55:34Z</time>
      </trkpt>
      <trkpt lat="43.47642" lon="2.39366">
        <ele>524.267</ele>
        <time>2021-05-23T08:55:36Z</time>
      </trkpt>
      <trkpt lat="43.47643" lon="2.39363">
        <ele>526.284</ele>
        <time>2021-05-23T08:55:38Z</time>
      </trkpt>
      <trkpt lat="43.47644" lon="2.3936">
        <ele>530.016</ele>
        <time>2021-05-23T08:55:40Z</time>
      </trkpt>
      <trkpt lat="43.47645" lon="2.39357">
        <ele>530.264</ele>
        <time>2021-05-23T08:55:42Z</time>
      </trkpt>
      <trkpt lat="43.47646" lon="2.39357">
        <ele>528.998</ele>
        <time>2021-05-23T08:55:44Z</time>
      </trkpt>
      <trkpt lat="43.47648" lon="2.39358">
        <ele>527.477</ele>
        <time>2021-05-23T08:55:46Z</time>
      </trkpt>
      <trkpt lat="43.47649" lon="2.39359">
        <ele>528.518</ele>
        <time>2021-05-23T08:55:48Z</time>
      </trkpt>
      <trkpt lat="43.47649" lon="2.39362">
        <ele>528.917</ele>
        <time>2021-05-23T08:55:50Z</time>
      </trkpt>
      <trkpt lat="43.47649" lon="2.39364">
        <ele>525.627</ele>
        <time>2021-05-23T08:55:52Z</time>
      </trkpt>
      <trkpt lat="43.47648" lon="2.39367">
        <ele>524.514</ele>
        <time>2021-05-23T08:55:54Z</time>
      </trkpt>
      <trkpt lat="43.47647" lon="2.39369">
        <ele>524.346</ele>
        <time>2021-05-23T08:55:56Z</time>
      </trkpt>
      <trkpt lat="43.47647" lon="2.39372">
        <ele>523.934</ele>
        <time>2021-05-23T08:55:58Z</time>
      </trkpt>
      <trkpt lat="43.47646" lon="2.39375">
        <ele>524.806</ele>
        <time>2021-05-23T08:56:00Z</time>
      </trkpt>
      <trkpt lat="43.47645" lon="2.39378">
        <ele>524.746</ele>
        <time>2021-05-23T08:56:02Z</time>
      </trkpt>
      <trkpt lat="43.47643" lon="2.39382">
        <ele>525.228</ele>
        <time>2021-05-23T08:56:04Z</time>
      </trkpt>
      <trkpt lat="43.47641" lon="2.39384">
        <ele>524.713</ele>
        <time>2021-05-23T08:56:06Z</time>
      </trkpt>
      <trkpt lat="43.4764" lon="2.39387">
        <ele>523.635</ele>
        <time>2021-05-23T08:56:08Z</time>
      </trkpt>
      <trkpt lat="43.4764" lon="2.39391">
        <ele>523.49</ele>
        <time>2021-05-23T08:56:10Z</time>
      </trkpt>
      <trkpt lat="43.4764" lon="2.39393">
        <ele>522.684</ele>
        <time>2021-05-23T08:56:12Z</time>
      </trkpt>
      <trkpt lat="43.47639" lon="2.39396">
        <ele>522.718</ele>
        <time>2021-05-23T08:56:14Z</time>
      </trkpt>
      <trkpt lat="43.47639" lon="2.39399">
        <ele>524.059</ele>
        <time>2021-05-23T08:56:16Z</time>
      </trkpt>
      <trkpt lat="43.47638" lon="2.39402">
        <ele>524.461</ele>
        <time>2021-05-23T08:56:18Z</time>
      </trkpt>
      <trkpt lat="43.47638" lon="2.39405">
        <ele>524.426</ele>
        <time>2021-05-23T08:56:20Z</time>
      </trkpt>
      <trkpt lat="43.47638" lon="2.39408">
        <ele>523.482</ele>
        <time>2021-05-23T08:56:22Z</time>
      </trkpt>
      <trkpt lat="43.47638" lon="2.39411">
        <ele>522.557</ele>
        <time>2021-05-23T08:56:24Z</time>
      </trkpt>
      <trkpt lat="43.47637" lon="2.39414">
        <ele>523.666</ele>
        <time>2021-05-23T08:56:26Z</time>
      </trkpt>
      <trkpt lat="43.47637" lon="2.39416">
        <ele>522.927</ele>
        <time>2021-05-23T08:56:28Z</time>
      </trkpt>
      <trkpt lat="43.47636" lon="2.39419">
        <ele>522.781</ele>
        <time>2021-05-23T08:56:30Z</time>
      </trkpt>
      <trkpt lat="43.47635" lon="2.39423">
        <ele>522.529</ele>
        <time>2021-05-23T08:56:32Z</time>
      </trkpt>
      <trkpt lat="43.47633" lon="2.39426">
        <ele>520.869</ele>
        <time>2021-05-23T08:56:34Z</time>
      </trkpt>
      <trkpt lat="43.47632" lon="2.3943">
        <ele>520.57</ele>
        <time>2021-05-23T08:56:36Z</time>
      </trkpt>
      <trkpt lat="43.47631" lon="2.39433">
        <ele>521.982</ele>
        <time>2021-05-23T08:56:38Z</time>
      </trkpt>
      <trkpt lat="43.4763" lon="2.39435">
        <ele>523.789</ele>
        <time>2021-05-23T08:56:40Z</time>
      </trkpt>
      <trkpt lat="43.47629" lon="2.39437">
        <ele>524.588</ele>
        <time>2021-05-23T08:56:42Z</time>
      </trkpt>
      <trkpt lat="43.47628" lon="2.3944">
        <ele>526.236</ele>
        <time>2021-05-23T08:56:44Z</time>
      </trkpt>
      <trkpt lat="43.47627" lon="2.39443">
        <ele>526.436</ele>
        <time>2021-05-23T08:56:46Z</time>
      </trkpt>
      <trkpt lat="43.47627" lon="2.39444">
        <ele>525.631</ele>
        <time>2021-05-23T08:56:48Z</time>
      </trkpt>
      <trkpt lat="43.47626" lon="2.39447">
        <ele>526.158</ele>
        <time>2021-05-23T08:56:50Z</time>
      </trkpt>
      <trkpt lat="43.47625" lon="2.3945">
        <ele>526.586</ele>
        <time>2021-05-23T08:56:52Z</time>
      </trkpt>
      <trkpt lat="43.47624" lon="2.39452">
        <ele>526.589</ele>
        <time>2021-05-23T08:56:54Z</time>
      </trkpt>
      <trkpt lat="43.47623" lon="2.39454">
        <ele>528.485</ele>
        <time>2021-05-23T08:56:56Z</time>
      </trkpt>
      <trkpt lat="43.47622" lon="2.39457">
        <ele>529.499</ele>
        <time>2021-05-23T08:56:58Z</time>
      </trkpt>
      <trkpt lat="43.47622" lon="2.3946">
        <ele>530.011</ele>
        <time>2021-05-23T08:57:00Z</time>
      </trkpt>
      <trkpt lat="43.47621" lon="2.39463">
        <ele>530.18</ele>
        <time>2021-05-23T08:57:02Z</time>
      </trkpt>
      <trkpt lat="43.4762" lon="2.39466">
        <ele>530.66</ele>
        <time>2021-05-23T08:57:04Z</time>
      </trkpt>
      <trkpt lat="43.47619" lon="2.39469">
        <ele>531.223</ele>
        <time>2021-05-23T08:57:06Z</time>
      </trkpt>
      <trkpt lat="43.47618" lon="2.39471">
        <ele>532.24</ele>
        <time>2021-05-23T08:57:08Z</time>
      </trkpt>
      <trkpt lat="43.47618" lon="2.39475">
        <ele>532.643</ele>
        <time>2021-05-23T08:57:10Z</time>
      </trkpt>
      <trkpt lat="43.47617" lon="2.39478">
        <ele>532.816</ele>
        <time>2021-05-23T08:57:12Z</time>
      </trkpt>
      <trkpt lat="43.47617" lon="2.3948">
        <ele>531.795</ele>
        <time>2021-05-23T08:57:14Z</time>
      </trkpt>
      <trkpt lat="43.47616" lon="2.39484">
        <ele>531.17</ele>
        <time>2021-05-23T08:57:16Z</time>
      </trkpt>
      <trkpt lat="43.47616" lon="2.39486">
        <ele>530.717</ele>
        <time>2021-05-23T08:57:18Z</time>
      </trkpt>
      <trkpt lat="43.47616" lon="2.39489">
        <ele>531.852</ele>
        <time>2021-05-23T08:57:20Z</time>
      </trkpt>
      <trkpt lat="43.47616" lon="2.39493">
        <ele>532.232</ele>
        <time>2021-05-23T08:57:22Z</time>
      </trkpt>
      <trkpt lat="43.47615" lon="2.39496">
        <ele>531.64</ele>
        <time>2021-05-23T08:57:24Z</time>
      </trkpt>
      <trkpt lat="43.47615" lon="2.39499">
        <ele>531.648</ele>
        <time>2021-05-23T08:57:26Z</time>
      </trkpt>
      <trkpt lat="43.47614" lon="2.39501">
        <ele>532.531</ele>
        <time>2021-05-23T08:57:28Z</time>
      </trkpt>
      <trkpt lat="43.47614" lon="2.39504">
        <ele>532.652</ele>
        <time>2021-05-23T08:57:30Z</time>
      </trkpt>
      <trkpt lat="43.47612" lon="2.39508">
        <ele>533.141</ele>
        <time>2021-05-23T08:57:32Z</time>
      </trkpt>
      <trkpt lat="43.47611" lon="2.39511">
        <ele>532.526</ele>
        <time>2021-05-23T08:57:34Z</time>
      </trkpt>
      <trkpt lat="43.47611" lon="2.39515">
        <ele>530.377</ele>
        <time>2021-05-23T08:57:36Z</time>
      </trkpt>
      <trkpt lat="43.47611" lon="2.39518">
        <ele>529.796</ele>
        <time>2021-05-23T08:57:38Z</time>
      </trkpt>
      <trkpt lat="43.4761" lon="2.39521">
        <ele>531.015</ele>
        <time>2021-05-23T08:57:40Z</time>
      </trkpt>
      <trkpt lat="43.47609" lon="2.39524">
        <ele>532.223</ele>
        <time>2021-05-23T08:57:42Z</time>
      </trkpt>
      <trkpt lat="43.47608" lon="2.39526">
        <ele>532.656</ele>
        <time>2021-05-23T08:57:44Z</time>
      </trkpt>
      <trkpt lat="43.47607" lon="2.39529">
        <ele>532.541</ele>
        <time>2021-05-23T08:57:46Z</time>
      </trkpt>
      <trkpt lat="43.47606" lon="2.39533">
        <ele>532.244</ele>
        <time>2021-05-23T08:57:48Z</time>
      </trkpt>
      <trkpt lat="43.47605" lon="2.39537">
        <ele>532.155</ele>
        <time>2021-05-23T08:57:50Z</time>
      </trkpt>
      <trkpt lat="43.47604" lon="2.3954">
        <ele>533.651</ele>
        <time>2021-05-23T08:57:52Z</time>
      </trkpt>
      <trkpt lat="43.47603" lon="2.39543">
        <ele>534.308</ele>
        <time>2021-05-23T08:57:54Z</time>
      </trkpt>
      <trkpt lat="43.47601" lon="2.39546">
        <ele>533.469</ele>
        <time>2021-05-23T08:57:56Z</time>
      </trkpt>
      <trkpt lat="43.47599" lon="2.39549">
        <ele>534.545</ele>
        <time>2021-05-23T08:57:58Z</time>
      </trkpt>
      <trkpt lat="43.47598" lon="2.39552">
        <ele>535.423</ele>
        <time>2021-05-23T08:58:00Z</time>
      </trkpt>
      <trkpt lat="43.47597" lon="2.39553">
        <ele>535.868</ele>
        <time>2021-05-23T08:58:02Z</time>
      </trkpt>
      <trkpt lat="43.47595" lon="2.39556">
        <ele>537.217</ele>
        <time>2021-05-23T08:58:04Z</time>
      </trkpt>
      <trkpt lat="43.47593" lon="2.39559">
        <ele>536.706</ele>
        <time>2021-05-23T08:58:06Z</time>
      </trkpt>
      <trkpt lat="43.47591" lon="2.39562">
        <ele>539.135</ele>
        <time>2021-05-23T08:58:08Z</time>
      </trkpt>
      <trkpt lat="43.47589" lon="2.39564">
        <ele>540.795</ele>
        <time>2021-05-23T08:58:10Z</time>
      </trkpt>
      <trkpt lat="43.47587" lon="2.39565">
        <ele>539.482</ele>
        <time>2021-05-23T08:58:12Z</time>
      </trkpt>
      <trkpt lat="43.47584" lon="2.39568">
        <ele>538.569</ele>
        <time>2021-05-23T08:58:14Z</time>
      </trkpt>
      <trkpt lat="43.47583" lon="2.39571">
        <ele>538.85</ele>
        <time>2021-05-23T08:58:16Z</time>
      </trkpt>
      <trkpt lat="43.4758" lon="2.39573">
        <ele>539.175</ele>
        <time>2021-05-23T08:58:18Z</time>
      </trkpt>
      <trkpt lat="43.47579" lon="2.39576">
        <ele>539.43</ele>
        <time>2021-05-23T08:58:20Z</time>
      </trkpt>
      <trkpt lat="43.47578" lon="2.39579">
        <ele>539.204</ele>
        <time>2021-05-23T08:58:22Z</time>
      </trkpt>
      <trkpt lat="43.47576" lon="2.39581">
        <ele>538.833</ele>
        <time>2021-05-23T08:58:24Z</time>
      </trkpt>
      <trkpt lat="43.47573" lon="2.39583">
        <ele>539.504</ele>
        <time>2021-05-23T08:58:26Z</time>
      </trkpt>
      <trkpt lat="43.47569" lon="2.39585">
        <ele>540.59</ele>
        <time>2021-05-23T08:58:28Z</time>
      </trkpt>
      <trkpt lat="43.47567" lon="2.39588">
        <ele>538.6</ele>
        <time>2021-05-23T08:58:30Z</time>
      </trkpt>
      <trkpt lat="43.47565" lon="2.39591">
        <ele>538.86</ele>
        <time>2021-05-23T08:58:32Z</time>
      </trkpt>
      <trkpt lat="43.47564" lon="2.39593">
        <ele>537.941</ele>
        <time>2021-05-23T08:58:34Z</time>
      </trkpt>
      <trkpt lat="43.47563" lon="2.39596">
        <ele>538.473</ele>
        <time>2021-05-23T08:58:36Z</time>
      </trkpt>
      <trkpt lat="43.47562" lon="2.396">
        <ele>537.975</ele>
        <time>2021-05-23T08:58:38Z</time>
      </trkpt>
      <trkpt lat="43.47561" lon="2.39602">
        <ele>540.356</ele>
        <time>2021-05-23T08:58:40Z</time>
      </trkpt>
      <trkpt lat="43.4756" lon="2.39604">
        <ele>541.593</ele>
        <time>2021-05-23T08:58:42Z</time>
      </trkpt>
      <trkpt lat="43.47558" lon="2.39607">
        <ele>542.256</ele>
        <time>2021-05-23T08:58:44Z</time>
      </trkpt>
      <trkpt lat="43.47557" lon="2.3961">
        <ele>541.414</ele>
        <time>2021-05-23T08:58:46Z</time>
      </trkpt>
      <trkpt lat="43.47556" lon="2.39612">
        <ele>541.719</ele>
        <time>2021-05-23T08:58:48Z</time>
      </trkpt>
      <trkpt lat="43.47556" lon="2.39615">
        <ele>541.591</ele>
        <time>2021-05-23T08:58:50Z</time>
      </trkpt>
      <trkpt lat="43.47555" lon="2.39618">
        <ele>540.282</ele>
        <time>2021-05-23T08:58:52Z</time>
      </trkpt>
      <trkpt lat="43.47555" lon="2.39621">
        <ele>539.79</ele>
        <time>2021-05-23T08:58:54Z</time>
      </trkpt>
      <trkpt lat="43.47554" lon="2.39625">
        <ele>539.56</ele>
        <time>2021-05-23T08:58:56Z</time>
      </trkpt>
      <trkpt lat="43.47553" lon="2.39627">
        <ele>540.882</ele>
        <time>2021-05-23T08:58:58Z</time>
      </trkpt>
      <trkpt lat="43.47552" lon="2.39629">
        <ele>541.104</ele>
        <time>2021-05-23T08:59:00Z</time>
      </trkpt>
      <trkpt lat="43.47551" lon="2.39632">
        <ele>542.147</ele>
        <time>2021-05-23T08:59:02Z</time>
      </trkpt>
      <trkpt lat="43.4755" lon="2.39633">
        <ele>543.379</ele>
        <time>2021-05-23T08:59:03Z</time>
      </trkpt>
      <trkpt lat="43.47548" lon="2.39635">
        <ele>546.309</ele>
        <time>2021-05-23T08:59:06Z</time>
      </trkpt>
      <trkpt lat="43.47548" lon="2.39637">
        <ele>545.139</ele>
        <time>2021-05-23T08:59:08Z</time>
      </trkpt>
      <trkpt lat="43.47548" lon="2.39639">
        <ele>544.187</ele>
        <time>2021-05-23T08:59:10Z</time>
      </trkpt>
      <trkpt lat="43.47548" lon="2.39642">
        <ele>544.192</ele>
        <time>2021-05-23T08:59:12Z</time>
      </trkpt>
      <trkpt lat="43.47547" lon="2.39645">
        <ele>543.689</ele>
        <time>2021-05-23T08:59:14Z</time>
      </trkpt>
      <trkpt lat="43.47546" lon="2.39648">
        <ele>543.038</ele>
        <time>2021-05-23T08:59:16Z</time>
      </trkpt>
      <trkpt lat="43.47545" lon="2.39651">
        <ele>543.89</ele>
        <time>2021-05-23T08:59:18Z</time>
      </trkpt>
      <trkpt lat="43.47544" lon="2.39654">
        <ele>544.267</ele>
        <time>2021-05-23T08:59:20Z</time>
      </trkpt>
      <trkpt lat="43.47543" lon="2.39657">
        <ele>543.389</ele>
        <time>2021-05-23T08:59:22Z</time>
      </trkpt>
      <trkpt lat="43.47542" lon="2.3966">
        <ele>542.882</ele>
        <time>2021-05-23T08:59:24Z</time>
      </trkpt>
      <trkpt lat="43.47541" lon="2.39663">
        <ele>544.54</ele>
        <time>2021-05-23T08:59:26Z</time>
      </trkpt>
      <trkpt lat="43.4754" lon="2.39665">
        <ele>544.442</ele>
        <time>2021-05-23T08:59:28Z</time>
      </trkpt>
      <trkpt lat="43.47539" lon="2.39669">
        <ele>545.182</ele>
        <time>2021-05-23T08:59:30Z</time>
      </trkpt>
      <trkpt lat="43.47538" lon="2.39672">
        <ele>545.881</ele>
        <time>2021-05-23T08:59:32Z</time>
      </trkpt>
      <trkpt lat="43.47536" lon="2.39675">
        <ele>545.669</ele>
        <time>2021-05-23T08:59:34Z</time>
      </trkpt>
      <trkpt lat="43.47535" lon="2.39678">
        <ele>547.326</ele>
        <time>2021-05-23T08:59:36Z</time>
      </trkpt>
      <trkpt lat="43.47533" lon="2.39681">
        <ele>547.128</ele>
        <time>2021-05-23T08:59:38Z</time>
      </trkpt>
      <trkpt lat="43.47531" lon="2.39683">
        <ele>546.935</ele>
        <time>2021-05-23T08:59:40Z</time>
      </trkpt>
      <trkpt lat="43.4753" lon="2.39686">
        <ele>546.319</ele>
        <time>2021-05-23T08:59:42Z</time>
      </trkpt>
      <trkpt lat="43.4753" lon="2.39688">
        <ele>546.263</ele>
        <time>2021-05-23T08:59:44Z</time>
      </trkpt>
      <trkpt lat="43.47529" lon="2.39691">
        <ele>545.292</ele>
        <time>2021-05-23T08:59:46Z</time>
      </trkpt>
      <trkpt lat="43.47529" lon="2.39695">
        <ele>546.01</ele>
        <time>2021-05-23T08:59:48Z</time>
      </trkpt>
      <trkpt lat="43.47528" lon="2.39697">
        <ele>546.273</ele>
        <time>2021-05-23T08:59:50Z</time>
      </trkpt>
      <trkpt lat="43.47528" lon="2.397">
        <ele>546.372</ele>
        <time>2021-05-23T08:59:52Z</time>
      </trkpt>
      <trkpt lat="43.47527" lon="2.39703">
        <ele>545.756</ele>
        <time>2021-05-23T08:59:54Z</time>
      </trkpt>
      <trkpt lat="43.47525" lon="2.39706">
        <ele>545.492</ele>
        <time>2021-05-23T08:59:56Z</time>
      </trkpt>
      <trkpt lat="43.47524" lon="2.39709">
        <ele>546.325</ele>
        <time>2021-05-23T08:59:58Z</time>
      </trkpt>
      <trkpt lat="43.47523" lon="2.39713">
        <ele>545.805</ele>
        <time>2021-05-23T09:00:00Z</time>
      </trkpt>
      <trkpt lat="43.47521" lon="2.39716">
        <ele>545.549</ele>
        <time>2021-05-23T09:00:02Z</time>
      </trkpt>
      <trkpt lat="43.4752" lon="2.39719">
        <ele>545.322</ele>
        <time>2021-05-23T09:00:04Z</time>
      </trkpt>
      <trkpt lat="43.4752" lon="2.39723">
        <ele>543.048</ele>
        <time>2021-05-23T09:00:06Z</time>
      </trkpt>
      <trkpt lat="43.4752" lon="2.39726">
        <ele>542.987</ele>
        <time>2021-05-23T09:00:08Z</time>
      </trkpt>
      <trkpt lat="43.4752" lon="2.3973">
        <ele>542.856</ele>
        <time>2021-05-23T09:00:10Z</time>
      </trkpt>
      <trkpt lat="43.47519" lon="2.39733">
        <ele>544.514</ele>
        <time>2021-05-23T09:00:12Z</time>
      </trkpt>
      <trkpt lat="43.47518" lon="2.39736">
        <ele>545.251</ele>
        <time>2021-05-23T09:00:14Z</time>
      </trkpt>
      <trkpt lat="43.47518" lon="2.39738">
        <ele>545.447</ele>
        <time>2021-05-23T09:00:16Z</time>
      </trkpt>
      <trkpt lat="43.47518" lon="2.39742">
        <ele>545.335</ele>
        <time>2021-05-23T09:00:18Z</time>
      </trkpt>
      <trkpt lat="43.47516" lon="2.39745">
        <ele>544.728</ele>
        <time>2021-05-23T09:00:20Z</time>
      </trkpt>
      <trkpt lat="43.47516" lon="2.39749">
        <ele>544.835</ele>
        <time>2021-05-23T09:00:22Z</time>
      </trkpt>
      <trkpt lat="43.47516" lon="2.39752">
        <ele>543.056</ele>
        <time>2021-05-23T09:00:24Z</time>
      </trkpt>
      <trkpt lat="43.47514" lon="2.39754">
        <ele>541.867</ele>
        <time>2021-05-23T09:00:26Z</time>
      </trkpt>
      <trkpt lat="43.47514" lon="2.39758">
        <ele>544.385</ele>
        <time>2021-05-23T09:00:28Z</time>
      </trkpt>
      <trkpt lat="43.47514" lon="2.39762">
        <ele>545.342</ele>
        <time>2021-05-23T09:00:30Z</time>
      </trkpt>
      <trkpt lat="43.47514" lon="2.39766">
        <ele>546.485</ele>
        <time>2021-05-23T09:00:32Z</time>
      </trkpt>
      <trkpt lat="43.47514" lon="2.39769">
        <ele>547.257</ele>
        <time>2021-05-23T09:00:34Z</time>
      </trkpt>
      <trkpt lat="43.47513" lon="2.39772">
        <ele>548.792</ele>
        <time>2021-05-23T09:00:36Z</time>
      </trkpt>
      <trkpt lat="43.47512" lon="2.39775">
        <ele>549.106</ele>
        <time>2021-05-23T09:00:38Z</time>
      </trkpt>
      <trkpt lat="43.47511" lon="2.39777">
        <ele>549.627</ele>
        <time>2021-05-23T09:00:40Z</time>
      </trkpt>
      <trkpt lat="43.47511" lon="2.3978">
        <ele>550.188</ele>
        <time>2021-05-23T09:00:42Z</time>
      </trkpt>
      <trkpt lat="43.47511" lon="2.39783">
        <ele>550.686</ele>
        <time>2021-05-23T09:00:44Z</time>
      </trkpt>
      <trkpt lat="43.47511" lon="2.39785">
        <ele>551.302</ele>
        <time>2021-05-23T09:00:46Z</time>
      </trkpt>
      <trkpt lat="43.4751" lon="2.39787">
        <ele>552.201</ele>
        <time>2021-05-23T09:00:48Z</time>
      </trkpt>
      <trkpt lat="43.4751" lon="2.39791">
        <ele>553.41</ele>
        <time>2021-05-23T09:00:50Z</time>
      </trkpt>
      <trkpt lat="43.47509" lon="2.39795">
        <ele>551.595</ele>
        <time>2021-05-23T09:00:52Z</time>
      </trkpt>
      <trkpt lat="43.47508" lon="2.39799">
        <ele>551.872</ele>
        <time>2021-05-23T09:00:54Z</time>
      </trkpt>
      <trkpt lat="43.47508" lon="2.39803">
        <ele>550.762</ele>
        <time>2021-05-23T09:00:56Z</time>
      </trkpt>
      <trkpt lat="43.47508" lon="2.39807">
        <ele>552.11</ele>
        <time>2021-05-23T09:00:58Z</time>
      </trkpt>
      <trkpt lat="43.47508" lon="2.3981">
        <ele>551.879</ele>
        <time>2021-05-23T09:01:00Z</time>
      </trkpt>
      <trkpt lat="43.47509" lon="2.39814">
        <ele>551.724</ele>
        <time>2021-05-23T09:01:02Z</time>
      </trkpt>
      <trkpt lat="43.47509" lon="2.39817">
        <ele>551.272</ele>
        <time>2021-05-23T09:01:04Z</time>
      </trkpt>
      <trkpt lat="43.4751" lon="2.39821">
        <ele>550.955</ele>
        <time>2021-05-23T09:01:06Z</time>
      </trkpt>
      <trkpt lat="43.4751" lon="2.39825">
        <ele>551.808</ele>
        <time>2021-05-23T09:01:08Z</time>
      </trkpt>
      <trkpt lat="43.4751" lon="2.39829">
        <ele>551.962</ele>
        <time>2021-05-23T09:01:10Z</time>
      </trkpt>
      <trkpt lat="43.47511" lon="2.39832">
        <ele>552.628</ele>
        <time>2021-05-23T09:01:12Z</time>
      </trkpt>
      <trkpt lat="43.47511" lon="2.39836">
        <ele>553.107</ele>
        <time>2021-05-23T09:01:14Z</time>
      </trkpt>
      <trkpt lat="43.47512" lon="2.3984">
        <ele>553.064</ele>
        <time>2021-05-23T09:01:16Z</time>
      </trkpt>
      <trkpt lat="43.47514" lon="2.39842">
        <ele>553.04</ele>
        <time>2021-05-23T09:01:18Z</time>
      </trkpt>
      <trkpt lat="43.47515" lon="2.39843">
        <ele>552.552</ele>
        <time>2021-05-23T09:01:20Z</time>
      </trkpt>
      <trkpt lat="43.47518" lon="2.39843">
        <ele>552.645</ele>
        <time>2021-05-23T09:01:22Z</time>
      </trkpt>
      <trkpt lat="43.4752" lon="2.39841">
        <ele>552.884</ele>
        <time>2021-05-23T09:01:24Z</time>
      </trkpt>
      <trkpt lat="43.47521" lon="2.39839">
        <ele>552.973</ele>
        <time>2021-05-23T09:01:26Z</time>
      </trkpt>
      <trkpt lat="43.47521" lon="2.39839">
        <ele>553.155</ele>
        <time>2021-05-23T09:01:28Z</time>
      </trkpt>
      <trkpt lat="43.47522" lon="2.39838">
        <ele>553.351</ele>
        <time>2021-05-23T09:01:30Z</time>
      </trkpt>
      <trkpt lat="43.47524" lon="2.39836">
        <ele>553.472</ele>
        <time>2021-05-23T09:01:32Z</time>
      </trkpt>
      <trkpt lat="43.47524" lon="2.39834">
        <ele>555.179</ele>
        <time>2021-05-23T09:01:34Z</time>
      </trkpt>
      <trkpt lat="43.47525" lon="2.39832">
        <ele>556.02</ele>
        <time>2021-05-23T09:01:36Z</time>
      </trkpt>
      <trkpt lat="43.47526" lon="2.3983">
        <ele>556.973</ele>
        <time>2021-05-23T09:01:38Z</time>
      </trkpt>
      <trkpt lat="43.47527" lon="2.39829">
        <ele>557.429</ele>
        <time>2021-05-23T09:01:40Z</time>
      </trkpt>
      <trkpt lat="43.47528" lon="2.39826">
        <ele>557.13</ele>
        <time>2021-05-23T09:01:42Z</time>
      </trkpt>
      <trkpt lat="43.47528" lon="2.39823">
        <ele>557.378</ele>
        <time>2021-05-23T09:01:44Z</time>
      </trkpt>
      <trkpt lat="43.47529" lon="2.39822">
        <ele>558.017</ele>
        <time>2021-05-23T09:01:45Z</time>
      </trkpt>
      <trkpt lat="43.47529" lon="2.39818">
        <ele>558.721</ele>
        <time>2021-05-23T09:01:48Z</time>
      </trkpt>
      <trkpt lat="43.47531" lon="2.39816">
        <ele>563.115</ele>
        <time>2021-05-23T09:01:50Z</time>
      </trkpt>
      <trkpt lat="43.47533" lon="2.39814">
        <ele>562.317</ele>
        <time>2021-05-23T09:01:52Z</time>
      </trkpt>
      <trkpt lat="43.47533" lon="2.39811">
        <ele>561.841</ele>
        <time>2021-05-23T09:01:54Z</time>
      </trkpt>
      <trkpt lat="43.47533" lon="2.39809">
        <ele>562.483</ele>
        <time>2021-05-23T09:01:56Z</time>
      </trkpt>
      <trkpt lat="43.47534" lon="2.39807">
        <ele>562.473</ele>
        <time>2021-05-23T09:01:58Z</time>
      </trkpt>
      <trkpt lat="43.47534" lon="2.39803">
        <ele>561.31</ele>
        <time>2021-05-23T09:02:00Z</time>
      </trkpt>
      <trkpt lat="43.47534" lon="2.398">
        <ele>562.218</ele>
        <time>2021-05-23T09:02:02Z</time>
      </trkpt>
      <trkpt lat="43.47534" lon="2.39797">
        <ele>562.775</ele>
        <time>2021-05-23T09:02:04Z</time>
      </trkpt>
      <trkpt lat="43.47535" lon="2.39794">
        <ele>562.417</ele>
        <time>2021-05-23T09:02:06Z</time>
      </trkpt>
      <trkpt lat="43.47536" lon="2.39791">
        <ele>563.855</ele>
        <time>2021-05-23T09:02:08Z</time>
      </trkpt>
      <trkpt lat="43.47537" lon="2.39789">
        <ele>565.327</ele>
        <time>2021-05-23T09:02:10Z</time>
      </trkpt>
      <trkpt lat="43.47537" lon="2.39786">
        <ele>563.695</ele>
        <time>2021-05-23T09:02:12Z</time>
      </trkpt>
      <trkpt lat="43.47538" lon="2.39783">
        <ele>564.794</ele>
        <time>2021-05-23T09:02:14Z</time>
      </trkpt>
      <trkpt lat="43.47539" lon="2.3978">
        <ele>565.846</ele>
        <time>2021-05-23T09:02:16Z</time>
      </trkpt>
      <trkpt lat="43.4754" lon="2.39778">
        <ele>565.981</ele>
        <time>2021-05-23T09:02:18Z</time>
      </trkpt>
      <trkpt lat="43.47541" lon="2.39777">
        <ele>564.904</ele>
        <time>2021-05-23T09:02:20Z</time>
      </trkpt>
      <trkpt lat="43.47543" lon="2.39778">
        <ele>566.383</ele>
        <time>2021-05-23T09:02:22Z</time>
      </trkpt>
      <trkpt lat="43.47545" lon="2.3978">
        <ele>567.243</ele>
        <time>2021-05-23T09:02:24Z</time>
      </trkpt>
      <trkpt lat="43.47545" lon="2.39782">
        <ele>565.939</ele>
        <time>2021-05-23T09:02:26Z</time>
      </trkpt>
      <trkpt lat="43.47546" lon="2.39785">
        <ele>565.366</ele>
        <time>2021-05-23T09:02:28Z</time>
      </trkpt>
      <trkpt lat="43.47547" lon="2.39787">
        <ele>567.346</ele>
        <time>2021-05-23T09:02:30Z</time>
      </trkpt>
      <trkpt lat="43.47548" lon="2.39789">
        <ele>567.796</ele>
        <time>2021-05-23T09:02:32Z</time>
      </trkpt>
      <trkpt lat="43.47549" lon="2.39792">
        <ele>567.382</ele>
        <time>2021-05-23T09:02:34Z</time>
      </trkpt>
      <trkpt lat="43.47549" lon="2.39795">
        <ele>565.482</ele>
        <time>2021-05-23T09:02:36Z</time>
      </trkpt>
      <trkpt lat="43.47549" lon="2.39799">
        <ele>563.966</ele>
        <time>2021-05-23T09:02:38Z</time>
      </trkpt>
      <trkpt lat="43.4755" lon="2.39803">
        <ele>564.377</ele>
        <time>2021-05-23T09:02:40Z</time>
      </trkpt>
      <trkpt lat="43.47551" lon="2.39806">
        <ele>563.737</ele>
        <time>2021-05-23T09:02:42Z</time>
      </trkpt>
      <trkpt lat="43.47551" lon="2.39807">
        <ele>563.779</ele>
        <time>2021-05-23T09:02:44Z</time>
      </trkpt>
      <trkpt lat="43.47552" lon="2.39808">
        <ele>563.234</ele>
        <time>2021-05-23T09:02:46Z</time>
      </trkpt>
      <trkpt lat="43.47552" lon="2.39809">
        <ele>564.153</ele>
        <time>2021-05-23T09:02:48Z</time>
      </trkpt>
      <trkpt lat="43.47553" lon="2.39811">
        <ele>565.267</ele>
        <time>2021-05-23T09:02:50Z</time>
      </trkpt>
      <trkpt lat="43.47554" lon="2.39814">
        <ele>566.143</ele>
        <time>2021-05-23T09:02:52Z</time>
      </trkpt>
      <trkpt lat="43.47555" lon="2.39818">
        <ele>566.844</ele>
        <time>2021-05-23T09:02:54Z</time>
      </trkpt>
      <trkpt lat="43.47556" lon="2.39821">
        <ele>566.155</ele>
        <time>2021-05-23T09:02:56Z</time>
      </trkpt>
      <trkpt lat="43.47557" lon="2.39825">
        <ele>566.402</ele>
        <time>2021-05-23T09:02:58Z</time>
      </trkpt>
      <trkpt lat="43.47559" lon="2.39829">
        <ele>566.988</ele>
        <time>2021-05-23T09:03:00Z</time>
      </trkpt>
      <trkpt lat="43.4756" lon="2.39833">
        <ele>567.914</ele>
        <time>2021-05-23T09:03:02Z</time>
      </trkpt>
      <trkpt lat="43.47562" lon="2.39836">
        <ele>568.019</ele>
        <time>2021-05-23T09:03:04Z</time>
      </trkpt>
      <trkpt lat="43.47563" lon="2.39839">
        <ele>568.016</ele>
        <time>2021-05-23T09:03:06Z</time>
      </trkpt>
      <trkpt lat="43.47564" lon="2.39842">
        <ele>567.229</ele>
        <time>2021-05-23T09:03:08Z</time>
      </trkpt>
      <trkpt lat="43.47565" lon="2.39846">
        <ele>567.646</ele>
        <time>2021-05-23T09:03:10Z</time>
      </trkpt>
      <trkpt lat="43.47566" lon="2.39849">
        <ele>567.409</ele>
        <time>2021-05-23T09:03:12Z</time>
      </trkpt>
      <trkpt lat="43.47567" lon="2.39853">
        <ele>567.561</ele>
        <time>2021-05-23T09:03:14Z</time>
      </trkpt>
      <trkpt lat="43.47567" lon="2.39856">
        <ele>567.393</ele>
        <time>2021-05-23T09:03:16Z</time>
      </trkpt>
      <trkpt lat="43.47568" lon="2.39859">
        <ele>566.928</ele>
        <time>2021-05-23T09:03:18Z</time>
      </trkpt>
      <trkpt lat="43.47569" lon="2.39863">
        <ele>567.512</ele>
        <time>2021-05-23T09:03:20Z</time>
      </trkpt>
      <trkpt lat="43.47569" lon="2.39866">
        <ele>567.221</ele>
        <time>2021-05-23T09:03:22Z</time>
      </trkpt>
      <trkpt lat="43.4757" lon="2.39869">
        <ele>566.446</ele>
        <time>2021-05-23T09:03:24Z</time>
      </trkpt>
      <trkpt lat="43.47572" lon="2.39872">
        <ele>566.485</ele>
        <time>2021-05-23T09:03:26Z</time>
      </trkpt>
      <trkpt lat="43.47573" lon="2.39875">
        <ele>566.703</ele>
        <time>2021-05-23T09:03:28Z</time>
      </trkpt>
      <trkpt lat="43.47574" lon="2.39879">
        <ele>566.547</ele>
        <time>2021-05-23T09:03:30Z</time>
      </trkpt>
      <trkpt lat="43.47575" lon="2.39882">
        <ele>567.012</ele>
        <time>2021-05-23T09:03:32Z</time>
      </trkpt>
      <trkpt lat="43.47576" lon="2.39885">
        <ele>566.601</ele>
        <time>2021-05-23T09:03:34Z</time>
      </trkpt>
      <trkpt lat="43.47577" lon="2.39888">
        <ele>566.666</ele>
        <time>2021-05-23T09:03:36Z</time>
      </trkpt>
      <trkpt lat="43.47578" lon="2.39892">
        <ele>567.212</ele>
        <time>2021-05-23T09:03:38Z</time>
      </trkpt>
      <trkpt lat="43.47579" lon="2.39895">
        <ele>567.967</ele>
        <time>2021-05-23T09:03:40Z</time>
      </trkpt>
      <trkpt lat="43.4758" lon="2.39899">
        <ele>568.008</ele>
        <time>2021-05-23T09:03:42Z</time>
      </trkpt>
      <trkpt lat="43.47581" lon="2.39902">
        <ele>568.321</ele>
        <time>2021-05-23T09:03:44Z</time>
      </trkpt>
      <trkpt lat="43.47581" lon="2.39906">
        <ele>568.441</ele>
        <time>2021-05-23T09:03:46Z</time>
      </trkpt>
      <trkpt lat="43.47582" lon="2.39909">
        <ele>568.819</ele>
        <time>2021-05-23T09:03:48Z</time>
      </trkpt>
      <trkpt lat="43.47583" lon="2.39912">
        <ele>568.776</ele>
        <time>2021-05-23T09:03:50Z</time>
      </trkpt>
      <trkpt lat="43.47583" lon="2.39916">
        <ele>568.963</ele>
        <time>2021-05-23T09:03:52Z</time>
      </trkpt>
      <trkpt lat="43.47584" lon="2.39919">
        <ele>569.111</ele>
        <time>2021-05-23T09:03:54Z</time>
      </trkpt>
      <trkpt lat="43.47584" lon="2.39923">
        <ele>569.272</ele>
        <time>2021-05-23T09:03:56Z</time>
      </trkpt>
      <trkpt lat="43.47584" lon="2.39926">
        <ele>569.707</ele>
        <time>2021-05-23T09:03:58Z</time>
      </trkpt>
      <trkpt lat="43.47585" lon="2.3993">
        <ele>569.761</ele>
        <time>2021-05-23T09:04:00Z</time>
      </trkpt>
      <trkpt lat="43.47585" lon="2.39933">
        <ele>569.651</ele>
        <time>2021-05-23T09:04:02Z</time>
      </trkpt>
      <trkpt lat="43.47586" lon="2.39937">
        <ele>569.888</ele>
        <time>2021-05-23T09:04:04Z</time>
      </trkpt>
      <trkpt lat="43.47586" lon="2.3994">
        <ele>569.627</ele>
        <time>2021-05-23T09:04:06Z</time>
      </trkpt>
      <trkpt lat="43.47586" lon="2.39944">
        <ele>569.711</ele>
        <time>2021-05-23T09:04:08Z</time>
      </trkpt>
      <trkpt lat="43.47586" lon="2.39947">
        <ele>570.055</ele>
        <time>2021-05-23T09:04:10Z</time>
      </trkpt>
      <trkpt lat="43.47586" lon="2.39951">
        <ele>570.137</ele>
        <time>2021-05-23T09:04:12Z</time>
      </trkpt>
      <trkpt lat="43.47586" lon="2.39954">
        <ele>570.45</ele>
        <time>2021-05-23T09:04:14Z</time>
      </trkpt>
      <trkpt lat="43.47585" lon="2.39958">
        <ele>570.764</ele>
        <time>2021-05-23T09:04:16Z</time>
      </trkpt>
      <trkpt lat="43.47585" lon="2.39961">
        <ele>570.722</ele>
        <time>2021-05-23T09:04:18Z</time>
      </trkpt>
      <trkpt lat="43.47584" lon="2.39964">
        <ele>571.02</ele>
        <time>2021-05-23T09:04:20Z</time>
      </trkpt>
      <trkpt lat="43.47583" lon="2.39968">
        <ele>571.266</ele>
        <time>2021-05-23T09:04:22Z</time>
      </trkpt>
      <trkpt lat="43.47583" lon="2.39972">
        <ele>570.805</ele>
        <time>2021-05-23T09:04:24Z</time>
      </trkpt>
      <trkpt lat="43.47582" lon="2.39975">
        <ele>570.538</ele>
        <time>2021-05-23T09:04:26Z</time>
      </trkpt>
      <trkpt lat="43.47581" lon="2.39978">
        <ele>570.547</ele>
        <time>2021-05-23T09:04:28Z</time>
      </trkpt>
      <trkpt lat="43.4758" lon="2.39981">
        <ele>569.824</ele>
        <time>2021-05-23T09:04:30Z</time>
      </trkpt>
      <trkpt lat="43.47579" lon="2.39984">
        <ele>569.679</ele>
        <time>2021-05-23T09:04:32Z</time>
      </trkpt>
      <trkpt lat="43.47578" lon="2.39987">
        <ele>569.491</ele>
        <time>2021-05-23T09:04:34Z</time>
      </trkpt>
      <trkpt lat="43.47578" lon="2.3999">
        <ele>569.132</ele>
        <time>2021-05-23T09:04:36Z</time>
      </trkpt>
      <trkpt lat="43.47577" lon="2.39993">
        <ele>569.694</ele>
        <time>2021-05-23T09:04:38Z</time>
      </trkpt>
      <trkpt lat="43.47576" lon="2.39996">
        <ele>569.999</ele>
        <time>2021-05-23T09:04:40Z</time>
      </trkpt>
      <trkpt lat="43.47575" lon="2.40001">
        <ele>569.466</ele>
        <time>2021-05-23T09:04:43Z</time>
      </trkpt>
      <trkpt lat="43.47575" lon="2.40004">
        <ele>569.213</ele>
        <time>2021-05-23T09:04:45Z</time>
      </trkpt>
      <trkpt lat="43.47574" lon="2.40007">
        <ele>568.804</ele>
        <time>2021-05-23T09:04:47Z</time>
      </trkpt>
      <trkpt lat="43.47574" lon="2.4001">
        <ele>569.198</ele>
        <time>2021-05-23T09:04:49Z</time>
      </trkpt>
      <trkpt lat="43.47573" lon="2.40013">
        <ele>569.867</ele>
        <time>2021-05-23T09:04:51Z</time>
      </trkpt>
      <trkpt lat="43.47573" lon="2.40016">
        <ele>569.478</ele>
        <time>2021-05-23T09:04:53Z</time>
      </trkpt>
      <trkpt lat="43.47572" lon="2.40019">
        <ele>569.996</ele>
        <time>2021-05-23T09:04:55Z</time>
      </trkpt>
      <trkpt lat="43.47572" lon="2.40019">
        <ele>570.016</ele>
        <time>2021-05-23T09:04:57Z</time>
      </trkpt>
      <trkpt lat="43.47572" lon="2.40019">
        <ele>570.02</ele>
        <time>2021-05-23T09:04:59Z</time>
      </trkpt>
      <trkpt lat="43.47572" lon="2.40019">
        <ele>570.02</ele>
        <time>2021-05-23T09:05:01Z</time>
      </trkpt>
      <trkpt lat="43.47572" lon="2.40019">
        <ele>570.033</ele>
        <time>2021-05-23T09:05:03Z</time>
      </trkpt>
      <trkpt lat="43.47572" lon="2.40019">
        <ele>570.041</ele>
        <time>2021-05-23T09:05:05Z</time>
      </trkpt>
      <trkpt lat="43.47572" lon="2.40019">
        <ele>570.045</ele>
        <time>2021-05-23T09:05:07Z</time>
      </trkpt>
      <trkpt lat="43.47572" lon="2.40019">
        <ele>570.051</ele>
        <time>2021-05-23T09:05:09Z</time>
      </trkpt>
      <trkpt lat="43.47572" lon="2.40019">
        <ele>570.048</ele>
        <time>2021-05-23T09:05:11Z</time>
      </trkpt>
      <trkpt lat="43.47572" lon="2.40019">
        <ele>570.135</ele>
        <time>2021-05-23T09:05:13Z</time>
      </trkpt>
      <trkpt lat="43.47572" lon="2.40019">
        <ele>570.238</ele>
        <time>2021-05-23T09:05:15Z</time>
      </trkpt>
      <trkpt lat="43.47572" lon="2.40021">
        <ele>570.619</ele>
        <time>2021-05-23T09:05:17Z</time>
      </trkpt>
      <trkpt lat="43.47571" lon="2.40023">
        <ele>571.309</ele>
        <time>2021-05-23T09:05:19Z</time>
      </trkpt>
      <trkpt lat="43.4757" lon="2.40023">
        <ele>571.493</ele>
        <time>2021-05-23T09:05:21Z</time>
      </trkpt>
      <trkpt lat="43.4757" lon="2.40023">
        <ele>571.491</ele>
        <time>2021-05-23T09:05:23Z</time>
      </trkpt>
      <trkpt lat="43.4757" lon="2.40024">
        <ele>570.651</ele>
        <time>2021-05-23T09:05:26Z</time>
      </trkpt>
      <trkpt lat="43.47569" lon="2.40026">
        <ele>570.719</ele>
        <time>2021-05-23T09:05:28Z</time>
      </trkpt>
      <trkpt lat="43.47569" lon="2.40028">
        <ele>571.253</ele>
        <time>2021-05-23T09:05:30Z</time>
      </trkpt>
      <trkpt lat="43.47567" lon="2.40031">
        <ele>572.326</ele>
        <time>2021-05-23T09:05:32Z</time>
      </trkpt>
      <trkpt lat="43.47566" lon="2.40034">
        <ele>572.929</ele>
        <time>2021-05-23T09:05:34Z</time>
      </trkpt>
      <trkpt lat="43.47565" lon="2.40037">
        <ele>573.899</ele>
        <time>2021-05-23T09:05:36Z</time>
      </trkpt>
      <trkpt lat="43.47564" lon="2.40039">
        <ele>573.96</ele>
        <time>2021-05-23T09:05:38Z</time>
      </trkpt>
      <trkpt lat="43.47563" lon="2.40042">
        <ele>574.586</ele>
        <time>2021-05-23T09:05:40Z</time>
      </trkpt>
      <trkpt lat="43.47562" lon="2.40044">
        <ele>574.969</ele>
        <time>2021-05-23T09:05:42Z</time>
      </trkpt>
      <trkpt lat="43.47561" lon="2.40047">
        <ele>574.971</ele>
        <time>2021-05-23T09:05:44Z</time>
      </trkpt>
      <trkpt lat="43.4756" lon="2.40049">
        <ele>574.13</ele>
        <time>2021-05-23T09:05:46Z</time>
      </trkpt>
      <trkpt lat="43.4756" lon="2.40052">
        <ele>573.608</ele>
        <time>2021-05-23T09:05:48Z</time>
      </trkpt>
      <trkpt lat="43.47559" lon="2.40055">
        <ele>573.572</ele>
        <time>2021-05-23T09:05:50Z</time>
      </trkpt>
      <trkpt lat="43.47559" lon="2.40058">
        <ele>573.841</ele>
        <time>2021-05-23T09:05:52Z</time>
      </trkpt>
      <trkpt lat="43.47558" lon="2.40061">
        <ele>574.103</ele>
        <time>2021-05-23T09:05:54Z</time>
      </trkpt>
      <trkpt lat="43.47558" lon="2.40064">
        <ele>573.629</ele>
        <time>2021-05-23T09:05:56Z</time>
      </trkpt>
      <trkpt lat="43.47557" lon="2.40067">
        <ele>573.388</ele>
        <time>2021-05-23T09:05:58Z</time>
      </trkpt>
      <trkpt lat="43.47556" lon="2.40069">
        <ele>573.958</ele>
        <time>2021-05-23T09:06:00Z</time>
      </trkpt>
      <trkpt lat="43.47555" lon="2.40072">
        <ele>572.916</ele>
        <time>2021-05-23T09:06:02Z</time>
      </trkpt>
      <trkpt lat="43.47554" lon="2.40075">
        <ele>573.144</ele>
        <time>2021-05-23T09:06:04Z</time>
      </trkpt>
      <trkpt lat="43.47554" lon="2.40078">
        <ele>572.89</ele>
        <time>2021-05-23T09:06:06Z</time>
      </trkpt>
      <trkpt lat="43.47554" lon="2.4008">
        <ele>573.16</ele>
        <time>2021-05-23T09:06:08Z</time>
      </trkpt>
      <trkpt lat="43.47554" lon="2.40083">
        <ele>572.99</ele>
        <time>2021-05-23T09:06:10Z</time>
      </trkpt>
      <trkpt lat="43.47554" lon="2.40085">
        <ele>571.569</ele>
        <time>2021-05-23T09:06:12Z</time>
      </trkpt>
      <trkpt lat="43.47554" lon="2.40088">
        <ele>571.449</ele>
        <time>2021-05-23T09:06:14Z</time>
      </trkpt>
      <trkpt lat="43.47554" lon="2.4009">
        <ele>571.282</ele>
        <time>2021-05-23T09:06:16Z</time>
      </trkpt>
      <trkpt lat="43.47554" lon="2.40093">
        <ele>570.257</ele>
        <time>2021-05-23T09:06:18Z</time>
      </trkpt>
      <trkpt lat="43.47554" lon="2.40093">
        <ele>570.244</ele>
        <time>2021-05-23T09:06:20Z</time>
      </trkpt>
      <trkpt lat="43.47554" lon="2.40095">
        <ele>570.589</ele>
        <time>2021-05-23T09:06:22Z</time>
      </trkpt>
      <trkpt lat="43.47554" lon="2.40097">
        <ele>570.895</ele>
        <time>2021-05-23T09:06:24Z</time>
      </trkpt>
      <trkpt lat="43.47553" lon="2.401">
        <ele>572.181</ele>
        <time>2021-05-23T09:06:26Z</time>
      </trkpt>
      <trkpt lat="43.47553" lon="2.40102">
        <ele>572.63</ele>
        <time>2021-05-23T09:06:28Z</time>
      </trkpt>
      <trkpt lat="43.47553" lon="2.40104">
        <ele>572.001</ele>
        <time>2021-05-23T09:06:30Z</time>
      </trkpt>
      <trkpt lat="43.47554" lon="2.40105">
        <ele>571.601</ele>
        <time>2021-05-23T09:06:32Z</time>
      </trkpt>
      <trkpt lat="43.47554" lon="2.40107">
        <ele>572.592</ele>
        <time>2021-05-23T09:06:34Z</time>
      </trkpt>
      <trkpt lat="43.47555" lon="2.40109">
        <ele>572.618</ele>
        <time>2021-05-23T09:06:36Z</time>
      </trkpt>
      <trkpt lat="43.47555" lon="2.40111">
        <ele>573.128</ele>
        <time>2021-05-23T09:06:38Z</time>
      </trkpt>
      <trkpt lat="43.47556" lon="2.40114">
        <ele>573.899</ele>
        <time>2021-05-23T09:06:40Z</time>
      </trkpt>
      <trkpt lat="43.47556" lon="2.40116">
        <ele>574.056</ele>
        <time>2021-05-23T09:06:42Z</time>
      </trkpt>
      <trkpt lat="43.47557" lon="2.40118">
        <ele>574.549</ele>
        <time>2021-05-23T09:06:44Z</time>
      </trkpt>
      <trkpt lat="43.47558" lon="2.4012">
        <ele>575.384</ele>
        <time>2021-05-23T09:06:46Z</time>
      </trkpt>
      <trkpt lat="43.47559" lon="2.4012">
        <ele>574.776</ele>
        <time>2021-05-23T09:06:48Z</time>
      </trkpt>
      <trkpt lat="43.47561" lon="2.40121">
        <ele>574.846</ele>
        <time>2021-05-23T09:06:50Z</time>
      </trkpt>
      <trkpt lat="43.47562" lon="2.40123">
        <ele>575.559</ele>
        <time>2021-05-23T09:06:52Z</time>
      </trkpt>
      <trkpt lat="43.47564" lon="2.40124">
        <ele>577.308</ele>
        <time>2021-05-23T09:06:54Z</time>
      </trkpt>
      <trkpt lat="43.47564" lon="2.40124">
        <ele>578</ele>
        <time>2021-05-23T09:06:56Z</time>
      </trkpt>
      <trkpt lat="43.47564" lon="2.40124">
        <ele>578.001</ele>
        <time>2021-05-23T09:06:58Z</time>
      </trkpt>
      <trkpt lat="43.47564" lon="2.40124">
        <ele>578.002</ele>
        <time>2021-05-23T09:07:00Z</time>
      </trkpt>
      <trkpt lat="43.47565" lon="2.40125">
        <ele>578.089</ele>
        <time>2021-05-23T09:07:02Z</time>
      </trkpt>
      <trkpt lat="43.47566" lon="2.40125">
        <ele>578.286</ele>
        <time>2021-05-23T09:07:04Z</time>
      </trkpt>
      <trkpt lat="43.47567" lon="2.40125">
        <ele>578.275</ele>
        <time>2021-05-23T09:07:06Z</time>
      </trkpt>
      <trkpt lat="43.47567" lon="2.40125">
        <ele>578.283</ele>
        <time>2021-05-23T09:07:08Z</time>
      </trkpt>
      <trkpt lat="43.47567" lon="2.40125">
        <ele>578.637</ele>
        <time>2021-05-23T09:07:10Z</time>
      </trkpt>
      <trkpt lat="43.47568" lon="2.40126">
        <ele>579.392</ele>
        <time>2021-05-23T09:07:12Z</time>
      </trkpt>
      <trkpt lat="43.47569" lon="2.40127">
        <ele>579.481</ele>
        <time>2021-05-23T09:07:14Z</time>
      </trkpt>
      <trkpt lat="43.47571" lon="2.40127">
        <ele>579.918</ele>
        <time>2021-05-23T09:07:16Z</time>
      </trkpt>
      <trkpt lat="43.47571" lon="2.40127">
        <ele>579.866</ele>
        <time>2021-05-23T09:07:18Z</time>
      </trkpt>
      <trkpt lat="43.47572" lon="2.40127">
        <ele>579.277</ele>
        <time>2021-05-23T09:07:20Z</time>
      </trkpt>
      <trkpt lat="43.47573" lon="2.40127">
        <ele>579.79</ele>
        <time>2021-05-23T09:07:22Z</time>
      </trkpt>
      <trkpt lat="43.47575" lon="2.40126">
        <ele>579.495</ele>
        <time>2021-05-23T09:07:24Z</time>
      </trkpt>
      <trkpt lat="43.47576" lon="2.40126">
        <ele>578.167</ele>
        <time>2021-05-23T09:07:26Z</time>
      </trkpt>
      <trkpt lat="43.47578" lon="2.40125">
        <ele>578.089</ele>
        <time>2021-05-23T09:07:28Z</time>
      </trkpt>
      <trkpt lat="43.4758" lon="2.40125">
        <ele>579.288</ele>
        <time>2021-05-23T09:07:30Z</time>
      </trkpt>
      <trkpt lat="43.47582" lon="2.40126">
        <ele>580.634</ele>
        <time>2021-05-23T09:07:32Z</time>
      </trkpt>
      <trkpt lat="43.47584" lon="2.40126">
        <ele>580.891</ele>
        <time>2021-05-23T09:07:34Z</time>
      </trkpt>
      <trkpt lat="43.47585" lon="2.40125">
        <ele>581.215</ele>
        <time>2021-05-23T09:07:36Z</time>
      </trkpt>
      <trkpt lat="43.47587" lon="2.40125">
        <ele>580.247</ele>
        <time>2021-05-23T09:07:38Z</time>
      </trkpt>
      <trkpt lat="43.4759" lon="2.40124">
        <ele>579.705</ele>
        <time>2021-05-23T09:07:40Z</time>
      </trkpt>
      <trkpt lat="43.47592" lon="2.40123">
        <ele>579.603</ele>
        <time>2021-05-23T09:07:42Z</time>
      </trkpt>
      <trkpt lat="43.47593" lon="2.40123">
        <ele>578.619</ele>
        <time>2021-05-23T09:07:44Z</time>
      </trkpt>
      <trkpt lat="43.47594" lon="2.40122">
        <ele>578.548</ele>
        <time>2021-05-23T09:07:46Z</time>
      </trkpt>
      <trkpt lat="43.47596" lon="2.40121">
        <ele>578.143</ele>
        <time>2021-05-23T09:07:48Z</time>
      </trkpt>
      <trkpt lat="43.47598" lon="2.4012">
        <ele>578.148</ele>
        <time>2021-05-23T09:07:50Z</time>
      </trkpt>
      <trkpt lat="43.47597" lon="2.40123">
        <ele>578.087</ele>
        <time>2021-05-23T09:07:52Z</time>
      </trkpt>
      <trkpt lat="43.47595" lon="2.40124">
        <ele>578.606</ele>
        <time>2021-05-23T09:07:54Z</time>
      </trkpt>
      <trkpt lat="43.47594" lon="2.40125">
        <ele>579.591</ele>
        <time>2021-05-23T09:07:56Z</time>
      </trkpt>
      <trkpt lat="43.47594" lon="2.40125">
        <ele>579.615</ele>
        <time>2021-05-23T09:07:57Z</time>
      </trkpt>
      <trkpt lat="43.47592" lon="2.40125">
        <ele>579.708</ele>
        <time>2021-05-23T09:08:00Z</time>
      </trkpt>
      <trkpt lat="43.47591" lon="2.40124">
        <ele>579.884</ele>
        <time>2021-05-23T09:08:03Z</time>
      </trkpt>
      <trkpt lat="43.47592" lon="2.40124">
        <ele>579.913</ele>
        <time>2021-05-23T09:08:05Z</time>
      </trkpt>
      <trkpt lat="43.47592" lon="2.40124">
        <ele>579.914</ele>
        <time>2021-05-23T09:08:08Z</time>
      </trkpt>
      <trkpt lat="43.47592" lon="2.40124">
        <ele>579.676</ele>
        <time>2021-05-23T09:08:10Z</time>
      </trkpt>
      <trkpt lat="43.47591" lon="2.40123">
        <ele>579.054</ele>
        <time>2021-05-23T09:08:12Z</time>
      </trkpt>
      <trkpt lat="43.47589" lon="2.40123">
        <ele>578.111</ele>
        <time>2021-05-23T09:08:14Z</time>
      </trkpt>
      <trkpt lat="43.47587" lon="2.40124">
        <ele>578.558</ele>
        <time>2021-05-23T09:08:17Z</time>
      </trkpt>
      <trkpt lat="43.47584" lon="2.40124">
        <ele>578.553</ele>
        <time>2021-05-23T09:08:19Z</time>
      </trkpt>
      <trkpt lat="43.47583" lon="2.40125">
        <ele>580.955</ele>
        <time>2021-05-23T09:08:21Z</time>
      </trkpt>
      <trkpt lat="43.47581" lon="2.40125">
        <ele>581.977</ele>
        <time>2021-05-23T09:08:23Z</time>
      </trkpt>
      <trkpt lat="43.47579" lon="2.40126">
        <ele>581.545</ele>
        <time>2021-05-23T09:08:25Z</time>
      </trkpt>
      <trkpt lat="43.47577" lon="2.40127">
        <ele>581.371</ele>
        <time>2021-05-23T09:08:27Z</time>
      </trkpt>
      <trkpt lat="43.47575" lon="2.40128">
        <ele>580.295</ele>
        <time>2021-05-23T09:08:29Z</time>
      </trkpt>
      <trkpt lat="43.47573" lon="2.40128">
        <ele>578.723</ele>
        <time>2021-05-23T09:08:31Z</time>
      </trkpt>
      <trkpt lat="43.4757" lon="2.40128">
        <ele>577.159</ele>
        <time>2021-05-23T09:08:33Z</time>
      </trkpt>
      <trkpt lat="43.47569" lon="2.40127">
        <ele>576.43</ele>
        <time>2021-05-23T09:08:35Z</time>
      </trkpt>
      <trkpt lat="43.47567" lon="2.40125">
        <ele>574.745</ele>
        <time>2021-05-23T09:08:37Z</time>
      </trkpt>
      <trkpt lat="43.47566" lon="2.40124">
        <ele>574.212</ele>
        <time>2021-05-23T09:08:39Z</time>
      </trkpt>
      <trkpt lat="43.47563" lon="2.40121">
        <ele>573.597</ele>
        <time>2021-05-23T09:08:41Z</time>
      </trkpt>
      <trkpt lat="43.47561" lon="2.4012">
        <ele>573.587</ele>
        <time>2021-05-23T09:08:43Z</time>
      </trkpt>
      <trkpt lat="43.4756" lon="2.40119">
        <ele>573.593</ele>
        <time>2021-05-23T09:08:45Z</time>
      </trkpt>
      <trkpt lat="43.47558" lon="2.40118">
        <ele>573.753</ele>
        <time>2021-05-23T09:08:47Z</time>
      </trkpt>
      <trkpt lat="43.47556" lon="2.40116">
        <ele>574.699</ele>
        <time>2021-05-23T09:08:49Z</time>
      </trkpt>
      <trkpt lat="43.47555" lon="2.40114">
        <ele>575.84</ele>
        <time>2021-05-23T09:08:51Z</time>
      </trkpt>
      <trkpt lat="43.47554" lon="2.40113">
        <ele>577.094</ele>
        <time>2021-05-23T09:08:53Z</time>
      </trkpt>
      <trkpt lat="43.47554" lon="2.40111">
        <ele>576.546</ele>
        <time>2021-05-23T09:08:55Z</time>
      </trkpt>
      <trkpt lat="43.47554" lon="2.40108">
        <ele>577.186</ele>
        <time>2021-05-23T09:08:57Z</time>
      </trkpt>
      <trkpt lat="43.47555" lon="2.40105">
        <ele>576.573</ele>
        <time>2021-05-23T09:08:59Z</time>
      </trkpt>
      <trkpt lat="43.47555" lon="2.40103">
        <ele>575.618</ele>
        <time>2021-05-23T09:09:01Z</time>
      </trkpt>
      <trkpt lat="43.47555" lon="2.40101">
        <ele>574.224</ele>
        <time>2021-05-23T09:09:03Z</time>
      </trkpt>
      <trkpt lat="43.47555" lon="2.40101">
        <ele>573.911</ele>
        <time>2021-05-23T09:09:05Z</time>
      </trkpt>
      <trkpt lat="43.47554" lon="2.40101">
        <ele>572.942</ele>
        <time>2021-05-23T09:09:07Z</time>
      </trkpt>
      <trkpt lat="43.47555" lon="2.401">
        <ele>572.41</ele>
        <time>2021-05-23T09:09:09Z</time>
      </trkpt>
      <trkpt lat="43.47554" lon="2.401">
        <ele>571.789</ele>
        <time>2021-05-23T09:09:11Z</time>
      </trkpt>
      <trkpt lat="43.47554" lon="2.40102">
        <ele>571.622</ele>
        <time>2021-05-23T09:09:13Z</time>
      </trkpt>
      <trkpt lat="43.47554" lon="2.40104">
        <ele>572.052</ele>
        <time>2021-05-23T09:09:15Z</time>
      </trkpt>
      <trkpt lat="43.47554" lon="2.40105">
        <ele>572.379</ele>
        <time>2021-05-23T09:09:17Z</time>
      </trkpt>
      <trkpt lat="43.47553" lon="2.40107">
        <ele>572.606</ele>
        <time>2021-05-23T09:09:19Z</time>
      </trkpt>
      <trkpt lat="43.47552" lon="2.40108">
        <ele>572.986</ele>
        <time>2021-05-23T09:09:21Z</time>
      </trkpt>
      <trkpt lat="43.47552" lon="2.40109">
        <ele>572.376</ele>
        <time>2021-05-23T09:09:23Z</time>
      </trkpt>
      <trkpt lat="43.4755" lon="2.40109">
        <ele>572.116</ele>
        <time>2021-05-23T09:09:25Z</time>
      </trkpt>
      <trkpt lat="43.47549" lon="2.40109">
        <ele>572.016</ele>
        <time>2021-05-23T09:09:27Z</time>
      </trkpt>
      <trkpt lat="43.47549" lon="2.4011">
        <ele>571.017</ele>
        <time>2021-05-23T09:09:29Z</time>
      </trkpt>
      <trkpt lat="43.47548" lon="2.40111">
        <ele>570.839</ele>
        <time>2021-05-23T09:09:31Z</time>
      </trkpt>
      <trkpt lat="43.47546" lon="2.40112">
        <ele>570.593</ele>
        <time>2021-05-23T09:09:33Z</time>
      </trkpt>
      <trkpt lat="43.47545" lon="2.40113">
        <ele>570.956</ele>
        <time>2021-05-23T09:09:35Z</time>
      </trkpt>
      <trkpt lat="43.47544" lon="2.40115">
        <ele>570.877</ele>
        <time>2021-05-23T09:09:37Z</time>
      </trkpt>
      <trkpt lat="43.47542" lon="2.40116">
        <ele>571.563</ele>
        <time>2021-05-23T09:09:39Z</time>
      </trkpt>
      <trkpt lat="43.47542" lon="2.40118">
        <ele>571.996</ele>
        <time>2021-05-23T09:09:41Z</time>
      </trkpt>
      <trkpt lat="43.47542" lon="2.4012">
        <ele>572.72</ele>
        <time>2021-05-23T09:09:43Z</time>
      </trkpt>
      <trkpt lat="43.47542" lon="2.40122">
        <ele>572.946</ele>
        <time>2021-05-23T09:09:45Z</time>
      </trkpt>
      <trkpt lat="43.47541" lon="2.40124">
        <ele>573.74</ele>
        <time>2021-05-23T09:09:47Z</time>
      </trkpt>
      <trkpt lat="43.47541" lon="2.40126">
        <ele>574.545</ele>
        <time>2021-05-23T09:09:49Z</time>
      </trkpt>
      <trkpt lat="43.47541" lon="2.40128">
        <ele>573.663</ele>
        <time>2021-05-23T09:09:51Z</time>
      </trkpt>
      <trkpt lat="43.4754" lon="2.4013">
        <ele>573.005</ele>
        <time>2021-05-23T09:09:53Z</time>
      </trkpt>
      <trkpt lat="43.47539" lon="2.40131">
        <ele>573.288</ele>
        <time>2021-05-23T09:09:55Z</time>
      </trkpt>
      <trkpt lat="43.47539" lon="2.40132">
        <ele>573.369</ele>
        <time>2021-05-23T09:09:57Z</time>
      </trkpt>
      <trkpt lat="43.47539" lon="2.40133">
        <ele>573.431</ele>
        <time>2021-05-23T09:09:59Z</time>
      </trkpt>
      <trkpt lat="43.47539" lon="2.40134">
        <ele>573.209</ele>
        <time>2021-05-23T09:10:01Z</time>
      </trkpt>
      <trkpt lat="43.4754" lon="2.40136">
        <ele>573.432</ele>
        <time>2021-05-23T09:10:03Z</time>
      </trkpt>
      <trkpt lat="43.4754" lon="2.40138">
        <ele>572.453</ele>
        <time>2021-05-23T09:10:05Z</time>
      </trkpt>
      <trkpt lat="43.4754" lon="2.4014">
        <ele>572.51</ele>
        <time>2021-05-23T09:10:07Z</time>
      </trkpt>
      <trkpt lat="43.47539" lon="2.40143">
        <ele>571.36</ele>
        <time>2021-05-23T09:10:09Z</time>
      </trkpt>
      <trkpt lat="43.47538" lon="2.40145">
        <ele>572.383</ele>
        <time>2021-05-23T09:10:11Z</time>
      </trkpt>
      <trkpt lat="43.47537" lon="2.40147">
        <ele>572.301</ele>
        <time>2021-05-23T09:10:13Z</time>
      </trkpt>
      <trkpt lat="43.47537" lon="2.40148">
        <ele>573.553</ele>
        <time>2021-05-23T09:10:15Z</time>
      </trkpt>
      <trkpt lat="43.47537" lon="2.4015">
        <ele>573.729</ele>
        <time>2021-05-23T09:10:17Z</time>
      </trkpt>
      <trkpt lat="43.47537" lon="2.4015">
        <ele>574.973</ele>
        <time>2021-05-23T09:10:19Z</time>
      </trkpt>
      <trkpt lat="43.47537" lon="2.40152">
        <ele>574.664</ele>
        <time>2021-05-23T09:10:21Z</time>
      </trkpt>
      <trkpt lat="43.47536" lon="2.40154">
        <ele>573.936</ele>
        <time>2021-05-23T09:10:23Z</time>
      </trkpt>
      <trkpt lat="43.47536" lon="2.40155">
        <ele>573.56</ele>
        <time>2021-05-23T09:10:25Z</time>
      </trkpt>
      <trkpt lat="43.47537" lon="2.40156">
        <ele>573.985</ele>
        <time>2021-05-23T09:10:27Z</time>
      </trkpt>
      <trkpt lat="43.47537" lon="2.40158">
        <ele>572.97</ele>
        <time>2021-05-23T09:10:29Z</time>
      </trkpt>
      <trkpt lat="43.47538" lon="2.4016">
        <ele>573.105</ele>
        <time>2021-05-23T09:10:31Z</time>
      </trkpt>
      <trkpt lat="43.47539" lon="2.4016">
        <ele>572.979</ele>
        <time>2021-05-23T09:10:33Z</time>
      </trkpt>
      <trkpt lat="43.47538" lon="2.4016">
        <ele>573.101</ele>
        <time>2021-05-23T09:10:35Z</time>
      </trkpt>
      <trkpt lat="43.47538" lon="2.40159">
        <ele>573.1</ele>
        <time>2021-05-23T09:10:37Z</time>
      </trkpt>
      <trkpt lat="43.47538" lon="2.40159">
        <ele>573.104</ele>
        <time>2021-05-23T09:10:39Z</time>
      </trkpt>
      <trkpt lat="43.47538" lon="2.40159">
        <ele>573.109</ele>
        <time>2021-05-23T09:10:41Z</time>
      </trkpt>
      <trkpt lat="43.47538" lon="2.40159">
        <ele>573.11</ele>
        <time>2021-05-23T09:10:43Z</time>
      </trkpt>
      <trkpt lat="43.47538" lon="2.40159">
        <ele>573.111</ele>
        <time>2021-05-23T09:10:45Z</time>
      </trkpt>
      <trkpt lat="43.47538" lon="2.40159">
        <ele>573.113</ele>
        <time>2021-05-23T09:10:47Z</time>
      </trkpt>
      <trkpt lat="43.47538" lon="2.40159">
        <ele>573.119</ele>
        <time>2021-05-23T09:10:49Z</time>
      </trkpt>
      <trkpt lat="43.47538" lon="2.40159">
        <ele>573.12</ele>
        <time>2021-05-23T09:10:51Z</time>
      </trkpt>
      <trkpt lat="43.47538" lon="2.40159">
        <ele>573.117</ele>
        <time>2021-05-23T09:10:53Z</time>
      </trkpt>
      <trkpt lat="43.47539" lon="2.40159">
        <ele>574.011</ele>
        <time>2021-05-23T09:10:55Z</time>
      </trkpt>
      <trkpt lat="43.47539" lon="2.40159">
        <ele>574.032</ele>
        <time>2021-05-23T09:10:57Z</time>
      </trkpt>
      <trkpt lat="43.47539" lon="2.40159">
        <ele>574.029</ele>
        <time>2021-05-23T09:10:59Z</time>
      </trkpt>
      <trkpt lat="43.47539" lon="2.40159">
        <ele>574.028</ele>
        <time>2021-05-23T09:11:01Z</time>
      </trkpt>
      <trkpt lat="43.47539" lon="2.40159">
        <ele>574.026</ele>
        <time>2021-05-23T09:11:03Z</time>
      </trkpt>
      <trkpt lat="43.47539" lon="2.4016">
        <ele>573.959</ele>
        <time>2021-05-23T09:11:05Z</time>
      </trkpt>
      <trkpt lat="43.47539" lon="2.4016">
        <ele>573.96</ele>
        <time>2021-05-23T09:11:07Z</time>
      </trkpt>
      <trkpt lat="43.47539" lon="2.40159">
        <ele>573.955</ele>
        <time>2021-05-23T09:11:09Z</time>
      </trkpt>
      <trkpt lat="43.47539" lon="2.40159">
        <ele>573.949</ele>
        <time>2021-05-23T09:11:11Z</time>
      </trkpt>
      <trkpt lat="43.47539" lon="2.40159">
        <ele>573.946</ele>
        <time>2021-05-23T09:11:13Z</time>
      </trkpt>
      <trkpt lat="43.47539" lon="2.40159">
        <ele>573.95</ele>
        <time>2021-05-23T09:11:15Z</time>
      </trkpt>
      <trkpt lat="43.47539" lon="2.4016">
        <ele>573.95</ele>
        <time>2021-05-23T09:11:17Z</time>
      </trkpt>
      <trkpt lat="43.47539" lon="2.4016">
        <ele>573.945</ele>
        <time>2021-05-23T09:11:19Z</time>
      </trkpt>
      <trkpt lat="43.47539" lon="2.4016">
        <ele>573.951</ele>
        <time>2021-05-23T09:11:21Z</time>
      </trkpt>
      <trkpt lat="43.47539" lon="2.4016">
        <ele>573.961</ele>
        <time>2021-05-23T09:11:23Z</time>
      </trkpt>
      <trkpt lat="43.47539" lon="2.4016">
        <ele>573.97</ele>
        <time>2021-05-23T09:11:25Z</time>
      </trkpt>
      <trkpt lat="43.47539" lon="2.4016">
        <ele>573.975</ele>
        <time>2021-05-23T09:11:27Z</time>
      </trkpt>
      <trkpt lat="43.47539" lon="2.4016">
        <ele>573.976</ele>
        <time>2021-05-23T09:11:29Z</time>
      </trkpt>
      <trkpt lat="43.47539" lon="2.4016">
        <ele>573.98</ele>
        <time>2021-05-23T09:11:31Z</time>
      </trkpt>
      <trkpt lat="43.47539" lon="2.4016">
        <ele>573.988</ele>
        <time>2021-05-23T09:11:33Z</time>
      </trkpt>
      <trkpt lat="43.47539" lon="2.4016">
        <ele>573.986</ele>
        <time>2021-05-23T09:11:35Z</time>
      </trkpt>
      <trkpt lat="43.47539" lon="2.4016">
        <ele>573.988</ele>
        <time>2021-05-23T09:11:37Z</time>
      </trkpt>
      <trkpt lat="43.47539" lon="2.4016">
        <ele>573.996</ele>
        <time>2021-05-23T09:11:39Z</time>
      </trkpt>
      <trkpt lat="43.47539" lon="2.4016">
        <ele>573.994</ele>
        <time>2021-05-23T09:11:41Z</time>
      </trkpt>
      <trkpt lat="43.47539" lon="2.4016">
        <ele>574.064</ele>
        <time>2021-05-23T09:11:43Z</time>
      </trkpt>
      <trkpt lat="43.47539" lon="2.4016">
        <ele>574.062</ele>
        <time>2021-05-23T09:11:45Z</time>
      </trkpt>
      <trkpt lat="43.47539" lon="2.4016">
        <ele>574.064</ele>
        <time>2021-05-23T09:11:47Z</time>
      </trkpt>
      <trkpt lat="43.47539" lon="2.4016">
        <ele>574.064</ele>
        <time>2021-05-23T09:11:49Z</time>
      </trkpt>
      <trkpt lat="43.47539" lon="2.4016">
        <ele>574.064</ele>
        <time>2021-05-23T09:11:51Z</time>
      </trkpt>
      <trkpt lat="43.47539" lon="2.4016">
        <ele>574.066</ele>
        <time>2021-05-23T09:11:53Z</time>
      </trkpt>
      <trkpt lat="43.47539" lon="2.4016">
        <ele>574.063</ele>
        <time>2021-05-23T09:11:55Z</time>
      </trkpt>
      <trkpt lat="43.47539" lon="2.4016">
        <ele>574.061</ele>
        <time>2021-05-23T09:11:57Z</time>
      </trkpt>
      <trkpt lat="43.47539" lon="2.4016">
        <ele>574.063</ele>
        <time>2021-05-23T09:11:59Z</time>
      </trkpt>
      <trkpt lat="43.47539" lon="2.4016">
        <ele>574.06</ele>
        <time>2021-05-23T09:12:01Z</time>
      </trkpt>
      <trkpt lat="43.47539" lon="2.4016">
        <ele>574.06</ele>
        <time>2021-05-23T09:12:03Z</time>
      </trkpt>
      <trkpt lat="43.47539" lon="2.4016">
        <ele>574.064</ele>
        <time>2021-05-23T09:12:05Z</time>
      </trkpt>
      <trkpt lat="43.47539" lon="2.4016">
        <ele>574.06</ele>
        <time>2021-05-23T09:12:07Z</time>
      </trkpt>
      <trkpt lat="43.47539" lon="2.4016">
        <ele>574.053</ele>
        <time>2021-05-23T09:12:09Z</time>
      </trkpt>
      <trkpt lat="43.47539" lon="2.4016">
        <ele>574.047</ele>
        <time>2021-05-23T09:12:11Z</time>
      </trkpt>
      <trkpt lat="43.47539" lon="2.4016">
        <ele>574.045</ele>
        <time>2021-05-23T09:12:13Z</time>
      </trkpt>
      <trkpt lat="43.47539" lon="2.4016">
        <ele>574.039</ele>
        <time>2021-05-23T09:12:15Z</time>
      </trkpt>
      <trkpt lat="43.47539" lon="2.4016">
        <ele>574.036</ele>
        <time>2021-05-23T09:12:17Z</time>
      </trkpt>
      <trkpt lat="43.47539" lon="2.4016">
        <ele>574.039</ele>
        <time>2021-05-23T09:12:19Z</time>
      </trkpt>
      <trkpt lat="43.47539" lon="2.4016">
        <ele>574.043</ele>
        <time>2021-05-23T09:12:21Z</time>
      </trkpt>
      <trkpt lat="43.47539" lon="2.4016">
        <ele>574.044</ele>
        <time>2021-05-23T09:12:23Z</time>
      </trkpt>
      <trkpt lat="43.47539" lon="2.4016">
        <ele>574.048</ele>
        <time>2021-05-23T09:12:25Z</time>
      </trkpt>
      <trkpt lat="43.47539" lon="2.4016">
        <ele>574.047</ele>
        <time>2021-05-23T09:12:27Z</time>
      </trkpt>
      <trkpt lat="43.47539" lon="2.4016">
        <ele>574.035</ele>
        <time>2021-05-23T09:12:29Z</time>
      </trkpt>
      <trkpt lat="43.47539" lon="2.4016">
        <ele>574.021</ele>
        <time>2021-05-23T09:12:31Z</time>
      </trkpt>
      <trkpt lat="43.47539" lon="2.4016">
        <ele>574.009</ele>
        <time>2021-05-23T09:12:33Z</time>
      </trkpt>
      <trkpt lat="43.47539" lon="2.4016">
        <ele>574.008</ele>
        <time>2021-05-23T09:12:35Z</time>
      </trkpt>
      <trkpt lat="43.47539" lon="2.4016">
        <ele>574.008</ele>
        <time>2021-05-23T09:12:37Z</time>
      </trkpt>
      <trkpt lat="43.47539" lon="2.4016">
        <ele>574.007</ele>
        <time>2021-05-23T09:12:39Z</time>
      </trkpt>
      <trkpt lat="43.47539" lon="2.4016">
        <ele>574</ele>
        <time>2021-05-23T09:12:41Z</time>
      </trkpt>
      <trkpt lat="43.47539" lon="2.4016">
        <ele>573.993</ele>
        <time>2021-05-23T09:12:43Z</time>
      </trkpt>
      <trkpt lat="43.47539" lon="2.4016">
        <ele>573.996</ele>
        <time>2021-05-23T09:12:45Z</time>
      </trkpt>
      <trkpt lat="43.47539" lon="2.4016">
        <ele>573.994</ele>
        <time>2021-05-23T09:12:47Z</time>
      </trkpt>
      <trkpt lat="43.47539" lon="2.4016">
        <ele>573.997</ele>
        <time>2021-05-23T09:12:49Z</time>
      </trkpt>
      <trkpt lat="43.47539" lon="2.40159">
        <ele>573.681</ele>
        <time>2021-05-23T09:12:51Z</time>
      </trkpt>
      <trkpt lat="43.47539" lon="2.40159">
        <ele>573.805</ele>
        <time>2021-05-23T09:12:53Z</time>
      </trkpt>
      <trkpt lat="43.47539" lon="2.4016">
        <ele>573.822</ele>
        <time>2021-05-23T09:12:55Z</time>
      </trkpt>
      <trkpt lat="43.47539" lon="2.4016">
        <ele>573.824</ele>
        <time>2021-05-23T09:12:57Z</time>
      </trkpt>
      <trkpt lat="43.47539" lon="2.4016">
        <ele>573.83</ele>
        <time>2021-05-23T09:12:59Z</time>
      </trkpt>
      <trkpt lat="43.47539" lon="2.4016">
        <ele>573.657</ele>
        <time>2021-05-23T09:13:01Z</time>
      </trkpt>
      <trkpt lat="43.47538" lon="2.40159">
        <ele>573.58</ele>
        <time>2021-05-23T09:13:03Z</time>
      </trkpt>
      <trkpt lat="43.47538" lon="2.40157">
        <ele>573.237</ele>
        <time>2021-05-23T09:13:05Z</time>
      </trkpt>
      <trkpt lat="43.47539" lon="2.40156">
        <ele>573.035</ele>
        <time>2021-05-23T09:13:07Z</time>
      </trkpt>
      <trkpt lat="43.4754" lon="2.40155">
        <ele>573.743</ele>
        <time>2021-05-23T09:13:09Z</time>
      </trkpt>
      <trkpt lat="43.4754" lon="2.40153">
        <ele>574.055</ele>
        <time>2021-05-23T09:13:11Z</time>
      </trkpt>
      <trkpt lat="43.4754" lon="2.4015">
        <ele>574.427</ele>
        <time>2021-05-23T09:13:13Z</time>
      </trkpt>
      <trkpt lat="43.47541" lon="2.40147">
        <ele>574.148</ele>
        <time>2021-05-23T09:13:15Z</time>
      </trkpt>
      <trkpt lat="43.47542" lon="2.40145">
        <ele>573.132</ele>
        <time>2021-05-23T09:13:17Z</time>
      </trkpt>
      <trkpt lat="43.47543" lon="2.40144">
        <ele>573.571</ele>
        <time>2021-05-23T09:13:19Z</time>
      </trkpt>
      <trkpt lat="43.47544" lon="2.40141">
        <ele>571.574</ele>
        <time>2021-05-23T09:13:21Z</time>
      </trkpt>
      <trkpt lat="43.47544" lon="2.40138">
        <ele>571.52</ele>
        <time>2021-05-23T09:13:23Z</time>
      </trkpt>
      <trkpt lat="43.47543" lon="2.40135">
        <ele>571.832</ele>
        <time>2021-05-23T09:13:25Z</time>
      </trkpt>
      <trkpt lat="43.47544" lon="2.40132">
        <ele>572.016</ele>
        <time>2021-05-23T09:13:27Z</time>
      </trkpt>
      <trkpt lat="43.47544" lon="2.40129">
        <ele>571.522</ele>
        <time>2021-05-23T09:13:29Z</time>
      </trkpt>
      <trkpt lat="43.47546" lon="2.40126">
        <ele>571.813</ele>
        <time>2021-05-23T09:13:31Z</time>
      </trkpt>
      <trkpt lat="43.47547" lon="2.40123">
        <ele>572.6</ele>
        <time>2021-05-23T09:13:33Z</time>
      </trkpt>
      <trkpt lat="43.47548" lon="2.4012">
        <ele>573.972</ele>
        <time>2021-05-23T09:13:35Z</time>
      </trkpt>
      <trkpt lat="43.47549" lon="2.40119">
        <ele>573.705</ele>
        <time>2021-05-23T09:13:37Z</time>
      </trkpt>
      <trkpt lat="43.4755" lon="2.40119">
        <ele>573.693</ele>
        <time>2021-05-23T09:13:39Z</time>
      </trkpt>
      <trkpt lat="43.4755" lon="2.4012">
        <ele>573.558</ele>
        <time>2021-05-23T09:13:41Z</time>
      </trkpt>
      <trkpt lat="43.47551" lon="2.40119">
        <ele>573.593</ele>
        <time>2021-05-23T09:13:43Z</time>
      </trkpt>
      <trkpt lat="43.47551" lon="2.40119">
        <ele>572.915</ele>
        <time>2021-05-23T09:13:45Z</time>
      </trkpt>
      <trkpt lat="43.47552" lon="2.40119">
        <ele>572.765</ele>
        <time>2021-05-23T09:13:47Z</time>
      </trkpt>
      <trkpt lat="43.47552" lon="2.40119">
        <ele>572.302</ele>
        <time>2021-05-23T09:13:49Z</time>
      </trkpt>
      <trkpt lat="43.47553" lon="2.4012">
        <ele>572.626</ele>
        <time>2021-05-23T09:13:51Z</time>
      </trkpt>
      <trkpt lat="43.47554" lon="2.40121">
        <ele>572.317</ele>
        <time>2021-05-23T09:13:53Z</time>
      </trkpt>
      <trkpt lat="43.47555" lon="2.40122">
        <ele>572.123</ele>
        <time>2021-05-23T09:13:55Z</time>
      </trkpt>
      <trkpt lat="43.47555" lon="2.40123">
        <ele>572.382</ele>
        <time>2021-05-23T09:13:57Z</time>
      </trkpt>
      <trkpt lat="43.47555" lon="2.40124">
        <ele>572.343</ele>
        <time>2021-05-23T09:13:59Z</time>
      </trkpt>
      <trkpt lat="43.47557" lon="2.40125">
        <ele>572.802</ele>
        <time>2021-05-23T09:14:01Z</time>
      </trkpt>
      <trkpt lat="43.47559" lon="2.40126">
        <ele>572.126</ele>
        <time>2021-05-23T09:14:03Z</time>
      </trkpt>
      <trkpt lat="43.47563" lon="2.40128">
        <ele>574.06</ele>
        <time>2021-05-23T09:14:05Z</time>
      </trkpt>
      <trkpt lat="43.47567" lon="2.40131">
        <ele>575.709</ele>
        <time>2021-05-23T09:14:07Z</time>
      </trkpt>
      <trkpt lat="43.47569" lon="2.40133">
        <ele>576.557</ele>
        <time>2021-05-23T09:14:09Z</time>
      </trkpt>
      <trkpt lat="43.4757" lon="2.40132">
        <ele>577</ele>
        <time>2021-05-23T09:14:11Z</time>
      </trkpt>
      <trkpt lat="43.47571" lon="2.40131">
        <ele>576.78</ele>
        <time>2021-05-23T09:14:13Z</time>
      </trkpt>
      <trkpt lat="43.47573" lon="2.40131">
        <ele>575.855</ele>
        <time>2021-05-23T09:14:15Z</time>
      </trkpt>
      <trkpt lat="43.47576" lon="2.4013">
        <ele>574.618</ele>
        <time>2021-05-23T09:14:17Z</time>
      </trkpt>
      <trkpt lat="43.47577" lon="2.40129">
        <ele>575.76</ele>
        <time>2021-05-23T09:14:19Z</time>
      </trkpt>
      <trkpt lat="43.47579" lon="2.40129">
        <ele>576.527</ele>
        <time>2021-05-23T09:14:21Z</time>
      </trkpt>
      <trkpt lat="43.47581" lon="2.40128">
        <ele>575.917</ele>
        <time>2021-05-23T09:14:23Z</time>
      </trkpt>
      <trkpt lat="43.47583" lon="2.40127">
        <ele>575.581</ele>
        <time>2021-05-23T09:14:25Z</time>
      </trkpt>
      <trkpt lat="43.47585" lon="2.40126">
        <ele>575.42</ele>
        <time>2021-05-23T09:14:27Z</time>
      </trkpt>
      <trkpt lat="43.47587" lon="2.40125">
        <ele>575.485</ele>
        <time>2021-05-23T09:14:29Z</time>
      </trkpt>
      <trkpt lat="43.47589" lon="2.40124">
        <ele>575.048</ele>
        <time>2021-05-23T09:14:31Z</time>
      </trkpt>
      <trkpt lat="43.47591" lon="2.40122">
        <ele>574.725</ele>
        <time>2021-05-23T09:14:33Z</time>
      </trkpt>
      <trkpt lat="43.47593" lon="2.40121">
        <ele>574.912</ele>
        <time>2021-05-23T09:14:35Z</time>
      </trkpt>
      <trkpt lat="43.47595" lon="2.40119">
        <ele>575.222</ele>
        <time>2021-05-23T09:14:37Z</time>
      </trkpt>
      <trkpt lat="43.47597" lon="2.40117">
        <ele>574.895</ele>
        <time>2021-05-23T09:14:39Z</time>
      </trkpt>
      <trkpt lat="43.47599" lon="2.40115">
        <ele>574.471</ele>
        <time>2021-05-23T09:14:41Z</time>
      </trkpt>
      <trkpt lat="43.47602" lon="2.40114">
        <ele>575.141</ele>
        <time>2021-05-23T09:14:43Z</time>
      </trkpt>
      <trkpt lat="43.47604" lon="2.40112">
        <ele>575.296</ele>
        <time>2021-05-23T09:14:45Z</time>
      </trkpt>
      <trkpt lat="43.47606" lon="2.40112">
        <ele>575.607</ele>
        <time>2021-05-23T09:14:47Z</time>
      </trkpt>
      <trkpt lat="43.47608" lon="2.40111">
        <ele>575.647</ele>
        <time>2021-05-23T09:14:49Z</time>
      </trkpt>
      <trkpt lat="43.47609" lon="2.40111">
        <ele>575.426</ele>
        <time>2021-05-23T09:14:51Z</time>
      </trkpt>
      <trkpt lat="43.47609" lon="2.40111">
        <ele>574.899</ele>
        <time>2021-05-23T09:14:53Z</time>
      </trkpt>
      <trkpt lat="43.4761" lon="2.40111">
        <ele>574.383</ele>
        <time>2021-05-23T09:14:55Z</time>
      </trkpt>
      <trkpt lat="43.4761" lon="2.40111">
        <ele>574.309</ele>
        <time>2021-05-23T09:14:57Z</time>
      </trkpt>
      <trkpt lat="43.4761" lon="2.40111">
        <ele>574.311</ele>
        <time>2021-05-23T09:14:59Z</time>
      </trkpt>
      <trkpt lat="43.47611" lon="2.40111">
        <ele>573.97</ele>
        <time>2021-05-23T09:15:01Z</time>
      </trkpt>
      <trkpt lat="43.47611" lon="2.40111">
        <ele>575.635</ele>
        <time>2021-05-23T09:15:03Z</time>
      </trkpt>
      <trkpt lat="43.47611" lon="2.40111">
        <ele>574.968</ele>
        <time>2021-05-23T09:15:05Z</time>
      </trkpt>
      <trkpt lat="43.47612" lon="2.40111">
        <ele>574.985</ele>
        <time>2021-05-23T09:15:07Z</time>
      </trkpt>
      <trkpt lat="43.47612" lon="2.40111">
        <ele>574.991</ele>
        <time>2021-05-23T09:15:09Z</time>
      </trkpt>
      <trkpt lat="43.47612" lon="2.40111">
        <ele>575.01</ele>
        <time>2021-05-23T09:15:11Z</time>
      </trkpt>
      <trkpt lat="43.47611" lon="2.40111">
        <ele>575.273</ele>
        <time>2021-05-23T09:15:13Z</time>
      </trkpt>
      <trkpt lat="43.47609" lon="2.40112">
        <ele>575.767</ele>
        <time>2021-05-23T09:15:15Z</time>
      </trkpt>
      <trkpt lat="43.47608" lon="2.40112">
        <ele>575.785</ele>
        <time>2021-05-23T09:15:17Z</time>
      </trkpt>
      <trkpt lat="43.47608" lon="2.40112">
        <ele>575.691</ele>
        <time>2021-05-23T09:15:19Z</time>
      </trkpt>
      <trkpt lat="43.47608" lon="2.40112">
        <ele>575.648</ele>
        <time>2021-05-23T09:15:21Z</time>
      </trkpt>
      <trkpt lat="43.47608" lon="2.40111">
        <ele>575.762</ele>
        <time>2021-05-23T09:15:23Z</time>
      </trkpt>
      <trkpt lat="43.47607" lon="2.4011">
        <ele>575.658</ele>
        <time>2021-05-23T09:15:25Z</time>
      </trkpt>
      <trkpt lat="43.47606" lon="2.4011">
        <ele>575.494</ele>
        <time>2021-05-23T09:15:27Z</time>
      </trkpt>
      <trkpt lat="43.47605" lon="2.40109">
        <ele>575.701</ele>
        <time>2021-05-23T09:15:29Z</time>
      </trkpt>
      <trkpt lat="43.47604" lon="2.40107">
        <ele>575.675</ele>
        <time>2021-05-23T09:15:31Z</time>
      </trkpt>
      <trkpt lat="43.47604" lon="2.40104">
        <ele>575.687</ele>
        <time>2021-05-23T09:15:33Z</time>
      </trkpt>
      <trkpt lat="43.47604" lon="2.40101">
        <ele>575.31</ele>
        <time>2021-05-23T09:15:35Z</time>
      </trkpt>
      <trkpt lat="43.47604" lon="2.40097">
        <ele>575.16</ele>
        <time>2021-05-23T09:15:37Z</time>
      </trkpt>
      <trkpt lat="43.47603" lon="2.40094">
        <ele>573.647</ele>
        <time>2021-05-23T09:15:39Z</time>
      </trkpt>
      <trkpt lat="43.47602" lon="2.40091">
        <ele>573.524</ele>
        <time>2021-05-23T09:15:41Z</time>
      </trkpt>
      <trkpt lat="43.47601" lon="2.40088">
        <ele>573.411</ele>
        <time>2021-05-23T09:15:43Z</time>
      </trkpt>
      <trkpt lat="43.47601" lon="2.40084">
        <ele>574.134</ele>
        <time>2021-05-23T09:15:45Z</time>
      </trkpt>
      <trkpt lat="43.47602" lon="2.40081">
        <ele>573.783</ele>
        <time>2021-05-23T09:15:47Z</time>
      </trkpt>
      <trkpt lat="43.47602" lon="2.40079">
        <ele>573.852</ele>
        <time>2021-05-23T09:15:49Z</time>
      </trkpt>
      <trkpt lat="43.47603" lon="2.40076">
        <ele>572.511</ele>
        <time>2021-05-23T09:15:51Z</time>
      </trkpt>
      <trkpt lat="43.47604" lon="2.40074">
        <ele>572.024</ele>
        <time>2021-05-23T09:15:53Z</time>
      </trkpt>
      <trkpt lat="43.47604" lon="2.40072">
        <ele>571.464</ele>
        <time>2021-05-23T09:15:55Z</time>
      </trkpt>
      <trkpt lat="43.47603" lon="2.4007">
        <ele>570.79</ele>
        <time>2021-05-23T09:15:57Z</time>
      </trkpt>
      <trkpt lat="43.47604" lon="2.40068">
        <ele>569.937</ele>
        <time>2021-05-23T09:15:59Z</time>
      </trkpt>
      <trkpt lat="43.47604" lon="2.40066">
        <ele>569.82</ele>
        <time>2021-05-23T09:16:01Z</time>
      </trkpt>
      <trkpt lat="43.47605" lon="2.40064">
        <ele>570.009</ele>
        <time>2021-05-23T09:16:03Z</time>
      </trkpt>
      <trkpt lat="43.47605" lon="2.40061">
        <ele>569.584</ele>
        <time>2021-05-23T09:16:05Z</time>
      </trkpt>
      <trkpt lat="43.47605" lon="2.40059">
        <ele>570.343</ele>
        <time>2021-05-23T09:16:07Z</time>
      </trkpt>
      <trkpt lat="43.47606" lon="2.40056">
        <ele>571.318</ele>
        <time>2021-05-23T09:16:09Z</time>
      </trkpt>
      <trkpt lat="43.47607" lon="2.40053">
        <ele>572.45</ele>
        <time>2021-05-23T09:16:11Z</time>
      </trkpt>
      <trkpt lat="43.47608" lon="2.4005">
        <ele>573.902</ele>
        <time>2021-05-23T09:16:13Z</time>
      </trkpt>
      <trkpt lat="43.4761" lon="2.40047">
        <ele>574.454</ele>
        <time>2021-05-23T09:16:15Z</time>
      </trkpt>
      <trkpt lat="43.47611" lon="2.40044">
        <ele>575.59</ele>
        <time>2021-05-23T09:16:17Z</time>
      </trkpt>
      <trkpt lat="43.47612" lon="2.40041">
        <ele>576.881</ele>
        <time>2021-05-23T09:16:19Z</time>
      </trkpt>
      <trkpt lat="43.47612" lon="2.40038">
        <ele>577.135</ele>
        <time>2021-05-23T09:16:21Z</time>
      </trkpt>
      <trkpt lat="43.47613" lon="2.40034">
        <ele>577.535</ele>
        <time>2021-05-23T09:16:23Z</time>
      </trkpt>
      <trkpt lat="43.47614" lon="2.40031">
        <ele>577.694</ele>
        <time>2021-05-23T09:16:25Z</time>
      </trkpt>
      <trkpt lat="43.47615" lon="2.40027">
        <ele>578.619</ele>
        <time>2021-05-23T09:16:27Z</time>
      </trkpt>
      <trkpt lat="43.47616" lon="2.40023">
        <ele>578.549</ele>
        <time>2021-05-23T09:16:29Z</time>
      </trkpt>
      <trkpt lat="43.47617" lon="2.40019">
        <ele>578.305</ele>
        <time>2021-05-23T09:16:31Z</time>
      </trkpt>
      <trkpt lat="43.47618" lon="2.40017">
        <ele>577.967</ele>
        <time>2021-05-23T09:16:33Z</time>
      </trkpt>
      <trkpt lat="43.4762" lon="2.40013">
        <ele>578.282</ele>
        <time>2021-05-23T09:16:35Z</time>
      </trkpt>
      <trkpt lat="43.47621" lon="2.40011">
        <ele>578.673</ele>
        <time>2021-05-23T09:16:37Z</time>
      </trkpt>
      <trkpt lat="43.47621" lon="2.40008">
        <ele>579.027</ele>
        <time>2021-05-23T09:16:39Z</time>
      </trkpt>
      <trkpt lat="43.47622" lon="2.40004">
        <ele>578.169</ele>
        <time>2021-05-23T09:16:41Z</time>
      </trkpt>
      <trkpt lat="43.47623" lon="2.40002">
        <ele>577.027</ele>
        <time>2021-05-23T09:16:43Z</time>
      </trkpt>
      <trkpt lat="43.47623" lon="2.4">
        <ele>576.906</ele>
        <time>2021-05-23T09:16:44Z</time>
      </trkpt>
      <trkpt lat="43.47625" lon="2.39996">
        <ele>576.867</ele>
        <time>2021-05-23T09:16:47Z</time>
      </trkpt>
      <trkpt lat="43.47627" lon="2.39993">
        <ele>577.061</ele>
        <time>2021-05-23T09:16:49Z</time>
      </trkpt>
      <trkpt lat="43.47627" lon="2.39989">
        <ele>577.893</ele>
        <time>2021-05-23T09:16:51Z</time>
      </trkpt>
      <trkpt lat="43.47627" lon="2.39986">
        <ele>577.041</ele>
        <time>2021-05-23T09:16:53Z</time>
      </trkpt>
      <trkpt lat="43.47627" lon="2.39982">
        <ele>577.652</ele>
        <time>2021-05-23T09:16:55Z</time>
      </trkpt>
      <trkpt lat="43.47628" lon="2.39978">
        <ele>577.924</ele>
        <time>2021-05-23T09:16:57Z</time>
      </trkpt>
      <trkpt lat="43.47629" lon="2.39974">
        <ele>577.881</ele>
        <time>2021-05-23T09:16:59Z</time>
      </trkpt>
      <trkpt lat="43.4763" lon="2.39971">
        <ele>579.025</ele>
        <time>2021-05-23T09:17:01Z</time>
      </trkpt>
      <trkpt lat="43.47631" lon="2.39967">
        <ele>579.062</ele>
        <time>2021-05-23T09:17:03Z</time>
      </trkpt>
      <trkpt lat="43.47632" lon="2.39965">
        <ele>579.562</ele>
        <time>2021-05-23T09:17:05Z</time>
      </trkpt>
      <trkpt lat="43.47634" lon="2.39962">
        <ele>580.728</ele>
        <time>2021-05-23T09:17:07Z</time>
      </trkpt>
      <trkpt lat="43.47634" lon="2.39959">
        <ele>579.803</ele>
        <time>2021-05-23T09:17:09Z</time>
      </trkpt>
      <trkpt lat="43.47635" lon="2.39955">
        <ele>579.989</ele>
        <time>2021-05-23T09:17:11Z</time>
      </trkpt>
      <trkpt lat="43.47636" lon="2.39951">
        <ele>580.346</ele>
        <time>2021-05-23T09:17:13Z</time>
      </trkpt>
      <trkpt lat="43.47635" lon="2.39947">
        <ele>579.613</ele>
        <time>2021-05-23T09:17:15Z</time>
      </trkpt>
      <trkpt lat="43.47634" lon="2.39943">
        <ele>579.202</ele>
        <time>2021-05-23T09:17:17Z</time>
      </trkpt>
      <trkpt lat="43.47634" lon="2.3994">
        <ele>580.83</ele>
        <time>2021-05-23T09:17:19Z</time>
      </trkpt>
      <trkpt lat="43.47635" lon="2.39936">
        <ele>581.468</ele>
        <time>2021-05-23T09:17:21Z</time>
      </trkpt>
      <trkpt lat="43.47636" lon="2.39933">
        <ele>579.91</ele>
        <time>2021-05-23T09:17:23Z</time>
      </trkpt>
      <trkpt lat="43.47636" lon="2.39929">
        <ele>580.077</ele>
        <time>2021-05-23T09:17:25Z</time>
      </trkpt>
      <trkpt lat="43.47636" lon="2.39927">
        <ele>581.728</ele>
        <time>2021-05-23T09:17:27Z</time>
      </trkpt>
      <trkpt lat="43.47637" lon="2.39924">
        <ele>581.453</ele>
        <time>2021-05-23T09:17:29Z</time>
      </trkpt>
      <trkpt lat="43.47637" lon="2.3992">
        <ele>582.885</ele>
        <time>2021-05-23T09:17:31Z</time>
      </trkpt>
      <trkpt lat="43.47636" lon="2.39917">
        <ele>583.431</ele>
        <time>2021-05-23T09:17:33Z</time>
      </trkpt>
      <trkpt lat="43.47636" lon="2.39915">
        <ele>583.791</ele>
        <time>2021-05-23T09:17:35Z</time>
      </trkpt>
      <trkpt lat="43.47635" lon="2.39911">
        <ele>582.536</ele>
        <time>2021-05-23T09:17:37Z</time>
      </trkpt>
      <trkpt lat="43.47635" lon="2.39907">
        <ele>581.759</ele>
        <time>2021-05-23T09:17:39Z</time>
      </trkpt>
      <trkpt lat="43.47634" lon="2.39904">
        <ele>581.024</ele>
        <time>2021-05-23T09:17:41Z</time>
      </trkpt>
      <trkpt lat="43.47633" lon="2.39902">
        <ele>580.069</ele>
        <time>2021-05-23T09:17:43Z</time>
      </trkpt>
      <trkpt lat="43.47633" lon="2.39899">
        <ele>581.28</ele>
        <time>2021-05-23T09:17:45Z</time>
      </trkpt>
      <trkpt lat="43.47632" lon="2.39896">
        <ele>581.89</ele>
        <time>2021-05-23T09:17:47Z</time>
      </trkpt>
      <trkpt lat="43.47631" lon="2.39892">
        <ele>581.7</ele>
        <time>2021-05-23T09:17:49Z</time>
      </trkpt>
      <trkpt lat="43.47631" lon="2.39889">
        <ele>582.276</ele>
        <time>2021-05-23T09:17:51Z</time>
      </trkpt>
      <trkpt lat="43.4763" lon="2.39886">
        <ele>579.248</ele>
        <time>2021-05-23T09:17:53Z</time>
      </trkpt>
      <trkpt lat="43.47628" lon="2.39882">
        <ele>577.859</ele>
        <time>2021-05-23T09:17:55Z</time>
      </trkpt>
      <trkpt lat="43.47627" lon="2.39877">
        <ele>578.708</ele>
        <time>2021-05-23T09:17:57Z</time>
      </trkpt>
      <trkpt lat="43.47626" lon="2.39873">
        <ele>578.747</ele>
        <time>2021-05-23T09:17:59Z</time>
      </trkpt>
      <trkpt lat="43.47625" lon="2.3987">
        <ele>580.321</ele>
        <time>2021-05-23T09:18:01Z</time>
      </trkpt>
      <trkpt lat="43.47624" lon="2.39866">
        <ele>578.579</ele>
        <time>2021-05-23T09:18:03Z</time>
      </trkpt>
      <trkpt lat="43.47623" lon="2.39863">
        <ele>579.929</ele>
        <time>2021-05-23T09:18:05Z</time>
      </trkpt>
      <trkpt lat="43.47622" lon="2.39859">
        <ele>579.749</ele>
        <time>2021-05-23T09:18:07Z</time>
      </trkpt>
      <trkpt lat="43.47623" lon="2.39857">
        <ele>580.352</ele>
        <time>2021-05-23T09:18:09Z</time>
      </trkpt>
      <trkpt lat="43.47623" lon="2.39854">
        <ele>581.418</ele>
        <time>2021-05-23T09:18:11Z</time>
      </trkpt>
      <trkpt lat="43.47623" lon="2.39851">
        <ele>581.842</ele>
        <time>2021-05-23T09:18:13Z</time>
      </trkpt>
      <trkpt lat="43.47622" lon="2.39848">
        <ele>583.185</ele>
        <time>2021-05-23T09:18:15Z</time>
      </trkpt>
      <trkpt lat="43.47622" lon="2.39847">
        <ele>581.756</ele>
        <time>2021-05-23T09:18:17Z</time>
      </trkpt>
      <trkpt lat="43.47622" lon="2.39845">
        <ele>580.181</ele>
        <time>2021-05-23T09:18:19Z</time>
      </trkpt>
      <trkpt lat="43.47622" lon="2.39841">
        <ele>581.469</ele>
        <time>2021-05-23T09:18:21Z</time>
      </trkpt>
      <trkpt lat="43.47622" lon="2.39838">
        <ele>581.191</ele>
        <time>2021-05-23T09:18:23Z</time>
      </trkpt>
      <trkpt lat="43.47622" lon="2.39833">
        <ele>582.121</ele>
        <time>2021-05-23T09:18:25Z</time>
      </trkpt>
      <trkpt lat="43.47621" lon="2.39829">
        <ele>581.32</ele>
        <time>2021-05-23T09:18:27Z</time>
      </trkpt>
      <trkpt lat="43.47621" lon="2.39826">
        <ele>581.145</ele>
        <time>2021-05-23T09:18:29Z</time>
      </trkpt>
      <trkpt lat="43.47621" lon="2.39823">
        <ele>581.886</ele>
        <time>2021-05-23T09:18:31Z</time>
      </trkpt>
      <trkpt lat="43.47621" lon="2.3982">
        <ele>581.697</ele>
        <time>2021-05-23T09:18:33Z</time>
      </trkpt>
      <trkpt lat="43.47621" lon="2.39816">
        <ele>580.779</ele>
        <time>2021-05-23T09:18:35Z</time>
      </trkpt>
      <trkpt lat="43.47622" lon="2.39813">
        <ele>582.419</ele>
        <time>2021-05-23T09:18:37Z</time>
      </trkpt>
      <trkpt lat="43.47622" lon="2.3981">
        <ele>584.633</ele>
        <time>2021-05-23T09:18:39Z</time>
      </trkpt>
      <trkpt lat="43.47621" lon="2.39807">
        <ele>586.348</ele>
        <time>2021-05-23T09:18:41Z</time>
      </trkpt>
      <trkpt lat="43.47621" lon="2.39803">
        <ele>589.503</ele>
        <time>2021-05-23T09:18:43Z</time>
      </trkpt>
      <trkpt lat="43.47621" lon="2.39798">
        <ele>591.463</ele>
        <time>2021-05-23T09:18:45Z</time>
      </trkpt>
      <trkpt lat="43.47622" lon="2.39796">
        <ele>590.903</ele>
        <time>2021-05-23T09:18:47Z</time>
      </trkpt>
      <trkpt lat="43.47622" lon="2.39794">
        <ele>590.851</ele>
        <time>2021-05-23T09:18:49Z</time>
      </trkpt>
      <trkpt lat="43.47623" lon="2.39792">
        <ele>591.987</ele>
        <time>2021-05-23T09:18:51Z</time>
      </trkpt>
      <trkpt lat="43.47623" lon="2.39789">
        <ele>591.563</ele>
        <time>2021-05-23T09:18:53Z</time>
      </trkpt>
      <trkpt lat="43.47622" lon="2.39786">
        <ele>591.668</ele>
        <time>2021-05-23T09:18:55Z</time>
      </trkpt>
      <trkpt lat="43.47621" lon="2.39783">
        <ele>592.277</ele>
        <time>2021-05-23T09:18:57Z</time>
      </trkpt>
      <trkpt lat="43.4762" lon="2.39779">
        <ele>591.254</ele>
        <time>2021-05-23T09:18:59Z</time>
      </trkpt>
      <trkpt lat="43.47619" lon="2.39776">
        <ele>589.455</ele>
        <time>2021-05-23T09:19:01Z</time>
      </trkpt>
      <trkpt lat="43.47617" lon="2.39772">
        <ele>586.753</ele>
        <time>2021-05-23T09:19:03Z</time>
      </trkpt>
      <trkpt lat="43.47615" lon="2.3977">
        <ele>585.665</ele>
        <time>2021-05-23T09:19:05Z</time>
      </trkpt>
      <trkpt lat="43.47613" lon="2.39767">
        <ele>586.667</ele>
        <time>2021-05-23T09:19:07Z</time>
      </trkpt>
      <trkpt lat="43.47613" lon="2.39764">
        <ele>587.572</ele>
        <time>2021-05-23T09:19:09Z</time>
      </trkpt>
      <trkpt lat="43.47613" lon="2.39761">
        <ele>587.762</ele>
        <time>2021-05-23T09:19:11Z</time>
      </trkpt>
      <trkpt lat="43.47614" lon="2.39758">
        <ele>587.101</ele>
        <time>2021-05-23T09:19:13Z</time>
      </trkpt>
      <trkpt lat="43.47615" lon="2.39755">
        <ele>586.782</ele>
        <time>2021-05-23T09:19:15Z</time>
      </trkpt>
      <trkpt lat="43.47616" lon="2.39752">
        <ele>586.655</ele>
        <time>2021-05-23T09:19:17Z</time>
      </trkpt>
      <trkpt lat="43.47618" lon="2.39749">
        <ele>588.315</ele>
        <time>2021-05-23T09:19:19Z</time>
      </trkpt>
      <trkpt lat="43.47619" lon="2.39745">
        <ele>587.814</ele>
        <time>2021-05-23T09:19:21Z</time>
      </trkpt>
      <trkpt lat="43.47619" lon="2.39741">
        <ele>587.375</ele>
        <time>2021-05-23T09:19:23Z</time>
      </trkpt>
      <trkpt lat="43.4762" lon="2.39737">
        <ele>588.431</ele>
        <time>2021-05-23T09:19:25Z</time>
      </trkpt>
      <trkpt lat="43.4762" lon="2.39734">
        <ele>586.431</ele>
        <time>2021-05-23T09:19:27Z</time>
      </trkpt>
      <trkpt lat="43.47622" lon="2.39732">
        <ele>587.447</ele>
        <time>2021-05-23T09:19:29Z</time>
      </trkpt>
      <trkpt lat="43.47624" lon="2.39729">
        <ele>586.914</ele>
        <time>2021-05-23T09:19:31Z</time>
      </trkpt>
      <trkpt lat="43.47625" lon="2.39726">
        <ele>585.754</ele>
        <time>2021-05-23T09:19:33Z</time>
      </trkpt>
      <trkpt lat="43.47626" lon="2.39723">
        <ele>584.958</ele>
        <time>2021-05-23T09:19:35Z</time>
      </trkpt>
      <trkpt lat="43.47627" lon="2.39721">
        <ele>582.857</ele>
        <time>2021-05-23T09:19:37Z</time>
      </trkpt>
      <trkpt lat="43.47627" lon="2.39718">
        <ele>583.83</ele>
        <time>2021-05-23T09:19:39Z</time>
      </trkpt>
      <trkpt lat="43.47628" lon="2.39714">
        <ele>584.137</ele>
        <time>2021-05-23T09:19:41Z</time>
      </trkpt>
      <trkpt lat="43.4763" lon="2.39711">
        <ele>584.638</ele>
        <time>2021-05-23T09:19:43Z</time>
      </trkpt>
      <trkpt lat="43.47632" lon="2.39708">
        <ele>585.783</ele>
        <time>2021-05-23T09:19:45Z</time>
      </trkpt>
      <trkpt lat="43.47633" lon="2.39705">
        <ele>586.32</ele>
        <time>2021-05-23T09:19:47Z</time>
      </trkpt>
      <trkpt lat="43.47634" lon="2.39702">
        <ele>586.343</ele>
        <time>2021-05-23T09:19:49Z</time>
      </trkpt>
      <trkpt lat="43.47636" lon="2.397">
        <ele>586.957</ele>
        <time>2021-05-23T09:19:51Z</time>
      </trkpt>
      <trkpt lat="43.47637" lon="2.39699">
        <ele>587.568</ele>
        <time>2021-05-23T09:19:53Z</time>
      </trkpt>
      <trkpt lat="43.47639" lon="2.39697">
        <ele>588.472</ele>
        <time>2021-05-23T09:19:55Z</time>
      </trkpt>
      <trkpt lat="43.47641" lon="2.39695">
        <ele>588.802</ele>
        <time>2021-05-23T09:19:57Z</time>
      </trkpt>
      <trkpt lat="43.47643" lon="2.39691">
        <ele>589.872</ele>
        <time>2021-05-23T09:19:59Z</time>
      </trkpt>
      <trkpt lat="43.47645" lon="2.39688">
        <ele>591.084</ele>
        <time>2021-05-23T09:20:01Z</time>
      </trkpt>
      <trkpt lat="43.47646" lon="2.39686">
        <ele>593.246</ele>
        <time>2021-05-23T09:20:03Z</time>
      </trkpt>
      <trkpt lat="43.47648" lon="2.39683">
        <ele>593.174</ele>
        <time>2021-05-23T09:20:05Z</time>
      </trkpt>
      <trkpt lat="43.4765" lon="2.3968">
        <ele>595.277</ele>
        <time>2021-05-23T09:20:07Z</time>
      </trkpt>
      <trkpt lat="43.47653" lon="2.39677">
        <ele>595.832</ele>
        <time>2021-05-23T09:20:09Z</time>
      </trkpt>
      <trkpt lat="43.47655" lon="2.39675">
        <ele>596.009</ele>
        <time>2021-05-23T09:20:11Z</time>
      </trkpt>
      <trkpt lat="43.47657" lon="2.39674">
        <ele>596.43</ele>
        <time>2021-05-23T09:20:13Z</time>
      </trkpt>
      <trkpt lat="43.4766" lon="2.39672">
        <ele>595.068</ele>
        <time>2021-05-23T09:20:15Z</time>
      </trkpt>
      <trkpt lat="43.47661" lon="2.3967">
        <ele>597.061</ele>
        <time>2021-05-23T09:20:17Z</time>
      </trkpt>
      <trkpt lat="43.47663" lon="2.39667">
        <ele>598.481</ele>
        <time>2021-05-23T09:20:19Z</time>
      </trkpt>
      <trkpt lat="43.47665" lon="2.39665">
        <ele>598.238</ele>
        <time>2021-05-23T09:20:21Z</time>
      </trkpt>
      <trkpt lat="43.47667" lon="2.39663">
        <ele>598.946</ele>
        <time>2021-05-23T09:20:23Z</time>
      </trkpt>
      <trkpt lat="43.4767" lon="2.39661">
        <ele>599.299</ele>
        <time>2021-05-23T09:20:25Z</time>
      </trkpt>
      <trkpt lat="43.47672" lon="2.39659">
        <ele>597.702</ele>
        <time>2021-05-23T09:20:27Z</time>
      </trkpt>
      <trkpt lat="43.47673" lon="2.39657">
        <ele>598.993</ele>
        <time>2021-05-23T09:20:29Z</time>
      </trkpt>
      <trkpt lat="43.47675" lon="2.39655">
        <ele>599.859</ele>
        <time>2021-05-23T09:20:31Z</time>
      </trkpt>
      <trkpt lat="43.47679" lon="2.39653">
        <ele>599.201</ele>
        <time>2021-05-23T09:20:33Z</time>
      </trkpt>
      <trkpt lat="43.47681" lon="2.39652">
        <ele>598.97</ele>
        <time>2021-05-23T09:20:35Z</time>
      </trkpt>
      <trkpt lat="43.47683" lon="2.39651">
        <ele>599.147</ele>
        <time>2021-05-23T09:20:37Z</time>
      </trkpt>
      <trkpt lat="43.47685" lon="2.3965">
        <ele>599.794</ele>
        <time>2021-05-23T09:20:39Z</time>
      </trkpt>
      <trkpt lat="43.47687" lon="2.39649">
        <ele>599.739</ele>
        <time>2021-05-23T09:20:41Z</time>
      </trkpt>
      <trkpt lat="43.47689" lon="2.39648">
        <ele>599.231</ele>
        <time>2021-05-23T09:20:43Z</time>
      </trkpt>
      <trkpt lat="43.47692" lon="2.39647">
        <ele>599.13</ele>
        <time>2021-05-23T09:20:45Z</time>
      </trkpt>
      <trkpt lat="43.47694" lon="2.39646">
        <ele>598.746</ele>
        <time>2021-05-23T09:20:47Z</time>
      </trkpt>
      <trkpt lat="43.47697" lon="2.39645">
        <ele>597.44</ele>
        <time>2021-05-23T09:20:49Z</time>
      </trkpt>
      <trkpt lat="43.477" lon="2.39643">
        <ele>597.559</ele>
        <time>2021-05-23T09:20:51Z</time>
      </trkpt>
      <trkpt lat="43.47703" lon="2.39642">
        <ele>598.674</ele>
        <time>2021-05-23T09:20:53Z</time>
      </trkpt>
      <trkpt lat="43.47705" lon="2.39641">
        <ele>598.67</ele>
        <time>2021-05-23T09:20:55Z</time>
      </trkpt>
      <trkpt lat="43.47708" lon="2.39639">
        <ele>598.926</ele>
        <time>2021-05-23T09:20:57Z</time>
      </trkpt>
      <trkpt lat="43.47709" lon="2.39637">
        <ele>597.103</ele>
        <time>2021-05-23T09:20:59Z</time>
      </trkpt>
      <trkpt lat="43.47711" lon="2.39635">
        <ele>597.135</ele>
        <time>2021-05-23T09:21:01Z</time>
      </trkpt>
      <trkpt lat="43.47713" lon="2.39633">
        <ele>596.551</ele>
        <time>2021-05-23T09:21:03Z</time>
      </trkpt>
      <trkpt lat="43.47715" lon="2.39631">
        <ele>596.381</ele>
        <time>2021-05-23T09:21:05Z</time>
      </trkpt>
      <trkpt lat="43.47718" lon="2.39629">
        <ele>595.195</ele>
        <time>2021-05-23T09:21:07Z</time>
      </trkpt>
      <trkpt lat="43.47721" lon="2.39627">
        <ele>595.907</ele>
        <time>2021-05-23T09:21:09Z</time>
      </trkpt>
      <trkpt lat="43.47724" lon="2.39624">
        <ele>596.354</ele>
        <time>2021-05-23T09:21:11Z</time>
      </trkpt>
      <trkpt lat="43.47726" lon="2.39622">
        <ele>597.871</ele>
        <time>2021-05-23T09:21:13Z</time>
      </trkpt>
      <trkpt lat="43.47728" lon="2.3962">
        <ele>597.663</ele>
        <time>2021-05-23T09:21:15Z</time>
      </trkpt>
      <trkpt lat="43.4773" lon="2.39618">
        <ele>599.139</ele>
        <time>2021-05-23T09:21:17Z</time>
      </trkpt>
      <trkpt lat="43.47732" lon="2.39617">
        <ele>599.77</ele>
        <time>2021-05-23T09:21:19Z</time>
      </trkpt>
      <trkpt lat="43.47733" lon="2.39616">
        <ele>598.773</ele>
        <time>2021-05-23T09:21:21Z</time>
      </trkpt>
      <trkpt lat="43.47735" lon="2.39615">
        <ele>598.709</ele>
        <time>2021-05-23T09:21:23Z</time>
      </trkpt>
      <trkpt lat="43.47735" lon="2.39614">
        <ele>599.407</ele>
        <time>2021-05-23T09:21:25Z</time>
      </trkpt>
      <trkpt lat="43.47736" lon="2.39614">
        <ele>597.728</ele>
        <time>2021-05-23T09:21:27Z</time>
      </trkpt>
      <trkpt lat="43.47736" lon="2.39613">
        <ele>597.736</ele>
        <time>2021-05-23T09:21:29Z</time>
      </trkpt>
      <trkpt lat="43.47736" lon="2.39613">
        <ele>597.741</ele>
        <time>2021-05-23T09:21:31Z</time>
      </trkpt>
      <trkpt lat="43.47736" lon="2.39612">
        <ele>597.739</ele>
        <time>2021-05-23T09:21:33Z</time>
      </trkpt>
      <trkpt lat="43.47736" lon="2.39612">
        <ele>597.742</ele>
        <time>2021-05-23T09:21:35Z</time>
      </trkpt>
      <trkpt lat="43.47736" lon="2.39612">
        <ele>597.727</ele>
        <time>2021-05-23T09:21:37Z</time>
      </trkpt>
      <trkpt lat="43.47736" lon="2.39612">
        <ele>597.725</ele>
        <time>2021-05-23T09:21:39Z</time>
      </trkpt>
      <trkpt lat="43.47736" lon="2.39612">
        <ele>597.718</ele>
        <time>2021-05-23T09:21:41Z</time>
      </trkpt>
      <trkpt lat="43.47736" lon="2.39612">
        <ele>597.714</ele>
        <time>2021-05-23T09:21:43Z</time>
      </trkpt>
      <trkpt lat="43.47736" lon="2.39612">
        <ele>597.709</ele>
        <time>2021-05-23T09:21:45Z</time>
      </trkpt>
      <trkpt lat="43.47736" lon="2.39612">
        <ele>597.709</ele>
        <time>2021-05-23T09:21:47Z</time>
      </trkpt>
      <trkpt lat="43.47736" lon="2.39612">
        <ele>597.642</ele>
        <time>2021-05-23T09:21:49Z</time>
      </trkpt>
      <trkpt lat="43.47736" lon="2.39612">
        <ele>597.646</ele>
        <time>2021-05-23T09:21:51Z</time>
      </trkpt>
      <trkpt lat="43.47736" lon="2.39612">
        <ele>597.646</ele>
        <time>2021-05-23T09:21:53Z</time>
      </trkpt>
      <trkpt lat="43.47736" lon="2.39612">
        <ele>597.65</ele>
        <time>2021-05-23T09:21:55Z</time>
      </trkpt>
      <trkpt lat="43.47736" lon="2.39612">
        <ele>597.655</ele>
        <time>2021-05-23T09:21:57Z</time>
      </trkpt>
      <trkpt lat="43.47736" lon="2.39612">
        <ele>597.653</ele>
        <time>2021-05-23T09:21:59Z</time>
      </trkpt>
      <trkpt lat="43.47736" lon="2.39612">
        <ele>597.658</ele>
        <time>2021-05-23T09:22:01Z</time>
      </trkpt>
      <trkpt lat="43.47736" lon="2.39612">
        <ele>597.66</ele>
        <time>2021-05-23T09:22:03Z</time>
      </trkpt>
      <trkpt lat="43.47736" lon="2.39612">
        <ele>597.645</ele>
        <time>2021-05-23T09:22:05Z</time>
      </trkpt>
      <trkpt lat="43.47736" lon="2.39612">
        <ele>597.634</ele>
        <time>2021-05-23T09:22:07Z</time>
      </trkpt>
      <trkpt lat="43.47736" lon="2.39612">
        <ele>597.61</ele>
        <time>2021-05-23T09:22:09Z</time>
      </trkpt>
      <trkpt lat="43.47736" lon="2.39612">
        <ele>597.318</ele>
        <time>2021-05-23T09:22:11Z</time>
      </trkpt>
      <trkpt lat="43.47735" lon="2.39612">
        <ele>596.09</ele>
        <time>2021-05-23T09:22:13Z</time>
      </trkpt>
      <trkpt lat="43.47735" lon="2.39611">
        <ele>595.974</ele>
        <time>2021-05-23T09:22:15Z</time>
      </trkpt>
      <trkpt lat="43.47735" lon="2.39611">
        <ele>595.994</ele>
        <time>2021-05-23T09:22:17Z</time>
      </trkpt>
      <trkpt lat="43.47735" lon="2.39611">
        <ele>596.416</ele>
        <time>2021-05-23T09:22:19Z</time>
      </trkpt>
      <trkpt lat="43.47735" lon="2.39612">
        <ele>596.542</ele>
        <time>2021-05-23T09:22:21Z</time>
      </trkpt>
      <trkpt lat="43.47735" lon="2.39612">
        <ele>596.554</ele>
        <time>2021-05-23T09:22:23Z</time>
      </trkpt>
      <trkpt lat="43.47735" lon="2.39611">
        <ele>596.523</ele>
        <time>2021-05-23T09:22:25Z</time>
      </trkpt>
      <trkpt lat="43.47735" lon="2.39611">
        <ele>596.508</ele>
        <time>2021-05-23T09:22:27Z</time>
      </trkpt>
      <trkpt lat="43.47735" lon="2.39611">
        <ele>596.647</ele>
        <time>2021-05-23T09:22:29Z</time>
      </trkpt>
      <trkpt lat="43.47735" lon="2.39611">
        <ele>596.226</ele>
        <time>2021-05-23T09:22:31Z</time>
      </trkpt>
      <trkpt lat="43.47734" lon="2.39611">
        <ele>595.699</ele>
        <time>2021-05-23T09:22:33Z</time>
      </trkpt>
      <trkpt lat="43.47734" lon="2.39611">
        <ele>595.683</ele>
        <time>2021-05-23T09:22:35Z</time>
      </trkpt>
      <trkpt lat="43.47734" lon="2.3961">
        <ele>594.844</ele>
        <time>2021-05-23T09:22:37Z</time>
      </trkpt>
      <trkpt lat="43.47734" lon="2.39609">
        <ele>594.399</ele>
        <time>2021-05-23T09:22:39Z</time>
      </trkpt>
      <trkpt lat="43.47734" lon="2.39608">
        <ele>594.32</ele>
        <time>2021-05-23T09:22:41Z</time>
      </trkpt>
      <trkpt lat="43.47734" lon="2.39608">
        <ele>594.318</ele>
        <time>2021-05-23T09:22:43Z</time>
      </trkpt>
      <trkpt lat="43.47734" lon="2.39608">
        <ele>594.311</ele>
        <time>2021-05-23T09:22:45Z</time>
      </trkpt>
      <trkpt lat="43.47734" lon="2.39608">
        <ele>594.308</ele>
        <time>2021-05-23T09:22:47Z</time>
      </trkpt>
      <trkpt lat="43.47734" lon="2.39608">
        <ele>594.304</ele>
        <time>2021-05-23T09:22:49Z</time>
      </trkpt>
      <trkpt lat="43.47734" lon="2.39608">
        <ele>594.292</ele>
        <time>2021-05-23T09:22:51Z</time>
      </trkpt>
      <trkpt lat="43.47734" lon="2.39608">
        <ele>594.287</ele>
        <time>2021-05-23T09:22:53Z</time>
      </trkpt>
      <trkpt lat="43.47734" lon="2.39608">
        <ele>594.275</ele>
        <time>2021-05-23T09:22:55Z</time>
      </trkpt>
      <trkpt lat="43.47734" lon="2.39608">
        <ele>594.268</ele>
        <time>2021-05-23T09:22:57Z</time>
      </trkpt>
      <trkpt lat="43.47734" lon="2.39608">
        <ele>594.259</ele>
        <time>2021-05-23T09:22:59Z</time>
      </trkpt>
      <trkpt lat="43.47734" lon="2.39608">
        <ele>594.26</ele>
        <time>2021-05-23T09:23:01Z</time>
      </trkpt>
      <trkpt lat="43.47734" lon="2.39608">
        <ele>593.594</ele>
        <time>2021-05-23T09:23:03Z</time>
      </trkpt>
      <trkpt lat="43.47734" lon="2.39609">
        <ele>593.583</ele>
        <time>2021-05-23T09:23:05Z</time>
      </trkpt>
      <trkpt lat="43.47734" lon="2.39609">
        <ele>593.58</ele>
        <time>2021-05-23T09:23:07Z</time>
      </trkpt>
      <trkpt lat="43.47734" lon="2.39609">
        <ele>593.58</ele>
        <time>2021-05-23T09:23:09Z</time>
      </trkpt>
      <trkpt lat="43.47734" lon="2.39609">
        <ele>593.585</ele>
        <time>2021-05-23T09:23:11Z</time>
      </trkpt>
      <trkpt lat="43.47734" lon="2.39609">
        <ele>593.575</ele>
        <time>2021-05-23T09:23:13Z</time>
      </trkpt>
      <trkpt lat="43.47734" lon="2.39609">
        <ele>593.567</ele>
        <time>2021-05-23T09:23:15Z</time>
      </trkpt>
      <trkpt lat="43.47734" lon="2.39609">
        <ele>593.565</ele>
        <time>2021-05-23T09:23:17Z</time>
      </trkpt>
      <trkpt lat="43.47734" lon="2.39609">
        <ele>593.561</ele>
        <time>2021-05-23T09:23:19Z</time>
      </trkpt>
      <trkpt lat="43.47734" lon="2.39609">
        <ele>593.559</ele>
        <time>2021-05-23T09:23:21Z</time>
      </trkpt>
      <trkpt lat="43.47734" lon="2.39609">
        <ele>593.549</ele>
        <time>2021-05-23T09:23:23Z</time>
      </trkpt>
      <trkpt lat="43.47734" lon="2.39609">
        <ele>593.548</ele>
        <time>2021-05-23T09:23:25Z</time>
      </trkpt>
      <trkpt lat="43.47734" lon="2.39609">
        <ele>593.542</ele>
        <time>2021-05-23T09:23:27Z</time>
      </trkpt>
      <trkpt lat="43.47734" lon="2.39609">
        <ele>593.54</ele>
        <time>2021-05-23T09:23:29Z</time>
      </trkpt>
      <trkpt lat="43.47734" lon="2.39609">
        <ele>593.536</ele>
        <time>2021-05-23T09:23:31Z</time>
      </trkpt>
      <trkpt lat="43.47734" lon="2.39609">
        <ele>593.534</ele>
        <time>2021-05-23T09:23:33Z</time>
      </trkpt>
      <trkpt lat="43.47734" lon="2.39609">
        <ele>593.53</ele>
        <time>2021-05-23T09:23:35Z</time>
      </trkpt>
      <trkpt lat="43.47734" lon="2.39609">
        <ele>593.53</ele>
        <time>2021-05-23T09:23:37Z</time>
      </trkpt>
      <trkpt lat="43.47734" lon="2.39609">
        <ele>593.532</ele>
        <time>2021-05-23T09:23:39Z</time>
      </trkpt>
      <trkpt lat="43.47735" lon="2.39608">
        <ele>593.171</ele>
        <time>2021-05-23T09:23:41Z</time>
      </trkpt>
      <trkpt lat="43.47736" lon="2.39607">
        <ele>593.572</ele>
        <time>2021-05-23T09:23:43Z</time>
      </trkpt>
      <trkpt lat="43.47738" lon="2.39607">
        <ele>593.559</ele>
        <time>2021-05-23T09:23:45Z</time>
      </trkpt>
      <trkpt lat="43.4774" lon="2.39605">
        <ele>593.603</ele>
        <time>2021-05-23T09:23:47Z</time>
      </trkpt>
      <trkpt lat="43.47742" lon="2.39604">
        <ele>593.154</ele>
        <time>2021-05-23T09:23:49Z</time>
      </trkpt>
      <trkpt lat="43.47743" lon="2.39603">
        <ele>592.425</ele>
        <time>2021-05-23T09:23:51Z</time>
      </trkpt>
      <trkpt lat="43.47745" lon="2.39601">
        <ele>591.473</ele>
        <time>2021-05-23T09:23:53Z</time>
      </trkpt>
      <trkpt lat="43.47747" lon="2.39599">
        <ele>591.093</ele>
        <time>2021-05-23T09:23:55Z</time>
      </trkpt>
      <trkpt lat="43.47749" lon="2.39597">
        <ele>590.934</ele>
        <time>2021-05-23T09:23:57Z</time>
      </trkpt>
      <trkpt lat="43.47751" lon="2.39594">
        <ele>591.623</ele>
        <time>2021-05-23T09:23:59Z</time>
      </trkpt>
      <trkpt lat="43.47753" lon="2.39592">
        <ele>590.515</ele>
        <time>2021-05-23T09:24:01Z</time>
      </trkpt>
      <trkpt lat="43.47755" lon="2.39589">
        <ele>590.526</ele>
        <time>2021-05-23T09:24:03Z</time>
      </trkpt>
      <trkpt lat="43.47757" lon="2.39587">
        <ele>590.017</ele>
        <time>2021-05-23T09:24:05Z</time>
      </trkpt>
      <trkpt lat="43.47759" lon="2.39585">
        <ele>589.17</ele>
        <time>2021-05-23T09:24:07Z</time>
      </trkpt>
      <trkpt lat="43.47761" lon="2.39582">
        <ele>587.741</ele>
        <time>2021-05-23T09:24:09Z</time>
      </trkpt>
      <trkpt lat="43.47763" lon="2.3958">
        <ele>588.59</ele>
        <time>2021-05-23T09:24:11Z</time>
      </trkpt>
      <trkpt lat="43.47764" lon="2.39577">
        <ele>588.769</ele>
        <time>2021-05-23T09:24:13Z</time>
      </trkpt>
      <trkpt lat="43.47766" lon="2.39574">
        <ele>588.981</ele>
        <time>2021-05-23T09:24:15Z</time>
      </trkpt>
      <trkpt lat="43.47768" lon="2.39571">
        <ele>588.839</ele>
        <time>2021-05-23T09:24:17Z</time>
      </trkpt>
      <trkpt lat="43.4777" lon="2.3957">
        <ele>588.366</ele>
        <time>2021-05-23T09:24:19Z</time>
      </trkpt>
      <trkpt lat="43.47771" lon="2.39569">
        <ele>588.882</ele>
        <time>2021-05-23T09:24:21Z</time>
      </trkpt>
      <trkpt lat="43.47773" lon="2.39567">
        <ele>591.672</ele>
        <time>2021-05-23T09:24:23Z</time>
      </trkpt>
      <trkpt lat="43.47775" lon="2.39565">
        <ele>591.601</ele>
        <time>2021-05-23T09:24:25Z</time>
      </trkpt>
      <trkpt lat="43.47777" lon="2.39564">
        <ele>590.235</ele>
        <time>2021-05-23T09:24:27Z</time>
      </trkpt>
      <trkpt lat="43.4778" lon="2.39562">
        <ele>589.798</ele>
        <time>2021-05-23T09:24:29Z</time>
      </trkpt>
      <trkpt lat="43.47782" lon="2.3956">
        <ele>589.198</ele>
        <time>2021-05-23T09:24:31Z</time>
      </trkpt>
      <trkpt lat="43.47784" lon="2.39558">
        <ele>589.106</ele>
        <time>2021-05-23T09:24:33Z</time>
      </trkpt>
      <trkpt lat="43.47785" lon="2.39556">
        <ele>589.404</ele>
        <time>2021-05-23T09:24:35Z</time>
      </trkpt>
      <trkpt lat="43.47787" lon="2.39555">
        <ele>589.365</ele>
        <time>2021-05-23T09:24:37Z</time>
      </trkpt>
      <trkpt lat="43.47789" lon="2.39552">
        <ele>588.393</ele>
        <time>2021-05-23T09:24:39Z</time>
      </trkpt>
      <trkpt lat="43.47792" lon="2.39549">
        <ele>589.627</ele>
        <time>2021-05-23T09:24:41Z</time>
      </trkpt>
      <trkpt lat="43.47794" lon="2.39547">
        <ele>590.582</ele>
        <time>2021-05-23T09:24:43Z</time>
      </trkpt>
      <trkpt lat="43.47798" lon="2.39543">
        <ele>593.02</ele>
        <time>2021-05-23T09:24:46Z</time>
      </trkpt>
      <trkpt lat="43.478" lon="2.39542">
        <ele>593.139</ele>
        <time>2021-05-23T09:24:48Z</time>
      </trkpt>
      <trkpt lat="43.47802" lon="2.3954">
        <ele>593.5</ele>
        <time>2021-05-23T09:24:50Z</time>
      </trkpt>
      <trkpt lat="43.47804" lon="2.39539">
        <ele>593.084</ele>
        <time>2021-05-23T09:24:52Z</time>
      </trkpt>
      <trkpt lat="43.47806" lon="2.39537">
        <ele>592.96</ele>
        <time>2021-05-23T09:24:54Z</time>
      </trkpt>
      <trkpt lat="43.47808" lon="2.39535">
        <ele>592.206</ele>
        <time>2021-05-23T09:24:56Z</time>
      </trkpt>
      <trkpt lat="43.4781" lon="2.39533">
        <ele>591.138</ele>
        <time>2021-05-23T09:24:58Z</time>
      </trkpt>
      <trkpt lat="43.47812" lon="2.3953">
        <ele>592.484</ele>
        <time>2021-05-23T09:25:00Z</time>
      </trkpt>
      <trkpt lat="43.47815" lon="2.39529">
        <ele>591.839</ele>
        <time>2021-05-23T09:25:02Z</time>
      </trkpt>
      <trkpt lat="43.47817" lon="2.39528">
        <ele>591.462</ele>
        <time>2021-05-23T09:25:04Z</time>
      </trkpt>
      <trkpt lat="43.47819" lon="2.39525">
        <ele>591.408</ele>
        <time>2021-05-23T09:25:06Z</time>
      </trkpt>
      <trkpt lat="43.47821" lon="2.39522">
        <ele>589.815</ele>
        <time>2021-05-23T09:25:08Z</time>
      </trkpt>
      <trkpt lat="43.47825" lon="2.39518">
        <ele>590.491</ele>
        <time>2021-05-23T09:25:11Z</time>
      </trkpt>
      <trkpt lat="43.47827" lon="2.39516">
        <ele>589.808</ele>
        <time>2021-05-23T09:25:13Z</time>
      </trkpt>
      <trkpt lat="43.47828" lon="2.39514">
        <ele>590.335</ele>
        <time>2021-05-23T09:25:15Z</time>
      </trkpt>
      <trkpt lat="43.47831" lon="2.39511">
        <ele>590.999</ele>
        <time>2021-05-23T09:25:17Z</time>
      </trkpt>
      <trkpt lat="43.47834" lon="2.39509">
        <ele>590.948</ele>
        <time>2021-05-23T09:25:19Z</time>
      </trkpt>
      <trkpt lat="43.47835" lon="2.39507">
        <ele>591.899</ele>
        <time>2021-05-23T09:25:21Z</time>
      </trkpt>
      <trkpt lat="43.47837" lon="2.39505">
        <ele>591.178</ele>
        <time>2021-05-23T09:25:23Z</time>
      </trkpt>
      <trkpt lat="43.47839" lon="2.39503">
        <ele>593.07</ele>
        <time>2021-05-23T09:25:25Z</time>
      </trkpt>
      <trkpt lat="43.47841" lon="2.39501">
        <ele>591.783</ele>
        <time>2021-05-23T09:25:27Z</time>
      </trkpt>
      <trkpt lat="43.47843" lon="2.39498">
        <ele>593.93</ele>
        <time>2021-05-23T09:25:29Z</time>
      </trkpt>
      <trkpt lat="43.47845" lon="2.39495">
        <ele>592.103</ele>
        <time>2021-05-23T09:25:31Z</time>
      </trkpt>
      <trkpt lat="43.47846" lon="2.39492">
        <ele>590.916</ele>
        <time>2021-05-23T09:25:33Z</time>
      </trkpt>
      <trkpt lat="43.47847" lon="2.39489">
        <ele>590.587</ele>
        <time>2021-05-23T09:25:35Z</time>
      </trkpt>
      <trkpt lat="43.47849" lon="2.39487">
        <ele>589.286</ele>
        <time>2021-05-23T09:25:37Z</time>
      </trkpt>
      <trkpt lat="43.4785" lon="2.39484">
        <ele>589.217</ele>
        <time>2021-05-23T09:25:39Z</time>
      </trkpt>
      <trkpt lat="43.47852" lon="2.39482">
        <ele>590.31</ele>
        <time>2021-05-23T09:25:41Z</time>
      </trkpt>
      <trkpt lat="43.47854" lon="2.3948">
        <ele>589.89</ele>
        <time>2021-05-23T09:25:43Z</time>
      </trkpt>
      <trkpt lat="43.47856" lon="2.39477">
        <ele>589.325</ele>
        <time>2021-05-23T09:25:45Z</time>
      </trkpt>
      <trkpt lat="43.47858" lon="2.39474">
        <ele>587.101</ele>
        <time>2021-05-23T09:25:47Z</time>
      </trkpt>
      <trkpt lat="43.47858" lon="2.39471">
        <ele>586.173</ele>
        <time>2021-05-23T09:25:49Z</time>
      </trkpt>
      <trkpt lat="43.47858" lon="2.39468">
        <ele>585.502</ele>
        <time>2021-05-23T09:25:51Z</time>
      </trkpt>
      <trkpt lat="43.47859" lon="2.39465">
        <ele>585.558</ele>
        <time>2021-05-23T09:25:53Z</time>
      </trkpt>
      <trkpt lat="43.47861" lon="2.39462">
        <ele>586.011</ele>
        <time>2021-05-23T09:25:55Z</time>
      </trkpt>
      <trkpt lat="43.47861" lon="2.39458">
        <ele>584.884</ele>
        <time>2021-05-23T09:25:57Z</time>
      </trkpt>
      <trkpt lat="43.47862" lon="2.39455">
        <ele>584.542</ele>
        <time>2021-05-23T09:25:59Z</time>
      </trkpt>
      <trkpt lat="43.47863" lon="2.39451">
        <ele>585.013</ele>
        <time>2021-05-23T09:26:01Z</time>
      </trkpt>
      <trkpt lat="43.47865" lon="2.39448">
        <ele>584.786</ele>
        <time>2021-05-23T09:26:03Z</time>
      </trkpt>
      <trkpt lat="43.47867" lon="2.39445">
        <ele>585.808</ele>
        <time>2021-05-23T09:26:05Z</time>
      </trkpt>
      <trkpt lat="43.47869" lon="2.39442">
        <ele>587.57</ele>
        <time>2021-05-23T09:26:07Z</time>
      </trkpt>
      <trkpt lat="43.47871" lon="2.39441">
        <ele>587.214</ele>
        <time>2021-05-23T09:26:09Z</time>
      </trkpt>
      <trkpt lat="43.47872" lon="2.39439">
        <ele>586.281</ele>
        <time>2021-05-23T09:26:11Z</time>
      </trkpt>
      <trkpt lat="43.47874" lon="2.39436">
        <ele>586.358</ele>
        <time>2021-05-23T09:26:13Z</time>
      </trkpt>
      <trkpt lat="43.47876" lon="2.39434">
        <ele>586.425</ele>
        <time>2021-05-23T09:26:15Z</time>
      </trkpt>
      <trkpt lat="43.47878" lon="2.39431">
        <ele>585.941</ele>
        <time>2021-05-23T09:26:17Z</time>
      </trkpt>
      <trkpt lat="43.47879" lon="2.39429">
        <ele>586.476</ele>
        <time>2021-05-23T09:26:19Z</time>
      </trkpt>
      <trkpt lat="43.47881" lon="2.39426">
        <ele>587.341</ele>
        <time>2021-05-23T09:26:21Z</time>
      </trkpt>
      <trkpt lat="43.47882" lon="2.39424">
        <ele>586.549</ele>
        <time>2021-05-23T09:26:23Z</time>
      </trkpt>
      <trkpt lat="43.47884" lon="2.39422">
        <ele>586.312</ele>
        <time>2021-05-23T09:26:25Z</time>
      </trkpt>
      <trkpt lat="43.47885" lon="2.39419">
        <ele>584.98</ele>
        <time>2021-05-23T09:26:27Z</time>
      </trkpt>
      <trkpt lat="43.47886" lon="2.39416">
        <ele>586.122</ele>
        <time>2021-05-23T09:26:29Z</time>
      </trkpt>
      <trkpt lat="43.47888" lon="2.39414">
        <ele>585.642</ele>
        <time>2021-05-23T09:26:31Z</time>
      </trkpt>
      <trkpt lat="43.4789" lon="2.39411">
        <ele>584.93</ele>
        <time>2021-05-23T09:26:33Z</time>
      </trkpt>
      <trkpt lat="43.47892" lon="2.39409">
        <ele>585.039</ele>
        <time>2021-05-23T09:26:35Z</time>
      </trkpt>
      <trkpt lat="43.47894" lon="2.39406">
        <ele>586.329</ele>
        <time>2021-05-23T09:26:37Z</time>
      </trkpt>
      <trkpt lat="43.47897" lon="2.39403">
        <ele>587.114</ele>
        <time>2021-05-23T09:26:39Z</time>
      </trkpt>
      <trkpt lat="43.47899" lon="2.394">
        <ele>587.075</ele>
        <time>2021-05-23T09:26:41Z</time>
      </trkpt>
      <trkpt lat="43.47901" lon="2.39397">
        <ele>586.821</ele>
        <time>2021-05-23T09:26:43Z</time>
      </trkpt>
      <trkpt lat="43.47903" lon="2.39395">
        <ele>587.715</ele>
        <time>2021-05-23T09:26:45Z</time>
      </trkpt>
      <trkpt lat="43.47906" lon="2.39393">
        <ele>588.105</ele>
        <time>2021-05-23T09:26:47Z</time>
      </trkpt>
      <trkpt lat="43.47908" lon="2.39391">
        <ele>589.65</ele>
        <time>2021-05-23T09:26:49Z</time>
      </trkpt>
      <trkpt lat="43.4791" lon="2.39389">
        <ele>590.072</ele>
        <time>2021-05-23T09:26:51Z</time>
      </trkpt>
      <trkpt lat="43.47913" lon="2.39387">
        <ele>590.128</ele>
        <time>2021-05-23T09:26:53Z</time>
      </trkpt>
      <trkpt lat="43.47915" lon="2.39385">
        <ele>590.932</ele>
        <time>2021-05-23T09:26:55Z</time>
      </trkpt>
      <trkpt lat="43.47917" lon="2.39383">
        <ele>590.712</ele>
        <time>2021-05-23T09:26:57Z</time>
      </trkpt>
      <trkpt lat="43.47919" lon="2.39381">
        <ele>590.874</ele>
        <time>2021-05-23T09:26:59Z</time>
      </trkpt>
      <trkpt lat="43.47922" lon="2.39379">
        <ele>591.512</ele>
        <time>2021-05-23T09:27:01Z</time>
      </trkpt>
      <trkpt lat="43.47924" lon="2.39376">
        <ele>592.267</ele>
        <time>2021-05-23T09:27:03Z</time>
      </trkpt>
      <trkpt lat="43.47927" lon="2.39373">
        <ele>592.519</ele>
        <time>2021-05-23T09:27:05Z</time>
      </trkpt>
      <trkpt lat="43.47929" lon="2.39371">
        <ele>592.032</ele>
        <time>2021-05-23T09:27:07Z</time>
      </trkpt>
      <trkpt lat="43.47931" lon="2.39367">
        <ele>591.184</ele>
        <time>2021-05-23T09:27:09Z</time>
      </trkpt>
      <trkpt lat="43.47933" lon="2.39364">
        <ele>591.329</ele>
        <time>2021-05-23T09:27:11Z</time>
      </trkpt>
      <trkpt lat="43.47935" lon="2.39361">
        <ele>590.399</ele>
        <time>2021-05-23T09:27:13Z</time>
      </trkpt>
      <trkpt lat="43.47936" lon="2.39359">
        <ele>588.8</ele>
        <time>2021-05-23T09:27:15Z</time>
      </trkpt>
      <trkpt lat="43.47938" lon="2.39356">
        <ele>587.744</ele>
        <time>2021-05-23T09:27:17Z</time>
      </trkpt>
      <trkpt lat="43.4794" lon="2.39354">
        <ele>588.812</ele>
        <time>2021-05-23T09:27:19Z</time>
      </trkpt>
      <trkpt lat="43.47942" lon="2.39352">
        <ele>589.651</ele>
        <time>2021-05-23T09:27:21Z</time>
      </trkpt>
      <trkpt lat="43.47945" lon="2.39351">
        <ele>588.794</ele>
        <time>2021-05-23T09:27:23Z</time>
      </trkpt>
      <trkpt lat="43.47947" lon="2.39349">
        <ele>589.189</ele>
        <time>2021-05-23T09:27:25Z</time>
      </trkpt>
      <trkpt lat="43.4795" lon="2.39348">
        <ele>589.725</ele>
        <time>2021-05-23T09:27:27Z</time>
      </trkpt>
      <trkpt lat="43.47952" lon="2.39347">
        <ele>589.329</ele>
        <time>2021-05-23T09:27:29Z</time>
      </trkpt>
      <trkpt lat="43.47953" lon="2.39347">
        <ele>589.728</ele>
        <time>2021-05-23T09:27:30Z</time>
      </trkpt>
      <trkpt lat="43.47956" lon="2.39345">
        <ele>590.089</ele>
        <time>2021-05-23T09:27:33Z</time>
      </trkpt>
      <trkpt lat="43.47958" lon="2.39344">
        <ele>588.979</ele>
        <time>2021-05-23T09:27:35Z</time>
      </trkpt>
      <trkpt lat="43.4796" lon="2.39343">
        <ele>588.803</ele>
        <time>2021-05-23T09:27:37Z</time>
      </trkpt>
      <trkpt lat="43.47962" lon="2.39342">
        <ele>587.814</ele>
        <time>2021-05-23T09:27:39Z</time>
      </trkpt>
      <trkpt lat="43.47965" lon="2.3934">
        <ele>587.409</ele>
        <time>2021-05-23T09:27:41Z</time>
      </trkpt>
      <trkpt lat="43.47967" lon="2.39339">
        <ele>587.369</ele>
        <time>2021-05-23T09:27:43Z</time>
      </trkpt>
      <trkpt lat="43.4797" lon="2.39337">
        <ele>588.743</ele>
        <time>2021-05-23T09:27:45Z</time>
      </trkpt>
      <trkpt lat="43.47973" lon="2.39336">
        <ele>588.596</ele>
        <time>2021-05-23T09:27:47Z</time>
      </trkpt>
      <trkpt lat="43.47976" lon="2.39335">
        <ele>588.006</ele>
        <time>2021-05-23T09:27:49Z</time>
      </trkpt>
      <trkpt lat="43.47978" lon="2.39334">
        <ele>587.381</ele>
        <time>2021-05-23T09:27:51Z</time>
      </trkpt>
      <trkpt lat="43.47979" lon="2.39333">
        <ele>587.788</ele>
        <time>2021-05-23T09:27:53Z</time>
      </trkpt>
      <trkpt lat="43.47982" lon="2.39331">
        <ele>587.93</ele>
        <time>2021-05-23T09:27:55Z</time>
      </trkpt>
      <trkpt lat="43.47984" lon="2.39329">
        <ele>587.633</ele>
        <time>2021-05-23T09:27:57Z</time>
      </trkpt>
      <trkpt lat="43.47987" lon="2.39328">
        <ele>588.334</ele>
        <time>2021-05-23T09:27:59Z</time>
      </trkpt>
      <trkpt lat="43.47988" lon="2.39327">
        <ele>586.66</ele>
        <time>2021-05-23T09:28:01Z</time>
      </trkpt>
      <trkpt lat="43.47989" lon="2.39327">
        <ele>585.887</ele>
        <time>2021-05-23T09:28:03Z</time>
      </trkpt>
      <trkpt lat="43.4799" lon="2.39327">
        <ele>585.477</ele>
        <time>2021-05-23T09:28:05Z</time>
      </trkpt>
      <trkpt lat="43.47993" lon="2.39327">
        <ele>586.789</ele>
        <time>2021-05-23T09:28:07Z</time>
      </trkpt>
      <trkpt lat="43.47996" lon="2.39328">
        <ele>587.634</ele>
        <time>2021-05-23T09:28:09Z</time>
      </trkpt>
      <trkpt lat="43.47998" lon="2.39329">
        <ele>588.905</ele>
        <time>2021-05-23T09:28:11Z</time>
      </trkpt>
      <trkpt lat="43.48001" lon="2.39329">
        <ele>588.052</ele>
        <time>2021-05-23T09:28:13Z</time>
      </trkpt>
      <trkpt lat="43.48003" lon="2.39331">
        <ele>587.39</ele>
        <time>2021-05-23T09:28:15Z</time>
      </trkpt>
      <trkpt lat="43.48005" lon="2.39332">
        <ele>586.376</ele>
        <time>2021-05-23T09:28:17Z</time>
      </trkpt>
      <trkpt lat="43.48005" lon="2.39333">
        <ele>586.076</ele>
        <time>2021-05-23T09:28:19Z</time>
      </trkpt>
      <trkpt lat="43.48006" lon="2.39335">
        <ele>585.688</ele>
        <time>2021-05-23T09:28:21Z</time>
      </trkpt>
      <trkpt lat="43.48007" lon="2.39335">
        <ele>585.582</ele>
        <time>2021-05-23T09:28:23Z</time>
      </trkpt>
      <trkpt lat="43.48007" lon="2.39335">
        <ele>584.941</ele>
        <time>2021-05-23T09:28:25Z</time>
      </trkpt>
      <trkpt lat="43.48007" lon="2.39335">
        <ele>585.32</ele>
        <time>2021-05-23T09:28:27Z</time>
      </trkpt>
      <trkpt lat="43.48006" lon="2.39335">
        <ele>585.721</ele>
        <time>2021-05-23T09:28:29Z</time>
      </trkpt>
      <trkpt lat="43.48004" lon="2.39335">
        <ele>586.084</ele>
        <time>2021-05-23T09:28:31Z</time>
      </trkpt>
      <trkpt lat="43.48002" lon="2.39336">
        <ele>586.249</ele>
        <time>2021-05-23T09:28:33Z</time>
      </trkpt>
      <trkpt lat="43.48001" lon="2.39338">
        <ele>586.412</ele>
        <time>2021-05-23T09:28:35Z</time>
      </trkpt>
      <trkpt lat="43.48" lon="2.3934">
        <ele>587.616</ele>
        <time>2021-05-23T09:28:37Z</time>
      </trkpt>
      <trkpt lat="43.48" lon="2.39341">
        <ele>588.193</ele>
        <time>2021-05-23T09:28:39Z</time>
      </trkpt>
      <trkpt lat="43.47998" lon="2.39342">
        <ele>586.323</ele>
        <time>2021-05-23T09:28:41Z</time>
      </trkpt>
      <trkpt lat="43.47997" lon="2.39342">
        <ele>586.052</ele>
        <time>2021-05-23T09:28:43Z</time>
      </trkpt>
      <trkpt lat="43.47995" lon="2.39342">
        <ele>585.336</ele>
        <time>2021-05-23T09:28:45Z</time>
      </trkpt>
      <trkpt lat="43.47994" lon="2.39341">
        <ele>584.866</ele>
        <time>2021-05-23T09:28:47Z</time>
      </trkpt>
      <trkpt lat="43.47993" lon="2.39341">
        <ele>584.761</ele>
        <time>2021-05-23T09:28:49Z</time>
      </trkpt>
      <trkpt lat="43.47993" lon="2.39341">
        <ele>584.653</ele>
        <time>2021-05-23T09:28:51Z</time>
      </trkpt>
      <trkpt lat="43.47994" lon="2.39343">
        <ele>584.192</ele>
        <time>2021-05-23T09:28:53Z</time>
      </trkpt>
      <trkpt lat="43.47995" lon="2.39345">
        <ele>584.17</ele>
        <time>2021-05-23T09:28:55Z</time>
      </trkpt>
      <trkpt lat="43.47995" lon="2.39345">
        <ele>584.147</ele>
        <time>2021-05-23T09:28:57Z</time>
      </trkpt>
      <trkpt lat="43.47995" lon="2.39345">
        <ele>584.125</ele>
        <time>2021-05-23T09:28:59Z</time>
      </trkpt>
      <trkpt lat="43.47993" lon="2.39345">
        <ele>584.005</ele>
        <time>2021-05-23T09:29:01Z</time>
      </trkpt>
      <trkpt lat="43.47992" lon="2.39346">
        <ele>584.539</ele>
        <time>2021-05-23T09:29:03Z</time>
      </trkpt>
      <trkpt lat="43.47991" lon="2.39347">
        <ele>584.972</ele>
        <time>2021-05-23T09:29:05Z</time>
      </trkpt>
      <trkpt lat="43.47991" lon="2.39347">
        <ele>584.964</ele>
        <time>2021-05-23T09:29:07Z</time>
      </trkpt>
      <trkpt lat="43.4799" lon="2.39348">
        <ele>584.975</ele>
        <time>2021-05-23T09:29:09Z</time>
      </trkpt>
      <trkpt lat="43.4799" lon="2.39348">
        <ele>584.959</ele>
        <time>2021-05-23T09:29:11Z</time>
      </trkpt>
      <trkpt lat="43.4799" lon="2.39349">
        <ele>584.746</ele>
        <time>2021-05-23T09:29:13Z</time>
      </trkpt>
      <trkpt lat="43.4799" lon="2.39349">
        <ele>584.615</ele>
        <time>2021-05-23T09:29:15Z</time>
      </trkpt>
      <trkpt lat="43.4799" lon="2.39349">
        <ele>584.612</ele>
        <time>2021-05-23T09:29:17Z</time>
      </trkpt>
      <trkpt lat="43.4799" lon="2.39349">
        <ele>584.604</ele>
        <time>2021-05-23T09:29:19Z</time>
      </trkpt>
      <trkpt lat="43.4799" lon="2.39349">
        <ele>584.598</ele>
        <time>2021-05-23T09:29:21Z</time>
      </trkpt>
      <trkpt lat="43.4799" lon="2.39349">
        <ele>584.593</ele>
        <time>2021-05-23T09:29:23Z</time>
      </trkpt>
      <trkpt lat="43.4799" lon="2.39349">
        <ele>584.587</ele>
        <time>2021-05-23T09:29:25Z</time>
      </trkpt>
      <trkpt lat="43.4799" lon="2.39349">
        <ele>584.581</ele>
        <time>2021-05-23T09:29:27Z</time>
      </trkpt>
      <trkpt lat="43.4799" lon="2.39349">
        <ele>584.576</ele>
        <time>2021-05-23T09:29:29Z</time>
      </trkpt>
      <trkpt lat="43.4799" lon="2.39349">
        <ele>584.573</ele>
        <time>2021-05-23T09:29:31Z</time>
      </trkpt>
      <trkpt lat="43.4799" lon="2.39349">
        <ele>584.572</ele>
        <time>2021-05-23T09:29:33Z</time>
      </trkpt>
      <trkpt lat="43.4799" lon="2.39349">
        <ele>584.577</ele>
        <time>2021-05-23T09:29:35Z</time>
      </trkpt>
      <trkpt lat="43.4799" lon="2.39349">
        <ele>584.577</ele>
        <time>2021-05-23T09:29:37Z</time>
      </trkpt>
      <trkpt lat="43.4799" lon="2.39349">
        <ele>584.574</ele>
        <time>2021-05-23T09:29:39Z</time>
      </trkpt>
      <trkpt lat="43.4799" lon="2.39349">
        <ele>584.576</ele>
        <time>2021-05-23T09:29:41Z</time>
      </trkpt>
      <trkpt lat="43.4799" lon="2.39349">
        <ele>584.578</ele>
        <time>2021-05-23T09:29:43Z</time>
      </trkpt>
      <trkpt lat="43.4799" lon="2.39349">
        <ele>584.581</ele>
        <time>2021-05-23T09:29:45Z</time>
      </trkpt>
      <trkpt lat="43.4799" lon="2.39349">
        <ele>584.58</ele>
        <time>2021-05-23T09:29:47Z</time>
      </trkpt>
      <trkpt lat="43.4799" lon="2.39349">
        <ele>584.587</ele>
        <time>2021-05-23T09:29:49Z</time>
      </trkpt>
      <trkpt lat="43.4799" lon="2.39349">
        <ele>584.592</ele>
        <time>2021-05-23T09:29:51Z</time>
      </trkpt>
      <trkpt lat="43.4799" lon="2.39349">
        <ele>584.595</ele>
        <time>2021-05-23T09:29:53Z</time>
      </trkpt>
      <trkpt lat="43.4799" lon="2.39349">
        <ele>584.601</ele>
        <time>2021-05-23T09:29:55Z</time>
      </trkpt>
      <trkpt lat="43.4799" lon="2.39349">
        <ele>584.603</ele>
        <time>2021-05-23T09:29:57Z</time>
      </trkpt>
      <trkpt lat="43.4799" lon="2.39349">
        <ele>584.606</ele>
        <time>2021-05-23T09:29:59Z</time>
      </trkpt>
      <trkpt lat="43.4799" lon="2.39349">
        <ele>584.612</ele>
        <time>2021-05-23T09:30:01Z</time>
      </trkpt>
      <trkpt lat="43.4799" lon="2.39349">
        <ele>584.613</ele>
        <time>2021-05-23T09:30:03Z</time>
      </trkpt>
      <trkpt lat="43.4799" lon="2.39349">
        <ele>584.611</ele>
        <time>2021-05-23T09:30:05Z</time>
      </trkpt>
      <trkpt lat="43.4799" lon="2.39348">
        <ele>584.194</ele>
        <time>2021-05-23T09:30:07Z</time>
      </trkpt>
      <trkpt lat="43.4799" lon="2.39348">
        <ele>584.053</ele>
        <time>2021-05-23T09:30:09Z</time>
      </trkpt>
      <trkpt lat="43.47991" lon="2.39346">
        <ele>583.496</ele>
        <time>2021-05-23T09:30:11Z</time>
      </trkpt>
      <trkpt lat="43.47992" lon="2.39345">
        <ele>583.59</ele>
        <time>2021-05-23T09:30:13Z</time>
      </trkpt>
      <trkpt lat="43.47993" lon="2.39343">
        <ele>583.73</ele>
        <time>2021-05-23T09:30:15Z</time>
      </trkpt>
      <trkpt lat="43.47993" lon="2.39342">
        <ele>583.47</ele>
        <time>2021-05-23T09:30:17Z</time>
      </trkpt>
      <trkpt lat="43.47994" lon="2.39341">
        <ele>583.574</ele>
        <time>2021-05-23T09:30:19Z</time>
      </trkpt>
      <trkpt lat="43.47996" lon="2.3934">
        <ele>584.758</ele>
        <time>2021-05-23T09:30:21Z</time>
      </trkpt>
      <trkpt lat="43.47998" lon="2.39339">
        <ele>584.682</ele>
        <time>2021-05-23T09:30:23Z</time>
      </trkpt>
      <trkpt lat="43.47998" lon="2.39338">
        <ele>584.93</ele>
        <time>2021-05-23T09:30:25Z</time>
      </trkpt>
      <trkpt lat="43.47999" lon="2.39337">
        <ele>585.328</ele>
        <time>2021-05-23T09:30:27Z</time>
      </trkpt>
      <trkpt lat="43.48" lon="2.39336">
        <ele>585.291</ele>
        <time>2021-05-23T09:30:29Z</time>
      </trkpt>
      <trkpt lat="43.48" lon="2.39335">
        <ele>585.217</ele>
        <time>2021-05-23T09:30:31Z</time>
      </trkpt>
      <trkpt lat="43.48001" lon="2.39335">
        <ele>585.374</ele>
        <time>2021-05-23T09:30:33Z</time>
      </trkpt>
      <trkpt lat="43.48002" lon="2.39334">
        <ele>585.334</ele>
        <time>2021-05-23T09:30:35Z</time>
      </trkpt>
      <trkpt lat="43.48002" lon="2.39334">
        <ele>584.396</ele>
        <time>2021-05-23T09:30:37Z</time>
      </trkpt>
      <trkpt lat="43.48003" lon="2.39334">
        <ele>584.179</ele>
        <time>2021-05-23T09:30:39Z</time>
      </trkpt>
      <trkpt lat="43.48003" lon="2.39333">
        <ele>583.824</ele>
        <time>2021-05-23T09:30:41Z</time>
      </trkpt>
      <trkpt lat="43.48004" lon="2.39333">
        <ele>583.96</ele>
        <time>2021-05-23T09:30:43Z</time>
      </trkpt>
      <trkpt lat="43.48004" lon="2.39334">
        <ele>583.85</ele>
        <time>2021-05-23T09:30:45Z</time>
      </trkpt>
      <trkpt lat="43.48005" lon="2.39334">
        <ele>583.582</ele>
        <time>2021-05-23T09:30:47Z</time>
      </trkpt>
      <trkpt lat="43.48004" lon="2.39334">
        <ele>583.567</ele>
        <time>2021-05-23T09:30:49Z</time>
      </trkpt>
      <trkpt lat="43.48004" lon="2.39334">
        <ele>583.564</ele>
        <time>2021-05-23T09:30:51Z</time>
      </trkpt>
      <trkpt lat="43.48004" lon="2.39334">
        <ele>583.557</ele>
        <time>2021-05-23T09:30:53Z</time>
      </trkpt>
      <trkpt lat="43.48004" lon="2.39334">
        <ele>583.552</ele>
        <time>2021-05-23T09:30:55Z</time>
      </trkpt>
      <trkpt lat="43.48004" lon="2.39334">
        <ele>583.55</ele>
        <time>2021-05-23T09:30:57Z</time>
      </trkpt>
      <trkpt lat="43.48004" lon="2.39334">
        <ele>583.55</ele>
        <time>2021-05-23T09:30:59Z</time>
      </trkpt>
      <trkpt lat="43.48004" lon="2.39334">
        <ele>583.548</ele>
        <time>2021-05-23T09:31:01Z</time>
      </trkpt>
      <trkpt lat="43.48004" lon="2.39334">
        <ele>583.553</ele>
        <time>2021-05-23T09:31:03Z</time>
      </trkpt>
      <trkpt lat="43.48004" lon="2.39334">
        <ele>583.555</ele>
        <time>2021-05-23T09:31:05Z</time>
      </trkpt>
      <trkpt lat="43.48004" lon="2.39334">
        <ele>583.557</ele>
        <time>2021-05-23T09:31:07Z</time>
      </trkpt>
      <trkpt lat="43.48004" lon="2.39334">
        <ele>583.552</ele>
        <time>2021-05-23T09:31:09Z</time>
      </trkpt>
      <trkpt lat="43.48005" lon="2.39335">
        <ele>583.639</ele>
        <time>2021-05-23T09:31:11Z</time>
      </trkpt>
      <trkpt lat="43.48005" lon="2.39335">
        <ele>583.634</ele>
        <time>2021-05-23T09:31:13Z</time>
      </trkpt>
      <trkpt lat="43.48005" lon="2.39335">
        <ele>583.63</ele>
        <time>2021-05-23T09:31:15Z</time>
      </trkpt>
      <trkpt lat="43.48005" lon="2.39335">
        <ele>583.633</ele>
        <time>2021-05-23T09:31:17Z</time>
      </trkpt>
      <trkpt lat="43.48005" lon="2.39335">
        <ele>583.631</ele>
        <time>2021-05-23T09:31:19Z</time>
      </trkpt>
      <trkpt lat="43.48005" lon="2.39335">
        <ele>583.631</ele>
        <time>2021-05-23T09:31:21Z</time>
      </trkpt>
      <trkpt lat="43.48005" lon="2.39335">
        <ele>583.631</ele>
        <time>2021-05-23T09:31:23Z</time>
      </trkpt>
      <trkpt lat="43.48005" lon="2.39335">
        <ele>583.625</ele>
        <time>2021-05-23T09:31:25Z</time>
      </trkpt>
      <trkpt lat="43.48005" lon="2.39335">
        <ele>583.625</ele>
        <time>2021-05-23T09:31:27Z</time>
      </trkpt>
      <trkpt lat="43.48005" lon="2.39335">
        <ele>583.627</ele>
        <time>2021-05-23T09:31:29Z</time>
      </trkpt>
      <trkpt lat="43.48005" lon="2.39335">
        <ele>583.633</ele>
        <time>2021-05-23T09:31:31Z</time>
      </trkpt>
      <trkpt lat="43.48005" lon="2.39335">
        <ele>583.641</ele>
        <time>2021-05-23T09:31:33Z</time>
      </trkpt>
      <trkpt lat="43.48005" lon="2.39335">
        <ele>583.643</ele>
        <time>2021-05-23T09:31:35Z</time>
      </trkpt>
      <trkpt lat="43.48005" lon="2.39334">
        <ele>583.463</ele>
        <time>2021-05-23T09:31:37Z</time>
      </trkpt>
      <trkpt lat="43.48005" lon="2.39334">
        <ele>583.455</ele>
        <time>2021-05-23T09:31:39Z</time>
      </trkpt>
      <trkpt lat="43.48005" lon="2.39334">
        <ele>583.454</ele>
        <time>2021-05-23T09:31:41Z</time>
      </trkpt>
      <trkpt lat="43.48005" lon="2.39334">
        <ele>583.459</ele>
        <time>2021-05-23T09:31:43Z</time>
      </trkpt>
      <trkpt lat="43.48005" lon="2.39334">
        <ele>583.464</ele>
        <time>2021-05-23T09:31:45Z</time>
      </trkpt>
      <trkpt lat="43.48005" lon="2.39334">
        <ele>583.468</ele>
        <time>2021-05-23T09:31:47Z</time>
      </trkpt>
      <trkpt lat="43.48005" lon="2.39334">
        <ele>583.468</ele>
        <time>2021-05-23T09:31:49Z</time>
      </trkpt>
      <trkpt lat="43.48005" lon="2.39334">
        <ele>583.471</ele>
        <time>2021-05-23T09:31:51Z</time>
      </trkpt>
      <trkpt lat="43.48005" lon="2.39334">
        <ele>583.473</ele>
        <time>2021-05-23T09:31:53Z</time>
      </trkpt>
      <trkpt lat="43.48005" lon="2.39334">
        <ele>583.473</ele>
        <time>2021-05-23T09:31:55Z</time>
      </trkpt>
      <trkpt lat="43.48005" lon="2.39334">
        <ele>583.475</ele>
        <time>2021-05-23T09:31:57Z</time>
      </trkpt>
      <trkpt lat="43.48005" lon="2.39334">
        <ele>583.479</ele>
        <time>2021-05-23T09:31:59Z</time>
      </trkpt>
      <trkpt lat="43.48005" lon="2.39334">
        <ele>583.486</ele>
        <time>2021-05-23T09:32:01Z</time>
      </trkpt>
      <trkpt lat="43.48005" lon="2.39334">
        <ele>583.492</ele>
        <time>2021-05-23T09:32:03Z</time>
      </trkpt>
      <trkpt lat="43.48005" lon="2.39334">
        <ele>583.491</ele>
        <time>2021-05-23T09:32:05Z</time>
      </trkpt>
      <trkpt lat="43.48005" lon="2.39334">
        <ele>583.489</ele>
        <time>2021-05-23T09:32:07Z</time>
      </trkpt>
      <trkpt lat="43.48005" lon="2.39334">
        <ele>583.494</ele>
        <time>2021-05-23T09:32:09Z</time>
      </trkpt>
      <trkpt lat="43.48005" lon="2.39334">
        <ele>583.5</ele>
        <time>2021-05-23T09:32:11Z</time>
      </trkpt>
      <trkpt lat="43.48005" lon="2.39334">
        <ele>583.5</ele>
        <time>2021-05-23T09:32:13Z</time>
      </trkpt>
      <trkpt lat="43.48005" lon="2.39334">
        <ele>583.501</ele>
        <time>2021-05-23T09:32:15Z</time>
      </trkpt>
      <trkpt lat="43.48005" lon="2.39334">
        <ele>583.504</ele>
        <time>2021-05-23T09:32:17Z</time>
      </trkpt>
      <trkpt lat="43.48005" lon="2.39334">
        <ele>583.508</ele>
        <time>2021-05-23T09:32:19Z</time>
      </trkpt>
      <trkpt lat="43.48005" lon="2.39334">
        <ele>583.504</ele>
        <time>2021-05-23T09:32:21Z</time>
      </trkpt>
      <trkpt lat="43.48005" lon="2.39334">
        <ele>583.639</ele>
        <time>2021-05-23T09:32:23Z</time>
      </trkpt>
      <trkpt lat="43.48005" lon="2.39334">
        <ele>583.638</ele>
        <time>2021-05-23T09:32:25Z</time>
      </trkpt>
      <trkpt lat="43.48005" lon="2.39334">
        <ele>583.638</ele>
        <time>2021-05-23T09:32:27Z</time>
      </trkpt>
      <trkpt lat="43.48005" lon="2.39334">
        <ele>583.634</ele>
        <time>2021-05-23T09:32:29Z</time>
      </trkpt>
      <trkpt lat="43.48005" lon="2.39334">
        <ele>583.627</ele>
        <time>2021-05-23T09:32:31Z</time>
      </trkpt>
      <trkpt lat="43.48005" lon="2.39334">
        <ele>583.623</ele>
        <time>2021-05-23T09:32:33Z</time>
      </trkpt>
      <trkpt lat="43.48005" lon="2.39334">
        <ele>583.465</ele>
        <time>2021-05-23T09:32:35Z</time>
      </trkpt>
      <trkpt lat="43.48006" lon="2.39334">
        <ele>583.356</ele>
        <time>2021-05-23T09:32:37Z</time>
      </trkpt>
      <trkpt lat="43.48006" lon="2.39334">
        <ele>583.333</ele>
        <time>2021-05-23T09:32:39Z</time>
      </trkpt>
      <trkpt lat="43.48006" lon="2.39334">
        <ele>583.33</ele>
        <time>2021-05-23T09:32:41Z</time>
      </trkpt>
      <trkpt lat="43.48006" lon="2.39334">
        <ele>583.336</ele>
        <time>2021-05-23T09:32:43Z</time>
      </trkpt>
      <trkpt lat="43.48006" lon="2.39334">
        <ele>583.343</ele>
        <time>2021-05-23T09:32:45Z</time>
      </trkpt>
      <trkpt lat="43.48006" lon="2.39334">
        <ele>583.346</ele>
        <time>2021-05-23T09:32:47Z</time>
      </trkpt>
      <trkpt lat="43.48006" lon="2.39334">
        <ele>583.344</ele>
        <time>2021-05-23T09:32:49Z</time>
      </trkpt>
      <trkpt lat="43.48006" lon="2.39334">
        <ele>583.34</ele>
        <time>2021-05-23T09:32:51Z</time>
      </trkpt>
      <trkpt lat="43.48006" lon="2.39334">
        <ele>583.337</ele>
        <time>2021-05-23T09:32:53Z</time>
      </trkpt>
      <trkpt lat="43.48006" lon="2.39334">
        <ele>583.335</ele>
        <time>2021-05-23T09:32:55Z</time>
      </trkpt>
      <trkpt lat="43.48006" lon="2.39334">
        <ele>583.335</ele>
        <time>2021-05-23T09:32:57Z</time>
      </trkpt>
      <trkpt lat="43.48006" lon="2.39334">
        <ele>583.331</ele>
        <time>2021-05-23T09:32:59Z</time>
      </trkpt>
      <trkpt lat="43.48006" lon="2.39334">
        <ele>583.337</ele>
        <time>2021-05-23T09:33:01Z</time>
      </trkpt>
      <trkpt lat="43.48006" lon="2.39334">
        <ele>583.168</ele>
        <time>2021-05-23T09:33:03Z</time>
      </trkpt>
      <trkpt lat="43.48006" lon="2.39334">
        <ele>583.167</ele>
        <time>2021-05-23T09:33:05Z</time>
      </trkpt>
      <trkpt lat="43.48006" lon="2.39334">
        <ele>583.166</ele>
        <time>2021-05-23T09:33:07Z</time>
      </trkpt>
      <trkpt lat="43.48006" lon="2.39334">
        <ele>583.171</ele>
        <time>2021-05-23T09:33:09Z</time>
      </trkpt>
      <trkpt lat="43.48006" lon="2.39334">
        <ele>582.897</ele>
        <time>2021-05-23T09:33:11Z</time>
      </trkpt>
      <trkpt lat="43.48006" lon="2.39333">
        <ele>582.94</ele>
        <time>2021-05-23T09:33:13Z</time>
      </trkpt>
      <trkpt lat="43.48006" lon="2.39333">
        <ele>582.997</ele>
        <time>2021-05-23T09:33:15Z</time>
      </trkpt>
      <trkpt lat="43.48005" lon="2.39332">
        <ele>583.38</ele>
        <time>2021-05-23T09:33:17Z</time>
      </trkpt>
      <trkpt lat="43.48005" lon="2.39331">
        <ele>583.095</ele>
        <time>2021-05-23T09:33:19Z</time>
      </trkpt>
      <trkpt lat="43.48005" lon="2.3933">
        <ele>583.088</ele>
        <time>2021-05-23T09:33:21Z</time>
      </trkpt>
      <trkpt lat="43.48005" lon="2.3933">
        <ele>583.081</ele>
        <time>2021-05-23T09:33:23Z</time>
      </trkpt>
      <trkpt lat="43.48005" lon="2.3933">
        <ele>583.076</ele>
        <time>2021-05-23T09:33:25Z</time>
      </trkpt>
      <trkpt lat="43.48005" lon="2.3933">
        <ele>583.072</ele>
        <time>2021-05-23T09:33:27Z</time>
      </trkpt>
      <trkpt lat="43.48005" lon="2.3933">
        <ele>583.077</ele>
        <time>2021-05-23T09:33:29Z</time>
      </trkpt>
      <trkpt lat="43.48005" lon="2.3933">
        <ele>583.077</ele>
        <time>2021-05-23T09:33:31Z</time>
      </trkpt>
      <trkpt lat="43.48005" lon="2.3933">
        <ele>583.078</ele>
        <time>2021-05-23T09:33:33Z</time>
      </trkpt>
      <trkpt lat="43.48005" lon="2.3933">
        <ele>583.072</ele>
        <time>2021-05-23T09:33:35Z</time>
      </trkpt>
      <trkpt lat="43.48005" lon="2.3933">
        <ele>583.07</ele>
        <time>2021-05-23T09:33:37Z</time>
      </trkpt>
      <trkpt lat="43.48005" lon="2.3933">
        <ele>583.069</ele>
        <time>2021-05-23T09:33:39Z</time>
      </trkpt>
      <trkpt lat="43.48005" lon="2.3933">
        <ele>583.07</ele>
        <time>2021-05-23T09:33:41Z</time>
      </trkpt>
      <trkpt lat="43.48005" lon="2.3933">
        <ele>583.066</ele>
        <time>2021-05-23T09:33:43Z</time>
      </trkpt>
      <trkpt lat="43.48005" lon="2.3933">
        <ele>583.072</ele>
        <time>2021-05-23T09:33:45Z</time>
      </trkpt>
      <trkpt lat="43.48005" lon="2.39329">
        <ele>582.913</ele>
        <time>2021-05-23T09:33:47Z</time>
      </trkpt>
      <trkpt lat="43.48005" lon="2.39328">
        <ele>582.953</ele>
        <time>2021-05-23T09:33:49Z</time>
      </trkpt>
      <trkpt lat="43.48006" lon="2.39327">
        <ele>582.948</ele>
        <time>2021-05-23T09:33:51Z</time>
      </trkpt>
      <trkpt lat="43.48006" lon="2.39327">
        <ele>583.179</ele>
        <time>2021-05-23T09:33:53Z</time>
      </trkpt>
      <trkpt lat="43.48007" lon="2.39326">
        <ele>583.2</ele>
        <time>2021-05-23T09:33:55Z</time>
      </trkpt>
      <trkpt lat="43.48007" lon="2.39326">
        <ele>582.637</ele>
        <time>2021-05-23T09:33:57Z</time>
      </trkpt>
      <trkpt lat="43.48007" lon="2.39326">
        <ele>582.637</ele>
        <time>2021-05-23T09:33:59Z</time>
      </trkpt>
      <trkpt lat="43.48007" lon="2.39326">
        <ele>582.638</ele>
        <time>2021-05-23T09:34:01Z</time>
      </trkpt>
      <trkpt lat="43.48007" lon="2.39326">
        <ele>582.639</ele>
        <time>2021-05-23T09:34:03Z</time>
      </trkpt>
      <trkpt lat="43.48007" lon="2.39326">
        <ele>582.642</ele>
        <time>2021-05-23T09:34:05Z</time>
      </trkpt>
      <trkpt lat="43.48007" lon="2.39326">
        <ele>582.639</ele>
        <time>2021-05-23T09:34:07Z</time>
      </trkpt>
      <trkpt lat="43.48007" lon="2.39326">
        <ele>582.639</ele>
        <time>2021-05-23T09:34:09Z</time>
      </trkpt>
      <trkpt lat="43.48007" lon="2.39326">
        <ele>582.637</ele>
        <time>2021-05-23T09:34:11Z</time>
      </trkpt>
      <trkpt lat="43.48007" lon="2.39326">
        <ele>582.632</ele>
        <time>2021-05-23T09:34:13Z</time>
      </trkpt>
      <trkpt lat="43.48007" lon="2.39326">
        <ele>582.627</ele>
        <time>2021-05-23T09:34:15Z</time>
      </trkpt>
      <trkpt lat="43.48007" lon="2.39326">
        <ele>582.62</ele>
        <time>2021-05-23T09:34:17Z</time>
      </trkpt>
      <trkpt lat="43.48007" lon="2.39326">
        <ele>582.612</ele>
        <time>2021-05-23T09:34:19Z</time>
      </trkpt>
      <trkpt lat="43.48007" lon="2.39326">
        <ele>582.598</ele>
        <time>2021-05-23T09:34:21Z</time>
      </trkpt>
      <trkpt lat="43.48007" lon="2.39326">
        <ele>582.592</ele>
        <time>2021-05-23T09:34:23Z</time>
      </trkpt>
      <trkpt lat="43.48007" lon="2.39326">
        <ele>582.589</ele>
        <time>2021-05-23T09:34:25Z</time>
      </trkpt>
      <trkpt lat="43.48007" lon="2.39326">
        <ele>582.588</ele>
        <time>2021-05-23T09:34:27Z</time>
      </trkpt>
      <trkpt lat="43.48007" lon="2.39326">
        <ele>582.586</ele>
        <time>2021-05-23T09:34:29Z</time>
      </trkpt>
      <trkpt lat="43.48007" lon="2.39326">
        <ele>582.592</ele>
        <time>2021-05-23T09:34:31Z</time>
      </trkpt>
      <trkpt lat="43.48007" lon="2.39326">
        <ele>582.594</ele>
        <time>2021-05-23T09:34:33Z</time>
      </trkpt>
      <trkpt lat="43.48007" lon="2.39326">
        <ele>582.595</ele>
        <time>2021-05-23T09:34:35Z</time>
      </trkpt>
      <trkpt lat="43.48006" lon="2.39326">
        <ele>582.596</ele>
        <time>2021-05-23T09:34:37Z</time>
      </trkpt>
      <trkpt lat="43.48006" lon="2.39326">
        <ele>582.589</ele>
        <time>2021-05-23T09:34:39Z</time>
      </trkpt>
      <trkpt lat="43.48006" lon="2.39326">
        <ele>582.597</ele>
        <time>2021-05-23T09:34:41Z</time>
      </trkpt>
      <trkpt lat="43.48006" lon="2.39327">
        <ele>582.96</ele>
        <time>2021-05-23T09:34:43Z</time>
      </trkpt>
      <trkpt lat="43.48007" lon="2.39327">
        <ele>582.972</ele>
        <time>2021-05-23T09:34:45Z</time>
      </trkpt>
      <trkpt lat="43.48007" lon="2.39327">
        <ele>582.972</ele>
        <time>2021-05-23T09:34:47Z</time>
      </trkpt>
      <trkpt lat="43.48007" lon="2.39327">
        <ele>582.962</ele>
        <time>2021-05-23T09:34:49Z</time>
      </trkpt>
      <trkpt lat="43.48007" lon="2.39327">
        <ele>582.944</ele>
        <time>2021-05-23T09:34:51Z</time>
      </trkpt>
      <trkpt lat="43.48007" lon="2.39327">
        <ele>582.931</ele>
        <time>2021-05-23T09:34:53Z</time>
      </trkpt>
      <trkpt lat="43.48007" lon="2.39327">
        <ele>582.922</ele>
        <time>2021-05-23T09:34:55Z</time>
      </trkpt>
      <trkpt lat="43.48007" lon="2.39327">
        <ele>582.919</ele>
        <time>2021-05-23T09:34:57Z</time>
      </trkpt>
      <trkpt lat="43.48007" lon="2.39327">
        <ele>582.921</ele>
        <time>2021-05-23T09:34:59Z</time>
      </trkpt>
      <trkpt lat="43.48007" lon="2.39327">
        <ele>582.925</ele>
        <time>2021-05-23T09:35:01Z</time>
      </trkpt>
      <trkpt lat="43.48007" lon="2.39327">
        <ele>582.915</ele>
        <time>2021-05-23T09:35:03Z</time>
      </trkpt>
      <trkpt lat="43.48007" lon="2.39327">
        <ele>582.915</ele>
        <time>2021-05-23T09:35:05Z</time>
      </trkpt>
      <trkpt lat="43.48007" lon="2.39327">
        <ele>582.913</ele>
        <time>2021-05-23T09:35:07Z</time>
      </trkpt>
      <trkpt lat="43.48007" lon="2.39327">
        <ele>582.918</ele>
        <time>2021-05-23T09:35:09Z</time>
      </trkpt>
      <trkpt lat="43.48007" lon="2.39327">
        <ele>582.919</ele>
        <time>2021-05-23T09:35:11Z</time>
      </trkpt>
      <trkpt lat="43.48006" lon="2.39327">
        <ele>582.746</ele>
        <time>2021-05-23T09:35:13Z</time>
      </trkpt>
      <trkpt lat="43.48006" lon="2.39327">
        <ele>582.206</ele>
        <time>2021-05-23T09:35:15Z</time>
      </trkpt>
      <trkpt lat="43.48006" lon="2.39327">
        <ele>582.194</ele>
        <time>2021-05-23T09:35:17Z</time>
      </trkpt>
      <trkpt lat="43.48006" lon="2.39327">
        <ele>582.183</ele>
        <time>2021-05-23T09:35:19Z</time>
      </trkpt>
      <trkpt lat="43.48006" lon="2.39327">
        <ele>582.177</ele>
        <time>2021-05-23T09:35:21Z</time>
      </trkpt>
      <trkpt lat="43.48006" lon="2.39327">
        <ele>582.177</ele>
        <time>2021-05-23T09:35:23Z</time>
      </trkpt>
      <trkpt lat="43.48006" lon="2.39327">
        <ele>582.185</ele>
        <time>2021-05-23T09:35:25Z</time>
      </trkpt>
      <trkpt lat="43.48006" lon="2.39327">
        <ele>582.189</ele>
        <time>2021-05-23T09:35:27Z</time>
      </trkpt>
      <trkpt lat="43.48006" lon="2.39327">
        <ele>582.193</ele>
        <time>2021-05-23T09:35:29Z</time>
      </trkpt>
      <trkpt lat="43.48006" lon="2.39327">
        <ele>582.204</ele>
        <time>2021-05-23T09:35:31Z</time>
      </trkpt>
      <trkpt lat="43.48006" lon="2.39327">
        <ele>582.214</ele>
        <time>2021-05-23T09:35:33Z</time>
      </trkpt>
      <trkpt lat="43.48006" lon="2.39327">
        <ele>582.217</ele>
        <time>2021-05-23T09:35:35Z</time>
      </trkpt>
      <trkpt lat="43.48006" lon="2.39327">
        <ele>582.221</ele>
        <time>2021-05-23T09:35:37Z</time>
      </trkpt>
      <trkpt lat="43.48006" lon="2.39327">
        <ele>582.226</ele>
        <time>2021-05-23T09:35:39Z</time>
      </trkpt>
      <trkpt lat="43.48006" lon="2.39327">
        <ele>582.223</ele>
        <time>2021-05-23T09:35:41Z</time>
      </trkpt>
      <trkpt lat="43.48006" lon="2.39327">
        <ele>582.217</ele>
        <time>2021-05-23T09:35:43Z</time>
      </trkpt>
      <trkpt lat="43.48006" lon="2.39327">
        <ele>582.215</ele>
        <time>2021-05-23T09:35:45Z</time>
      </trkpt>
      <trkpt lat="43.48006" lon="2.39327">
        <ele>582.21</ele>
        <time>2021-05-23T09:35:47Z</time>
      </trkpt>
      <trkpt lat="43.48006" lon="2.39327">
        <ele>582.208</ele>
        <time>2021-05-23T09:35:49Z</time>
      </trkpt>
      <trkpt lat="43.48006" lon="2.39327">
        <ele>582.21</ele>
        <time>2021-05-23T09:35:51Z</time>
      </trkpt>
      <trkpt lat="43.48006" lon="2.39327">
        <ele>582.205</ele>
        <time>2021-05-23T09:35:53Z</time>
      </trkpt>
      <trkpt lat="43.48006" lon="2.39327">
        <ele>582.194</ele>
        <time>2021-05-23T09:35:55Z</time>
      </trkpt>
      <trkpt lat="43.48006" lon="2.39327">
        <ele>582.198</ele>
        <time>2021-05-23T09:35:57Z</time>
      </trkpt>
      <trkpt lat="43.48006" lon="2.39327">
        <ele>582.218</ele>
        <time>2021-05-23T09:35:59Z</time>
      </trkpt>
      <trkpt lat="43.48006" lon="2.39327">
        <ele>582.221</ele>
        <time>2021-05-23T09:36:01Z</time>
      </trkpt>
      <trkpt lat="43.48006" lon="2.39327">
        <ele>582.218</ele>
        <time>2021-05-23T09:36:03Z</time>
      </trkpt>
      <trkpt lat="43.48006" lon="2.39327">
        <ele>582.217</ele>
        <time>2021-05-23T09:36:05Z</time>
      </trkpt>
      <trkpt lat="43.48006" lon="2.39327">
        <ele>582.215</ele>
        <time>2021-05-23T09:36:07Z</time>
      </trkpt>
      <trkpt lat="43.48006" lon="2.39327">
        <ele>582.21</ele>
        <time>2021-05-23T09:36:09Z</time>
      </trkpt>
      <trkpt lat="43.48006" lon="2.39327">
        <ele>582.209</ele>
        <time>2021-05-23T09:36:11Z</time>
      </trkpt>
      <trkpt lat="43.48006" lon="2.39327">
        <ele>582.209</ele>
        <time>2021-05-23T09:36:13Z</time>
      </trkpt>
      <trkpt lat="43.48006" lon="2.39327">
        <ele>582.204</ele>
        <time>2021-05-23T09:36:15Z</time>
      </trkpt>
      <trkpt lat="43.48006" lon="2.39327">
        <ele>582.208</ele>
        <time>2021-05-23T09:36:17Z</time>
      </trkpt>
      <trkpt lat="43.48006" lon="2.39327">
        <ele>582.199</ele>
        <time>2021-05-23T09:36:19Z</time>
      </trkpt>
      <trkpt lat="43.48005" lon="2.39327">
        <ele>582.178</ele>
        <time>2021-05-23T09:36:21Z</time>
      </trkpt>
      <trkpt lat="43.48005" lon="2.39327">
        <ele>582.163</ele>
        <time>2021-05-23T09:36:23Z</time>
      </trkpt>
      <trkpt lat="43.48005" lon="2.39327">
        <ele>582.143</ele>
        <time>2021-05-23T09:36:25Z</time>
      </trkpt>
      <trkpt lat="43.48005" lon="2.39327">
        <ele>582.114</ele>
        <time>2021-05-23T09:36:27Z</time>
      </trkpt>
      <trkpt lat="43.48004" lon="2.39326">
        <ele>582.087</ele>
        <time>2021-05-23T09:36:29Z</time>
      </trkpt>
      <trkpt lat="43.48003" lon="2.39326">
        <ele>581.662</ele>
        <time>2021-05-23T09:36:31Z</time>
      </trkpt>
      <trkpt lat="43.48002" lon="2.39325">
        <ele>582.031</ele>
        <time>2021-05-23T09:36:33Z</time>
      </trkpt>
      <trkpt lat="43.48001" lon="2.39326">
        <ele>582.187</ele>
        <time>2021-05-23T09:36:35Z</time>
      </trkpt>
      <trkpt lat="43.47999" lon="2.39326">
        <ele>582.087</ele>
        <time>2021-05-23T09:36:37Z</time>
      </trkpt>
      <trkpt lat="43.47998" lon="2.39326">
        <ele>582.003</ele>
        <time>2021-05-23T09:36:39Z</time>
      </trkpt>
      <trkpt lat="43.47997" lon="2.39325">
        <ele>581.549</ele>
        <time>2021-05-23T09:36:41Z</time>
      </trkpt>
      <trkpt lat="43.47996" lon="2.39323">
        <ele>582.216</ele>
        <time>2021-05-23T09:36:43Z</time>
      </trkpt>
      <trkpt lat="43.47995" lon="2.39321">
        <ele>582.133</ele>
        <time>2021-05-23T09:36:45Z</time>
      </trkpt>
      <trkpt lat="43.47995" lon="2.39318">
        <ele>582.196</ele>
        <time>2021-05-23T09:36:47Z</time>
      </trkpt>
      <trkpt lat="43.47995" lon="2.39316">
        <ele>582.043</ele>
        <time>2021-05-23T09:36:49Z</time>
      </trkpt>
      <trkpt lat="43.47995" lon="2.39313">
        <ele>582.054</ele>
        <time>2021-05-23T09:36:51Z</time>
      </trkpt>
      <trkpt lat="43.47995" lon="2.39311">
        <ele>582.58</ele>
        <time>2021-05-23T09:36:53Z</time>
      </trkpt>
      <trkpt lat="43.47995" lon="2.39308">
        <ele>582.245</ele>
        <time>2021-05-23T09:36:55Z</time>
      </trkpt>
      <trkpt lat="43.47995" lon="2.39305">
        <ele>582.358</ele>
        <time>2021-05-23T09:36:57Z</time>
      </trkpt>
      <trkpt lat="43.47996" lon="2.39302">
        <ele>583.805</ele>
        <time>2021-05-23T09:36:59Z</time>
      </trkpt>
      <trkpt lat="43.47997" lon="2.393">
        <ele>583.836</ele>
        <time>2021-05-23T09:37:01Z</time>
      </trkpt>
      <trkpt lat="43.47999" lon="2.39296">
        <ele>583.761</ele>
        <time>2021-05-23T09:37:03Z</time>
      </trkpt>
      <trkpt lat="43.48" lon="2.39293">
        <ele>583.362</ele>
        <time>2021-05-23T09:37:05Z</time>
      </trkpt>
      <trkpt lat="43.48001" lon="2.3929">
        <ele>583.125</ele>
        <time>2021-05-23T09:37:07Z</time>
      </trkpt>
      <trkpt lat="43.48003" lon="2.39287">
        <ele>583.069</ele>
        <time>2021-05-23T09:37:09Z</time>
      </trkpt>
      <trkpt lat="43.48004" lon="2.39284">
        <ele>582.698</ele>
        <time>2021-05-23T09:37:11Z</time>
      </trkpt>
      <trkpt lat="43.48006" lon="2.39281">
        <ele>581.804</ele>
        <time>2021-05-23T09:37:13Z</time>
      </trkpt>
      <trkpt lat="43.48007" lon="2.39278">
        <ele>581.087</ele>
        <time>2021-05-23T09:37:15Z</time>
      </trkpt>
      <trkpt lat="43.48008" lon="2.39275">
        <ele>580.773</ele>
        <time>2021-05-23T09:37:17Z</time>
      </trkpt>
      <trkpt lat="43.4801" lon="2.39272">
        <ele>580.508</ele>
        <time>2021-05-23T09:37:19Z</time>
      </trkpt>
      <trkpt lat="43.48011" lon="2.39268">
        <ele>579.574</ele>
        <time>2021-05-23T09:37:21Z</time>
      </trkpt>
      <trkpt lat="43.48012" lon="2.39265">
        <ele>579.424</ele>
        <time>2021-05-23T09:37:23Z</time>
      </trkpt>
      <trkpt lat="43.48014" lon="2.39261">
        <ele>579.879</ele>
        <time>2021-05-23T09:37:25Z</time>
      </trkpt>
      <trkpt lat="43.48015" lon="2.39257">
        <ele>579.658</ele>
        <time>2021-05-23T09:37:27Z</time>
      </trkpt>
      <trkpt lat="43.48017" lon="2.39253">
        <ele>580.719</ele>
        <time>2021-05-23T09:37:29Z</time>
      </trkpt>
      <trkpt lat="43.48019" lon="2.3925">
        <ele>579.782</ele>
        <time>2021-05-23T09:37:31Z</time>
      </trkpt>
      <trkpt lat="43.4802" lon="2.39246">
        <ele>579.637</ele>
        <time>2021-05-23T09:37:33Z</time>
      </trkpt>
      <trkpt lat="43.48021" lon="2.39243">
        <ele>580.418</ele>
        <time>2021-05-23T09:37:35Z</time>
      </trkpt>
      <trkpt lat="43.48023" lon="2.39239">
        <ele>580.982</ele>
        <time>2021-05-23T09:37:37Z</time>
      </trkpt>
      <trkpt lat="43.48024" lon="2.39236">
        <ele>579.268</ele>
        <time>2021-05-23T09:37:39Z</time>
      </trkpt>
      <trkpt lat="43.48024" lon="2.39233">
        <ele>577.878</ele>
        <time>2021-05-23T09:37:41Z</time>
      </trkpt>
      <trkpt lat="43.48024" lon="2.3923">
        <ele>577.168</ele>
        <time>2021-05-23T09:37:43Z</time>
      </trkpt>
      <trkpt lat="43.48024" lon="2.39227">
        <ele>575.982</ele>
        <time>2021-05-23T09:37:45Z</time>
      </trkpt>
      <trkpt lat="43.48025" lon="2.39223">
        <ele>576.119</ele>
        <time>2021-05-23T09:37:47Z</time>
      </trkpt>
      <trkpt lat="43.48026" lon="2.39218">
        <ele>576.076</ele>
        <time>2021-05-23T09:37:50Z</time>
      </trkpt>
      <trkpt lat="43.48028" lon="2.39215">
        <ele>575.728</ele>
        <time>2021-05-23T09:37:52Z</time>
      </trkpt>
      <trkpt lat="43.48029" lon="2.39212">
        <ele>575.252</ele>
        <time>2021-05-23T09:37:54Z</time>
      </trkpt>
      <trkpt lat="43.4803" lon="2.39209">
        <ele>574.477</ele>
        <time>2021-05-23T09:37:56Z</time>
      </trkpt>
      <trkpt lat="43.48031" lon="2.39206">
        <ele>573.183</ele>
        <time>2021-05-23T09:37:58Z</time>
      </trkpt>
      <trkpt lat="43.48032" lon="2.39202">
        <ele>572.818</ele>
        <time>2021-05-23T09:38:00Z</time>
      </trkpt>
      <trkpt lat="43.48033" lon="2.39199">
        <ele>572.245</ele>
        <time>2021-05-23T09:38:02Z</time>
      </trkpt>
      <trkpt lat="43.48034" lon="2.39196">
        <ele>572.893</ele>
        <time>2021-05-23T09:38:04Z</time>
      </trkpt>
      <trkpt lat="43.48035" lon="2.39192">
        <ele>572.064</ele>
        <time>2021-05-23T09:38:06Z</time>
      </trkpt>
      <trkpt lat="43.48037" lon="2.39189">
        <ele>573.67</ele>
        <time>2021-05-23T09:38:08Z</time>
      </trkpt>
      <trkpt lat="43.48039" lon="2.39186">
        <ele>573.9</ele>
        <time>2021-05-23T09:38:10Z</time>
      </trkpt>
      <trkpt lat="43.4804" lon="2.39183">
        <ele>573.977</ele>
        <time>2021-05-23T09:38:12Z</time>
      </trkpt>
      <trkpt lat="43.48041" lon="2.39179">
        <ele>574.588</ele>
        <time>2021-05-23T09:38:14Z</time>
      </trkpt>
      <trkpt lat="43.48043" lon="2.39176">
        <ele>573.541</ele>
        <time>2021-05-23T09:38:16Z</time>
      </trkpt>
      <trkpt lat="43.48044" lon="2.39173">
        <ele>573.245</ele>
        <time>2021-05-23T09:38:18Z</time>
      </trkpt>
      <trkpt lat="43.48045" lon="2.3917">
        <ele>572.933</ele>
        <time>2021-05-23T09:38:20Z</time>
      </trkpt>
      <trkpt lat="43.48046" lon="2.39167">
        <ele>573.866</ele>
        <time>2021-05-23T09:38:22Z</time>
      </trkpt>
      <trkpt lat="43.48048" lon="2.39164">
        <ele>572.518</ele>
        <time>2021-05-23T09:38:24Z</time>
      </trkpt>
      <trkpt lat="43.48049" lon="2.3916">
        <ele>572.066</ele>
        <time>2021-05-23T09:38:26Z</time>
      </trkpt>
      <trkpt lat="43.4805" lon="2.39157">
        <ele>571.323</ele>
        <time>2021-05-23T09:38:28Z</time>
      </trkpt>
      <trkpt lat="43.48051" lon="2.39153">
        <ele>572.021</ele>
        <time>2021-05-23T09:38:30Z</time>
      </trkpt>
      <trkpt lat="43.48052" lon="2.39149">
        <ele>572.969</ele>
        <time>2021-05-23T09:38:32Z</time>
      </trkpt>
      <trkpt lat="43.48053" lon="2.39146">
        <ele>572.59</ele>
        <time>2021-05-23T09:38:34Z</time>
      </trkpt>
      <trkpt lat="43.48056" lon="2.39143">
        <ele>573.713</ele>
        <time>2021-05-23T09:38:36Z</time>
      </trkpt>
      <trkpt lat="43.48057" lon="2.3914">
        <ele>573.142</ele>
        <time>2021-05-23T09:38:38Z</time>
      </trkpt>
      <trkpt lat="43.48059" lon="2.39137">
        <ele>573.406</ele>
        <time>2021-05-23T09:38:40Z</time>
      </trkpt>
      <trkpt lat="43.4806" lon="2.39134">
        <ele>572.724</ele>
        <time>2021-05-23T09:38:42Z</time>
      </trkpt>
      <trkpt lat="43.48061" lon="2.39131">
        <ele>572.903</ele>
        <time>2021-05-23T09:38:44Z</time>
      </trkpt>
      <trkpt lat="43.48062" lon="2.39128">
        <ele>571.298</ele>
        <time>2021-05-23T09:38:46Z</time>
      </trkpt>
      <trkpt lat="43.48063" lon="2.39124">
        <ele>570.902</ele>
        <time>2021-05-23T09:38:48Z</time>
      </trkpt>
      <trkpt lat="43.48066" lon="2.3912">
        <ele>571.727</ele>
        <time>2021-05-23T09:38:50Z</time>
      </trkpt>
      <trkpt lat="43.48069" lon="2.39117">
        <ele>571.272</ele>
        <time>2021-05-23T09:38:52Z</time>
      </trkpt>
      <trkpt lat="43.48071" lon="2.39113">
        <ele>572.064</ele>
        <time>2021-05-23T09:38:54Z</time>
      </trkpt>
      <trkpt lat="43.48073" lon="2.3911">
        <ele>571.325</ele>
        <time>2021-05-23T09:38:56Z</time>
      </trkpt>
      <trkpt lat="43.48073" lon="2.39107">
        <ele>569.923</ele>
        <time>2021-05-23T09:38:58Z</time>
      </trkpt>
      <trkpt lat="43.48074" lon="2.39103">
        <ele>570.093</ele>
        <time>2021-05-23T09:39:00Z</time>
      </trkpt>
      <trkpt lat="43.48076" lon="2.391">
        <ele>570.845</ele>
        <time>2021-05-23T09:39:02Z</time>
      </trkpt>
      <trkpt lat="43.48077" lon="2.39096">
        <ele>570.774</ele>
        <time>2021-05-23T09:39:04Z</time>
      </trkpt>
      <trkpt lat="43.48078" lon="2.39093">
        <ele>571.093</ele>
        <time>2021-05-23T09:39:06Z</time>
      </trkpt>
      <trkpt lat="43.48078" lon="2.39089">
        <ele>570.086</ele>
        <time>2021-05-23T09:39:08Z</time>
      </trkpt>
      <trkpt lat="43.48078" lon="2.39085">
        <ele>569.418</ele>
        <time>2021-05-23T09:39:10Z</time>
      </trkpt>
      <trkpt lat="43.48079" lon="2.39081">
        <ele>569.069</ele>
        <time>2021-05-23T09:39:12Z</time>
      </trkpt>
      <trkpt lat="43.4808" lon="2.39077">
        <ele>568.224</ele>
        <time>2021-05-23T09:39:14Z</time>
      </trkpt>
      <trkpt lat="43.48081" lon="2.39074">
        <ele>567.642</ele>
        <time>2021-05-23T09:39:16Z</time>
      </trkpt>
      <trkpt lat="43.48082" lon="2.39071">
        <ele>567.609</ele>
        <time>2021-05-23T09:39:18Z</time>
      </trkpt>
      <trkpt lat="43.48084" lon="2.39067">
        <ele>567.833</ele>
        <time>2021-05-23T09:39:20Z</time>
      </trkpt>
      <trkpt lat="43.48086" lon="2.39064">
        <ele>567.998</ele>
        <time>2021-05-23T09:39:22Z</time>
      </trkpt>
      <trkpt lat="43.48087" lon="2.39061">
        <ele>568.081</ele>
        <time>2021-05-23T09:39:24Z</time>
      </trkpt>
      <trkpt lat="43.4809" lon="2.39057">
        <ele>569.08</ele>
        <time>2021-05-23T09:39:26Z</time>
      </trkpt>
      <trkpt lat="43.48092" lon="2.39053">
        <ele>568.96</ele>
        <time>2021-05-23T09:39:28Z</time>
      </trkpt>
      <trkpt lat="43.48093" lon="2.39049">
        <ele>567.373</ele>
        <time>2021-05-23T09:39:30Z</time>
      </trkpt>
      <trkpt lat="43.48094" lon="2.39045">
        <ele>567.614</ele>
        <time>2021-05-23T09:39:32Z</time>
      </trkpt>
      <trkpt lat="43.48094" lon="2.39042">
        <ele>567.678</ele>
        <time>2021-05-23T09:39:34Z</time>
      </trkpt>
      <trkpt lat="43.48096" lon="2.39039">
        <ele>569.09</ele>
        <time>2021-05-23T09:39:36Z</time>
      </trkpt>
      <trkpt lat="43.48098" lon="2.39035">
        <ele>568.499</ele>
        <time>2021-05-23T09:39:38Z</time>
      </trkpt>
      <trkpt lat="43.481" lon="2.39032">
        <ele>568.477</ele>
        <time>2021-05-23T09:39:40Z</time>
      </trkpt>
      <trkpt lat="43.48101" lon="2.39028">
        <ele>568.328</ele>
        <time>2021-05-23T09:39:42Z</time>
      </trkpt>
      <trkpt lat="43.48103" lon="2.39026">
        <ele>567.876</ele>
        <time>2021-05-23T09:39:44Z</time>
      </trkpt>
      <trkpt lat="43.48103" lon="2.39022">
        <ele>566.677</ele>
        <time>2021-05-23T09:39:46Z</time>
      </trkpt>
      <trkpt lat="43.48104" lon="2.39019">
        <ele>566.451</ele>
        <time>2021-05-23T09:39:48Z</time>
      </trkpt>
      <trkpt lat="43.48107" lon="2.39015">
        <ele>566.835</ele>
        <time>2021-05-23T09:39:50Z</time>
      </trkpt>
      <trkpt lat="43.4811" lon="2.39012">
        <ele>566.521</ele>
        <time>2021-05-23T09:39:52Z</time>
      </trkpt>
      <trkpt lat="43.48112" lon="2.39009">
        <ele>566.389</ele>
        <time>2021-05-23T09:39:54Z</time>
      </trkpt>
      <trkpt lat="43.48114" lon="2.39005">
        <ele>566.482</ele>
        <time>2021-05-23T09:39:56Z</time>
      </trkpt>
      <trkpt lat="43.48116" lon="2.39002">
        <ele>565.545</ele>
        <time>2021-05-23T09:39:58Z</time>
      </trkpt>
      <trkpt lat="43.48117" lon="2.38998">
        <ele>565.134</ele>
        <time>2021-05-23T09:40:00Z</time>
      </trkpt>
      <trkpt lat="43.48118" lon="2.38994">
        <ele>564.788</ele>
        <time>2021-05-23T09:40:02Z</time>
      </trkpt>
      <trkpt lat="43.48119" lon="2.38991">
        <ele>564.78</ele>
        <time>2021-05-23T09:40:04Z</time>
      </trkpt>
      <trkpt lat="43.4812" lon="2.38988">
        <ele>564.024</ele>
        <time>2021-05-23T09:40:06Z</time>
      </trkpt>
      <trkpt lat="43.48121" lon="2.38985">
        <ele>563.397</ele>
        <time>2021-05-23T09:40:08Z</time>
      </trkpt>
      <trkpt lat="43.48123" lon="2.38981">
        <ele>564.38</ele>
        <time>2021-05-23T09:40:10Z</time>
      </trkpt>
      <trkpt lat="43.48124" lon="2.38977">
        <ele>564.709</ele>
        <time>2021-05-23T09:40:12Z</time>
      </trkpt>
      <trkpt lat="43.48125" lon="2.38974">
        <ele>564.664</ele>
        <time>2021-05-23T09:40:14Z</time>
      </trkpt>
      <trkpt lat="43.48126" lon="2.3897">
        <ele>563.437</ele>
        <time>2021-05-23T09:40:16Z</time>
      </trkpt>
      <trkpt lat="43.48126" lon="2.38966">
        <ele>562.669</ele>
        <time>2021-05-23T09:40:18Z</time>
      </trkpt>
      <trkpt lat="43.48127" lon="2.38963">
        <ele>561.779</ele>
        <time>2021-05-23T09:40:20Z</time>
      </trkpt>
      <trkpt lat="43.48128" lon="2.3896">
        <ele>561.984</ele>
        <time>2021-05-23T09:40:22Z</time>
      </trkpt>
      <trkpt lat="43.48129" lon="2.38956">
        <ele>561.975</ele>
        <time>2021-05-23T09:40:24Z</time>
      </trkpt>
      <trkpt lat="43.4813" lon="2.38954">
        <ele>560.991</ele>
        <time>2021-05-23T09:40:26Z</time>
      </trkpt>
      <trkpt lat="43.48131" lon="2.3895">
        <ele>560.357</ele>
        <time>2021-05-23T09:40:28Z</time>
      </trkpt>
      <trkpt lat="43.48132" lon="2.38946">
        <ele>559.884</ele>
        <time>2021-05-23T09:40:30Z</time>
      </trkpt>
      <trkpt lat="43.48133" lon="2.38942">
        <ele>559.362</ele>
        <time>2021-05-23T09:40:32Z</time>
      </trkpt>
      <trkpt lat="43.48134" lon="2.38939">
        <ele>559.354</ele>
        <time>2021-05-23T09:40:34Z</time>
      </trkpt>
      <trkpt lat="43.48135" lon="2.38937">
        <ele>558.576</ele>
        <time>2021-05-23T09:40:36Z</time>
      </trkpt>
      <trkpt lat="43.48136" lon="2.38934">
        <ele>558.415</ele>
        <time>2021-05-23T09:40:38Z</time>
      </trkpt>
      <trkpt lat="43.48138" lon="2.38931">
        <ele>557.661</ele>
        <time>2021-05-23T09:40:40Z</time>
      </trkpt>
      <trkpt lat="43.48139" lon="2.38927">
        <ele>557.65</ele>
        <time>2021-05-23T09:40:42Z</time>
      </trkpt>
      <trkpt lat="43.48141" lon="2.38925">
        <ele>557.889</ele>
        <time>2021-05-23T09:40:44Z</time>
      </trkpt>
      <trkpt lat="43.48143" lon="2.38923">
        <ele>557.586</ele>
        <time>2021-05-23T09:40:46Z</time>
      </trkpt>
      <trkpt lat="43.48144" lon="2.38921">
        <ele>557.593</ele>
        <time>2021-05-23T09:40:48Z</time>
      </trkpt>
      <trkpt lat="43.48147" lon="2.38918">
        <ele>557.545</ele>
        <time>2021-05-23T09:40:50Z</time>
      </trkpt>
      <trkpt lat="43.48148" lon="2.38916">
        <ele>557.043</ele>
        <time>2021-05-23T09:40:52Z</time>
      </trkpt>
      <trkpt lat="43.4815" lon="2.38914">
        <ele>557.364</ele>
        <time>2021-05-23T09:40:54Z</time>
      </trkpt>
      <trkpt lat="43.48152" lon="2.38911">
        <ele>556.902</ele>
        <time>2021-05-23T09:40:56Z</time>
      </trkpt>
      <trkpt lat="43.48154" lon="2.38909">
        <ele>556.872</ele>
        <time>2021-05-23T09:40:58Z</time>
      </trkpt>
      <trkpt lat="43.48155" lon="2.38906">
        <ele>557.184</ele>
        <time>2021-05-23T09:41:00Z</time>
      </trkpt>
      <trkpt lat="43.48157" lon="2.38904">
        <ele>557.427</ele>
        <time>2021-05-23T09:41:02Z</time>
      </trkpt>
      <trkpt lat="43.48158" lon="2.38902">
        <ele>557.275</ele>
        <time>2021-05-23T09:41:04Z</time>
      </trkpt>
      <trkpt lat="43.48159" lon="2.389">
        <ele>557.311</ele>
        <time>2021-05-23T09:41:06Z</time>
      </trkpt>
      <trkpt lat="43.4816" lon="2.38899">
        <ele>557.06</ele>
        <time>2021-05-23T09:41:08Z</time>
      </trkpt>
      <trkpt lat="43.48161" lon="2.38898">
        <ele>556.493</ele>
        <time>2021-05-23T09:41:10Z</time>
      </trkpt>
      <trkpt lat="43.48162" lon="2.38897">
        <ele>556.437</ele>
        <time>2021-05-23T09:41:12Z</time>
      </trkpt>
      <trkpt lat="43.48162" lon="2.38896">
        <ele>556.259</ele>
        <time>2021-05-23T09:41:14Z</time>
      </trkpt>
      <trkpt lat="43.48164" lon="2.38896">
        <ele>556.322</ele>
        <time>2021-05-23T09:41:16Z</time>
      </trkpt>
      <trkpt lat="43.48165" lon="2.38896">
        <ele>556.208</ele>
        <time>2021-05-23T09:41:18Z</time>
      </trkpt>
      <trkpt lat="43.48166" lon="2.38897">
        <ele>556.208</ele>
        <time>2021-05-23T09:41:20Z</time>
      </trkpt>
      <trkpt lat="43.48166" lon="2.38897">
        <ele>556.592</ele>
        <time>2021-05-23T09:41:22Z</time>
      </trkpt>
      <trkpt lat="43.48166" lon="2.38897">
        <ele>556.594</ele>
        <time>2021-05-23T09:41:24Z</time>
      </trkpt>
      <trkpt lat="43.48166" lon="2.38897">
        <ele>556.593</ele>
        <time>2021-05-23T09:41:26Z</time>
      </trkpt>
      <trkpt lat="43.48166" lon="2.38897">
        <ele>556.593</ele>
        <time>2021-05-23T09:41:28Z</time>
      </trkpt>
      <trkpt lat="43.48166" lon="2.38897">
        <ele>556.946</ele>
        <time>2021-05-23T09:41:30Z</time>
      </trkpt>
      <trkpt lat="43.48166" lon="2.38897">
        <ele>556.951</ele>
        <time>2021-05-23T09:41:32Z</time>
      </trkpt>
      <trkpt lat="43.48167" lon="2.38897">
        <ele>557.128</ele>
        <time>2021-05-23T09:41:34Z</time>
      </trkpt>
      <trkpt lat="43.48166" lon="2.38896">
        <ele>557.253</ele>
        <time>2021-05-23T09:41:36Z</time>
      </trkpt>
      <trkpt lat="43.48166" lon="2.38896">
        <ele>557.485</ele>
        <time>2021-05-23T09:41:37Z</time>
      </trkpt>
      <trkpt lat="43.48164" lon="2.38896">
        <ele>557.751</ele>
        <time>2021-05-23T09:41:40Z</time>
      </trkpt>
      <trkpt lat="43.48163" lon="2.38896">
        <ele>558.152</ele>
        <time>2021-05-23T09:41:42Z</time>
      </trkpt>
      <trkpt lat="43.48162" lon="2.38896">
        <ele>558.781</ele>
        <time>2021-05-23T09:41:44Z</time>
      </trkpt>
      <trkpt lat="43.48162" lon="2.38896">
        <ele>558.479</ele>
        <time>2021-05-23T09:41:46Z</time>
      </trkpt>
      <trkpt lat="43.48164" lon="2.38895">
        <ele>558.471</ele>
        <time>2021-05-23T09:41:48Z</time>
      </trkpt>
      <trkpt lat="43.48165" lon="2.38895">
        <ele>558.068</ele>
        <time>2021-05-23T09:41:50Z</time>
      </trkpt>
      <trkpt lat="43.48165" lon="2.38895">
        <ele>558.062</ele>
        <time>2021-05-23T09:41:52Z</time>
      </trkpt>
      <trkpt lat="43.48165" lon="2.38895">
        <ele>557.849</ele>
        <time>2021-05-23T09:41:54Z</time>
      </trkpt>
      <trkpt lat="43.48165" lon="2.38895">
        <ele>557.836</ele>
        <time>2021-05-23T09:41:56Z</time>
      </trkpt>
      <trkpt lat="43.48165" lon="2.38895">
        <ele>557.63</ele>
        <time>2021-05-23T09:41:58Z</time>
      </trkpt>
      <trkpt lat="43.48166" lon="2.38895">
        <ele>557.1</ele>
        <time>2021-05-23T09:42:00Z</time>
      </trkpt>
      <trkpt lat="43.48166" lon="2.38895">
        <ele>557.108</ele>
        <time>2021-05-23T09:42:02Z</time>
      </trkpt>
      <trkpt lat="43.48166" lon="2.38895">
        <ele>557.108</ele>
        <time>2021-05-23T09:42:04Z</time>
      </trkpt>
      <trkpt lat="43.48166" lon="2.38895">
        <ele>557.106</ele>
        <time>2021-05-23T09:42:06Z</time>
      </trkpt>
      <trkpt lat="43.48166" lon="2.38895">
        <ele>557.107</ele>
        <time>2021-05-23T09:42:08Z</time>
      </trkpt>
      <trkpt lat="43.48167" lon="2.38895">
        <ele>557.108</ele>
        <time>2021-05-23T09:42:10Z</time>
      </trkpt>
      <trkpt lat="43.48167" lon="2.38895">
        <ele>557.106</ele>
        <time>2021-05-23T09:42:12Z</time>
      </trkpt>
      <trkpt lat="43.48167" lon="2.38895">
        <ele>557.109</ele>
        <time>2021-05-23T09:42:14Z</time>
      </trkpt>
      <trkpt lat="43.48167" lon="2.38895">
        <ele>557.109</ele>
        <time>2021-05-23T09:42:16Z</time>
      </trkpt>
      <trkpt lat="43.48167" lon="2.38895">
        <ele>557.109</ele>
        <time>2021-05-23T09:42:18Z</time>
      </trkpt>
      <trkpt lat="43.48167" lon="2.38895">
        <ele>557.11</ele>
        <time>2021-05-23T09:42:20Z</time>
      </trkpt>
      <trkpt lat="43.48167" lon="2.38895">
        <ele>557.107</ele>
        <time>2021-05-23T09:42:22Z</time>
      </trkpt>
      <trkpt lat="43.48167" lon="2.38895">
        <ele>557.107</ele>
        <time>2021-05-23T09:42:24Z</time>
      </trkpt>
      <trkpt lat="43.48167" lon="2.38895">
        <ele>557.107</ele>
        <time>2021-05-23T09:42:26Z</time>
      </trkpt>
      <trkpt lat="43.48166" lon="2.38895">
        <ele>556.952</ele>
        <time>2021-05-23T09:42:28Z</time>
      </trkpt>
      <trkpt lat="43.48166" lon="2.38895">
        <ele>556.953</ele>
        <time>2021-05-23T09:42:31Z</time>
      </trkpt>
      <trkpt lat="43.48166" lon="2.38895">
        <ele>556.814</ele>
        <time>2021-05-23T09:42:33Z</time>
      </trkpt>
      <trkpt lat="43.48166" lon="2.38895">
        <ele>556.936</ele>
        <time>2021-05-23T09:42:35Z</time>
      </trkpt>
      <trkpt lat="43.48165" lon="2.38895">
        <ele>557.225</ele>
        <time>2021-05-23T09:42:37Z</time>
      </trkpt>
      <trkpt lat="43.48166" lon="2.38895">
        <ele>557.217</ele>
        <time>2021-05-23T09:42:39Z</time>
      </trkpt>
      <trkpt lat="43.48166" lon="2.38895">
        <ele>557.214</ele>
        <time>2021-05-23T09:42:41Z</time>
      </trkpt>
      <trkpt lat="43.48166" lon="2.38895">
        <ele>557.21</ele>
        <time>2021-05-23T09:42:43Z</time>
      </trkpt>
      <trkpt lat="43.48166" lon="2.38895">
        <ele>557.204</ele>
        <time>2021-05-23T09:42:45Z</time>
      </trkpt>
      <trkpt lat="43.48166" lon="2.38895">
        <ele>557.204</ele>
        <time>2021-05-23T09:42:47Z</time>
      </trkpt>
      <trkpt lat="43.48166" lon="2.38895">
        <ele>557.198</ele>
        <time>2021-05-23T09:42:49Z</time>
      </trkpt>
      <trkpt lat="43.48165" lon="2.38895">
        <ele>557.007</ele>
        <time>2021-05-23T09:42:51Z</time>
      </trkpt>
      <trkpt lat="43.48165" lon="2.38893">
        <ele>556.813</ele>
        <time>2021-05-23T09:42:53Z</time>
      </trkpt>
      <trkpt lat="43.48165" lon="2.38892">
        <ele>556.81</ele>
        <time>2021-05-23T09:42:55Z</time>
      </trkpt>
      <trkpt lat="43.48165" lon="2.38892">
        <ele>556.801</ele>
        <time>2021-05-23T09:42:57Z</time>
      </trkpt>
      <trkpt lat="43.48165" lon="2.38892">
        <ele>556.96</ele>
        <time>2021-05-23T09:42:59Z</time>
      </trkpt>
      <trkpt lat="43.48165" lon="2.38891">
        <ele>556.599</ele>
        <time>2021-05-23T09:43:01Z</time>
      </trkpt>
      <trkpt lat="43.48166" lon="2.38891">
        <ele>556.339</ele>
        <time>2021-05-23T09:43:03Z</time>
      </trkpt>
      <trkpt lat="43.48165" lon="2.38891">
        <ele>556.029</ele>
        <time>2021-05-23T09:43:05Z</time>
      </trkpt>
      <trkpt lat="43.48165" lon="2.38892">
        <ele>555.759</ele>
        <time>2021-05-23T09:43:07Z</time>
      </trkpt>
      <trkpt lat="43.48166" lon="2.38893">
        <ele>556.517</ele>
        <time>2021-05-23T09:43:09Z</time>
      </trkpt>
      <trkpt lat="43.48166" lon="2.38895">
        <ele>556.384</ele>
        <time>2021-05-23T09:43:11Z</time>
      </trkpt>
      <trkpt lat="43.48166" lon="2.38896">
        <ele>556.42</ele>
        <time>2021-05-23T09:43:13Z</time>
      </trkpt>
      <trkpt lat="43.48167" lon="2.38896">
        <ele>556.412</ele>
        <time>2021-05-23T09:43:15Z</time>
      </trkpt>
      <trkpt lat="43.48167" lon="2.38896">
        <ele>556.407</ele>
        <time>2021-05-23T09:43:17Z</time>
      </trkpt>
      <trkpt lat="43.48167" lon="2.38896">
        <ele>556.402</ele>
        <time>2021-05-23T09:43:19Z</time>
      </trkpt>
      <trkpt lat="43.48167" lon="2.38896">
        <ele>556.4</ele>
        <time>2021-05-23T09:43:21Z</time>
      </trkpt>
      <trkpt lat="43.48167" lon="2.38896">
        <ele>556.397</ele>
        <time>2021-05-23T09:43:23Z</time>
      </trkpt>
      <trkpt lat="43.48167" lon="2.38896">
        <ele>556.397</ele>
        <time>2021-05-23T09:43:25Z</time>
      </trkpt>
      <trkpt lat="43.48167" lon="2.38896">
        <ele>556.399</ele>
        <time>2021-05-23T09:43:27Z</time>
      </trkpt>
      <trkpt lat="43.48167" lon="2.38896">
        <ele>556.397</ele>
        <time>2021-05-23T09:43:29Z</time>
      </trkpt>
      <trkpt lat="43.48167" lon="2.38896">
        <ele>556.393</ele>
        <time>2021-05-23T09:43:31Z</time>
      </trkpt>
      <trkpt lat="43.48167" lon="2.38896">
        <ele>556.392</ele>
        <time>2021-05-23T09:43:33Z</time>
      </trkpt>
      <trkpt lat="43.48166" lon="2.38896">
        <ele>556.168</ele>
        <time>2021-05-23T09:43:35Z</time>
      </trkpt>
      <trkpt lat="43.48166" lon="2.38895">
        <ele>556.071</ele>
        <time>2021-05-23T09:43:37Z</time>
      </trkpt>
      <trkpt lat="43.48165" lon="2.38892">
        <ele>555.386</ele>
        <time>2021-05-23T09:43:39Z</time>
      </trkpt>
      <trkpt lat="43.48164" lon="2.3889">
        <ele>555.24</ele>
        <time>2021-05-23T09:43:41Z</time>
      </trkpt>
      <trkpt lat="43.48164" lon="2.38888">
        <ele>555.597</ele>
        <time>2021-05-23T09:43:43Z</time>
      </trkpt>
      <trkpt lat="43.48164" lon="2.38886">
        <ele>555.43</ele>
        <time>2021-05-23T09:43:45Z</time>
      </trkpt>
      <trkpt lat="43.48163" lon="2.38883">
        <ele>555.743</ele>
        <time>2021-05-23T09:43:47Z</time>
      </trkpt>
      <trkpt lat="43.48163" lon="2.38881">
        <ele>555.585</ele>
        <time>2021-05-23T09:43:49Z</time>
      </trkpt>
      <trkpt lat="43.48164" lon="2.38879">
        <ele>555.434</ele>
        <time>2021-05-23T09:43:51Z</time>
      </trkpt>
      <trkpt lat="43.48164" lon="2.38877">
        <ele>555.42</ele>
        <time>2021-05-23T09:43:53Z</time>
      </trkpt>
      <trkpt lat="43.48165" lon="2.38875">
        <ele>555.406</ele>
        <time>2021-05-23T09:43:55Z</time>
      </trkpt>
      <trkpt lat="43.48165" lon="2.38872">
        <ele>555.494</ele>
        <time>2021-05-23T09:43:57Z</time>
      </trkpt>
      <trkpt lat="43.48166" lon="2.38869">
        <ele>555.118</ele>
        <time>2021-05-23T09:43:59Z</time>
      </trkpt>
      <trkpt lat="43.48166" lon="2.38866">
        <ele>555.634</ele>
        <time>2021-05-23T09:44:01Z</time>
      </trkpt>
      <trkpt lat="43.48166" lon="2.38864">
        <ele>555.905</ele>
        <time>2021-05-23T09:44:03Z</time>
      </trkpt>
      <trkpt lat="43.48166" lon="2.38862">
        <ele>556.144</ele>
        <time>2021-05-23T09:44:05Z</time>
      </trkpt>
      <trkpt lat="43.48166" lon="2.38859">
        <ele>556.25</ele>
        <time>2021-05-23T09:44:07Z</time>
      </trkpt>
      <trkpt lat="43.48167" lon="2.38858">
        <ele>555.833</ele>
        <time>2021-05-23T09:44:09Z</time>
      </trkpt>
      <trkpt lat="43.48167" lon="2.38856">
        <ele>556.926</ele>
        <time>2021-05-23T09:44:11Z</time>
      </trkpt>
      <trkpt lat="43.48168" lon="2.38854">
        <ele>556.752</ele>
        <time>2021-05-23T09:44:13Z</time>
      </trkpt>
      <trkpt lat="43.48169" lon="2.38851">
        <ele>556.513</ele>
        <time>2021-05-23T09:44:15Z</time>
      </trkpt>
      <trkpt lat="43.4817" lon="2.38849">
        <ele>556.955</ele>
        <time>2021-05-23T09:44:17Z</time>
      </trkpt>
      <trkpt lat="43.48171" lon="2.38846">
        <ele>556.998</ele>
        <time>2021-05-23T09:44:19Z</time>
      </trkpt>
      <trkpt lat="43.48173" lon="2.38843">
        <ele>557.479</ele>
        <time>2021-05-23T09:44:21Z</time>
      </trkpt>
      <trkpt lat="43.48174" lon="2.38841">
        <ele>558.215</ele>
        <time>2021-05-23T09:44:23Z</time>
      </trkpt>
      <trkpt lat="43.48175" lon="2.38839">
        <ele>558.475</ele>
        <time>2021-05-23T09:44:25Z</time>
      </trkpt>
      <trkpt lat="43.48176" lon="2.38836">
        <ele>558.886</ele>
        <time>2021-05-23T09:44:27Z</time>
      </trkpt>
      <trkpt lat="43.48177" lon="2.38833">
        <ele>559.165</ele>
        <time>2021-05-23T09:44:29Z</time>
      </trkpt>
      <trkpt lat="43.48178" lon="2.3883">
        <ele>559.107</ele>
        <time>2021-05-23T09:44:31Z</time>
      </trkpt>
      <trkpt lat="43.48178" lon="2.38828">
        <ele>559.54</ele>
        <time>2021-05-23T09:44:33Z</time>
      </trkpt>
      <trkpt lat="43.48178" lon="2.38825">
        <ele>559.636</ele>
        <time>2021-05-23T09:44:35Z</time>
      </trkpt>
      <trkpt lat="43.48179" lon="2.38824">
        <ele>561.001</ele>
        <time>2021-05-23T09:44:37Z</time>
      </trkpt>
      <trkpt lat="43.48179" lon="2.38824">
        <ele>560.747</ele>
        <time>2021-05-23T09:44:39Z</time>
      </trkpt>
      <trkpt lat="43.48179" lon="2.38824">
        <ele>560.751</ele>
        <time>2021-05-23T09:44:41Z</time>
      </trkpt>
      <trkpt lat="43.48179" lon="2.38824">
        <ele>560.76</ele>
        <time>2021-05-23T09:44:43Z</time>
      </trkpt>
      <trkpt lat="43.48179" lon="2.38824">
        <ele>560.763</ele>
        <time>2021-05-23T09:44:45Z</time>
      </trkpt>
      <trkpt lat="43.4818" lon="2.38823">
        <ele>560.318</ele>
        <time>2021-05-23T09:44:47Z</time>
      </trkpt>
      <trkpt lat="43.4818" lon="2.3882">
        <ele>560.142</ele>
        <time>2021-05-23T09:44:49Z</time>
      </trkpt>
      <trkpt lat="43.48181" lon="2.38818">
        <ele>559.707</ele>
        <time>2021-05-23T09:44:51Z</time>
      </trkpt>
      <trkpt lat="43.48181" lon="2.38815">
        <ele>559.783</ele>
        <time>2021-05-23T09:44:53Z</time>
      </trkpt>
      <trkpt lat="43.48182" lon="2.38812">
        <ele>559.39</ele>
        <time>2021-05-23T09:44:55Z</time>
      </trkpt>
      <trkpt lat="43.48183" lon="2.38809">
        <ele>559.165</ele>
        <time>2021-05-23T09:44:57Z</time>
      </trkpt>
      <trkpt lat="43.48184" lon="2.38806">
        <ele>558.86</ele>
        <time>2021-05-23T09:44:59Z</time>
      </trkpt>
      <trkpt lat="43.48185" lon="2.38803">
        <ele>558.57</ele>
        <time>2021-05-23T09:45:01Z</time>
      </trkpt>
      <trkpt lat="43.48185" lon="2.38801">
        <ele>558.315</ele>
        <time>2021-05-23T09:45:03Z</time>
      </trkpt>
      <trkpt lat="43.48186" lon="2.38798">
        <ele>558.417</ele>
        <time>2021-05-23T09:45:05Z</time>
      </trkpt>
      <trkpt lat="43.48187" lon="2.38794">
        <ele>558.189</ele>
        <time>2021-05-23T09:45:07Z</time>
      </trkpt>
      <trkpt lat="43.48187" lon="2.38791">
        <ele>557.986</ele>
        <time>2021-05-23T09:45:09Z</time>
      </trkpt>
      <trkpt lat="43.48188" lon="2.38788">
        <ele>557.869</ele>
        <time>2021-05-23T09:45:11Z</time>
      </trkpt>
      <trkpt lat="43.48188" lon="2.38785">
        <ele>558.008</ele>
        <time>2021-05-23T09:45:13Z</time>
      </trkpt>
      <trkpt lat="43.48189" lon="2.38781">
        <ele>557.648</ele>
        <time>2021-05-23T09:45:15Z</time>
      </trkpt>
      <trkpt lat="43.48189" lon="2.38778">
        <ele>557.827</ele>
        <time>2021-05-23T09:45:17Z</time>
      </trkpt>
      <trkpt lat="43.48189" lon="2.38775">
        <ele>557.993</ele>
        <time>2021-05-23T09:45:19Z</time>
      </trkpt>
      <trkpt lat="43.48189" lon="2.38771">
        <ele>558.324</ele>
        <time>2021-05-23T09:45:21Z</time>
      </trkpt>
      <trkpt lat="43.4819" lon="2.38768">
        <ele>558.766</ele>
        <time>2021-05-23T09:45:23Z</time>
      </trkpt>
      <trkpt lat="43.4819" lon="2.38764">
        <ele>559.081</ele>
        <time>2021-05-23T09:45:25Z</time>
      </trkpt>
      <trkpt lat="43.4819" lon="2.38761">
        <ele>559.39</ele>
        <time>2021-05-23T09:45:27Z</time>
      </trkpt>
      <trkpt lat="43.4819" lon="2.38757">
        <ele>559.943</ele>
        <time>2021-05-23T09:45:29Z</time>
      </trkpt>
      <trkpt lat="43.4819" lon="2.38755">
        <ele>560.352</ele>
        <time>2021-05-23T09:45:31Z</time>
      </trkpt>
      <trkpt lat="43.4819" lon="2.38752">
        <ele>560.348</ele>
        <time>2021-05-23T09:45:33Z</time>
      </trkpt>
      <trkpt lat="43.48189" lon="2.38748">
        <ele>560.279</ele>
        <time>2021-05-23T09:45:35Z</time>
      </trkpt>
      <trkpt lat="43.48189" lon="2.38745">
        <ele>560.126</ele>
        <time>2021-05-23T09:45:37Z</time>
      </trkpt>
      <trkpt lat="43.48189" lon="2.38742">
        <ele>559.921</ele>
        <time>2021-05-23T09:45:39Z</time>
      </trkpt>
      <trkpt lat="43.48189" lon="2.38739">
        <ele>559.6</ele>
        <time>2021-05-23T09:45:41Z</time>
      </trkpt>
      <trkpt lat="43.4819" lon="2.38736">
        <ele>559.796</ele>
        <time>2021-05-23T09:45:43Z</time>
      </trkpt>
      <trkpt lat="43.4819" lon="2.38733">
        <ele>560.483</ele>
        <time>2021-05-23T09:45:45Z</time>
      </trkpt>
      <trkpt lat="43.48191" lon="2.3873">
        <ele>559.873</ele>
        <time>2021-05-23T09:45:47Z</time>
      </trkpt>
      <trkpt lat="43.48193" lon="2.38727">
        <ele>560.603</ele>
        <time>2021-05-23T09:45:49Z</time>
      </trkpt>
      <trkpt lat="43.48194" lon="2.38725">
        <ele>561.344</ele>
        <time>2021-05-23T09:45:51Z</time>
      </trkpt>
      <trkpt lat="43.48196" lon="2.38723">
        <ele>562.917</ele>
        <time>2021-05-23T09:45:53Z</time>
      </trkpt>
      <trkpt lat="43.48198" lon="2.38721">
        <ele>563.007</ele>
        <time>2021-05-23T09:45:55Z</time>
      </trkpt>
      <trkpt lat="43.482" lon="2.38719">
        <ele>563.132</ele>
        <time>2021-05-23T09:45:57Z</time>
      </trkpt>
      <trkpt lat="43.48202" lon="2.38717">
        <ele>562.885</ele>
        <time>2021-05-23T09:45:59Z</time>
      </trkpt>
      <trkpt lat="43.48204" lon="2.38715">
        <ele>562.331</ele>
        <time>2021-05-23T09:46:01Z</time>
      </trkpt>
      <trkpt lat="43.48206" lon="2.38712">
        <ele>562.599</ele>
        <time>2021-05-23T09:46:03Z</time>
      </trkpt>
      <trkpt lat="43.48207" lon="2.3871">
        <ele>561.659</ele>
        <time>2021-05-23T09:46:05Z</time>
      </trkpt>
      <trkpt lat="43.48208" lon="2.38709">
        <ele>561.78</ele>
        <time>2021-05-23T09:46:07Z</time>
      </trkpt>
      <trkpt lat="43.4821" lon="2.38707">
        <ele>561.493</ele>
        <time>2021-05-23T09:46:09Z</time>
      </trkpt>
      <trkpt lat="43.48212" lon="2.38705">
        <ele>560.481</ele>
        <time>2021-05-23T09:46:11Z</time>
      </trkpt>
      <trkpt lat="43.48214" lon="2.38703">
        <ele>560.242</ele>
        <time>2021-05-23T09:46:13Z</time>
      </trkpt>
      <trkpt lat="43.48217" lon="2.38701">
        <ele>560.273</ele>
        <time>2021-05-23T09:46:15Z</time>
      </trkpt>
      <trkpt lat="43.48219" lon="2.38699">
        <ele>560.891</ele>
        <time>2021-05-23T09:46:17Z</time>
      </trkpt>
      <trkpt lat="43.48221" lon="2.38698">
        <ele>560.176</ele>
        <time>2021-05-23T09:46:19Z</time>
      </trkpt>
      <trkpt lat="43.48224" lon="2.38698">
        <ele>560.672</ele>
        <time>2021-05-23T09:46:21Z</time>
      </trkpt>
      <trkpt lat="43.48226" lon="2.38697">
        <ele>560.655</ele>
        <time>2021-05-23T09:46:23Z</time>
      </trkpt>
      <trkpt lat="43.48229" lon="2.38696">
        <ele>561.046</ele>
        <time>2021-05-23T09:46:25Z</time>
      </trkpt>
      <trkpt lat="43.48231" lon="2.38695">
        <ele>560.445</ele>
        <time>2021-05-23T09:46:27Z</time>
      </trkpt>
      <trkpt lat="43.48233" lon="2.38693">
        <ele>561.556</ele>
        <time>2021-05-23T09:46:29Z</time>
      </trkpt>
      <trkpt lat="43.48235" lon="2.38692">
        <ele>561.335</ele>
        <time>2021-05-23T09:46:31Z</time>
      </trkpt>
      <trkpt lat="43.48237" lon="2.3869">
        <ele>561.403</ele>
        <time>2021-05-23T09:46:33Z</time>
      </trkpt>
      <trkpt lat="43.48239" lon="2.38688">
        <ele>562.371</ele>
        <time>2021-05-23T09:46:35Z</time>
      </trkpt>
      <trkpt lat="43.48241" lon="2.38685">
        <ele>562.224</ele>
        <time>2021-05-23T09:46:37Z</time>
      </trkpt>
      <trkpt lat="43.48243" lon="2.38682">
        <ele>561.484</ele>
        <time>2021-05-23T09:46:39Z</time>
      </trkpt>
      <trkpt lat="43.48244" lon="2.38679">
        <ele>560.634</ele>
        <time>2021-05-23T09:46:41Z</time>
      </trkpt>
      <trkpt lat="43.48245" lon="2.38676">
        <ele>560.61</ele>
        <time>2021-05-23T09:46:43Z</time>
      </trkpt>
      <trkpt lat="43.48245" lon="2.3867">
        <ele>560.263</ele>
        <time>2021-05-23T09:46:46Z</time>
      </trkpt>
      <trkpt lat="43.48245" lon="2.38667">
        <ele>560.249</ele>
        <time>2021-05-23T09:46:48Z</time>
      </trkpt>
      <trkpt lat="43.48244" lon="2.38664">
        <ele>560.007</ele>
        <time>2021-05-23T09:46:50Z</time>
      </trkpt>
      <trkpt lat="43.48243" lon="2.38661">
        <ele>560.507</ele>
        <time>2021-05-23T09:46:52Z</time>
      </trkpt>
      <trkpt lat="43.48242" lon="2.38658">
        <ele>560.318</ele>
        <time>2021-05-23T09:46:54Z</time>
      </trkpt>
      <trkpt lat="43.48241" lon="2.38655">
        <ele>560.709</ele>
        <time>2021-05-23T09:46:56Z</time>
      </trkpt>
      <trkpt lat="43.4824" lon="2.38652">
        <ele>561.248</ele>
        <time>2021-05-23T09:46:58Z</time>
      </trkpt>
      <trkpt lat="43.4824" lon="2.3865">
        <ele>561.299</ele>
        <time>2021-05-23T09:47:00Z</time>
      </trkpt>
      <trkpt lat="43.48239" lon="2.38647">
        <ele>561.634</ele>
        <time>2021-05-23T09:47:02Z</time>
      </trkpt>
      <trkpt lat="43.48238" lon="2.38645">
        <ele>561.54</ele>
        <time>2021-05-23T09:47:04Z</time>
      </trkpt>
      <trkpt lat="43.48238" lon="2.38643">
        <ele>562.379</ele>
        <time>2021-05-23T09:47:06Z</time>
      </trkpt>
      <trkpt lat="43.48237" lon="2.3864">
        <ele>562.686</ele>
        <time>2021-05-23T09:47:08Z</time>
      </trkpt>
      <trkpt lat="43.48236" lon="2.38638">
        <ele>562.814</ele>
        <time>2021-05-23T09:47:10Z</time>
      </trkpt>
      <trkpt lat="43.48237" lon="2.38636">
        <ele>563.182</ele>
        <time>2021-05-23T09:47:12Z</time>
      </trkpt>
      <trkpt lat="43.48237" lon="2.38633">
        <ele>563.588</ele>
        <time>2021-05-23T09:47:14Z</time>
      </trkpt>
      <trkpt lat="43.48236" lon="2.3863">
        <ele>564.126</ele>
        <time>2021-05-23T09:47:16Z</time>
      </trkpt>
      <trkpt lat="43.48236" lon="2.38628">
        <ele>564.603</ele>
        <time>2021-05-23T09:47:18Z</time>
      </trkpt>
      <trkpt lat="43.48236" lon="2.38625">
        <ele>564.605</ele>
        <time>2021-05-23T09:47:20Z</time>
      </trkpt>
      <trkpt lat="43.48235" lon="2.38623">
        <ele>564.686</ele>
        <time>2021-05-23T09:47:22Z</time>
      </trkpt>
      <trkpt lat="43.48235" lon="2.3862">
        <ele>563.334</ele>
        <time>2021-05-23T09:47:24Z</time>
      </trkpt>
      <trkpt lat="43.48234" lon="2.38617">
        <ele>563.405</ele>
        <time>2021-05-23T09:47:26Z</time>
      </trkpt>
      <trkpt lat="43.48233" lon="2.38614">
        <ele>563.132</ele>
        <time>2021-05-23T09:47:28Z</time>
      </trkpt>
      <trkpt lat="43.48233" lon="2.38612">
        <ele>563.488</ele>
        <time>2021-05-23T09:47:30Z</time>
      </trkpt>
      <trkpt lat="43.48232" lon="2.38609">
        <ele>563.557</ele>
        <time>2021-05-23T09:47:32Z</time>
      </trkpt>
      <trkpt lat="43.48232" lon="2.38606">
        <ele>563.657</ele>
        <time>2021-05-23T09:47:34Z</time>
      </trkpt>
      <trkpt lat="43.48232" lon="2.38604">
        <ele>563.895</ele>
        <time>2021-05-23T09:47:36Z</time>
      </trkpt>
      <trkpt lat="43.48231" lon="2.38601">
        <ele>564.611</ele>
        <time>2021-05-23T09:47:38Z</time>
      </trkpt>
      <trkpt lat="43.48231" lon="2.38598">
        <ele>564.922</ele>
        <time>2021-05-23T09:47:40Z</time>
      </trkpt>
      <trkpt lat="43.4823" lon="2.38595">
        <ele>564.633</ele>
        <time>2021-05-23T09:47:42Z</time>
      </trkpt>
      <trkpt lat="43.4823" lon="2.38592">
        <ele>565.541</ele>
        <time>2021-05-23T09:47:44Z</time>
      </trkpt>
      <trkpt lat="43.48229" lon="2.3859">
        <ele>565.693</ele>
        <time>2021-05-23T09:47:46Z</time>
      </trkpt>
      <trkpt lat="43.48228" lon="2.38588">
        <ele>567.608</ele>
        <time>2021-05-23T09:47:48Z</time>
      </trkpt>
      <trkpt lat="43.48228" lon="2.38586">
        <ele>568.28</ele>
        <time>2021-05-23T09:47:50Z</time>
      </trkpt>
      <trkpt lat="43.48227" lon="2.38584">
        <ele>568.679</ele>
        <time>2021-05-23T09:47:52Z</time>
      </trkpt>
      <trkpt lat="43.48226" lon="2.38583">
        <ele>568.694</ele>
        <time>2021-05-23T09:47:54Z</time>
      </trkpt>
      <trkpt lat="43.48225" lon="2.38582">
        <ele>569.298</ele>
        <time>2021-05-23T09:47:56Z</time>
      </trkpt>
      <trkpt lat="43.48224" lon="2.3858">
        <ele>570.067</ele>
        <time>2021-05-23T09:47:58Z</time>
      </trkpt>
      <trkpt lat="43.48223" lon="2.38578">
        <ele>570.883</ele>
        <time>2021-05-23T09:48:00Z</time>
      </trkpt>
      <trkpt lat="43.48222" lon="2.38577">
        <ele>570.684</ele>
        <time>2021-05-23T09:48:02Z</time>
      </trkpt>
      <trkpt lat="43.4822" lon="2.38576">
        <ele>570.901</ele>
        <time>2021-05-23T09:48:04Z</time>
      </trkpt>
      <trkpt lat="43.4822" lon="2.38575">
        <ele>571.42</ele>
        <time>2021-05-23T09:48:06Z</time>
      </trkpt>
      <trkpt lat="43.48219" lon="2.38574">
        <ele>572.044</ele>
        <time>2021-05-23T09:48:08Z</time>
      </trkpt>
      <trkpt lat="43.48218" lon="2.38571">
        <ele>572.918</ele>
        <time>2021-05-23T09:48:10Z</time>
      </trkpt>
      <trkpt lat="43.48218" lon="2.38569">
        <ele>573.002</ele>
        <time>2021-05-23T09:48:12Z</time>
      </trkpt>
      <trkpt lat="43.48218" lon="2.38566">
        <ele>573.765</ele>
        <time>2021-05-23T09:48:14Z</time>
      </trkpt>
      <trkpt lat="43.48217" lon="2.38564">
        <ele>574.137</ele>
        <time>2021-05-23T09:48:16Z</time>
      </trkpt>
      <trkpt lat="43.48217" lon="2.38562">
        <ele>573.881</ele>
        <time>2021-05-23T09:48:18Z</time>
      </trkpt>
      <trkpt lat="43.48217" lon="2.38559">
        <ele>574.066</ele>
        <time>2021-05-23T09:48:20Z</time>
      </trkpt>
      <trkpt lat="43.48217" lon="2.38557">
        <ele>573.502</ele>
        <time>2021-05-23T09:48:22Z</time>
      </trkpt>
      <trkpt lat="43.48216" lon="2.38554">
        <ele>573.814</ele>
        <time>2021-05-23T09:48:24Z</time>
      </trkpt>
      <trkpt lat="43.48216" lon="2.38552">
        <ele>573.797</ele>
        <time>2021-05-23T09:48:26Z</time>
      </trkpt>
      <trkpt lat="43.48217" lon="2.38551">
        <ele>573.586</ele>
        <time>2021-05-23T09:48:28Z</time>
      </trkpt>
      <trkpt lat="43.48217" lon="2.38549">
        <ele>574.316</ele>
        <time>2021-05-23T09:48:30Z</time>
      </trkpt>
      <trkpt lat="43.48217" lon="2.38549">
        <ele>573.813</ele>
        <time>2021-05-23T09:48:32Z</time>
      </trkpt>
      <trkpt lat="43.48218" lon="2.38548">
        <ele>573.295</ele>
        <time>2021-05-23T09:48:34Z</time>
      </trkpt>
      <trkpt lat="43.48218" lon="2.38547">
        <ele>573.329</ele>
        <time>2021-05-23T09:48:36Z</time>
      </trkpt>
      <trkpt lat="43.48219" lon="2.38545">
        <ele>572.939</ele>
        <time>2021-05-23T09:48:38Z</time>
      </trkpt>
      <trkpt lat="43.48219" lon="2.38544">
        <ele>573.485</ele>
        <time>2021-05-23T09:48:40Z</time>
      </trkpt>
      <trkpt lat="43.4822" lon="2.38542">
        <ele>573.43</ele>
        <time>2021-05-23T09:48:42Z</time>
      </trkpt>
      <trkpt lat="43.4822" lon="2.38541">
        <ele>573.579</ele>
        <time>2021-05-23T09:48:44Z</time>
      </trkpt>
      <trkpt lat="43.48221" lon="2.38539">
        <ele>573.079</ele>
        <time>2021-05-23T09:48:46Z</time>
      </trkpt>
      <trkpt lat="43.48221" lon="2.38538">
        <ele>573.476</ele>
        <time>2021-05-23T09:48:48Z</time>
      </trkpt>
      <trkpt lat="43.48221" lon="2.38538">
        <ele>573.472</ele>
        <time>2021-05-23T09:48:50Z</time>
      </trkpt>
      <trkpt lat="43.48221" lon="2.38538">
        <ele>573.468</ele>
        <time>2021-05-23T09:48:52Z</time>
      </trkpt>
      <trkpt lat="43.48221" lon="2.38538">
        <ele>573.457</ele>
        <time>2021-05-23T09:48:54Z</time>
      </trkpt>
      <trkpt lat="43.48221" lon="2.38538">
        <ele>573.447</ele>
        <time>2021-05-23T09:48:56Z</time>
      </trkpt>
      <trkpt lat="43.48221" lon="2.38538">
        <ele>573.45</ele>
        <time>2021-05-23T09:48:58Z</time>
      </trkpt>
      <trkpt lat="43.48221" lon="2.38538">
        <ele>573.451</ele>
        <time>2021-05-23T09:49:00Z</time>
      </trkpt>
      <trkpt lat="43.48221" lon="2.38538">
        <ele>573.455</ele>
        <time>2021-05-23T09:49:02Z</time>
      </trkpt>
      <trkpt lat="43.48221" lon="2.38538">
        <ele>573.453</ele>
        <time>2021-05-23T09:49:04Z</time>
      </trkpt>
      <trkpt lat="43.48221" lon="2.38538">
        <ele>573.45</ele>
        <time>2021-05-23T09:49:06Z</time>
      </trkpt>
      <trkpt lat="43.48222" lon="2.38538">
        <ele>573.528</ele>
        <time>2021-05-23T09:49:08Z</time>
      </trkpt>
      <trkpt lat="43.48222" lon="2.38538">
        <ele>573.276</ele>
        <time>2021-05-23T09:49:10Z</time>
      </trkpt>
      <trkpt lat="43.48222" lon="2.38538">
        <ele>573.272</ele>
        <time>2021-05-23T09:49:12Z</time>
      </trkpt>
      <trkpt lat="43.48222" lon="2.38538">
        <ele>573.27</ele>
        <time>2021-05-23T09:49:14Z</time>
      </trkpt>
      <trkpt lat="43.48222" lon="2.38538">
        <ele>573.269</ele>
        <time>2021-05-23T09:49:16Z</time>
      </trkpt>
      <trkpt lat="43.48222" lon="2.38538">
        <ele>573.274</ele>
        <time>2021-05-23T09:49:18Z</time>
      </trkpt>
      <trkpt lat="43.48222" lon="2.38538">
        <ele>573.271</ele>
        <time>2021-05-23T09:49:20Z</time>
      </trkpt>
      <trkpt lat="43.48222" lon="2.38538">
        <ele>573.272</ele>
        <time>2021-05-23T09:49:22Z</time>
      </trkpt>
      <trkpt lat="43.48222" lon="2.38538">
        <ele>573.276</ele>
        <time>2021-05-23T09:49:24Z</time>
      </trkpt>
      <trkpt lat="43.48222" lon="2.38538">
        <ele>573.28</ele>
        <time>2021-05-23T09:49:26Z</time>
      </trkpt>
      <trkpt lat="43.48222" lon="2.38538">
        <ele>573.282</ele>
        <time>2021-05-23T09:49:28Z</time>
      </trkpt>
      <trkpt lat="43.48222" lon="2.38538">
        <ele>573.279</ele>
        <time>2021-05-23T09:49:30Z</time>
      </trkpt>
      <trkpt lat="43.48222" lon="2.38538">
        <ele>573.279</ele>
        <time>2021-05-23T09:49:32Z</time>
      </trkpt>
      <trkpt lat="43.48222" lon="2.38538">
        <ele>573.277</ele>
        <time>2021-05-23T09:49:34Z</time>
      </trkpt>
      <trkpt lat="43.48222" lon="2.38538">
        <ele>573.281</ele>
        <time>2021-05-23T09:49:36Z</time>
      </trkpt>
      <trkpt lat="43.48222" lon="2.38538">
        <ele>573.28</ele>
        <time>2021-05-23T09:49:38Z</time>
      </trkpt>
      <trkpt lat="43.48222" lon="2.38538">
        <ele>573.284</ele>
        <time>2021-05-23T09:49:40Z</time>
      </trkpt>
      <trkpt lat="43.48222" lon="2.38538">
        <ele>573.286</ele>
        <time>2021-05-23T09:49:42Z</time>
      </trkpt>
      <trkpt lat="43.48222" lon="2.38538">
        <ele>573.288</ele>
        <time>2021-05-23T09:49:44Z</time>
      </trkpt>
      <trkpt lat="43.48222" lon="2.38538">
        <ele>573.334</ele>
        <time>2021-05-23T09:49:46Z</time>
      </trkpt>
      <trkpt lat="43.48222" lon="2.38538">
        <ele>573.307</ele>
        <time>2021-05-23T09:49:48Z</time>
      </trkpt>
      <trkpt lat="43.48222" lon="2.38538">
        <ele>573.298</ele>
        <time>2021-05-23T09:49:50Z</time>
      </trkpt>
      <trkpt lat="43.48222" lon="2.38538">
        <ele>573.29</ele>
        <time>2021-05-23T09:49:52Z</time>
      </trkpt>
      <trkpt lat="43.48223" lon="2.38538">
        <ele>573.197</ele>
        <time>2021-05-23T09:49:54Z</time>
      </trkpt>
      <trkpt lat="43.48223" lon="2.38536">
        <ele>572.964</ele>
        <time>2021-05-23T09:49:56Z</time>
      </trkpt>
      <trkpt lat="43.48224" lon="2.38534">
        <ele>572.093</ele>
        <time>2021-05-23T09:49:58Z</time>
      </trkpt>
      <trkpt lat="43.48225" lon="2.38532">
        <ele>571.472</ele>
        <time>2021-05-23T09:50:00Z</time>
      </trkpt>
      <trkpt lat="43.48226" lon="2.3853">
        <ele>570.758</ele>
        <time>2021-05-23T09:50:02Z</time>
      </trkpt>
      <trkpt lat="43.48227" lon="2.38529">
        <ele>570.334</ele>
        <time>2021-05-23T09:50:04Z</time>
      </trkpt>
      <trkpt lat="43.48228" lon="2.38527">
        <ele>569.671</ele>
        <time>2021-05-23T09:50:06Z</time>
      </trkpt>
      <trkpt lat="43.48229" lon="2.38524">
        <ele>569.788</ele>
        <time>2021-05-23T09:50:08Z</time>
      </trkpt>
      <trkpt lat="43.4823" lon="2.38522">
        <ele>570.206</ele>
        <time>2021-05-23T09:50:10Z</time>
      </trkpt>
      <trkpt lat="43.48232" lon="2.38519">
        <ele>569.695</ele>
        <time>2021-05-23T09:50:12Z</time>
      </trkpt>
      <trkpt lat="43.48233" lon="2.38516">
        <ele>569.131</ele>
        <time>2021-05-23T09:50:14Z</time>
      </trkpt>
      <trkpt lat="43.48235" lon="2.38514">
        <ele>568.704</ele>
        <time>2021-05-23T09:50:16Z</time>
      </trkpt>
      <trkpt lat="43.48236" lon="2.38512">
        <ele>568.201</ele>
        <time>2021-05-23T09:50:18Z</time>
      </trkpt>
      <trkpt lat="43.48238" lon="2.3851">
        <ele>567.679</ele>
        <time>2021-05-23T09:50:20Z</time>
      </trkpt>
      <trkpt lat="43.4824" lon="2.38508">
        <ele>567.375</ele>
        <time>2021-05-23T09:50:22Z</time>
      </trkpt>
      <trkpt lat="43.48242" lon="2.38505">
        <ele>567.276</ele>
        <time>2021-05-23T09:50:24Z</time>
      </trkpt>
      <trkpt lat="43.48244" lon="2.38503">
        <ele>567.08</ele>
        <time>2021-05-23T09:50:26Z</time>
      </trkpt>
      <trkpt lat="43.48245" lon="2.38502">
        <ele>566.831</ele>
        <time>2021-05-23T09:50:27Z</time>
      </trkpt>
      <trkpt lat="43.48248" lon="2.38499">
        <ele>566.351</ele>
        <time>2021-05-23T09:50:30Z</time>
      </trkpt>
      <trkpt lat="43.4825" lon="2.38497">
        <ele>565.928</ele>
        <time>2021-05-23T09:50:32Z</time>
      </trkpt>
      <trkpt lat="43.48252" lon="2.38495">
        <ele>565.688</ele>
        <time>2021-05-23T09:50:34Z</time>
      </trkpt>
      <trkpt lat="43.48253" lon="2.38492">
        <ele>565.055</ele>
        <time>2021-05-23T09:50:36Z</time>
      </trkpt>
      <trkpt lat="43.48255" lon="2.3849">
        <ele>565.129</ele>
        <time>2021-05-23T09:50:38Z</time>
      </trkpt>
      <trkpt lat="43.48257" lon="2.38487">
        <ele>564.615</ele>
        <time>2021-05-23T09:50:40Z</time>
      </trkpt>
      <trkpt lat="43.48259" lon="2.38484">
        <ele>564.6</ele>
        <time>2021-05-23T09:50:42Z</time>
      </trkpt>
      <trkpt lat="43.4826" lon="2.38482">
        <ele>564.604</ele>
        <time>2021-05-23T09:50:44Z</time>
      </trkpt>
      <trkpt lat="43.48261" lon="2.38481">
        <ele>564.228</ele>
        <time>2021-05-23T09:50:46Z</time>
      </trkpt>
      <trkpt lat="43.48262" lon="2.38478">
        <ele>564.306</ele>
        <time>2021-05-23T09:50:48Z</time>
      </trkpt>
      <trkpt lat="43.48264" lon="2.38475">
        <ele>564.244</ele>
        <time>2021-05-23T09:50:50Z</time>
      </trkpt>
      <trkpt lat="43.48266" lon="2.38472">
        <ele>564.121</ele>
        <time>2021-05-23T09:50:52Z</time>
      </trkpt>
      <trkpt lat="43.48267" lon="2.3847">
        <ele>563.764</ele>
        <time>2021-05-23T09:50:54Z</time>
      </trkpt>
      <trkpt lat="43.48268" lon="2.38467">
        <ele>563.599</ele>
        <time>2021-05-23T09:50:56Z</time>
      </trkpt>
      <trkpt lat="43.48269" lon="2.38464">
        <ele>562.935</ele>
        <time>2021-05-23T09:50:58Z</time>
      </trkpt>
      <trkpt lat="43.4827" lon="2.38461">
        <ele>562.846</ele>
        <time>2021-05-23T09:51:00Z</time>
      </trkpt>
      <trkpt lat="43.48272" lon="2.38458">
        <ele>562.918</ele>
        <time>2021-05-23T09:51:02Z</time>
      </trkpt>
      <trkpt lat="43.48273" lon="2.38455">
        <ele>562.34</ele>
        <time>2021-05-23T09:51:04Z</time>
      </trkpt>
      <trkpt lat="43.48275" lon="2.38451">
        <ele>561.932</ele>
        <time>2021-05-23T09:51:06Z</time>
      </trkpt>
      <trkpt lat="43.48276" lon="2.38448">
        <ele>562.064</ele>
        <time>2021-05-23T09:51:08Z</time>
      </trkpt>
      <trkpt lat="43.48278" lon="2.38445">
        <ele>561.748</ele>
        <time>2021-05-23T09:51:10Z</time>
      </trkpt>
      <trkpt lat="43.48279" lon="2.38442">
        <ele>561.534</ele>
        <time>2021-05-23T09:51:12Z</time>
      </trkpt>
      <trkpt lat="43.48279" lon="2.38439">
        <ele>559.837</ele>
        <time>2021-05-23T09:51:14Z</time>
      </trkpt>
      <trkpt lat="43.48279" lon="2.38436">
        <ele>558.583</ele>
        <time>2021-05-23T09:51:16Z</time>
      </trkpt>
      <trkpt lat="43.4828" lon="2.38433">
        <ele>558.519</ele>
        <time>2021-05-23T09:51:18Z</time>
      </trkpt>
      <trkpt lat="43.48281" lon="2.38431">
        <ele>557.785</ele>
        <time>2021-05-23T09:51:20Z</time>
      </trkpt>
      <trkpt lat="43.48281" lon="2.38428">
        <ele>557.536</ele>
        <time>2021-05-23T09:51:22Z</time>
      </trkpt>
      <trkpt lat="43.48282" lon="2.38425">
        <ele>557.045</ele>
        <time>2021-05-23T09:51:24Z</time>
      </trkpt>
      <trkpt lat="43.48283" lon="2.38422">
        <ele>556.855</ele>
        <time>2021-05-23T09:51:26Z</time>
      </trkpt>
      <trkpt lat="43.48283" lon="2.3842">
        <ele>556.795</ele>
        <time>2021-05-23T09:51:28Z</time>
      </trkpt>
      <trkpt lat="43.48284" lon="2.38419">
        <ele>556.93</ele>
        <time>2021-05-23T09:51:30Z</time>
      </trkpt>
      <trkpt lat="43.48285" lon="2.38417">
        <ele>556.642</ele>
        <time>2021-05-23T09:51:32Z</time>
      </trkpt>
      <trkpt lat="43.48286" lon="2.38414">
        <ele>556.12</ele>
        <time>2021-05-23T09:51:34Z</time>
      </trkpt>
      <trkpt lat="43.48287" lon="2.38412">
        <ele>555.225</ele>
        <time>2021-05-23T09:51:36Z</time>
      </trkpt>
      <trkpt lat="43.48288" lon="2.38411">
        <ele>554.849</ele>
        <time>2021-05-23T09:51:38Z</time>
      </trkpt>
      <trkpt lat="43.4829" lon="2.38408">
        <ele>555.207</ele>
        <time>2021-05-23T09:51:40Z</time>
      </trkpt>
      <trkpt lat="43.48292" lon="2.38406">
        <ele>554.64</ele>
        <time>2021-05-23T09:51:42Z</time>
      </trkpt>
      <trkpt lat="43.48293" lon="2.38404">
        <ele>554.072</ele>
        <time>2021-05-23T09:51:44Z</time>
      </trkpt>
      <trkpt lat="43.48295" lon="2.38402">
        <ele>553.35</ele>
        <time>2021-05-23T09:51:46Z</time>
      </trkpt>
      <trkpt lat="43.48296" lon="2.384">
        <ele>553.253</ele>
        <time>2021-05-23T09:51:48Z</time>
      </trkpt>
      <trkpt lat="43.48298" lon="2.38398">
        <ele>553.229</ele>
        <time>2021-05-23T09:51:50Z</time>
      </trkpt>
      <trkpt lat="43.48299" lon="2.38396">
        <ele>552.472</ele>
        <time>2021-05-23T09:51:52Z</time>
      </trkpt>
      <trkpt lat="43.483" lon="2.38393">
        <ele>552.257</ele>
        <time>2021-05-23T09:51:54Z</time>
      </trkpt>
      <trkpt lat="43.48302" lon="2.38391">
        <ele>551.967</ele>
        <time>2021-05-23T09:51:56Z</time>
      </trkpt>
      <trkpt lat="43.48304" lon="2.38388">
        <ele>551.885</ele>
        <time>2021-05-23T09:51:58Z</time>
      </trkpt>
      <trkpt lat="43.48306" lon="2.38386">
        <ele>551.562</ele>
        <time>2021-05-23T09:52:00Z</time>
      </trkpt>
      <trkpt lat="43.48307" lon="2.38384">
        <ele>550.497</ele>
        <time>2021-05-23T09:52:02Z</time>
      </trkpt>
      <trkpt lat="43.48309" lon="2.38382">
        <ele>550.443</ele>
        <time>2021-05-23T09:52:04Z</time>
      </trkpt>
      <trkpt lat="43.4831" lon="2.3838">
        <ele>550.54</ele>
        <time>2021-05-23T09:52:06Z</time>
      </trkpt>
      <trkpt lat="43.48312" lon="2.38377">
        <ele>550.156</ele>
        <time>2021-05-23T09:52:08Z</time>
      </trkpt>
      <trkpt lat="43.48313" lon="2.38375">
        <ele>549.822</ele>
        <time>2021-05-23T09:52:10Z</time>
      </trkpt>
      <trkpt lat="43.48314" lon="2.38372">
        <ele>549.354</ele>
        <time>2021-05-23T09:52:12Z</time>
      </trkpt>
      <trkpt lat="43.48315" lon="2.3837">
        <ele>549.634</ele>
        <time>2021-05-23T09:52:14Z</time>
      </trkpt>
      <trkpt lat="43.48316" lon="2.38367">
        <ele>549.328</ele>
        <time>2021-05-23T09:52:16Z</time>
      </trkpt>
      <trkpt lat="43.48317" lon="2.38366">
        <ele>551.127</ele>
        <time>2021-05-23T09:52:18Z</time>
      </trkpt>
      <trkpt lat="43.48316" lon="2.38367">
        <ele>550.372</ele>
        <time>2021-05-23T09:52:20Z</time>
      </trkpt>
      <trkpt lat="43.48316" lon="2.38367">
        <ele>550.175</ele>
        <time>2021-05-23T09:52:22Z</time>
      </trkpt>
      <trkpt lat="43.48317" lon="2.38366">
        <ele>550.479</ele>
        <time>2021-05-23T09:52:24Z</time>
      </trkpt>
      <trkpt lat="43.48318" lon="2.38365">
        <ele>550.85</ele>
        <time>2021-05-23T09:52:26Z</time>
      </trkpt>
      <trkpt lat="43.48318" lon="2.38365">
        <ele>550.855</ele>
        <time>2021-05-23T09:52:28Z</time>
      </trkpt>
      <trkpt lat="43.48318" lon="2.38364">
        <ele>550.776</ele>
        <time>2021-05-23T09:52:30Z</time>
      </trkpt>
      <trkpt lat="43.48319" lon="2.38361">
        <ele>550.791</ele>
        <time>2021-05-23T09:52:32Z</time>
      </trkpt>
      <trkpt lat="43.48319" lon="2.38359">
        <ele>550.623</ele>
        <time>2021-05-23T09:52:34Z</time>
      </trkpt>
      <trkpt lat="43.4832" lon="2.38356">
        <ele>550.461</ele>
        <time>2021-05-23T09:52:36Z</time>
      </trkpt>
      <trkpt lat="43.4832" lon="2.38354">
        <ele>550.545</ele>
        <time>2021-05-23T09:52:38Z</time>
      </trkpt>
      <trkpt lat="43.4832" lon="2.38352">
        <ele>550.587</ele>
        <time>2021-05-23T09:52:40Z</time>
      </trkpt>
      <trkpt lat="43.48321" lon="2.3835">
        <ele>550.281</ele>
        <time>2021-05-23T09:52:42Z</time>
      </trkpt>
      <trkpt lat="43.48321" lon="2.38347">
        <ele>549.003</ele>
        <time>2021-05-23T09:52:44Z</time>
      </trkpt>
      <trkpt lat="43.48322" lon="2.38345">
        <ele>548.45</ele>
        <time>2021-05-23T09:52:46Z</time>
      </trkpt>
      <trkpt lat="43.48323" lon="2.38343">
        <ele>547.204</ele>
        <time>2021-05-23T09:52:48Z</time>
      </trkpt>
      <trkpt lat="43.48325" lon="2.38341">
        <ele>546.602</ele>
        <time>2021-05-23T09:52:50Z</time>
      </trkpt>
      <trkpt lat="43.48327" lon="2.38341">
        <ele>546.052</ele>
        <time>2021-05-23T09:52:52Z</time>
      </trkpt>
      <trkpt lat="43.48329" lon="2.3834">
        <ele>545.591</ele>
        <time>2021-05-23T09:52:54Z</time>
      </trkpt>
      <trkpt lat="43.4833" lon="2.38339">
        <ele>544.901</ele>
        <time>2021-05-23T09:52:56Z</time>
      </trkpt>
      <trkpt lat="43.48331" lon="2.38337">
        <ele>543.895</ele>
        <time>2021-05-23T09:52:58Z</time>
      </trkpt>
      <trkpt lat="43.48333" lon="2.38335">
        <ele>543.668</ele>
        <time>2021-05-23T09:53:00Z</time>
      </trkpt>
      <trkpt lat="43.48334" lon="2.38333">
        <ele>543.907</ele>
        <time>2021-05-23T09:53:02Z</time>
      </trkpt>
      <trkpt lat="43.48335" lon="2.38332">
        <ele>543.639</ele>
        <time>2021-05-23T09:53:04Z</time>
      </trkpt>
      <trkpt lat="43.48336" lon="2.3833">
        <ele>543.236</ele>
        <time>2021-05-23T09:53:06Z</time>
      </trkpt>
      <trkpt lat="43.48337" lon="2.38328">
        <ele>542.094</ele>
        <time>2021-05-23T09:53:08Z</time>
      </trkpt>
      <trkpt lat="43.48337" lon="2.38325">
        <ele>540.872</ele>
        <time>2021-05-23T09:53:10Z</time>
      </trkpt>
      <trkpt lat="43.48337" lon="2.38322">
        <ele>539.653</ele>
        <time>2021-05-23T09:53:12Z</time>
      </trkpt>
      <trkpt lat="43.48338" lon="2.38321">
        <ele>539.285</ele>
        <time>2021-05-23T09:53:14Z</time>
      </trkpt>
      <trkpt lat="43.48339" lon="2.38318">
        <ele>538.296</ele>
        <time>2021-05-23T09:53:16Z</time>
      </trkpt>
      <trkpt lat="43.48341" lon="2.38317">
        <ele>537.115</ele>
        <time>2021-05-23T09:53:18Z</time>
      </trkpt>
      <trkpt lat="43.48343" lon="2.38315">
        <ele>536.447</ele>
        <time>2021-05-23T09:53:20Z</time>
      </trkpt>
      <trkpt lat="43.48344" lon="2.38313">
        <ele>535.969</ele>
        <time>2021-05-23T09:53:22Z</time>
      </trkpt>
      <trkpt lat="43.48345" lon="2.3831">
        <ele>536.428</ele>
        <time>2021-05-23T09:53:24Z</time>
      </trkpt>
      <trkpt lat="43.48344" lon="2.38308">
        <ele>535.384</ele>
        <time>2021-05-23T09:53:26Z</time>
      </trkpt>
      <trkpt lat="43.48342" lon="2.38305">
        <ele>535.265</ele>
        <time>2021-05-23T09:53:28Z</time>
      </trkpt>
      <trkpt lat="43.48342" lon="2.38302">
        <ele>534.065</ele>
        <time>2021-05-23T09:53:30Z</time>
      </trkpt>
      <trkpt lat="43.48342" lon="2.38299">
        <ele>534.104</ele>
        <time>2021-05-23T09:53:32Z</time>
      </trkpt>
      <trkpt lat="43.48344" lon="2.38297">
        <ele>534.586</ele>
        <time>2021-05-23T09:53:34Z</time>
      </trkpt>
      <trkpt lat="43.48346" lon="2.38296">
        <ele>534.46</ele>
        <time>2021-05-23T09:53:36Z</time>
      </trkpt>
      <trkpt lat="43.48348" lon="2.38294">
        <ele>533.703</ele>
        <time>2021-05-23T09:53:38Z</time>
      </trkpt>
      <trkpt lat="43.48349" lon="2.38291">
        <ele>531.477</ele>
        <time>2021-05-23T09:53:40Z</time>
      </trkpt>
      <trkpt lat="43.48349" lon="2.38289">
        <ele>530.502</ele>
        <time>2021-05-23T09:53:42Z</time>
      </trkpt>
      <trkpt lat="43.4835" lon="2.38285">
        <ele>530.696</ele>
        <time>2021-05-23T09:53:44Z</time>
      </trkpt>
      <trkpt lat="43.48351" lon="2.38282">
        <ele>529.69</ele>
        <time>2021-05-23T09:53:46Z</time>
      </trkpt>
      <trkpt lat="43.48349" lon="2.38278">
        <ele>528.933</ele>
        <time>2021-05-23T09:53:48Z</time>
      </trkpt>
      <trkpt lat="43.48347" lon="2.38277">
        <ele>528.528</ele>
        <time>2021-05-23T09:53:50Z</time>
      </trkpt>
      <trkpt lat="43.48346" lon="2.38275">
        <ele>526.819</ele>
        <time>2021-05-23T09:53:52Z</time>
      </trkpt>
      <trkpt lat="43.48345" lon="2.38273">
        <ele>525.598</ele>
        <time>2021-05-23T09:53:54Z</time>
      </trkpt>
      <trkpt lat="43.48345" lon="2.38271">
        <ele>524.451</ele>
        <time>2021-05-23T09:53:56Z</time>
      </trkpt>
      <trkpt lat="43.48344" lon="2.38269">
        <ele>522.448</ele>
        <time>2021-05-23T09:53:58Z</time>
      </trkpt>
      <trkpt lat="43.48344" lon="2.38266">
        <ele>521.477</ele>
        <time>2021-05-23T09:54:00Z</time>
      </trkpt>
      <trkpt lat="43.48343" lon="2.38263">
        <ele>520.532</ele>
        <time>2021-05-23T09:54:02Z</time>
      </trkpt>
      <trkpt lat="43.48342" lon="2.38262">
        <ele>519.752</ele>
        <time>2021-05-23T09:54:04Z</time>
      </trkpt>
      <trkpt lat="43.48341" lon="2.38259">
        <ele>519.013</ele>
        <time>2021-05-23T09:54:06Z</time>
      </trkpt>
      <trkpt lat="43.4834" lon="2.38257">
        <ele>517.582</ele>
        <time>2021-05-23T09:54:08Z</time>
      </trkpt>
      <trkpt lat="43.48341" lon="2.38255">
        <ele>516.76</ele>
        <time>2021-05-23T09:54:10Z</time>
      </trkpt>
      <trkpt lat="43.48342" lon="2.38253">
        <ele>516.707</ele>
        <time>2021-05-23T09:54:12Z</time>
      </trkpt>
      <trkpt lat="43.48344" lon="2.38251">
        <ele>517.734</ele>
        <time>2021-05-23T09:54:14Z</time>
      </trkpt>
      <trkpt lat="43.48345" lon="2.38248">
        <ele>517.531</ele>
        <time>2021-05-23T09:54:16Z</time>
      </trkpt>
      <trkpt lat="43.48346" lon="2.38245">
        <ele>518.601</ele>
        <time>2021-05-23T09:54:18Z</time>
      </trkpt>
      <trkpt lat="43.48346" lon="2.38244">
        <ele>519.703</ele>
        <time>2021-05-23T09:54:20Z</time>
      </trkpt>
      <trkpt lat="43.48345" lon="2.38242">
        <ele>518.377</ele>
        <time>2021-05-23T09:54:22Z</time>
      </trkpt>
      <trkpt lat="43.48345" lon="2.38239">
        <ele>518.646</ele>
        <time>2021-05-23T09:54:24Z</time>
      </trkpt>
      <trkpt lat="43.48345" lon="2.38237">
        <ele>518.677</ele>
        <time>2021-05-23T09:54:26Z</time>
      </trkpt>
      <trkpt lat="43.48345" lon="2.38235">
        <ele>517.766</ele>
        <time>2021-05-23T09:54:28Z</time>
      </trkpt>
      <trkpt lat="43.48344" lon="2.38233">
        <ele>517.801</ele>
        <time>2021-05-23T09:54:30Z</time>
      </trkpt>
      <trkpt lat="43.48344" lon="2.38229">
        <ele>517.073</ele>
        <time>2021-05-23T09:54:32Z</time>
      </trkpt>
      <trkpt lat="43.48345" lon="2.3823">
        <ele>514.621</ele>
        <time>2021-05-23T09:54:34Z</time>
      </trkpt>
      <trkpt lat="43.48343" lon="2.38227">
        <ele>513.133</ele>
        <time>2021-05-23T09:54:36Z</time>
      </trkpt>
      <trkpt lat="43.48344" lon="2.38225">
        <ele>514.544</ele>
        <time>2021-05-23T09:54:38Z</time>
      </trkpt>
      <trkpt lat="43.48344" lon="2.38223">
        <ele>515.239</ele>
        <time>2021-05-23T09:54:40Z</time>
      </trkpt>
      <trkpt lat="43.48344" lon="2.38222">
        <ele>514.228</ele>
        <time>2021-05-23T09:54:42Z</time>
      </trkpt>
      <trkpt lat="43.48344" lon="2.38221">
        <ele>514.454</ele>
        <time>2021-05-23T09:54:44Z</time>
      </trkpt>
      <trkpt lat="43.48343" lon="2.38219">
        <ele>513.9</ele>
        <time>2021-05-23T09:54:46Z</time>
      </trkpt>
      <trkpt lat="43.48345" lon="2.38218">
        <ele>514.72</ele>
        <time>2021-05-23T09:54:48Z</time>
      </trkpt>
      <trkpt lat="43.48347" lon="2.38216">
        <ele>513.44</ele>
        <time>2021-05-23T09:54:50Z</time>
      </trkpt>
      <trkpt lat="43.48348" lon="2.38214">
        <ele>512.531</ele>
        <time>2021-05-23T09:54:52Z</time>
      </trkpt>
      <trkpt lat="43.48349" lon="2.38212">
        <ele>510.598</ele>
        <time>2021-05-23T09:54:54Z</time>
      </trkpt>
      <trkpt lat="43.4835" lon="2.38212">
        <ele>509.465</ele>
        <time>2021-05-23T09:54:56Z</time>
      </trkpt>
      <trkpt lat="43.48352" lon="2.38211">
        <ele>510.141</ele>
        <time>2021-05-23T09:54:58Z</time>
      </trkpt>
      <trkpt lat="43.48353" lon="2.38209">
        <ele>509.625</ele>
        <time>2021-05-23T09:55:00Z</time>
      </trkpt>
      <trkpt lat="43.48355" lon="2.38208">
        <ele>510.834</ele>
        <time>2021-05-23T09:55:02Z</time>
      </trkpt>
      <trkpt lat="43.48357" lon="2.38207">
        <ele>511.692</ele>
        <time>2021-05-23T09:55:04Z</time>
      </trkpt>
      <trkpt lat="43.48359" lon="2.38207">
        <ele>511.965</ele>
        <time>2021-05-23T09:55:06Z</time>
      </trkpt>
      <trkpt lat="43.4836" lon="2.38207">
        <ele>510.222</ele>
        <time>2021-05-23T09:55:08Z</time>
      </trkpt>
      <trkpt lat="43.48362" lon="2.38206">
        <ele>510.722</ele>
        <time>2021-05-23T09:55:10Z</time>
      </trkpt>
      <trkpt lat="43.48364" lon="2.38204">
        <ele>509.954</ele>
        <time>2021-05-23T09:55:12Z</time>
      </trkpt>
      <trkpt lat="43.48365" lon="2.38203">
        <ele>509.41</ele>
        <time>2021-05-23T09:55:14Z</time>
      </trkpt>
      <trkpt lat="43.48366" lon="2.382">
        <ele>507.938</ele>
        <time>2021-05-23T09:55:16Z</time>
      </trkpt>
      <trkpt lat="43.48367" lon="2.38196">
        <ele>505.781</ele>
        <time>2021-05-23T09:55:18Z</time>
      </trkpt>
      <trkpt lat="43.48369" lon="2.38194">
        <ele>504.439</ele>
        <time>2021-05-23T09:55:20Z</time>
      </trkpt>
      <trkpt lat="43.4837" lon="2.38191">
        <ele>504.146</ele>
        <time>2021-05-23T09:55:22Z</time>
      </trkpt>
      <trkpt lat="43.48371" lon="2.38189">
        <ele>502.538</ele>
        <time>2021-05-23T09:55:24Z</time>
      </trkpt>
      <trkpt lat="43.48372" lon="2.38188">
        <ele>500.172</ele>
        <time>2021-05-23T09:55:26Z</time>
      </trkpt>
      <trkpt lat="43.48374" lon="2.38187">
        <ele>499.355</ele>
        <time>2021-05-23T09:55:28Z</time>
      </trkpt>
      <trkpt lat="43.48375" lon="2.38186">
        <ele>498.647</ele>
        <time>2021-05-23T09:55:30Z</time>
      </trkpt>
      <trkpt lat="43.48378" lon="2.38185">
        <ele>498.309</ele>
        <time>2021-05-23T09:55:32Z</time>
      </trkpt>
      <trkpt lat="43.4838" lon="2.38183">
        <ele>497.07</ele>
        <time>2021-05-23T09:55:34Z</time>
      </trkpt>
      <trkpt lat="43.48383" lon="2.38181">
        <ele>495.82</ele>
        <time>2021-05-23T09:55:36Z</time>
      </trkpt>
      <trkpt lat="43.48384" lon="2.38179">
        <ele>494.863</ele>
        <time>2021-05-23T09:55:38Z</time>
      </trkpt>
      <trkpt lat="43.48387" lon="2.38176">
        <ele>494.329</ele>
        <time>2021-05-23T09:55:40Z</time>
      </trkpt>
      <trkpt lat="43.48389" lon="2.38174">
        <ele>493.577</ele>
        <time>2021-05-23T09:55:42Z</time>
      </trkpt>
      <trkpt lat="43.4839" lon="2.38171">
        <ele>492.162</ele>
        <time>2021-05-23T09:55:44Z</time>
      </trkpt>
      <trkpt lat="43.48392" lon="2.38168">
        <ele>492.685</ele>
        <time>2021-05-23T09:55:46Z</time>
      </trkpt>
      <trkpt lat="43.48394" lon="2.38166">
        <ele>491.693</ele>
        <time>2021-05-23T09:55:48Z</time>
      </trkpt>
      <trkpt lat="43.48396" lon="2.38164">
        <ele>491.602</ele>
        <time>2021-05-23T09:55:50Z</time>
      </trkpt>
      <trkpt lat="43.48398" lon="2.38163">
        <ele>491.506</ele>
        <time>2021-05-23T09:55:52Z</time>
      </trkpt>
      <trkpt lat="43.484" lon="2.38162">
        <ele>490.87</ele>
        <time>2021-05-23T09:55:54Z</time>
      </trkpt>
      <trkpt lat="43.48402" lon="2.38161">
        <ele>489.716</ele>
        <time>2021-05-23T09:55:56Z</time>
      </trkpt>
      <trkpt lat="43.48404" lon="2.38159">
        <ele>490.042</ele>
        <time>2021-05-23T09:55:58Z</time>
      </trkpt>
      <trkpt lat="43.48406" lon="2.38158">
        <ele>490.181</ele>
        <time>2021-05-23T09:56:00Z</time>
      </trkpt>
      <trkpt lat="43.48408" lon="2.38157">
        <ele>489.428</ele>
        <time>2021-05-23T09:56:02Z</time>
      </trkpt>
      <trkpt lat="43.4841" lon="2.38155">
        <ele>488.554</ele>
        <time>2021-05-23T09:56:04Z</time>
      </trkpt>
      <trkpt lat="43.48412" lon="2.38155">
        <ele>488.277</ele>
        <time>2021-05-23T09:56:06Z</time>
      </trkpt>
      <trkpt lat="43.48414" lon="2.38156">
        <ele>486.935</ele>
        <time>2021-05-23T09:56:08Z</time>
      </trkpt>
      <trkpt lat="43.48417" lon="2.38154">
        <ele>486.184</ele>
        <time>2021-05-23T09:56:10Z</time>
      </trkpt>
      <trkpt lat="43.48419" lon="2.38152">
        <ele>485.169</ele>
        <time>2021-05-23T09:56:12Z</time>
      </trkpt>
      <trkpt lat="43.48421" lon="2.38151">
        <ele>484.683</ele>
        <time>2021-05-23T09:56:14Z</time>
      </trkpt>
      <trkpt lat="43.48423" lon="2.38149">
        <ele>483.901</ele>
        <time>2021-05-23T09:56:16Z</time>
      </trkpt>
      <trkpt lat="43.48425" lon="2.38148">
        <ele>483.464</ele>
        <time>2021-05-23T09:56:18Z</time>
      </trkpt>
      <trkpt lat="43.48421" lon="2.38146">
        <ele>480.038</ele>
        <time>2021-05-23T09:56:20Z</time>
      </trkpt>
      <trkpt lat="43.48422" lon="2.38144">
        <ele>477.933</ele>
        <time>2021-05-23T09:56:22Z</time>
      </trkpt>
      <trkpt lat="43.48424" lon="2.38142">
        <ele>478.602</ele>
        <time>2021-05-23T09:56:24Z</time>
      </trkpt>
      <trkpt lat="43.48425" lon="2.38141">
        <ele>478.164</ele>
        <time>2021-05-23T09:56:26Z</time>
      </trkpt>
      <trkpt lat="43.48427" lon="2.38139">
        <ele>477.647</ele>
        <time>2021-05-23T09:56:28Z</time>
      </trkpt>
      <trkpt lat="43.48427" lon="2.38137">
        <ele>477.222</ele>
        <time>2021-05-23T09:56:30Z</time>
      </trkpt>
      <trkpt lat="43.4843" lon="2.38135">
        <ele>477.056</ele>
        <time>2021-05-23T09:56:32Z</time>
      </trkpt>
      <trkpt lat="43.48432" lon="2.38133">
        <ele>476.365</ele>
        <time>2021-05-23T09:56:34Z</time>
      </trkpt>
      <trkpt lat="43.48434" lon="2.38131">
        <ele>476.162</ele>
        <time>2021-05-23T09:56:36Z</time>
      </trkpt>
      <trkpt lat="43.48435" lon="2.38129">
        <ele>475.68</ele>
        <time>2021-05-23T09:56:38Z</time>
      </trkpt>
      <trkpt lat="43.48437" lon="2.38127">
        <ele>475.25</ele>
        <time>2021-05-23T09:56:40Z</time>
      </trkpt>
      <trkpt lat="43.48439" lon="2.38126">
        <ele>475.183</ele>
        <time>2021-05-23T09:56:42Z</time>
      </trkpt>
      <trkpt lat="43.48441" lon="2.38125">
        <ele>473.841</ele>
        <time>2021-05-23T09:56:44Z</time>
      </trkpt>
      <trkpt lat="43.48442" lon="2.38123">
        <ele>473.237</ele>
        <time>2021-05-23T09:56:46Z</time>
      </trkpt>
      <trkpt lat="43.48443" lon="2.38122">
        <ele>472.228</ele>
        <time>2021-05-23T09:56:48Z</time>
      </trkpt>
      <trkpt lat="43.48445" lon="2.3812">
        <ele>470.712</ele>
        <time>2021-05-23T09:56:50Z</time>
      </trkpt>
      <trkpt lat="43.48446" lon="2.38117">
        <ele>469.983</ele>
        <time>2021-05-23T09:56:52Z</time>
      </trkpt>
      <trkpt lat="43.48447" lon="2.38114">
        <ele>469.627</ele>
        <time>2021-05-23T09:56:54Z</time>
      </trkpt>
      <trkpt lat="43.48449" lon="2.38113">
        <ele>467.964</ele>
        <time>2021-05-23T09:56:56Z</time>
      </trkpt>
      <trkpt lat="43.4845" lon="2.38111">
        <ele>467.511</ele>
        <time>2021-05-23T09:56:58Z</time>
      </trkpt>
      <trkpt lat="43.48452" lon="2.38109">
        <ele>467.603</ele>
        <time>2021-05-23T09:57:00Z</time>
      </trkpt>
      <trkpt lat="43.48454" lon="2.38107">
        <ele>466.158</ele>
        <time>2021-05-23T09:57:02Z</time>
      </trkpt>
      <trkpt lat="43.48456" lon="2.38105">
        <ele>465.739</ele>
        <time>2021-05-23T09:57:04Z</time>
      </trkpt>
      <trkpt lat="43.48458" lon="2.38103">
        <ele>465.386</ele>
        <time>2021-05-23T09:57:06Z</time>
      </trkpt>
      <trkpt lat="43.4846" lon="2.38102">
        <ele>464.523</ele>
        <time>2021-05-23T09:57:08Z</time>
      </trkpt>
      <trkpt lat="43.48461" lon="2.381">
        <ele>464.029</ele>
        <time>2021-05-23T09:57:10Z</time>
      </trkpt>
      <trkpt lat="43.48463" lon="2.38098">
        <ele>463.116</ele>
        <time>2021-05-23T09:57:12Z</time>
      </trkpt>
      <trkpt lat="43.48464" lon="2.38097">
        <ele>462.472</ele>
        <time>2021-05-23T09:57:14Z</time>
      </trkpt>
      <trkpt lat="43.48465" lon="2.38095">
        <ele>461.828</ele>
        <time>2021-05-23T09:57:16Z</time>
      </trkpt>
      <trkpt lat="43.48467" lon="2.38094">
        <ele>461.085</ele>
        <time>2021-05-23T09:57:18Z</time>
      </trkpt>
      <trkpt lat="43.48469" lon="2.38093">
        <ele>460.204</ele>
        <time>2021-05-23T09:57:20Z</time>
      </trkpt>
      <trkpt lat="43.48471" lon="2.38091">
        <ele>459.179</ele>
        <time>2021-05-23T09:57:22Z</time>
      </trkpt>
      <trkpt lat="43.48473" lon="2.38089">
        <ele>459.151</ele>
        <time>2021-05-23T09:57:24Z</time>
      </trkpt>
      <trkpt lat="43.48474" lon="2.38087">
        <ele>459.042</ele>
        <time>2021-05-23T09:57:26Z</time>
      </trkpt>
      <trkpt lat="43.48475" lon="2.38085">
        <ele>458.431</ele>
        <time>2021-05-23T09:57:28Z</time>
      </trkpt>
      <trkpt lat="43.48477" lon="2.38085">
        <ele>458.239</ele>
        <time>2021-05-23T09:57:30Z</time>
      </trkpt>
      <trkpt lat="43.48478" lon="2.38083">
        <ele>457.355</ele>
        <time>2021-05-23T09:57:32Z</time>
      </trkpt>
      <trkpt lat="43.48479" lon="2.38081">
        <ele>457.276</ele>
        <time>2021-05-23T09:57:34Z</time>
      </trkpt>
      <trkpt lat="43.48481" lon="2.3808">
        <ele>457.373</ele>
        <time>2021-05-23T09:57:36Z</time>
      </trkpt>
      <trkpt lat="43.48483" lon="2.38079">
        <ele>457.631</ele>
        <time>2021-05-23T09:57:38Z</time>
      </trkpt>
      <trkpt lat="43.48484" lon="2.38078">
        <ele>457.638</ele>
        <time>2021-05-23T09:57:40Z</time>
      </trkpt>
      <trkpt lat="43.48485" lon="2.38076">
        <ele>457.383</ele>
        <time>2021-05-23T09:57:42Z</time>
      </trkpt>
      <trkpt lat="43.48486" lon="2.38075">
        <ele>456.988</ele>
        <time>2021-05-23T09:57:44Z</time>
      </trkpt>
      <trkpt lat="43.48487" lon="2.38074">
        <ele>456.635</ele>
        <time>2021-05-23T09:57:46Z</time>
      </trkpt>
      <trkpt lat="43.4849" lon="2.38072">
        <ele>457.091</ele>
        <time>2021-05-23T09:57:48Z</time>
      </trkpt>
      <trkpt lat="43.48491" lon="2.3807">
        <ele>457.541</ele>
        <time>2021-05-23T09:57:50Z</time>
      </trkpt>
      <trkpt lat="43.48492" lon="2.38067">
        <ele>456.159</ele>
        <time>2021-05-23T09:57:52Z</time>
      </trkpt>
      <trkpt lat="43.48494" lon="2.38066">
        <ele>455.739</ele>
        <time>2021-05-23T09:57:54Z</time>
      </trkpt>
      <trkpt lat="43.48495" lon="2.38064">
        <ele>455.429</ele>
        <time>2021-05-23T09:57:56Z</time>
      </trkpt>
      <trkpt lat="43.48497" lon="2.38063">
        <ele>455.586</ele>
        <time>2021-05-23T09:57:58Z</time>
      </trkpt>
      <trkpt lat="43.48497" lon="2.38061">
        <ele>454.596</ele>
        <time>2021-05-23T09:58:00Z</time>
      </trkpt>
      <trkpt lat="43.48498" lon="2.38058">
        <ele>454.265</ele>
        <time>2021-05-23T09:58:02Z</time>
      </trkpt>
      <trkpt lat="43.48498" lon="2.38056">
        <ele>454.238</ele>
        <time>2021-05-23T09:58:04Z</time>
      </trkpt>
      <trkpt lat="43.48499" lon="2.38054">
        <ele>454.356</ele>
        <time>2021-05-23T09:58:06Z</time>
      </trkpt>
      <trkpt lat="43.48499" lon="2.38052">
        <ele>453.279</ele>
        <time>2021-05-23T09:58:08Z</time>
      </trkpt>
      <trkpt lat="43.485" lon="2.3805">
        <ele>452.223</ele>
        <time>2021-05-23T09:58:10Z</time>
      </trkpt>
      <trkpt lat="43.48501" lon="2.38048">
        <ele>451.985</ele>
        <time>2021-05-23T09:58:12Z</time>
      </trkpt>
      <trkpt lat="43.48503" lon="2.38046">
        <ele>451.264</ele>
        <time>2021-05-23T09:58:14Z</time>
      </trkpt>
      <trkpt lat="43.48503" lon="2.38043">
        <ele>450.427</ele>
        <time>2021-05-23T09:58:16Z</time>
      </trkpt>
      <trkpt lat="43.48505" lon="2.38041">
        <ele>449.802</ele>
        <time>2021-05-23T09:58:18Z</time>
      </trkpt>
      <trkpt lat="43.48506" lon="2.38039">
        <ele>448.801</ele>
        <time>2021-05-23T09:58:20Z</time>
      </trkpt>
      <trkpt lat="43.48507" lon="2.38037">
        <ele>448.031</ele>
        <time>2021-05-23T09:58:22Z</time>
      </trkpt>
      <trkpt lat="43.48509" lon="2.38035">
        <ele>447.375</ele>
        <time>2021-05-23T09:58:24Z</time>
      </trkpt>
      <trkpt lat="43.48509" lon="2.38032">
        <ele>446.288</ele>
        <time>2021-05-23T09:58:26Z</time>
      </trkpt>
      <trkpt lat="43.48511" lon="2.3803">
        <ele>445.353</ele>
        <time>2021-05-23T09:58:28Z</time>
      </trkpt>
      <trkpt lat="43.48512" lon="2.38028">
        <ele>445.435</ele>
        <time>2021-05-23T09:58:30Z</time>
      </trkpt>
      <trkpt lat="43.48513" lon="2.38026">
        <ele>445.399</ele>
        <time>2021-05-23T09:58:32Z</time>
      </trkpt>
      <trkpt lat="43.48515" lon="2.38024">
        <ele>443.907</ele>
        <time>2021-05-23T09:58:34Z</time>
      </trkpt>
      <trkpt lat="43.48516" lon="2.38022">
        <ele>443.731</ele>
        <time>2021-05-23T09:58:36Z</time>
      </trkpt>
      <trkpt lat="43.48517" lon="2.38019">
        <ele>443.364</ele>
        <time>2021-05-23T09:58:38Z</time>
      </trkpt>
      <trkpt lat="43.48517" lon="2.38017">
        <ele>442.693</ele>
        <time>2021-05-23T09:58:40Z</time>
      </trkpt>
      <trkpt lat="43.48517" lon="2.38014">
        <ele>442.326</ele>
        <time>2021-05-23T09:58:42Z</time>
      </trkpt>
      <trkpt lat="43.48517" lon="2.38011">
        <ele>441.038</ele>
        <time>2021-05-23T09:58:44Z</time>
      </trkpt>
      <trkpt lat="43.48516" lon="2.38009">
        <ele>440.641</ele>
        <time>2021-05-23T09:58:46Z</time>
      </trkpt>
      <trkpt lat="43.48516" lon="2.38006">
        <ele>439.331</ele>
        <time>2021-05-23T09:58:48Z</time>
      </trkpt>
      <trkpt lat="43.48515" lon="2.38003">
        <ele>437.073</ele>
        <time>2021-05-23T09:58:50Z</time>
      </trkpt>
      <trkpt lat="43.48515" lon="2.38">
        <ele>436.654</ele>
        <time>2021-05-23T09:58:52Z</time>
      </trkpt>
      <trkpt lat="43.48515" lon="2.37996">
        <ele>435.991</ele>
        <time>2021-05-23T09:58:54Z</time>
      </trkpt>
      <trkpt lat="43.48515" lon="2.37991">
        <ele>435.156</ele>
        <time>2021-05-23T09:58:56Z</time>
      </trkpt>
      <trkpt lat="43.48515" lon="2.37988">
        <ele>435.218</ele>
        <time>2021-05-23T09:58:58Z</time>
      </trkpt>
      <trkpt lat="43.48515" lon="2.37985">
        <ele>434.074</ele>
        <time>2021-05-23T09:59:00Z</time>
      </trkpt>
      <trkpt lat="43.48516" lon="2.37984">
        <ele>432.397</ele>
        <time>2021-05-23T09:59:02Z</time>
      </trkpt>
      <trkpt lat="43.48516" lon="2.37982">
        <ele>431.745</ele>
        <time>2021-05-23T09:59:04Z</time>
      </trkpt>
      <trkpt lat="43.48515" lon="2.37978">
        <ele>430.347</ele>
        <time>2021-05-23T09:59:06Z</time>
      </trkpt>
      <trkpt lat="43.48515" lon="2.37974">
        <ele>429.687</ele>
        <time>2021-05-23T09:59:08Z</time>
      </trkpt>
      <trkpt lat="43.48515" lon="2.3797">
        <ele>428.831</ele>
        <time>2021-05-23T09:59:10Z</time>
      </trkpt>
      <trkpt lat="43.48516" lon="2.37966">
        <ele>428.363</ele>
        <time>2021-05-23T09:59:12Z</time>
      </trkpt>
      <trkpt lat="43.48516" lon="2.37962">
        <ele>426.961</ele>
        <time>2021-05-23T09:59:14Z</time>
      </trkpt>
      <trkpt lat="43.48515" lon="2.37958">
        <ele>426.545</ele>
        <time>2021-05-23T09:59:16Z</time>
      </trkpt>
      <trkpt lat="43.48513" lon="2.37955">
        <ele>426.863</ele>
        <time>2021-05-23T09:59:18Z</time>
      </trkpt>
      <trkpt lat="43.48511" lon="2.37954">
        <ele>423.765</ele>
        <time>2021-05-23T09:59:20Z</time>
      </trkpt>
      <trkpt lat="43.48509" lon="2.37954">
        <ele>422.104</ele>
        <time>2021-05-23T09:59:22Z</time>
      </trkpt>
      <trkpt lat="43.48509" lon="2.37953">
        <ele>422.122</ele>
        <time>2021-05-23T09:59:24Z</time>
      </trkpt>
      <trkpt lat="43.48509" lon="2.37953">
        <ele>422.137</ele>
        <time>2021-05-23T09:59:26Z</time>
      </trkpt>
      <trkpt lat="43.48509" lon="2.37953">
        <ele>422.149</ele>
        <time>2021-05-23T09:59:28Z</time>
      </trkpt>
      <trkpt lat="43.48509" lon="2.37953">
        <ele>421.988</ele>
        <time>2021-05-23T09:59:30Z</time>
      </trkpt>
      <trkpt lat="43.48509" lon="2.37953">
        <ele>422.004</ele>
        <time>2021-05-23T09:59:32Z</time>
      </trkpt>
      <trkpt lat="43.48509" lon="2.37953">
        <ele>422.049</ele>
        <time>2021-05-23T09:59:34Z</time>
      </trkpt>
      <trkpt lat="43.48509" lon="2.37953">
        <ele>422.075</ele>
        <time>2021-05-23T09:59:36Z</time>
      </trkpt>
      <trkpt lat="43.48509" lon="2.37953">
        <ele>422.104</ele>
        <time>2021-05-23T09:59:38Z</time>
      </trkpt>
      <trkpt lat="43.48509" lon="2.37953">
        <ele>422.121</ele>
        <time>2021-05-23T09:59:40Z</time>
      </trkpt>
      <trkpt lat="43.48509" lon="2.37953">
        <ele>422.123</ele>
        <time>2021-05-23T09:59:42Z</time>
      </trkpt>
      <trkpt lat="43.48509" lon="2.37953">
        <ele>422.123</ele>
        <time>2021-05-23T09:59:44Z</time>
      </trkpt>
      <trkpt lat="43.48509" lon="2.37953">
        <ele>422.126</ele>
        <time>2021-05-23T09:59:46Z</time>
      </trkpt>
      <trkpt lat="43.48509" lon="2.37953">
        <ele>422.139</ele>
        <time>2021-05-23T09:59:48Z</time>
      </trkpt>
      <trkpt lat="43.48509" lon="2.37953">
        <ele>422.133</ele>
        <time>2021-05-23T09:59:50Z</time>
      </trkpt>
      <trkpt lat="43.48509" lon="2.37953">
        <ele>422.136</ele>
        <time>2021-05-23T09:59:52Z</time>
      </trkpt>
      <trkpt lat="43.48509" lon="2.37953">
        <ele>422.147</ele>
        <time>2021-05-23T09:59:54Z</time>
      </trkpt>
      <trkpt lat="43.48509" lon="2.37953">
        <ele>422.159</ele>
        <time>2021-05-23T09:59:56Z</time>
      </trkpt>
      <trkpt lat="43.48509" lon="2.37953">
        <ele>422.161</ele>
        <time>2021-05-23T09:59:58Z</time>
      </trkpt>
      <trkpt lat="43.48509" lon="2.37953">
        <ele>422.184</ele>
        <time>2021-05-23T10:00:00Z</time>
      </trkpt>
      <trkpt lat="43.48509" lon="2.37953">
        <ele>422.257</ele>
        <time>2021-05-23T10:00:02Z</time>
      </trkpt>
      <trkpt lat="43.48509" lon="2.37952">
        <ele>423.184</ele>
        <time>2021-05-23T10:00:04Z</time>
      </trkpt>
      <trkpt lat="43.4851" lon="2.37952">
        <ele>423.9</ele>
        <time>2021-05-23T10:00:06Z</time>
      </trkpt>
      <trkpt lat="43.4851" lon="2.37952">
        <ele>423.911</ele>
        <time>2021-05-23T10:00:08Z</time>
      </trkpt>
      <trkpt lat="43.4851" lon="2.37952">
        <ele>423.924</ele>
        <time>2021-05-23T10:00:10Z</time>
      </trkpt>
      <trkpt lat="43.4851" lon="2.37952">
        <ele>423.943</ele>
        <time>2021-05-23T10:00:12Z</time>
      </trkpt>
      <trkpt lat="43.4851" lon="2.37952">
        <ele>423.959</ele>
        <time>2021-05-23T10:00:14Z</time>
      </trkpt>
      <trkpt lat="43.4851" lon="2.37952">
        <ele>423.968</ele>
        <time>2021-05-23T10:00:16Z</time>
      </trkpt>
      <trkpt lat="43.4851" lon="2.37952">
        <ele>423.98</ele>
        <time>2021-05-23T10:00:18Z</time>
      </trkpt>
      <trkpt lat="43.4851" lon="2.37952">
        <ele>423.989</ele>
        <time>2021-05-23T10:00:20Z</time>
      </trkpt>
      <trkpt lat="43.4851" lon="2.37952">
        <ele>424.004</ele>
        <time>2021-05-23T10:00:22Z</time>
      </trkpt>
      <trkpt lat="43.4851" lon="2.37952">
        <ele>424.007</ele>
        <time>2021-05-23T10:00:24Z</time>
      </trkpt>
      <trkpt lat="43.4851" lon="2.37952">
        <ele>424.022</ele>
        <time>2021-05-23T10:00:26Z</time>
      </trkpt>
      <trkpt lat="43.4851" lon="2.37952">
        <ele>424.02</ele>
        <time>2021-05-23T10:00:28Z</time>
      </trkpt>
      <trkpt lat="43.4851" lon="2.37952">
        <ele>424.043</ele>
        <time>2021-05-23T10:00:30Z</time>
      </trkpt>
      <trkpt lat="43.4851" lon="2.37952">
        <ele>424.059</ele>
        <time>2021-05-23T10:00:32Z</time>
      </trkpt>
      <trkpt lat="43.4851" lon="2.37952">
        <ele>424.061</ele>
        <time>2021-05-23T10:00:34Z</time>
      </trkpt>
      <trkpt lat="43.4851" lon="2.37952">
        <ele>424.067</ele>
        <time>2021-05-23T10:00:36Z</time>
      </trkpt>
      <trkpt lat="43.4851" lon="2.37952">
        <ele>424.073</ele>
        <time>2021-05-23T10:00:38Z</time>
      </trkpt>
      <trkpt lat="43.4851" lon="2.37952">
        <ele>424.086</ele>
        <time>2021-05-23T10:00:40Z</time>
      </trkpt>
      <trkpt lat="43.4851" lon="2.37952">
        <ele>424.092</ele>
        <time>2021-05-23T10:00:42Z</time>
      </trkpt>
      <trkpt lat="43.4851" lon="2.37952">
        <ele>424.103</ele>
        <time>2021-05-23T10:00:44Z</time>
      </trkpt>
      <trkpt lat="43.4851" lon="2.37952">
        <ele>424.108</ele>
        <time>2021-05-23T10:00:46Z</time>
      </trkpt>
      <trkpt lat="43.4851" lon="2.37952">
        <ele>424.115</ele>
        <time>2021-05-23T10:00:48Z</time>
      </trkpt>
      <trkpt lat="43.4851" lon="2.37952">
        <ele>424.122</ele>
        <time>2021-05-23T10:00:50Z</time>
      </trkpt>
      <trkpt lat="43.4851" lon="2.37952">
        <ele>424.127</ele>
        <time>2021-05-23T10:00:52Z</time>
      </trkpt>
      <trkpt lat="43.4851" lon="2.37952">
        <ele>424.15</ele>
        <time>2021-05-23T10:00:54Z</time>
      </trkpt>
      <trkpt lat="43.4851" lon="2.37952">
        <ele>424.178</ele>
        <time>2021-05-23T10:00:56Z</time>
      </trkpt>
      <trkpt lat="43.4851" lon="2.37952">
        <ele>424.194</ele>
        <time>2021-05-23T10:00:58Z</time>
      </trkpt>
      <trkpt lat="43.4851" lon="2.37952">
        <ele>424.207</ele>
        <time>2021-05-23T10:01:00Z</time>
      </trkpt>
      <trkpt lat="43.4851" lon="2.37952">
        <ele>424.221</ele>
        <time>2021-05-23T10:01:02Z</time>
      </trkpt>
      <trkpt lat="43.4851" lon="2.37952">
        <ele>424.236</ele>
        <time>2021-05-23T10:01:04Z</time>
      </trkpt>
      <trkpt lat="43.4851" lon="2.37952">
        <ele>424.256</ele>
        <time>2021-05-23T10:01:06Z</time>
      </trkpt>
      <trkpt lat="43.4851" lon="2.37952">
        <ele>424.272</ele>
        <time>2021-05-23T10:01:08Z</time>
      </trkpt>
      <trkpt lat="43.4851" lon="2.37952">
        <ele>424.297</ele>
        <time>2021-05-23T10:01:10Z</time>
      </trkpt>
      <trkpt lat="43.4851" lon="2.37952">
        <ele>424.317</ele>
        <time>2021-05-23T10:01:12Z</time>
      </trkpt>
      <trkpt lat="43.4851" lon="2.37952">
        <ele>424.329</ele>
        <time>2021-05-23T10:01:14Z</time>
      </trkpt>
      <trkpt lat="43.4851" lon="2.37952">
        <ele>424.345</ele>
        <time>2021-05-23T10:01:16Z</time>
      </trkpt>
      <trkpt lat="43.4851" lon="2.37952">
        <ele>424.362</ele>
        <time>2021-05-23T10:01:18Z</time>
      </trkpt>
      <trkpt lat="43.4851" lon="2.37952">
        <ele>424.377</ele>
        <time>2021-05-23T10:01:20Z</time>
      </trkpt>
      <trkpt lat="43.4851" lon="2.37952">
        <ele>424.396</ele>
        <time>2021-05-23T10:01:22Z</time>
      </trkpt>
      <trkpt lat="43.4851" lon="2.37952">
        <ele>424.413</ele>
        <time>2021-05-23T10:01:24Z</time>
      </trkpt>
      <trkpt lat="43.4851" lon="2.37952">
        <ele>424.422</ele>
        <time>2021-05-23T10:01:26Z</time>
      </trkpt>
      <trkpt lat="43.4851" lon="2.37952">
        <ele>424.439</ele>
        <time>2021-05-23T10:01:28Z</time>
      </trkpt>
      <trkpt lat="43.4851" lon="2.37952">
        <ele>424.456</ele>
        <time>2021-05-23T10:01:30Z</time>
      </trkpt>
      <trkpt lat="43.4851" lon="2.37952">
        <ele>424.476</ele>
        <time>2021-05-23T10:01:32Z</time>
      </trkpt>
      <trkpt lat="43.4851" lon="2.37952">
        <ele>424.485</ele>
        <time>2021-05-23T10:01:34Z</time>
      </trkpt>
      <trkpt lat="43.4851" lon="2.37952">
        <ele>424.504</ele>
        <time>2021-05-23T10:01:36Z</time>
      </trkpt>
      <trkpt lat="43.4851" lon="2.37952">
        <ele>424.534</ele>
        <time>2021-05-23T10:01:38Z</time>
      </trkpt>
      <trkpt lat="43.4851" lon="2.37952">
        <ele>424.561</ele>
        <time>2021-05-23T10:01:40Z</time>
      </trkpt>
      <trkpt lat="43.4851" lon="2.37952">
        <ele>424.608</ele>
        <time>2021-05-23T10:01:42Z</time>
      </trkpt>
      <trkpt lat="43.4851" lon="2.37952">
        <ele>424.644</ele>
        <time>2021-05-23T10:01:44Z</time>
      </trkpt>
      <trkpt lat="43.4851" lon="2.37952">
        <ele>424.686</ele>
        <time>2021-05-23T10:01:46Z</time>
      </trkpt>
      <trkpt lat="43.4851" lon="2.37952">
        <ele>424.726</ele>
        <time>2021-05-23T10:01:48Z</time>
      </trkpt>
      <trkpt lat="43.4851" lon="2.37952">
        <ele>424.762</ele>
        <time>2021-05-23T10:01:50Z</time>
      </trkpt>
      <trkpt lat="43.4851" lon="2.37952">
        <ele>424.771</ele>
        <time>2021-05-23T10:01:52Z</time>
      </trkpt>
      <trkpt lat="43.4851" lon="2.37952">
        <ele>424.793</ele>
        <time>2021-05-23T10:01:54Z</time>
      </trkpt>
      <trkpt lat="43.4851" lon="2.37952">
        <ele>424.802</ele>
        <time>2021-05-23T10:01:56Z</time>
      </trkpt>
      <trkpt lat="43.4851" lon="2.37952">
        <ele>424.814</ele>
        <time>2021-05-23T10:01:58Z</time>
      </trkpt>
      <trkpt lat="43.4851" lon="2.37952">
        <ele>424.834</ele>
        <time>2021-05-23T10:02:00Z</time>
      </trkpt>
      <trkpt lat="43.4851" lon="2.37952">
        <ele>424.86</ele>
        <time>2021-05-23T10:02:02Z</time>
      </trkpt>
      <trkpt lat="43.4851" lon="2.37952">
        <ele>424.885</ele>
        <time>2021-05-23T10:02:04Z</time>
      </trkpt>
      <trkpt lat="43.4851" lon="2.37952">
        <ele>424.918</ele>
        <time>2021-05-23T10:02:06Z</time>
      </trkpt>
      <trkpt lat="43.4851" lon="2.37952">
        <ele>424.945</ele>
        <time>2021-05-23T10:02:08Z</time>
      </trkpt>
      <trkpt lat="43.4851" lon="2.37952">
        <ele>424.962</ele>
        <time>2021-05-23T10:02:10Z</time>
      </trkpt>
      <trkpt lat="43.4851" lon="2.37952">
        <ele>424.972</ele>
        <time>2021-05-23T10:02:12Z</time>
      </trkpt>
      <trkpt lat="43.4851" lon="2.37952">
        <ele>424.98</ele>
        <time>2021-05-23T10:02:14Z</time>
      </trkpt>
      <trkpt lat="43.4851" lon="2.37952">
        <ele>424.999</ele>
        <time>2021-05-23T10:02:16Z</time>
      </trkpt>
      <trkpt lat="43.4851" lon="2.37952">
        <ele>425.037</ele>
        <time>2021-05-23T10:02:18Z</time>
      </trkpt>
      <trkpt lat="43.4851" lon="2.37952">
        <ele>425.065</ele>
        <time>2021-05-23T10:02:20Z</time>
      </trkpt>
      <trkpt lat="43.4851" lon="2.37952">
        <ele>425.093</ele>
        <time>2021-05-23T10:02:22Z</time>
      </trkpt>
      <trkpt lat="43.4851" lon="2.37952">
        <ele>425.101</ele>
        <time>2021-05-23T10:02:24Z</time>
      </trkpt>
      <trkpt lat="43.48511" lon="2.37952">
        <ele>425.107</ele>
        <time>2021-05-23T10:02:26Z</time>
      </trkpt>
      <trkpt lat="43.48511" lon="2.37952">
        <ele>425.107</ele>
        <time>2021-05-23T10:02:28Z</time>
      </trkpt>
      <trkpt lat="43.48511" lon="2.37952">
        <ele>425.117</ele>
        <time>2021-05-23T10:02:30Z</time>
      </trkpt>
      <trkpt lat="43.48511" lon="2.37952">
        <ele>425.129</ele>
        <time>2021-05-23T10:02:32Z</time>
      </trkpt>
      <trkpt lat="43.48511" lon="2.37952">
        <ele>425.145</ele>
        <time>2021-05-23T10:02:34Z</time>
      </trkpt>
      <trkpt lat="43.48511" lon="2.37952">
        <ele>425.153</ele>
        <time>2021-05-23T10:02:36Z</time>
      </trkpt>
      <trkpt lat="43.48511" lon="2.37952">
        <ele>425.177</ele>
        <time>2021-05-23T10:02:38Z</time>
      </trkpt>
      <trkpt lat="43.48511" lon="2.37952">
        <ele>425.187</ele>
        <time>2021-05-23T10:02:40Z</time>
      </trkpt>
      <trkpt lat="43.48511" lon="2.37952">
        <ele>425.931</ele>
        <time>2021-05-23T10:02:42Z</time>
      </trkpt>
      <trkpt lat="43.48511" lon="2.37951">
        <ele>426.581</ele>
        <time>2021-05-23T10:02:44Z</time>
      </trkpt>
      <trkpt lat="43.48512" lon="2.37951">
        <ele>426.068</ele>
        <time>2021-05-23T10:02:46Z</time>
      </trkpt>
      <trkpt lat="43.48512" lon="2.37951">
        <ele>426.158</ele>
        <time>2021-05-23T10:02:48Z</time>
      </trkpt>
      <trkpt lat="43.48512" lon="2.37951">
        <ele>426.9</ele>
        <time>2021-05-23T10:02:50Z</time>
      </trkpt>
      <trkpt lat="43.48512" lon="2.37951">
        <ele>426.971</ele>
        <time>2021-05-23T10:02:52Z</time>
      </trkpt>
      <trkpt lat="43.48512" lon="2.37951">
        <ele>426.976</ele>
        <time>2021-05-23T10:02:54Z</time>
      </trkpt>
      <trkpt lat="43.48512" lon="2.37951">
        <ele>426.974</ele>
        <time>2021-05-23T10:02:56Z</time>
      </trkpt>
      <trkpt lat="43.48512" lon="2.37951">
        <ele>426.973</ele>
        <time>2021-05-23T10:02:58Z</time>
      </trkpt>
      <trkpt lat="43.48512" lon="2.3795">
        <ele>426.925</ele>
        <time>2021-05-23T10:03:00Z</time>
      </trkpt>
      <trkpt lat="43.48512" lon="2.37949">
        <ele>427.231</ele>
        <time>2021-05-23T10:03:02Z</time>
      </trkpt>
      <trkpt lat="43.4851" lon="2.37948">
        <ele>426.932</ele>
        <time>2021-05-23T10:03:04Z</time>
      </trkpt>
      <trkpt lat="43.48509" lon="2.37946">
        <ele>426.448</ele>
        <time>2021-05-23T10:03:06Z</time>
      </trkpt>
      <trkpt lat="43.48508" lon="2.37945">
        <ele>426.779</ele>
        <time>2021-05-23T10:03:08Z</time>
      </trkpt>
      <trkpt lat="43.48507" lon="2.37945">
        <ele>427.865</ele>
        <time>2021-05-23T10:03:10Z</time>
      </trkpt>
      <trkpt lat="43.48506" lon="2.37944">
        <ele>428.363</ele>
        <time>2021-05-23T10:03:12Z</time>
      </trkpt>
      <trkpt lat="43.48505" lon="2.37945">
        <ele>427.004</ele>
        <time>2021-05-23T10:03:14Z</time>
      </trkpt>
      <trkpt lat="43.48504" lon="2.37946">
        <ele>426.556</ele>
        <time>2021-05-23T10:03:16Z</time>
      </trkpt>
      <trkpt lat="43.48504" lon="2.37947">
        <ele>426.486</ele>
        <time>2021-05-23T10:03:18Z</time>
      </trkpt>
      <trkpt lat="43.48503" lon="2.37947">
        <ele>426</ele>
        <time>2021-05-23T10:03:20Z</time>
      </trkpt>
      <trkpt lat="43.48502" lon="2.37948">
        <ele>426.22</ele>
        <time>2021-05-23T10:03:22Z</time>
      </trkpt>
      <trkpt lat="43.48502" lon="2.37948">
        <ele>425.675</ele>
        <time>2021-05-23T10:03:24Z</time>
      </trkpt>
      <trkpt lat="43.48501" lon="2.37948">
        <ele>425.221</ele>
        <time>2021-05-23T10:03:26Z</time>
      </trkpt>
      <trkpt lat="43.48499" lon="2.37949">
        <ele>421.622</ele>
        <time>2021-05-23T10:03:28Z</time>
      </trkpt>
      <trkpt lat="43.48498" lon="2.37949">
        <ele>421.223</ele>
        <time>2021-05-23T10:03:30Z</time>
      </trkpt>
      <trkpt lat="43.48496" lon="2.37949">
        <ele>421.246</ele>
        <time>2021-05-23T10:03:32Z</time>
      </trkpt>
      <trkpt lat="43.48494" lon="2.3795">
        <ele>420.878</ele>
        <time>2021-05-23T10:03:34Z</time>
      </trkpt>
      <trkpt lat="43.48492" lon="2.37951">
        <ele>421.685</ele>
        <time>2021-05-23T10:03:36Z</time>
      </trkpt>
      <trkpt lat="43.48489" lon="2.37951">
        <ele>422.363</ele>
        <time>2021-05-23T10:03:38Z</time>
      </trkpt>
      <trkpt lat="43.48488" lon="2.37951">
        <ele>422.583</ele>
        <time>2021-05-23T10:03:40Z</time>
      </trkpt>
      <trkpt lat="43.48486" lon="2.37952">
        <ele>422.7</ele>
        <time>2021-05-23T10:03:42Z</time>
      </trkpt>
      <trkpt lat="43.48484" lon="2.37952">
        <ele>423.063</ele>
        <time>2021-05-23T10:03:44Z</time>
      </trkpt>
      <trkpt lat="43.48482" lon="2.37952">
        <ele>423.342</ele>
        <time>2021-05-23T10:03:46Z</time>
      </trkpt>
      <trkpt lat="43.48479" lon="2.37952">
        <ele>421.987</ele>
        <time>2021-05-23T10:03:48Z</time>
      </trkpt>
      <trkpt lat="43.48477" lon="2.37952">
        <ele>421.403</ele>
        <time>2021-05-23T10:03:50Z</time>
      </trkpt>
      <trkpt lat="43.48475" lon="2.37952">
        <ele>421.616</ele>
        <time>2021-05-23T10:03:52Z</time>
      </trkpt>
      <trkpt lat="43.48473" lon="2.37952">
        <ele>421.577</ele>
        <time>2021-05-23T10:03:54Z</time>
      </trkpt>
      <trkpt lat="43.48471" lon="2.37952">
        <ele>421.769</ele>
        <time>2021-05-23T10:03:56Z</time>
      </trkpt>
      <trkpt lat="43.48469" lon="2.37953">
        <ele>420.665</ele>
        <time>2021-05-23T10:03:58Z</time>
      </trkpt>
      <trkpt lat="43.48466" lon="2.37953">
        <ele>421.428</ele>
        <time>2021-05-23T10:04:00Z</time>
      </trkpt>
      <trkpt lat="43.48464" lon="2.37954">
        <ele>420.714</ele>
        <time>2021-05-23T10:04:02Z</time>
      </trkpt>
      <trkpt lat="43.48462" lon="2.37954">
        <ele>420.36</ele>
        <time>2021-05-23T10:04:04Z</time>
      </trkpt>
      <trkpt lat="43.4846" lon="2.37956">
        <ele>420.218</ele>
        <time>2021-05-23T10:04:06Z</time>
      </trkpt>
      <trkpt lat="43.48458" lon="2.37957">
        <ele>418.507</ele>
        <time>2021-05-23T10:04:08Z</time>
      </trkpt>
      <trkpt lat="43.48456" lon="2.37958">
        <ele>418.763</ele>
        <time>2021-05-23T10:04:10Z</time>
      </trkpt>
      <trkpt lat="43.48453" lon="2.37958">
        <ele>419.252</ele>
        <time>2021-05-23T10:04:12Z</time>
      </trkpt>
      <trkpt lat="43.48451" lon="2.37959">
        <ele>419.307</ele>
        <time>2021-05-23T10:04:14Z</time>
      </trkpt>
      <trkpt lat="43.48449" lon="2.37961">
        <ele>419.605</ele>
        <time>2021-05-23T10:04:16Z</time>
      </trkpt>
      <trkpt lat="43.48447" lon="2.37962">
        <ele>419.722</ele>
        <time>2021-05-23T10:04:18Z</time>
      </trkpt>
      <trkpt lat="43.48446" lon="2.37965">
        <ele>419.469</ele>
        <time>2021-05-23T10:04:20Z</time>
      </trkpt>
      <trkpt lat="43.48443" lon="2.37966">
        <ele>420.296</ele>
        <time>2021-05-23T10:04:22Z</time>
      </trkpt>
      <trkpt lat="43.48441" lon="2.37967">
        <ele>420.979</ele>
        <time>2021-05-23T10:04:24Z</time>
      </trkpt>
      <trkpt lat="43.4844" lon="2.37969">
        <ele>420.863</ele>
        <time>2021-05-23T10:04:26Z</time>
      </trkpt>
      <trkpt lat="43.48438" lon="2.3797">
        <ele>420.332</ele>
        <time>2021-05-23T10:04:28Z</time>
      </trkpt>
      <trkpt lat="43.48436" lon="2.37972">
        <ele>419.195</ele>
        <time>2021-05-23T10:04:30Z</time>
      </trkpt>
      <trkpt lat="43.48436" lon="2.37973">
        <ele>415.017</ele>
        <time>2021-05-23T10:04:32Z</time>
      </trkpt>
      <trkpt lat="43.48435" lon="2.37974">
        <ele>415.699</ele>
        <time>2021-05-23T10:04:34Z</time>
      </trkpt>
      <trkpt lat="43.48436" lon="2.37975">
        <ele>412.367</ele>
        <time>2021-05-23T10:04:36Z</time>
      </trkpt>
      <trkpt lat="43.48436" lon="2.37975">
        <ele>412.356</ele>
        <time>2021-05-23T10:04:38Z</time>
      </trkpt>
      <trkpt lat="43.48435" lon="2.37976">
        <ele>411.865</ele>
        <time>2021-05-23T10:04:40Z</time>
      </trkpt>
      <trkpt lat="43.48433" lon="2.37978">
        <ele>412.571</ele>
        <time>2021-05-23T10:04:42Z</time>
      </trkpt>
      <trkpt lat="43.48432" lon="2.3798">
        <ele>411.77</ele>
        <time>2021-05-23T10:04:44Z</time>
      </trkpt>
      <trkpt lat="43.48429" lon="2.37982">
        <ele>414.441</ele>
        <time>2021-05-23T10:04:46Z</time>
      </trkpt>
      <trkpt lat="43.48427" lon="2.37983">
        <ele>416.272</ele>
        <time>2021-05-23T10:04:48Z</time>
      </trkpt>
      <trkpt lat="43.48425" lon="2.37985">
        <ele>418.581</ele>
        <time>2021-05-23T10:04:50Z</time>
      </trkpt>
      <trkpt lat="43.48422" lon="2.37986">
        <ele>418.275</ele>
        <time>2021-05-23T10:04:52Z</time>
      </trkpt>
      <trkpt lat="43.4842" lon="2.37988">
        <ele>418.207</ele>
        <time>2021-05-23T10:04:54Z</time>
      </trkpt>
      <trkpt lat="43.48417" lon="2.3799">
        <ele>417.056</ele>
        <time>2021-05-23T10:04:56Z</time>
      </trkpt>
      <trkpt lat="43.48415" lon="2.37992">
        <ele>415.668</ele>
        <time>2021-05-23T10:04:58Z</time>
      </trkpt>
      <trkpt lat="43.48414" lon="2.37993">
        <ele>414.885</ele>
        <time>2021-05-23T10:05:00Z</time>
      </trkpt>
      <trkpt lat="43.48411" lon="2.37994">
        <ele>415.039</ele>
        <time>2021-05-23T10:05:02Z</time>
      </trkpt>
      <trkpt lat="43.48409" lon="2.37995">
        <ele>413.625</ele>
        <time>2021-05-23T10:05:04Z</time>
      </trkpt>
      <trkpt lat="43.48407" lon="2.37997">
        <ele>411.128</ele>
        <time>2021-05-23T10:05:06Z</time>
      </trkpt>
      <trkpt lat="43.48406" lon="2.37999">
        <ele>409.387</ele>
        <time>2021-05-23T10:05:08Z</time>
      </trkpt>
      <trkpt lat="43.48404" lon="2.38">
        <ele>408.8</ele>
        <time>2021-05-23T10:05:10Z</time>
      </trkpt>
      <trkpt lat="43.48402" lon="2.38001">
        <ele>408.217</ele>
        <time>2021-05-23T10:05:12Z</time>
      </trkpt>
      <trkpt lat="43.484" lon="2.38003">
        <ele>407.655</ele>
        <time>2021-05-23T10:05:14Z</time>
      </trkpt>
      <trkpt lat="43.48398" lon="2.38004">
        <ele>408.441</ele>
        <time>2021-05-23T10:05:16Z</time>
      </trkpt>
      <trkpt lat="43.48396" lon="2.38006">
        <ele>409.026</ele>
        <time>2021-05-23T10:05:18Z</time>
      </trkpt>
      <trkpt lat="43.48394" lon="2.38008">
        <ele>407.699</ele>
        <time>2021-05-23T10:05:20Z</time>
      </trkpt>
      <trkpt lat="43.48392" lon="2.38009">
        <ele>406.458</ele>
        <time>2021-05-23T10:05:22Z</time>
      </trkpt>
      <trkpt lat="43.4839" lon="2.3801">
        <ele>406.954</ele>
        <time>2021-05-23T10:05:24Z</time>
      </trkpt>
      <trkpt lat="43.48389" lon="2.38012">
        <ele>405.675</ele>
        <time>2021-05-23T10:05:26Z</time>
      </trkpt>
      <trkpt lat="43.48387" lon="2.38013">
        <ele>404.382</ele>
        <time>2021-05-23T10:05:28Z</time>
      </trkpt>
      <trkpt lat="43.48385" lon="2.38015">
        <ele>404.348</ele>
        <time>2021-05-23T10:05:30Z</time>
      </trkpt>
      <trkpt lat="43.48383" lon="2.38016">
        <ele>404.575</ele>
        <time>2021-05-23T10:05:32Z</time>
      </trkpt>
      <trkpt lat="43.48382" lon="2.38018">
        <ele>403.885</ele>
        <time>2021-05-23T10:05:34Z</time>
      </trkpt>
      <trkpt lat="43.4838" lon="2.38019">
        <ele>402.375</ele>
        <time>2021-05-23T10:05:36Z</time>
      </trkpt>
      <trkpt lat="43.48378" lon="2.3802">
        <ele>401.468</ele>
        <time>2021-05-23T10:05:38Z</time>
      </trkpt>
      <trkpt lat="43.48376" lon="2.38021">
        <ele>401.821</ele>
        <time>2021-05-23T10:05:40Z</time>
      </trkpt>
      <trkpt lat="43.48375" lon="2.38022">
        <ele>400.95</ele>
        <time>2021-05-23T10:05:42Z</time>
      </trkpt>
      <trkpt lat="43.48373" lon="2.38022">
        <ele>401.088</ele>
        <time>2021-05-23T10:05:44Z</time>
      </trkpt>
      <trkpt lat="43.4837" lon="2.38022">
        <ele>403.104</ele>
        <time>2021-05-23T10:05:46Z</time>
      </trkpt>
      <trkpt lat="43.48368" lon="2.38022">
        <ele>402.428</ele>
        <time>2021-05-23T10:05:48Z</time>
      </trkpt>
      <trkpt lat="43.48365" lon="2.38022">
        <ele>402.649</ele>
        <time>2021-05-23T10:05:50Z</time>
      </trkpt>
      <trkpt lat="43.48363" lon="2.38022">
        <ele>403.512</ele>
        <time>2021-05-23T10:05:52Z</time>
      </trkpt>
      <trkpt lat="43.4836" lon="2.38022">
        <ele>404.064</ele>
        <time>2021-05-23T10:05:54Z</time>
      </trkpt>
      <trkpt lat="43.48359" lon="2.38022">
        <ele>402.883</ele>
        <time>2021-05-23T10:05:56Z</time>
      </trkpt>
      <trkpt lat="43.48356" lon="2.38022">
        <ele>404.036</ele>
        <time>2021-05-23T10:05:58Z</time>
      </trkpt>
      <trkpt lat="43.48354" lon="2.38023">
        <ele>404.533</ele>
        <time>2021-05-23T10:06:00Z</time>
      </trkpt>
      <trkpt lat="43.48352" lon="2.38023">
        <ele>403.896</ele>
        <time>2021-05-23T10:06:02Z</time>
      </trkpt>
      <trkpt lat="43.4835" lon="2.38024">
        <ele>403.882</ele>
        <time>2021-05-23T10:06:04Z</time>
      </trkpt>
      <trkpt lat="43.48347" lon="2.38025">
        <ele>405.417</ele>
        <time>2021-05-23T10:06:06Z</time>
      </trkpt>
      <trkpt lat="43.48344" lon="2.38025">
        <ele>405.867</ele>
        <time>2021-05-23T10:06:08Z</time>
      </trkpt>
      <trkpt lat="43.48342" lon="2.38025">
        <ele>405.549</ele>
        <time>2021-05-23T10:06:10Z</time>
      </trkpt>
      <trkpt lat="43.4834" lon="2.38025">
        <ele>406.074</ele>
        <time>2021-05-23T10:06:12Z</time>
      </trkpt>
      <trkpt lat="43.48338" lon="2.38025">
        <ele>406.033</ele>
        <time>2021-05-23T10:06:14Z</time>
      </trkpt>
      <trkpt lat="43.48335" lon="2.38026">
        <ele>406.165</ele>
        <time>2021-05-23T10:06:16Z</time>
      </trkpt>
      <trkpt lat="43.48333" lon="2.38027">
        <ele>406.897</ele>
        <time>2021-05-23T10:06:18Z</time>
      </trkpt>
      <trkpt lat="43.48331" lon="2.38028">
        <ele>407.096</ele>
        <time>2021-05-23T10:06:20Z</time>
      </trkpt>
      <trkpt lat="43.48328" lon="2.38028">
        <ele>407.92</ele>
        <time>2021-05-23T10:06:22Z</time>
      </trkpt>
      <trkpt lat="43.48326" lon="2.38028">
        <ele>408.678</ele>
        <time>2021-05-23T10:06:24Z</time>
      </trkpt>
      <trkpt lat="43.48324" lon="2.38028">
        <ele>409.287</ele>
        <time>2021-05-23T10:06:26Z</time>
      </trkpt>
      <trkpt lat="43.48322" lon="2.38027">
        <ele>410.124</ele>
        <time>2021-05-23T10:06:28Z</time>
      </trkpt>
      <trkpt lat="43.4832" lon="2.38027">
        <ele>410.789</ele>
        <time>2021-05-23T10:06:30Z</time>
      </trkpt>
      <trkpt lat="43.48317" lon="2.38027">
        <ele>410.916</ele>
        <time>2021-05-23T10:06:32Z</time>
      </trkpt>
      <trkpt lat="43.48315" lon="2.38027">
        <ele>412.289</ele>
        <time>2021-05-23T10:06:34Z</time>
      </trkpt>
      <trkpt lat="43.48312" lon="2.38027">
        <ele>412.634</ele>
        <time>2021-05-23T10:06:36Z</time>
      </trkpt>
      <trkpt lat="43.48309" lon="2.38026">
        <ele>410.744</ele>
        <time>2021-05-23T10:06:38Z</time>
      </trkpt>
      <trkpt lat="43.48307" lon="2.38026">
        <ele>413.024</ele>
        <time>2021-05-23T10:06:40Z</time>
      </trkpt>
      <trkpt lat="43.48305" lon="2.38027">
        <ele>412.889</ele>
        <time>2021-05-23T10:06:42Z</time>
      </trkpt>
      <trkpt lat="43.48302" lon="2.38026">
        <ele>413.523</ele>
        <time>2021-05-23T10:06:44Z</time>
      </trkpt>
      <trkpt lat="43.483" lon="2.38027">
        <ele>412.781</ele>
        <time>2021-05-23T10:06:46Z</time>
      </trkpt>
      <trkpt lat="43.48298" lon="2.38027">
        <ele>411.501</ele>
        <time>2021-05-23T10:06:48Z</time>
      </trkpt>
      <trkpt lat="43.48296" lon="2.38027">
        <ele>412.596</ele>
        <time>2021-05-23T10:06:50Z</time>
      </trkpt>
      <trkpt lat="43.48293" lon="2.38027">
        <ele>411.471</ele>
        <time>2021-05-23T10:06:52Z</time>
      </trkpt>
      <trkpt lat="43.4829" lon="2.38028">
        <ele>411.097</ele>
        <time>2021-05-23T10:06:54Z</time>
      </trkpt>
      <trkpt lat="43.48288" lon="2.38029">
        <ele>411.104</ele>
        <time>2021-05-23T10:06:56Z</time>
      </trkpt>
      <trkpt lat="43.48286" lon="2.38029">
        <ele>410.95</ele>
        <time>2021-05-23T10:06:58Z</time>
      </trkpt>
      <trkpt lat="43.48284" lon="2.3803">
        <ele>411.535</ele>
        <time>2021-05-23T10:07:00Z</time>
      </trkpt>
      <trkpt lat="43.48282" lon="2.38031">
        <ele>410.935</ele>
        <time>2021-05-23T10:07:02Z</time>
      </trkpt>
      <trkpt lat="43.4828" lon="2.38032">
        <ele>410.699</ele>
        <time>2021-05-23T10:07:04Z</time>
      </trkpt>
      <trkpt lat="43.48278" lon="2.38034">
        <ele>411.811</ele>
        <time>2021-05-23T10:07:06Z</time>
      </trkpt>
      <trkpt lat="43.48276" lon="2.38035">
        <ele>411.469</ele>
        <time>2021-05-23T10:07:08Z</time>
      </trkpt>
      <trkpt lat="43.48274" lon="2.38036">
        <ele>411.297</ele>
        <time>2021-05-23T10:07:10Z</time>
      </trkpt>
      <trkpt lat="43.48273" lon="2.38036">
        <ele>412.243</ele>
        <time>2021-05-23T10:07:12Z</time>
      </trkpt>
      <trkpt lat="43.4827" lon="2.38036">
        <ele>412.904</ele>
        <time>2021-05-23T10:07:14Z</time>
      </trkpt>
      <trkpt lat="43.48268" lon="2.38036">
        <ele>412.806</ele>
        <time>2021-05-23T10:07:16Z</time>
      </trkpt>
      <trkpt lat="43.48266" lon="2.38037">
        <ele>412.554</ele>
        <time>2021-05-23T10:07:18Z</time>
      </trkpt>
      <trkpt lat="43.48265" lon="2.38037">
        <ele>411.748</ele>
        <time>2021-05-23T10:07:20Z</time>
      </trkpt>
      <trkpt lat="43.48263" lon="2.38038">
        <ele>411.279</ele>
        <time>2021-05-23T10:07:22Z</time>
      </trkpt>
      <trkpt lat="43.48261" lon="2.38039">
        <ele>410.816</ele>
        <time>2021-05-23T10:07:24Z</time>
      </trkpt>
      <trkpt lat="43.48259" lon="2.3804">
        <ele>411.478</ele>
        <time>2021-05-23T10:07:26Z</time>
      </trkpt>
      <trkpt lat="43.48257" lon="2.38041">
        <ele>411.43</ele>
        <time>2021-05-23T10:07:28Z</time>
      </trkpt>
      <trkpt lat="43.48256" lon="2.38043">
        <ele>410.123</ele>
        <time>2021-05-23T10:07:30Z</time>
      </trkpt>
      <trkpt lat="43.48253" lon="2.38044">
        <ele>411.966</ele>
        <time>2021-05-23T10:07:32Z</time>
      </trkpt>
      <trkpt lat="43.48251" lon="2.38045">
        <ele>412.406</ele>
        <time>2021-05-23T10:07:34Z</time>
      </trkpt>
      <trkpt lat="43.4825" lon="2.38047">
        <ele>410.893</ele>
        <time>2021-05-23T10:07:36Z</time>
      </trkpt>
      <trkpt lat="43.48248" lon="2.38049">
        <ele>410.917</ele>
        <time>2021-05-23T10:07:38Z</time>
      </trkpt>
      <trkpt lat="43.48246" lon="2.3805">
        <ele>410.957</ele>
        <time>2021-05-23T10:07:40Z</time>
      </trkpt>
      <trkpt lat="43.48244" lon="2.38052">
        <ele>412.177</ele>
        <time>2021-05-23T10:07:42Z</time>
      </trkpt>
      <trkpt lat="43.48242" lon="2.38053">
        <ele>410.837</ele>
        <time>2021-05-23T10:07:44Z</time>
      </trkpt>
      <trkpt lat="43.4824" lon="2.38055">
        <ele>410.347</ele>
        <time>2021-05-23T10:07:46Z</time>
      </trkpt>
      <trkpt lat="43.48239" lon="2.38056">
        <ele>410.069</ele>
        <time>2021-05-23T10:07:48Z</time>
      </trkpt>
      <trkpt lat="43.48237" lon="2.38057">
        <ele>410.652</ele>
        <time>2021-05-23T10:07:50Z</time>
      </trkpt>
      <trkpt lat="43.48235" lon="2.38059">
        <ele>410.473</ele>
        <time>2021-05-23T10:07:52Z</time>
      </trkpt>
      <trkpt lat="43.48233" lon="2.3806">
        <ele>411.348</ele>
        <time>2021-05-23T10:07:54Z</time>
      </trkpt>
      <trkpt lat="43.48231" lon="2.38061">
        <ele>412.06</ele>
        <time>2021-05-23T10:07:56Z</time>
      </trkpt>
      <trkpt lat="43.48228" lon="2.38062">
        <ele>412.604</ele>
        <time>2021-05-23T10:07:58Z</time>
      </trkpt>
      <trkpt lat="43.48226" lon="2.38063">
        <ele>412.913</ele>
        <time>2021-05-23T10:08:00Z</time>
      </trkpt>
      <trkpt lat="43.48224" lon="2.38065">
        <ele>412.054</ele>
        <time>2021-05-23T10:08:02Z</time>
      </trkpt>
      <trkpt lat="43.48222" lon="2.38067">
        <ele>414.09</ele>
        <time>2021-05-23T10:08:04Z</time>
      </trkpt>
      <trkpt lat="43.4822" lon="2.38069">
        <ele>414.185</ele>
        <time>2021-05-23T10:08:06Z</time>
      </trkpt>
      <trkpt lat="43.48219" lon="2.3807">
        <ele>413.229</ele>
        <time>2021-05-23T10:08:08Z</time>
      </trkpt>
      <trkpt lat="43.48218" lon="2.38071">
        <ele>411.092</ele>
        <time>2021-05-23T10:08:10Z</time>
      </trkpt>
      <trkpt lat="43.48216" lon="2.38072">
        <ele>410.024</ele>
        <time>2021-05-23T10:08:12Z</time>
      </trkpt>
      <trkpt lat="43.48214" lon="2.38073">
        <ele>408.572</ele>
        <time>2021-05-23T10:08:14Z</time>
      </trkpt>
      <trkpt lat="43.48212" lon="2.38074">
        <ele>407.933</ele>
        <time>2021-05-23T10:08:16Z</time>
      </trkpt>
      <trkpt lat="43.4821" lon="2.38074">
        <ele>406.803</ele>
        <time>2021-05-23T10:08:18Z</time>
      </trkpt>
      <trkpt lat="43.48208" lon="2.38075">
        <ele>405.659</ele>
        <time>2021-05-23T10:08:20Z</time>
      </trkpt>
      <trkpt lat="43.48206" lon="2.38077">
        <ele>404.376</ele>
        <time>2021-05-23T10:08:22Z</time>
      </trkpt>
      <trkpt lat="43.48205" lon="2.38078">
        <ele>403.535</ele>
        <time>2021-05-23T10:08:24Z</time>
      </trkpt>
      <trkpt lat="43.48203" lon="2.38079">
        <ele>402.451</ele>
        <time>2021-05-23T10:08:26Z</time>
      </trkpt>
      <trkpt lat="43.482" lon="2.38081">
        <ele>401.823</ele>
        <time>2021-05-23T10:08:28Z</time>
      </trkpt>
      <trkpt lat="43.48198" lon="2.38081">
        <ele>402.571</ele>
        <time>2021-05-23T10:08:30Z</time>
      </trkpt>
      <trkpt lat="43.48196" lon="2.38081">
        <ele>402.342</ele>
        <time>2021-05-23T10:08:32Z</time>
      </trkpt>
      <trkpt lat="43.48194" lon="2.38082">
        <ele>400.801</ele>
        <time>2021-05-23T10:08:34Z</time>
      </trkpt>
      <trkpt lat="43.48192" lon="2.38081">
        <ele>398.918</ele>
        <time>2021-05-23T10:08:36Z</time>
      </trkpt>
      <trkpt lat="43.4819" lon="2.38081">
        <ele>396.865</ele>
        <time>2021-05-23T10:08:38Z</time>
      </trkpt>
      <trkpt lat="43.48188" lon="2.38079">
        <ele>397.156</ele>
        <time>2021-05-23T10:08:40Z</time>
      </trkpt>
      <trkpt lat="43.48185" lon="2.38077">
        <ele>398.757</ele>
        <time>2021-05-23T10:08:42Z</time>
      </trkpt>
      <trkpt lat="43.48182" lon="2.38076">
        <ele>400.509</ele>
        <time>2021-05-23T10:08:44Z</time>
      </trkpt>
      <trkpt lat="43.4818" lon="2.38074">
        <ele>401.457</ele>
        <time>2021-05-23T10:08:46Z</time>
      </trkpt>
      <trkpt lat="43.48178" lon="2.38072">
        <ele>401.163</ele>
        <time>2021-05-23T10:08:48Z</time>
      </trkpt>
      <trkpt lat="43.48177" lon="2.38069">
        <ele>401.83</ele>
        <time>2021-05-23T10:08:50Z</time>
      </trkpt>
      <trkpt lat="43.48177" lon="2.38066">
        <ele>402.878</ele>
        <time>2021-05-23T10:08:52Z</time>
      </trkpt>
      <trkpt lat="43.48177" lon="2.38063">
        <ele>403.52</ele>
        <time>2021-05-23T10:08:54Z</time>
      </trkpt>
      <trkpt lat="43.48176" lon="2.3806">
        <ele>403.872</ele>
        <time>2021-05-23T10:08:56Z</time>
      </trkpt>
      <trkpt lat="43.48175" lon="2.38057">
        <ele>402.979</ele>
        <time>2021-05-23T10:08:58Z</time>
      </trkpt>
      <trkpt lat="43.48175" lon="2.38052">
        <ele>403.684</ele>
        <time>2021-05-23T10:09:00Z</time>
      </trkpt>
      <trkpt lat="43.48174" lon="2.38049">
        <ele>404.28</ele>
        <time>2021-05-23T10:09:02Z</time>
      </trkpt>
      <trkpt lat="43.48174" lon="2.38047">
        <ele>405.905</ele>
        <time>2021-05-23T10:09:04Z</time>
      </trkpt>
      <trkpt lat="43.48173" lon="2.38045">
        <ele>405.568</ele>
        <time>2021-05-23T10:09:06Z</time>
      </trkpt>
      <trkpt lat="43.48172" lon="2.38043">
        <ele>404.934</ele>
        <time>2021-05-23T10:09:08Z</time>
      </trkpt>
      <trkpt lat="43.48171" lon="2.38041">
        <ele>405.395</ele>
        <time>2021-05-23T10:09:10Z</time>
      </trkpt>
      <trkpt lat="43.4817" lon="2.38039">
        <ele>405.6</ele>
        <time>2021-05-23T10:09:12Z</time>
      </trkpt>
      <trkpt lat="43.48168" lon="2.38037">
        <ele>404.838</ele>
        <time>2021-05-23T10:09:14Z</time>
      </trkpt>
      <trkpt lat="43.48166" lon="2.38033">
        <ele>403.423</ele>
        <time>2021-05-23T10:09:16Z</time>
      </trkpt>
      <trkpt lat="43.48164" lon="2.38031">
        <ele>403.849</ele>
        <time>2021-05-23T10:09:18Z</time>
      </trkpt>
      <trkpt lat="43.48163" lon="2.38028">
        <ele>404.974</ele>
        <time>2021-05-23T10:09:20Z</time>
      </trkpt>
      <trkpt lat="43.48162" lon="2.38026">
        <ele>403.632</ele>
        <time>2021-05-23T10:09:22Z</time>
      </trkpt>
      <trkpt lat="43.48161" lon="2.38024">
        <ele>403.365</ele>
        <time>2021-05-23T10:09:24Z</time>
      </trkpt>
      <trkpt lat="43.48159" lon="2.38021">
        <ele>403.727</ele>
        <time>2021-05-23T10:09:26Z</time>
      </trkpt>
      <trkpt lat="43.48158" lon="2.3802">
        <ele>403.608</ele>
        <time>2021-05-23T10:09:28Z</time>
      </trkpt>
      <trkpt lat="43.48155" lon="2.38017">
        <ele>404.294</ele>
        <time>2021-05-23T10:09:30Z</time>
      </trkpt>
      <trkpt lat="43.48153" lon="2.38016">
        <ele>404.162</ele>
        <time>2021-05-23T10:09:32Z</time>
      </trkpt>
      <trkpt lat="43.4815" lon="2.38014">
        <ele>404.434</ele>
        <time>2021-05-23T10:09:34Z</time>
      </trkpt>
      <trkpt lat="43.48148" lon="2.38012">
        <ele>404.268</ele>
        <time>2021-05-23T10:09:36Z</time>
      </trkpt>
      <trkpt lat="43.48146" lon="2.38011">
        <ele>403.894</ele>
        <time>2021-05-23T10:09:38Z</time>
      </trkpt>
      <trkpt lat="43.48144" lon="2.38009">
        <ele>403.519</ele>
        <time>2021-05-23T10:09:40Z</time>
      </trkpt>
      <trkpt lat="43.48143" lon="2.38008">
        <ele>403.945</ele>
        <time>2021-05-23T10:09:42Z</time>
      </trkpt>
      <trkpt lat="43.48141" lon="2.38006">
        <ele>403.143</ele>
        <time>2021-05-23T10:09:44Z</time>
      </trkpt>
      <trkpt lat="43.48139" lon="2.38003">
        <ele>403.475</ele>
        <time>2021-05-23T10:09:46Z</time>
      </trkpt>
      <trkpt lat="43.48137" lon="2.38001">
        <ele>403.733</ele>
        <time>2021-05-23T10:09:48Z</time>
      </trkpt>
      <trkpt lat="43.48135" lon="2.37998">
        <ele>404.414</ele>
        <time>2021-05-23T10:09:50Z</time>
      </trkpt>
      <trkpt lat="43.48134" lon="2.37997">
        <ele>404.043</ele>
        <time>2021-05-23T10:09:52Z</time>
      </trkpt>
      <trkpt lat="43.48132" lon="2.37995">
        <ele>404.05</ele>
        <time>2021-05-23T10:09:54Z</time>
      </trkpt>
      <trkpt lat="43.4813" lon="2.37992">
        <ele>404.325</ele>
        <time>2021-05-23T10:09:56Z</time>
      </trkpt>
      <trkpt lat="43.48129" lon="2.3799">
        <ele>405.589</ele>
        <time>2021-05-23T10:09:58Z</time>
      </trkpt>
      <trkpt lat="43.48127" lon="2.37989">
        <ele>405.818</ele>
        <time>2021-05-23T10:10:00Z</time>
      </trkpt>
      <trkpt lat="43.48125" lon="2.37987">
        <ele>405.34</ele>
        <time>2021-05-23T10:10:02Z</time>
      </trkpt>
      <trkpt lat="43.48123" lon="2.37986">
        <ele>405.627</ele>
        <time>2021-05-23T10:10:04Z</time>
      </trkpt>
      <trkpt lat="43.48121" lon="2.37983">
        <ele>405.921</ele>
        <time>2021-05-23T10:10:06Z</time>
      </trkpt>
      <trkpt lat="43.48119" lon="2.37982">
        <ele>404.898</ele>
        <time>2021-05-23T10:10:08Z</time>
      </trkpt>
      <trkpt lat="43.48117" lon="2.3798">
        <ele>404.831</ele>
        <time>2021-05-23T10:10:10Z</time>
      </trkpt>
      <trkpt lat="43.48115" lon="2.37979">
        <ele>404.366</ele>
        <time>2021-05-23T10:10:12Z</time>
      </trkpt>
      <trkpt lat="43.48113" lon="2.37979">
        <ele>404.204</ele>
        <time>2021-05-23T10:10:14Z</time>
      </trkpt>
      <trkpt lat="43.4811" lon="2.37979">
        <ele>404.196</ele>
        <time>2021-05-23T10:10:16Z</time>
      </trkpt>
      <trkpt lat="43.48108" lon="2.37979">
        <ele>402.969</ele>
        <time>2021-05-23T10:10:18Z</time>
      </trkpt>
      <trkpt lat="43.48104" lon="2.3798">
        <ele>402.856</ele>
        <time>2021-05-23T10:10:20Z</time>
      </trkpt>
      <trkpt lat="43.48102" lon="2.37979">
        <ele>404.361</ele>
        <time>2021-05-23T10:10:22Z</time>
      </trkpt>
      <trkpt lat="43.481" lon="2.37978">
        <ele>405.528</ele>
        <time>2021-05-23T10:10:24Z</time>
      </trkpt>
      <trkpt lat="43.48098" lon="2.37976">
        <ele>405.049</ele>
        <time>2021-05-23T10:10:26Z</time>
      </trkpt>
      <trkpt lat="43.48095" lon="2.37974">
        <ele>404.564</ele>
        <time>2021-05-23T10:10:28Z</time>
      </trkpt>
      <trkpt lat="43.48094" lon="2.37973">
        <ele>405.435</ele>
        <time>2021-05-23T10:10:30Z</time>
      </trkpt>
      <trkpt lat="43.48092" lon="2.37971">
        <ele>404.407</ele>
        <time>2021-05-23T10:10:32Z</time>
      </trkpt>
      <trkpt lat="43.48091" lon="2.37969">
        <ele>404.218</ele>
        <time>2021-05-23T10:10:34Z</time>
      </trkpt>
      <trkpt lat="43.4809" lon="2.37967">
        <ele>404.247</ele>
        <time>2021-05-23T10:10:36Z</time>
      </trkpt>
      <trkpt lat="43.48088" lon="2.37965">
        <ele>403.598</ele>
        <time>2021-05-23T10:10:38Z</time>
      </trkpt>
      <trkpt lat="43.48086" lon="2.37964">
        <ele>402.918</ele>
        <time>2021-05-23T10:10:40Z</time>
      </trkpt>
      <trkpt lat="43.48084" lon="2.37963">
        <ele>402.203</ele>
        <time>2021-05-23T10:10:42Z</time>
      </trkpt>
      <trkpt lat="43.48082" lon="2.37963">
        <ele>402.059</ele>
        <time>2021-05-23T10:10:44Z</time>
      </trkpt>
      <trkpt lat="43.4808" lon="2.37963">
        <ele>402.813</ele>
        <time>2021-05-23T10:10:46Z</time>
      </trkpt>
      <trkpt lat="43.48078" lon="2.37964">
        <ele>402.854</ele>
        <time>2021-05-23T10:10:48Z</time>
      </trkpt>
      <trkpt lat="43.48075" lon="2.37964">
        <ele>402.719</ele>
        <time>2021-05-23T10:10:50Z</time>
      </trkpt>
      <trkpt lat="43.48073" lon="2.37964">
        <ele>402.733</ele>
        <time>2021-05-23T10:10:52Z</time>
      </trkpt>
      <trkpt lat="43.4807" lon="2.37964">
        <ele>403.007</ele>
        <time>2021-05-23T10:10:54Z</time>
      </trkpt>
      <trkpt lat="43.48068" lon="2.37965">
        <ele>403.367</ele>
        <time>2021-05-23T10:10:56Z</time>
      </trkpt>
      <trkpt lat="43.48066" lon="2.37967">
        <ele>403.311</ele>
        <time>2021-05-23T10:10:58Z</time>
      </trkpt>
      <trkpt lat="43.48064" lon="2.37968">
        <ele>402.505</ele>
        <time>2021-05-23T10:11:00Z</time>
      </trkpt>
      <trkpt lat="43.48062" lon="2.37969">
        <ele>403.421</ele>
        <time>2021-05-23T10:11:02Z</time>
      </trkpt>
      <trkpt lat="43.48059" lon="2.3797">
        <ele>404.34</ele>
        <time>2021-05-23T10:11:04Z</time>
      </trkpt>
      <trkpt lat="43.48056" lon="2.37971">
        <ele>404.612</ele>
        <time>2021-05-23T10:11:06Z</time>
      </trkpt>
      <trkpt lat="43.48055" lon="2.3797">
        <ele>406.968</ele>
        <time>2021-05-23T10:11:08Z</time>
      </trkpt>
      <trkpt lat="43.48053" lon="2.3797">
        <ele>405.008</ele>
        <time>2021-05-23T10:11:10Z</time>
      </trkpt>
      <trkpt lat="43.48051" lon="2.3797">
        <ele>404.433</ele>
        <time>2021-05-23T10:11:12Z</time>
      </trkpt>
      <trkpt lat="43.48049" lon="2.3797">
        <ele>404.786</ele>
        <time>2021-05-23T10:11:14Z</time>
      </trkpt>
      <trkpt lat="43.48047" lon="2.37972">
        <ele>405.364</ele>
        <time>2021-05-23T10:11:16Z</time>
      </trkpt>
      <trkpt lat="43.48044" lon="2.37972">
        <ele>404.994</ele>
        <time>2021-05-23T10:11:18Z</time>
      </trkpt>
      <trkpt lat="43.48042" lon="2.37972">
        <ele>405.103</ele>
        <time>2021-05-23T10:11:20Z</time>
      </trkpt>
      <trkpt lat="43.4804" lon="2.37972">
        <ele>405.263</ele>
        <time>2021-05-23T10:11:22Z</time>
      </trkpt>
      <trkpt lat="43.48037" lon="2.37972">
        <ele>406.324</ele>
        <time>2021-05-23T10:11:24Z</time>
      </trkpt>
      <trkpt lat="43.48035" lon="2.37973">
        <ele>405.108</ele>
        <time>2021-05-23T10:11:26Z</time>
      </trkpt>
      <trkpt lat="43.48033" lon="2.37972">
        <ele>404.579</ele>
        <time>2021-05-23T10:11:28Z</time>
      </trkpt>
      <trkpt lat="43.4803" lon="2.3797">
        <ele>403.804</ele>
        <time>2021-05-23T10:11:30Z</time>
      </trkpt>
      <trkpt lat="43.48028" lon="2.37968">
        <ele>402.853</ele>
        <time>2021-05-23T10:11:32Z</time>
      </trkpt>
      <trkpt lat="43.48027" lon="2.37965">
        <ele>403.196</ele>
        <time>2021-05-23T10:11:34Z</time>
      </trkpt>
      <trkpt lat="43.48025" lon="2.37963">
        <ele>401.883</ele>
        <time>2021-05-23T10:11:36Z</time>
      </trkpt>
      <trkpt lat="43.48023" lon="2.3796">
        <ele>400.621</ele>
        <time>2021-05-23T10:11:38Z</time>
      </trkpt>
      <trkpt lat="43.48022" lon="2.37958">
        <ele>401.311</ele>
        <time>2021-05-23T10:11:40Z</time>
      </trkpt>
      <trkpt lat="43.48021" lon="2.37955">
        <ele>402.326</ele>
        <time>2021-05-23T10:11:42Z</time>
      </trkpt>
      <trkpt lat="43.4802" lon="2.37953">
        <ele>402.385</ele>
        <time>2021-05-23T10:11:44Z</time>
      </trkpt>
      <trkpt lat="43.48018" lon="2.37951">
        <ele>401.141</ele>
        <time>2021-05-23T10:11:46Z</time>
      </trkpt>
      <trkpt lat="43.48017" lon="2.37949">
        <ele>399.502</ele>
        <time>2021-05-23T10:11:48Z</time>
      </trkpt>
      <trkpt lat="43.48016" lon="2.37946">
        <ele>398.376</ele>
        <time>2021-05-23T10:11:50Z</time>
      </trkpt>
      <trkpt lat="43.48015" lon="2.37943">
        <ele>397.523</ele>
        <time>2021-05-23T10:11:52Z</time>
      </trkpt>
      <trkpt lat="43.48014" lon="2.37942">
        <ele>395.85</ele>
        <time>2021-05-23T10:11:54Z</time>
      </trkpt>
      <trkpt lat="43.48012" lon="2.37939">
        <ele>395.863</ele>
        <time>2021-05-23T10:11:56Z</time>
      </trkpt>
      <trkpt lat="43.48012" lon="2.37937">
        <ele>396.544</ele>
        <time>2021-05-23T10:11:58Z</time>
      </trkpt>
      <trkpt lat="43.4801" lon="2.37935">
        <ele>396.153</ele>
        <time>2021-05-23T10:12:00Z</time>
      </trkpt>
      <trkpt lat="43.48009" lon="2.37933">
        <ele>395.706</ele>
        <time>2021-05-23T10:12:02Z</time>
      </trkpt>
      <trkpt lat="43.48007" lon="2.37932">
        <ele>394.01</ele>
        <time>2021-05-23T10:12:04Z</time>
      </trkpt>
      <trkpt lat="43.48005" lon="2.37931">
        <ele>392.963</ele>
        <time>2021-05-23T10:12:06Z</time>
      </trkpt>
      <trkpt lat="43.48003" lon="2.37929">
        <ele>392.813</ele>
        <time>2021-05-23T10:12:08Z</time>
      </trkpt>
      <trkpt lat="43.48001" lon="2.37928">
        <ele>392.731</ele>
        <time>2021-05-23T10:12:10Z</time>
      </trkpt>
      <trkpt lat="43.47998" lon="2.37927">
        <ele>392.504</ele>
        <time>2021-05-23T10:12:12Z</time>
      </trkpt>
      <trkpt lat="43.47994" lon="2.37927">
        <ele>389.232</ele>
        <time>2021-05-23T10:12:14Z</time>
      </trkpt>
      <trkpt lat="43.47992" lon="2.37927">
        <ele>388.49</ele>
        <time>2021-05-23T10:12:16Z</time>
      </trkpt>
      <trkpt lat="43.4799" lon="2.37927">
        <ele>387.359</ele>
        <time>2021-05-23T10:12:18Z</time>
      </trkpt>
      <trkpt lat="43.47988" lon="2.37927">
        <ele>386.72</ele>
        <time>2021-05-23T10:12:20Z</time>
      </trkpt>
      <trkpt lat="43.47986" lon="2.37926">
        <ele>384.809</ele>
        <time>2021-05-23T10:12:22Z</time>
      </trkpt>
      <trkpt lat="43.47984" lon="2.37924">
        <ele>384.16</ele>
        <time>2021-05-23T10:12:24Z</time>
      </trkpt>
      <trkpt lat="43.47982" lon="2.37921">
        <ele>384.855</ele>
        <time>2021-05-23T10:12:26Z</time>
      </trkpt>
      <trkpt lat="43.4798" lon="2.37918">
        <ele>385.908</ele>
        <time>2021-05-23T10:12:28Z</time>
      </trkpt>
      <trkpt lat="43.47979" lon="2.37916">
        <ele>386.301</ele>
        <time>2021-05-23T10:12:30Z</time>
      </trkpt>
      <trkpt lat="43.47978" lon="2.37913">
        <ele>386.866</ele>
        <time>2021-05-23T10:12:32Z</time>
      </trkpt>
      <trkpt lat="43.47975" lon="2.3791">
        <ele>387.645</ele>
        <time>2021-05-23T10:12:35Z</time>
      </trkpt>
      <trkpt lat="43.47974" lon="2.37907">
        <ele>388.396</ele>
        <time>2021-05-23T10:12:37Z</time>
      </trkpt>
      <trkpt lat="43.47973" lon="2.37905">
        <ele>387.502</ele>
        <time>2021-05-23T10:12:39Z</time>
      </trkpt>
      <trkpt lat="43.4797" lon="2.37902">
        <ele>388.154</ele>
        <time>2021-05-23T10:12:41Z</time>
      </trkpt>
      <trkpt lat="43.47969" lon="2.379">
        <ele>387.388</ele>
        <time>2021-05-23T10:12:43Z</time>
      </trkpt>
      <trkpt lat="43.47967" lon="2.37899">
        <ele>386.47</ele>
        <time>2021-05-23T10:12:45Z</time>
      </trkpt>
      <trkpt lat="43.47965" lon="2.37896">
        <ele>386.917</ele>
        <time>2021-05-23T10:12:47Z</time>
      </trkpt>
      <trkpt lat="43.47964" lon="2.37895">
        <ele>387.325</ele>
        <time>2021-05-23T10:12:49Z</time>
      </trkpt>
      <trkpt lat="43.47963" lon="2.37893">
        <ele>387.77</ele>
        <time>2021-05-23T10:12:51Z</time>
      </trkpt>
      <trkpt lat="43.47962" lon="2.37892">
        <ele>388.017</ele>
        <time>2021-05-23T10:12:53Z</time>
      </trkpt>
      <trkpt lat="43.4796" lon="2.3789">
        <ele>388.284</ele>
        <time>2021-05-23T10:12:55Z</time>
      </trkpt>
      <trkpt lat="43.47959" lon="2.37888">
        <ele>388.384</ele>
        <time>2021-05-23T10:12:57Z</time>
      </trkpt>
      <trkpt lat="43.47958" lon="2.37886">
        <ele>388.821</ele>
        <time>2021-05-23T10:12:59Z</time>
      </trkpt>
      <trkpt lat="43.47956" lon="2.37883">
        <ele>388.712</ele>
        <time>2021-05-23T10:13:01Z</time>
      </trkpt>
      <trkpt lat="43.47955" lon="2.3788">
        <ele>388.358</ele>
        <time>2021-05-23T10:13:03Z</time>
      </trkpt>
      <trkpt lat="43.47954" lon="2.37878">
        <ele>388.027</ele>
        <time>2021-05-23T10:13:05Z</time>
      </trkpt>
      <trkpt lat="43.47952" lon="2.37875">
        <ele>387.663</ele>
        <time>2021-05-23T10:13:07Z</time>
      </trkpt>
      <trkpt lat="43.47951" lon="2.37872">
        <ele>387.953</ele>
        <time>2021-05-23T10:13:09Z</time>
      </trkpt>
      <trkpt lat="43.47951" lon="2.3787">
        <ele>388.369</ele>
        <time>2021-05-23T10:13:11Z</time>
      </trkpt>
      <trkpt lat="43.47949" lon="2.37868">
        <ele>387.781</ele>
        <time>2021-05-23T10:13:13Z</time>
      </trkpt>
      <trkpt lat="43.47948" lon="2.37866">
        <ele>386.871</ele>
        <time>2021-05-23T10:13:15Z</time>
      </trkpt>
      <trkpt lat="43.47946" lon="2.37864">
        <ele>385.99</ele>
        <time>2021-05-23T10:13:17Z</time>
      </trkpt>
      <trkpt lat="43.47945" lon="2.37862">
        <ele>385.058</ele>
        <time>2021-05-23T10:13:19Z</time>
      </trkpt>
      <trkpt lat="43.47944" lon="2.37861">
        <ele>384.008</ele>
        <time>2021-05-23T10:13:21Z</time>
      </trkpt>
      <trkpt lat="43.47941" lon="2.37859">
        <ele>382.445</ele>
        <time>2021-05-23T10:13:23Z</time>
      </trkpt>
      <trkpt lat="43.4794" lon="2.37858">
        <ele>381.414</ele>
        <time>2021-05-23T10:13:25Z</time>
      </trkpt>
      <trkpt lat="43.47939" lon="2.37856">
        <ele>380.861</ele>
        <time>2021-05-23T10:13:27Z</time>
      </trkpt>
      <trkpt lat="43.47938" lon="2.37854">
        <ele>380.929</ele>
        <time>2021-05-23T10:13:29Z</time>
      </trkpt>
      <trkpt lat="43.47936" lon="2.37852">
        <ele>380.333</ele>
        <time>2021-05-23T10:13:31Z</time>
      </trkpt>
      <trkpt lat="43.47936" lon="2.3785">
        <ele>380.613</ele>
        <time>2021-05-23T10:13:33Z</time>
      </trkpt>
      <trkpt lat="43.47935" lon="2.37849">
        <ele>380.575</ele>
        <time>2021-05-23T10:13:35Z</time>
      </trkpt>
      <trkpt lat="43.47934" lon="2.37847">
        <ele>380.618</ele>
        <time>2021-05-23T10:13:37Z</time>
      </trkpt>
      <trkpt lat="43.47933" lon="2.37844">
        <ele>380.519</ele>
        <time>2021-05-23T10:13:39Z</time>
      </trkpt>
      <trkpt lat="43.47933" lon="2.37842">
        <ele>380.372</ele>
        <time>2021-05-23T10:13:41Z</time>
      </trkpt>
      <trkpt lat="43.47933" lon="2.3784">
        <ele>380.763</ele>
        <time>2021-05-23T10:13:43Z</time>
      </trkpt>
      <trkpt lat="43.47933" lon="2.37837">
        <ele>381.761</ele>
        <time>2021-05-23T10:13:45Z</time>
      </trkpt>
      <trkpt lat="43.47933" lon="2.37836">
        <ele>381.178</ele>
        <time>2021-05-23T10:13:47Z</time>
      </trkpt>
      <trkpt lat="43.47935" lon="2.37837">
        <ele>381.631</ele>
        <time>2021-05-23T10:13:49Z</time>
      </trkpt>
      <trkpt lat="43.47935" lon="2.37837">
        <ele>381.624</ele>
        <time>2021-05-23T10:13:51Z</time>
      </trkpt>
      <trkpt lat="43.47935" lon="2.37837">
        <ele>381.631</ele>
        <time>2021-05-23T10:13:53Z</time>
      </trkpt>
      <trkpt lat="43.47935" lon="2.37837">
        <ele>381.631</ele>
        <time>2021-05-23T10:13:55Z</time>
      </trkpt>
      <trkpt lat="43.47935" lon="2.37837">
        <ele>381.636</ele>
        <time>2021-05-23T10:13:57Z</time>
      </trkpt>
      <trkpt lat="43.47935" lon="2.37837">
        <ele>381.642</ele>
        <time>2021-05-23T10:13:59Z</time>
      </trkpt>
      <trkpt lat="43.47935" lon="2.37837">
        <ele>381.644</ele>
        <time>2021-05-23T10:14:01Z</time>
      </trkpt>
      <trkpt lat="43.47935" lon="2.37837">
        <ele>381.652</ele>
        <time>2021-05-23T10:14:03Z</time>
      </trkpt>
      <trkpt lat="43.47935" lon="2.37837">
        <ele>382.122</ele>
        <time>2021-05-23T10:14:05Z</time>
      </trkpt>
      <trkpt lat="43.47935" lon="2.37836">
        <ele>382.389</ele>
        <time>2021-05-23T10:14:07Z</time>
      </trkpt>
      <trkpt lat="43.47935" lon="2.37836">
        <ele>382.384</ele>
        <time>2021-05-23T10:14:09Z</time>
      </trkpt>
      <trkpt lat="43.47935" lon="2.37836">
        <ele>382.386</ele>
        <time>2021-05-23T10:14:11Z</time>
      </trkpt>
      <trkpt lat="43.47935" lon="2.37836">
        <ele>382.379</ele>
        <time>2021-05-23T10:14:13Z</time>
      </trkpt>
      <trkpt lat="43.47935" lon="2.37836">
        <ele>382.365</ele>
        <time>2021-05-23T10:14:15Z</time>
      </trkpt>
      <trkpt lat="43.47935" lon="2.37836">
        <ele>382.354</ele>
        <time>2021-05-23T10:14:17Z</time>
      </trkpt>
      <trkpt lat="43.47935" lon="2.37836">
        <ele>382.337</ele>
        <time>2021-05-23T10:14:19Z</time>
      </trkpt>
      <trkpt lat="43.47935" lon="2.37836">
        <ele>382.333</ele>
        <time>2021-05-23T10:14:21Z</time>
      </trkpt>
      <trkpt lat="43.47935" lon="2.37836">
        <ele>382.324</ele>
        <time>2021-05-23T10:14:23Z</time>
      </trkpt>
      <trkpt lat="43.47935" lon="2.37836">
        <ele>382.316</ele>
        <time>2021-05-23T10:14:25Z</time>
      </trkpt>
      <trkpt lat="43.47935" lon="2.37836">
        <ele>382.314</ele>
        <time>2021-05-23T10:14:27Z</time>
      </trkpt>
      <trkpt lat="43.47935" lon="2.37836">
        <ele>382.32</ele>
        <time>2021-05-23T10:14:29Z</time>
      </trkpt>
      <trkpt lat="43.47935" lon="2.37836">
        <ele>382.307</ele>
        <time>2021-05-23T10:14:31Z</time>
      </trkpt>
      <trkpt lat="43.47935" lon="2.37836">
        <ele>382.3</ele>
        <time>2021-05-23T10:14:33Z</time>
      </trkpt>
      <trkpt lat="43.47935" lon="2.37836">
        <ele>382.292</ele>
        <time>2021-05-23T10:14:35Z</time>
      </trkpt>
      <trkpt lat="43.47935" lon="2.37836">
        <ele>382.29</ele>
        <time>2021-05-23T10:14:37Z</time>
      </trkpt>
      <trkpt lat="43.47935" lon="2.37836">
        <ele>382.282</ele>
        <time>2021-05-23T10:14:39Z</time>
      </trkpt>
      <trkpt lat="43.47935" lon="2.37836">
        <ele>382.276</ele>
        <time>2021-05-23T10:14:41Z</time>
      </trkpt>
      <trkpt lat="43.47935" lon="2.37836">
        <ele>382.281</ele>
        <time>2021-05-23T10:14:43Z</time>
      </trkpt>
      <trkpt lat="43.47935" lon="2.37836">
        <ele>382.288</ele>
        <time>2021-05-23T10:14:45Z</time>
      </trkpt>
      <trkpt lat="43.47935" lon="2.37836">
        <ele>382.285</ele>
        <time>2021-05-23T10:14:47Z</time>
      </trkpt>
      <trkpt lat="43.47935" lon="2.37836">
        <ele>382.287</ele>
        <time>2021-05-23T10:14:49Z</time>
      </trkpt>
      <trkpt lat="43.47935" lon="2.37836">
        <ele>382.293</ele>
        <time>2021-05-23T10:14:51Z</time>
      </trkpt>
      <trkpt lat="43.47935" lon="2.37835">
        <ele>382.271</ele>
        <time>2021-05-23T10:14:53Z</time>
      </trkpt>
      <trkpt lat="43.47935" lon="2.37835">
        <ele>382.265</ele>
        <time>2021-05-23T10:14:55Z</time>
      </trkpt>
      <trkpt lat="43.47935" lon="2.37835">
        <ele>382.26</ele>
        <time>2021-05-23T10:14:57Z</time>
      </trkpt>
      <trkpt lat="43.47935" lon="2.37835">
        <ele>382.251</ele>
        <time>2021-05-23T10:14:59Z</time>
      </trkpt>
      <trkpt lat="43.47935" lon="2.37835">
        <ele>382.251</ele>
        <time>2021-05-23T10:15:01Z</time>
      </trkpt>
      <trkpt lat="43.47935" lon="2.37835">
        <ele>382.251</ele>
        <time>2021-05-23T10:15:03Z</time>
      </trkpt>
      <trkpt lat="43.47935" lon="2.37835">
        <ele>382.25</ele>
        <time>2021-05-23T10:15:05Z</time>
      </trkpt>
      <trkpt lat="43.47935" lon="2.37835">
        <ele>382.255</ele>
        <time>2021-05-23T10:15:07Z</time>
      </trkpt>
      <trkpt lat="43.47935" lon="2.37835">
        <ele>382.249</ele>
        <time>2021-05-23T10:15:09Z</time>
      </trkpt>
      <trkpt lat="43.47935" lon="2.37834">
        <ele>382.408</ele>
        <time>2021-05-23T10:15:11Z</time>
      </trkpt>
      <trkpt lat="43.47936" lon="2.3783">
        <ele>382.036</ele>
        <time>2021-05-23T10:15:13Z</time>
      </trkpt>
      <trkpt lat="43.47935" lon="2.37827">
        <ele>382.105</ele>
        <time>2021-05-23T10:15:15Z</time>
      </trkpt>
      <trkpt lat="43.47933" lon="2.37827">
        <ele>380.235</ele>
        <time>2021-05-23T10:15:17Z</time>
      </trkpt>
      <trkpt lat="43.47932" lon="2.37825">
        <ele>379.301</ele>
        <time>2021-05-23T10:15:19Z</time>
      </trkpt>
      <trkpt lat="43.47931" lon="2.37824">
        <ele>379.259</ele>
        <time>2021-05-23T10:15:21Z</time>
      </trkpt>
      <trkpt lat="43.4793" lon="2.37822">
        <ele>379.239</ele>
        <time>2021-05-23T10:15:23Z</time>
      </trkpt>
      <trkpt lat="43.47929" lon="2.3782">
        <ele>378.088</ele>
        <time>2021-05-23T10:15:25Z</time>
      </trkpt>
      <trkpt lat="43.47928" lon="2.37819">
        <ele>377.194</ele>
        <time>2021-05-23T10:15:27Z</time>
      </trkpt>
      <trkpt lat="43.47927" lon="2.37817">
        <ele>375.497</ele>
        <time>2021-05-23T10:15:29Z</time>
      </trkpt>
      <trkpt lat="43.47926" lon="2.37816">
        <ele>375.073</ele>
        <time>2021-05-23T10:15:31Z</time>
      </trkpt>
      <trkpt lat="43.47925" lon="2.37813">
        <ele>374.224</ele>
        <time>2021-05-23T10:15:33Z</time>
      </trkpt>
      <trkpt lat="43.47924" lon="2.37811">
        <ele>373.588</ele>
        <time>2021-05-23T10:15:35Z</time>
      </trkpt>
      <trkpt lat="43.47924" lon="2.37809">
        <ele>373.477</ele>
        <time>2021-05-23T10:15:37Z</time>
      </trkpt>
      <trkpt lat="43.47924" lon="2.37806">
        <ele>373.65</ele>
        <time>2021-05-23T10:15:39Z</time>
      </trkpt>
      <trkpt lat="43.47923" lon="2.37802">
        <ele>373.923</ele>
        <time>2021-05-23T10:15:41Z</time>
      </trkpt>
      <trkpt lat="43.47923" lon="2.378">
        <ele>374.002</ele>
        <time>2021-05-23T10:15:43Z</time>
      </trkpt>
      <trkpt lat="43.47921" lon="2.37797">
        <ele>374.137</ele>
        <time>2021-05-23T10:15:45Z</time>
      </trkpt>
      <trkpt lat="43.47919" lon="2.37796">
        <ele>373.52</ele>
        <time>2021-05-23T10:15:47Z</time>
      </trkpt>
      <trkpt lat="43.47918" lon="2.37794">
        <ele>376.014</ele>
        <time>2021-05-23T10:15:49Z</time>
      </trkpt>
      <trkpt lat="43.47917" lon="2.37792">
        <ele>376.293</ele>
        <time>2021-05-23T10:15:51Z</time>
      </trkpt>
      <trkpt lat="43.47916" lon="2.37791">
        <ele>376.544</ele>
        <time>2021-05-23T10:15:53Z</time>
      </trkpt>
      <trkpt lat="43.47916" lon="2.37791">
        <ele>376.546</ele>
        <time>2021-05-23T10:15:55Z</time>
      </trkpt>
      <trkpt lat="43.47916" lon="2.37792">
        <ele>376.514</ele>
        <time>2021-05-23T10:15:57Z</time>
      </trkpt>
      <trkpt lat="43.47916" lon="2.37792">
        <ele>376.508</ele>
        <time>2021-05-23T10:15:59Z</time>
      </trkpt>
      <trkpt lat="43.47916" lon="2.37792">
        <ele>376.345</ele>
        <time>2021-05-23T10:16:01Z</time>
      </trkpt>
      <trkpt lat="43.47916" lon="2.37792">
        <ele>376.475</ele>
        <time>2021-05-23T10:16:03Z</time>
      </trkpt>
      <trkpt lat="43.47915" lon="2.37792">
        <ele>375.939</ele>
        <time>2021-05-23T10:16:05Z</time>
      </trkpt>
      <trkpt lat="43.47914" lon="2.37793">
        <ele>375.856</ele>
        <time>2021-05-23T10:16:07Z</time>
      </trkpt>
      <trkpt lat="43.47914" lon="2.37795">
        <ele>377.063</ele>
        <time>2021-05-23T10:16:09Z</time>
      </trkpt>
      <trkpt lat="43.47913" lon="2.37796">
        <ele>376.389</ele>
        <time>2021-05-23T10:16:11Z</time>
      </trkpt>
      <trkpt lat="43.47913" lon="2.37796">
        <ele>376.347</ele>
        <time>2021-05-23T10:16:13Z</time>
      </trkpt>
      <trkpt lat="43.47913" lon="2.37796">
        <ele>376.142</ele>
        <time>2021-05-23T10:16:15Z</time>
      </trkpt>
      <trkpt lat="43.47911" lon="2.37796">
        <ele>376.855</ele>
        <time>2021-05-23T10:16:17Z</time>
      </trkpt>
      <trkpt lat="43.4791" lon="2.37795">
        <ele>377.08</ele>
        <time>2021-05-23T10:16:19Z</time>
      </trkpt>
      <trkpt lat="43.4791" lon="2.37795">
        <ele>376.701</ele>
        <time>2021-05-23T10:16:21Z</time>
      </trkpt>
      <trkpt lat="43.4791" lon="2.37796">
        <ele>376.519</ele>
        <time>2021-05-23T10:16:23Z</time>
      </trkpt>
      <trkpt lat="43.47909" lon="2.37798">
        <ele>377.097</ele>
        <time>2021-05-23T10:16:25Z</time>
      </trkpt>
      <trkpt lat="43.47908" lon="2.37799">
        <ele>377.185</ele>
        <time>2021-05-23T10:16:27Z</time>
      </trkpt>
      <trkpt lat="43.47907" lon="2.378">
        <ele>377.028</ele>
        <time>2021-05-23T10:16:29Z</time>
      </trkpt>
      <trkpt lat="43.47907" lon="2.378">
        <ele>376.885</ele>
        <time>2021-05-23T10:16:31Z</time>
      </trkpt>
      <trkpt lat="43.47907" lon="2.378">
        <ele>376.881</ele>
        <time>2021-05-23T10:16:33Z</time>
      </trkpt>
      <trkpt lat="43.47907" lon="2.378">
        <ele>376.88</ele>
        <time>2021-05-23T10:16:35Z</time>
      </trkpt>
      <trkpt lat="43.47907" lon="2.378">
        <ele>376.884</ele>
        <time>2021-05-23T10:16:37Z</time>
      </trkpt>
      <trkpt lat="43.47908" lon="2.378">
        <ele>376.692</ele>
        <time>2021-05-23T10:16:39Z</time>
      </trkpt>
      <trkpt lat="43.47908" lon="2.378">
        <ele>375.709</ele>
        <time>2021-05-23T10:16:41Z</time>
      </trkpt>
      <trkpt lat="43.47908" lon="2.378">
        <ele>375.312</ele>
        <time>2021-05-23T10:16:43Z</time>
      </trkpt>
      <trkpt lat="43.47908" lon="2.378">
        <ele>375.305</ele>
        <time>2021-05-23T10:16:45Z</time>
      </trkpt>
      <trkpt lat="43.47908" lon="2.378">
        <ele>375.296</ele>
        <time>2021-05-23T10:16:47Z</time>
      </trkpt>
      <trkpt lat="43.47908" lon="2.378">
        <ele>375.291</ele>
        <time>2021-05-23T10:16:49Z</time>
      </trkpt>
      <trkpt lat="43.47908" lon="2.378">
        <ele>375.291</ele>
        <time>2021-05-23T10:16:51Z</time>
      </trkpt>
      <trkpt lat="43.47908" lon="2.378">
        <ele>375.288</ele>
        <time>2021-05-23T10:16:53Z</time>
      </trkpt>
      <trkpt lat="43.47908" lon="2.378">
        <ele>375.291</ele>
        <time>2021-05-23T10:16:55Z</time>
      </trkpt>
      <trkpt lat="43.47908" lon="2.37799">
        <ele>375.268</ele>
        <time>2021-05-23T10:16:57Z</time>
      </trkpt>
      <trkpt lat="43.47908" lon="2.37799">
        <ele>375.387</ele>
        <time>2021-05-23T10:16:59Z</time>
      </trkpt>
      <trkpt lat="43.47907" lon="2.37799">
        <ele>375.778</ele>
        <time>2021-05-23T10:17:01Z</time>
      </trkpt>
      <trkpt lat="43.47907" lon="2.37799">
        <ele>375.78</ele>
        <time>2021-05-23T10:17:03Z</time>
      </trkpt>
      <trkpt lat="43.47907" lon="2.37799">
        <ele>375.778</ele>
        <time>2021-05-23T10:17:05Z</time>
      </trkpt>
      <trkpt lat="43.47907" lon="2.37799">
        <ele>375.287</ele>
        <time>2021-05-23T10:17:07Z</time>
      </trkpt>
      <trkpt lat="43.47905" lon="2.37799">
        <ele>374.414</ele>
        <time>2021-05-23T10:17:09Z</time>
      </trkpt>
      <trkpt lat="43.47903" lon="2.37799">
        <ele>374.741</ele>
        <time>2021-05-23T10:17:11Z</time>
      </trkpt>
      <trkpt lat="43.47901" lon="2.37799">
        <ele>375.382</ele>
        <time>2021-05-23T10:17:13Z</time>
      </trkpt>
      <trkpt lat="43.479" lon="2.37799">
        <ele>375.066</ele>
        <time>2021-05-23T10:17:15Z</time>
      </trkpt>
      <trkpt lat="43.47899" lon="2.378">
        <ele>374.016</ele>
        <time>2021-05-23T10:17:17Z</time>
      </trkpt>
      <trkpt lat="43.47897" lon="2.378">
        <ele>373.983</ele>
        <time>2021-05-23T10:17:19Z</time>
      </trkpt>
      <trkpt lat="43.47896" lon="2.37801">
        <ele>374.238</ele>
        <time>2021-05-23T10:17:21Z</time>
      </trkpt>
      <trkpt lat="43.47894" lon="2.37802">
        <ele>374.059</ele>
        <time>2021-05-23T10:17:23Z</time>
      </trkpt>
      <trkpt lat="43.47893" lon="2.37803">
        <ele>373.859</ele>
        <time>2021-05-23T10:17:25Z</time>
      </trkpt>
      <trkpt lat="43.47891" lon="2.37803">
        <ele>374.054</ele>
        <time>2021-05-23T10:17:27Z</time>
      </trkpt>
      <trkpt lat="43.47889" lon="2.37804">
        <ele>374.781</ele>
        <time>2021-05-23T10:17:29Z</time>
      </trkpt>
      <trkpt lat="43.47888" lon="2.37804">
        <ele>374.404</ele>
        <time>2021-05-23T10:17:31Z</time>
      </trkpt>
      <trkpt lat="43.47886" lon="2.37805">
        <ele>374.006</ele>
        <time>2021-05-23T10:17:33Z</time>
      </trkpt>
      <trkpt lat="43.47886" lon="2.37805">
        <ele>374.579</ele>
        <time>2021-05-23T10:17:35Z</time>
      </trkpt>
      <trkpt lat="43.47886" lon="2.37806">
        <ele>373.943</ele>
        <time>2021-05-23T10:17:37Z</time>
      </trkpt>
      <trkpt lat="43.47886" lon="2.37806">
        <ele>373.93</ele>
        <time>2021-05-23T10:17:39Z</time>
      </trkpt>
      <trkpt lat="43.47886" lon="2.37806">
        <ele>373.923</ele>
        <time>2021-05-23T10:17:41Z</time>
      </trkpt>
      <trkpt lat="43.47886" lon="2.37806">
        <ele>373.91</ele>
        <time>2021-05-23T10:17:43Z</time>
      </trkpt>
      <trkpt lat="43.47886" lon="2.37806">
        <ele>373.466</ele>
        <time>2021-05-23T10:17:45Z</time>
      </trkpt>
      <trkpt lat="43.47885" lon="2.37808">
        <ele>374.85</ele>
        <time>2021-05-23T10:17:47Z</time>
      </trkpt>
      <trkpt lat="43.47884" lon="2.3781">
        <ele>373.576</ele>
        <time>2021-05-23T10:17:49Z</time>
      </trkpt>
      <trkpt lat="43.47882" lon="2.3781">
        <ele>373.991</ele>
        <time>2021-05-23T10:17:51Z</time>
      </trkpt>
      <trkpt lat="43.47883" lon="2.37811">
        <ele>374.373</ele>
        <time>2021-05-23T10:17:53Z</time>
      </trkpt>
      <trkpt lat="43.47885" lon="2.37811">
        <ele>373.778</ele>
        <time>2021-05-23T10:17:55Z</time>
      </trkpt>
      <trkpt lat="43.47885" lon="2.37811">
        <ele>373.762</ele>
        <time>2021-05-23T10:17:57Z</time>
      </trkpt>
      <trkpt lat="43.47885" lon="2.37811">
        <ele>373.76</ele>
        <time>2021-05-23T10:17:59Z</time>
      </trkpt>
      <trkpt lat="43.47885" lon="2.3781">
        <ele>373.731</ele>
        <time>2021-05-23T10:18:01Z</time>
      </trkpt>
      <trkpt lat="43.47885" lon="2.3781">
        <ele>373.369</ele>
        <time>2021-05-23T10:18:03Z</time>
      </trkpt>
      <trkpt lat="43.47886" lon="2.37809">
        <ele>372.59</ele>
        <time>2021-05-23T10:18:05Z</time>
      </trkpt>
      <trkpt lat="43.47887" lon="2.37807">
        <ele>372.074</ele>
        <time>2021-05-23T10:18:07Z</time>
      </trkpt>
      <trkpt lat="43.47888" lon="2.37806">
        <ele>371.183</ele>
        <time>2021-05-23T10:18:09Z</time>
      </trkpt>
      <trkpt lat="43.47889" lon="2.37806">
        <ele>370.507</ele>
        <time>2021-05-23T10:18:11Z</time>
      </trkpt>
      <trkpt lat="43.47889" lon="2.37806">
        <ele>370.489</ele>
        <time>2021-05-23T10:18:13Z</time>
      </trkpt>
      <trkpt lat="43.47889" lon="2.37806">
        <ele>370.932</ele>
        <time>2021-05-23T10:18:15Z</time>
      </trkpt>
      <trkpt lat="43.47889" lon="2.37805">
        <ele>369.997</ele>
        <time>2021-05-23T10:18:17Z</time>
      </trkpt>
      <trkpt lat="43.47888" lon="2.37804">
        <ele>370.664</ele>
        <time>2021-05-23T10:18:19Z</time>
      </trkpt>
      <trkpt lat="43.47887" lon="2.37804">
        <ele>371.473</ele>
        <time>2021-05-23T10:18:21Z</time>
      </trkpt>
      <trkpt lat="43.47887" lon="2.37804">
        <ele>371.352</ele>
        <time>2021-05-23T10:18:23Z</time>
      </trkpt>
      <trkpt lat="43.47887" lon="2.37804">
        <ele>371.355</ele>
        <time>2021-05-23T10:18:25Z</time>
      </trkpt>
      <trkpt lat="43.47887" lon="2.37804">
        <ele>371.349</ele>
        <time>2021-05-23T10:18:27Z</time>
      </trkpt>
      <trkpt lat="43.47887" lon="2.37805">
        <ele>370.915</ele>
        <time>2021-05-23T10:18:29Z</time>
      </trkpt>
      <trkpt lat="43.47887" lon="2.37805">
        <ele>371.031</ele>
        <time>2021-05-23T10:18:31Z</time>
      </trkpt>
      <trkpt lat="43.47887" lon="2.37805">
        <ele>371.582</ele>
        <time>2021-05-23T10:18:33Z</time>
      </trkpt>
      <trkpt lat="43.47887" lon="2.37804">
        <ele>372.043</ele>
        <time>2021-05-23T10:18:35Z</time>
      </trkpt>
      <trkpt lat="43.47888" lon="2.37803">
        <ele>371.839</ele>
        <time>2021-05-23T10:18:37Z</time>
      </trkpt>
      <trkpt lat="43.4789" lon="2.37802">
        <ele>370.622</ele>
        <time>2021-05-23T10:18:39Z</time>
      </trkpt>
      <trkpt lat="43.47891" lon="2.37802">
        <ele>371.381</ele>
        <time>2021-05-23T10:18:41Z</time>
      </trkpt>
      <trkpt lat="43.47892" lon="2.37802">
        <ele>371.892</ele>
        <time>2021-05-23T10:18:43Z</time>
      </trkpt>
      <trkpt lat="43.47893" lon="2.37802">
        <ele>373.251</ele>
        <time>2021-05-23T10:18:45Z</time>
      </trkpt>
      <trkpt lat="43.47894" lon="2.37801">
        <ele>371.97</ele>
        <time>2021-05-23T10:18:47Z</time>
      </trkpt>
      <trkpt lat="43.47895" lon="2.37801">
        <ele>371.339</ele>
        <time>2021-05-23T10:18:49Z</time>
      </trkpt>
      <trkpt lat="43.47895" lon="2.37801">
        <ele>371.405</ele>
        <time>2021-05-23T10:18:51Z</time>
      </trkpt>
      <trkpt lat="43.47895" lon="2.37801">
        <ele>371.723</ele>
        <time>2021-05-23T10:18:53Z</time>
      </trkpt>
      <trkpt lat="43.47896" lon="2.378">
        <ele>371.627</ele>
        <time>2021-05-23T10:18:55Z</time>
      </trkpt>
      <trkpt lat="43.47898" lon="2.378">
        <ele>372.053</ele>
        <time>2021-05-23T10:18:57Z</time>
      </trkpt>
      <trkpt lat="43.47899" lon="2.378">
        <ele>370.853</ele>
        <time>2021-05-23T10:18:59Z</time>
      </trkpt>
      <trkpt lat="43.47901" lon="2.378">
        <ele>370.421</ele>
        <time>2021-05-23T10:19:01Z</time>
      </trkpt>
      <trkpt lat="43.47903" lon="2.37799">
        <ele>369.67</ele>
        <time>2021-05-23T10:19:03Z</time>
      </trkpt>
      <trkpt lat="43.47905" lon="2.37799">
        <ele>370.177</ele>
        <time>2021-05-23T10:19:05Z</time>
      </trkpt>
      <trkpt lat="43.47906" lon="2.37799">
        <ele>370.2</ele>
        <time>2021-05-23T10:19:07Z</time>
      </trkpt>
      <trkpt lat="43.47908" lon="2.378">
        <ele>370.305</ele>
        <time>2021-05-23T10:19:09Z</time>
      </trkpt>
      <trkpt lat="43.47909" lon="2.378">
        <ele>370.153</ele>
        <time>2021-05-23T10:19:11Z</time>
      </trkpt>
      <trkpt lat="43.47909" lon="2.37801">
        <ele>371.13</ele>
        <time>2021-05-23T10:19:13Z</time>
      </trkpt>
      <trkpt lat="43.47909" lon="2.378">
        <ele>370.779</ele>
        <time>2021-05-23T10:19:15Z</time>
      </trkpt>
      <trkpt lat="43.4791" lon="2.37799">
        <ele>370.472</ele>
        <time>2021-05-23T10:19:17Z</time>
      </trkpt>
      <trkpt lat="43.4791" lon="2.37799">
        <ele>370.473</ele>
        <time>2021-05-23T10:19:19Z</time>
      </trkpt>
      <trkpt lat="43.4791" lon="2.37799">
        <ele>370.227</ele>
        <time>2021-05-23T10:19:21Z</time>
      </trkpt>
      <trkpt lat="43.4791" lon="2.37799">
        <ele>370.23</ele>
        <time>2021-05-23T10:19:23Z</time>
      </trkpt>
      <trkpt lat="43.4791" lon="2.37799">
        <ele>370.232</ele>
        <time>2021-05-23T10:19:25Z</time>
      </trkpt>
      <trkpt lat="43.4791" lon="2.37799">
        <ele>370.237</ele>
        <time>2021-05-23T10:19:27Z</time>
      </trkpt>
      <trkpt lat="43.4791" lon="2.37799">
        <ele>370.245</ele>
        <time>2021-05-23T10:19:29Z</time>
      </trkpt>
      <trkpt lat="43.4791" lon="2.37799">
        <ele>370.253</ele>
        <time>2021-05-23T10:19:31Z</time>
      </trkpt>
      <trkpt lat="43.4791" lon="2.37799">
        <ele>370.264</ele>
        <time>2021-05-23T10:19:33Z</time>
      </trkpt>
      <trkpt lat="43.4791" lon="2.37799">
        <ele>370.278</ele>
        <time>2021-05-23T10:19:35Z</time>
      </trkpt>
      <trkpt lat="43.4791" lon="2.37799">
        <ele>370.27</ele>
        <time>2021-05-23T10:19:37Z</time>
      </trkpt>
      <trkpt lat="43.47909" lon="2.37799">
        <ele>370.296</ele>
        <time>2021-05-23T10:19:39Z</time>
      </trkpt>
      <trkpt lat="43.47909" lon="2.37799">
        <ele>370.295</ele>
        <time>2021-05-23T10:19:41Z</time>
      </trkpt>
      <trkpt lat="43.47909" lon="2.37799">
        <ele>370.288</ele>
        <time>2021-05-23T10:19:43Z</time>
      </trkpt>
      <trkpt lat="43.47909" lon="2.37799">
        <ele>370.288</ele>
        <time>2021-05-23T10:19:45Z</time>
      </trkpt>
      <trkpt lat="43.47909" lon="2.37799">
        <ele>370.289</ele>
        <time>2021-05-23T10:19:47Z</time>
      </trkpt>
      <trkpt lat="43.47909" lon="2.37799">
        <ele>370.298</ele>
        <time>2021-05-23T10:19:49Z</time>
      </trkpt>
      <trkpt lat="43.47909" lon="2.37799">
        <ele>370.306</ele>
        <time>2021-05-23T10:19:51Z</time>
      </trkpt>
      <trkpt lat="43.47909" lon="2.37799">
        <ele>370.308</ele>
        <time>2021-05-23T10:19:53Z</time>
      </trkpt>
      <trkpt lat="43.47909" lon="2.37799">
        <ele>370.308</ele>
        <time>2021-05-23T10:19:55Z</time>
      </trkpt>
      <trkpt lat="43.47909" lon="2.37799">
        <ele>370.313</ele>
        <time>2021-05-23T10:19:57Z</time>
      </trkpt>
      <trkpt lat="43.47909" lon="2.37799">
        <ele>370.316</ele>
        <time>2021-05-23T10:19:59Z</time>
      </trkpt>
      <trkpt lat="43.47909" lon="2.37799">
        <ele>370.32</ele>
        <time>2021-05-23T10:20:01Z</time>
      </trkpt>
      <trkpt lat="43.47909" lon="2.37799">
        <ele>370.321</ele>
        <time>2021-05-23T10:20:03Z</time>
      </trkpt>
      <trkpt lat="43.47909" lon="2.37799">
        <ele>370.33</ele>
        <time>2021-05-23T10:20:05Z</time>
      </trkpt>
      <trkpt lat="43.47909" lon="2.37799">
        <ele>370.329</ele>
        <time>2021-05-23T10:20:07Z</time>
      </trkpt>
      <trkpt lat="43.47909" lon="2.37799">
        <ele>370.333</ele>
        <time>2021-05-23T10:20:09Z</time>
      </trkpt>
      <trkpt lat="43.47909" lon="2.37799">
        <ele>370.336</ele>
        <time>2021-05-23T10:20:11Z</time>
      </trkpt>
      <trkpt lat="43.47909" lon="2.37799">
        <ele>370.337</ele>
        <time>2021-05-23T10:20:13Z</time>
      </trkpt>
      <trkpt lat="43.47909" lon="2.37799">
        <ele>370.408</ele>
        <time>2021-05-23T10:20:15Z</time>
      </trkpt>
      <trkpt lat="43.47909" lon="2.37799">
        <ele>370.37</ele>
        <time>2021-05-23T10:20:17Z</time>
      </trkpt>
      <trkpt lat="43.47909" lon="2.37799">
        <ele>370.37</ele>
        <time>2021-05-23T10:20:19Z</time>
      </trkpt>
      <trkpt lat="43.47909" lon="2.37799">
        <ele>370.379</ele>
        <time>2021-05-23T10:20:21Z</time>
      </trkpt>
      <trkpt lat="43.47909" lon="2.37799">
        <ele>370.385</ele>
        <time>2021-05-23T10:20:23Z</time>
      </trkpt>
      <trkpt lat="43.47909" lon="2.37799">
        <ele>370.393</ele>
        <time>2021-05-23T10:20:25Z</time>
      </trkpt>
      <trkpt lat="43.4791" lon="2.37799">
        <ele>372.276</ele>
        <time>2021-05-23T10:20:27Z</time>
      </trkpt>
      <trkpt lat="43.47911" lon="2.37798">
        <ele>372.932</ele>
        <time>2021-05-23T10:20:29Z</time>
      </trkpt>
      <trkpt lat="43.47912" lon="2.37797">
        <ele>372.441</ele>
        <time>2021-05-23T10:20:31Z</time>
      </trkpt>
      <trkpt lat="43.47912" lon="2.37796">
        <ele>372.721</ele>
        <time>2021-05-23T10:20:33Z</time>
      </trkpt>
      <trkpt lat="43.47913" lon="2.37796">
        <ele>372.655</ele>
        <time>2021-05-23T10:20:35Z</time>
      </trkpt>
      <trkpt lat="43.47913" lon="2.37796">
        <ele>372.653</ele>
        <time>2021-05-23T10:20:37Z</time>
      </trkpt>
      <trkpt lat="43.47913" lon="2.37795">
        <ele>372.686</ele>
        <time>2021-05-23T10:20:39Z</time>
      </trkpt>
      <trkpt lat="43.47912" lon="2.37794">
        <ele>372.246</ele>
        <time>2021-05-23T10:20:41Z</time>
      </trkpt>
      <trkpt lat="43.4791" lon="2.37793">
        <ele>372.672</ele>
        <time>2021-05-23T10:20:43Z</time>
      </trkpt>
      <trkpt lat="43.47909" lon="2.37793">
        <ele>373.596</ele>
        <time>2021-05-23T10:20:45Z</time>
      </trkpt>
      <trkpt lat="43.47908" lon="2.37794">
        <ele>373.06</ele>
        <time>2021-05-23T10:20:47Z</time>
      </trkpt>
      <trkpt lat="43.47906" lon="2.37794">
        <ele>373.162</ele>
        <time>2021-05-23T10:20:49Z</time>
      </trkpt>
      <trkpt lat="43.47904" lon="2.37793">
        <ele>373.532</ele>
        <time>2021-05-23T10:20:51Z</time>
      </trkpt>
      <trkpt lat="43.47903" lon="2.37792">
        <ele>374.732</ele>
        <time>2021-05-23T10:20:53Z</time>
      </trkpt>
      <trkpt lat="43.47902" lon="2.3779">
        <ele>375.256</ele>
        <time>2021-05-23T10:20:55Z</time>
      </trkpt>
      <trkpt lat="43.47902" lon="2.3779">
        <ele>376.856</ele>
        <time>2021-05-23T10:20:57Z</time>
      </trkpt>
      <trkpt lat="43.47902" lon="2.3779">
        <ele>373.836</ele>
        <time>2021-05-23T10:20:59Z</time>
      </trkpt>
      <trkpt lat="43.47901" lon="2.37792">
        <ele>373.862</ele>
        <time>2021-05-23T10:21:01Z</time>
      </trkpt>
      <trkpt lat="43.47903" lon="2.37792">
        <ele>370.948</ele>
        <time>2021-05-23T10:21:03Z</time>
      </trkpt>
      <trkpt lat="43.47903" lon="2.37794">
        <ele>371.234</ele>
        <time>2021-05-23T10:21:05Z</time>
      </trkpt>
      <trkpt lat="43.47905" lon="2.37792">
        <ele>370.284</ele>
        <time>2021-05-23T10:21:07Z</time>
      </trkpt>
      <trkpt lat="43.47905" lon="2.37791">
        <ele>370.664</ele>
        <time>2021-05-23T10:21:09Z</time>
      </trkpt>
      <trkpt lat="43.47905" lon="2.37791">
        <ele>370.677</ele>
        <time>2021-05-23T10:21:11Z</time>
      </trkpt>
      <trkpt lat="43.47905" lon="2.37791">
        <ele>370.687</ele>
        <time>2021-05-23T10:21:13Z</time>
      </trkpt>
      <trkpt lat="43.47905" lon="2.37791">
        <ele>370.703</ele>
        <time>2021-05-23T10:21:15Z</time>
      </trkpt>
      <trkpt lat="43.47905" lon="2.37791">
        <ele>370.834</ele>
        <time>2021-05-23T10:21:17Z</time>
      </trkpt>
      <trkpt lat="43.47905" lon="2.37791">
        <ele>370.857</ele>
        <time>2021-05-23T10:21:19Z</time>
      </trkpt>
      <trkpt lat="43.47905" lon="2.37791">
        <ele>370.874</ele>
        <time>2021-05-23T10:21:21Z</time>
      </trkpt>
      <trkpt lat="43.47905" lon="2.37791">
        <ele>370.88</ele>
        <time>2021-05-23T10:21:23Z</time>
      </trkpt>
      <trkpt lat="43.47905" lon="2.37791">
        <ele>370.877</ele>
        <time>2021-05-23T10:21:25Z</time>
      </trkpt>
      <trkpt lat="43.47905" lon="2.37791">
        <ele>370.872</ele>
        <time>2021-05-23T10:21:27Z</time>
      </trkpt>
      <trkpt lat="43.47905" lon="2.37791">
        <ele>370.875</ele>
        <time>2021-05-23T10:21:29Z</time>
      </trkpt>
      <trkpt lat="43.47906" lon="2.37791">
        <ele>370.964</ele>
        <time>2021-05-23T10:21:31Z</time>
      </trkpt>
      <trkpt lat="43.47906" lon="2.37791">
        <ele>370.964</ele>
        <time>2021-05-23T10:21:32Z</time>
      </trkpt>
      <trkpt lat="43.47906" lon="2.37791">
        <ele>371.207</ele>
        <time>2021-05-23T10:21:35Z</time>
      </trkpt>
      <trkpt lat="43.47906" lon="2.37791">
        <ele>371.6</ele>
        <time>2021-05-23T10:21:37Z</time>
      </trkpt>
      <trkpt lat="43.47906" lon="2.37791">
        <ele>371.647</ele>
        <time>2021-05-23T10:21:39Z</time>
      </trkpt>
      <trkpt lat="43.47906" lon="2.3779">
        <ele>371.543</ele>
        <time>2021-05-23T10:21:41Z</time>
      </trkpt>
      <trkpt lat="43.47906" lon="2.3779">
        <ele>371.532</ele>
        <time>2021-05-23T10:21:43Z</time>
      </trkpt>
      <trkpt lat="43.47906" lon="2.37791">
        <ele>371.614</ele>
        <time>2021-05-23T10:21:45Z</time>
      </trkpt>
      <trkpt lat="43.47905" lon="2.37791">
        <ele>371.694</ele>
        <time>2021-05-23T10:21:47Z</time>
      </trkpt>
      <trkpt lat="43.47904" lon="2.37791">
        <ele>371.237</ele>
        <time>2021-05-23T10:21:49Z</time>
      </trkpt>
      <trkpt lat="43.47903" lon="2.37792">
        <ele>370.396</ele>
        <time>2021-05-23T10:21:51Z</time>
      </trkpt>
      <trkpt lat="43.47903" lon="2.37794">
        <ele>369.707</ele>
        <time>2021-05-23T10:21:53Z</time>
      </trkpt>
      <trkpt lat="43.47906" lon="2.37793">
        <ele>367.286</ele>
        <time>2021-05-23T10:21:55Z</time>
      </trkpt>
      <trkpt lat="43.47907" lon="2.37792">
        <ele>367.339</ele>
        <time>2021-05-23T10:21:57Z</time>
      </trkpt>
      <trkpt lat="43.47909" lon="2.37792">
        <ele>366.236</ele>
        <time>2021-05-23T10:21:59Z</time>
      </trkpt>
      <trkpt lat="43.4791" lon="2.37791">
        <ele>366.132</ele>
        <time>2021-05-23T10:22:01Z</time>
      </trkpt>
      <trkpt lat="43.4791" lon="2.3779">
        <ele>365.876</ele>
        <time>2021-05-23T10:22:03Z</time>
      </trkpt>
      <trkpt lat="43.47911" lon="2.37789">
        <ele>365.411</ele>
        <time>2021-05-23T10:22:05Z</time>
      </trkpt>
      <trkpt lat="43.47913" lon="2.37788">
        <ele>365.097</ele>
        <time>2021-05-23T10:22:07Z</time>
      </trkpt>
      <trkpt lat="43.47914" lon="2.37787">
        <ele>363.902</ele>
        <time>2021-05-23T10:22:09Z</time>
      </trkpt>
      <trkpt lat="43.47914" lon="2.37787">
        <ele>364.029</ele>
        <time>2021-05-23T10:22:10Z</time>
      </trkpt>
      <trkpt lat="43.47915" lon="2.37787">
        <ele>364.696</ele>
        <time>2021-05-23T10:22:13Z</time>
      </trkpt>
      <trkpt lat="43.47916" lon="2.37788">
        <ele>365.197</ele>
        <time>2021-05-23T10:22:15Z</time>
      </trkpt>
      <trkpt lat="43.47916" lon="2.37787">
        <ele>365.413</ele>
        <time>2021-05-23T10:22:17Z</time>
      </trkpt>
      <trkpt lat="43.47917" lon="2.37786">
        <ele>364.839</ele>
        <time>2021-05-23T10:22:19Z</time>
      </trkpt>
      <trkpt lat="43.47918" lon="2.37784">
        <ele>364.687</ele>
        <time>2021-05-23T10:22:21Z</time>
      </trkpt>
      <trkpt lat="43.47919" lon="2.37783">
        <ele>365.13</ele>
        <time>2021-05-23T10:22:23Z</time>
      </trkpt>
      <trkpt lat="43.4792" lon="2.37783">
        <ele>366.276</ele>
        <time>2021-05-23T10:22:25Z</time>
      </trkpt>
      <trkpt lat="43.47921" lon="2.37782">
        <ele>366.508</ele>
        <time>2021-05-23T10:22:27Z</time>
      </trkpt>
      <trkpt lat="43.47922" lon="2.37782">
        <ele>366.481</ele>
        <time>2021-05-23T10:22:29Z</time>
      </trkpt>
      <trkpt lat="43.47924" lon="2.37782">
        <ele>366.795</ele>
        <time>2021-05-23T10:22:31Z</time>
      </trkpt>
      <trkpt lat="43.47925" lon="2.37783">
        <ele>366.303</ele>
        <time>2021-05-23T10:22:33Z</time>
      </trkpt>
      <trkpt lat="43.47925" lon="2.37784">
        <ele>366.223</ele>
        <time>2021-05-23T10:22:35Z</time>
      </trkpt>
      <trkpt lat="43.47927" lon="2.37785">
        <ele>366.169</ele>
        <time>2021-05-23T10:22:37Z</time>
      </trkpt>
      <trkpt lat="43.47927" lon="2.37787">
        <ele>365.976</ele>
        <time>2021-05-23T10:22:39Z</time>
      </trkpt>
      <trkpt lat="43.47928" lon="2.37789">
        <ele>366.113</ele>
        <time>2021-05-23T10:22:41Z</time>
      </trkpt>
      <trkpt lat="43.4793" lon="2.3779">
        <ele>366.191</ele>
        <time>2021-05-23T10:22:43Z</time>
      </trkpt>
      <trkpt lat="43.47932" lon="2.37791">
        <ele>366.031</ele>
        <time>2021-05-23T10:22:45Z</time>
      </trkpt>
      <trkpt lat="43.47933" lon="2.37791">
        <ele>367.996</ele>
        <time>2021-05-23T10:22:47Z</time>
      </trkpt>
      <trkpt lat="43.47935" lon="2.3779">
        <ele>370.394</ele>
        <time>2021-05-23T10:22:49Z</time>
      </trkpt>
      <trkpt lat="43.47935" lon="2.37786">
        <ele>370.201</ele>
        <time>2021-05-23T10:22:51Z</time>
      </trkpt>
      <trkpt lat="43.47933" lon="2.37784">
        <ele>367.37</ele>
        <time>2021-05-23T10:22:53Z</time>
      </trkpt>
      <trkpt lat="43.47933" lon="2.37782">
        <ele>366.944</ele>
        <time>2021-05-23T10:22:55Z</time>
      </trkpt>
      <trkpt lat="43.47932" lon="2.37779">
        <ele>367.127</ele>
        <time>2021-05-23T10:22:58Z</time>
      </trkpt>
      <trkpt lat="43.47931" lon="2.37776">
        <ele>366.182</ele>
        <time>2021-05-23T10:23:00Z</time>
      </trkpt>
      <trkpt lat="43.47932" lon="2.37774">
        <ele>365.252</ele>
        <time>2021-05-23T10:23:02Z</time>
      </trkpt>
      <trkpt lat="43.47932" lon="2.37772">
        <ele>365.766</ele>
        <time>2021-05-23T10:23:04Z</time>
      </trkpt>
      <trkpt lat="43.47931" lon="2.3777">
        <ele>366.293</ele>
        <time>2021-05-23T10:23:06Z</time>
      </trkpt>
      <trkpt lat="43.4793" lon="2.37767">
        <ele>366.166</ele>
        <time>2021-05-23T10:23:08Z</time>
      </trkpt>
      <trkpt lat="43.47929" lon="2.37765">
        <ele>366.154</ele>
        <time>2021-05-23T10:23:10Z</time>
      </trkpt>
      <trkpt lat="43.47929" lon="2.37766">
        <ele>365.358</ele>
        <time>2021-05-23T10:23:12Z</time>
      </trkpt>
      <trkpt lat="43.47929" lon="2.37766">
        <ele>365.36</ele>
        <time>2021-05-23T10:23:14Z</time>
      </trkpt>
      <trkpt lat="43.47929" lon="2.37766">
        <ele>365.352</ele>
        <time>2021-05-23T10:23:16Z</time>
      </trkpt>
      <trkpt lat="43.47929" lon="2.37766">
        <ele>365.349</ele>
        <time>2021-05-23T10:23:18Z</time>
      </trkpt>
      <trkpt lat="43.47929" lon="2.37766">
        <ele>365.345</ele>
        <time>2021-05-23T10:23:20Z</time>
      </trkpt>
      <trkpt lat="43.47929" lon="2.37766">
        <ele>365.342</ele>
        <time>2021-05-23T10:23:22Z</time>
      </trkpt>
      <trkpt lat="43.47929" lon="2.37766">
        <ele>365.34</ele>
        <time>2021-05-23T10:23:24Z</time>
      </trkpt>
      <trkpt lat="43.47929" lon="2.37765">
        <ele>365.249</ele>
        <time>2021-05-23T10:23:26Z</time>
      </trkpt>
      <trkpt lat="43.47929" lon="2.37763">
        <ele>365.819</ele>
        <time>2021-05-23T10:23:28Z</time>
      </trkpt>
      <trkpt lat="43.47927" lon="2.37761">
        <ele>366.162</ele>
        <time>2021-05-23T10:23:30Z</time>
      </trkpt>
      <trkpt lat="43.47926" lon="2.37759">
        <ele>367.437</ele>
        <time>2021-05-23T10:23:32Z</time>
      </trkpt>
      <trkpt lat="43.47925" lon="2.37758">
        <ele>368.203</ele>
        <time>2021-05-23T10:23:34Z</time>
      </trkpt>
      <trkpt lat="43.47924" lon="2.37757">
        <ele>368.91</ele>
        <time>2021-05-23T10:23:36Z</time>
      </trkpt>
      <trkpt lat="43.47922" lon="2.37756">
        <ele>368.3</ele>
        <time>2021-05-23T10:23:38Z</time>
      </trkpt>
      <trkpt lat="43.47921" lon="2.37755">
        <ele>368.239</ele>
        <time>2021-05-23T10:23:40Z</time>
      </trkpt>
      <trkpt lat="43.4792" lon="2.37753">
        <ele>368.204</ele>
        <time>2021-05-23T10:23:42Z</time>
      </trkpt>
      <trkpt lat="43.4792" lon="2.37752">
        <ele>368.94</ele>
        <time>2021-05-23T10:23:44Z</time>
      </trkpt>
      <trkpt lat="43.47919" lon="2.3775">
        <ele>369.578</ele>
        <time>2021-05-23T10:23:46Z</time>
      </trkpt>
      <trkpt lat="43.47919" lon="2.37749">
        <ele>369.001</ele>
        <time>2021-05-23T10:23:48Z</time>
      </trkpt>
      <trkpt lat="43.47918" lon="2.37747">
        <ele>370.23</ele>
        <time>2021-05-23T10:23:50Z</time>
      </trkpt>
      <trkpt lat="43.47917" lon="2.37745">
        <ele>370.292</ele>
        <time>2021-05-23T10:23:52Z</time>
      </trkpt>
      <trkpt lat="43.47916" lon="2.37745">
        <ele>370.866</ele>
        <time>2021-05-23T10:23:54Z</time>
      </trkpt>
      <trkpt lat="43.47916" lon="2.37746">
        <ele>372.515</ele>
        <time>2021-05-23T10:23:56Z</time>
      </trkpt>
      <trkpt lat="43.47916" lon="2.37748">
        <ele>372.859</ele>
        <time>2021-05-23T10:23:58Z</time>
      </trkpt>
      <trkpt lat="43.47916" lon="2.37749">
        <ele>374.187</ele>
        <time>2021-05-23T10:24:00Z</time>
      </trkpt>
      <trkpt lat="43.47915" lon="2.3775">
        <ele>375.342</ele>
        <time>2021-05-23T10:24:02Z</time>
      </trkpt>
      <trkpt lat="43.47914" lon="2.3775">
        <ele>374.373</ele>
        <time>2021-05-23T10:24:04Z</time>
      </trkpt>
      <trkpt lat="43.47914" lon="2.37747">
        <ele>374.931</ele>
        <time>2021-05-23T10:24:06Z</time>
      </trkpt>
      <trkpt lat="43.47913" lon="2.37745">
        <ele>374.721</ele>
        <time>2021-05-23T10:24:08Z</time>
      </trkpt>
      <trkpt lat="43.47913" lon="2.37743">
        <ele>375.398</ele>
        <time>2021-05-23T10:24:10Z</time>
      </trkpt>
      <trkpt lat="43.47912" lon="2.37741">
        <ele>376.221</ele>
        <time>2021-05-23T10:24:12Z</time>
      </trkpt>
      <trkpt lat="43.4791" lon="2.37739">
        <ele>377.164</ele>
        <time>2021-05-23T10:24:14Z</time>
      </trkpt>
      <trkpt lat="43.4791" lon="2.37739">
        <ele>378.145</ele>
        <time>2021-05-23T10:24:16Z</time>
      </trkpt>
      <trkpt lat="43.47909" lon="2.37737">
        <ele>378.496</ele>
        <time>2021-05-23T10:24:18Z</time>
      </trkpt>
      <trkpt lat="43.47909" lon="2.37735">
        <ele>379.331</ele>
        <time>2021-05-23T10:24:20Z</time>
      </trkpt>
      <trkpt lat="43.47908" lon="2.37734">
        <ele>379.748</ele>
        <time>2021-05-23T10:24:22Z</time>
      </trkpt>
      <trkpt lat="43.47908" lon="2.37732">
        <ele>380.696</ele>
        <time>2021-05-23T10:24:24Z</time>
      </trkpt>
      <trkpt lat="43.47907" lon="2.3773">
        <ele>380.566</ele>
        <time>2021-05-23T10:24:26Z</time>
      </trkpt>
      <trkpt lat="43.47908" lon="2.3773">
        <ele>380.766</ele>
        <time>2021-05-23T10:24:28Z</time>
      </trkpt>
      <trkpt lat="43.47907" lon="2.37727">
        <ele>381.541</ele>
        <time>2021-05-23T10:24:30Z</time>
      </trkpt>
      <trkpt lat="43.47906" lon="2.37725">
        <ele>381.51</ele>
        <time>2021-05-23T10:24:32Z</time>
      </trkpt>
      <trkpt lat="43.47905" lon="2.37721">
        <ele>381.242</ele>
        <time>2021-05-23T10:24:34Z</time>
      </trkpt>
      <trkpt lat="43.47904" lon="2.37719">
        <ele>381.411</ele>
        <time>2021-05-23T10:24:36Z</time>
      </trkpt>
      <trkpt lat="43.47903" lon="2.37718">
        <ele>381.24</ele>
        <time>2021-05-23T10:24:38Z</time>
      </trkpt>
      <trkpt lat="43.47901" lon="2.37715">
        <ele>380.915</ele>
        <time>2021-05-23T10:24:40Z</time>
      </trkpt>
      <trkpt lat="43.479" lon="2.37712">
        <ele>381.468</ele>
        <time>2021-05-23T10:24:42Z</time>
      </trkpt>
      <trkpt lat="43.47899" lon="2.37709">
        <ele>382.458</ele>
        <time>2021-05-23T10:24:44Z</time>
      </trkpt>
      <trkpt lat="43.47897" lon="2.37707">
        <ele>382.297</ele>
        <time>2021-05-23T10:24:46Z</time>
      </trkpt>
      <trkpt lat="43.47896" lon="2.37704">
        <ele>382.335</ele>
        <time>2021-05-23T10:24:48Z</time>
      </trkpt>
      <trkpt lat="43.47895" lon="2.37703">
        <ele>382.648</ele>
        <time>2021-05-23T10:24:50Z</time>
      </trkpt>
      <trkpt lat="43.47894" lon="2.37701">
        <ele>382.207</ele>
        <time>2021-05-23T10:24:52Z</time>
      </trkpt>
      <trkpt lat="43.47892" lon="2.377">
        <ele>382.207</ele>
        <time>2021-05-23T10:24:54Z</time>
      </trkpt>
      <trkpt lat="43.4789" lon="2.37697">
        <ele>383.242</ele>
        <time>2021-05-23T10:24:56Z</time>
      </trkpt>
      <trkpt lat="43.47889" lon="2.37696">
        <ele>382.467</ele>
        <time>2021-05-23T10:24:58Z</time>
      </trkpt>
      <trkpt lat="43.47887" lon="2.37694">
        <ele>382.725</ele>
        <time>2021-05-23T10:25:00Z</time>
      </trkpt>
      <trkpt lat="43.47886" lon="2.37692">
        <ele>383.409</ele>
        <time>2021-05-23T10:25:02Z</time>
      </trkpt>
      <trkpt lat="43.47884" lon="2.37691">
        <ele>382.221</ele>
        <time>2021-05-23T10:25:04Z</time>
      </trkpt>
      <trkpt lat="43.47883" lon="2.37688">
        <ele>382.909</ele>
        <time>2021-05-23T10:25:06Z</time>
      </trkpt>
      <trkpt lat="43.47881" lon="2.37687">
        <ele>383.328</ele>
        <time>2021-05-23T10:25:08Z</time>
      </trkpt>
      <trkpt lat="43.4788" lon="2.37685">
        <ele>384.101</ele>
        <time>2021-05-23T10:25:10Z</time>
      </trkpt>
      <trkpt lat="43.47878" lon="2.37684">
        <ele>384.727</ele>
        <time>2021-05-23T10:25:12Z</time>
      </trkpt>
      <trkpt lat="43.47877" lon="2.37682">
        <ele>384.95</ele>
        <time>2021-05-23T10:25:14Z</time>
      </trkpt>
      <trkpt lat="43.47876" lon="2.3768">
        <ele>385.983</ele>
        <time>2021-05-23T10:25:16Z</time>
      </trkpt>
      <trkpt lat="43.47875" lon="2.37679">
        <ele>385.968</ele>
        <time>2021-05-23T10:25:18Z</time>
      </trkpt>
      <trkpt lat="43.47874" lon="2.37677">
        <ele>386.529</ele>
        <time>2021-05-23T10:25:20Z</time>
      </trkpt>
      <trkpt lat="43.47872" lon="2.37674">
        <ele>386.601</ele>
        <time>2021-05-23T10:25:22Z</time>
      </trkpt>
      <trkpt lat="43.47871" lon="2.37672">
        <ele>387.313</ele>
        <time>2021-05-23T10:25:24Z</time>
      </trkpt>
      <trkpt lat="43.4787" lon="2.3767">
        <ele>386.807</ele>
        <time>2021-05-23T10:25:26Z</time>
      </trkpt>
      <trkpt lat="43.47868" lon="2.37669">
        <ele>386.258</ele>
        <time>2021-05-23T10:25:28Z</time>
      </trkpt>
      <trkpt lat="43.47867" lon="2.37667">
        <ele>386.122</ele>
        <time>2021-05-23T10:25:30Z</time>
      </trkpt>
      <trkpt lat="43.47866" lon="2.37666">
        <ele>386.962</ele>
        <time>2021-05-23T10:25:32Z</time>
      </trkpt>
      <trkpt lat="43.47865" lon="2.37664">
        <ele>388.045</ele>
        <time>2021-05-23T10:25:34Z</time>
      </trkpt>
      <trkpt lat="43.47864" lon="2.37662">
        <ele>388.414</ele>
        <time>2021-05-23T10:25:36Z</time>
      </trkpt>
      <trkpt lat="43.47863" lon="2.37661">
        <ele>388.53</ele>
        <time>2021-05-23T10:25:38Z</time>
      </trkpt>
      <trkpt lat="43.47863" lon="2.37659">
        <ele>388.916</ele>
        <time>2021-05-23T10:25:40Z</time>
      </trkpt>
      <trkpt lat="43.47861" lon="2.37658">
        <ele>389.321</ele>
        <time>2021-05-23T10:25:42Z</time>
      </trkpt>
      <trkpt lat="43.4786" lon="2.3766">
        <ele>390.235</ele>
        <time>2021-05-23T10:25:44Z</time>
      </trkpt>
      <trkpt lat="43.4786" lon="2.37662">
        <ele>389.917</ele>
        <time>2021-05-23T10:25:46Z</time>
      </trkpt>
      <trkpt lat="43.47859" lon="2.37664">
        <ele>391.864</ele>
        <time>2021-05-23T10:25:48Z</time>
      </trkpt>
      <trkpt lat="43.47859" lon="2.37666">
        <ele>392.331</ele>
        <time>2021-05-23T10:25:50Z</time>
      </trkpt>
      <trkpt lat="43.47859" lon="2.37667">
        <ele>394.005</ele>
        <time>2021-05-23T10:25:52Z</time>
      </trkpt>
      <trkpt lat="43.47858" lon="2.37669">
        <ele>395.28</ele>
        <time>2021-05-23T10:25:54Z</time>
      </trkpt>
      <trkpt lat="43.47857" lon="2.3767">
        <ele>395.962</ele>
        <time>2021-05-23T10:25:56Z</time>
      </trkpt>
      <trkpt lat="43.47857" lon="2.37672">
        <ele>395.562</ele>
        <time>2021-05-23T10:25:58Z</time>
      </trkpt>
      <trkpt lat="43.47858" lon="2.37673">
        <ele>396.963</ele>
        <time>2021-05-23T10:26:00Z</time>
      </trkpt>
      <trkpt lat="43.47859" lon="2.37674">
        <ele>395.926</ele>
        <time>2021-05-23T10:26:02Z</time>
      </trkpt>
      <trkpt lat="43.47859" lon="2.37676">
        <ele>395.456</ele>
        <time>2021-05-23T10:26:04Z</time>
      </trkpt>
      <trkpt lat="43.47861" lon="2.37678">
        <ele>395.481</ele>
        <time>2021-05-23T10:26:06Z</time>
      </trkpt>
      <trkpt lat="43.47861" lon="2.37681">
        <ele>393.559</ele>
        <time>2021-05-23T10:26:08Z</time>
      </trkpt>
      <trkpt lat="43.47861" lon="2.37684">
        <ele>393.73</ele>
        <time>2021-05-23T10:26:10Z</time>
      </trkpt>
      <trkpt lat="43.4786" lon="2.37686">
        <ele>395.282</ele>
        <time>2021-05-23T10:26:12Z</time>
      </trkpt>
      <trkpt lat="43.4786" lon="2.37689">
        <ele>396.103</ele>
        <time>2021-05-23T10:26:14Z</time>
      </trkpt>
      <trkpt lat="43.4786" lon="2.37691">
        <ele>396.319</ele>
        <time>2021-05-23T10:26:16Z</time>
      </trkpt>
      <trkpt lat="43.47859" lon="2.37694">
        <ele>397.247</ele>
        <time>2021-05-23T10:26:18Z</time>
      </trkpt>
      <trkpt lat="43.47858" lon="2.37695">
        <ele>397.997</ele>
        <time>2021-05-23T10:26:20Z</time>
      </trkpt>
      <trkpt lat="43.47858" lon="2.37696">
        <ele>397.42</ele>
        <time>2021-05-23T10:26:22Z</time>
      </trkpt>
      <trkpt lat="43.47857" lon="2.37696">
        <ele>397.924</ele>
        <time>2021-05-23T10:26:24Z</time>
      </trkpt>
      <trkpt lat="43.47856" lon="2.37697">
        <ele>397.878</ele>
        <time>2021-05-23T10:26:26Z</time>
      </trkpt>
      <trkpt lat="43.47856" lon="2.37698">
        <ele>398.875</ele>
        <time>2021-05-23T10:26:28Z</time>
      </trkpt>
      <trkpt lat="43.47856" lon="2.37698">
        <ele>399.406</ele>
        <time>2021-05-23T10:26:30Z</time>
      </trkpt>
      <trkpt lat="43.47856" lon="2.37698">
        <ele>399.408</ele>
        <time>2021-05-23T10:26:32Z</time>
      </trkpt>
      <trkpt lat="43.47856" lon="2.37699">
        <ele>399.38</ele>
        <time>2021-05-23T10:26:34Z</time>
      </trkpt>
      <trkpt lat="43.47856" lon="2.37701">
        <ele>399.598</ele>
        <time>2021-05-23T10:26:36Z</time>
      </trkpt>
      <trkpt lat="43.47856" lon="2.37702">
        <ele>399.794</ele>
        <time>2021-05-23T10:26:38Z</time>
      </trkpt>
      <trkpt lat="43.47855" lon="2.37702">
        <ele>400.409</ele>
        <time>2021-05-23T10:26:40Z</time>
      </trkpt>
      <trkpt lat="43.47855" lon="2.37704">
        <ele>400.841</ele>
        <time>2021-05-23T10:26:42Z</time>
      </trkpt>
      <trkpt lat="43.47854" lon="2.37705">
        <ele>401.054</ele>
        <time>2021-05-23T10:26:44Z</time>
      </trkpt>
      <trkpt lat="43.47853" lon="2.37707">
        <ele>402.962</ele>
        <time>2021-05-23T10:26:46Z</time>
      </trkpt>
      <trkpt lat="43.47851" lon="2.37709">
        <ele>403.007</ele>
        <time>2021-05-23T10:26:48Z</time>
      </trkpt>
      <trkpt lat="43.4785" lon="2.37711">
        <ele>403.345</ele>
        <time>2021-05-23T10:26:50Z</time>
      </trkpt>
      <trkpt lat="43.4785" lon="2.37711">
        <ele>403.834</ele>
        <time>2021-05-23T10:26:52Z</time>
      </trkpt>
      <trkpt lat="43.4785" lon="2.37711">
        <ele>403.825</ele>
        <time>2021-05-23T10:26:54Z</time>
      </trkpt>
      <trkpt lat="43.4785" lon="2.37711">
        <ele>403.816</ele>
        <time>2021-05-23T10:26:56Z</time>
      </trkpt>
      <trkpt lat="43.4785" lon="2.37711">
        <ele>403.81</ele>
        <time>2021-05-23T10:26:58Z</time>
      </trkpt>
      <trkpt lat="43.4785" lon="2.37711">
        <ele>403.71</ele>
        <time>2021-05-23T10:27:00Z</time>
      </trkpt>
      <trkpt lat="43.4785" lon="2.37711">
        <ele>402.832</ele>
        <time>2021-05-23T10:27:02Z</time>
      </trkpt>
      <trkpt lat="43.4785" lon="2.37711">
        <ele>402.69</ele>
        <time>2021-05-23T10:27:04Z</time>
      </trkpt>
      <trkpt lat="43.4785" lon="2.37711">
        <ele>402.46</ele>
        <time>2021-05-23T10:27:06Z</time>
      </trkpt>
      <trkpt lat="43.4785" lon="2.37711">
        <ele>402.453</ele>
        <time>2021-05-23T10:27:08Z</time>
      </trkpt>
      <trkpt lat="43.4785" lon="2.37714">
        <ele>403.746</ele>
        <time>2021-05-23T10:27:10Z</time>
      </trkpt>
      <trkpt lat="43.4785" lon="2.37717">
        <ele>404.217</ele>
        <time>2021-05-23T10:27:12Z</time>
      </trkpt>
      <trkpt lat="43.4785" lon="2.37717">
        <ele>403.936</ele>
        <time>2021-05-23T10:27:14Z</time>
      </trkpt>
      <trkpt lat="43.47852" lon="2.37718">
        <ele>404.249</ele>
        <time>2021-05-23T10:27:16Z</time>
      </trkpt>
      <trkpt lat="43.47853" lon="2.37717">
        <ele>405.159</ele>
        <time>2021-05-23T10:27:18Z</time>
      </trkpt>
      <trkpt lat="43.47854" lon="2.37716">
        <ele>404.4</ele>
        <time>2021-05-23T10:27:20Z</time>
      </trkpt>
      <trkpt lat="43.47854" lon="2.37718">
        <ele>404.376</ele>
        <time>2021-05-23T10:27:22Z</time>
      </trkpt>
      <trkpt lat="43.47854" lon="2.37719">
        <ele>404.87</ele>
        <time>2021-05-23T10:27:24Z</time>
      </trkpt>
      <trkpt lat="43.47854" lon="2.37718">
        <ele>404.819</ele>
        <time>2021-05-23T10:27:26Z</time>
      </trkpt>
      <trkpt lat="43.47854" lon="2.37718">
        <ele>404.805</ele>
        <time>2021-05-23T10:27:28Z</time>
      </trkpt>
      <trkpt lat="43.47854" lon="2.37719">
        <ele>404.417</ele>
        <time>2021-05-23T10:27:30Z</time>
      </trkpt>
      <trkpt lat="43.47854" lon="2.3772">
        <ele>404.252</ele>
        <time>2021-05-23T10:27:32Z</time>
      </trkpt>
      <trkpt lat="43.47854" lon="2.3772">
        <ele>404.244</ele>
        <time>2021-05-23T10:27:34Z</time>
      </trkpt>
      <trkpt lat="43.47854" lon="2.3772">
        <ele>404.461</ele>
        <time>2021-05-23T10:27:36Z</time>
      </trkpt>
      <trkpt lat="43.47853" lon="2.37721">
        <ele>404.698</ele>
        <time>2021-05-23T10:27:38Z</time>
      </trkpt>
      <trkpt lat="43.47853" lon="2.37721">
        <ele>404.718</ele>
        <time>2021-05-23T10:27:40Z</time>
      </trkpt>
      <trkpt lat="43.47853" lon="2.37721">
        <ele>404.722</ele>
        <time>2021-05-23T10:27:42Z</time>
      </trkpt>
      <trkpt lat="43.47853" lon="2.37721">
        <ele>404.728</ele>
        <time>2021-05-23T10:27:44Z</time>
      </trkpt>
      <trkpt lat="43.47854" lon="2.37721">
        <ele>404.588</ele>
        <time>2021-05-23T10:27:46Z</time>
      </trkpt>
      <trkpt lat="43.47854" lon="2.37721">
        <ele>404.595</ele>
        <time>2021-05-23T10:27:48Z</time>
      </trkpt>
      <trkpt lat="43.47854" lon="2.37721">
        <ele>404.594</ele>
        <time>2021-05-23T10:27:50Z</time>
      </trkpt>
      <trkpt lat="43.47854" lon="2.37721">
        <ele>404.435</ele>
        <time>2021-05-23T10:27:52Z</time>
      </trkpt>
      <trkpt lat="43.47854" lon="2.37721">
        <ele>404.434</ele>
        <time>2021-05-23T10:27:54Z</time>
      </trkpt>
      <trkpt lat="43.47854" lon="2.37721">
        <ele>404.636</ele>
        <time>2021-05-23T10:27:56Z</time>
      </trkpt>
      <trkpt lat="43.47853" lon="2.37721">
        <ele>404.623</ele>
        <time>2021-05-23T10:27:58Z</time>
      </trkpt>
      <trkpt lat="43.47853" lon="2.37721">
        <ele>404.615</ele>
        <time>2021-05-23T10:28:00Z</time>
      </trkpt>
      <trkpt lat="43.47853" lon="2.37721">
        <ele>404.618</ele>
        <time>2021-05-23T10:28:02Z</time>
      </trkpt>
      <trkpt lat="43.47853" lon="2.37721">
        <ele>404.622</ele>
        <time>2021-05-23T10:28:04Z</time>
      </trkpt>
      <trkpt lat="43.47853" lon="2.37721">
        <ele>404.631</ele>
        <time>2021-05-23T10:28:06Z</time>
      </trkpt>
      <trkpt lat="43.47853" lon="2.37721">
        <ele>404.638</ele>
        <time>2021-05-23T10:28:08Z</time>
      </trkpt>
      <trkpt lat="43.47853" lon="2.37721">
        <ele>404.644</ele>
        <time>2021-05-23T10:28:10Z</time>
      </trkpt>
      <trkpt lat="43.47853" lon="2.37721">
        <ele>404.648</ele>
        <time>2021-05-23T10:28:12Z</time>
      </trkpt>
      <trkpt lat="43.47853" lon="2.37721">
        <ele>404.649</ele>
        <time>2021-05-23T10:28:14Z</time>
      </trkpt>
      <trkpt lat="43.47853" lon="2.37721">
        <ele>404.649</ele>
        <time>2021-05-23T10:28:16Z</time>
      </trkpt>
      <trkpt lat="43.47853" lon="2.37721">
        <ele>405.113</ele>
        <time>2021-05-23T10:28:18Z</time>
      </trkpt>
      <trkpt lat="43.47853" lon="2.37721">
        <ele>405.123</ele>
        <time>2021-05-23T10:28:20Z</time>
      </trkpt>
      <trkpt lat="43.47853" lon="2.37721">
        <ele>405.125</ele>
        <time>2021-05-23T10:28:22Z</time>
      </trkpt>
      <trkpt lat="43.47853" lon="2.37721">
        <ele>405.126</ele>
        <time>2021-05-23T10:28:24Z</time>
      </trkpt>
      <trkpt lat="43.47853" lon="2.37721">
        <ele>405.131</ele>
        <time>2021-05-23T10:28:26Z</time>
      </trkpt>
      <trkpt lat="43.47853" lon="2.37721">
        <ele>405.13</ele>
        <time>2021-05-23T10:28:28Z</time>
      </trkpt>
      <trkpt lat="43.47853" lon="2.37721">
        <ele>405.128</ele>
        <time>2021-05-23T10:28:30Z</time>
      </trkpt>
      <trkpt lat="43.47853" lon="2.37721">
        <ele>405.127</ele>
        <time>2021-05-23T10:28:32Z</time>
      </trkpt>
      <trkpt lat="43.47853" lon="2.37722">
        <ele>405.779</ele>
        <time>2021-05-23T10:28:34Z</time>
      </trkpt>
      <trkpt lat="43.47854" lon="2.37724">
        <ele>406.101</ele>
        <time>2021-05-23T10:28:36Z</time>
      </trkpt>
      <trkpt lat="43.47854" lon="2.37725">
        <ele>406.502</ele>
        <time>2021-05-23T10:28:38Z</time>
      </trkpt>
      <trkpt lat="43.47854" lon="2.37726">
        <ele>406.329</ele>
        <time>2021-05-23T10:28:40Z</time>
      </trkpt>
      <trkpt lat="43.47854" lon="2.37726">
        <ele>406.174</ele>
        <time>2021-05-23T10:28:42Z</time>
      </trkpt>
      <trkpt lat="43.47854" lon="2.37727">
        <ele>406.294</ele>
        <time>2021-05-23T10:28:44Z</time>
      </trkpt>
      <trkpt lat="43.47854" lon="2.37728">
        <ele>405.839</ele>
        <time>2021-05-23T10:28:46Z</time>
      </trkpt>
      <trkpt lat="43.47854" lon="2.37728">
        <ele>405.718</ele>
        <time>2021-05-23T10:28:48Z</time>
      </trkpt>
      <trkpt lat="43.47854" lon="2.37729">
        <ele>405.201</ele>
        <time>2021-05-23T10:28:50Z</time>
      </trkpt>
      <trkpt lat="43.47852" lon="2.3773">
        <ele>404.444</ele>
        <time>2021-05-23T10:28:52Z</time>
      </trkpt>
      <trkpt lat="43.4785" lon="2.37732">
        <ele>404.295</ele>
        <time>2021-05-23T10:28:54Z</time>
      </trkpt>
      <trkpt lat="43.47848" lon="2.37733">
        <ele>403.608</ele>
        <time>2021-05-23T10:28:56Z</time>
      </trkpt>
      <trkpt lat="43.47845" lon="2.37735">
        <ele>402.86</ele>
        <time>2021-05-23T10:28:59Z</time>
      </trkpt>
      <trkpt lat="43.47843" lon="2.37736">
        <ele>402.296</ele>
        <time>2021-05-23T10:29:01Z</time>
      </trkpt>
      <trkpt lat="43.47841" lon="2.37738">
        <ele>402.213</ele>
        <time>2021-05-23T10:29:03Z</time>
      </trkpt>
      <trkpt lat="43.47839" lon="2.37739">
        <ele>401.03</ele>
        <time>2021-05-23T10:29:05Z</time>
      </trkpt>
      <trkpt lat="43.47837" lon="2.3774">
        <ele>399.894</ele>
        <time>2021-05-23T10:29:07Z</time>
      </trkpt>
      <trkpt lat="43.47835" lon="2.37742">
        <ele>400.311</ele>
        <time>2021-05-23T10:29:09Z</time>
      </trkpt>
      <trkpt lat="43.47834" lon="2.37743">
        <ele>400.491</ele>
        <time>2021-05-23T10:29:11Z</time>
      </trkpt>
      <trkpt lat="43.47832" lon="2.37744">
        <ele>399.906</ele>
        <time>2021-05-23T10:29:13Z</time>
      </trkpt>
      <trkpt lat="43.4783" lon="2.37746">
        <ele>399.691</ele>
        <time>2021-05-23T10:29:15Z</time>
      </trkpt>
      <trkpt lat="43.47828" lon="2.37748">
        <ele>400.378</ele>
        <time>2021-05-23T10:29:17Z</time>
      </trkpt>
      <trkpt lat="43.47827" lon="2.37749">
        <ele>400.573</ele>
        <time>2021-05-23T10:29:19Z</time>
      </trkpt>
      <trkpt lat="43.47824" lon="2.37751">
        <ele>400.401</ele>
        <time>2021-05-23T10:29:21Z</time>
      </trkpt>
      <trkpt lat="43.47823" lon="2.37752">
        <ele>399.819</ele>
        <time>2021-05-23T10:29:23Z</time>
      </trkpt>
      <trkpt lat="43.47821" lon="2.37753">
        <ele>399.922</ele>
        <time>2021-05-23T10:29:25Z</time>
      </trkpt>
      <trkpt lat="43.47819" lon="2.37754">
        <ele>399.931</ele>
        <time>2021-05-23T10:29:27Z</time>
      </trkpt>
      <trkpt lat="43.47817" lon="2.37756">
        <ele>398.951</ele>
        <time>2021-05-23T10:29:29Z</time>
      </trkpt>
      <trkpt lat="43.47815" lon="2.37757">
        <ele>398.888</ele>
        <time>2021-05-23T10:29:31Z</time>
      </trkpt>
      <trkpt lat="43.47813" lon="2.37759">
        <ele>398.602</ele>
        <time>2021-05-23T10:29:33Z</time>
      </trkpt>
      <trkpt lat="43.47811" lon="2.37761">
        <ele>398.931</ele>
        <time>2021-05-23T10:29:35Z</time>
      </trkpt>
      <trkpt lat="43.47809" lon="2.37762">
        <ele>398.462</ele>
        <time>2021-05-23T10:29:37Z</time>
      </trkpt>
      <trkpt lat="43.47807" lon="2.37764">
        <ele>399.04</ele>
        <time>2021-05-23T10:29:39Z</time>
      </trkpt>
      <trkpt lat="43.47805" lon="2.37766">
        <ele>399.486</ele>
        <time>2021-05-23T10:29:41Z</time>
      </trkpt>
      <trkpt lat="43.47803" lon="2.37768">
        <ele>399.326</ele>
        <time>2021-05-23T10:29:43Z</time>
      </trkpt>
      <trkpt lat="43.47801" lon="2.37769">
        <ele>399.192</ele>
        <time>2021-05-23T10:29:45Z</time>
      </trkpt>
      <trkpt lat="43.478" lon="2.37771">
        <ele>398.929</ele>
        <time>2021-05-23T10:29:47Z</time>
      </trkpt>
      <trkpt lat="43.47799" lon="2.37772">
        <ele>398.204</ele>
        <time>2021-05-23T10:29:49Z</time>
      </trkpt>
      <trkpt lat="43.47797" lon="2.37773">
        <ele>398.97</ele>
        <time>2021-05-23T10:29:51Z</time>
      </trkpt>
      <trkpt lat="43.47795" lon="2.37775">
        <ele>398.435</ele>
        <time>2021-05-23T10:29:53Z</time>
      </trkpt>
      <trkpt lat="43.47793" lon="2.37777">
        <ele>398.145</ele>
        <time>2021-05-23T10:29:55Z</time>
      </trkpt>
      <trkpt lat="43.47791" lon="2.37778">
        <ele>397.909</ele>
        <time>2021-05-23T10:29:57Z</time>
      </trkpt>
      <trkpt lat="43.47789" lon="2.37779">
        <ele>397.922</ele>
        <time>2021-05-23T10:29:59Z</time>
      </trkpt>
      <trkpt lat="43.47788" lon="2.37781">
        <ele>398.038</ele>
        <time>2021-05-23T10:30:01Z</time>
      </trkpt>
      <trkpt lat="43.47786" lon="2.37782">
        <ele>398.93</ele>
        <time>2021-05-23T10:30:03Z</time>
      </trkpt>
      <trkpt lat="43.47785" lon="2.37784">
        <ele>398.593</ele>
        <time>2021-05-23T10:30:05Z</time>
      </trkpt>
      <trkpt lat="43.47783" lon="2.37785">
        <ele>398.07</ele>
        <time>2021-05-23T10:30:07Z</time>
      </trkpt>
      <trkpt lat="43.47781" lon="2.37786">
        <ele>397.86</ele>
        <time>2021-05-23T10:30:09Z</time>
      </trkpt>
      <trkpt lat="43.47779" lon="2.37788">
        <ele>398.268</ele>
        <time>2021-05-23T10:30:11Z</time>
      </trkpt>
      <trkpt lat="43.47778" lon="2.37789">
        <ele>397.749</ele>
        <time>2021-05-23T10:30:13Z</time>
      </trkpt>
      <trkpt lat="43.47776" lon="2.3779">
        <ele>396.976</ele>
        <time>2021-05-23T10:30:15Z</time>
      </trkpt>
      <trkpt lat="43.47775" lon="2.37791">
        <ele>396.316</ele>
        <time>2021-05-23T10:30:17Z</time>
      </trkpt>
      <trkpt lat="43.47773" lon="2.37792">
        <ele>396.013</ele>
        <time>2021-05-23T10:30:19Z</time>
      </trkpt>
      <trkpt lat="43.47772" lon="2.37793">
        <ele>396.565</ele>
        <time>2021-05-23T10:30:21Z</time>
      </trkpt>
      <trkpt lat="43.4777" lon="2.37794">
        <ele>395.937</ele>
        <time>2021-05-23T10:30:23Z</time>
      </trkpt>
      <trkpt lat="43.47768" lon="2.37796">
        <ele>396.047</ele>
        <time>2021-05-23T10:30:25Z</time>
      </trkpt>
      <trkpt lat="43.47767" lon="2.37796">
        <ele>395.865</ele>
        <time>2021-05-23T10:30:27Z</time>
      </trkpt>
      <trkpt lat="43.47765" lon="2.37797">
        <ele>396.095</ele>
        <time>2021-05-23T10:30:29Z</time>
      </trkpt>
      <trkpt lat="43.47763" lon="2.37799">
        <ele>395.855</ele>
        <time>2021-05-23T10:30:31Z</time>
      </trkpt>
      <trkpt lat="43.47762" lon="2.37799">
        <ele>396.774</ele>
        <time>2021-05-23T10:30:33Z</time>
      </trkpt>
      <trkpt lat="43.4776" lon="2.37801">
        <ele>397.158</ele>
        <time>2021-05-23T10:30:35Z</time>
      </trkpt>
      <trkpt lat="43.47758" lon="2.37802">
        <ele>398.503</ele>
        <time>2021-05-23T10:30:37Z</time>
      </trkpt>
      <trkpt lat="43.47756" lon="2.37803">
        <ele>398.876</ele>
        <time>2021-05-23T10:30:39Z</time>
      </trkpt>
      <trkpt lat="43.47755" lon="2.37804">
        <ele>399.386</ele>
        <time>2021-05-23T10:30:41Z</time>
      </trkpt>
      <trkpt lat="43.47754" lon="2.37805">
        <ele>398.959</ele>
        <time>2021-05-23T10:30:43Z</time>
      </trkpt>
      <trkpt lat="43.47752" lon="2.37806">
        <ele>398.6</ele>
        <time>2021-05-23T10:30:45Z</time>
      </trkpt>
      <trkpt lat="43.47751" lon="2.37807">
        <ele>399.349</ele>
        <time>2021-05-23T10:30:47Z</time>
      </trkpt>
      <trkpt lat="43.47749" lon="2.37808">
        <ele>399.393</ele>
        <time>2021-05-23T10:30:49Z</time>
      </trkpt>
      <trkpt lat="43.47747" lon="2.37809">
        <ele>398.393</ele>
        <time>2021-05-23T10:30:51Z</time>
      </trkpt>
      <trkpt lat="43.47746" lon="2.37811">
        <ele>399.032</ele>
        <time>2021-05-23T10:30:53Z</time>
      </trkpt>
      <trkpt lat="43.47744" lon="2.37812">
        <ele>399.258</ele>
        <time>2021-05-23T10:30:55Z</time>
      </trkpt>
      <trkpt lat="43.47742" lon="2.37813">
        <ele>398.437</ele>
        <time>2021-05-23T10:30:57Z</time>
      </trkpt>
      <trkpt lat="43.4774" lon="2.37815">
        <ele>397.335</ele>
        <time>2021-05-23T10:30:59Z</time>
      </trkpt>
      <trkpt lat="43.47739" lon="2.37816">
        <ele>397.696</ele>
        <time>2021-05-23T10:31:01Z</time>
      </trkpt>
      <trkpt lat="43.47738" lon="2.37818">
        <ele>397.881</ele>
        <time>2021-05-23T10:31:03Z</time>
      </trkpt>
      <trkpt lat="43.47737" lon="2.3782">
        <ele>398.276</ele>
        <time>2021-05-23T10:31:05Z</time>
      </trkpt>
      <trkpt lat="43.47736" lon="2.37821">
        <ele>399.102</ele>
        <time>2021-05-23T10:31:07Z</time>
      </trkpt>
      <trkpt lat="43.47736" lon="2.37821">
        <ele>399.112</ele>
        <time>2021-05-23T10:31:09Z</time>
      </trkpt>
      <trkpt lat="43.47736" lon="2.37821">
        <ele>399.113</ele>
        <time>2021-05-23T10:31:11Z</time>
      </trkpt>
      <trkpt lat="43.47736" lon="2.37822">
        <ele>399.433</ele>
        <time>2021-05-23T10:31:13Z</time>
      </trkpt>
      <trkpt lat="43.47736" lon="2.37822">
        <ele>399.429</ele>
        <time>2021-05-23T10:31:15Z</time>
      </trkpt>
      <trkpt lat="43.47736" lon="2.37822">
        <ele>399.429</ele>
        <time>2021-05-23T10:31:17Z</time>
      </trkpt>
      <trkpt lat="43.47736" lon="2.37822">
        <ele>399.43</ele>
        <time>2021-05-23T10:31:19Z</time>
      </trkpt>
      <trkpt lat="43.47736" lon="2.37822">
        <ele>399.434</ele>
        <time>2021-05-23T10:31:21Z</time>
      </trkpt>
      <trkpt lat="43.47736" lon="2.37822">
        <ele>399.432</ele>
        <time>2021-05-23T10:31:23Z</time>
      </trkpt>
      <trkpt lat="43.47736" lon="2.37822">
        <ele>399.383</ele>
        <time>2021-05-23T10:31:25Z</time>
      </trkpt>
      <trkpt lat="43.47736" lon="2.37822">
        <ele>399.388</ele>
        <time>2021-05-23T10:31:27Z</time>
      </trkpt>
      <trkpt lat="43.47736" lon="2.37822">
        <ele>399.399</ele>
        <time>2021-05-23T10:31:29Z</time>
      </trkpt>
      <trkpt lat="43.47736" lon="2.37822">
        <ele>399.391</ele>
        <time>2021-05-23T10:31:31Z</time>
      </trkpt>
      <trkpt lat="43.47736" lon="2.37822">
        <ele>399.389</ele>
        <time>2021-05-23T10:31:33Z</time>
      </trkpt>
      <trkpt lat="43.47736" lon="2.37822">
        <ele>399.401</ele>
        <time>2021-05-23T10:31:35Z</time>
      </trkpt>
      <trkpt lat="43.47736" lon="2.37822">
        <ele>399.403</ele>
        <time>2021-05-23T10:31:37Z</time>
      </trkpt>
      <trkpt lat="43.47736" lon="2.37822">
        <ele>399.407</ele>
        <time>2021-05-23T10:31:39Z</time>
      </trkpt>
      <trkpt lat="43.47736" lon="2.37822">
        <ele>399.398</ele>
        <time>2021-05-23T10:31:41Z</time>
      </trkpt>
      <trkpt lat="43.47736" lon="2.37822">
        <ele>399.42</ele>
        <time>2021-05-23T10:31:43Z</time>
      </trkpt>
      <trkpt lat="43.47736" lon="2.37822">
        <ele>399.418</ele>
        <time>2021-05-23T10:31:45Z</time>
      </trkpt>
      <trkpt lat="43.47736" lon="2.37822">
        <ele>399.413</ele>
        <time>2021-05-23T10:31:47Z</time>
      </trkpt>
      <trkpt lat="43.47736" lon="2.37822">
        <ele>399.411</ele>
        <time>2021-05-23T10:31:49Z</time>
      </trkpt>
      <trkpt lat="43.47736" lon="2.37822">
        <ele>399.407</ele>
        <time>2021-05-23T10:31:51Z</time>
      </trkpt>
      <trkpt lat="43.47736" lon="2.37822">
        <ele>399.417</ele>
        <time>2021-05-23T10:31:53Z</time>
      </trkpt>
      <trkpt lat="43.47736" lon="2.37822">
        <ele>399.427</ele>
        <time>2021-05-23T10:31:55Z</time>
      </trkpt>
      <trkpt lat="43.47736" lon="2.37822">
        <ele>399.444</ele>
        <time>2021-05-23T10:31:57Z</time>
      </trkpt>
      <trkpt lat="43.47736" lon="2.37822">
        <ele>399.46</ele>
        <time>2021-05-23T10:31:59Z</time>
      </trkpt>
      <trkpt lat="43.47736" lon="2.37822">
        <ele>399.475</ele>
        <time>2021-05-23T10:32:01Z</time>
      </trkpt>
      <trkpt lat="43.47736" lon="2.37822">
        <ele>399.475</ele>
        <time>2021-05-23T10:32:03Z</time>
      </trkpt>
      <trkpt lat="43.47736" lon="2.37822">
        <ele>399.472</ele>
        <time>2021-05-23T10:32:05Z</time>
      </trkpt>
      <trkpt lat="43.47736" lon="2.37822">
        <ele>399.471</ele>
        <time>2021-05-23T10:32:07Z</time>
      </trkpt>
      <trkpt lat="43.47736" lon="2.37822">
        <ele>399.471</ele>
        <time>2021-05-23T10:32:09Z</time>
      </trkpt>
      <trkpt lat="43.47736" lon="2.37822">
        <ele>399.47</ele>
        <time>2021-05-23T10:32:11Z</time>
      </trkpt>
      <trkpt lat="43.47736" lon="2.37822">
        <ele>399.472</ele>
        <time>2021-05-23T10:32:13Z</time>
      </trkpt>
      <trkpt lat="43.47736" lon="2.37822">
        <ele>399.466</ele>
        <time>2021-05-23T10:32:15Z</time>
      </trkpt>
      <trkpt lat="43.47736" lon="2.37822">
        <ele>399.469</ele>
        <time>2021-05-23T10:32:17Z</time>
      </trkpt>
      <trkpt lat="43.47736" lon="2.37822">
        <ele>399.468</ele>
        <time>2021-05-23T10:32:19Z</time>
      </trkpt>
      <trkpt lat="43.47736" lon="2.37822">
        <ele>399.466</ele>
        <time>2021-05-23T10:32:21Z</time>
      </trkpt>
      <trkpt lat="43.47736" lon="2.37822">
        <ele>399.464</ele>
        <time>2021-05-23T10:32:23Z</time>
      </trkpt>
      <trkpt lat="43.47736" lon="2.37822">
        <ele>399.469</ele>
        <time>2021-05-23T10:32:25Z</time>
      </trkpt>
      <trkpt lat="43.47736" lon="2.37822">
        <ele>399.471</ele>
        <time>2021-05-23T10:32:27Z</time>
      </trkpt>
      <trkpt lat="43.47736" lon="2.37822">
        <ele>399.472</ele>
        <time>2021-05-23T10:32:29Z</time>
      </trkpt>
      <trkpt lat="43.47736" lon="2.37822">
        <ele>399.469</ele>
        <time>2021-05-23T10:32:31Z</time>
      </trkpt>
      <trkpt lat="43.47736" lon="2.37822">
        <ele>399.465</ele>
        <time>2021-05-23T10:32:33Z</time>
      </trkpt>
      <trkpt lat="43.47736" lon="2.37822">
        <ele>399.461</ele>
        <time>2021-05-23T10:32:35Z</time>
      </trkpt>
      <trkpt lat="43.47736" lon="2.37822">
        <ele>399.461</ele>
        <time>2021-05-23T10:32:37Z</time>
      </trkpt>
      <trkpt lat="43.47736" lon="2.37822">
        <ele>399.456</ele>
        <time>2021-05-23T10:32:39Z</time>
      </trkpt>
      <trkpt lat="43.47736" lon="2.37823">
        <ele>399.323</ele>
        <time>2021-05-23T10:32:41Z</time>
      </trkpt>
      <trkpt lat="43.47734" lon="2.37824">
        <ele>399.111</ele>
        <time>2021-05-23T10:32:43Z</time>
      </trkpt>
      <trkpt lat="43.47733" lon="2.37827">
        <ele>398.658</ele>
        <time>2021-05-23T10:32:45Z</time>
      </trkpt>
      <trkpt lat="43.47733" lon="2.37829">
        <ele>398.941</ele>
        <time>2021-05-23T10:32:47Z</time>
      </trkpt>
      <trkpt lat="43.47732" lon="2.3783">
        <ele>398.944</ele>
        <time>2021-05-23T10:32:49Z</time>
      </trkpt>
      <trkpt lat="43.47732" lon="2.37832">
        <ele>398.24</ele>
        <time>2021-05-23T10:32:51Z</time>
      </trkpt>
      <trkpt lat="43.47732" lon="2.37834">
        <ele>398.454</ele>
        <time>2021-05-23T10:32:53Z</time>
      </trkpt>
      <trkpt lat="43.4773" lon="2.37835">
        <ele>399.577</ele>
        <time>2021-05-23T10:32:55Z</time>
      </trkpt>
      <trkpt lat="43.47728" lon="2.37835">
        <ele>400.419</ele>
        <time>2021-05-23T10:32:57Z</time>
      </trkpt>
      <trkpt lat="43.47726" lon="2.37835">
        <ele>400.654</ele>
        <time>2021-05-23T10:32:59Z</time>
      </trkpt>
      <trkpt lat="43.47724" lon="2.37835">
        <ele>400.555</ele>
        <time>2021-05-23T10:33:01Z</time>
      </trkpt>
      <trkpt lat="43.47724" lon="2.37835">
        <ele>400.549</ele>
        <time>2021-05-23T10:33:03Z</time>
      </trkpt>
      <trkpt lat="43.47724" lon="2.37835">
        <ele>400.571</ele>
        <time>2021-05-23T10:33:05Z</time>
      </trkpt>
      <trkpt lat="43.47724" lon="2.37834">
        <ele>400.981</ele>
        <time>2021-05-23T10:33:07Z</time>
      </trkpt>
      <trkpt lat="43.47722" lon="2.37835">
        <ele>402.184</ele>
        <time>2021-05-23T10:33:09Z</time>
      </trkpt>
      <trkpt lat="43.4772" lon="2.37836">
        <ele>402.648</ele>
        <time>2021-05-23T10:33:11Z</time>
      </trkpt>
      <trkpt lat="43.47719" lon="2.37837">
        <ele>404.191</ele>
        <time>2021-05-23T10:33:13Z</time>
      </trkpt>
      <trkpt lat="43.47717" lon="2.37837">
        <ele>405.054</ele>
        <time>2021-05-23T10:33:15Z</time>
      </trkpt>
      <trkpt lat="43.47715" lon="2.37838">
        <ele>406.993</ele>
        <time>2021-05-23T10:33:17Z</time>
      </trkpt>
      <trkpt lat="43.47714" lon="2.37839">
        <ele>408.434</ele>
        <time>2021-05-23T10:33:19Z</time>
      </trkpt>
      <trkpt lat="43.47713" lon="2.37839">
        <ele>409.222</ele>
        <time>2021-05-23T10:33:21Z</time>
      </trkpt>
      <trkpt lat="43.47712" lon="2.37839">
        <ele>410.773</ele>
        <time>2021-05-23T10:33:23Z</time>
      </trkpt>
      <trkpt lat="43.47711" lon="2.37839">
        <ele>410.447</ele>
        <time>2021-05-23T10:33:25Z</time>
      </trkpt>
      <trkpt lat="43.4771" lon="2.37839">
        <ele>410.627</ele>
        <time>2021-05-23T10:33:27Z</time>
      </trkpt>
      <trkpt lat="43.47709" lon="2.37838">
        <ele>410.617</ele>
        <time>2021-05-23T10:33:29Z</time>
      </trkpt>
      <trkpt lat="43.47708" lon="2.37838">
        <ele>412.293</ele>
        <time>2021-05-23T10:33:31Z</time>
      </trkpt>
      <trkpt lat="43.47708" lon="2.37838">
        <ele>412.285</ele>
        <time>2021-05-23T10:33:33Z</time>
      </trkpt>
      <trkpt lat="43.47708" lon="2.37838">
        <ele>412.284</ele>
        <time>2021-05-23T10:33:35Z</time>
      </trkpt>
      <trkpt lat="43.47708" lon="2.37838">
        <ele>412.285</ele>
        <time>2021-05-23T10:33:37Z</time>
      </trkpt>
      <trkpt lat="43.47708" lon="2.37838">
        <ele>412.288</ele>
        <time>2021-05-23T10:33:39Z</time>
      </trkpt>
      <trkpt lat="43.47708" lon="2.37838">
        <ele>412.295</ele>
        <time>2021-05-23T10:33:41Z</time>
      </trkpt>
      <trkpt lat="43.47708" lon="2.37838">
        <ele>412.304</ele>
        <time>2021-05-23T10:33:43Z</time>
      </trkpt>
      <trkpt lat="43.47708" lon="2.37838">
        <ele>412.477</ele>
        <time>2021-05-23T10:33:45Z</time>
      </trkpt>
      <trkpt lat="43.47708" lon="2.37837">
        <ele>412.459</ele>
        <time>2021-05-23T10:33:47Z</time>
      </trkpt>
      <trkpt lat="43.47708" lon="2.37837">
        <ele>412.452</ele>
        <time>2021-05-23T10:33:49Z</time>
      </trkpt>
      <trkpt lat="43.47708" lon="2.37837">
        <ele>412.456</ele>
        <time>2021-05-23T10:33:51Z</time>
      </trkpt>
      <trkpt lat="43.47708" lon="2.37837">
        <ele>412.45</ele>
        <time>2021-05-23T10:33:53Z</time>
      </trkpt>
      <trkpt lat="43.47709" lon="2.37837">
        <ele>412.25</ele>
        <time>2021-05-23T10:33:55Z</time>
      </trkpt>
      <trkpt lat="43.47709" lon="2.37837">
        <ele>412.257</ele>
        <time>2021-05-23T10:33:57Z</time>
      </trkpt>
      <trkpt lat="43.47709" lon="2.37837">
        <ele>412.257</ele>
        <time>2021-05-23T10:33:59Z</time>
      </trkpt>
      <trkpt lat="43.47708" lon="2.37837">
        <ele>412.178</ele>
        <time>2021-05-23T10:34:01Z</time>
      </trkpt>
      <trkpt lat="43.47708" lon="2.37837">
        <ele>412.35</ele>
        <time>2021-05-23T10:34:03Z</time>
      </trkpt>
      <trkpt lat="43.47708" lon="2.37837">
        <ele>412.35</ele>
        <time>2021-05-23T10:34:05Z</time>
      </trkpt>
      <trkpt lat="43.47708" lon="2.37836">
        <ele>412.353</ele>
        <time>2021-05-23T10:34:07Z</time>
      </trkpt>
      <trkpt lat="43.47707" lon="2.37837">
        <ele>412.27</ele>
        <time>2021-05-23T10:34:09Z</time>
      </trkpt>
      <trkpt lat="43.47706" lon="2.37837">
        <ele>412.741</ele>
        <time>2021-05-23T10:34:11Z</time>
      </trkpt>
      <trkpt lat="43.47706" lon="2.37837">
        <ele>412.659</ele>
        <time>2021-05-23T10:34:13Z</time>
      </trkpt>
      <trkpt lat="43.47706" lon="2.37837">
        <ele>412.662</ele>
        <time>2021-05-23T10:34:15Z</time>
      </trkpt>
      <trkpt lat="43.47705" lon="2.37836">
        <ele>411.862</ele>
        <time>2021-05-23T10:34:17Z</time>
      </trkpt>
      <trkpt lat="43.47704" lon="2.37836">
        <ele>412.533</ele>
        <time>2021-05-23T10:34:19Z</time>
      </trkpt>
      <trkpt lat="43.47703" lon="2.37835">
        <ele>412.873</ele>
        <time>2021-05-23T10:34:21Z</time>
      </trkpt>
      <trkpt lat="43.47701" lon="2.37836">
        <ele>412.453</ele>
        <time>2021-05-23T10:34:23Z</time>
      </trkpt>
      <trkpt lat="43.47699" lon="2.37835">
        <ele>412.61</ele>
        <time>2021-05-23T10:34:25Z</time>
      </trkpt>
      <trkpt lat="43.47698" lon="2.37836">
        <ele>412.074</ele>
        <time>2021-05-23T10:34:27Z</time>
      </trkpt>
      <trkpt lat="43.47698" lon="2.37839">
        <ele>411.562</ele>
        <time>2021-05-23T10:34:29Z</time>
      </trkpt>
      <trkpt lat="43.47699" lon="2.37841">
        <ele>411.421</ele>
        <time>2021-05-23T10:34:31Z</time>
      </trkpt>
      <trkpt lat="43.47701" lon="2.37842">
        <ele>411.941</ele>
        <time>2021-05-23T10:34:33Z</time>
      </trkpt>
      <trkpt lat="43.47702" lon="2.37844">
        <ele>412.055</ele>
        <time>2021-05-23T10:34:35Z</time>
      </trkpt>
      <trkpt lat="43.47702" lon="2.37845">
        <ele>412.262</ele>
        <time>2021-05-23T10:34:37Z</time>
      </trkpt>
      <trkpt lat="43.47701" lon="2.37845">
        <ele>413.063</ele>
        <time>2021-05-23T10:34:39Z</time>
      </trkpt>
      <trkpt lat="43.477" lon="2.37845">
        <ele>413.119</ele>
        <time>2021-05-23T10:34:41Z</time>
      </trkpt>
      <trkpt lat="43.47698" lon="2.37844">
        <ele>412.793</ele>
        <time>2021-05-23T10:34:43Z</time>
      </trkpt>
      <trkpt lat="43.47697" lon="2.37843">
        <ele>413.082</ele>
        <time>2021-05-23T10:34:45Z</time>
      </trkpt>
      <trkpt lat="43.47695" lon="2.37842">
        <ele>413.196</ele>
        <time>2021-05-23T10:34:47Z</time>
      </trkpt>
      <trkpt lat="43.47694" lon="2.3784">
        <ele>412.903</ele>
        <time>2021-05-23T10:34:49Z</time>
      </trkpt>
      <trkpt lat="43.47692" lon="2.37839">
        <ele>413.716</ele>
        <time>2021-05-23T10:34:51Z</time>
      </trkpt>
      <trkpt lat="43.47691" lon="2.37836">
        <ele>414.882</ele>
        <time>2021-05-23T10:34:53Z</time>
      </trkpt>
      <trkpt lat="43.47689" lon="2.37836">
        <ele>415.242</ele>
        <time>2021-05-23T10:34:55Z</time>
      </trkpt>
      <trkpt lat="43.47688" lon="2.37834">
        <ele>414.74</ele>
        <time>2021-05-23T10:34:57Z</time>
      </trkpt>
      <trkpt lat="43.47687" lon="2.37832">
        <ele>414.356</ele>
        <time>2021-05-23T10:34:59Z</time>
      </trkpt>
      <trkpt lat="43.47686" lon="2.37831">
        <ele>415.251</ele>
        <time>2021-05-23T10:35:01Z</time>
      </trkpt>
      <trkpt lat="43.47685" lon="2.3783">
        <ele>414.744</ele>
        <time>2021-05-23T10:35:03Z</time>
      </trkpt>
      <trkpt lat="43.47684" lon="2.37829">
        <ele>413.677</ele>
        <time>2021-05-23T10:35:05Z</time>
      </trkpt>
      <trkpt lat="43.47683" lon="2.37828">
        <ele>413.152</ele>
        <time>2021-05-23T10:35:07Z</time>
      </trkpt>
      <trkpt lat="43.47681" lon="2.37828">
        <ele>413.131</ele>
        <time>2021-05-23T10:35:09Z</time>
      </trkpt>
      <trkpt lat="43.4768" lon="2.37827">
        <ele>414.3</ele>
        <time>2021-05-23T10:35:11Z</time>
      </trkpt>
      <trkpt lat="43.47679" lon="2.37827">
        <ele>414.221</ele>
        <time>2021-05-23T10:35:13Z</time>
      </trkpt>
      <trkpt lat="43.47678" lon="2.37826">
        <ele>414.682</ele>
        <time>2021-05-23T10:35:15Z</time>
      </trkpt>
      <trkpt lat="43.47677" lon="2.37824">
        <ele>415.359</ele>
        <time>2021-05-23T10:35:17Z</time>
      </trkpt>
      <trkpt lat="43.47676" lon="2.37822">
        <ele>417.463</ele>
        <time>2021-05-23T10:35:19Z</time>
      </trkpt>
      <trkpt lat="43.47676" lon="2.37821">
        <ele>418.565</ele>
        <time>2021-05-23T10:35:21Z</time>
      </trkpt>
      <trkpt lat="43.47675" lon="2.3782">
        <ele>419.073</ele>
        <time>2021-05-23T10:35:23Z</time>
      </trkpt>
      <trkpt lat="43.47673" lon="2.37819">
        <ele>419.284</ele>
        <time>2021-05-23T10:35:25Z</time>
      </trkpt>
      <trkpt lat="43.47672" lon="2.37818">
        <ele>420.753</ele>
        <time>2021-05-23T10:35:27Z</time>
      </trkpt>
      <trkpt lat="43.47671" lon="2.37817">
        <ele>421.896</ele>
        <time>2021-05-23T10:35:29Z</time>
      </trkpt>
      <trkpt lat="43.4767" lon="2.37816">
        <ele>422.529</ele>
        <time>2021-05-23T10:35:31Z</time>
      </trkpt>
      <trkpt lat="43.47669" lon="2.37815">
        <ele>422.676</ele>
        <time>2021-05-23T10:35:33Z</time>
      </trkpt>
      <trkpt lat="43.47668" lon="2.37812">
        <ele>423.039</ele>
        <time>2021-05-23T10:35:35Z</time>
      </trkpt>
      <trkpt lat="43.47668" lon="2.3781">
        <ele>422.872</ele>
        <time>2021-05-23T10:35:37Z</time>
      </trkpt>
      <trkpt lat="43.47668" lon="2.37808">
        <ele>422.983</ele>
        <time>2021-05-23T10:35:39Z</time>
      </trkpt>
      <trkpt lat="43.47667" lon="2.37806">
        <ele>422.34</ele>
        <time>2021-05-23T10:35:41Z</time>
      </trkpt>
      <trkpt lat="43.47666" lon="2.37803">
        <ele>422.202</ele>
        <time>2021-05-23T10:35:43Z</time>
      </trkpt>
      <trkpt lat="43.47666" lon="2.37801">
        <ele>422.35</ele>
        <time>2021-05-23T10:35:45Z</time>
      </trkpt>
      <trkpt lat="43.47666" lon="2.37799">
        <ele>422.38</ele>
        <time>2021-05-23T10:35:47Z</time>
      </trkpt>
      <trkpt lat="43.47666" lon="2.37798">
        <ele>422.359</ele>
        <time>2021-05-23T10:35:49Z</time>
      </trkpt>
      <trkpt lat="43.47665" lon="2.37796">
        <ele>422.524</ele>
        <time>2021-05-23T10:35:51Z</time>
      </trkpt>
      <trkpt lat="43.47662" lon="2.37793">
        <ele>422.928</ele>
        <time>2021-05-23T10:35:53Z</time>
      </trkpt>
      <trkpt lat="43.4766" lon="2.37792">
        <ele>421.92</ele>
        <time>2021-05-23T10:35:55Z</time>
      </trkpt>
      <trkpt lat="43.47657" lon="2.37793">
        <ele>419.376</ele>
        <time>2021-05-23T10:35:57Z</time>
      </trkpt>
      <trkpt lat="43.47658" lon="2.37797">
        <ele>421.286</ele>
        <time>2021-05-23T10:35:59Z</time>
      </trkpt>
      <trkpt lat="43.4766" lon="2.37799">
        <ele>421.174</ele>
        <time>2021-05-23T10:36:01Z</time>
      </trkpt>
      <trkpt lat="43.4766" lon="2.378">
        <ele>421.176</ele>
        <time>2021-05-23T10:36:03Z</time>
      </trkpt>
      <trkpt lat="43.4766" lon="2.378">
        <ele>421.688</ele>
        <time>2021-05-23T10:36:05Z</time>
      </trkpt>
      <trkpt lat="43.47659" lon="2.37801">
        <ele>421.966</ele>
        <time>2021-05-23T10:36:07Z</time>
      </trkpt>
      <trkpt lat="43.47659" lon="2.37802">
        <ele>421.486</ele>
        <time>2021-05-23T10:36:09Z</time>
      </trkpt>
      <trkpt lat="43.47659" lon="2.37803">
        <ele>421.706</ele>
        <time>2021-05-23T10:36:11Z</time>
      </trkpt>
      <trkpt lat="43.47658" lon="2.37805">
        <ele>422.098</ele>
        <time>2021-05-23T10:36:13Z</time>
      </trkpt>
      <trkpt lat="43.47657" lon="2.37807">
        <ele>421.063</ele>
        <time>2021-05-23T10:36:15Z</time>
      </trkpt>
      <trkpt lat="43.47657" lon="2.37808">
        <ele>421.454</ele>
        <time>2021-05-23T10:36:17Z</time>
      </trkpt>
      <trkpt lat="43.47657" lon="2.3781">
        <ele>422.014</ele>
        <time>2021-05-23T10:36:19Z</time>
      </trkpt>
      <trkpt lat="43.47657" lon="2.37812">
        <ele>423.848</ele>
        <time>2021-05-23T10:36:21Z</time>
      </trkpt>
      <trkpt lat="43.47657" lon="2.37814">
        <ele>424.569</ele>
        <time>2021-05-23T10:36:23Z</time>
      </trkpt>
      <trkpt lat="43.47657" lon="2.37816">
        <ele>425.015</ele>
        <time>2021-05-23T10:36:25Z</time>
      </trkpt>
      <trkpt lat="43.47657" lon="2.37817">
        <ele>425.269</ele>
        <time>2021-05-23T10:36:27Z</time>
      </trkpt>
      <trkpt lat="43.47657" lon="2.37818">
        <ele>425.177</ele>
        <time>2021-05-23T10:36:29Z</time>
      </trkpt>
      <trkpt lat="43.47657" lon="2.37819">
        <ele>425.666</ele>
        <time>2021-05-23T10:36:31Z</time>
      </trkpt>
      <trkpt lat="43.47657" lon="2.3782">
        <ele>426.959</ele>
        <time>2021-05-23T10:36:33Z</time>
      </trkpt>
      <trkpt lat="43.47658" lon="2.37822">
        <ele>427.778</ele>
        <time>2021-05-23T10:36:35Z</time>
      </trkpt>
      <trkpt lat="43.47658" lon="2.37822">
        <ele>428.523</ele>
        <time>2021-05-23T10:36:37Z</time>
      </trkpt>
      <trkpt lat="43.47658" lon="2.37823">
        <ele>429.033</ele>
        <time>2021-05-23T10:36:38Z</time>
      </trkpt>
      <trkpt lat="43.47658" lon="2.37825">
        <ele>430.304</ele>
        <time>2021-05-23T10:36:41Z</time>
      </trkpt>
      <trkpt lat="43.47658" lon="2.37827">
        <ele>430.617</ele>
        <time>2021-05-23T10:36:43Z</time>
      </trkpt>
      <trkpt lat="43.47658" lon="2.37828">
        <ele>431.158</ele>
        <time>2021-05-23T10:36:45Z</time>
      </trkpt>
      <trkpt lat="43.47659" lon="2.37827">
        <ele>430.567</ele>
        <time>2021-05-23T10:36:47Z</time>
      </trkpt>
      <trkpt lat="43.47659" lon="2.37829">
        <ele>432.347</ele>
        <time>2021-05-23T10:36:49Z</time>
      </trkpt>
      <trkpt lat="43.47659" lon="2.37831">
        <ele>433.487</ele>
        <time>2021-05-23T10:36:51Z</time>
      </trkpt>
      <trkpt lat="43.4766" lon="2.37832">
        <ele>434.558</ele>
        <time>2021-05-23T10:36:53Z</time>
      </trkpt>
      <trkpt lat="43.4766" lon="2.37834">
        <ele>435.327</ele>
        <time>2021-05-23T10:36:55Z</time>
      </trkpt>
      <trkpt lat="43.4766" lon="2.37836">
        <ele>436.154</ele>
        <time>2021-05-23T10:36:57Z</time>
      </trkpt>
      <trkpt lat="43.4766" lon="2.37838">
        <ele>437.863</ele>
        <time>2021-05-23T10:36:59Z</time>
      </trkpt>
      <trkpt lat="43.4766" lon="2.3784">
        <ele>438.872</ele>
        <time>2021-05-23T10:37:01Z</time>
      </trkpt>
      <trkpt lat="43.4766" lon="2.37841">
        <ele>438.583</ele>
        <time>2021-05-23T10:37:03Z</time>
      </trkpt>
      <trkpt lat="43.47661" lon="2.37842">
        <ele>438.57</ele>
        <time>2021-05-23T10:37:05Z</time>
      </trkpt>
      <trkpt lat="43.47661" lon="2.37843">
        <ele>438.608</ele>
        <time>2021-05-23T10:37:07Z</time>
      </trkpt>
      <trkpt lat="43.47661" lon="2.37844">
        <ele>439.478</ele>
        <time>2021-05-23T10:37:09Z</time>
      </trkpt>
      <trkpt lat="43.4766" lon="2.37845">
        <ele>439.33</ele>
        <time>2021-05-23T10:37:11Z</time>
      </trkpt>
      <trkpt lat="43.47659" lon="2.37846">
        <ele>439.713</ele>
        <time>2021-05-23T10:37:13Z</time>
      </trkpt>
      <trkpt lat="43.47658" lon="2.37845">
        <ele>440.51</ele>
        <time>2021-05-23T10:37:15Z</time>
      </trkpt>
      <trkpt lat="43.47657" lon="2.37845">
        <ele>441.162</ele>
        <time>2021-05-23T10:37:17Z</time>
      </trkpt>
      <trkpt lat="43.47656" lon="2.37844">
        <ele>441.775</ele>
        <time>2021-05-23T10:37:19Z</time>
      </trkpt>
      <trkpt lat="43.47655" lon="2.37843">
        <ele>441.882</ele>
        <time>2021-05-23T10:37:21Z</time>
      </trkpt>
      <trkpt lat="43.47654" lon="2.37844">
        <ele>442.126</ele>
        <time>2021-05-23T10:37:23Z</time>
      </trkpt>
      <trkpt lat="43.47653" lon="2.37844">
        <ele>442.572</ele>
        <time>2021-05-23T10:37:25Z</time>
      </trkpt>
      <trkpt lat="43.47654" lon="2.37845">
        <ele>443.16</ele>
        <time>2021-05-23T10:37:27Z</time>
      </trkpt>
      <trkpt lat="43.47654" lon="2.37845">
        <ele>443.16</ele>
        <time>2021-05-23T10:37:29Z</time>
      </trkpt>
      <trkpt lat="43.47654" lon="2.37845">
        <ele>443.157</ele>
        <time>2021-05-23T10:37:31Z</time>
      </trkpt>
      <trkpt lat="43.47654" lon="2.37845">
        <ele>443.56</ele>
        <time>2021-05-23T10:37:33Z</time>
      </trkpt>
      <trkpt lat="43.47654" lon="2.37845">
        <ele>443.569</ele>
        <time>2021-05-23T10:37:35Z</time>
      </trkpt>
      <trkpt lat="43.47654" lon="2.37845">
        <ele>443.893</ele>
        <time>2021-05-23T10:37:37Z</time>
      </trkpt>
      <trkpt lat="43.47655" lon="2.37844">
        <ele>443.389</ele>
        <time>2021-05-23T10:37:39Z</time>
      </trkpt>
      <trkpt lat="43.47657" lon="2.37847">
        <ele>444.019</ele>
        <time>2021-05-23T10:37:41Z</time>
      </trkpt>
      <trkpt lat="43.47658" lon="2.37849">
        <ele>445.37</ele>
        <time>2021-05-23T10:37:43Z</time>
      </trkpt>
      <trkpt lat="43.47657" lon="2.37852">
        <ele>445.374</ele>
        <time>2021-05-23T10:37:45Z</time>
      </trkpt>
      <trkpt lat="43.47657" lon="2.37855">
        <ele>445.402</ele>
        <time>2021-05-23T10:37:47Z</time>
      </trkpt>
      <trkpt lat="43.47656" lon="2.37855">
        <ele>443.9</ele>
        <time>2021-05-23T10:37:49Z</time>
      </trkpt>
      <trkpt lat="43.47655" lon="2.37854">
        <ele>443.324</ele>
        <time>2021-05-23T10:37:51Z</time>
      </trkpt>
      <trkpt lat="43.47655" lon="2.37854">
        <ele>443.316</ele>
        <time>2021-05-23T10:37:53Z</time>
      </trkpt>
      <trkpt lat="43.47655" lon="2.37854">
        <ele>443.319</ele>
        <time>2021-05-23T10:37:55Z</time>
      </trkpt>
      <trkpt lat="43.47655" lon="2.37854">
        <ele>443.321</ele>
        <time>2021-05-23T10:37:57Z</time>
      </trkpt>
      <trkpt lat="43.47656" lon="2.37854">
        <ele>443.418</ele>
        <time>2021-05-23T10:37:59Z</time>
      </trkpt>
      <trkpt lat="43.47656" lon="2.37854">
        <ele>443.426</ele>
        <time>2021-05-23T10:38:01Z</time>
      </trkpt>
      <trkpt lat="43.47656" lon="2.37854">
        <ele>442.958</ele>
        <time>2021-05-23T10:38:03Z</time>
      </trkpt>
      <trkpt lat="43.47655" lon="2.37854">
        <ele>443.222</ele>
        <time>2021-05-23T10:38:05Z</time>
      </trkpt>
      <trkpt lat="43.47654" lon="2.37854">
        <ele>444.059</ele>
        <time>2021-05-23T10:38:07Z</time>
      </trkpt>
      <trkpt lat="43.47653" lon="2.37854">
        <ele>444.609</ele>
        <time>2021-05-23T10:38:09Z</time>
      </trkpt>
      <trkpt lat="43.47653" lon="2.37854">
        <ele>444.847</ele>
        <time>2021-05-23T10:38:11Z</time>
      </trkpt>
      <trkpt lat="43.47653" lon="2.37854">
        <ele>445.341</ele>
        <time>2021-05-23T10:38:13Z</time>
      </trkpt>
      <trkpt lat="43.47653" lon="2.37853">
        <ele>445.35</ele>
        <time>2021-05-23T10:38:15Z</time>
      </trkpt>
      <trkpt lat="43.47653" lon="2.37853">
        <ele>445.352</ele>
        <time>2021-05-23T10:38:17Z</time>
      </trkpt>
      <trkpt lat="43.47653" lon="2.37854">
        <ele>445.635</ele>
        <time>2021-05-23T10:38:19Z</time>
      </trkpt>
      <trkpt lat="43.47654" lon="2.37854">
        <ele>445.689</ele>
        <time>2021-05-23T10:38:21Z</time>
      </trkpt>
      <trkpt lat="43.47655" lon="2.37854">
        <ele>445.479</ele>
        <time>2021-05-23T10:38:23Z</time>
      </trkpt>
      <trkpt lat="43.47656" lon="2.37855">
        <ele>445.798</ele>
        <time>2021-05-23T10:38:25Z</time>
      </trkpt>
      <trkpt lat="43.47657" lon="2.37856">
        <ele>445.706</ele>
        <time>2021-05-23T10:38:27Z</time>
      </trkpt>
      <trkpt lat="43.47657" lon="2.37855">
        <ele>445.434</ele>
        <time>2021-05-23T10:38:29Z</time>
      </trkpt>
      <trkpt lat="43.47657" lon="2.37855">
        <ele>445.434</ele>
        <time>2021-05-23T10:38:31Z</time>
      </trkpt>
      <trkpt lat="43.47657" lon="2.37855">
        <ele>445.437</ele>
        <time>2021-05-23T10:38:33Z</time>
      </trkpt>
      <trkpt lat="43.47657" lon="2.37855">
        <ele>445.44</ele>
        <time>2021-05-23T10:38:35Z</time>
      </trkpt>
      <trkpt lat="43.47657" lon="2.37855">
        <ele>445.448</ele>
        <time>2021-05-23T10:38:37Z</time>
      </trkpt>
      <trkpt lat="43.47657" lon="2.37855">
        <ele>445.526</ele>
        <time>2021-05-23T10:38:39Z</time>
      </trkpt>
      <trkpt lat="43.47658" lon="2.37855">
        <ele>445.679</ele>
        <time>2021-05-23T10:38:41Z</time>
      </trkpt>
      <trkpt lat="43.47657" lon="2.37855">
        <ele>446.14</ele>
        <time>2021-05-23T10:38:43Z</time>
      </trkpt>
      <trkpt lat="43.47658" lon="2.37855">
        <ele>445.908</ele>
        <time>2021-05-23T10:38:45Z</time>
      </trkpt>
      <trkpt lat="43.4766" lon="2.37855">
        <ele>446.053</ele>
        <time>2021-05-23T10:38:47Z</time>
      </trkpt>
      <trkpt lat="43.47662" lon="2.37855">
        <ele>446.052</ele>
        <time>2021-05-23T10:38:49Z</time>
      </trkpt>
      <trkpt lat="43.47663" lon="2.37855">
        <ele>446.528</ele>
        <time>2021-05-23T10:38:51Z</time>
      </trkpt>
      <trkpt lat="43.47662" lon="2.37855">
        <ele>446.634</ele>
        <time>2021-05-23T10:38:53Z</time>
      </trkpt>
      <trkpt lat="43.47662" lon="2.37855">
        <ele>446.637</ele>
        <time>2021-05-23T10:38:55Z</time>
      </trkpt>
      <trkpt lat="43.47662" lon="2.37855">
        <ele>446.638</ele>
        <time>2021-05-23T10:38:57Z</time>
      </trkpt>
      <trkpt lat="43.47662" lon="2.37854">
        <ele>446.617</ele>
        <time>2021-05-23T10:38:59Z</time>
      </trkpt>
      <trkpt lat="43.47662" lon="2.37855">
        <ele>446.554</ele>
        <time>2021-05-23T10:39:01Z</time>
      </trkpt>
      <trkpt lat="43.47662" lon="2.37855">
        <ele>446.556</ele>
        <time>2021-05-23T10:39:03Z</time>
      </trkpt>
      <trkpt lat="43.47662" lon="2.37855">
        <ele>446.561</ele>
        <time>2021-05-23T10:39:05Z</time>
      </trkpt>
      <trkpt lat="43.47662" lon="2.37855">
        <ele>446.413</ele>
        <time>2021-05-23T10:39:07Z</time>
      </trkpt>
      <trkpt lat="43.47662" lon="2.37855">
        <ele>446.517</ele>
        <time>2021-05-23T10:39:09Z</time>
      </trkpt>
      <trkpt lat="43.47662" lon="2.37855">
        <ele>446.517</ele>
        <time>2021-05-23T10:39:11Z</time>
      </trkpt>
      <trkpt lat="43.47662" lon="2.37854">
        <ele>446.076</ele>
        <time>2021-05-23T10:39:13Z</time>
      </trkpt>
      <trkpt lat="43.47662" lon="2.37854">
        <ele>446.142</ele>
        <time>2021-05-23T10:39:15Z</time>
      </trkpt>
      <trkpt lat="43.47662" lon="2.37854">
        <ele>445.964</ele>
        <time>2021-05-23T10:39:17Z</time>
      </trkpt>
      <trkpt lat="43.47662" lon="2.37854">
        <ele>445.939</ele>
        <time>2021-05-23T10:39:19Z</time>
      </trkpt>
      <trkpt lat="43.47662" lon="2.37854">
        <ele>445.938</ele>
        <time>2021-05-23T10:39:21Z</time>
      </trkpt>
      <trkpt lat="43.47662" lon="2.37854">
        <ele>445.939</ele>
        <time>2021-05-23T10:39:23Z</time>
      </trkpt>
      <trkpt lat="43.47662" lon="2.37854">
        <ele>445.94</ele>
        <time>2021-05-23T10:39:25Z</time>
      </trkpt>
      <trkpt lat="43.47662" lon="2.37854">
        <ele>445.938</ele>
        <time>2021-05-23T10:39:27Z</time>
      </trkpt>
      <trkpt lat="43.47662" lon="2.37854">
        <ele>445.824</ele>
        <time>2021-05-23T10:39:29Z</time>
      </trkpt>
      <trkpt lat="43.47662" lon="2.37854">
        <ele>445.829</ele>
        <time>2021-05-23T10:39:31Z</time>
      </trkpt>
      <trkpt lat="43.47662" lon="2.37854">
        <ele>445.829</ele>
        <time>2021-05-23T10:39:33Z</time>
      </trkpt>
      <trkpt lat="43.47662" lon="2.37854">
        <ele>445.83</ele>
        <time>2021-05-23T10:39:35Z</time>
      </trkpt>
      <trkpt lat="43.47662" lon="2.37854">
        <ele>445.831</ele>
        <time>2021-05-23T10:39:37Z</time>
      </trkpt>
      <trkpt lat="43.47662" lon="2.37854">
        <ele>445.837</ele>
        <time>2021-05-23T10:39:39Z</time>
      </trkpt>
      <trkpt lat="43.47662" lon="2.37854">
        <ele>445.834</ele>
        <time>2021-05-23T10:39:41Z</time>
      </trkpt>
      <trkpt lat="43.47662" lon="2.37854">
        <ele>445.836</ele>
        <time>2021-05-23T10:39:43Z</time>
      </trkpt>
      <trkpt lat="43.47662" lon="2.37854">
        <ele>445.823</ele>
        <time>2021-05-23T10:39:45Z</time>
      </trkpt>
      <trkpt lat="43.47662" lon="2.37854">
        <ele>445.824</ele>
        <time>2021-05-23T10:39:47Z</time>
      </trkpt>
      <trkpt lat="43.47662" lon="2.37854">
        <ele>445.819</ele>
        <time>2021-05-23T10:39:49Z</time>
      </trkpt>
      <trkpt lat="43.47662" lon="2.37854">
        <ele>445.817</ele>
        <time>2021-05-23T10:39:51Z</time>
      </trkpt>
      <trkpt lat="43.47662" lon="2.37854">
        <ele>445.824</ele>
        <time>2021-05-23T10:39:53Z</time>
      </trkpt>
      <trkpt lat="43.47663" lon="2.37854">
        <ele>445.946</ele>
        <time>2021-05-23T10:39:55Z</time>
      </trkpt>
      <trkpt lat="43.47663" lon="2.37854">
        <ele>446.046</ele>
        <time>2021-05-23T10:39:57Z</time>
      </trkpt>
      <trkpt lat="43.47663" lon="2.37854">
        <ele>446.044</ele>
        <time>2021-05-23T10:39:59Z</time>
      </trkpt>
      <trkpt lat="43.47663" lon="2.37854">
        <ele>445.985</ele>
        <time>2021-05-23T10:40:01Z</time>
      </trkpt>
      <trkpt lat="43.47662" lon="2.37854">
        <ele>445.531</ele>
        <time>2021-05-23T10:40:03Z</time>
      </trkpt>
      <trkpt lat="43.47662" lon="2.37854">
        <ele>445.551</ele>
        <time>2021-05-23T10:40:05Z</time>
      </trkpt>
      <trkpt lat="43.47662" lon="2.37855">
        <ele>445.514</ele>
        <time>2021-05-23T10:40:07Z</time>
      </trkpt>
      <trkpt lat="43.47662" lon="2.37855">
        <ele>445.729</ele>
        <time>2021-05-23T10:40:09Z</time>
      </trkpt>
      <trkpt lat="43.47661" lon="2.37857">
        <ele>446.406</ele>
        <time>2021-05-23T10:40:11Z</time>
      </trkpt>
      <trkpt lat="43.47661" lon="2.37859">
        <ele>446.591</ele>
        <time>2021-05-23T10:40:13Z</time>
      </trkpt>
      <trkpt lat="43.47662" lon="2.37859">
        <ele>446.229</ele>
        <time>2021-05-23T10:40:15Z</time>
      </trkpt>
      <trkpt lat="43.47662" lon="2.3786">
        <ele>446.105</ele>
        <time>2021-05-23T10:40:17Z</time>
      </trkpt>
      <trkpt lat="43.47661" lon="2.3786">
        <ele>445.926</ele>
        <time>2021-05-23T10:40:19Z</time>
      </trkpt>
      <trkpt lat="43.47661" lon="2.3786">
        <ele>446.549</ele>
        <time>2021-05-23T10:40:21Z</time>
      </trkpt>
      <trkpt lat="43.47661" lon="2.37861">
        <ele>446.601</ele>
        <time>2021-05-23T10:40:23Z</time>
      </trkpt>
      <trkpt lat="43.4766" lon="2.37862">
        <ele>446.94</ele>
        <time>2021-05-23T10:40:25Z</time>
      </trkpt>
      <trkpt lat="43.4766" lon="2.37863">
        <ele>446.386</ele>
        <time>2021-05-23T10:40:27Z</time>
      </trkpt>
      <trkpt lat="43.4766" lon="2.37865">
        <ele>445.724</ele>
        <time>2021-05-23T10:40:29Z</time>
      </trkpt>
      <trkpt lat="43.4766" lon="2.37866">
        <ele>447.835</ele>
        <time>2021-05-23T10:40:31Z</time>
      </trkpt>
      <trkpt lat="43.47659" lon="2.37863">
        <ele>448.078</ele>
        <time>2021-05-23T10:40:33Z</time>
      </trkpt>
      <trkpt lat="43.47657" lon="2.37863">
        <ele>449.601</ele>
        <time>2021-05-23T10:40:35Z</time>
      </trkpt>
      <trkpt lat="43.47655" lon="2.37863">
        <ele>448.636</ele>
        <time>2021-05-23T10:40:37Z</time>
      </trkpt>
      <trkpt lat="43.47653" lon="2.37865">
        <ele>447.447</ele>
        <time>2021-05-23T10:40:39Z</time>
      </trkpt>
      <trkpt lat="43.47653" lon="2.37869">
        <ele>448.78</ele>
        <time>2021-05-23T10:40:41Z</time>
      </trkpt>
      <trkpt lat="43.47655" lon="2.37871">
        <ele>449.633</ele>
        <time>2021-05-23T10:40:43Z</time>
      </trkpt>
      <trkpt lat="43.47656" lon="2.37873">
        <ele>451.174</ele>
        <time>2021-05-23T10:40:45Z</time>
      </trkpt>
      <trkpt lat="43.47658" lon="2.37875">
        <ele>450.693</ele>
        <time>2021-05-23T10:40:47Z</time>
      </trkpt>
      <trkpt lat="43.4766" lon="2.37876">
        <ele>450.587</ele>
        <time>2021-05-23T10:40:49Z</time>
      </trkpt>
      <trkpt lat="43.47661" lon="2.37876">
        <ele>450.971</ele>
        <time>2021-05-23T10:40:51Z</time>
      </trkpt>
      <trkpt lat="43.47661" lon="2.37876">
        <ele>450.547</ele>
        <time>2021-05-23T10:40:53Z</time>
      </trkpt>
      <trkpt lat="43.47661" lon="2.37876">
        <ele>449.956</ele>
        <time>2021-05-23T10:40:55Z</time>
      </trkpt>
      <trkpt lat="43.47661" lon="2.37877">
        <ele>449.593</ele>
        <time>2021-05-23T10:40:57Z</time>
      </trkpt>
      <trkpt lat="43.47662" lon="2.37878">
        <ele>449.634</ele>
        <time>2021-05-23T10:40:59Z</time>
      </trkpt>
      <trkpt lat="43.47662" lon="2.37879">
        <ele>449.439</ele>
        <time>2021-05-23T10:41:01Z</time>
      </trkpt>
      <trkpt lat="43.47663" lon="2.37879">
        <ele>449.78</ele>
        <time>2021-05-23T10:41:03Z</time>
      </trkpt>
      <trkpt lat="43.47663" lon="2.37879">
        <ele>449.771</ele>
        <time>2021-05-23T10:41:05Z</time>
      </trkpt>
      <trkpt lat="43.47663" lon="2.37879">
        <ele>449.772</ele>
        <time>2021-05-23T10:41:07Z</time>
      </trkpt>
      <trkpt lat="43.47663" lon="2.3788">
        <ele>449.679</ele>
        <time>2021-05-23T10:41:09Z</time>
      </trkpt>
      <trkpt lat="43.47664" lon="2.37881">
        <ele>449.93</ele>
        <time>2021-05-23T10:41:11Z</time>
      </trkpt>
      <trkpt lat="43.47665" lon="2.3788">
        <ele>449.836</ele>
        <time>2021-05-23T10:41:13Z</time>
      </trkpt>
      <trkpt lat="43.47666" lon="2.37879">
        <ele>449.332</ele>
        <time>2021-05-23T10:41:15Z</time>
      </trkpt>
      <trkpt lat="43.47667" lon="2.37879">
        <ele>449.356</ele>
        <time>2021-05-23T10:41:17Z</time>
      </trkpt>
      <trkpt lat="43.47667" lon="2.3788">
        <ele>449.521</ele>
        <time>2021-05-23T10:41:19Z</time>
      </trkpt>
      <trkpt lat="43.47668" lon="2.3788">
        <ele>449.292</ele>
        <time>2021-05-23T10:41:21Z</time>
      </trkpt>
      <trkpt lat="43.47668" lon="2.37879">
        <ele>449.6</ele>
        <time>2021-05-23T10:41:23Z</time>
      </trkpt>
      <trkpt lat="43.47667" lon="2.37877">
        <ele>449.294</ele>
        <time>2021-05-23T10:41:25Z</time>
      </trkpt>
      <trkpt lat="43.47667" lon="2.37876">
        <ele>449.494</ele>
        <time>2021-05-23T10:41:27Z</time>
      </trkpt>
      <trkpt lat="43.47667" lon="2.37876">
        <ele>449.936</ele>
        <time>2021-05-23T10:41:29Z</time>
      </trkpt>
      <trkpt lat="43.47667" lon="2.37876">
        <ele>449.922</ele>
        <time>2021-05-23T10:41:31Z</time>
      </trkpt>
      <trkpt lat="43.47666" lon="2.37876">
        <ele>449.927</ele>
        <time>2021-05-23T10:41:33Z</time>
      </trkpt>
      <trkpt lat="43.47665" lon="2.37876">
        <ele>449.818</ele>
        <time>2021-05-23T10:41:35Z</time>
      </trkpt>
      <trkpt lat="43.47665" lon="2.37877">
        <ele>449.881</ele>
        <time>2021-05-23T10:41:37Z</time>
      </trkpt>
      <trkpt lat="43.47664" lon="2.37877">
        <ele>449.727</ele>
        <time>2021-05-23T10:41:39Z</time>
      </trkpt>
      <trkpt lat="43.47664" lon="2.37877">
        <ele>449.714</ele>
        <time>2021-05-23T10:41:41Z</time>
      </trkpt>
      <trkpt lat="43.47664" lon="2.37877">
        <ele>449.713</ele>
        <time>2021-05-23T10:41:43Z</time>
      </trkpt>
      <trkpt lat="43.47664" lon="2.37877">
        <ele>449.712</ele>
        <time>2021-05-23T10:41:45Z</time>
      </trkpt>
      <trkpt lat="43.47664" lon="2.37877">
        <ele>449.709</ele>
        <time>2021-05-23T10:41:47Z</time>
      </trkpt>
      <trkpt lat="43.47664" lon="2.37877">
        <ele>449.709</ele>
        <time>2021-05-23T10:41:49Z</time>
      </trkpt>
      <trkpt lat="43.47664" lon="2.37877">
        <ele>449.708</ele>
        <time>2021-05-23T10:41:51Z</time>
      </trkpt>
      <trkpt lat="43.47664" lon="2.37877">
        <ele>449.709</ele>
        <time>2021-05-23T10:41:53Z</time>
      </trkpt>
      <trkpt lat="43.47664" lon="2.37877">
        <ele>449.893</ele>
        <time>2021-05-23T10:41:55Z</time>
      </trkpt>
      <trkpt lat="43.47664" lon="2.37877">
        <ele>449.902</ele>
        <time>2021-05-23T10:41:57Z</time>
      </trkpt>
      <trkpt lat="43.47664" lon="2.37877">
        <ele>449.649</ele>
        <time>2021-05-23T10:41:59Z</time>
      </trkpt>
      <trkpt lat="43.47664" lon="2.37877">
        <ele>449.576</ele>
        <time>2021-05-23T10:42:01Z</time>
      </trkpt>
      <trkpt lat="43.47665" lon="2.37876">
        <ele>449.386</ele>
        <time>2021-05-23T10:42:03Z</time>
      </trkpt>
      <trkpt lat="43.47665" lon="2.37876">
        <ele>449.386</ele>
        <time>2021-05-23T10:42:05Z</time>
      </trkpt>
      <trkpt lat="43.47665" lon="2.37876">
        <ele>449.391</ele>
        <time>2021-05-23T10:42:07Z</time>
      </trkpt>
      <trkpt lat="43.47665" lon="2.37876">
        <ele>449.397</ele>
        <time>2021-05-23T10:42:09Z</time>
      </trkpt>
      <trkpt lat="43.47665" lon="2.37876">
        <ele>449.34</ele>
        <time>2021-05-23T10:42:11Z</time>
      </trkpt>
      <trkpt lat="43.47665" lon="2.37876">
        <ele>450.205</ele>
        <time>2021-05-23T10:42:13Z</time>
      </trkpt>
      <trkpt lat="43.47664" lon="2.37875">
        <ele>450.511</ele>
        <time>2021-05-23T10:42:15Z</time>
      </trkpt>
      <trkpt lat="43.47664" lon="2.37875">
        <ele>450.514</ele>
        <time>2021-05-23T10:42:17Z</time>
      </trkpt>
      <trkpt lat="43.47664" lon="2.37875">
        <ele>450.514</ele>
        <time>2021-05-23T10:42:19Z</time>
      </trkpt>
      <trkpt lat="43.47664" lon="2.37875">
        <ele>450.507</ele>
        <time>2021-05-23T10:42:21Z</time>
      </trkpt>
      <trkpt lat="43.47664" lon="2.37875">
        <ele>450.681</ele>
        <time>2021-05-23T10:42:23Z</time>
      </trkpt>
      <trkpt lat="43.47664" lon="2.37875">
        <ele>450.372</ele>
        <time>2021-05-23T10:42:25Z</time>
      </trkpt>
      <trkpt lat="43.47664" lon="2.37874">
        <ele>450.518</ele>
        <time>2021-05-23T10:42:27Z</time>
      </trkpt>
      <trkpt lat="43.47664" lon="2.37875">
        <ele>450.041</ele>
        <time>2021-05-23T10:42:29Z</time>
      </trkpt>
      <trkpt lat="43.47664" lon="2.37875">
        <ele>450.18</ele>
        <time>2021-05-23T10:42:31Z</time>
      </trkpt>
      <trkpt lat="43.47664" lon="2.37877">
        <ele>449.703</ele>
        <time>2021-05-23T10:42:33Z</time>
      </trkpt>
      <trkpt lat="43.47665" lon="2.37878">
        <ele>449.53</ele>
        <time>2021-05-23T10:42:35Z</time>
      </trkpt>
      <trkpt lat="43.47665" lon="2.37879">
        <ele>449.595</ele>
        <time>2021-05-23T10:42:37Z</time>
      </trkpt>
      <trkpt lat="43.47665" lon="2.3788">
        <ele>449.688</ele>
        <time>2021-05-23T10:42:39Z</time>
      </trkpt>
      <trkpt lat="43.47665" lon="2.37881">
        <ele>449.779</ele>
        <time>2021-05-23T10:42:41Z</time>
      </trkpt>
      <trkpt lat="43.47666" lon="2.37882">
        <ele>449.282</ele>
        <time>2021-05-23T10:42:43Z</time>
      </trkpt>
      <trkpt lat="43.47666" lon="2.37883">
        <ele>449.396</ele>
        <time>2021-05-23T10:42:45Z</time>
      </trkpt>
      <trkpt lat="43.47666" lon="2.37884">
        <ele>448.619</ele>
        <time>2021-05-23T10:42:47Z</time>
      </trkpt>
      <trkpt lat="43.47665" lon="2.37885">
        <ele>449.061</ele>
        <time>2021-05-23T10:42:49Z</time>
      </trkpt>
      <trkpt lat="43.47664" lon="2.37885">
        <ele>449.306</ele>
        <time>2021-05-23T10:42:51Z</time>
      </trkpt>
      <trkpt lat="43.47664" lon="2.37886">
        <ele>449.128</ele>
        <time>2021-05-23T10:42:53Z</time>
      </trkpt>
      <trkpt lat="43.47663" lon="2.37886">
        <ele>448.884</ele>
        <time>2021-05-23T10:42:55Z</time>
      </trkpt>
      <trkpt lat="43.47663" lon="2.37886">
        <ele>448.3</ele>
        <time>2021-05-23T10:42:57Z</time>
      </trkpt>
      <trkpt lat="43.47662" lon="2.37886">
        <ele>447.831</ele>
        <time>2021-05-23T10:42:59Z</time>
      </trkpt>
      <trkpt lat="43.47662" lon="2.37886">
        <ele>447.753</ele>
        <time>2021-05-23T10:43:01Z</time>
      </trkpt>
      <trkpt lat="43.47662" lon="2.37886">
        <ele>447.76</ele>
        <time>2021-05-23T10:43:03Z</time>
      </trkpt>
      <trkpt lat="43.47662" lon="2.37886">
        <ele>447.766</ele>
        <time>2021-05-23T10:43:05Z</time>
      </trkpt>
      <trkpt lat="43.47662" lon="2.37886">
        <ele>447.768</ele>
        <time>2021-05-23T10:43:07Z</time>
      </trkpt>
      <trkpt lat="43.47662" lon="2.37887">
        <ele>447.411</ele>
        <time>2021-05-23T10:43:09Z</time>
      </trkpt>
      <trkpt lat="43.47662" lon="2.37888">
        <ele>446.63</ele>
        <time>2021-05-23T10:43:11Z</time>
      </trkpt>
      <trkpt lat="43.47661" lon="2.3789">
        <ele>446.961</ele>
        <time>2021-05-23T10:43:13Z</time>
      </trkpt>
      <trkpt lat="43.47661" lon="2.3789">
        <ele>446.743</ele>
        <time>2021-05-23T10:43:15Z</time>
      </trkpt>
      <trkpt lat="43.47661" lon="2.37889">
        <ele>446.719</ele>
        <time>2021-05-23T10:43:17Z</time>
      </trkpt>
      <trkpt lat="43.4766" lon="2.37888">
        <ele>447.591</ele>
        <time>2021-05-23T10:43:19Z</time>
      </trkpt>
      <trkpt lat="43.4766" lon="2.37887">
        <ele>447.326</ele>
        <time>2021-05-23T10:43:21Z</time>
      </trkpt>
      <trkpt lat="43.47661" lon="2.37888">
        <ele>447.036</ele>
        <time>2021-05-23T10:43:23Z</time>
      </trkpt>
      <trkpt lat="43.4766" lon="2.3789">
        <ele>447.602</ele>
        <time>2021-05-23T10:43:25Z</time>
      </trkpt>
      <trkpt lat="43.4766" lon="2.3789">
        <ele>447.574</ele>
        <time>2021-05-23T10:43:27Z</time>
      </trkpt>
      <trkpt lat="43.4766" lon="2.3789">
        <ele>447.569</ele>
        <time>2021-05-23T10:43:29Z</time>
      </trkpt>
      <trkpt lat="43.4766" lon="2.3789">
        <ele>447.564</ele>
        <time>2021-05-23T10:43:31Z</time>
      </trkpt>
      <trkpt lat="43.4766" lon="2.3789">
        <ele>447.56</ele>
        <time>2021-05-23T10:43:33Z</time>
      </trkpt>
      <trkpt lat="43.4766" lon="2.3789">
        <ele>447.562</ele>
        <time>2021-05-23T10:43:35Z</time>
      </trkpt>
      <trkpt lat="43.4766" lon="2.3789">
        <ele>447.776</ele>
        <time>2021-05-23T10:43:37Z</time>
      </trkpt>
      <trkpt lat="43.4766" lon="2.37891">
        <ele>447.984</ele>
        <time>2021-05-23T10:43:39Z</time>
      </trkpt>
      <trkpt lat="43.4766" lon="2.37891">
        <ele>447.867</ele>
        <time>2021-05-23T10:43:41Z</time>
      </trkpt>
      <trkpt lat="43.4766" lon="2.37892">
        <ele>447.547</ele>
        <time>2021-05-23T10:43:43Z</time>
      </trkpt>
      <trkpt lat="43.4766" lon="2.37891">
        <ele>447.648</ele>
        <time>2021-05-23T10:43:45Z</time>
      </trkpt>
      <trkpt lat="43.47659" lon="2.37891">
        <ele>447.267</ele>
        <time>2021-05-23T10:43:47Z</time>
      </trkpt>
      <trkpt lat="43.47659" lon="2.37892">
        <ele>447.201</ele>
        <time>2021-05-23T10:43:49Z</time>
      </trkpt>
      <trkpt lat="43.47659" lon="2.37892">
        <ele>447.066</ele>
        <time>2021-05-23T10:43:51Z</time>
      </trkpt>
      <trkpt lat="43.47658" lon="2.37893">
        <ele>447.309</ele>
        <time>2021-05-23T10:43:53Z</time>
      </trkpt>
      <trkpt lat="43.47658" lon="2.37894">
        <ele>448.066</ele>
        <time>2021-05-23T10:43:55Z</time>
      </trkpt>
      <trkpt lat="43.47656" lon="2.37895">
        <ele>447.703</ele>
        <time>2021-05-23T10:43:57Z</time>
      </trkpt>
      <trkpt lat="43.47656" lon="2.37894">
        <ele>447.377</ele>
        <time>2021-05-23T10:43:59Z</time>
      </trkpt>
      <trkpt lat="43.47656" lon="2.37894">
        <ele>447.231</ele>
        <time>2021-05-23T10:44:01Z</time>
      </trkpt>
      <trkpt lat="43.47655" lon="2.37894">
        <ele>447.556</ele>
        <time>2021-05-23T10:44:03Z</time>
      </trkpt>
      <trkpt lat="43.47655" lon="2.37895">
        <ele>447.507</ele>
        <time>2021-05-23T10:44:05Z</time>
      </trkpt>
      <trkpt lat="43.47655" lon="2.37895">
        <ele>447.53</ele>
        <time>2021-05-23T10:44:07Z</time>
      </trkpt>
      <trkpt lat="43.47655" lon="2.37893">
        <ele>445.881</ele>
        <time>2021-05-23T10:44:09Z</time>
      </trkpt>
      <trkpt lat="43.47657" lon="2.3789">
        <ele>445.276</ele>
        <time>2021-05-23T10:44:11Z</time>
      </trkpt>
      <trkpt lat="43.47658" lon="2.37889">
        <ele>445.658</ele>
        <time>2021-05-23T10:44:13Z</time>
      </trkpt>
      <trkpt lat="43.47659" lon="2.37887">
        <ele>445.661</ele>
        <time>2021-05-23T10:44:15Z</time>
      </trkpt>
      <trkpt lat="43.47659" lon="2.37886">
        <ele>445.063</ele>
        <time>2021-05-23T10:44:17Z</time>
      </trkpt>
      <trkpt lat="43.4766" lon="2.37886">
        <ele>445.948</ele>
        <time>2021-05-23T10:44:19Z</time>
      </trkpt>
      <trkpt lat="43.4766" lon="2.37886">
        <ele>446.099</ele>
        <time>2021-05-23T10:44:21Z</time>
      </trkpt>
      <trkpt lat="43.4766" lon="2.37886">
        <ele>446.189</ele>
        <time>2021-05-23T10:44:23Z</time>
      </trkpt>
      <trkpt lat="43.4766" lon="2.37886">
        <ele>446.189</ele>
        <time>2021-05-23T10:44:25Z</time>
      </trkpt>
      <trkpt lat="43.4766" lon="2.37886">
        <ele>446.195</ele>
        <time>2021-05-23T10:44:27Z</time>
      </trkpt>
      <trkpt lat="43.4766" lon="2.37886">
        <ele>446.194</ele>
        <time>2021-05-23T10:44:29Z</time>
      </trkpt>
      <trkpt lat="43.4766" lon="2.37886">
        <ele>446.196</ele>
        <time>2021-05-23T10:44:31Z</time>
      </trkpt>
      <trkpt lat="43.4766" lon="2.37886">
        <ele>446.261</ele>
        <time>2021-05-23T10:44:33Z</time>
      </trkpt>
      <trkpt lat="43.47661" lon="2.37885">
        <ele>446.404</ele>
        <time>2021-05-23T10:44:35Z</time>
      </trkpt>
      <trkpt lat="43.47661" lon="2.37885">
        <ele>447.12</ele>
        <time>2021-05-23T10:44:37Z</time>
      </trkpt>
      <trkpt lat="43.47661" lon="2.37885">
        <ele>447.127</ele>
        <time>2021-05-23T10:44:39Z</time>
      </trkpt>
      <trkpt lat="43.4766" lon="2.37886">
        <ele>447.171</ele>
        <time>2021-05-23T10:44:41Z</time>
      </trkpt>
      <trkpt lat="43.47661" lon="2.37886">
        <ele>447.258</ele>
        <time>2021-05-23T10:44:43Z</time>
      </trkpt>
      <trkpt lat="43.47661" lon="2.37886">
        <ele>447.257</ele>
        <time>2021-05-23T10:44:45Z</time>
      </trkpt>
      <trkpt lat="43.47661" lon="2.37886">
        <ele>447.258</ele>
        <time>2021-05-23T10:44:47Z</time>
      </trkpt>
      <trkpt lat="43.47661" lon="2.37887">
        <ele>447.34</ele>
        <time>2021-05-23T10:44:49Z</time>
      </trkpt>
      <trkpt lat="43.4766" lon="2.37889">
        <ele>447.894</ele>
        <time>2021-05-23T10:44:51Z</time>
      </trkpt>
      <trkpt lat="43.47659" lon="2.3789">
        <ele>447.609</ele>
        <time>2021-05-23T10:44:53Z</time>
      </trkpt>
      <trkpt lat="43.47658" lon="2.37891">
        <ele>447.639</ele>
        <time>2021-05-23T10:44:55Z</time>
      </trkpt>
      <trkpt lat="43.47656" lon="2.37891">
        <ele>447.189</ele>
        <time>2021-05-23T10:44:57Z</time>
      </trkpt>
      <trkpt lat="43.47655" lon="2.37891">
        <ele>447.347</ele>
        <time>2021-05-23T10:44:59Z</time>
      </trkpt>
      <trkpt lat="43.47654" lon="2.3789">
        <ele>447.045</ele>
        <time>2021-05-23T10:45:01Z</time>
      </trkpt>
      <trkpt lat="43.47654" lon="2.37888">
        <ele>447.3</ele>
        <time>2021-05-23T10:45:03Z</time>
      </trkpt>
      <trkpt lat="43.47654" lon="2.37888">
        <ele>447.287</ele>
        <time>2021-05-23T10:45:05Z</time>
      </trkpt>
      <trkpt lat="43.47655" lon="2.37887">
        <ele>446.865</ele>
        <time>2021-05-23T10:45:07Z</time>
      </trkpt>
      <trkpt lat="43.47655" lon="2.37887">
        <ele>446.889</ele>
        <time>2021-05-23T10:45:09Z</time>
      </trkpt>
      <trkpt lat="43.47655" lon="2.37887">
        <ele>446.891</ele>
        <time>2021-05-23T10:45:11Z</time>
      </trkpt>
      <trkpt lat="43.47655" lon="2.37887">
        <ele>446.889</ele>
        <time>2021-05-23T10:45:13Z</time>
      </trkpt>
      <trkpt lat="43.47655" lon="2.37887">
        <ele>446.887</ele>
        <time>2021-05-23T10:45:15Z</time>
      </trkpt>
      <trkpt lat="43.47655" lon="2.37887">
        <ele>446.886</ele>
        <time>2021-05-23T10:45:17Z</time>
      </trkpt>
      <trkpt lat="43.47655" lon="2.37887">
        <ele>446.888</ele>
        <time>2021-05-23T10:45:19Z</time>
      </trkpt>
      <trkpt lat="43.47655" lon="2.37887">
        <ele>446.886</ele>
        <time>2021-05-23T10:45:21Z</time>
      </trkpt>
      <trkpt lat="43.47655" lon="2.37887">
        <ele>446.886</ele>
        <time>2021-05-23T10:45:23Z</time>
      </trkpt>
      <trkpt lat="43.47655" lon="2.37886">
        <ele>447.068</ele>
        <time>2021-05-23T10:45:25Z</time>
      </trkpt>
      <trkpt lat="43.47654" lon="2.37885">
        <ele>447.295</ele>
        <time>2021-05-23T10:45:27Z</time>
      </trkpt>
      <trkpt lat="43.47654" lon="2.37882">
        <ele>447.84</ele>
        <time>2021-05-23T10:45:29Z</time>
      </trkpt>
      <trkpt lat="43.47653" lon="2.37881">
        <ele>447.684</ele>
        <time>2021-05-23T10:45:31Z</time>
      </trkpt>
      <trkpt lat="43.47651" lon="2.37879">
        <ele>447.773</ele>
        <time>2021-05-23T10:45:33Z</time>
      </trkpt>
      <trkpt lat="43.47651" lon="2.37879">
        <ele>447.64</ele>
        <time>2021-05-23T10:45:35Z</time>
      </trkpt>
      <trkpt lat="43.47651" lon="2.3788">
        <ele>447.614</ele>
        <time>2021-05-23T10:45:37Z</time>
      </trkpt>
      <trkpt lat="43.47651" lon="2.3788">
        <ele>447.611</ele>
        <time>2021-05-23T10:45:39Z</time>
      </trkpt>
      <trkpt lat="43.47651" lon="2.3788">
        <ele>447.608</ele>
        <time>2021-05-23T10:45:41Z</time>
      </trkpt>
      <trkpt lat="43.47651" lon="2.37879">
        <ele>447.672</ele>
        <time>2021-05-23T10:45:43Z</time>
      </trkpt>
      <trkpt lat="43.47651" lon="2.37879">
        <ele>447.703</ele>
        <time>2021-05-23T10:45:45Z</time>
      </trkpt>
      <trkpt lat="43.47651" lon="2.37881">
        <ele>447.572</ele>
        <time>2021-05-23T10:45:47Z</time>
      </trkpt>
      <trkpt lat="43.47651" lon="2.37883">
        <ele>448.41</ele>
        <time>2021-05-23T10:45:49Z</time>
      </trkpt>
      <trkpt lat="43.47651" lon="2.37885">
        <ele>448.236</ele>
        <time>2021-05-23T10:45:51Z</time>
      </trkpt>
      <trkpt lat="43.47651" lon="2.37887">
        <ele>448.566</ele>
        <time>2021-05-23T10:45:53Z</time>
      </trkpt>
      <trkpt lat="43.4765" lon="2.37889">
        <ele>447.934</ele>
        <time>2021-05-23T10:45:55Z</time>
      </trkpt>
      <trkpt lat="43.47649" lon="2.37889">
        <ele>447.48</ele>
        <time>2021-05-23T10:45:57Z</time>
      </trkpt>
      <trkpt lat="43.47647" lon="2.37889">
        <ele>446.046</ele>
        <time>2021-05-23T10:45:59Z</time>
      </trkpt>
      <trkpt lat="43.47646" lon="2.3789">
        <ele>445.66</ele>
        <time>2021-05-23T10:46:01Z</time>
      </trkpt>
      <trkpt lat="43.47644" lon="2.37889">
        <ele>444.818</ele>
        <time>2021-05-23T10:46:03Z</time>
      </trkpt>
      <trkpt lat="43.47642" lon="2.37889">
        <ele>443.789</ele>
        <time>2021-05-23T10:46:05Z</time>
      </trkpt>
      <trkpt lat="43.47641" lon="2.3789">
        <ele>443.509</ele>
        <time>2021-05-23T10:46:07Z</time>
      </trkpt>
      <trkpt lat="43.47639" lon="2.37889">
        <ele>443.089</ele>
        <time>2021-05-23T10:46:09Z</time>
      </trkpt>
      <trkpt lat="43.47638" lon="2.37888">
        <ele>443.298</ele>
        <time>2021-05-23T10:46:11Z</time>
      </trkpt>
      <trkpt lat="43.4764" lon="2.37889">
        <ele>441.266</ele>
        <time>2021-05-23T10:46:13Z</time>
      </trkpt>
      <trkpt lat="43.4764" lon="2.37889">
        <ele>442.217</ele>
        <time>2021-05-23T10:46:15Z</time>
      </trkpt>
      <trkpt lat="43.47639" lon="2.37888">
        <ele>442.843</ele>
        <time>2021-05-23T10:46:17Z</time>
      </trkpt>
      <trkpt lat="43.47638" lon="2.37888">
        <ele>444.158</ele>
        <time>2021-05-23T10:46:19Z</time>
      </trkpt>
      <trkpt lat="43.47638" lon="2.37888">
        <ele>444.076</ele>
        <time>2021-05-23T10:46:21Z</time>
      </trkpt>
      <trkpt lat="43.47638" lon="2.37888">
        <ele>444.078</ele>
        <time>2021-05-23T10:46:23Z</time>
      </trkpt>
      <trkpt lat="43.47638" lon="2.37888">
        <ele>444.08</ele>
        <time>2021-05-23T10:46:25Z</time>
      </trkpt>
      <trkpt lat="43.47638" lon="2.37888">
        <ele>444.508</ele>
        <time>2021-05-23T10:46:27Z</time>
      </trkpt>
      <trkpt lat="43.47639" lon="2.37888">
        <ele>445.518</ele>
        <time>2021-05-23T10:46:29Z</time>
      </trkpt>
      <trkpt lat="43.47639" lon="2.37889">
        <ele>445.751</ele>
        <time>2021-05-23T10:46:31Z</time>
      </trkpt>
      <trkpt lat="43.47637" lon="2.37889">
        <ele>445.392</ele>
        <time>2021-05-23T10:46:33Z</time>
      </trkpt>
      <trkpt lat="43.47638" lon="2.37889">
        <ele>445.821</ele>
        <time>2021-05-23T10:46:35Z</time>
      </trkpt>
      <trkpt lat="43.47638" lon="2.37889">
        <ele>445.984</ele>
        <time>2021-05-23T10:46:37Z</time>
      </trkpt>
      <trkpt lat="43.47637" lon="2.3789">
        <ele>446.702</ele>
        <time>2021-05-23T10:46:39Z</time>
      </trkpt>
      <trkpt lat="43.47637" lon="2.3789">
        <ele>446.731</ele>
        <time>2021-05-23T10:46:41Z</time>
      </trkpt>
      <trkpt lat="43.47637" lon="2.3789">
        <ele>446.734</ele>
        <time>2021-05-23T10:46:43Z</time>
      </trkpt>
      <trkpt lat="43.47637" lon="2.3789">
        <ele>446.736</ele>
        <time>2021-05-23T10:46:45Z</time>
      </trkpt>
      <trkpt lat="43.47637" lon="2.3789">
        <ele>446.914</ele>
        <time>2021-05-23T10:46:47Z</time>
      </trkpt>
      <trkpt lat="43.47637" lon="2.37889">
        <ele>446.732</ele>
        <time>2021-05-23T10:46:49Z</time>
      </trkpt>
      <trkpt lat="43.47637" lon="2.37889">
        <ele>446.734</ele>
        <time>2021-05-23T10:46:51Z</time>
      </trkpt>
      <trkpt lat="43.47637" lon="2.37889">
        <ele>446.548</ele>
        <time>2021-05-23T10:46:53Z</time>
      </trkpt>
      <trkpt lat="43.47638" lon="2.3789">
        <ele>446.971</ele>
        <time>2021-05-23T10:46:55Z</time>
      </trkpt>
      <trkpt lat="43.47641" lon="2.3789">
        <ele>446.814</ele>
        <time>2021-05-23T10:46:57Z</time>
      </trkpt>
      <trkpt lat="43.47642" lon="2.3789">
        <ele>446.747</ele>
        <time>2021-05-23T10:46:59Z</time>
      </trkpt>
      <trkpt lat="43.47643" lon="2.37891">
        <ele>447.063</ele>
        <time>2021-05-23T10:47:01Z</time>
      </trkpt>
      <trkpt lat="43.47644" lon="2.37891">
        <ele>446.794</ele>
        <time>2021-05-23T10:47:03Z</time>
      </trkpt>
      <trkpt lat="43.47645" lon="2.37891">
        <ele>447.748</ele>
        <time>2021-05-23T10:47:05Z</time>
      </trkpt>
      <trkpt lat="43.47645" lon="2.37891">
        <ele>448.021</ele>
        <time>2021-05-23T10:47:07Z</time>
      </trkpt>
      <trkpt lat="43.47647" lon="2.37892">
        <ele>446.938</ele>
        <time>2021-05-23T10:47:09Z</time>
      </trkpt>
      <trkpt lat="43.47648" lon="2.37891">
        <ele>447.92</ele>
        <time>2021-05-23T10:47:11Z</time>
      </trkpt>
      <trkpt lat="43.47649" lon="2.37891">
        <ele>449.01</ele>
        <time>2021-05-23T10:47:13Z</time>
      </trkpt>
      <trkpt lat="43.4765" lon="2.37892">
        <ele>447.741</ele>
        <time>2021-05-23T10:47:15Z</time>
      </trkpt>
      <trkpt lat="43.47651" lon="2.37891">
        <ele>447.75</ele>
        <time>2021-05-23T10:47:17Z</time>
      </trkpt>
      <trkpt lat="43.47651" lon="2.37891">
        <ele>447.442</ele>
        <time>2021-05-23T10:47:19Z</time>
      </trkpt>
      <trkpt lat="43.47651" lon="2.37891">
        <ele>447.511</ele>
        <time>2021-05-23T10:47:21Z</time>
      </trkpt>
      <trkpt lat="43.47651" lon="2.3789">
        <ele>447.496</ele>
        <time>2021-05-23T10:47:23Z</time>
      </trkpt>
      <trkpt lat="43.47651" lon="2.37891">
        <ele>448.426</ele>
        <time>2021-05-23T10:47:25Z</time>
      </trkpt>
      <trkpt lat="43.4765" lon="2.37891">
        <ele>448.246</ele>
        <time>2021-05-23T10:47:27Z</time>
      </trkpt>
      <trkpt lat="43.4765" lon="2.37891">
        <ele>448.246</ele>
        <time>2021-05-23T10:47:29Z</time>
      </trkpt>
      <trkpt lat="43.4765" lon="2.37891">
        <ele>448.247</ele>
        <time>2021-05-23T10:47:31Z</time>
      </trkpt>
      <trkpt lat="43.4765" lon="2.37891">
        <ele>448.25</ele>
        <time>2021-05-23T10:47:33Z</time>
      </trkpt>
      <trkpt lat="43.4765" lon="2.37891">
        <ele>448.252</ele>
        <time>2021-05-23T10:47:35Z</time>
      </trkpt>
      <trkpt lat="43.4765" lon="2.3789">
        <ele>448.416</ele>
        <time>2021-05-23T10:47:37Z</time>
      </trkpt>
      <trkpt lat="43.47654" lon="2.3789">
        <ele>448.979</ele>
        <time>2021-05-23T10:47:39Z</time>
      </trkpt>
      <trkpt lat="43.47656" lon="2.37891">
        <ele>446.665</ele>
        <time>2021-05-23T10:47:41Z</time>
      </trkpt>
      <trkpt lat="43.47655" lon="2.37891">
        <ele>447.178</ele>
        <time>2021-05-23T10:47:43Z</time>
      </trkpt>
      <trkpt lat="43.47655" lon="2.37891">
        <ele>447.181</ele>
        <time>2021-05-23T10:47:45Z</time>
      </trkpt>
      <trkpt lat="43.47655" lon="2.37891">
        <ele>447.179</ele>
        <time>2021-05-23T10:47:47Z</time>
      </trkpt>
      <trkpt lat="43.47655" lon="2.37891">
        <ele>447.265</ele>
        <time>2021-05-23T10:47:49Z</time>
      </trkpt>
      <trkpt lat="43.47655" lon="2.3789">
        <ele>448.276</ele>
        <time>2021-05-23T10:47:51Z</time>
      </trkpt>
      <trkpt lat="43.47658" lon="2.37888">
        <ele>450.836</ele>
        <time>2021-05-23T10:47:53Z</time>
      </trkpt>
      <trkpt lat="43.47659" lon="2.37886">
        <ele>452.435</ele>
        <time>2021-05-23T10:47:55Z</time>
      </trkpt>
      <trkpt lat="43.47658" lon="2.37883">
        <ele>453.794</ele>
        <time>2021-05-23T10:47:57Z</time>
      </trkpt>
      <trkpt lat="43.4766" lon="2.37887">
        <ele>453.18</ele>
        <time>2021-05-23T10:47:59Z</time>
      </trkpt>
      <trkpt lat="43.47661" lon="2.37882">
        <ele>455.155</ele>
        <time>2021-05-23T10:48:01Z</time>
      </trkpt>
      <trkpt lat="43.47658" lon="2.37881">
        <ele>452.999</ele>
        <time>2021-05-23T10:48:03Z</time>
      </trkpt>
      <trkpt lat="43.47656" lon="2.37882">
        <ele>452.51</ele>
        <time>2021-05-23T10:48:05Z</time>
      </trkpt>
      <trkpt lat="43.47654" lon="2.37882">
        <ele>452.165</ele>
        <time>2021-05-23T10:48:07Z</time>
      </trkpt>
      <trkpt lat="43.47653" lon="2.37882">
        <ele>452.159</ele>
        <time>2021-05-23T10:48:09Z</time>
      </trkpt>
      <trkpt lat="43.47652" lon="2.37882">
        <ele>453.259</ele>
        <time>2021-05-23T10:48:11Z</time>
      </trkpt>
      <trkpt lat="43.4765" lon="2.37882">
        <ele>453.387</ele>
        <time>2021-05-23T10:48:13Z</time>
      </trkpt>
      <trkpt lat="43.47649" lon="2.37882">
        <ele>454.021</ele>
        <time>2021-05-23T10:48:15Z</time>
      </trkpt>
      <trkpt lat="43.47648" lon="2.37882">
        <ele>453.89</ele>
        <time>2021-05-23T10:48:17Z</time>
      </trkpt>
      <trkpt lat="43.47646" lon="2.37882">
        <ele>455.205</ele>
        <time>2021-05-23T10:48:19Z</time>
      </trkpt>
      <trkpt lat="43.47644" lon="2.37882">
        <ele>455.098</ele>
        <time>2021-05-23T10:48:21Z</time>
      </trkpt>
      <trkpt lat="43.47642" lon="2.37883">
        <ele>455.388</ele>
        <time>2021-05-23T10:48:23Z</time>
      </trkpt>
      <trkpt lat="43.4764" lon="2.37883">
        <ele>456.228</ele>
        <time>2021-05-23T10:48:25Z</time>
      </trkpt>
      <trkpt lat="43.47639" lon="2.37882">
        <ele>454.322</ele>
        <time>2021-05-23T10:48:27Z</time>
      </trkpt>
      <trkpt lat="43.47637" lon="2.37883">
        <ele>454.003</ele>
        <time>2021-05-23T10:48:29Z</time>
      </trkpt>
      <trkpt lat="43.47635" lon="2.37883">
        <ele>452.893</ele>
        <time>2021-05-23T10:48:31Z</time>
      </trkpt>
      <trkpt lat="43.47634" lon="2.37884">
        <ele>453.527</ele>
        <time>2021-05-23T10:48:33Z</time>
      </trkpt>
      <trkpt lat="43.47634" lon="2.37884">
        <ele>452.85</ele>
        <time>2021-05-23T10:48:35Z</time>
      </trkpt>
      <trkpt lat="43.47633" lon="2.37884">
        <ele>453.385</ele>
        <time>2021-05-23T10:48:37Z</time>
      </trkpt>
      <trkpt lat="43.47633" lon="2.37883">
        <ele>453.557</ele>
        <time>2021-05-23T10:48:39Z</time>
      </trkpt>
      <trkpt lat="43.47633" lon="2.37883">
        <ele>453.556</ele>
        <time>2021-05-23T10:48:41Z</time>
      </trkpt>
      <trkpt lat="43.47632" lon="2.37883">
        <ele>453.236</ele>
        <time>2021-05-23T10:48:43Z</time>
      </trkpt>
      <trkpt lat="43.47632" lon="2.37882">
        <ele>453.374</ele>
        <time>2021-05-23T10:48:45Z</time>
      </trkpt>
      <trkpt lat="43.47632" lon="2.37882">
        <ele>453.721</ele>
        <time>2021-05-23T10:48:47Z</time>
      </trkpt>
      <trkpt lat="43.47632" lon="2.37882">
        <ele>453.726</ele>
        <time>2021-05-23T10:48:49Z</time>
      </trkpt>
      <trkpt lat="43.47632" lon="2.37882">
        <ele>453.726</ele>
        <time>2021-05-23T10:48:51Z</time>
      </trkpt>
      <trkpt lat="43.47632" lon="2.37882">
        <ele>453.712</ele>
        <time>2021-05-23T10:48:53Z</time>
      </trkpt>
      <trkpt lat="43.47632" lon="2.37882">
        <ele>453.709</ele>
        <time>2021-05-23T10:48:55Z</time>
      </trkpt>
      <trkpt lat="43.47632" lon="2.37882">
        <ele>453.702</ele>
        <time>2021-05-23T10:48:57Z</time>
      </trkpt>
      <trkpt lat="43.47632" lon="2.37882">
        <ele>453.698</ele>
        <time>2021-05-23T10:48:59Z</time>
      </trkpt>
      <trkpt lat="43.47632" lon="2.37882">
        <ele>453.69</ele>
        <time>2021-05-23T10:49:01Z</time>
      </trkpt>
      <trkpt lat="43.47632" lon="2.37882">
        <ele>453.683</ele>
        <time>2021-05-23T10:49:03Z</time>
      </trkpt>
      <trkpt lat="43.47632" lon="2.37882">
        <ele>453.683</ele>
        <time>2021-05-23T10:49:05Z</time>
      </trkpt>
      <trkpt lat="43.47632" lon="2.37882">
        <ele>453.678</ele>
        <time>2021-05-23T10:49:07Z</time>
      </trkpt>
      <trkpt lat="43.47632" lon="2.37882">
        <ele>453.684</ele>
        <time>2021-05-23T10:49:09Z</time>
      </trkpt>
      <trkpt lat="43.47632" lon="2.37882">
        <ele>453.699</ele>
        <time>2021-05-23T10:49:11Z</time>
      </trkpt>
      <trkpt lat="43.47632" lon="2.37882">
        <ele>453.696</ele>
        <time>2021-05-23T10:49:13Z</time>
      </trkpt>
      <trkpt lat="43.47632" lon="2.37882">
        <ele>453.701</ele>
        <time>2021-05-23T10:49:15Z</time>
      </trkpt>
      <trkpt lat="43.47632" lon="2.37882">
        <ele>453.703</ele>
        <time>2021-05-23T10:49:17Z</time>
      </trkpt>
      <trkpt lat="43.47632" lon="2.37882">
        <ele>453.69</ele>
        <time>2021-05-23T10:49:19Z</time>
      </trkpt>
      <trkpt lat="43.47632" lon="2.37882">
        <ele>453.695</ele>
        <time>2021-05-23T10:49:21Z</time>
      </trkpt>
      <trkpt lat="43.47632" lon="2.37882">
        <ele>453.713</ele>
        <time>2021-05-23T10:49:23Z</time>
      </trkpt>
      <trkpt lat="43.47632" lon="2.37882">
        <ele>453.708</ele>
        <time>2021-05-23T10:49:25Z</time>
      </trkpt>
      <trkpt lat="43.47632" lon="2.37882">
        <ele>453.717</ele>
        <time>2021-05-23T10:49:27Z</time>
      </trkpt>
      <trkpt lat="43.47632" lon="2.37882">
        <ele>453.721</ele>
        <time>2021-05-23T10:49:29Z</time>
      </trkpt>
      <trkpt lat="43.47632" lon="2.37882">
        <ele>453.732</ele>
        <time>2021-05-23T10:49:31Z</time>
      </trkpt>
      <trkpt lat="43.47632" lon="2.37882">
        <ele>453.73</ele>
        <time>2021-05-23T10:49:33Z</time>
      </trkpt>
      <trkpt lat="43.47632" lon="2.37882">
        <ele>453.727</ele>
        <time>2021-05-23T10:49:35Z</time>
      </trkpt>
      <trkpt lat="43.47632" lon="2.37882">
        <ele>453.725</ele>
        <time>2021-05-23T10:49:37Z</time>
      </trkpt>
      <trkpt lat="43.47632" lon="2.37882">
        <ele>453.732</ele>
        <time>2021-05-23T10:49:39Z</time>
      </trkpt>
      <trkpt lat="43.47632" lon="2.37882">
        <ele>453.744</ele>
        <time>2021-05-23T10:49:41Z</time>
      </trkpt>
      <trkpt lat="43.47632" lon="2.37882">
        <ele>453.734</ele>
        <time>2021-05-23T10:49:43Z</time>
      </trkpt>
      <trkpt lat="43.47632" lon="2.37882">
        <ele>453.73</ele>
        <time>2021-05-23T10:49:45Z</time>
      </trkpt>
      <trkpt lat="43.47632" lon="2.37882">
        <ele>453.732</ele>
        <time>2021-05-23T10:49:47Z</time>
      </trkpt>
      <trkpt lat="43.47632" lon="2.37882">
        <ele>453.737</ele>
        <time>2021-05-23T10:49:49Z</time>
      </trkpt>
      <trkpt lat="43.47632" lon="2.37882">
        <ele>453.738</ele>
        <time>2021-05-23T10:49:51Z</time>
      </trkpt>
      <trkpt lat="43.47632" lon="2.37882">
        <ele>453.733</ele>
        <time>2021-05-23T10:49:53Z</time>
      </trkpt>
      <trkpt lat="43.47632" lon="2.37882">
        <ele>452.765</ele>
        <time>2021-05-23T10:49:55Z</time>
      </trkpt>
      <trkpt lat="43.47631" lon="2.37883">
        <ele>454.263</ele>
        <time>2021-05-23T10:49:57Z</time>
      </trkpt>
      <trkpt lat="43.4763" lon="2.37883">
        <ele>454.736</ele>
        <time>2021-05-23T10:49:59Z</time>
      </trkpt>
      <trkpt lat="43.4763" lon="2.37884">
        <ele>454.832</ele>
        <time>2021-05-23T10:50:01Z</time>
      </trkpt>
      <trkpt lat="43.4763" lon="2.37884">
        <ele>454.88</ele>
        <time>2021-05-23T10:50:03Z</time>
      </trkpt>
      <trkpt lat="43.47629" lon="2.37884">
        <ele>454.851</ele>
        <time>2021-05-23T10:50:05Z</time>
      </trkpt>
      <trkpt lat="43.47629" lon="2.37884">
        <ele>454.849</ele>
        <time>2021-05-23T10:50:07Z</time>
      </trkpt>
      <trkpt lat="43.47629" lon="2.37884">
        <ele>454.699</ele>
        <time>2021-05-23T10:50:09Z</time>
      </trkpt>
      <trkpt lat="43.47628" lon="2.37883">
        <ele>455.501</ele>
        <time>2021-05-23T10:50:11Z</time>
      </trkpt>
      <trkpt lat="43.47628" lon="2.37883">
        <ele>455.725</ele>
        <time>2021-05-23T10:50:13Z</time>
      </trkpt>
      <trkpt lat="43.47627" lon="2.37883">
        <ele>455.674</ele>
        <time>2021-05-23T10:50:15Z</time>
      </trkpt>
      <trkpt lat="43.47627" lon="2.37884">
        <ele>455.747</ele>
        <time>2021-05-23T10:50:17Z</time>
      </trkpt>
      <trkpt lat="43.47627" lon="2.37884">
        <ele>455.752</ele>
        <time>2021-05-23T10:50:19Z</time>
      </trkpt>
      <trkpt lat="43.47627" lon="2.37884">
        <ele>455.716</ele>
        <time>2021-05-23T10:50:21Z</time>
      </trkpt>
      <trkpt lat="43.47627" lon="2.37884">
        <ele>455.718</ele>
        <time>2021-05-23T10:50:23Z</time>
      </trkpt>
      <trkpt lat="43.47627" lon="2.37884">
        <ele>455.518</ele>
        <time>2021-05-23T10:50:25Z</time>
      </trkpt>
      <trkpt lat="43.47627" lon="2.37884">
        <ele>455.519</ele>
        <time>2021-05-23T10:50:27Z</time>
      </trkpt>
      <trkpt lat="43.47627" lon="2.37884">
        <ele>455.515</ele>
        <time>2021-05-23T10:50:29Z</time>
      </trkpt>
      <trkpt lat="43.47627" lon="2.37884">
        <ele>455.507</ele>
        <time>2021-05-23T10:50:31Z</time>
      </trkpt>
      <trkpt lat="43.47627" lon="2.37884">
        <ele>455.5</ele>
        <time>2021-05-23T10:50:33Z</time>
      </trkpt>
      <trkpt lat="43.47627" lon="2.37884">
        <ele>455.43</ele>
        <time>2021-05-23T10:50:35Z</time>
      </trkpt>
      <trkpt lat="43.47627" lon="2.37884">
        <ele>455.43</ele>
        <time>2021-05-23T10:50:37Z</time>
      </trkpt>
      <trkpt lat="43.47627" lon="2.37884">
        <ele>455.419</ele>
        <time>2021-05-23T10:50:39Z</time>
      </trkpt>
      <trkpt lat="43.47627" lon="2.37884">
        <ele>455.413</ele>
        <time>2021-05-23T10:50:41Z</time>
      </trkpt>
      <trkpt lat="43.47627" lon="2.37884">
        <ele>455.406</ele>
        <time>2021-05-23T10:50:43Z</time>
      </trkpt>
      <trkpt lat="43.47627" lon="2.37884">
        <ele>455.413</ele>
        <time>2021-05-23T10:50:45Z</time>
      </trkpt>
      <trkpt lat="43.47627" lon="2.37884">
        <ele>455.412</ele>
        <time>2021-05-23T10:50:47Z</time>
      </trkpt>
      <trkpt lat="43.47627" lon="2.37884">
        <ele>455.4</ele>
        <time>2021-05-23T10:50:49Z</time>
      </trkpt>
      <trkpt lat="43.47627" lon="2.37884">
        <ele>455.409</ele>
        <time>2021-05-23T10:50:51Z</time>
      </trkpt>
      <trkpt lat="43.47627" lon="2.37884">
        <ele>455.409</ele>
        <time>2021-05-23T10:50:53Z</time>
      </trkpt>
      <trkpt lat="43.47627" lon="2.37884">
        <ele>455.413</ele>
        <time>2021-05-23T10:50:55Z</time>
      </trkpt>
      <trkpt lat="43.47627" lon="2.37884">
        <ele>455.414</ele>
        <time>2021-05-23T10:50:57Z</time>
      </trkpt>
      <trkpt lat="43.47627" lon="2.37884">
        <ele>455.414</ele>
        <time>2021-05-23T10:50:59Z</time>
      </trkpt>
      <trkpt lat="43.47627" lon="2.37884">
        <ele>455.416</ele>
        <time>2021-05-23T10:51:01Z</time>
      </trkpt>
      <trkpt lat="43.47627" lon="2.37884">
        <ele>455.419</ele>
        <time>2021-05-23T10:51:03Z</time>
      </trkpt>
      <trkpt lat="43.47627" lon="2.37884">
        <ele>455.224</ele>
        <time>2021-05-23T10:51:05Z</time>
      </trkpt>
      <trkpt lat="43.47627" lon="2.37883">
        <ele>455.144</ele>
        <time>2021-05-23T10:51:07Z</time>
      </trkpt>
      <trkpt lat="43.47627" lon="2.37883">
        <ele>455.129</ele>
        <time>2021-05-23T10:51:09Z</time>
      </trkpt>
      <trkpt lat="43.47627" lon="2.37883">
        <ele>455.098</ele>
        <time>2021-05-23T10:51:11Z</time>
      </trkpt>
      <trkpt lat="43.47627" lon="2.37883">
        <ele>455.058</ele>
        <time>2021-05-23T10:51:13Z</time>
      </trkpt>
      <trkpt lat="43.47627" lon="2.37883">
        <ele>454.946</ele>
        <time>2021-05-23T10:51:15Z</time>
      </trkpt>
      <trkpt lat="43.47627" lon="2.37883">
        <ele>455.216</ele>
        <time>2021-05-23T10:51:17Z</time>
      </trkpt>
      <trkpt lat="43.47627" lon="2.37884">
        <ele>455.552</ele>
        <time>2021-05-23T10:51:19Z</time>
      </trkpt>
      <trkpt lat="43.47627" lon="2.37884">
        <ele>455.637</ele>
        <time>2021-05-23T10:51:21Z</time>
      </trkpt>
      <trkpt lat="43.47627" lon="2.37884">
        <ele>455.629</ele>
        <time>2021-05-23T10:51:23Z</time>
      </trkpt>
      <trkpt lat="43.47627" lon="2.37884">
        <ele>455.628</ele>
        <time>2021-05-23T10:51:25Z</time>
      </trkpt>
      <trkpt lat="43.47627" lon="2.37884">
        <ele>455.624</ele>
        <time>2021-05-23T10:51:27Z</time>
      </trkpt>
      <trkpt lat="43.47627" lon="2.37884">
        <ele>455.626</ele>
        <time>2021-05-23T10:51:29Z</time>
      </trkpt>
      <trkpt lat="43.47627" lon="2.37884">
        <ele>455.625</ele>
        <time>2021-05-23T10:51:31Z</time>
      </trkpt>
      <trkpt lat="43.47627" lon="2.37884">
        <ele>455.904</ele>
        <time>2021-05-23T10:51:33Z</time>
      </trkpt>
      <trkpt lat="43.47627" lon="2.37884">
        <ele>455.427</ele>
        <time>2021-05-23T10:51:35Z</time>
      </trkpt>
      <trkpt lat="43.47627" lon="2.37884">
        <ele>455.431</ele>
        <time>2021-05-23T10:51:37Z</time>
      </trkpt>
      <trkpt lat="43.47627" lon="2.37884">
        <ele>455.432</ele>
        <time>2021-05-23T10:51:39Z</time>
      </trkpt>
      <trkpt lat="43.47627" lon="2.37884">
        <ele>455.802</ele>
        <time>2021-05-23T10:51:41Z</time>
      </trkpt>
      <trkpt lat="43.47627" lon="2.37885">
        <ele>456.128</ele>
        <time>2021-05-23T10:51:43Z</time>
      </trkpt>
      <trkpt lat="43.47626" lon="2.37885">
        <ele>456.181</ele>
        <time>2021-05-23T10:51:45Z</time>
      </trkpt>
      <trkpt lat="43.47626" lon="2.37885">
        <ele>456.183</ele>
        <time>2021-05-23T10:51:47Z</time>
      </trkpt>
      <trkpt lat="43.47626" lon="2.37885">
        <ele>456.181</ele>
        <time>2021-05-23T10:51:49Z</time>
      </trkpt>
      <trkpt lat="43.47626" lon="2.37885">
        <ele>456.177</ele>
        <time>2021-05-23T10:51:51Z</time>
      </trkpt>
      <trkpt lat="43.47626" lon="2.37885">
        <ele>456.178</ele>
        <time>2021-05-23T10:51:53Z</time>
      </trkpt>
      <trkpt lat="43.47626" lon="2.37885">
        <ele>456.179</ele>
        <time>2021-05-23T10:51:55Z</time>
      </trkpt>
      <trkpt lat="43.47626" lon="2.37885">
        <ele>456.179</ele>
        <time>2021-05-23T10:51:57Z</time>
      </trkpt>
      <trkpt lat="43.47626" lon="2.37885">
        <ele>456.174</ele>
        <time>2021-05-23T10:51:59Z</time>
      </trkpt>
      <trkpt lat="43.47626" lon="2.37885">
        <ele>456.18</ele>
        <time>2021-05-23T10:52:01Z</time>
      </trkpt>
      <trkpt lat="43.47626" lon="2.37885">
        <ele>456.178</ele>
        <time>2021-05-23T10:52:03Z</time>
      </trkpt>
      <trkpt lat="43.47626" lon="2.37885">
        <ele>456.176</ele>
        <time>2021-05-23T10:52:05Z</time>
      </trkpt>
      <trkpt lat="43.47626" lon="2.37886">
        <ele>456.158</ele>
        <time>2021-05-23T10:52:07Z</time>
      </trkpt>
      <trkpt lat="43.47626" lon="2.37886">
        <ele>456.163</ele>
        <time>2021-05-23T10:52:09Z</time>
      </trkpt>
      <trkpt lat="43.47626" lon="2.37886">
        <ele>456.159</ele>
        <time>2021-05-23T10:52:11Z</time>
      </trkpt>
      <trkpt lat="43.47626" lon="2.37886">
        <ele>456.151</ele>
        <time>2021-05-23T10:52:13Z</time>
      </trkpt>
      <trkpt lat="43.47626" lon="2.37886">
        <ele>456.379</ele>
        <time>2021-05-23T10:52:15Z</time>
      </trkpt>
      <trkpt lat="43.47627" lon="2.37886">
        <ele>456.542</ele>
        <time>2021-05-23T10:52:17Z</time>
      </trkpt>
      <trkpt lat="43.47627" lon="2.37886">
        <ele>456.543</ele>
        <time>2021-05-23T10:52:19Z</time>
      </trkpt>
      <trkpt lat="43.47627" lon="2.37886">
        <ele>456.539</ele>
        <time>2021-05-23T10:52:21Z</time>
      </trkpt>
      <trkpt lat="43.47627" lon="2.37886">
        <ele>456.528</ele>
        <time>2021-05-23T10:52:23Z</time>
      </trkpt>
      <trkpt lat="43.47627" lon="2.37886">
        <ele>456.526</ele>
        <time>2021-05-23T10:52:25Z</time>
      </trkpt>
      <trkpt lat="43.47627" lon="2.37886">
        <ele>456.525</ele>
        <time>2021-05-23T10:52:27Z</time>
      </trkpt>
      <trkpt lat="43.47627" lon="2.37886">
        <ele>456.516</ele>
        <time>2021-05-23T10:52:29Z</time>
      </trkpt>
      <trkpt lat="43.47627" lon="2.37886">
        <ele>456.516</ele>
        <time>2021-05-23T10:52:31Z</time>
      </trkpt>
      <trkpt lat="43.47627" lon="2.37886">
        <ele>456.507</ele>
        <time>2021-05-23T10:52:33Z</time>
      </trkpt>
      <trkpt lat="43.47627" lon="2.37886">
        <ele>456.508</ele>
        <time>2021-05-23T10:52:35Z</time>
      </trkpt>
      <trkpt lat="43.47627" lon="2.37886">
        <ele>456.507</ele>
        <time>2021-05-23T10:52:37Z</time>
      </trkpt>
      <trkpt lat="43.47627" lon="2.37886">
        <ele>456.503</ele>
        <time>2021-05-23T10:52:39Z</time>
      </trkpt>
      <trkpt lat="43.47627" lon="2.37886">
        <ele>456.5</ele>
        <time>2021-05-23T10:52:41Z</time>
      </trkpt>
      <trkpt lat="43.47627" lon="2.37886">
        <ele>456.586</ele>
        <time>2021-05-23T10:52:43Z</time>
      </trkpt>
      <trkpt lat="43.47627" lon="2.37885">
        <ele>455.756</ele>
        <time>2021-05-23T10:52:45Z</time>
      </trkpt>
      <trkpt lat="43.47626" lon="2.37885">
        <ele>455.785</ele>
        <time>2021-05-23T10:52:47Z</time>
      </trkpt>
      <trkpt lat="43.47626" lon="2.37885">
        <ele>455.909</ele>
        <time>2021-05-23T10:52:49Z</time>
      </trkpt>
      <trkpt lat="43.47626" lon="2.37885">
        <ele>455.908</ele>
        <time>2021-05-23T10:52:51Z</time>
      </trkpt>
      <trkpt lat="43.47626" lon="2.37885">
        <ele>455.906</ele>
        <time>2021-05-23T10:52:53Z</time>
      </trkpt>
      <trkpt lat="43.47626" lon="2.37885">
        <ele>455.911</ele>
        <time>2021-05-23T10:52:55Z</time>
      </trkpt>
      <trkpt lat="43.47626" lon="2.37885">
        <ele>455.909</ele>
        <time>2021-05-23T10:52:57Z</time>
      </trkpt>
      <trkpt lat="43.47626" lon="2.37885">
        <ele>455.909</ele>
        <time>2021-05-23T10:52:59Z</time>
      </trkpt>
      <trkpt lat="43.47626" lon="2.37885">
        <ele>455.91</ele>
        <time>2021-05-23T10:53:01Z</time>
      </trkpt>
      <trkpt lat="43.47626" lon="2.37885">
        <ele>455.906</ele>
        <time>2021-05-23T10:53:03Z</time>
      </trkpt>
      <trkpt lat="43.47626" lon="2.37885">
        <ele>455.902</ele>
        <time>2021-05-23T10:53:05Z</time>
      </trkpt>
      <trkpt lat="43.47626" lon="2.37885">
        <ele>455.899</ele>
        <time>2021-05-23T10:53:07Z</time>
      </trkpt>
      <trkpt lat="43.47626" lon="2.37885">
        <ele>455.903</ele>
        <time>2021-05-23T10:53:09Z</time>
      </trkpt>
      <trkpt lat="43.47626" lon="2.37885">
        <ele>455.896</ele>
        <time>2021-05-23T10:53:11Z</time>
      </trkpt>
      <trkpt lat="43.47626" lon="2.37885">
        <ele>455.89</ele>
        <time>2021-05-23T10:53:13Z</time>
      </trkpt>
      <trkpt lat="43.47626" lon="2.37885">
        <ele>455.886</ele>
        <time>2021-05-23T10:53:15Z</time>
      </trkpt>
      <trkpt lat="43.47626" lon="2.37885">
        <ele>455.873</ele>
        <time>2021-05-23T10:53:17Z</time>
      </trkpt>
      <trkpt lat="43.47626" lon="2.37885">
        <ele>455.873</ele>
        <time>2021-05-23T10:53:19Z</time>
      </trkpt>
      <trkpt lat="43.47626" lon="2.37885">
        <ele>455.866</ele>
        <time>2021-05-23T10:53:21Z</time>
      </trkpt>
      <trkpt lat="43.47626" lon="2.37885">
        <ele>455.869</ele>
        <time>2021-05-23T10:53:23Z</time>
      </trkpt>
      <trkpt lat="43.47626" lon="2.37885">
        <ele>455.859</ele>
        <time>2021-05-23T10:53:25Z</time>
      </trkpt>
      <trkpt lat="43.47626" lon="2.37885">
        <ele>455.856</ele>
        <time>2021-05-23T10:53:27Z</time>
      </trkpt>
      <trkpt lat="43.47626" lon="2.37885">
        <ele>455.857</ele>
        <time>2021-05-23T10:53:29Z</time>
      </trkpt>
      <trkpt lat="43.47626" lon="2.37885">
        <ele>455.849</ele>
        <time>2021-05-23T10:53:31Z</time>
      </trkpt>
      <trkpt lat="43.47626" lon="2.37885">
        <ele>455.844</ele>
        <time>2021-05-23T10:53:33Z</time>
      </trkpt>
      <trkpt lat="43.47626" lon="2.37885">
        <ele>455.844</ele>
        <time>2021-05-23T10:53:35Z</time>
      </trkpt>
      <trkpt lat="43.47626" lon="2.37885">
        <ele>455.843</ele>
        <time>2021-05-23T10:53:37Z</time>
      </trkpt>
      <trkpt lat="43.47626" lon="2.37885">
        <ele>455.846</ele>
        <time>2021-05-23T10:53:39Z</time>
      </trkpt>
      <trkpt lat="43.47626" lon="2.37885">
        <ele>455.84</ele>
        <time>2021-05-23T10:53:41Z</time>
      </trkpt>
      <trkpt lat="43.47626" lon="2.37885">
        <ele>455.838</ele>
        <time>2021-05-23T10:53:43Z</time>
      </trkpt>
      <trkpt lat="43.47626" lon="2.37885">
        <ele>455.822</ele>
        <time>2021-05-23T10:53:45Z</time>
      </trkpt>
      <trkpt lat="43.47626" lon="2.37885">
        <ele>455.819</ele>
        <time>2021-05-23T10:53:47Z</time>
      </trkpt>
      <trkpt lat="43.47626" lon="2.37885">
        <ele>455.818</ele>
        <time>2021-05-23T10:53:49Z</time>
      </trkpt>
      <trkpt lat="43.47626" lon="2.37885">
        <ele>455.805</ele>
        <time>2021-05-23T10:53:51Z</time>
      </trkpt>
      <trkpt lat="43.47626" lon="2.37885">
        <ele>455.802</ele>
        <time>2021-05-23T10:53:53Z</time>
      </trkpt>
      <trkpt lat="43.47626" lon="2.37885">
        <ele>455.794</ele>
        <time>2021-05-23T10:53:55Z</time>
      </trkpt>
      <trkpt lat="43.47626" lon="2.37885">
        <ele>455.787</ele>
        <time>2021-05-23T10:53:57Z</time>
      </trkpt>
      <trkpt lat="43.47626" lon="2.37885">
        <ele>455.457</ele>
        <time>2021-05-23T10:53:59Z</time>
      </trkpt>
      <trkpt lat="43.47626" lon="2.37885">
        <ele>455.521</ele>
        <time>2021-05-23T10:54:01Z</time>
      </trkpt>
      <trkpt lat="43.47626" lon="2.37885">
        <ele>455.519</ele>
        <time>2021-05-23T10:54:03Z</time>
      </trkpt>
      <trkpt lat="43.47626" lon="2.37885">
        <ele>455.521</ele>
        <time>2021-05-23T10:54:05Z</time>
      </trkpt>
      <trkpt lat="43.47626" lon="2.37885">
        <ele>455.525</ele>
        <time>2021-05-23T10:54:07Z</time>
      </trkpt>
      <trkpt lat="43.47626" lon="2.37885">
        <ele>455.52</ele>
        <time>2021-05-23T10:54:09Z</time>
      </trkpt>
      <trkpt lat="43.47626" lon="2.37885">
        <ele>455.522</ele>
        <time>2021-05-23T10:54:11Z</time>
      </trkpt>
      <trkpt lat="43.47626" lon="2.37885">
        <ele>455.511</ele>
        <time>2021-05-23T10:54:13Z</time>
      </trkpt>
      <trkpt lat="43.47626" lon="2.37885">
        <ele>455.509</ele>
        <time>2021-05-23T10:54:15Z</time>
      </trkpt>
      <trkpt lat="43.47626" lon="2.37885">
        <ele>455.508</ele>
        <time>2021-05-23T10:54:17Z</time>
      </trkpt>
      <trkpt lat="43.47626" lon="2.37885">
        <ele>455.505</ele>
        <time>2021-05-23T10:54:19Z</time>
      </trkpt>
      <trkpt lat="43.47626" lon="2.37885">
        <ele>455.146</ele>
        <time>2021-05-23T10:54:21Z</time>
      </trkpt>
      <trkpt lat="43.47626" lon="2.37885">
        <ele>455.151</ele>
        <time>2021-05-23T10:54:23Z</time>
      </trkpt>
      <trkpt lat="43.47626" lon="2.37885">
        <ele>455.147</ele>
        <time>2021-05-23T10:54:25Z</time>
      </trkpt>
      <trkpt lat="43.47626" lon="2.37885">
        <ele>455.252</ele>
        <time>2021-05-23T10:54:27Z</time>
      </trkpt>
      <trkpt lat="43.47627" lon="2.37885">
        <ele>454.813</ele>
        <time>2021-05-23T10:54:29Z</time>
      </trkpt>
      <trkpt lat="43.47627" lon="2.37885">
        <ele>455.008</ele>
        <time>2021-05-23T10:54:31Z</time>
      </trkpt>
      <trkpt lat="43.47627" lon="2.37885">
        <ele>455.029</ele>
        <time>2021-05-23T10:54:33Z</time>
      </trkpt>
      <trkpt lat="43.47627" lon="2.37885">
        <ele>455.036</ele>
        <time>2021-05-23T10:54:35Z</time>
      </trkpt>
      <trkpt lat="43.47627" lon="2.37885">
        <ele>455.042</ele>
        <time>2021-05-23T10:54:37Z</time>
      </trkpt>
      <trkpt lat="43.47627" lon="2.37885">
        <ele>455.052</ele>
        <time>2021-05-23T10:54:39Z</time>
      </trkpt>
      <trkpt lat="43.47627" lon="2.37885">
        <ele>455.061</ele>
        <time>2021-05-23T10:54:41Z</time>
      </trkpt>
      <trkpt lat="43.47627" lon="2.37885">
        <ele>455.066</ele>
        <time>2021-05-23T10:54:43Z</time>
      </trkpt>
      <trkpt lat="43.47627" lon="2.37885">
        <ele>455.066</ele>
        <time>2021-05-23T10:54:45Z</time>
      </trkpt>
      <trkpt lat="43.47627" lon="2.37885">
        <ele>454.918</ele>
        <time>2021-05-23T10:54:47Z</time>
      </trkpt>
      <trkpt lat="43.47627" lon="2.37885">
        <ele>455.166</ele>
        <time>2021-05-23T10:54:49Z</time>
      </trkpt>
      <trkpt lat="43.47627" lon="2.37885">
        <ele>455.163</ele>
        <time>2021-05-23T10:54:51Z</time>
      </trkpt>
      <trkpt lat="43.47627" lon="2.37885">
        <ele>455.121</ele>
        <time>2021-05-23T10:54:53Z</time>
      </trkpt>
      <trkpt lat="43.47627" lon="2.37885">
        <ele>455.006</ele>
        <time>2021-05-23T10:54:55Z</time>
      </trkpt>
      <trkpt lat="43.47627" lon="2.37885">
        <ele>455.004</ele>
        <time>2021-05-23T10:54:57Z</time>
      </trkpt>
      <trkpt lat="43.47627" lon="2.37885">
        <ele>455.005</ele>
        <time>2021-05-23T10:54:59Z</time>
      </trkpt>
      <trkpt lat="43.47627" lon="2.37885">
        <ele>455.002</ele>
        <time>2021-05-23T10:55:01Z</time>
      </trkpt>
      <trkpt lat="43.47627" lon="2.37885">
        <ele>455.001</ele>
        <time>2021-05-23T10:55:03Z</time>
      </trkpt>
      <trkpt lat="43.47627" lon="2.37885">
        <ele>455.007</ele>
        <time>2021-05-23T10:55:05Z</time>
      </trkpt>
      <trkpt lat="43.47627" lon="2.37885">
        <ele>455.006</ele>
        <time>2021-05-23T10:55:07Z</time>
      </trkpt>
      <trkpt lat="43.47627" lon="2.37885">
        <ele>454.998</ele>
        <time>2021-05-23T10:55:09Z</time>
      </trkpt>
      <trkpt lat="43.47627" lon="2.37885">
        <ele>455.007</ele>
        <time>2021-05-23T10:55:11Z</time>
      </trkpt>
      <trkpt lat="43.47627" lon="2.37885">
        <ele>455.007</ele>
        <time>2021-05-23T10:55:13Z</time>
      </trkpt>
      <trkpt lat="43.47627" lon="2.37885">
        <ele>455.001</ele>
        <time>2021-05-23T10:55:15Z</time>
      </trkpt>
      <trkpt lat="43.47627" lon="2.37885">
        <ele>454.999</ele>
        <time>2021-05-23T10:55:17Z</time>
      </trkpt>
      <trkpt lat="43.47627" lon="2.37885">
        <ele>455.009</ele>
        <time>2021-05-23T10:55:19Z</time>
      </trkpt>
      <trkpt lat="43.47627" lon="2.37885">
        <ele>455.019</ele>
        <time>2021-05-23T10:55:21Z</time>
      </trkpt>
      <trkpt lat="43.47627" lon="2.37885">
        <ele>455.022</ele>
        <time>2021-05-23T10:55:23Z</time>
      </trkpt>
      <trkpt lat="43.47627" lon="2.37885">
        <ele>455.029</ele>
        <time>2021-05-23T10:55:25Z</time>
      </trkpt>
      <trkpt lat="43.47627" lon="2.37885">
        <ele>455.027</ele>
        <time>2021-05-23T10:55:27Z</time>
      </trkpt>
      <trkpt lat="43.47627" lon="2.37885">
        <ele>455.022</ele>
        <time>2021-05-23T10:55:29Z</time>
      </trkpt>
      <trkpt lat="43.47627" lon="2.37885">
        <ele>455.026</ele>
        <time>2021-05-23T10:55:31Z</time>
      </trkpt>
      <trkpt lat="43.47627" lon="2.37885">
        <ele>455.034</ele>
        <time>2021-05-23T10:55:33Z</time>
      </trkpt>
      <trkpt lat="43.47627" lon="2.37885">
        <ele>455.028</ele>
        <time>2021-05-23T10:55:35Z</time>
      </trkpt>
      <trkpt lat="43.47627" lon="2.37885">
        <ele>455.035</ele>
        <time>2021-05-23T10:55:37Z</time>
      </trkpt>
      <trkpt lat="43.47627" lon="2.37885">
        <ele>455.033</ele>
        <time>2021-05-23T10:55:39Z</time>
      </trkpt>
      <trkpt lat="43.47627" lon="2.37885">
        <ele>455.026</ele>
        <time>2021-05-23T10:55:41Z</time>
      </trkpt>
      <trkpt lat="43.47627" lon="2.37885">
        <ele>455.025</ele>
        <time>2021-05-23T10:55:43Z</time>
      </trkpt>
      <trkpt lat="43.47627" lon="2.37885">
        <ele>455.027</ele>
        <time>2021-05-23T10:55:45Z</time>
      </trkpt>
      <trkpt lat="43.47627" lon="2.37884">
        <ele>454.818</ele>
        <time>2021-05-23T10:55:47Z</time>
      </trkpt>
      <trkpt lat="43.47627" lon="2.37884">
        <ele>455.563</ele>
        <time>2021-05-23T10:55:49Z</time>
      </trkpt>
      <trkpt lat="43.47627" lon="2.37884">
        <ele>455.617</ele>
        <time>2021-05-23T10:55:51Z</time>
      </trkpt>
      <trkpt lat="43.47627" lon="2.37884">
        <ele>455.647</ele>
        <time>2021-05-23T10:55:53Z</time>
      </trkpt>
      <trkpt lat="43.47627" lon="2.37885">
        <ele>455.48</ele>
        <time>2021-05-23T10:55:55Z</time>
      </trkpt>
      <trkpt lat="43.47627" lon="2.37885">
        <ele>455.434</ele>
        <time>2021-05-23T10:55:57Z</time>
      </trkpt>
      <trkpt lat="43.47627" lon="2.37885">
        <ele>455.383</ele>
        <time>2021-05-23T10:55:59Z</time>
      </trkpt>
      <trkpt lat="43.47628" lon="2.37885">
        <ele>454.993</ele>
        <time>2021-05-23T10:56:01Z</time>
      </trkpt>
      <trkpt lat="43.47628" lon="2.37885">
        <ele>454.94</ele>
        <time>2021-05-23T10:56:03Z</time>
      </trkpt>
      <trkpt lat="43.47628" lon="2.37884">
        <ele>453.88</ele>
        <time>2021-05-23T10:56:05Z</time>
      </trkpt>
      <trkpt lat="43.47628" lon="2.37884">
        <ele>453.875</ele>
        <time>2021-05-23T10:56:07Z</time>
      </trkpt>
      <trkpt lat="43.47628" lon="2.37884">
        <ele>453.87</ele>
        <time>2021-05-23T10:56:09Z</time>
      </trkpt>
      <trkpt lat="43.47628" lon="2.37884">
        <ele>453.868</ele>
        <time>2021-05-23T10:56:11Z</time>
      </trkpt>
      <trkpt lat="43.47628" lon="2.37884">
        <ele>453.869</ele>
        <time>2021-05-23T10:56:13Z</time>
      </trkpt>
      <trkpt lat="43.47628" lon="2.37884">
        <ele>453.868</ele>
        <time>2021-05-23T10:56:15Z</time>
      </trkpt>
      <trkpt lat="43.47628" lon="2.37884">
        <ele>453.865</ele>
        <time>2021-05-23T10:56:17Z</time>
      </trkpt>
      <trkpt lat="43.47628" lon="2.37884">
        <ele>453.86</ele>
        <time>2021-05-23T10:56:19Z</time>
      </trkpt>
      <trkpt lat="43.47628" lon="2.37884">
        <ele>453.858</ele>
        <time>2021-05-23T10:56:21Z</time>
      </trkpt>
      <trkpt lat="43.47628" lon="2.37884">
        <ele>453.858</ele>
        <time>2021-05-23T10:56:23Z</time>
      </trkpt>
      <trkpt lat="43.47628" lon="2.37884">
        <ele>453.857</ele>
        <time>2021-05-23T10:56:25Z</time>
      </trkpt>
      <trkpt lat="43.47628" lon="2.37884">
        <ele>453.858</ele>
        <time>2021-05-23T10:56:27Z</time>
      </trkpt>
      <trkpt lat="43.47628" lon="2.37884">
        <ele>453.855</ele>
        <time>2021-05-23T10:56:29Z</time>
      </trkpt>
      <trkpt lat="43.47628" lon="2.37884">
        <ele>453.856</ele>
        <time>2021-05-23T10:56:30Z</time>
      </trkpt>
      <trkpt lat="43.47628" lon="2.37884">
        <ele>453.856</ele>
        <time>2021-05-23T10:56:33Z</time>
      </trkpt>
      <trkpt lat="43.47628" lon="2.37884">
        <ele>453.856</ele>
        <time>2021-05-23T10:56:35Z</time>
      </trkpt>
      <trkpt lat="43.47628" lon="2.37884">
        <ele>453.854</ele>
        <time>2021-05-23T10:56:37Z</time>
      </trkpt>
      <trkpt lat="43.47628" lon="2.37884">
        <ele>453.857</ele>
        <time>2021-05-23T10:56:39Z</time>
      </trkpt>
      <trkpt lat="43.47628" lon="2.37884">
        <ele>453.856</ele>
        <time>2021-05-23T10:56:41Z</time>
      </trkpt>
      <trkpt lat="43.47628" lon="2.37884">
        <ele>453.859</ele>
        <time>2021-05-23T10:56:43Z</time>
      </trkpt>
      <trkpt lat="43.47628" lon="2.37884">
        <ele>453.858</ele>
        <time>2021-05-23T10:56:45Z</time>
      </trkpt>
      <trkpt lat="43.47628" lon="2.37884">
        <ele>453.857</ele>
        <time>2021-05-23T10:56:47Z</time>
      </trkpt>
      <trkpt lat="43.47628" lon="2.37884">
        <ele>453.858</ele>
        <time>2021-05-23T10:56:49Z</time>
      </trkpt>
      <trkpt lat="43.47628" lon="2.37884">
        <ele>453.854</ele>
        <time>2021-05-23T10:56:51Z</time>
      </trkpt>
      <trkpt lat="43.47628" lon="2.37884">
        <ele>453.853</ele>
        <time>2021-05-23T10:56:53Z</time>
      </trkpt>
      <trkpt lat="43.47628" lon="2.37884">
        <ele>453.855</ele>
        <time>2021-05-23T10:56:55Z</time>
      </trkpt>
      <trkpt lat="43.47628" lon="2.37884">
        <ele>453.853</ele>
        <time>2021-05-23T10:56:57Z</time>
      </trkpt>
      <trkpt lat="43.47628" lon="2.37884">
        <ele>453.858</ele>
        <time>2021-05-23T10:56:59Z</time>
      </trkpt>
      <trkpt lat="43.47628" lon="2.37884">
        <ele>453.856</ele>
        <time>2021-05-23T10:57:01Z</time>
      </trkpt>
      <trkpt lat="43.47628" lon="2.37884">
        <ele>453.858</ele>
        <time>2021-05-23T10:57:03Z</time>
      </trkpt>
      <trkpt lat="43.47628" lon="2.37884">
        <ele>453.857</ele>
        <time>2021-05-23T10:57:05Z</time>
      </trkpt>
      <trkpt lat="43.47628" lon="2.37884">
        <ele>453.859</ele>
        <time>2021-05-23T10:57:07Z</time>
      </trkpt>
      <trkpt lat="43.47628" lon="2.37884">
        <ele>453.86</ele>
        <time>2021-05-23T10:57:09Z</time>
      </trkpt>
      <trkpt lat="43.47628" lon="2.37884">
        <ele>453.859</ele>
        <time>2021-05-23T10:57:11Z</time>
      </trkpt>
      <trkpt lat="43.47628" lon="2.37884">
        <ele>453.858</ele>
        <time>2021-05-23T10:57:13Z</time>
      </trkpt>
      <trkpt lat="43.47628" lon="2.37884">
        <ele>453.856</ele>
        <time>2021-05-23T10:57:15Z</time>
      </trkpt>
      <trkpt lat="43.47628" lon="2.37884">
        <ele>453.855</ele>
        <time>2021-05-23T10:57:17Z</time>
      </trkpt>
      <trkpt lat="43.47628" lon="2.37884">
        <ele>453.855</ele>
        <time>2021-05-23T10:57:19Z</time>
      </trkpt>
      <trkpt lat="43.47628" lon="2.37884">
        <ele>453.856</ele>
        <time>2021-05-23T10:57:21Z</time>
      </trkpt>
      <trkpt lat="43.47628" lon="2.37884">
        <ele>453.858</ele>
        <time>2021-05-23T10:57:23Z</time>
      </trkpt>
      <trkpt lat="43.47628" lon="2.37884">
        <ele>453.859</ele>
        <time>2021-05-23T10:57:25Z</time>
      </trkpt>
      <trkpt lat="43.47628" lon="2.37884">
        <ele>453.857</ele>
        <time>2021-05-23T10:57:27Z</time>
      </trkpt>
      <trkpt lat="43.47628" lon="2.37884">
        <ele>453.856</ele>
        <time>2021-05-23T10:57:29Z</time>
      </trkpt>
      <trkpt lat="43.47628" lon="2.37884">
        <ele>453.858</ele>
        <time>2021-05-23T10:57:31Z</time>
      </trkpt>
      <trkpt lat="43.47628" lon="2.37884">
        <ele>453.858</ele>
        <time>2021-05-23T10:57:33Z</time>
      </trkpt>
      <trkpt lat="43.47628" lon="2.37884">
        <ele>453.854</ele>
        <time>2021-05-23T10:57:35Z</time>
      </trkpt>
      <trkpt lat="43.47628" lon="2.37884">
        <ele>453.857</ele>
        <time>2021-05-23T10:57:37Z</time>
      </trkpt>
      <trkpt lat="43.47628" lon="2.37884">
        <ele>453.859</ele>
        <time>2021-05-23T10:57:39Z</time>
      </trkpt>
      <trkpt lat="43.47628" lon="2.37884">
        <ele>453.859</ele>
        <time>2021-05-23T10:57:41Z</time>
      </trkpt>
      <trkpt lat="43.47628" lon="2.37884">
        <ele>453.857</ele>
        <time>2021-05-23T10:57:43Z</time>
      </trkpt>
      <trkpt lat="43.47628" lon="2.37884">
        <ele>453.858</ele>
        <time>2021-05-23T10:57:45Z</time>
      </trkpt>
      <trkpt lat="43.47628" lon="2.37884">
        <ele>453.86</ele>
        <time>2021-05-23T10:57:47Z</time>
      </trkpt>
      <trkpt lat="43.47628" lon="2.37884">
        <ele>453.859</ele>
        <time>2021-05-23T10:57:49Z</time>
      </trkpt>
      <trkpt lat="43.47628" lon="2.37884">
        <ele>453.857</ele>
        <time>2021-05-23T10:57:51Z</time>
      </trkpt>
      <trkpt lat="43.47628" lon="2.37884">
        <ele>453.858</ele>
        <time>2021-05-23T10:57:53Z</time>
      </trkpt>
      <trkpt lat="43.47628" lon="2.37884">
        <ele>453.857</ele>
        <time>2021-05-23T10:57:55Z</time>
      </trkpt>
      <trkpt lat="43.47628" lon="2.37884">
        <ele>453.854</ele>
        <time>2021-05-23T10:57:57Z</time>
      </trkpt>
      <trkpt lat="43.47628" lon="2.37884">
        <ele>453.856</ele>
        <time>2021-05-23T10:57:59Z</time>
      </trkpt>
      <trkpt lat="43.47628" lon="2.37884">
        <ele>453.854</ele>
        <time>2021-05-23T10:58:01Z</time>
      </trkpt>
      <trkpt lat="43.47628" lon="2.37884">
        <ele>453.854</ele>
        <time>2021-05-23T10:58:03Z</time>
      </trkpt>
      <trkpt lat="43.47628" lon="2.37884">
        <ele>453.852</ele>
        <time>2021-05-23T10:58:05Z</time>
      </trkpt>
      <trkpt lat="43.47628" lon="2.37884">
        <ele>453.852</ele>
        <time>2021-05-23T10:58:07Z</time>
      </trkpt>
      <trkpt lat="43.47628" lon="2.37884">
        <ele>453.853</ele>
        <time>2021-05-23T10:58:09Z</time>
      </trkpt>
      <trkpt lat="43.47628" lon="2.37884">
        <ele>453.85</ele>
        <time>2021-05-23T10:58:11Z</time>
      </trkpt>
      <trkpt lat="43.47628" lon="2.37884">
        <ele>453.851</ele>
        <time>2021-05-23T10:58:13Z</time>
      </trkpt>
      <trkpt lat="43.47628" lon="2.37884">
        <ele>453.847</ele>
        <time>2021-05-23T10:58:15Z</time>
      </trkpt>
      <trkpt lat="43.47628" lon="2.37884">
        <ele>453.847</ele>
        <time>2021-05-23T10:58:17Z</time>
      </trkpt>
      <trkpt lat="43.47628" lon="2.37884">
        <ele>453.845</ele>
        <time>2021-05-23T10:58:19Z</time>
      </trkpt>
      <trkpt lat="43.47628" lon="2.37884">
        <ele>453.844</ele>
        <time>2021-05-23T10:58:21Z</time>
      </trkpt>
      <trkpt lat="43.47628" lon="2.37884">
        <ele>453.842</ele>
        <time>2021-05-23T10:58:23Z</time>
      </trkpt>
      <trkpt lat="43.47628" lon="2.37884">
        <ele>453.842</ele>
        <time>2021-05-23T10:58:25Z</time>
      </trkpt>
      <trkpt lat="43.47628" lon="2.37884">
        <ele>453.842</ele>
        <time>2021-05-23T10:58:27Z</time>
      </trkpt>
      <trkpt lat="43.47628" lon="2.37884">
        <ele>453.844</ele>
        <time>2021-05-23T10:58:29Z</time>
      </trkpt>
      <trkpt lat="43.47628" lon="2.37884">
        <ele>453.844</ele>
        <time>2021-05-23T10:58:32Z</time>
      </trkpt>
      <trkpt lat="43.47628" lon="2.37884">
        <ele>453.846</ele>
        <time>2021-05-23T10:58:34Z</time>
      </trkpt>
      <trkpt lat="43.47628" lon="2.37884">
        <ele>453.845</ele>
        <time>2021-05-23T10:58:36Z</time>
      </trkpt>
      <trkpt lat="43.47628" lon="2.37884">
        <ele>453.842</ele>
        <time>2021-05-23T10:58:38Z</time>
      </trkpt>
      <trkpt lat="43.47628" lon="2.37884">
        <ele>453.842</ele>
        <time>2021-05-23T10:58:40Z</time>
      </trkpt>
      <trkpt lat="43.47628" lon="2.37884">
        <ele>453.84</ele>
        <time>2021-05-23T10:58:42Z</time>
      </trkpt>
      <trkpt lat="43.47628" lon="2.37884">
        <ele>453.844</ele>
        <time>2021-05-23T10:58:44Z</time>
      </trkpt>
      <trkpt lat="43.47628" lon="2.37884">
        <ele>453.841</ele>
        <time>2021-05-23T10:58:46Z</time>
      </trkpt>
      <trkpt lat="43.47628" lon="2.37884">
        <ele>453.837</ele>
        <time>2021-05-23T10:58:48Z</time>
      </trkpt>
      <trkpt lat="43.47628" lon="2.37884">
        <ele>453.835</ele>
        <time>2021-05-23T10:58:50Z</time>
      </trkpt>
      <trkpt lat="43.47628" lon="2.37884">
        <ele>453.839</ele>
        <time>2021-05-23T10:58:52Z</time>
      </trkpt>
      <trkpt lat="43.47628" lon="2.37884">
        <ele>453.839</ele>
        <time>2021-05-23T10:58:54Z</time>
      </trkpt>
      <trkpt lat="43.47628" lon="2.37884">
        <ele>453.838</ele>
        <time>2021-05-23T10:58:56Z</time>
      </trkpt>
      <trkpt lat="43.47628" lon="2.37884">
        <ele>453.84</ele>
        <time>2021-05-23T10:58:58Z</time>
      </trkpt>
      <trkpt lat="43.47628" lon="2.37884">
        <ele>453.844</ele>
        <time>2021-05-23T10:59:00Z</time>
      </trkpt>
      <trkpt lat="43.47628" lon="2.37884">
        <ele>453.84</ele>
        <time>2021-05-23T10:59:02Z</time>
      </trkpt>
      <trkpt lat="43.47628" lon="2.37884">
        <ele>453.843</ele>
        <time>2021-05-23T10:59:04Z</time>
      </trkpt>
      <trkpt lat="43.47628" lon="2.37884">
        <ele>453.845</ele>
        <time>2021-05-23T10:59:06Z</time>
      </trkpt>
      <trkpt lat="43.47628" lon="2.37884">
        <ele>453.845</ele>
        <time>2021-05-23T10:59:08Z</time>
      </trkpt>
      <trkpt lat="43.47628" lon="2.37884">
        <ele>453.847</ele>
        <time>2021-05-23T10:59:10Z</time>
      </trkpt>
      <trkpt lat="43.47628" lon="2.37884">
        <ele>453.85</ele>
        <time>2021-05-23T10:59:12Z</time>
      </trkpt>
      <trkpt lat="43.47628" lon="2.37884">
        <ele>453.849</ele>
        <time>2021-05-23T10:59:14Z</time>
      </trkpt>
      <trkpt lat="43.47628" lon="2.37884">
        <ele>453.852</ele>
        <time>2021-05-23T10:59:16Z</time>
      </trkpt>
      <trkpt lat="43.47628" lon="2.37884">
        <ele>453.855</ele>
        <time>2021-05-23T10:59:18Z</time>
      </trkpt>
      <trkpt lat="43.47628" lon="2.37884">
        <ele>453.858</ele>
        <time>2021-05-23T10:59:20Z</time>
      </trkpt>
      <trkpt lat="43.47628" lon="2.37884">
        <ele>453.856</ele>
        <time>2021-05-23T10:59:22Z</time>
      </trkpt>
      <trkpt lat="43.47628" lon="2.37884">
        <ele>453.858</ele>
        <time>2021-05-23T10:59:24Z</time>
      </trkpt>
      <trkpt lat="43.47628" lon="2.37884">
        <ele>453.859</ele>
        <time>2021-05-23T10:59:26Z</time>
      </trkpt>
      <trkpt lat="43.47628" lon="2.37884">
        <ele>453.861</ele>
        <time>2021-05-23T10:59:28Z</time>
      </trkpt>
      <trkpt lat="43.47628" lon="2.37884">
        <ele>453.865</ele>
        <time>2021-05-23T10:59:30Z</time>
      </trkpt>
      <trkpt lat="43.47628" lon="2.37884">
        <ele>453.866</ele>
        <time>2021-05-23T10:59:32Z</time>
      </trkpt>
      <trkpt lat="43.47628" lon="2.37884">
        <ele>453.87</ele>
        <time>2021-05-23T10:59:34Z</time>
      </trkpt>
      <trkpt lat="43.47628" lon="2.37884">
        <ele>453.873</ele>
        <time>2021-05-23T10:59:36Z</time>
      </trkpt>
      <trkpt lat="43.47628" lon="2.37884">
        <ele>453.874</ele>
        <time>2021-05-23T10:59:38Z</time>
      </trkpt>
      <trkpt lat="43.47628" lon="2.37884">
        <ele>453.877</ele>
        <time>2021-05-23T10:59:40Z</time>
      </trkpt>
      <trkpt lat="43.47628" lon="2.37884">
        <ele>453.876</ele>
        <time>2021-05-23T10:59:42Z</time>
      </trkpt>
      <trkpt lat="43.47628" lon="2.37884">
        <ele>453.877</ele>
        <time>2021-05-23T10:59:44Z</time>
      </trkpt>
      <trkpt lat="43.47628" lon="2.37884">
        <ele>453.873</ele>
        <time>2021-05-23T10:59:46Z</time>
      </trkpt>
      <trkpt lat="43.47628" lon="2.37884">
        <ele>453.875</ele>
        <time>2021-05-23T10:59:48Z</time>
      </trkpt>
      <trkpt lat="43.47628" lon="2.37884">
        <ele>453.871</ele>
        <time>2021-05-23T10:59:50Z</time>
      </trkpt>
      <trkpt lat="43.47628" lon="2.37884">
        <ele>453.865</ele>
        <time>2021-05-23T10:59:52Z</time>
      </trkpt>
      <trkpt lat="43.47628" lon="2.37884">
        <ele>453.867</ele>
        <time>2021-05-23T10:59:54Z</time>
      </trkpt>
      <trkpt lat="43.47628" lon="2.37884">
        <ele>453.867</ele>
        <time>2021-05-23T10:59:56Z</time>
      </trkpt>
      <trkpt lat="43.47628" lon="2.37884">
        <ele>453.868</ele>
        <time>2021-05-23T10:59:58Z</time>
      </trkpt>
      <trkpt lat="43.47628" lon="2.37884">
        <ele>453.866</ele>
        <time>2021-05-23T11:00:00Z</time>
      </trkpt>
      <trkpt lat="43.47628" lon="2.37884">
        <ele>453.867</ele>
        <time>2021-05-23T11:00:02Z</time>
      </trkpt>
      <trkpt lat="43.47628" lon="2.37884">
        <ele>453.87</ele>
        <time>2021-05-23T11:00:04Z</time>
      </trkpt>
      <trkpt lat="43.47628" lon="2.37884">
        <ele>453.871</ele>
        <time>2021-05-23T11:00:06Z</time>
      </trkpt>
      <trkpt lat="43.47628" lon="2.37884">
        <ele>453.869</ele>
        <time>2021-05-23T11:00:08Z</time>
      </trkpt>
      <trkpt lat="43.47628" lon="2.37884">
        <ele>453.871</ele>
        <time>2021-05-23T11:00:10Z</time>
      </trkpt>
      <trkpt lat="43.47628" lon="2.37884">
        <ele>453.87</ele>
        <time>2021-05-23T11:00:12Z</time>
      </trkpt>
      <trkpt lat="43.47628" lon="2.37884">
        <ele>453.869</ele>
        <time>2021-05-23T11:00:14Z</time>
      </trkpt>
      <trkpt lat="43.47628" lon="2.37884">
        <ele>453.868</ele>
        <time>2021-05-23T11:00:16Z</time>
      </trkpt>
      <trkpt lat="43.47628" lon="2.37884">
        <ele>453.869</ele>
        <time>2021-05-23T11:00:18Z</time>
      </trkpt>
      <trkpt lat="43.47628" lon="2.37884">
        <ele>453.868</ele>
        <time>2021-05-23T11:00:20Z</time>
      </trkpt>
      <trkpt lat="43.47628" lon="2.37884">
        <ele>453.863</ele>
        <time>2021-05-23T11:00:22Z</time>
      </trkpt>
      <trkpt lat="43.47628" lon="2.37884">
        <ele>453.857</ele>
        <time>2021-05-23T11:00:24Z</time>
      </trkpt>
      <trkpt lat="43.47628" lon="2.37884">
        <ele>453.856</ele>
        <time>2021-05-23T11:00:26Z</time>
      </trkpt>
      <trkpt lat="43.47628" lon="2.37884">
        <ele>453.854</ele>
        <time>2021-05-23T11:00:28Z</time>
      </trkpt>
      <trkpt lat="43.47628" lon="2.37884">
        <ele>453.854</ele>
        <time>2021-05-23T11:00:30Z</time>
      </trkpt>
      <trkpt lat="43.47628" lon="2.37884">
        <ele>453.857</ele>
        <time>2021-05-23T11:00:32Z</time>
      </trkpt>
      <trkpt lat="43.47628" lon="2.37884">
        <ele>453.858</ele>
        <time>2021-05-23T11:00:34Z</time>
      </trkpt>
      <trkpt lat="43.47628" lon="2.37884">
        <ele>453.86</ele>
        <time>2021-05-23T11:00:36Z</time>
      </trkpt>
      <trkpt lat="43.47628" lon="2.37884">
        <ele>453.859</ele>
        <time>2021-05-23T11:00:38Z</time>
      </trkpt>
      <trkpt lat="43.47628" lon="2.37884">
        <ele>453.858</ele>
        <time>2021-05-23T11:00:40Z</time>
      </trkpt>
      <trkpt lat="43.47628" lon="2.37884">
        <ele>453.859</ele>
        <time>2021-05-23T11:00:42Z</time>
      </trkpt>
      <trkpt lat="43.47628" lon="2.37884">
        <ele>453.859</ele>
        <time>2021-05-23T11:00:44Z</time>
      </trkpt>
      <trkpt lat="43.47628" lon="2.37884">
        <ele>453.858</ele>
        <time>2021-05-23T11:00:46Z</time>
      </trkpt>
      <trkpt lat="43.47628" lon="2.37884">
        <ele>453.908</ele>
        <time>2021-05-23T11:00:48Z</time>
      </trkpt>
      <trkpt lat="43.47628" lon="2.37884">
        <ele>453.908</ele>
        <time>2021-05-23T11:00:50Z</time>
      </trkpt>
      <trkpt lat="43.47628" lon="2.37884">
        <ele>453.908</ele>
        <time>2021-05-23T11:00:52Z</time>
      </trkpt>
      <trkpt lat="43.47628" lon="2.37884">
        <ele>453.907</ele>
        <time>2021-05-23T11:00:54Z</time>
      </trkpt>
      <trkpt lat="43.47628" lon="2.37884">
        <ele>453.909</ele>
        <time>2021-05-23T11:00:56Z</time>
      </trkpt>
      <trkpt lat="43.47628" lon="2.37884">
        <ele>453.912</ele>
        <time>2021-05-23T11:00:58Z</time>
      </trkpt>
      <trkpt lat="43.47628" lon="2.37884">
        <ele>453.913</ele>
        <time>2021-05-23T11:01:00Z</time>
      </trkpt>
      <trkpt lat="43.47628" lon="2.37884">
        <ele>453.911</ele>
        <time>2021-05-23T11:01:02Z</time>
      </trkpt>
      <trkpt lat="43.47628" lon="2.37884">
        <ele>453.912</ele>
        <time>2021-05-23T11:01:04Z</time>
      </trkpt>
      <trkpt lat="43.47628" lon="2.37884">
        <ele>453.911</ele>
        <time>2021-05-23T11:01:06Z</time>
      </trkpt>
      <trkpt lat="43.47628" lon="2.37884">
        <ele>453.912</ele>
        <time>2021-05-23T11:01:08Z</time>
      </trkpt>
      <trkpt lat="43.47627" lon="2.37884">
        <ele>453.723</ele>
        <time>2021-05-23T11:01:10Z</time>
      </trkpt>
      <trkpt lat="43.47627" lon="2.37884">
        <ele>453.723</ele>
        <time>2021-05-23T11:01:12Z</time>
      </trkpt>
      <trkpt lat="43.47627" lon="2.37884">
        <ele>453.724</ele>
        <time>2021-05-23T11:01:14Z</time>
      </trkpt>
      <trkpt lat="43.47627" lon="2.37884">
        <ele>453.725</ele>
        <time>2021-05-23T11:01:16Z</time>
      </trkpt>
      <trkpt lat="43.47627" lon="2.37884">
        <ele>453.726</ele>
        <time>2021-05-23T11:01:18Z</time>
      </trkpt>
      <trkpt lat="43.47627" lon="2.37884">
        <ele>453.726</ele>
        <time>2021-05-23T11:01:20Z</time>
      </trkpt>
      <trkpt lat="43.47627" lon="2.37884">
        <ele>453.725</ele>
        <time>2021-05-23T11:01:22Z</time>
      </trkpt>
      <trkpt lat="43.47627" lon="2.37884">
        <ele>453.728</ele>
        <time>2021-05-23T11:01:24Z</time>
      </trkpt>
      <trkpt lat="43.47627" lon="2.37884">
        <ele>453.727</ele>
        <time>2021-05-23T11:01:26Z</time>
      </trkpt>
      <trkpt lat="43.47627" lon="2.37884">
        <ele>453.729</ele>
        <time>2021-05-23T11:01:28Z</time>
      </trkpt>
      <trkpt lat="43.47627" lon="2.37884">
        <ele>453.731</ele>
        <time>2021-05-23T11:01:30Z</time>
      </trkpt>
      <trkpt lat="43.47627" lon="2.37884">
        <ele>453.733</ele>
        <time>2021-05-23T11:01:32Z</time>
      </trkpt>
      <trkpt lat="43.47627" lon="2.37884">
        <ele>453.733</ele>
        <time>2021-05-23T11:01:34Z</time>
      </trkpt>
      <trkpt lat="43.47627" lon="2.37884">
        <ele>453.734</ele>
        <time>2021-05-23T11:01:36Z</time>
      </trkpt>
      <trkpt lat="43.47627" lon="2.37884">
        <ele>453.735</ele>
        <time>2021-05-23T11:01:38Z</time>
      </trkpt>
      <trkpt lat="43.47627" lon="2.37884">
        <ele>453.734</ele>
        <time>2021-05-23T11:01:40Z</time>
      </trkpt>
      <trkpt lat="43.47627" lon="2.37884">
        <ele>453.73</ele>
        <time>2021-05-23T11:01:42Z</time>
      </trkpt>
      <trkpt lat="43.47627" lon="2.37884">
        <ele>453.729</ele>
        <time>2021-05-23T11:01:44Z</time>
      </trkpt>
      <trkpt lat="43.47627" lon="2.37884">
        <ele>453.728</ele>
        <time>2021-05-23T11:01:46Z</time>
      </trkpt>
      <trkpt lat="43.47627" lon="2.37884">
        <ele>453.73</ele>
        <time>2021-05-23T11:01:48Z</time>
      </trkpt>
      <trkpt lat="43.47627" lon="2.37884">
        <ele>453.728</ele>
        <time>2021-05-23T11:01:50Z</time>
      </trkpt>
      <trkpt lat="43.47628" lon="2.37884">
        <ele>453.305</ele>
        <time>2021-05-23T11:01:52Z</time>
      </trkpt>
      <trkpt lat="43.47628" lon="2.37884">
        <ele>453.306</ele>
        <time>2021-05-23T11:01:54Z</time>
      </trkpt>
      <trkpt lat="43.47628" lon="2.37884">
        <ele>453.3</ele>
        <time>2021-05-23T11:01:56Z</time>
      </trkpt>
      <trkpt lat="43.47628" lon="2.37884">
        <ele>453.46</ele>
        <time>2021-05-23T11:01:58Z</time>
      </trkpt>
      <trkpt lat="43.47628" lon="2.37884">
        <ele>453.266</ele>
        <time>2021-05-23T11:02:00Z</time>
      </trkpt>
      <trkpt lat="43.47627" lon="2.37884">
        <ele>453.508</ele>
        <time>2021-05-23T11:02:02Z</time>
      </trkpt>
      <trkpt lat="43.47628" lon="2.37884">
        <ele>452.22</ele>
        <time>2021-05-23T11:02:04Z</time>
      </trkpt>
      <trkpt lat="43.47629" lon="2.37884">
        <ele>451.789</ele>
        <time>2021-05-23T11:02:06Z</time>
      </trkpt>
      <trkpt lat="43.47629" lon="2.37883">
        <ele>452.585</ele>
        <time>2021-05-23T11:02:08Z</time>
      </trkpt>
      <trkpt lat="43.47629" lon="2.37884">
        <ele>452.793</ele>
        <time>2021-05-23T11:02:10Z</time>
      </trkpt>
      <trkpt lat="43.47629" lon="2.37884">
        <ele>452.793</ele>
        <time>2021-05-23T11:02:12Z</time>
      </trkpt>
      <trkpt lat="43.47629" lon="2.37884">
        <ele>452.798</ele>
        <time>2021-05-23T11:02:14Z</time>
      </trkpt>
      <trkpt lat="43.47629" lon="2.37884">
        <ele>452.922</ele>
        <time>2021-05-23T11:02:16Z</time>
      </trkpt>
      <trkpt lat="43.47628" lon="2.37884">
        <ele>453.393</ele>
        <time>2021-05-23T11:02:18Z</time>
      </trkpt>
      <trkpt lat="43.4763" lon="2.37884">
        <ele>453.424</ele>
        <time>2021-05-23T11:02:20Z</time>
      </trkpt>
      <trkpt lat="43.47629" lon="2.37884">
        <ele>453.614</ele>
        <time>2021-05-23T11:02:22Z</time>
      </trkpt>
      <trkpt lat="43.4763" lon="2.37884">
        <ele>454.171</ele>
        <time>2021-05-23T11:02:24Z</time>
      </trkpt>
      <trkpt lat="43.47629" lon="2.37884">
        <ele>454.519</ele>
        <time>2021-05-23T11:02:26Z</time>
      </trkpt>
      <trkpt lat="43.47628" lon="2.37884">
        <ele>454.305</ele>
        <time>2021-05-23T11:02:28Z</time>
      </trkpt>
      <trkpt lat="43.47628" lon="2.37884">
        <ele>454.291</ele>
        <time>2021-05-23T11:02:30Z</time>
      </trkpt>
      <trkpt lat="43.47628" lon="2.37884">
        <ele>454.936</ele>
        <time>2021-05-23T11:02:32Z</time>
      </trkpt>
      <trkpt lat="43.47629" lon="2.37884">
        <ele>455.121</ele>
        <time>2021-05-23T11:02:34Z</time>
      </trkpt>
      <trkpt lat="43.47629" lon="2.37884">
        <ele>455.123</ele>
        <time>2021-05-23T11:02:36Z</time>
      </trkpt>
      <trkpt lat="43.47629" lon="2.37884">
        <ele>455.125</ele>
        <time>2021-05-23T11:02:38Z</time>
      </trkpt>
      <trkpt lat="43.47629" lon="2.37884">
        <ele>454.914</ele>
        <time>2021-05-23T11:02:40Z</time>
      </trkpt>
      <trkpt lat="43.47629" lon="2.37885">
        <ele>454.759</ele>
        <time>2021-05-23T11:02:42Z</time>
      </trkpt>
      <trkpt lat="43.4763" lon="2.37884">
        <ele>455.923</ele>
        <time>2021-05-23T11:02:44Z</time>
      </trkpt>
      <trkpt lat="43.4763" lon="2.37884">
        <ele>455.569</ele>
        <time>2021-05-23T11:02:46Z</time>
      </trkpt>
      <trkpt lat="43.4763" lon="2.37884">
        <ele>455.594</ele>
        <time>2021-05-23T11:02:48Z</time>
      </trkpt>
      <trkpt lat="43.47629" lon="2.37884">
        <ele>455.429</ele>
        <time>2021-05-23T11:02:50Z</time>
      </trkpt>
      <trkpt lat="43.47629" lon="2.37884">
        <ele>455.434</ele>
        <time>2021-05-23T11:02:52Z</time>
      </trkpt>
      <trkpt lat="43.47629" lon="2.37884">
        <ele>455.434</ele>
        <time>2021-05-23T11:02:54Z</time>
      </trkpt>
      <trkpt lat="43.47629" lon="2.37884">
        <ele>455.445</ele>
        <time>2021-05-23T11:02:56Z</time>
      </trkpt>
      <trkpt lat="43.47629" lon="2.37884">
        <ele>455.451</ele>
        <time>2021-05-23T11:02:58Z</time>
      </trkpt>
      <trkpt lat="43.47629" lon="2.37884">
        <ele>455.451</ele>
        <time>2021-05-23T11:03:00Z</time>
      </trkpt>
      <trkpt lat="43.47629" lon="2.37884">
        <ele>455.39</ele>
        <time>2021-05-23T11:03:02Z</time>
      </trkpt>
      <trkpt lat="43.47628" lon="2.37883">
        <ele>455.614</ele>
        <time>2021-05-23T11:03:04Z</time>
      </trkpt>
      <trkpt lat="43.47626" lon="2.37883">
        <ele>456.176</ele>
        <time>2021-05-23T11:03:06Z</time>
      </trkpt>
      <trkpt lat="43.47626" lon="2.37882">
        <ele>455.209</ele>
        <time>2021-05-23T11:03:08Z</time>
      </trkpt>
      <trkpt lat="43.47626" lon="2.37882">
        <ele>455.287</ele>
        <time>2021-05-23T11:03:10Z</time>
      </trkpt>
      <trkpt lat="43.47626" lon="2.37882">
        <ele>456.225</ele>
        <time>2021-05-23T11:03:12Z</time>
      </trkpt>
      <trkpt lat="43.47626" lon="2.37881">
        <ele>456.024</ele>
        <time>2021-05-23T11:03:14Z</time>
      </trkpt>
      <trkpt lat="43.47626" lon="2.37881">
        <ele>456.018</ele>
        <time>2021-05-23T11:03:16Z</time>
      </trkpt>
      <trkpt lat="43.47626" lon="2.37881">
        <ele>456.014</ele>
        <time>2021-05-23T11:03:18Z</time>
      </trkpt>
      <trkpt lat="43.47626" lon="2.37881">
        <ele>456.014</ele>
        <time>2021-05-23T11:03:20Z</time>
      </trkpt>
      <trkpt lat="43.47626" lon="2.37881">
        <ele>456.009</ele>
        <time>2021-05-23T11:03:22Z</time>
      </trkpt>
      <trkpt lat="43.47626" lon="2.37881">
        <ele>456.014</ele>
        <time>2021-05-23T11:03:24Z</time>
      </trkpt>
      <trkpt lat="43.47626" lon="2.37881">
        <ele>455.673</ele>
        <time>2021-05-23T11:03:26Z</time>
      </trkpt>
      <trkpt lat="43.47626" lon="2.37881">
        <ele>455.671</ele>
        <time>2021-05-23T11:03:28Z</time>
      </trkpt>
      <trkpt lat="43.47626" lon="2.37881">
        <ele>455.673</ele>
        <time>2021-05-23T11:03:30Z</time>
      </trkpt>
      <trkpt lat="43.47626" lon="2.37881">
        <ele>455.673</ele>
        <time>2021-05-23T11:03:32Z</time>
      </trkpt>
      <trkpt lat="43.47626" lon="2.37881">
        <ele>455.67</ele>
        <time>2021-05-23T11:03:34Z</time>
      </trkpt>
      <trkpt lat="43.47626" lon="2.37881">
        <ele>455.335</ele>
        <time>2021-05-23T11:03:36Z</time>
      </trkpt>
      <trkpt lat="43.47626" lon="2.37881">
        <ele>455.077</ele>
        <time>2021-05-23T11:03:38Z</time>
      </trkpt>
      <trkpt lat="43.47626" lon="2.37881">
        <ele>455.077</ele>
        <time>2021-05-23T11:03:40Z</time>
      </trkpt>
      <trkpt lat="43.47626" lon="2.37881">
        <ele>455.076</ele>
        <time>2021-05-23T11:03:42Z</time>
      </trkpt>
      <trkpt lat="43.47626" lon="2.37881">
        <ele>455.289</ele>
        <time>2021-05-23T11:03:44Z</time>
      </trkpt>
      <trkpt lat="43.47626" lon="2.37881">
        <ele>455.223</ele>
        <time>2021-05-23T11:03:46Z</time>
      </trkpt>
      <trkpt lat="43.47627" lon="2.37882">
        <ele>456.178</ele>
        <time>2021-05-23T11:03:48Z</time>
      </trkpt>
      <trkpt lat="43.47626" lon="2.37882">
        <ele>456.191</ele>
        <time>2021-05-23T11:03:50Z</time>
      </trkpt>
      <trkpt lat="43.47626" lon="2.37882">
        <ele>456.179</ele>
        <time>2021-05-23T11:03:52Z</time>
      </trkpt>
      <trkpt lat="43.47626" lon="2.37883">
        <ele>456.452</ele>
        <time>2021-05-23T11:03:54Z</time>
      </trkpt>
      <trkpt lat="43.47627" lon="2.37883">
        <ele>456.44</ele>
        <time>2021-05-23T11:03:56Z</time>
      </trkpt>
      <trkpt lat="43.47627" lon="2.37883">
        <ele>456.441</ele>
        <time>2021-05-23T11:03:58Z</time>
      </trkpt>
      <trkpt lat="43.47627" lon="2.37883">
        <ele>456.446</ele>
        <time>2021-05-23T11:04:00Z</time>
      </trkpt>
      <trkpt lat="43.47627" lon="2.37883">
        <ele>456.446</ele>
        <time>2021-05-23T11:04:02Z</time>
      </trkpt>
      <trkpt lat="43.47627" lon="2.37883">
        <ele>456.286</ele>
        <time>2021-05-23T11:04:04Z</time>
      </trkpt>
      <trkpt lat="43.47627" lon="2.37883">
        <ele>456.144</ele>
        <time>2021-05-23T11:04:06Z</time>
      </trkpt>
      <trkpt lat="43.47627" lon="2.37883">
        <ele>456.144</ele>
        <time>2021-05-23T11:04:08Z</time>
      </trkpt>
      <trkpt lat="43.47627" lon="2.37883">
        <ele>456.143</ele>
        <time>2021-05-23T11:04:10Z</time>
      </trkpt>
      <trkpt lat="43.47627" lon="2.37883">
        <ele>456.146</ele>
        <time>2021-05-23T11:04:12Z</time>
      </trkpt>
      <trkpt lat="43.47627" lon="2.37883">
        <ele>456.152</ele>
        <time>2021-05-23T11:04:14Z</time>
      </trkpt>
      <trkpt lat="43.47627" lon="2.37883">
        <ele>456.153</ele>
        <time>2021-05-23T11:04:16Z</time>
      </trkpt>
      <trkpt lat="43.47627" lon="2.37883">
        <ele>456.15</ele>
        <time>2021-05-23T11:04:18Z</time>
      </trkpt>
      <trkpt lat="43.47627" lon="2.37883">
        <ele>456.149</ele>
        <time>2021-05-23T11:04:20Z</time>
      </trkpt>
      <trkpt lat="43.47627" lon="2.37883">
        <ele>456.146</ele>
        <time>2021-05-23T11:04:22Z</time>
      </trkpt>
      <trkpt lat="43.47627" lon="2.37883">
        <ele>456.15</ele>
        <time>2021-05-23T11:04:24Z</time>
      </trkpt>
      <trkpt lat="43.47627" lon="2.37883">
        <ele>456.153</ele>
        <time>2021-05-23T11:04:26Z</time>
      </trkpt>
      <trkpt lat="43.47627" lon="2.37883">
        <ele>456.153</ele>
        <time>2021-05-23T11:04:28Z</time>
      </trkpt>
      <trkpt lat="43.47627" lon="2.37883">
        <ele>456.149</ele>
        <time>2021-05-23T11:04:30Z</time>
      </trkpt>
      <trkpt lat="43.47627" lon="2.37883">
        <ele>456.147</ele>
        <time>2021-05-23T11:04:32Z</time>
      </trkpt>
      <trkpt lat="43.47627" lon="2.37883">
        <ele>456.144</ele>
        <time>2021-05-23T11:04:34Z</time>
      </trkpt>
      <trkpt lat="43.47627" lon="2.37883">
        <ele>456.146</ele>
        <time>2021-05-23T11:04:36Z</time>
      </trkpt>
      <trkpt lat="43.47627" lon="2.37883">
        <ele>456.139</ele>
        <time>2021-05-23T11:04:38Z</time>
      </trkpt>
      <trkpt lat="43.47627" lon="2.37883">
        <ele>456.141</ele>
        <time>2021-05-23T11:04:40Z</time>
      </trkpt>
      <trkpt lat="43.47627" lon="2.37883">
        <ele>456.138</ele>
        <time>2021-05-23T11:04:42Z</time>
      </trkpt>
      <trkpt lat="43.47627" lon="2.37883">
        <ele>456.132</ele>
        <time>2021-05-23T11:04:44Z</time>
      </trkpt>
      <trkpt lat="43.47627" lon="2.37883">
        <ele>456.134</ele>
        <time>2021-05-23T11:04:46Z</time>
      </trkpt>
      <trkpt lat="43.47627" lon="2.37883">
        <ele>456.134</ele>
        <time>2021-05-23T11:04:48Z</time>
      </trkpt>
      <trkpt lat="43.47627" lon="2.37883">
        <ele>456.133</ele>
        <time>2021-05-23T11:04:50Z</time>
      </trkpt>
      <trkpt lat="43.47627" lon="2.37883">
        <ele>456.142</ele>
        <time>2021-05-23T11:04:52Z</time>
      </trkpt>
      <trkpt lat="43.47627" lon="2.37883">
        <ele>456.144</ele>
        <time>2021-05-23T11:04:54Z</time>
      </trkpt>
      <trkpt lat="43.47627" lon="2.37883">
        <ele>456.148</ele>
        <time>2021-05-23T11:04:56Z</time>
      </trkpt>
      <trkpt lat="43.47627" lon="2.37883">
        <ele>456.147</ele>
        <time>2021-05-23T11:04:58Z</time>
      </trkpt>
      <trkpt lat="43.47627" lon="2.37883">
        <ele>456.148</ele>
        <time>2021-05-23T11:05:00Z</time>
      </trkpt>
      <trkpt lat="43.47627" lon="2.37883">
        <ele>456.147</ele>
        <time>2021-05-23T11:05:02Z</time>
      </trkpt>
      <trkpt lat="43.47627" lon="2.37883">
        <ele>456.149</ele>
        <time>2021-05-23T11:05:04Z</time>
      </trkpt>
      <trkpt lat="43.47627" lon="2.37883">
        <ele>456.143</ele>
        <time>2021-05-23T11:05:06Z</time>
      </trkpt>
      <trkpt lat="43.47627" lon="2.37883">
        <ele>456.135</ele>
        <time>2021-05-23T11:05:08Z</time>
      </trkpt>
      <trkpt lat="43.47627" lon="2.37883">
        <ele>456.138</ele>
        <time>2021-05-23T11:05:10Z</time>
      </trkpt>
      <trkpt lat="43.47627" lon="2.37883">
        <ele>456.127</ele>
        <time>2021-05-23T11:05:12Z</time>
      </trkpt>
      <trkpt lat="43.47627" lon="2.37883">
        <ele>456.124</ele>
        <time>2021-05-23T11:05:14Z</time>
      </trkpt>
      <trkpt lat="43.47627" lon="2.37883">
        <ele>456.12</ele>
        <time>2021-05-23T11:05:16Z</time>
      </trkpt>
      <trkpt lat="43.47627" lon="2.37883">
        <ele>456.12</ele>
        <time>2021-05-23T11:05:18Z</time>
      </trkpt>
      <trkpt lat="43.47627" lon="2.37883">
        <ele>456.126</ele>
        <time>2021-05-23T11:05:20Z</time>
      </trkpt>
      <trkpt lat="43.47627" lon="2.37883">
        <ele>456.13</ele>
        <time>2021-05-23T11:05:22Z</time>
      </trkpt>
      <trkpt lat="43.47627" lon="2.37883">
        <ele>456.129</ele>
        <time>2021-05-23T11:05:24Z</time>
      </trkpt>
      <trkpt lat="43.47627" lon="2.37883">
        <ele>456.128</ele>
        <time>2021-05-23T11:05:26Z</time>
      </trkpt>
      <trkpt lat="43.47627" lon="2.37883">
        <ele>456.143</ele>
        <time>2021-05-23T11:05:28Z</time>
      </trkpt>
      <trkpt lat="43.47627" lon="2.37883">
        <ele>456.141</ele>
        <time>2021-05-23T11:05:30Z</time>
      </trkpt>
      <trkpt lat="43.47627" lon="2.37883">
        <ele>456.144</ele>
        <time>2021-05-23T11:05:32Z</time>
      </trkpt>
      <trkpt lat="43.47627" lon="2.37883">
        <ele>456.147</ele>
        <time>2021-05-23T11:05:34Z</time>
      </trkpt>
      <trkpt lat="43.47627" lon="2.37883">
        <ele>456.144</ele>
        <time>2021-05-23T11:05:36Z</time>
      </trkpt>
      <trkpt lat="43.47627" lon="2.37883">
        <ele>456.146</ele>
        <time>2021-05-23T11:05:38Z</time>
      </trkpt>
      <trkpt lat="43.47627" lon="2.37883">
        <ele>456.148</ele>
        <time>2021-05-23T11:05:40Z</time>
      </trkpt>
      <trkpt lat="43.47627" lon="2.37883">
        <ele>456.155</ele>
        <time>2021-05-23T11:05:42Z</time>
      </trkpt>
      <trkpt lat="43.47627" lon="2.37883">
        <ele>456.157</ele>
        <time>2021-05-23T11:05:44Z</time>
      </trkpt>
      <trkpt lat="43.47627" lon="2.37883">
        <ele>456.159</ele>
        <time>2021-05-23T11:05:46Z</time>
      </trkpt>
      <trkpt lat="43.47627" lon="2.37883">
        <ele>456.161</ele>
        <time>2021-05-23T11:05:48Z</time>
      </trkpt>
      <trkpt lat="43.47627" lon="2.37883">
        <ele>456.16</ele>
        <time>2021-05-23T11:05:50Z</time>
      </trkpt>
      <trkpt lat="43.47627" lon="2.37883">
        <ele>456.167</ele>
        <time>2021-05-23T11:05:52Z</time>
      </trkpt>
      <trkpt lat="43.47627" lon="2.37883">
        <ele>456.175</ele>
        <time>2021-05-23T11:05:54Z</time>
      </trkpt>
      <trkpt lat="43.47627" lon="2.37883">
        <ele>456.177</ele>
        <time>2021-05-23T11:05:56Z</time>
      </trkpt>
      <trkpt lat="43.47627" lon="2.37883">
        <ele>456.178</ele>
        <time>2021-05-23T11:05:58Z</time>
      </trkpt>
      <trkpt lat="43.47627" lon="2.37883">
        <ele>456.186</ele>
        <time>2021-05-23T11:06:00Z</time>
      </trkpt>
      <trkpt lat="43.47627" lon="2.37883">
        <ele>456.189</ele>
        <time>2021-05-23T11:06:02Z</time>
      </trkpt>
      <trkpt lat="43.47627" lon="2.37883">
        <ele>456.197</ele>
        <time>2021-05-23T11:06:04Z</time>
      </trkpt>
      <trkpt lat="43.47627" lon="2.37884">
        <ele>456.24</ele>
        <time>2021-05-23T11:06:06Z</time>
      </trkpt>
      <trkpt lat="43.47627" lon="2.37884">
        <ele>456.234</ele>
        <time>2021-05-23T11:06:08Z</time>
      </trkpt>
      <trkpt lat="43.47627" lon="2.37884">
        <ele>456.227</ele>
        <time>2021-05-23T11:06:10Z</time>
      </trkpt>
      <trkpt lat="43.47626" lon="2.37884">
        <ele>456.188</ele>
        <time>2021-05-23T11:06:12Z</time>
      </trkpt>
      <trkpt lat="43.47626" lon="2.37884">
        <ele>455.916</ele>
        <time>2021-05-23T11:06:14Z</time>
      </trkpt>
      <trkpt lat="43.47626" lon="2.37885">
        <ele>456.599</ele>
        <time>2021-05-23T11:06:16Z</time>
      </trkpt>
      <trkpt lat="43.47626" lon="2.37885">
        <ele>456.855</ele>
        <time>2021-05-23T11:06:18Z</time>
      </trkpt>
      <trkpt lat="43.47626" lon="2.37885">
        <ele>456.603</ele>
        <time>2021-05-23T11:06:20Z</time>
      </trkpt>
      <trkpt lat="43.47626" lon="2.37885">
        <ele>456.597</ele>
        <time>2021-05-23T11:06:22Z</time>
      </trkpt>
      <trkpt lat="43.47626" lon="2.37884">
        <ele>456.413</ele>
        <time>2021-05-23T11:06:24Z</time>
      </trkpt>
      <trkpt lat="43.47626" lon="2.37884">
        <ele>456.409</ele>
        <time>2021-05-23T11:06:26Z</time>
      </trkpt>
      <trkpt lat="43.47626" lon="2.37885">
        <ele>456.3</ele>
        <time>2021-05-23T11:06:28Z</time>
      </trkpt>
      <trkpt lat="43.47626" lon="2.37885">
        <ele>456.297</ele>
        <time>2021-05-23T11:06:30Z</time>
      </trkpt>
      <trkpt lat="43.47626" lon="2.37885">
        <ele>456.299</ele>
        <time>2021-05-23T11:06:32Z</time>
      </trkpt>
      <trkpt lat="43.47626" lon="2.37885">
        <ele>456.301</ele>
        <time>2021-05-23T11:06:34Z</time>
      </trkpt>
      <trkpt lat="43.47626" lon="2.37885">
        <ele>456.501</ele>
        <time>2021-05-23T11:06:36Z</time>
      </trkpt>
      <trkpt lat="43.47626" lon="2.37885">
        <ele>456.508</ele>
        <time>2021-05-23T11:06:38Z</time>
      </trkpt>
      <trkpt lat="43.47626" lon="2.37885">
        <ele>456.498</ele>
        <time>2021-05-23T11:06:40Z</time>
      </trkpt>
      <trkpt lat="43.47626" lon="2.37885">
        <ele>456.498</ele>
        <time>2021-05-23T11:06:42Z</time>
      </trkpt>
      <trkpt lat="43.47626" lon="2.37885">
        <ele>456.494</ele>
        <time>2021-05-23T11:06:44Z</time>
      </trkpt>
      <trkpt lat="43.47626" lon="2.37885">
        <ele>456.683</ele>
        <time>2021-05-23T11:06:46Z</time>
      </trkpt>
      <trkpt lat="43.47626" lon="2.37885">
        <ele>456.678</ele>
        <time>2021-05-23T11:06:48Z</time>
      </trkpt>
      <trkpt lat="43.47626" lon="2.37885">
        <ele>456.675</ele>
        <time>2021-05-23T11:06:50Z</time>
      </trkpt>
      <trkpt lat="43.47626" lon="2.37885">
        <ele>456.672</ele>
        <time>2021-05-23T11:06:52Z</time>
      </trkpt>
      <trkpt lat="43.47626" lon="2.37885">
        <ele>456.666</ele>
        <time>2021-05-23T11:06:54Z</time>
      </trkpt>
      <trkpt lat="43.47626" lon="2.37885">
        <ele>456.659</ele>
        <time>2021-05-23T11:06:56Z</time>
      </trkpt>
      <trkpt lat="43.47626" lon="2.37885">
        <ele>456.656</ele>
        <time>2021-05-23T11:06:58Z</time>
      </trkpt>
      <trkpt lat="43.47626" lon="2.37885">
        <ele>456.659</ele>
        <time>2021-05-23T11:07:00Z</time>
      </trkpt>
      <trkpt lat="43.47626" lon="2.37885">
        <ele>456.653</ele>
        <time>2021-05-23T11:07:02Z</time>
      </trkpt>
      <trkpt lat="43.47626" lon="2.37885">
        <ele>456.651</ele>
        <time>2021-05-23T11:07:04Z</time>
      </trkpt>
      <trkpt lat="43.47626" lon="2.37885">
        <ele>456.644</ele>
        <time>2021-05-23T11:07:06Z</time>
      </trkpt>
      <trkpt lat="43.47626" lon="2.37885">
        <ele>456.646</ele>
        <time>2021-05-23T11:07:08Z</time>
      </trkpt>
      <trkpt lat="43.47626" lon="2.37885">
        <ele>456.644</ele>
        <time>2021-05-23T11:07:10Z</time>
      </trkpt>
      <trkpt lat="43.47626" lon="2.37885">
        <ele>456.645</ele>
        <time>2021-05-23T11:07:12Z</time>
      </trkpt>
      <trkpt lat="43.47626" lon="2.37885">
        <ele>456.645</ele>
        <time>2021-05-23T11:07:14Z</time>
      </trkpt>
      <trkpt lat="43.47626" lon="2.37885">
        <ele>456.643</ele>
        <time>2021-05-23T11:07:16Z</time>
      </trkpt>
      <trkpt lat="43.47626" lon="2.37885">
        <ele>456.644</ele>
        <time>2021-05-23T11:07:18Z</time>
      </trkpt>
      <trkpt lat="43.47626" lon="2.37885">
        <ele>456.649</ele>
        <time>2021-05-23T11:07:20Z</time>
      </trkpt>
      <trkpt lat="43.47626" lon="2.37885">
        <ele>456.652</ele>
        <time>2021-05-23T11:07:22Z</time>
      </trkpt>
      <trkpt lat="43.47626" lon="2.37885">
        <ele>456.643</ele>
        <time>2021-05-23T11:07:24Z</time>
      </trkpt>
      <trkpt lat="43.47626" lon="2.37885">
        <ele>456.643</ele>
        <time>2021-05-23T11:07:26Z</time>
      </trkpt>
      <trkpt lat="43.47626" lon="2.37885">
        <ele>456.643</ele>
        <time>2021-05-23T11:07:28Z</time>
      </trkpt>
      <trkpt lat="43.47626" lon="2.37885">
        <ele>456.62</ele>
        <time>2021-05-23T11:07:30Z</time>
      </trkpt>
      <trkpt lat="43.47626" lon="2.37886">
        <ele>456.587</ele>
        <time>2021-05-23T11:07:32Z</time>
      </trkpt>
      <trkpt lat="43.47626" lon="2.37886">
        <ele>456.589</ele>
        <time>2021-05-23T11:07:34Z</time>
      </trkpt>
      <trkpt lat="43.47626" lon="2.37886">
        <ele>456.585</ele>
        <time>2021-05-23T11:07:36Z</time>
      </trkpt>
      <trkpt lat="43.47626" lon="2.37886">
        <ele>456.58</ele>
        <time>2021-05-23T11:07:38Z</time>
      </trkpt>
      <trkpt lat="43.47626" lon="2.37886">
        <ele>456.577</ele>
        <time>2021-05-23T11:07:40Z</time>
      </trkpt>
      <trkpt lat="43.47626" lon="2.37886">
        <ele>456.572</ele>
        <time>2021-05-23T11:07:42Z</time>
      </trkpt>
      <trkpt lat="43.47626" lon="2.37886">
        <ele>456.566</ele>
        <time>2021-05-23T11:07:44Z</time>
      </trkpt>
      <trkpt lat="43.47626" lon="2.37886">
        <ele>456.563</ele>
        <time>2021-05-23T11:07:46Z</time>
      </trkpt>
      <trkpt lat="43.47626" lon="2.37886">
        <ele>456.563</ele>
        <time>2021-05-23T11:07:48Z</time>
      </trkpt>
      <trkpt lat="43.47626" lon="2.37886">
        <ele>456.559</ele>
        <time>2021-05-23T11:07:50Z</time>
      </trkpt>
      <trkpt lat="43.47626" lon="2.37886">
        <ele>456.561</ele>
        <time>2021-05-23T11:07:52Z</time>
      </trkpt>
      <trkpt lat="43.47626" lon="2.37886">
        <ele>456.63</ele>
        <time>2021-05-23T11:07:54Z</time>
      </trkpt>
      <trkpt lat="43.47626" lon="2.37886">
        <ele>456.62</ele>
        <time>2021-05-23T11:07:56Z</time>
      </trkpt>
      <trkpt lat="43.47626" lon="2.37886">
        <ele>456.611</ele>
        <time>2021-05-23T11:07:58Z</time>
      </trkpt>
      <trkpt lat="43.47626" lon="2.37886">
        <ele>456.607</ele>
        <time>2021-05-23T11:08:00Z</time>
      </trkpt>
      <trkpt lat="43.47626" lon="2.37886">
        <ele>456.607</ele>
        <time>2021-05-23T11:08:02Z</time>
      </trkpt>
      <trkpt lat="43.47626" lon="2.37886">
        <ele>456.603</ele>
        <time>2021-05-23T11:08:04Z</time>
      </trkpt>
      <trkpt lat="43.47626" lon="2.37886">
        <ele>456.601</ele>
        <time>2021-05-23T11:08:06Z</time>
      </trkpt>
      <trkpt lat="43.47626" lon="2.37886">
        <ele>456.605</ele>
        <time>2021-05-23T11:08:08Z</time>
      </trkpt>
      <trkpt lat="43.47626" lon="2.37886">
        <ele>456.604</ele>
        <time>2021-05-23T11:08:10Z</time>
      </trkpt>
      <trkpt lat="43.47626" lon="2.37886">
        <ele>456.601</ele>
        <time>2021-05-23T11:08:12Z</time>
      </trkpt>
      <trkpt lat="43.47626" lon="2.37886">
        <ele>456.6</ele>
        <time>2021-05-23T11:08:14Z</time>
      </trkpt>
      <trkpt lat="43.47626" lon="2.37886">
        <ele>456.593</ele>
        <time>2021-05-23T11:08:16Z</time>
      </trkpt>
      <trkpt lat="43.47626" lon="2.37886">
        <ele>456.591</ele>
        <time>2021-05-23T11:08:18Z</time>
      </trkpt>
      <trkpt lat="43.47626" lon="2.37886">
        <ele>456.582</ele>
        <time>2021-05-23T11:08:20Z</time>
      </trkpt>
      <trkpt lat="43.47626" lon="2.37886">
        <ele>456.578</ele>
        <time>2021-05-23T11:08:22Z</time>
      </trkpt>
      <trkpt lat="43.47626" lon="2.37886">
        <ele>456.581</ele>
        <time>2021-05-23T11:08:24Z</time>
      </trkpt>
      <trkpt lat="43.47626" lon="2.37886">
        <ele>456.578</ele>
        <time>2021-05-23T11:08:26Z</time>
      </trkpt>
      <trkpt lat="43.47626" lon="2.37886">
        <ele>456.578</ele>
        <time>2021-05-23T11:08:28Z</time>
      </trkpt>
      <trkpt lat="43.47626" lon="2.37886">
        <ele>456.573</ele>
        <time>2021-05-23T11:08:30Z</time>
      </trkpt>
      <trkpt lat="43.47626" lon="2.37886">
        <ele>456.568</ele>
        <time>2021-05-23T11:08:32Z</time>
      </trkpt>
      <trkpt lat="43.47626" lon="2.37886">
        <ele>456.568</ele>
        <time>2021-05-23T11:08:34Z</time>
      </trkpt>
      <trkpt lat="43.47626" lon="2.37886">
        <ele>456.567</ele>
        <time>2021-05-23T11:08:36Z</time>
      </trkpt>
      <trkpt lat="43.47626" lon="2.37886">
        <ele>456.561</ele>
        <time>2021-05-23T11:08:38Z</time>
      </trkpt>
      <trkpt lat="43.47626" lon="2.37886">
        <ele>456.565</ele>
        <time>2021-05-23T11:08:40Z</time>
      </trkpt>
      <trkpt lat="43.47626" lon="2.37886">
        <ele>456.56</ele>
        <time>2021-05-23T11:08:42Z</time>
      </trkpt>
      <trkpt lat="43.47626" lon="2.37886">
        <ele>456.409</ele>
        <time>2021-05-23T11:08:44Z</time>
      </trkpt>
      <trkpt lat="43.47626" lon="2.37886">
        <ele>456.426</ele>
        <time>2021-05-23T11:08:46Z</time>
      </trkpt>
      <trkpt lat="43.47626" lon="2.37886">
        <ele>456.427</ele>
        <time>2021-05-23T11:08:48Z</time>
      </trkpt>
      <trkpt lat="43.47626" lon="2.37886">
        <ele>456.427</ele>
        <time>2021-05-23T11:08:50Z</time>
      </trkpt>
      <trkpt lat="43.47626" lon="2.37886">
        <ele>456.428</ele>
        <time>2021-05-23T11:08:52Z</time>
      </trkpt>
      <trkpt lat="43.47626" lon="2.37886">
        <ele>456.427</ele>
        <time>2021-05-23T11:08:54Z</time>
      </trkpt>
      <trkpt lat="43.47626" lon="2.37886">
        <ele>456.429</ele>
        <time>2021-05-23T11:08:56Z</time>
      </trkpt>
      <trkpt lat="43.47626" lon="2.37886">
        <ele>456.43</ele>
        <time>2021-05-23T11:08:58Z</time>
      </trkpt>
      <trkpt lat="43.47626" lon="2.37886">
        <ele>456.426</ele>
        <time>2021-05-23T11:09:00Z</time>
      </trkpt>
      <trkpt lat="43.47626" lon="2.37886">
        <ele>456.427</ele>
        <time>2021-05-23T11:09:02Z</time>
      </trkpt>
      <trkpt lat="43.47626" lon="2.37886">
        <ele>456.426</ele>
        <time>2021-05-23T11:09:04Z</time>
      </trkpt>
      <trkpt lat="43.47626" lon="2.37886">
        <ele>456.432</ele>
        <time>2021-05-23T11:09:06Z</time>
      </trkpt>
      <trkpt lat="43.47626" lon="2.37886">
        <ele>456.436</ele>
        <time>2021-05-23T11:09:08Z</time>
      </trkpt>
      <trkpt lat="43.47626" lon="2.37886">
        <ele>456.438</ele>
        <time>2021-05-23T11:09:10Z</time>
      </trkpt>
      <trkpt lat="43.47626" lon="2.37886">
        <ele>456.442</ele>
        <time>2021-05-23T11:09:12Z</time>
      </trkpt>
      <trkpt lat="43.47626" lon="2.37886">
        <ele>456.445</ele>
        <time>2021-05-23T11:09:14Z</time>
      </trkpt>
      <trkpt lat="43.47626" lon="2.37886">
        <ele>456.448</ele>
        <time>2021-05-23T11:09:16Z</time>
      </trkpt>
      <trkpt lat="43.47626" lon="2.37886">
        <ele>456.446</ele>
        <time>2021-05-23T11:09:18Z</time>
      </trkpt>
      <trkpt lat="43.47626" lon="2.37886">
        <ele>456.455</ele>
        <time>2021-05-23T11:09:20Z</time>
      </trkpt>
      <trkpt lat="43.47626" lon="2.37886">
        <ele>456.453</ele>
        <time>2021-05-23T11:09:22Z</time>
      </trkpt>
      <trkpt lat="43.47626" lon="2.37886">
        <ele>456.454</ele>
        <time>2021-05-23T11:09:24Z</time>
      </trkpt>
      <trkpt lat="43.47626" lon="2.37886">
        <ele>456.453</ele>
        <time>2021-05-23T11:09:26Z</time>
      </trkpt>
      <trkpt lat="43.47626" lon="2.37886">
        <ele>456.456</ele>
        <time>2021-05-23T11:09:28Z</time>
      </trkpt>
      <trkpt lat="43.47626" lon="2.37886">
        <ele>456.456</ele>
        <time>2021-05-23T11:09:30Z</time>
      </trkpt>
      <trkpt lat="43.47626" lon="2.37886">
        <ele>456.457</ele>
        <time>2021-05-23T11:09:32Z</time>
      </trkpt>
      <trkpt lat="43.47626" lon="2.37886">
        <ele>456.457</ele>
        <time>2021-05-23T11:09:34Z</time>
      </trkpt>
      <trkpt lat="43.47626" lon="2.37886">
        <ele>456.457</ele>
        <time>2021-05-23T11:09:36Z</time>
      </trkpt>
      <trkpt lat="43.47626" lon="2.37886">
        <ele>456.457</ele>
        <time>2021-05-23T11:09:38Z</time>
      </trkpt>
      <trkpt lat="43.47626" lon="2.37886">
        <ele>456.456</ele>
        <time>2021-05-23T11:09:40Z</time>
      </trkpt>
      <trkpt lat="43.47626" lon="2.37886">
        <ele>456.459</ele>
        <time>2021-05-23T11:09:42Z</time>
      </trkpt>
      <trkpt lat="43.47626" lon="2.37886">
        <ele>456.46</ele>
        <time>2021-05-23T11:09:44Z</time>
      </trkpt>
      <trkpt lat="43.47626" lon="2.37886">
        <ele>456.459</ele>
        <time>2021-05-23T11:09:46Z</time>
      </trkpt>
      <trkpt lat="43.47626" lon="2.37886">
        <ele>456.455</ele>
        <time>2021-05-23T11:09:48Z</time>
      </trkpt>
      <trkpt lat="43.47626" lon="2.37886">
        <ele>456.454</ele>
        <time>2021-05-23T11:09:50Z</time>
      </trkpt>
      <trkpt lat="43.47626" lon="2.37886">
        <ele>456.453</ele>
        <time>2021-05-23T11:09:52Z</time>
      </trkpt>
      <trkpt lat="43.47626" lon="2.37886">
        <ele>456.452</ele>
        <time>2021-05-23T11:09:54Z</time>
      </trkpt>
      <trkpt lat="43.47626" lon="2.37886">
        <ele>456.453</ele>
        <time>2021-05-23T11:09:56Z</time>
      </trkpt>
      <trkpt lat="43.47626" lon="2.37886">
        <ele>456.453</ele>
        <time>2021-05-23T11:09:58Z</time>
      </trkpt>
      <trkpt lat="43.47626" lon="2.37886">
        <ele>456.455</ele>
        <time>2021-05-23T11:10:00Z</time>
      </trkpt>
      <trkpt lat="43.47626" lon="2.37886">
        <ele>456.453</ele>
        <time>2021-05-23T11:10:02Z</time>
      </trkpt>
      <trkpt lat="43.47626" lon="2.37886">
        <ele>456.453</ele>
        <time>2021-05-23T11:10:04Z</time>
      </trkpt>
      <trkpt lat="43.47626" lon="2.37886">
        <ele>456.453</ele>
        <time>2021-05-23T11:10:06Z</time>
      </trkpt>
      <trkpt lat="43.47626" lon="2.37886">
        <ele>456.452</ele>
        <time>2021-05-23T11:10:08Z</time>
      </trkpt>
      <trkpt lat="43.47626" lon="2.37886">
        <ele>456.456</ele>
        <time>2021-05-23T11:10:10Z</time>
      </trkpt>
      <trkpt lat="43.47626" lon="2.37886">
        <ele>456.454</ele>
        <time>2021-05-23T11:10:12Z</time>
      </trkpt>
      <trkpt lat="43.47626" lon="2.37886">
        <ele>456.456</ele>
        <time>2021-05-23T11:10:14Z</time>
      </trkpt>
      <trkpt lat="43.47626" lon="2.37886">
        <ele>456.455</ele>
        <time>2021-05-23T11:10:16Z</time>
      </trkpt>
      <trkpt lat="43.47626" lon="2.37886">
        <ele>456.447</ele>
        <time>2021-05-23T11:10:18Z</time>
      </trkpt>
      <trkpt lat="43.47626" lon="2.37886">
        <ele>456.445</ele>
        <time>2021-05-23T11:10:20Z</time>
      </trkpt>
      <trkpt lat="43.47626" lon="2.37886">
        <ele>456.449</ele>
        <time>2021-05-23T11:10:22Z</time>
      </trkpt>
      <trkpt lat="43.47626" lon="2.37886">
        <ele>456.443</ele>
        <time>2021-05-23T11:10:24Z</time>
      </trkpt>
      <trkpt lat="43.47626" lon="2.37886">
        <ele>456.44</ele>
        <time>2021-05-23T11:10:26Z</time>
      </trkpt>
      <trkpt lat="43.47626" lon="2.37886">
        <ele>456.435</ele>
        <time>2021-05-23T11:10:28Z</time>
      </trkpt>
      <trkpt lat="43.47626" lon="2.37886">
        <ele>456.426</ele>
        <time>2021-05-23T11:10:30Z</time>
      </trkpt>
      <trkpt lat="43.47626" lon="2.37886">
        <ele>456.427</ele>
        <time>2021-05-23T11:10:32Z</time>
      </trkpt>
      <trkpt lat="43.47626" lon="2.37886">
        <ele>456.429</ele>
        <time>2021-05-23T11:10:34Z</time>
      </trkpt>
      <trkpt lat="43.47626" lon="2.37886">
        <ele>456.427</ele>
        <time>2021-05-23T11:10:36Z</time>
      </trkpt>
      <trkpt lat="43.47626" lon="2.37886">
        <ele>456.421</ele>
        <time>2021-05-23T11:10:38Z</time>
      </trkpt>
      <trkpt lat="43.47626" lon="2.37886">
        <ele>456.319</ele>
        <time>2021-05-23T11:10:40Z</time>
      </trkpt>
      <trkpt lat="43.47626" lon="2.37886">
        <ele>456.359</ele>
        <time>2021-05-23T11:10:42Z</time>
      </trkpt>
      <trkpt lat="43.47626" lon="2.37886">
        <ele>456.353</ele>
        <time>2021-05-23T11:10:44Z</time>
      </trkpt>
      <trkpt lat="43.47626" lon="2.37886">
        <ele>456.352</ele>
        <time>2021-05-23T11:10:46Z</time>
      </trkpt>
      <trkpt lat="43.47626" lon="2.37886">
        <ele>456.348</ele>
        <time>2021-05-23T11:10:48Z</time>
      </trkpt>
      <trkpt lat="43.47626" lon="2.37886">
        <ele>455.822</ele>
        <time>2021-05-23T11:10:50Z</time>
      </trkpt>
      <trkpt lat="43.47626" lon="2.37886">
        <ele>455.823</ele>
        <time>2021-05-23T11:10:52Z</time>
      </trkpt>
      <trkpt lat="43.47626" lon="2.37886">
        <ele>455.82</ele>
        <time>2021-05-23T11:10:54Z</time>
      </trkpt>
      <trkpt lat="43.47626" lon="2.37886">
        <ele>455.814</ele>
        <time>2021-05-23T11:10:56Z</time>
      </trkpt>
      <trkpt lat="43.47626" lon="2.37886">
        <ele>455.81</ele>
        <time>2021-05-23T11:10:58Z</time>
      </trkpt>
      <trkpt lat="43.47626" lon="2.37886">
        <ele>455.811</ele>
        <time>2021-05-23T11:11:00Z</time>
      </trkpt>
      <trkpt lat="43.47626" lon="2.37886">
        <ele>455.807</ele>
        <time>2021-05-23T11:11:02Z</time>
      </trkpt>
      <trkpt lat="43.47626" lon="2.37886">
        <ele>455.804</ele>
        <time>2021-05-23T11:11:04Z</time>
      </trkpt>
      <trkpt lat="43.47626" lon="2.37886">
        <ele>455.804</ele>
        <time>2021-05-23T11:11:06Z</time>
      </trkpt>
      <trkpt lat="43.47626" lon="2.37886">
        <ele>455.801</ele>
        <time>2021-05-23T11:11:08Z</time>
      </trkpt>
      <trkpt lat="43.47626" lon="2.37886">
        <ele>455.803</ele>
        <time>2021-05-23T11:11:10Z</time>
      </trkpt>
      <trkpt lat="43.47626" lon="2.37886">
        <ele>455.808</ele>
        <time>2021-05-23T11:11:12Z</time>
      </trkpt>
      <trkpt lat="43.47626" lon="2.37886">
        <ele>455.806</ele>
        <time>2021-05-23T11:11:14Z</time>
      </trkpt>
      <trkpt lat="43.47626" lon="2.37886">
        <ele>455.805</ele>
        <time>2021-05-23T11:11:16Z</time>
      </trkpt>
      <trkpt lat="43.47626" lon="2.37886">
        <ele>455.811</ele>
        <time>2021-05-23T11:11:18Z</time>
      </trkpt>
      <trkpt lat="43.47626" lon="2.37886">
        <ele>455.812</ele>
        <time>2021-05-23T11:11:20Z</time>
      </trkpt>
      <trkpt lat="43.47626" lon="2.37886">
        <ele>455.814</ele>
        <time>2021-05-23T11:11:22Z</time>
      </trkpt>
      <trkpt lat="43.47626" lon="2.37886">
        <ele>455.813</ele>
        <time>2021-05-23T11:11:24Z</time>
      </trkpt>
      <trkpt lat="43.47626" lon="2.37886">
        <ele>455.808</ele>
        <time>2021-05-23T11:11:26Z</time>
      </trkpt>
      <trkpt lat="43.47626" lon="2.37886">
        <ele>455.809</ele>
        <time>2021-05-23T11:11:28Z</time>
      </trkpt>
      <trkpt lat="43.47626" lon="2.37886">
        <ele>455.808</ele>
        <time>2021-05-23T11:11:30Z</time>
      </trkpt>
      <trkpt lat="43.47626" lon="2.37886">
        <ele>455.803</ele>
        <time>2021-05-23T11:11:32Z</time>
      </trkpt>
      <trkpt lat="43.47626" lon="2.37886">
        <ele>455.801</ele>
        <time>2021-05-23T11:11:34Z</time>
      </trkpt>
      <trkpt lat="43.47626" lon="2.37886">
        <ele>455.806</ele>
        <time>2021-05-23T11:11:36Z</time>
      </trkpt>
      <trkpt lat="43.47626" lon="2.37886">
        <ele>455.807</ele>
        <time>2021-05-23T11:11:38Z</time>
      </trkpt>
      <trkpt lat="43.47626" lon="2.37886">
        <ele>455.808</ele>
        <time>2021-05-23T11:11:40Z</time>
      </trkpt>
      <trkpt lat="43.47626" lon="2.37886">
        <ele>455.808</ele>
        <time>2021-05-23T11:11:42Z</time>
      </trkpt>
      <trkpt lat="43.47626" lon="2.37886">
        <ele>455.816</ele>
        <time>2021-05-23T11:11:44Z</time>
      </trkpt>
      <trkpt lat="43.47626" lon="2.37886">
        <ele>455.728</ele>
        <time>2021-05-23T11:11:46Z</time>
      </trkpt>
      <trkpt lat="43.47626" lon="2.37886">
        <ele>455.728</ele>
        <time>2021-05-23T11:11:48Z</time>
      </trkpt>
      <trkpt lat="43.47626" lon="2.37886">
        <ele>455.729</ele>
        <time>2021-05-23T11:11:50Z</time>
      </trkpt>
      <trkpt lat="43.47626" lon="2.37886">
        <ele>455.729</ele>
        <time>2021-05-23T11:11:52Z</time>
      </trkpt>
      <trkpt lat="43.47626" lon="2.37886">
        <ele>455.729</ele>
        <time>2021-05-23T11:11:54Z</time>
      </trkpt>
      <trkpt lat="43.47626" lon="2.37886">
        <ele>455.73</ele>
        <time>2021-05-23T11:11:56Z</time>
      </trkpt>
      <trkpt lat="43.47626" lon="2.37886">
        <ele>455.73</ele>
        <time>2021-05-23T11:11:58Z</time>
      </trkpt>
      <trkpt lat="43.47626" lon="2.37886">
        <ele>455.73</ele>
        <time>2021-05-23T11:12:00Z</time>
      </trkpt>
      <trkpt lat="43.47626" lon="2.37886">
        <ele>455.731</ele>
        <time>2021-05-23T11:12:02Z</time>
      </trkpt>
      <trkpt lat="43.47626" lon="2.37886">
        <ele>455.73</ele>
        <time>2021-05-23T11:12:04Z</time>
      </trkpt>
      <trkpt lat="43.47626" lon="2.37886">
        <ele>455.733</ele>
        <time>2021-05-23T11:12:06Z</time>
      </trkpt>
      <trkpt lat="43.47626" lon="2.37886">
        <ele>455.728</ele>
        <time>2021-05-23T11:12:08Z</time>
      </trkpt>
      <trkpt lat="43.47626" lon="2.37886">
        <ele>455.724</ele>
        <time>2021-05-23T11:12:10Z</time>
      </trkpt>
      <trkpt lat="43.47626" lon="2.37886">
        <ele>455.72</ele>
        <time>2021-05-23T11:12:12Z</time>
      </trkpt>
      <trkpt lat="43.47626" lon="2.37886">
        <ele>455.719</ele>
        <time>2021-05-23T11:12:14Z</time>
      </trkpt>
      <trkpt lat="43.47626" lon="2.37886">
        <ele>455.885</ele>
        <time>2021-05-23T11:12:16Z</time>
      </trkpt>
      <trkpt lat="43.47626" lon="2.37886">
        <ele>455.888</ele>
        <time>2021-05-23T11:12:18Z</time>
      </trkpt>
      <trkpt lat="43.47626" lon="2.37886">
        <ele>455.889</ele>
        <time>2021-05-23T11:12:20Z</time>
      </trkpt>
      <trkpt lat="43.47626" lon="2.37886">
        <ele>455.892</ele>
        <time>2021-05-23T11:12:22Z</time>
      </trkpt>
      <trkpt lat="43.47626" lon="2.37886">
        <ele>455.897</ele>
        <time>2021-05-23T11:12:24Z</time>
      </trkpt>
      <trkpt lat="43.47626" lon="2.37886">
        <ele>455.903</ele>
        <time>2021-05-23T11:12:26Z</time>
      </trkpt>
      <trkpt lat="43.47626" lon="2.37886">
        <ele>455.902</ele>
        <time>2021-05-23T11:12:28Z</time>
      </trkpt>
      <trkpt lat="43.47626" lon="2.37886">
        <ele>455.843</ele>
        <time>2021-05-23T11:12:30Z</time>
      </trkpt>
      <trkpt lat="43.47626" lon="2.37886">
        <ele>455.855</ele>
        <time>2021-05-23T11:12:32Z</time>
      </trkpt>
      <trkpt lat="43.47626" lon="2.37886">
        <ele>455.853</ele>
        <time>2021-05-23T11:12:34Z</time>
      </trkpt>
      <trkpt lat="43.47626" lon="2.37886">
        <ele>455.855</ele>
        <time>2021-05-23T11:12:36Z</time>
      </trkpt>
      <trkpt lat="43.47626" lon="2.37886">
        <ele>455.713</ele>
        <time>2021-05-23T11:12:38Z</time>
      </trkpt>
      <trkpt lat="43.47627" lon="2.37886">
        <ele>455.306</ele>
        <time>2021-05-23T11:12:40Z</time>
      </trkpt>
      <trkpt lat="43.47627" lon="2.37886">
        <ele>455.666</ele>
        <time>2021-05-23T11:12:42Z</time>
      </trkpt>
      <trkpt lat="43.47627" lon="2.37886">
        <ele>455.577</ele>
        <time>2021-05-23T11:12:44Z</time>
      </trkpt>
      <trkpt lat="43.47627" lon="2.37886">
        <ele>455.575</ele>
        <time>2021-05-23T11:12:46Z</time>
      </trkpt>
      <trkpt lat="43.47627" lon="2.37886">
        <ele>455.573</ele>
        <time>2021-05-23T11:12:48Z</time>
      </trkpt>
      <trkpt lat="43.47627" lon="2.37886">
        <ele>455.573</ele>
        <time>2021-05-23T11:12:50Z</time>
      </trkpt>
      <trkpt lat="43.47627" lon="2.37886">
        <ele>455.57</ele>
        <time>2021-05-23T11:12:52Z</time>
      </trkpt>
      <trkpt lat="43.47627" lon="2.37886">
        <ele>455.568</ele>
        <time>2021-05-23T11:12:54Z</time>
      </trkpt>
      <trkpt lat="43.47627" lon="2.37886">
        <ele>455.566</ele>
        <time>2021-05-23T11:12:56Z</time>
      </trkpt>
      <trkpt lat="43.47627" lon="2.37886">
        <ele>455.564</ele>
        <time>2021-05-23T11:12:58Z</time>
      </trkpt>
      <trkpt lat="43.47627" lon="2.37886">
        <ele>455.56</ele>
        <time>2021-05-23T11:13:00Z</time>
      </trkpt>
      <trkpt lat="43.47627" lon="2.37886">
        <ele>455.557</ele>
        <time>2021-05-23T11:13:02Z</time>
      </trkpt>
      <trkpt lat="43.47627" lon="2.37886">
        <ele>455.555</ele>
        <time>2021-05-23T11:13:04Z</time>
      </trkpt>
      <trkpt lat="43.47627" lon="2.37885">
        <ele>455.605</ele>
        <time>2021-05-23T11:13:06Z</time>
      </trkpt>
      <trkpt lat="43.47627" lon="2.37885">
        <ele>455.605</ele>
        <time>2021-05-23T11:13:08Z</time>
      </trkpt>
      <trkpt lat="43.47627" lon="2.37885">
        <ele>455.605</ele>
        <time>2021-05-23T11:13:10Z</time>
      </trkpt>
      <trkpt lat="43.47627" lon="2.37885">
        <ele>455.602</ele>
        <time>2021-05-23T11:13:12Z</time>
      </trkpt>
      <trkpt lat="43.47627" lon="2.37885">
        <ele>455.6</ele>
        <time>2021-05-23T11:13:14Z</time>
      </trkpt>
      <trkpt lat="43.47627" lon="2.37885">
        <ele>455.596</ele>
        <time>2021-05-23T11:13:16Z</time>
      </trkpt>
      <trkpt lat="43.47627" lon="2.37885">
        <ele>455.597</ele>
        <time>2021-05-23T11:13:18Z</time>
      </trkpt>
      <trkpt lat="43.47627" lon="2.37885">
        <ele>455.592</ele>
        <time>2021-05-23T11:13:20Z</time>
      </trkpt>
      <trkpt lat="43.47627" lon="2.37885">
        <ele>455.708</ele>
        <time>2021-05-23T11:13:22Z</time>
      </trkpt>
      <trkpt lat="43.47627" lon="2.37885">
        <ele>455.47</ele>
        <time>2021-05-23T11:13:24Z</time>
      </trkpt>
      <trkpt lat="43.47627" lon="2.37885">
        <ele>455.442</ele>
        <time>2021-05-23T11:13:26Z</time>
      </trkpt>
      <trkpt lat="43.47627" lon="2.37885">
        <ele>455.441</ele>
        <time>2021-05-23T11:13:28Z</time>
      </trkpt>
      <trkpt lat="43.47627" lon="2.37885">
        <ele>455.44</ele>
        <time>2021-05-23T11:13:30Z</time>
      </trkpt>
      <trkpt lat="43.47627" lon="2.37885">
        <ele>455.437</ele>
        <time>2021-05-23T11:13:32Z</time>
      </trkpt>
      <trkpt lat="43.47627" lon="2.37885">
        <ele>455.436</ele>
        <time>2021-05-23T11:13:34Z</time>
      </trkpt>
      <trkpt lat="43.47627" lon="2.37885">
        <ele>455.433</ele>
        <time>2021-05-23T11:13:36Z</time>
      </trkpt>
      <trkpt lat="43.47627" lon="2.37885">
        <ele>455.43</ele>
        <time>2021-05-23T11:13:38Z</time>
      </trkpt>
      <trkpt lat="43.47627" lon="2.37885">
        <ele>455.43</ele>
        <time>2021-05-23T11:13:40Z</time>
      </trkpt>
      <trkpt lat="43.47627" lon="2.37885">
        <ele>455.428</ele>
        <time>2021-05-23T11:13:42Z</time>
      </trkpt>
      <trkpt lat="43.47627" lon="2.37885">
        <ele>455.424</ele>
        <time>2021-05-23T11:13:44Z</time>
      </trkpt>
      <trkpt lat="43.47627" lon="2.37885">
        <ele>455.423</ele>
        <time>2021-05-23T11:13:46Z</time>
      </trkpt>
      <trkpt lat="43.47627" lon="2.37885">
        <ele>455.423</ele>
        <time>2021-05-23T11:13:48Z</time>
      </trkpt>
      <trkpt lat="43.47627" lon="2.37885">
        <ele>455.427</ele>
        <time>2021-05-23T11:13:50Z</time>
      </trkpt>
      <trkpt lat="43.47627" lon="2.37885">
        <ele>455.428</ele>
        <time>2021-05-23T11:13:52Z</time>
      </trkpt>
      <trkpt lat="43.47627" lon="2.37885">
        <ele>455.42</ele>
        <time>2021-05-23T11:13:54Z</time>
      </trkpt>
      <trkpt lat="43.47627" lon="2.37885">
        <ele>455.423</ele>
        <time>2021-05-23T11:13:56Z</time>
      </trkpt>
      <trkpt lat="43.47627" lon="2.37885">
        <ele>455.428</ele>
        <time>2021-05-23T11:13:58Z</time>
      </trkpt>
      <trkpt lat="43.47627" lon="2.37885">
        <ele>455.425</ele>
        <time>2021-05-23T11:14:00Z</time>
      </trkpt>
      <trkpt lat="43.47627" lon="2.37885">
        <ele>455.421</ele>
        <time>2021-05-23T11:14:02Z</time>
      </trkpt>
      <trkpt lat="43.47627" lon="2.37885">
        <ele>455.418</ele>
        <time>2021-05-23T11:14:04Z</time>
      </trkpt>
      <trkpt lat="43.47627" lon="2.37885">
        <ele>455.415</ele>
        <time>2021-05-23T11:14:06Z</time>
      </trkpt>
      <trkpt lat="43.47627" lon="2.37885">
        <ele>455.414</ele>
        <time>2021-05-23T11:14:08Z</time>
      </trkpt>
      <trkpt lat="43.47627" lon="2.37885">
        <ele>455.41</ele>
        <time>2021-05-23T11:14:10Z</time>
      </trkpt>
      <trkpt lat="43.47627" lon="2.37885">
        <ele>455.411</ele>
        <time>2021-05-23T11:14:12Z</time>
      </trkpt>
      <trkpt lat="43.47627" lon="2.37885">
        <ele>455.406</ele>
        <time>2021-05-23T11:14:14Z</time>
      </trkpt>
      <trkpt lat="43.47627" lon="2.37885">
        <ele>455.408</ele>
        <time>2021-05-23T11:14:16Z</time>
      </trkpt>
      <trkpt lat="43.47627" lon="2.37885">
        <ele>455.409</ele>
        <time>2021-05-23T11:14:18Z</time>
      </trkpt>
      <trkpt lat="43.47627" lon="2.37885">
        <ele>455.414</ele>
        <time>2021-05-23T11:14:20Z</time>
      </trkpt>
      <trkpt lat="43.47627" lon="2.37885">
        <ele>455.422</ele>
        <time>2021-05-23T11:14:22Z</time>
      </trkpt>
      <trkpt lat="43.47627" lon="2.37885">
        <ele>455.417</ele>
        <time>2021-05-23T11:14:24Z</time>
      </trkpt>
      <trkpt lat="43.47627" lon="2.37885">
        <ele>455.416</ele>
        <time>2021-05-23T11:14:26Z</time>
      </trkpt>
      <trkpt lat="43.47627" lon="2.37885">
        <ele>455.415</ele>
        <time>2021-05-23T11:14:28Z</time>
      </trkpt>
      <trkpt lat="43.47627" lon="2.37885">
        <ele>455.409</ele>
        <time>2021-05-23T11:14:30Z</time>
      </trkpt>
      <trkpt lat="43.47627" lon="2.37885">
        <ele>455.413</ele>
        <time>2021-05-23T11:14:32Z</time>
      </trkpt>
      <trkpt lat="43.47627" lon="2.37885">
        <ele>455.415</ele>
        <time>2021-05-23T11:14:34Z</time>
      </trkpt>
      <trkpt lat="43.47627" lon="2.37885">
        <ele>455.411</ele>
        <time>2021-05-23T11:14:36Z</time>
      </trkpt>
      <trkpt lat="43.47627" lon="2.37885">
        <ele>455.405</ele>
        <time>2021-05-23T11:14:38Z</time>
      </trkpt>
      <trkpt lat="43.47627" lon="2.37885">
        <ele>455.4</ele>
        <time>2021-05-23T11:14:40Z</time>
      </trkpt>
      <trkpt lat="43.47627" lon="2.37885">
        <ele>455.397</ele>
        <time>2021-05-23T11:14:42Z</time>
      </trkpt>
      <trkpt lat="43.47627" lon="2.37885">
        <ele>455.393</ele>
        <time>2021-05-23T11:14:44Z</time>
      </trkpt>
      <trkpt lat="43.47627" lon="2.37885">
        <ele>455.386</ele>
        <time>2021-05-23T11:14:46Z</time>
      </trkpt>
      <trkpt lat="43.47627" lon="2.37885">
        <ele>455.381</ele>
        <time>2021-05-23T11:14:48Z</time>
      </trkpt>
      <trkpt lat="43.47627" lon="2.37885">
        <ele>455.38</ele>
        <time>2021-05-23T11:14:50Z</time>
      </trkpt>
      <trkpt lat="43.47627" lon="2.37885">
        <ele>455.376</ele>
        <time>2021-05-23T11:14:52Z</time>
      </trkpt>
      <trkpt lat="43.47627" lon="2.37885">
        <ele>455.373</ele>
        <time>2021-05-23T11:14:54Z</time>
      </trkpt>
      <trkpt lat="43.47627" lon="2.37885">
        <ele>455.372</ele>
        <time>2021-05-23T11:14:56Z</time>
      </trkpt>
      <trkpt lat="43.47627" lon="2.37885">
        <ele>455.369</ele>
        <time>2021-05-23T11:14:58Z</time>
      </trkpt>
      <trkpt lat="43.47627" lon="2.37885">
        <ele>455.365</ele>
        <time>2021-05-23T11:15:00Z</time>
      </trkpt>
      <trkpt lat="43.47627" lon="2.37885">
        <ele>455.367</ele>
        <time>2021-05-23T11:15:02Z</time>
      </trkpt>
      <trkpt lat="43.47627" lon="2.37885">
        <ele>455.366</ele>
        <time>2021-05-23T11:15:04Z</time>
      </trkpt>
      <trkpt lat="43.47627" lon="2.37885">
        <ele>455.365</ele>
        <time>2021-05-23T11:15:06Z</time>
      </trkpt>
      <trkpt lat="43.47627" lon="2.37885">
        <ele>455.365</ele>
        <time>2021-05-23T11:15:08Z</time>
      </trkpt>
      <trkpt lat="43.47627" lon="2.37885">
        <ele>455.366</ele>
        <time>2021-05-23T11:15:10Z</time>
      </trkpt>
      <trkpt lat="43.47627" lon="2.37885">
        <ele>455.361</ele>
        <time>2021-05-23T11:15:12Z</time>
      </trkpt>
      <trkpt lat="43.47627" lon="2.37885">
        <ele>455.359</ele>
        <time>2021-05-23T11:15:14Z</time>
      </trkpt>
      <trkpt lat="43.47627" lon="2.37885">
        <ele>455.364</ele>
        <time>2021-05-23T11:15:16Z</time>
      </trkpt>
      <trkpt lat="43.47627" lon="2.37885">
        <ele>455.365</ele>
        <time>2021-05-23T11:15:18Z</time>
      </trkpt>
      <trkpt lat="43.47627" lon="2.37885">
        <ele>455.366</ele>
        <time>2021-05-23T11:15:20Z</time>
      </trkpt>
      <trkpt lat="43.47627" lon="2.37885">
        <ele>455.365</ele>
        <time>2021-05-23T11:15:22Z</time>
      </trkpt>
      <trkpt lat="43.47627" lon="2.37885">
        <ele>455.362</ele>
        <time>2021-05-23T11:15:24Z</time>
      </trkpt>
      <trkpt lat="43.47627" lon="2.37885">
        <ele>455.358</ele>
        <time>2021-05-23T11:15:26Z</time>
      </trkpt>
      <trkpt lat="43.47627" lon="2.37885">
        <ele>455.355</ele>
        <time>2021-05-23T11:15:28Z</time>
      </trkpt>
      <trkpt lat="43.47627" lon="2.37885">
        <ele>455.353</ele>
        <time>2021-05-23T11:15:30Z</time>
      </trkpt>
      <trkpt lat="43.47627" lon="2.37885">
        <ele>455.354</ele>
        <time>2021-05-23T11:15:32Z</time>
      </trkpt>
      <trkpt lat="43.47627" lon="2.37885">
        <ele>455.352</ele>
        <time>2021-05-23T11:15:34Z</time>
      </trkpt>
      <trkpt lat="43.47627" lon="2.37885">
        <ele>455.351</ele>
        <time>2021-05-23T11:15:37Z</time>
      </trkpt>
      <trkpt lat="43.47627" lon="2.37885">
        <ele>455.35</ele>
        <time>2021-05-23T11:15:39Z</time>
      </trkpt>
      <trkpt lat="43.47627" lon="2.37885">
        <ele>455.35</ele>
        <time>2021-05-23T11:15:41Z</time>
      </trkpt>
      <trkpt lat="43.47627" lon="2.37885">
        <ele>455.342</ele>
        <time>2021-05-23T11:15:43Z</time>
      </trkpt>
      <trkpt lat="43.47627" lon="2.37885">
        <ele>455.337</ele>
        <time>2021-05-23T11:15:45Z</time>
      </trkpt>
      <trkpt lat="43.47627" lon="2.37885">
        <ele>455.342</ele>
        <time>2021-05-23T11:15:47Z</time>
      </trkpt>
      <trkpt lat="43.47627" lon="2.37885">
        <ele>455.341</ele>
        <time>2021-05-23T11:15:49Z</time>
      </trkpt>
      <trkpt lat="43.47627" lon="2.37885">
        <ele>455.337</ele>
        <time>2021-05-23T11:15:51Z</time>
      </trkpt>
      <trkpt lat="43.47627" lon="2.37885">
        <ele>455.334</ele>
        <time>2021-05-23T11:15:53Z</time>
      </trkpt>
      <trkpt lat="43.47627" lon="2.37885">
        <ele>455.333</ele>
        <time>2021-05-23T11:15:55Z</time>
      </trkpt>
      <trkpt lat="43.47627" lon="2.37885">
        <ele>455.333</ele>
        <time>2021-05-23T11:15:57Z</time>
      </trkpt>
      <trkpt lat="43.47627" lon="2.37885">
        <ele>455.333</ele>
        <time>2021-05-23T11:15:59Z</time>
      </trkpt>
      <trkpt lat="43.47627" lon="2.37885">
        <ele>455.332</ele>
        <time>2021-05-23T11:16:01Z</time>
      </trkpt>
      <trkpt lat="43.47627" lon="2.37885">
        <ele>455.327</ele>
        <time>2021-05-23T11:16:03Z</time>
      </trkpt>
      <trkpt lat="43.47627" lon="2.37885">
        <ele>455.327</ele>
        <time>2021-05-23T11:16:05Z</time>
      </trkpt>
      <trkpt lat="43.47627" lon="2.37885">
        <ele>455.325</ele>
        <time>2021-05-23T11:16:07Z</time>
      </trkpt>
      <trkpt lat="43.47627" lon="2.37885">
        <ele>455.324</ele>
        <time>2021-05-23T11:16:09Z</time>
      </trkpt>
      <trkpt lat="43.47627" lon="2.37885">
        <ele>455.08</ele>
        <time>2021-05-23T11:16:11Z</time>
      </trkpt>
      <trkpt lat="43.47627" lon="2.37885">
        <ele>455.078</ele>
        <time>2021-05-23T11:16:13Z</time>
      </trkpt>
      <trkpt lat="43.47627" lon="2.37885">
        <ele>455.072</ele>
        <time>2021-05-23T11:16:15Z</time>
      </trkpt>
      <trkpt lat="43.47627" lon="2.37885">
        <ele>455.072</ele>
        <time>2021-05-23T11:16:17Z</time>
      </trkpt>
      <trkpt lat="43.47627" lon="2.37885">
        <ele>455.067</ele>
        <time>2021-05-23T11:16:19Z</time>
      </trkpt>
      <trkpt lat="43.47627" lon="2.37885">
        <ele>455.064</ele>
        <time>2021-05-23T11:16:21Z</time>
      </trkpt>
      <trkpt lat="43.47627" lon="2.37885">
        <ele>455.065</ele>
        <time>2021-05-23T11:16:23Z</time>
      </trkpt>
      <trkpt lat="43.47627" lon="2.37885">
        <ele>455.066</ele>
        <time>2021-05-23T11:16:25Z</time>
      </trkpt>
      <trkpt lat="43.47627" lon="2.37885">
        <ele>455.066</ele>
        <time>2021-05-23T11:16:27Z</time>
      </trkpt>
      <trkpt lat="43.47627" lon="2.37885">
        <ele>455.065</ele>
        <time>2021-05-23T11:16:29Z</time>
      </trkpt>
      <trkpt lat="43.47627" lon="2.37885">
        <ele>455.066</ele>
        <time>2021-05-23T11:16:31Z</time>
      </trkpt>
      <trkpt lat="43.47627" lon="2.37885">
        <ele>455.065</ele>
        <time>2021-05-23T11:16:33Z</time>
      </trkpt>
      <trkpt lat="43.47627" lon="2.37885">
        <ele>455.064</ele>
        <time>2021-05-23T11:16:35Z</time>
      </trkpt>
      <trkpt lat="43.47627" lon="2.37885">
        <ele>455.062</ele>
        <time>2021-05-23T11:16:37Z</time>
      </trkpt>
      <trkpt lat="43.47627" lon="2.37885">
        <ele>455.064</ele>
        <time>2021-05-23T11:16:39Z</time>
      </trkpt>
      <trkpt lat="43.47627" lon="2.37885">
        <ele>455.069</ele>
        <time>2021-05-23T11:16:41Z</time>
      </trkpt>
      <trkpt lat="43.47627" lon="2.37885">
        <ele>455.07</ele>
        <time>2021-05-23T11:16:43Z</time>
      </trkpt>
      <trkpt lat="43.47627" lon="2.37885">
        <ele>455.071</ele>
        <time>2021-05-23T11:16:45Z</time>
      </trkpt>
      <trkpt lat="43.47627" lon="2.37885">
        <ele>455.073</ele>
        <time>2021-05-23T11:16:47Z</time>
      </trkpt>
      <trkpt lat="43.47627" lon="2.37885">
        <ele>455.074</ele>
        <time>2021-05-23T11:16:49Z</time>
      </trkpt>
      <trkpt lat="43.47627" lon="2.37885">
        <ele>455.073</ele>
        <time>2021-05-23T11:16:51Z</time>
      </trkpt>
      <trkpt lat="43.47627" lon="2.37885">
        <ele>455.073</ele>
        <time>2021-05-23T11:16:53Z</time>
      </trkpt>
      <trkpt lat="43.47627" lon="2.37885">
        <ele>455.074</ele>
        <time>2021-05-23T11:16:55Z</time>
      </trkpt>
      <trkpt lat="43.47627" lon="2.37884">
        <ele>455.178</ele>
        <time>2021-05-23T11:16:57Z</time>
      </trkpt>
      <trkpt lat="43.47627" lon="2.37884">
        <ele>455.178</ele>
        <time>2021-05-23T11:16:59Z</time>
      </trkpt>
      <trkpt lat="43.47627" lon="2.37884">
        <ele>455.178</ele>
        <time>2021-05-23T11:17:01Z</time>
      </trkpt>
      <trkpt lat="43.47627" lon="2.37884">
        <ele>455.179</ele>
        <time>2021-05-23T11:17:03Z</time>
      </trkpt>
      <trkpt lat="43.47627" lon="2.37884">
        <ele>455.178</ele>
        <time>2021-05-23T11:17:05Z</time>
      </trkpt>
      <trkpt lat="43.47627" lon="2.37884">
        <ele>455.178</ele>
        <time>2021-05-23T11:17:07Z</time>
      </trkpt>
      <trkpt lat="43.47627" lon="2.37884">
        <ele>455.178</ele>
        <time>2021-05-23T11:17:09Z</time>
      </trkpt>
      <trkpt lat="43.47627" lon="2.37884">
        <ele>455.178</ele>
        <time>2021-05-23T11:17:11Z</time>
      </trkpt>
      <trkpt lat="43.47627" lon="2.37884">
        <ele>455.178</ele>
        <time>2021-05-23T11:17:13Z</time>
      </trkpt>
      <trkpt lat="43.47627" lon="2.37884">
        <ele>455.178</ele>
        <time>2021-05-23T11:17:15Z</time>
      </trkpt>
      <trkpt lat="43.47627" lon="2.37884">
        <ele>455.178</ele>
        <time>2021-05-23T11:17:17Z</time>
      </trkpt>
      <trkpt lat="43.47627" lon="2.37884">
        <ele>455.178</ele>
        <time>2021-05-23T11:17:19Z</time>
      </trkpt>
      <trkpt lat="43.47627" lon="2.37884">
        <ele>455.177</ele>
        <time>2021-05-23T11:17:21Z</time>
      </trkpt>
      <trkpt lat="43.47627" lon="2.37884">
        <ele>455.178</ele>
        <time>2021-05-23T11:17:23Z</time>
      </trkpt>
      <trkpt lat="43.47627" lon="2.37884">
        <ele>455.177</ele>
        <time>2021-05-23T11:17:25Z</time>
      </trkpt>
      <trkpt lat="43.47627" lon="2.37884">
        <ele>455.177</ele>
        <time>2021-05-23T11:17:27Z</time>
      </trkpt>
      <trkpt lat="43.47627" lon="2.37884">
        <ele>455.177</ele>
        <time>2021-05-23T11:17:34Z</time>
      </trkpt>
      <trkpt lat="43.47627" lon="2.37884">
        <ele>455.177</ele>
        <time>2021-05-23T11:17:36Z</time>
      </trkpt>
      <trkpt lat="43.47627" lon="2.37884">
        <ele>455.177</ele>
        <time>2021-05-23T11:17:38Z</time>
      </trkpt>
      <trkpt lat="43.47627" lon="2.37884">
        <ele>455.178</ele>
        <time>2021-05-23T11:17:40Z</time>
      </trkpt>
      <trkpt lat="43.47627" lon="2.37885">
        <ele>455.101</ele>
        <time>2021-05-23T11:17:42Z</time>
      </trkpt>
      <trkpt lat="43.47627" lon="2.37885">
        <ele>455.098</ele>
        <time>2021-05-23T11:17:44Z</time>
      </trkpt>
      <trkpt lat="43.47627" lon="2.37885">
        <ele>455.098</ele>
        <time>2021-05-23T11:17:46Z</time>
      </trkpt>
      <trkpt lat="43.47627" lon="2.37885">
        <ele>455.099</ele>
        <time>2021-05-23T11:17:48Z</time>
      </trkpt>
      <trkpt lat="43.47627" lon="2.37885">
        <ele>455.1</ele>
        <time>2021-05-23T11:17:50Z</time>
      </trkpt>
      <trkpt lat="43.47627" lon="2.37885">
        <ele>455.102</ele>
        <time>2021-05-23T11:17:52Z</time>
      </trkpt>
      <trkpt lat="43.47627" lon="2.37885">
        <ele>455.106</ele>
        <time>2021-05-23T11:17:54Z</time>
      </trkpt>
      <trkpt lat="43.47627" lon="2.37885">
        <ele>455.103</ele>
        <time>2021-05-23T11:17:56Z</time>
      </trkpt>
      <trkpt lat="43.47627" lon="2.37885">
        <ele>455.103</ele>
        <time>2021-05-23T11:17:58Z</time>
      </trkpt>
      <trkpt lat="43.47627" lon="2.37884">
        <ele>454.816</ele>
        <time>2021-05-23T11:18:00Z</time>
      </trkpt>
      <trkpt lat="43.47627" lon="2.37884">
        <ele>454.812</ele>
        <time>2021-05-23T11:18:02Z</time>
      </trkpt>
      <trkpt lat="43.47627" lon="2.37885">
        <ele>454.986</ele>
        <time>2021-05-23T11:18:04Z</time>
      </trkpt>
      <trkpt lat="43.47627" lon="2.37885">
        <ele>454.981</ele>
        <time>2021-05-23T11:18:06Z</time>
      </trkpt>
      <trkpt lat="43.47627" lon="2.37885">
        <ele>454.97</ele>
        <time>2021-05-23T11:18:08Z</time>
      </trkpt>
      <trkpt lat="43.47627" lon="2.37885">
        <ele>454.447</ele>
        <time>2021-05-23T11:18:10Z</time>
      </trkpt>
      <trkpt lat="43.47627" lon="2.37885">
        <ele>454.438</ele>
        <time>2021-05-23T11:18:12Z</time>
      </trkpt>
      <trkpt lat="43.47627" lon="2.37885">
        <ele>454.437</ele>
        <time>2021-05-23T11:18:14Z</time>
      </trkpt>
      <trkpt lat="43.47627" lon="2.37885">
        <ele>454.429</ele>
        <time>2021-05-23T11:18:16Z</time>
      </trkpt>
      <trkpt lat="43.47627" lon="2.37885">
        <ele>454.328</ele>
        <time>2021-05-23T11:18:18Z</time>
      </trkpt>
      <trkpt lat="43.47627" lon="2.37885">
        <ele>454.433</ele>
        <time>2021-05-23T11:18:20Z</time>
      </trkpt>
      <trkpt lat="43.47627" lon="2.37885">
        <ele>454.423</ele>
        <time>2021-05-23T11:18:22Z</time>
      </trkpt>
      <trkpt lat="43.47627" lon="2.37885">
        <ele>454.416</ele>
        <time>2021-05-23T11:18:24Z</time>
      </trkpt>
      <trkpt lat="43.47627" lon="2.37885">
        <ele>454.327</ele>
        <time>2021-05-23T11:18:26Z</time>
      </trkpt>
      <trkpt lat="43.47628" lon="2.37885">
        <ele>453.884</ele>
        <time>2021-05-23T11:18:28Z</time>
      </trkpt>
      <trkpt lat="43.47628" lon="2.37885">
        <ele>454.219</ele>
        <time>2021-05-23T11:18:30Z</time>
      </trkpt>
      <trkpt lat="43.47628" lon="2.37884">
        <ele>454.224</ele>
        <time>2021-05-23T11:18:32Z</time>
      </trkpt>
      <trkpt lat="43.47628" lon="2.37885">
        <ele>454.742</ele>
        <time>2021-05-23T11:18:34Z</time>
      </trkpt>
      <trkpt lat="43.47628" lon="2.37885">
        <ele>454.826</ele>
        <time>2021-05-23T11:18:36Z</time>
      </trkpt>
      <trkpt lat="43.47628" lon="2.37885">
        <ele>454.755</ele>
        <time>2021-05-23T11:18:38Z</time>
      </trkpt>
      <trkpt lat="43.47628" lon="2.37886">
        <ele>454.567</ele>
        <time>2021-05-23T11:18:40Z</time>
      </trkpt>
      <trkpt lat="43.47629" lon="2.37885">
        <ele>454.441</ele>
        <time>2021-05-23T11:18:42Z</time>
      </trkpt>
      <trkpt lat="43.47628" lon="2.37883">
        <ele>454.71</ele>
        <time>2021-05-23T11:18:44Z</time>
      </trkpt>
      <trkpt lat="43.47627" lon="2.37883">
        <ele>454.528</ele>
        <time>2021-05-23T11:18:46Z</time>
      </trkpt>
      <trkpt lat="43.47627" lon="2.37883">
        <ele>454.881</ele>
        <time>2021-05-23T11:18:48Z</time>
      </trkpt>
      <trkpt lat="43.47623" lon="2.37883">
        <ele>453.365</ele>
        <time>2021-05-23T11:18:50Z</time>
      </trkpt>
      <trkpt lat="43.47623" lon="2.37884">
        <ele>451.924</ele>
        <time>2021-05-23T11:18:52Z</time>
      </trkpt>
      <trkpt lat="43.47627" lon="2.37881">
        <ele>450.029</ele>
        <time>2021-05-23T11:18:54Z</time>
      </trkpt>
      <trkpt lat="43.47628" lon="2.37881">
        <ele>450.009</ele>
        <time>2021-05-23T11:18:56Z</time>
      </trkpt>
      <trkpt lat="43.47627" lon="2.37882">
        <ele>450.65</ele>
        <time>2021-05-23T11:18:58Z</time>
      </trkpt>
      <trkpt lat="43.47624" lon="2.37885">
        <ele>450.353</ele>
        <time>2021-05-23T11:19:00Z</time>
      </trkpt>
      <trkpt lat="43.47624" lon="2.37886">
        <ele>450.59</ele>
        <time>2021-05-23T11:19:02Z</time>
      </trkpt>
      <trkpt lat="43.47624" lon="2.37886">
        <ele>450.594</ele>
        <time>2021-05-23T11:19:04Z</time>
      </trkpt>
      <trkpt lat="43.47624" lon="2.37886">
        <ele>450.599</ele>
        <time>2021-05-23T11:19:06Z</time>
      </trkpt>
      <trkpt lat="43.47623" lon="2.37885">
        <ele>450.345</ele>
        <time>2021-05-23T11:19:08Z</time>
      </trkpt>
      <trkpt lat="43.47623" lon="2.37884">
        <ele>449.665</ele>
        <time>2021-05-23T11:19:10Z</time>
      </trkpt>
      <trkpt lat="43.47623" lon="2.37884">
        <ele>449.658</ele>
        <time>2021-05-23T11:19:12Z</time>
      </trkpt>
      <trkpt lat="43.47623" lon="2.37884">
        <ele>449.651</ele>
        <time>2021-05-23T11:19:14Z</time>
      </trkpt>
      <trkpt lat="43.47623" lon="2.37884">
        <ele>449.641</ele>
        <time>2021-05-23T11:19:16Z</time>
      </trkpt>
      <trkpt lat="43.47623" lon="2.37883">
        <ele>448.857</ele>
        <time>2021-05-23T11:19:18Z</time>
      </trkpt>
      <trkpt lat="43.47622" lon="2.37882">
        <ele>449.337</ele>
        <time>2021-05-23T11:19:20Z</time>
      </trkpt>
      <trkpt lat="43.47622" lon="2.37882">
        <ele>449.06</ele>
        <time>2021-05-23T11:19:22Z</time>
      </trkpt>
      <trkpt lat="43.47621" lon="2.37882">
        <ele>449.78</ele>
        <time>2021-05-23T11:19:24Z</time>
      </trkpt>
      <trkpt lat="43.47621" lon="2.37881">
        <ele>449.538</ele>
        <time>2021-05-23T11:19:26Z</time>
      </trkpt>
      <trkpt lat="43.4762" lon="2.3788">
        <ele>449.427</ele>
        <time>2021-05-23T11:19:28Z</time>
      </trkpt>
      <trkpt lat="43.47621" lon="2.37879">
        <ele>448.942</ele>
        <time>2021-05-23T11:19:30Z</time>
      </trkpt>
      <trkpt lat="43.47621" lon="2.37879">
        <ele>448.942</ele>
        <time>2021-05-23T11:19:32Z</time>
      </trkpt>
      <trkpt lat="43.47621" lon="2.37879">
        <ele>448.94</ele>
        <time>2021-05-23T11:19:34Z</time>
      </trkpt>
      <trkpt lat="43.47621" lon="2.37879">
        <ele>448.94</ele>
        <time>2021-05-23T11:19:36Z</time>
      </trkpt>
      <trkpt lat="43.47621" lon="2.37879">
        <ele>448.949</ele>
        <time>2021-05-23T11:19:38Z</time>
      </trkpt>
      <trkpt lat="43.47619" lon="2.37878">
        <ele>448.91</ele>
        <time>2021-05-23T11:19:40Z</time>
      </trkpt>
      <trkpt lat="43.47617" lon="2.37877">
        <ele>448.014</ele>
        <time>2021-05-23T11:19:42Z</time>
      </trkpt>
      <trkpt lat="43.47616" lon="2.37876">
        <ele>447.526</ele>
        <time>2021-05-23T11:19:44Z</time>
      </trkpt>
      <trkpt lat="43.47615" lon="2.37875">
        <ele>447.414</ele>
        <time>2021-05-23T11:19:46Z</time>
      </trkpt>
      <trkpt lat="43.47614" lon="2.37874">
        <ele>447.897</ele>
        <time>2021-05-23T11:19:48Z</time>
      </trkpt>
      <trkpt lat="43.47612" lon="2.37874">
        <ele>447.613</ele>
        <time>2021-05-23T11:19:50Z</time>
      </trkpt>
      <trkpt lat="43.47611" lon="2.37875">
        <ele>447.459</ele>
        <time>2021-05-23T11:19:52Z</time>
      </trkpt>
      <trkpt lat="43.47609" lon="2.37875">
        <ele>447.368</ele>
        <time>2021-05-23T11:19:54Z</time>
      </trkpt>
      <trkpt lat="43.47608" lon="2.37875">
        <ele>448.738</ele>
        <time>2021-05-23T11:19:56Z</time>
      </trkpt>
      <trkpt lat="43.47608" lon="2.37876">
        <ele>449.936</ele>
        <time>2021-05-23T11:19:58Z</time>
      </trkpt>
      <trkpt lat="43.47607" lon="2.37877">
        <ele>451.304</ele>
        <time>2021-05-23T11:20:00Z</time>
      </trkpt>
      <trkpt lat="43.47607" lon="2.37877">
        <ele>449.962</ele>
        <time>2021-05-23T11:20:02Z</time>
      </trkpt>
      <trkpt lat="43.47606" lon="2.37877">
        <ele>449.859</ele>
        <time>2021-05-23T11:20:04Z</time>
      </trkpt>
      <trkpt lat="43.47606" lon="2.37878">
        <ele>449.782</ele>
        <time>2021-05-23T11:20:06Z</time>
      </trkpt>
      <trkpt lat="43.47606" lon="2.37879">
        <ele>450.987</ele>
        <time>2021-05-23T11:20:08Z</time>
      </trkpt>
      <trkpt lat="43.47605" lon="2.37879">
        <ele>450.939</ele>
        <time>2021-05-23T11:20:10Z</time>
      </trkpt>
      <trkpt lat="43.47604" lon="2.37878">
        <ele>450.447</ele>
        <time>2021-05-23T11:20:12Z</time>
      </trkpt>
      <trkpt lat="43.47603" lon="2.37878">
        <ele>449.968</ele>
        <time>2021-05-23T11:20:14Z</time>
      </trkpt>
      <trkpt lat="43.47602" lon="2.37877">
        <ele>449.263</ele>
        <time>2021-05-23T11:20:16Z</time>
      </trkpt>
      <trkpt lat="43.47601" lon="2.37877">
        <ele>449.827</ele>
        <time>2021-05-23T11:20:18Z</time>
      </trkpt>
      <trkpt lat="43.47601" lon="2.37876">
        <ele>449.979</ele>
        <time>2021-05-23T11:20:20Z</time>
      </trkpt>
      <trkpt lat="43.476" lon="2.37875">
        <ele>449.848</ele>
        <time>2021-05-23T11:20:22Z</time>
      </trkpt>
      <trkpt lat="43.476" lon="2.37874">
        <ele>449.753</ele>
        <time>2021-05-23T11:20:24Z</time>
      </trkpt>
      <trkpt lat="43.476" lon="2.37873">
        <ele>449.794</ele>
        <time>2021-05-23T11:20:26Z</time>
      </trkpt>
      <trkpt lat="43.476" lon="2.37872">
        <ele>450.642</ele>
        <time>2021-05-23T11:20:28Z</time>
      </trkpt>
      <trkpt lat="43.47599" lon="2.37871">
        <ele>451.135</ele>
        <time>2021-05-23T11:20:30Z</time>
      </trkpt>
      <trkpt lat="43.476" lon="2.37871">
        <ele>451.79</ele>
        <time>2021-05-23T11:20:32Z</time>
      </trkpt>
      <trkpt lat="43.476" lon="2.37872">
        <ele>451.8</ele>
        <time>2021-05-23T11:20:34Z</time>
      </trkpt>
      <trkpt lat="43.476" lon="2.37872">
        <ele>451.799</ele>
        <time>2021-05-23T11:20:36Z</time>
      </trkpt>
      <trkpt lat="43.476" lon="2.37872">
        <ele>451.793</ele>
        <time>2021-05-23T11:20:38Z</time>
      </trkpt>
      <trkpt lat="43.476" lon="2.37872">
        <ele>451.796</ele>
        <time>2021-05-23T11:20:40Z</time>
      </trkpt>
      <trkpt lat="43.476" lon="2.37872">
        <ele>451.794</ele>
        <time>2021-05-23T11:20:42Z</time>
      </trkpt>
      <trkpt lat="43.476" lon="2.37872">
        <ele>451.792</ele>
        <time>2021-05-23T11:20:44Z</time>
      </trkpt>
      <trkpt lat="43.476" lon="2.37872">
        <ele>451.794</ele>
        <time>2021-05-23T11:20:46Z</time>
      </trkpt>
      <trkpt lat="43.476" lon="2.37872">
        <ele>451.974</ele>
        <time>2021-05-23T11:20:48Z</time>
      </trkpt>
      <trkpt lat="43.476" lon="2.37872">
        <ele>452.137</ele>
        <time>2021-05-23T11:20:50Z</time>
      </trkpt>
      <trkpt lat="43.476" lon="2.37872">
        <ele>452.326</ele>
        <time>2021-05-23T11:20:52Z</time>
      </trkpt>
      <trkpt lat="43.476" lon="2.37872">
        <ele>452.328</ele>
        <time>2021-05-23T11:20:54Z</time>
      </trkpt>
      <trkpt lat="43.476" lon="2.37872">
        <ele>452.047</ele>
        <time>2021-05-23T11:20:56Z</time>
      </trkpt>
      <trkpt lat="43.476" lon="2.3787">
        <ele>453.126</ele>
        <time>2021-05-23T11:20:58Z</time>
      </trkpt>
      <trkpt lat="43.47601" lon="2.37869">
        <ele>453.623</ele>
        <time>2021-05-23T11:21:00Z</time>
      </trkpt>
      <trkpt lat="43.47602" lon="2.37869">
        <ele>454.392</ele>
        <time>2021-05-23T11:21:02Z</time>
      </trkpt>
      <trkpt lat="43.47604" lon="2.37868">
        <ele>454.835</ele>
        <time>2021-05-23T11:21:04Z</time>
      </trkpt>
      <trkpt lat="43.47605" lon="2.37869">
        <ele>455.189</ele>
        <time>2021-05-23T11:21:06Z</time>
      </trkpt>
      <trkpt lat="43.47605" lon="2.37871">
        <ele>454.903</ele>
        <time>2021-05-23T11:21:08Z</time>
      </trkpt>
      <trkpt lat="43.47605" lon="2.37872">
        <ele>454.679</ele>
        <time>2021-05-23T11:21:10Z</time>
      </trkpt>
      <trkpt lat="43.47606" lon="2.37872">
        <ele>455.461</ele>
        <time>2021-05-23T11:21:12Z</time>
      </trkpt>
      <trkpt lat="43.47606" lon="2.37871">
        <ele>455.751</ele>
        <time>2021-05-23T11:21:14Z</time>
      </trkpt>
      <trkpt lat="43.47607" lon="2.3787">
        <ele>456.044</ele>
        <time>2021-05-23T11:21:16Z</time>
      </trkpt>
      <trkpt lat="43.47608" lon="2.37868">
        <ele>456.796</ele>
        <time>2021-05-23T11:21:18Z</time>
      </trkpt>
      <trkpt lat="43.4761" lon="2.37868">
        <ele>457.312</ele>
        <time>2021-05-23T11:21:20Z</time>
      </trkpt>
      <trkpt lat="43.47611" lon="2.37868">
        <ele>457.189</ele>
        <time>2021-05-23T11:21:22Z</time>
      </trkpt>
      <trkpt lat="43.47612" lon="2.37867">
        <ele>457.062</ele>
        <time>2021-05-23T11:21:24Z</time>
      </trkpt>
      <trkpt lat="43.47613" lon="2.37866">
        <ele>457.666</ele>
        <time>2021-05-23T11:21:26Z</time>
      </trkpt>
      <trkpt lat="43.47614" lon="2.37864">
        <ele>458.443</ele>
        <time>2021-05-23T11:21:28Z</time>
      </trkpt>
      <trkpt lat="43.47614" lon="2.37862">
        <ele>457.615</ele>
        <time>2021-05-23T11:21:30Z</time>
      </trkpt>
      <trkpt lat="43.47612" lon="2.3786">
        <ele>458.354</ele>
        <time>2021-05-23T11:21:32Z</time>
      </trkpt>
      <trkpt lat="43.4761" lon="2.3786">
        <ele>458.35</ele>
        <time>2021-05-23T11:21:34Z</time>
      </trkpt>
      <trkpt lat="43.47608" lon="2.3786">
        <ele>458.765</ele>
        <time>2021-05-23T11:21:36Z</time>
      </trkpt>
      <trkpt lat="43.47607" lon="2.37861">
        <ele>460.567</ele>
        <time>2021-05-23T11:21:38Z</time>
      </trkpt>
      <trkpt lat="43.47605" lon="2.37861">
        <ele>461.116</ele>
        <time>2021-05-23T11:21:40Z</time>
      </trkpt>
      <trkpt lat="43.47603" lon="2.37861">
        <ele>463.255</ele>
        <time>2021-05-23T11:21:42Z</time>
      </trkpt>
      <trkpt lat="43.47602" lon="2.37862">
        <ele>464.153</ele>
        <time>2021-05-23T11:21:44Z</time>
      </trkpt>
      <trkpt lat="43.476" lon="2.37863">
        <ele>464.947</ele>
        <time>2021-05-23T11:21:46Z</time>
      </trkpt>
      <trkpt lat="43.47598" lon="2.37863">
        <ele>465.037</ele>
        <time>2021-05-23T11:21:48Z</time>
      </trkpt>
      <trkpt lat="43.47596" lon="2.37864">
        <ele>465.633</ele>
        <time>2021-05-23T11:21:50Z</time>
      </trkpt>
      <trkpt lat="43.47595" lon="2.37864">
        <ele>465.872</ele>
        <time>2021-05-23T11:21:52Z</time>
      </trkpt>
      <trkpt lat="43.47594" lon="2.37865">
        <ele>465.431</ele>
        <time>2021-05-23T11:21:54Z</time>
      </trkpt>
      <trkpt lat="43.47593" lon="2.37864">
        <ele>464.552</ele>
        <time>2021-05-23T11:21:56Z</time>
      </trkpt>
      <trkpt lat="43.47593" lon="2.37864">
        <ele>464.299</ele>
        <time>2021-05-23T11:21:58Z</time>
      </trkpt>
      <trkpt lat="43.47592" lon="2.37864">
        <ele>464.377</ele>
        <time>2021-05-23T11:22:00Z</time>
      </trkpt>
      <trkpt lat="43.4759" lon="2.37864">
        <ele>464.864</ele>
        <time>2021-05-23T11:22:02Z</time>
      </trkpt>
      <trkpt lat="43.47589" lon="2.37865">
        <ele>465.83</ele>
        <time>2021-05-23T11:22:04Z</time>
      </trkpt>
      <trkpt lat="43.47588" lon="2.37868">
        <ele>466.5</ele>
        <time>2021-05-23T11:22:06Z</time>
      </trkpt>
      <trkpt lat="43.47588" lon="2.37867">
        <ele>467.724</ele>
        <time>2021-05-23T11:22:08Z</time>
      </trkpt>
      <trkpt lat="43.47586" lon="2.37868">
        <ele>467.336</ele>
        <time>2021-05-23T11:22:10Z</time>
      </trkpt>
      <trkpt lat="43.47585" lon="2.37868">
        <ele>467.429</ele>
        <time>2021-05-23T11:22:12Z</time>
      </trkpt>
      <trkpt lat="43.47584" lon="2.37869">
        <ele>466.793</ele>
        <time>2021-05-23T11:22:14Z</time>
      </trkpt>
      <trkpt lat="43.47583" lon="2.37869">
        <ele>467.391</ele>
        <time>2021-05-23T11:22:16Z</time>
      </trkpt>
      <trkpt lat="43.47582" lon="2.37869">
        <ele>467.378</ele>
        <time>2021-05-23T11:22:18Z</time>
      </trkpt>
      <trkpt lat="43.47581" lon="2.37868">
        <ele>469.689</ele>
        <time>2021-05-23T11:22:20Z</time>
      </trkpt>
      <trkpt lat="43.4758" lon="2.37867">
        <ele>469.912</ele>
        <time>2021-05-23T11:22:22Z</time>
      </trkpt>
      <trkpt lat="43.47579" lon="2.37866">
        <ele>469.246</ele>
        <time>2021-05-23T11:22:24Z</time>
      </trkpt>
      <trkpt lat="43.47578" lon="2.37864">
        <ele>469.149</ele>
        <time>2021-05-23T11:22:26Z</time>
      </trkpt>
      <trkpt lat="43.47577" lon="2.37865">
        <ele>469.02</ele>
        <time>2021-05-23T11:22:28Z</time>
      </trkpt>
      <trkpt lat="43.47576" lon="2.37865">
        <ele>469.8</ele>
        <time>2021-05-23T11:22:30Z</time>
      </trkpt>
      <trkpt lat="43.47575" lon="2.37865">
        <ele>470.652</ele>
        <time>2021-05-23T11:22:32Z</time>
      </trkpt>
      <trkpt lat="43.47574" lon="2.37865">
        <ele>470.143</ele>
        <time>2021-05-23T11:22:34Z</time>
      </trkpt>
      <trkpt lat="43.4757" lon="2.37867">
        <ele>470.724</ele>
        <time>2021-05-23T11:22:36Z</time>
      </trkpt>
      <trkpt lat="43.47569" lon="2.37866">
        <ele>470.463</ele>
        <time>2021-05-23T11:22:38Z</time>
      </trkpt>
      <trkpt lat="43.47568" lon="2.37866">
        <ele>470.918</ele>
        <time>2021-05-23T11:22:40Z</time>
      </trkpt>
      <trkpt lat="43.47567" lon="2.37865">
        <ele>471.423</ele>
        <time>2021-05-23T11:22:41Z</time>
      </trkpt>
      <trkpt lat="43.47567" lon="2.37865">
        <ele>469.252</ele>
        <time>2021-05-23T11:22:44Z</time>
      </trkpt>
      <trkpt lat="43.47566" lon="2.37864">
        <ele>468.945</ele>
        <time>2021-05-23T11:22:46Z</time>
      </trkpt>
      <trkpt lat="43.47565" lon="2.37863">
        <ele>468.998</ele>
        <time>2021-05-23T11:22:48Z</time>
      </trkpt>
      <trkpt lat="43.47564" lon="2.37861">
        <ele>468.811</ele>
        <time>2021-05-23T11:22:50Z</time>
      </trkpt>
      <trkpt lat="43.47565" lon="2.37861">
        <ele>469.237</ele>
        <time>2021-05-23T11:22:52Z</time>
      </trkpt>
      <trkpt lat="43.47565" lon="2.37861">
        <ele>469.249</ele>
        <time>2021-05-23T11:22:54Z</time>
      </trkpt>
      <trkpt lat="43.47565" lon="2.37861">
        <ele>469.257</ele>
        <time>2021-05-23T11:22:56Z</time>
      </trkpt>
      <trkpt lat="43.47565" lon="2.37861">
        <ele>469.25</ele>
        <time>2021-05-23T11:22:58Z</time>
      </trkpt>
      <trkpt lat="43.47565" lon="2.37861">
        <ele>469.255</ele>
        <time>2021-05-23T11:23:00Z</time>
      </trkpt>
      <trkpt lat="43.47565" lon="2.37861">
        <ele>469.263</ele>
        <time>2021-05-23T11:23:02Z</time>
      </trkpt>
      <trkpt lat="43.47565" lon="2.37861">
        <ele>469.261</ele>
        <time>2021-05-23T11:23:04Z</time>
      </trkpt>
      <trkpt lat="43.47565" lon="2.37861">
        <ele>469.268</ele>
        <time>2021-05-23T11:23:06Z</time>
      </trkpt>
      <trkpt lat="43.47565" lon="2.37861">
        <ele>469.266</ele>
        <time>2021-05-23T11:23:08Z</time>
      </trkpt>
      <trkpt lat="43.47565" lon="2.37861">
        <ele>469.431</ele>
        <time>2021-05-23T11:23:10Z</time>
      </trkpt>
      <trkpt lat="43.47566" lon="2.37859">
        <ele>469.547</ele>
        <time>2021-05-23T11:23:12Z</time>
      </trkpt>
      <trkpt lat="43.47562" lon="2.37859">
        <ele>469.772</ele>
        <time>2021-05-23T11:23:14Z</time>
      </trkpt>
      <trkpt lat="43.47561" lon="2.37861">
        <ele>469.877</ele>
        <time>2021-05-23T11:23:16Z</time>
      </trkpt>
      <trkpt lat="43.47561" lon="2.37861">
        <ele>469.363</ele>
        <time>2021-05-23T11:23:18Z</time>
      </trkpt>
      <trkpt lat="43.47561" lon="2.37859">
        <ele>468.777</ele>
        <time>2021-05-23T11:23:20Z</time>
      </trkpt>
      <trkpt lat="43.47561" lon="2.37858">
        <ele>468.649</ele>
        <time>2021-05-23T11:23:22Z</time>
      </trkpt>
      <trkpt lat="43.4756" lon="2.37857">
        <ele>467.903</ele>
        <time>2021-05-23T11:23:24Z</time>
      </trkpt>
      <trkpt lat="43.47559" lon="2.37858">
        <ele>468.01</ele>
        <time>2021-05-23T11:23:26Z</time>
      </trkpt>
      <trkpt lat="43.47559" lon="2.37858">
        <ele>468.432</ele>
        <time>2021-05-23T11:23:28Z</time>
      </trkpt>
      <trkpt lat="43.47558" lon="2.37858">
        <ele>468.97</ele>
        <time>2021-05-23T11:23:30Z</time>
      </trkpt>
      <trkpt lat="43.47558" lon="2.37859">
        <ele>468.96</ele>
        <time>2021-05-23T11:23:32Z</time>
      </trkpt>
      <trkpt lat="43.47558" lon="2.37859">
        <ele>468.947</ele>
        <time>2021-05-23T11:23:34Z</time>
      </trkpt>
      <trkpt lat="43.47558" lon="2.37859">
        <ele>469.046</ele>
        <time>2021-05-23T11:23:36Z</time>
      </trkpt>
      <trkpt lat="43.47558" lon="2.37859">
        <ele>469.098</ele>
        <time>2021-05-23T11:23:38Z</time>
      </trkpt>
      <trkpt lat="43.47558" lon="2.37859">
        <ele>469.183</ele>
        <time>2021-05-23T11:23:40Z</time>
      </trkpt>
      <trkpt lat="43.47558" lon="2.37859">
        <ele>469.182</ele>
        <time>2021-05-23T11:23:42Z</time>
      </trkpt>
      <trkpt lat="43.47558" lon="2.37859">
        <ele>469.192</ele>
        <time>2021-05-23T11:23:44Z</time>
      </trkpt>
      <trkpt lat="43.47558" lon="2.37859">
        <ele>469.197</ele>
        <time>2021-05-23T11:23:46Z</time>
      </trkpt>
      <trkpt lat="43.47558" lon="2.37859">
        <ele>469.201</ele>
        <time>2021-05-23T11:23:48Z</time>
      </trkpt>
      <trkpt lat="43.47558" lon="2.37859">
        <ele>469.208</ele>
        <time>2021-05-23T11:23:50Z</time>
      </trkpt>
      <trkpt lat="43.47558" lon="2.37859">
        <ele>469.21</ele>
        <time>2021-05-23T11:23:52Z</time>
      </trkpt>
      <trkpt lat="43.47558" lon="2.37859">
        <ele>469.208</ele>
        <time>2021-05-23T11:23:54Z</time>
      </trkpt>
      <trkpt lat="43.47558" lon="2.37859">
        <ele>469.218</ele>
        <time>2021-05-23T11:23:56Z</time>
      </trkpt>
      <trkpt lat="43.47558" lon="2.37859">
        <ele>469.295</ele>
        <time>2021-05-23T11:23:58Z</time>
      </trkpt>
      <trkpt lat="43.47559" lon="2.37859">
        <ele>469.84</ele>
        <time>2021-05-23T11:24:00Z</time>
      </trkpt>
      <trkpt lat="43.47559" lon="2.37858">
        <ele>469.79</ele>
        <time>2021-05-23T11:24:02Z</time>
      </trkpt>
      <trkpt lat="43.47559" lon="2.37858">
        <ele>469.791</ele>
        <time>2021-05-23T11:24:04Z</time>
      </trkpt>
      <trkpt lat="43.47559" lon="2.37858">
        <ele>469.79</ele>
        <time>2021-05-23T11:24:06Z</time>
      </trkpt>
      <trkpt lat="43.47559" lon="2.37859">
        <ele>469.873</ele>
        <time>2021-05-23T11:24:08Z</time>
      </trkpt>
      <trkpt lat="43.47558" lon="2.37859">
        <ele>469.878</ele>
        <time>2021-05-23T11:24:10Z</time>
      </trkpt>
      <trkpt lat="43.47558" lon="2.37859">
        <ele>469.882</ele>
        <time>2021-05-23T11:24:12Z</time>
      </trkpt>
      <trkpt lat="43.47558" lon="2.37859">
        <ele>469.876</ele>
        <time>2021-05-23T11:24:14Z</time>
      </trkpt>
      <trkpt lat="43.47558" lon="2.37859">
        <ele>469.881</ele>
        <time>2021-05-23T11:24:16Z</time>
      </trkpt>
      <trkpt lat="43.47558" lon="2.37859">
        <ele>469.881</ele>
        <time>2021-05-23T11:24:18Z</time>
      </trkpt>
      <trkpt lat="43.47558" lon="2.37859">
        <ele>469.889</ele>
        <time>2021-05-23T11:24:20Z</time>
      </trkpt>
      <trkpt lat="43.47558" lon="2.37859">
        <ele>469.894</ele>
        <time>2021-05-23T11:24:22Z</time>
      </trkpt>
      <trkpt lat="43.47558" lon="2.37859">
        <ele>469.897</ele>
        <time>2021-05-23T11:24:24Z</time>
      </trkpt>
      <trkpt lat="43.47558" lon="2.37859">
        <ele>469.898</ele>
        <time>2021-05-23T11:24:26Z</time>
      </trkpt>
      <trkpt lat="43.47559" lon="2.37859">
        <ele>470.192</ele>
        <time>2021-05-23T11:24:28Z</time>
      </trkpt>
      <trkpt lat="43.47559" lon="2.37859">
        <ele>470.191</ele>
        <time>2021-05-23T11:24:30Z</time>
      </trkpt>
      <trkpt lat="43.47559" lon="2.37859">
        <ele>470.189</ele>
        <time>2021-05-23T11:24:32Z</time>
      </trkpt>
      <trkpt lat="43.47559" lon="2.37859">
        <ele>470.186</ele>
        <time>2021-05-23T11:24:34Z</time>
      </trkpt>
      <trkpt lat="43.47559" lon="2.37859">
        <ele>470.184</ele>
        <time>2021-05-23T11:24:36Z</time>
      </trkpt>
      <trkpt lat="43.47559" lon="2.37859">
        <ele>470.182</ele>
        <time>2021-05-23T11:24:38Z</time>
      </trkpt>
      <trkpt lat="43.47559" lon="2.37859">
        <ele>470.189</ele>
        <time>2021-05-23T11:24:40Z</time>
      </trkpt>
      <trkpt lat="43.47559" lon="2.37859">
        <ele>470.199</ele>
        <time>2021-05-23T11:24:42Z</time>
      </trkpt>
      <trkpt lat="43.47559" lon="2.37859">
        <ele>470.203</ele>
        <time>2021-05-23T11:24:44Z</time>
      </trkpt>
      <trkpt lat="43.47559" lon="2.37859">
        <ele>470.219</ele>
        <time>2021-05-23T11:24:46Z</time>
      </trkpt>
      <trkpt lat="43.47559" lon="2.37859">
        <ele>470.22</ele>
        <time>2021-05-23T11:24:48Z</time>
      </trkpt>
      <trkpt lat="43.47558" lon="2.37859">
        <ele>469.855</ele>
        <time>2021-05-23T11:24:50Z</time>
      </trkpt>
      <trkpt lat="43.47557" lon="2.37859">
        <ele>470.148</ele>
        <time>2021-05-23T11:24:52Z</time>
      </trkpt>
      <trkpt lat="43.47556" lon="2.37859">
        <ele>469.484</ele>
        <time>2021-05-23T11:24:54Z</time>
      </trkpt>
      <trkpt lat="43.47554" lon="2.3786">
        <ele>469.326</ele>
        <time>2021-05-23T11:24:56Z</time>
      </trkpt>
      <trkpt lat="43.47552" lon="2.37861">
        <ele>469.442</ele>
        <time>2021-05-23T11:24:58Z</time>
      </trkpt>
      <trkpt lat="43.47552" lon="2.37861">
        <ele>468.842</ele>
        <time>2021-05-23T11:25:00Z</time>
      </trkpt>
      <trkpt lat="43.4755" lon="2.37861">
        <ele>468.693</ele>
        <time>2021-05-23T11:25:02Z</time>
      </trkpt>
      <trkpt lat="43.47549" lon="2.37862">
        <ele>468.798</ele>
        <time>2021-05-23T11:25:04Z</time>
      </trkpt>
      <trkpt lat="43.47548" lon="2.37862">
        <ele>468.188</ele>
        <time>2021-05-23T11:25:06Z</time>
      </trkpt>
      <trkpt lat="43.47547" lon="2.37861">
        <ele>466.99</ele>
        <time>2021-05-23T11:25:08Z</time>
      </trkpt>
      <trkpt lat="43.47546" lon="2.37861">
        <ele>466.92</ele>
        <time>2021-05-23T11:25:10Z</time>
      </trkpt>
      <trkpt lat="43.47544" lon="2.37861">
        <ele>466.899</ele>
        <time>2021-05-23T11:25:12Z</time>
      </trkpt>
      <trkpt lat="43.47542" lon="2.3786">
        <ele>466.2</ele>
        <time>2021-05-23T11:25:15Z</time>
      </trkpt>
      <trkpt lat="43.47541" lon="2.3786">
        <ele>466.283</ele>
        <time>2021-05-23T11:25:17Z</time>
      </trkpt>
      <trkpt lat="43.4754" lon="2.3786">
        <ele>466.773</ele>
        <time>2021-05-23T11:25:19Z</time>
      </trkpt>
      <trkpt lat="43.47538" lon="2.37859">
        <ele>467.476</ele>
        <time>2021-05-23T11:25:21Z</time>
      </trkpt>
      <trkpt lat="43.47537" lon="2.3786">
        <ele>468.119</ele>
        <time>2021-05-23T11:25:23Z</time>
      </trkpt>
      <trkpt lat="43.47537" lon="2.3786">
        <ele>467.96</ele>
        <time>2021-05-23T11:25:25Z</time>
      </trkpt>
      <trkpt lat="43.47536" lon="2.3786">
        <ele>467.921</ele>
        <time>2021-05-23T11:25:27Z</time>
      </trkpt>
      <trkpt lat="43.47535" lon="2.3786">
        <ele>468.551</ele>
        <time>2021-05-23T11:25:29Z</time>
      </trkpt>
      <trkpt lat="43.47534" lon="2.37859">
        <ele>469.428</ele>
        <time>2021-05-23T11:25:32Z</time>
      </trkpt>
      <trkpt lat="43.47532" lon="2.37859">
        <ele>469.051</ele>
        <time>2021-05-23T11:25:34Z</time>
      </trkpt>
      <trkpt lat="43.47531" lon="2.37861">
        <ele>468.941</ele>
        <time>2021-05-23T11:25:36Z</time>
      </trkpt>
      <trkpt lat="43.47531" lon="2.37863">
        <ele>469.096</ele>
        <time>2021-05-23T11:25:38Z</time>
      </trkpt>
      <trkpt lat="43.47529" lon="2.37864">
        <ele>469.563</ele>
        <time>2021-05-23T11:25:40Z</time>
      </trkpt>
      <trkpt lat="43.47529" lon="2.37862">
        <ele>468.228</ele>
        <time>2021-05-23T11:25:42Z</time>
      </trkpt>
      <trkpt lat="43.47528" lon="2.37863">
        <ele>467.543</ele>
        <time>2021-05-23T11:25:44Z</time>
      </trkpt>
      <trkpt lat="43.47527" lon="2.37864">
        <ele>466.831</ele>
        <time>2021-05-23T11:25:46Z</time>
      </trkpt>
      <trkpt lat="43.47526" lon="2.37864">
        <ele>466.966</ele>
        <time>2021-05-23T11:25:48Z</time>
      </trkpt>
      <trkpt lat="43.47525" lon="2.37864">
        <ele>466.336</ele>
        <time>2021-05-23T11:25:50Z</time>
      </trkpt>
      <trkpt lat="43.47525" lon="2.37864">
        <ele>466.389</ele>
        <time>2021-05-23T11:25:52Z</time>
      </trkpt>
      <trkpt lat="43.47524" lon="2.37865">
        <ele>467.81</ele>
        <time>2021-05-23T11:25:54Z</time>
      </trkpt>
      <trkpt lat="43.47523" lon="2.37866">
        <ele>469.531</ele>
        <time>2021-05-23T11:25:56Z</time>
      </trkpt>
      <trkpt lat="43.47522" lon="2.37866">
        <ele>469.924</ele>
        <time>2021-05-23T11:25:58Z</time>
      </trkpt>
      <trkpt lat="43.47521" lon="2.37865">
        <ele>469.628</ele>
        <time>2021-05-23T11:26:00Z</time>
      </trkpt>
      <trkpt lat="43.4752" lon="2.37865">
        <ele>469.973</ele>
        <time>2021-05-23T11:26:02Z</time>
      </trkpt>
      <trkpt lat="43.47519" lon="2.37865">
        <ele>470.273</ele>
        <time>2021-05-23T11:26:04Z</time>
      </trkpt>
      <trkpt lat="43.47519" lon="2.37864">
        <ele>470.265</ele>
        <time>2021-05-23T11:26:06Z</time>
      </trkpt>
      <trkpt lat="43.47518" lon="2.37863">
        <ele>469.493</ele>
        <time>2021-05-23T11:26:08Z</time>
      </trkpt>
      <trkpt lat="43.47518" lon="2.37863">
        <ele>469.801</ele>
        <time>2021-05-23T11:26:10Z</time>
      </trkpt>
      <trkpt lat="43.47519" lon="2.37863">
        <ele>469.502</ele>
        <time>2021-05-23T11:26:12Z</time>
      </trkpt>
      <trkpt lat="43.4752" lon="2.37863">
        <ele>469.081</ele>
        <time>2021-05-23T11:26:14Z</time>
      </trkpt>
      <trkpt lat="43.47521" lon="2.37863">
        <ele>468.745</ele>
        <time>2021-05-23T11:26:16Z</time>
      </trkpt>
      <trkpt lat="43.47522" lon="2.37862">
        <ele>468.875</ele>
        <time>2021-05-23T11:26:18Z</time>
      </trkpt>
      <trkpt lat="43.47522" lon="2.37862">
        <ele>468.37</ele>
        <time>2021-05-23T11:26:20Z</time>
      </trkpt>
      <trkpt lat="43.47523" lon="2.37861">
        <ele>468.181</ele>
        <time>2021-05-23T11:26:22Z</time>
      </trkpt>
      <trkpt lat="43.47525" lon="2.37861">
        <ele>468.358</ele>
        <time>2021-05-23T11:26:24Z</time>
      </trkpt>
      <trkpt lat="43.47527" lon="2.3786">
        <ele>468.039</ele>
        <time>2021-05-23T11:26:26Z</time>
      </trkpt>
      <trkpt lat="43.47528" lon="2.37859">
        <ele>468.072</ele>
        <time>2021-05-23T11:26:28Z</time>
      </trkpt>
      <trkpt lat="43.4753" lon="2.37858">
        <ele>468.423</ele>
        <time>2021-05-23T11:26:30Z</time>
      </trkpt>
      <trkpt lat="43.47532" lon="2.37858">
        <ele>468.741</ele>
        <time>2021-05-23T11:26:32Z</time>
      </trkpt>
      <trkpt lat="43.47533" lon="2.37857">
        <ele>467.934</ele>
        <time>2021-05-23T11:26:34Z</time>
      </trkpt>
      <trkpt lat="43.47533" lon="2.37855">
        <ele>466.868</ele>
        <time>2021-05-23T11:26:36Z</time>
      </trkpt>
      <trkpt lat="43.47533" lon="2.37855">
        <ele>466.867</ele>
        <time>2021-05-23T11:26:38Z</time>
      </trkpt>
      <trkpt lat="43.47533" lon="2.37855">
        <ele>466.859</ele>
        <time>2021-05-23T11:26:40Z</time>
      </trkpt>
      <trkpt lat="43.47533" lon="2.37855">
        <ele>466.865</ele>
        <time>2021-05-23T11:26:42Z</time>
      </trkpt>
      <trkpt lat="43.47533" lon="2.37855">
        <ele>466.868</ele>
        <time>2021-05-23T11:26:44Z</time>
      </trkpt>
      <trkpt lat="43.47533" lon="2.37855">
        <ele>466.876</ele>
        <time>2021-05-23T11:26:46Z</time>
      </trkpt>
      <trkpt lat="43.47533" lon="2.37855">
        <ele>466.872</ele>
        <time>2021-05-23T11:26:48Z</time>
      </trkpt>
      <trkpt lat="43.47533" lon="2.37855">
        <ele>466.87</ele>
        <time>2021-05-23T11:26:50Z</time>
      </trkpt>
      <trkpt lat="43.47533" lon="2.37855">
        <ele>466.602</ele>
        <time>2021-05-23T11:26:52Z</time>
      </trkpt>
      <trkpt lat="43.47533" lon="2.37854">
        <ele>466.567</ele>
        <time>2021-05-23T11:26:54Z</time>
      </trkpt>
      <trkpt lat="43.47533" lon="2.37854">
        <ele>466.571</ele>
        <time>2021-05-23T11:26:56Z</time>
      </trkpt>
      <trkpt lat="43.47533" lon="2.37854">
        <ele>466.225</ele>
        <time>2021-05-23T11:26:58Z</time>
      </trkpt>
      <trkpt lat="43.47534" lon="2.37855">
        <ele>465.765</ele>
        <time>2021-05-23T11:27:00Z</time>
      </trkpt>
      <trkpt lat="43.47535" lon="2.37855">
        <ele>466.005</ele>
        <time>2021-05-23T11:27:02Z</time>
      </trkpt>
      <trkpt lat="43.47536" lon="2.37856">
        <ele>466</ele>
        <time>2021-05-23T11:27:04Z</time>
      </trkpt>
      <trkpt lat="43.47536" lon="2.37857">
        <ele>465.531</ele>
        <time>2021-05-23T11:27:06Z</time>
      </trkpt>
      <trkpt lat="43.47536" lon="2.37858">
        <ele>465.039</ele>
        <time>2021-05-23T11:27:08Z</time>
      </trkpt>
      <trkpt lat="43.47537" lon="2.3786">
        <ele>465.055</ele>
        <time>2021-05-23T11:27:10Z</time>
      </trkpt>
      <trkpt lat="43.47538" lon="2.37861">
        <ele>465.739</ele>
        <time>2021-05-23T11:27:12Z</time>
      </trkpt>
      <trkpt lat="43.47539" lon="2.3786">
        <ele>465.854</ele>
        <time>2021-05-23T11:27:14Z</time>
      </trkpt>
      <trkpt lat="43.47538" lon="2.37859">
        <ele>467.055</ele>
        <time>2021-05-23T11:27:16Z</time>
      </trkpt>
      <trkpt lat="43.47538" lon="2.37859">
        <ele>467.051</ele>
        <time>2021-05-23T11:27:18Z</time>
      </trkpt>
      <trkpt lat="43.47538" lon="2.37859">
        <ele>467.053</ele>
        <time>2021-05-23T11:27:20Z</time>
      </trkpt>
      <trkpt lat="43.47538" lon="2.37859">
        <ele>467.056</ele>
        <time>2021-05-23T11:27:22Z</time>
      </trkpt>
      <trkpt lat="43.47538" lon="2.37859">
        <ele>467.057</ele>
        <time>2021-05-23T11:27:24Z</time>
      </trkpt>
      <trkpt lat="43.47538" lon="2.37859">
        <ele>467.059</ele>
        <time>2021-05-23T11:27:26Z</time>
      </trkpt>
      <trkpt lat="43.47538" lon="2.37859">
        <ele>467.063</ele>
        <time>2021-05-23T11:27:28Z</time>
      </trkpt>
      <trkpt lat="43.47539" lon="2.37858">
        <ele>467.24</ele>
        <time>2021-05-23T11:27:30Z</time>
      </trkpt>
      <trkpt lat="43.4754" lon="2.37859">
        <ele>467.631</ele>
        <time>2021-05-23T11:27:32Z</time>
      </trkpt>
      <trkpt lat="43.4754" lon="2.3786">
        <ele>467.845</ele>
        <time>2021-05-23T11:27:34Z</time>
      </trkpt>
      <trkpt lat="43.47541" lon="2.37859">
        <ele>467.712</ele>
        <time>2021-05-23T11:27:36Z</time>
      </trkpt>
      <trkpt lat="43.47544" lon="2.37859">
        <ele>467.413</ele>
        <time>2021-05-23T11:27:38Z</time>
      </trkpt>
      <trkpt lat="43.47545" lon="2.3786">
        <ele>467.738</ele>
        <time>2021-05-23T11:27:40Z</time>
      </trkpt>
      <trkpt lat="43.47547" lon="2.3786">
        <ele>467.667</ele>
        <time>2021-05-23T11:27:42Z</time>
      </trkpt>
      <trkpt lat="43.47548" lon="2.3786">
        <ele>467.043</ele>
        <time>2021-05-23T11:27:44Z</time>
      </trkpt>
      <trkpt lat="43.4755" lon="2.37861">
        <ele>467.493</ele>
        <time>2021-05-23T11:27:46Z</time>
      </trkpt>
      <trkpt lat="43.47551" lon="2.37861">
        <ele>466.997</ele>
        <time>2021-05-23T11:27:48Z</time>
      </trkpt>
      <trkpt lat="43.47552" lon="2.37861">
        <ele>466.849</ele>
        <time>2021-05-23T11:27:50Z</time>
      </trkpt>
      <trkpt lat="43.47553" lon="2.37861">
        <ele>467.955</ele>
        <time>2021-05-23T11:27:52Z</time>
      </trkpt>
      <trkpt lat="43.47555" lon="2.3786">
        <ele>468.288</ele>
        <time>2021-05-23T11:27:54Z</time>
      </trkpt>
      <trkpt lat="43.47556" lon="2.3786">
        <ele>467.622</ele>
        <time>2021-05-23T11:27:56Z</time>
      </trkpt>
      <trkpt lat="43.47557" lon="2.3786">
        <ele>466.646</ele>
        <time>2021-05-23T11:27:58Z</time>
      </trkpt>
      <trkpt lat="43.47557" lon="2.3786">
        <ele>466.637</ele>
        <time>2021-05-23T11:28:00Z</time>
      </trkpt>
      <trkpt lat="43.47557" lon="2.37859">
        <ele>466.265</ele>
        <time>2021-05-23T11:28:02Z</time>
      </trkpt>
      <trkpt lat="43.47557" lon="2.37859">
        <ele>465.907</ele>
        <time>2021-05-23T11:28:04Z</time>
      </trkpt>
      <trkpt lat="43.47558" lon="2.3786">
        <ele>466.213</ele>
        <time>2021-05-23T11:28:06Z</time>
      </trkpt>
      <trkpt lat="43.47558" lon="2.3786">
        <ele>466.04</ele>
        <time>2021-05-23T11:28:08Z</time>
      </trkpt>
      <trkpt lat="43.47559" lon="2.3786">
        <ele>467.156</ele>
        <time>2021-05-23T11:28:10Z</time>
      </trkpt>
      <trkpt lat="43.4756" lon="2.37859">
        <ele>468.059</ele>
        <time>2021-05-23T11:28:12Z</time>
      </trkpt>
      <trkpt lat="43.47561" lon="2.37858">
        <ele>468.368</ele>
        <time>2021-05-23T11:28:14Z</time>
      </trkpt>
      <trkpt lat="43.47562" lon="2.37858">
        <ele>467.755</ele>
        <time>2021-05-23T11:28:16Z</time>
      </trkpt>
      <trkpt lat="43.47563" lon="2.37858">
        <ele>467.373</ele>
        <time>2021-05-23T11:28:18Z</time>
      </trkpt>
      <trkpt lat="43.47564" lon="2.37858">
        <ele>467.517</ele>
        <time>2021-05-23T11:28:20Z</time>
      </trkpt>
      <trkpt lat="43.47565" lon="2.37859">
        <ele>468.528</ele>
        <time>2021-05-23T11:28:22Z</time>
      </trkpt>
      <trkpt lat="43.47565" lon="2.37859">
        <ele>468.553</ele>
        <time>2021-05-23T11:28:24Z</time>
      </trkpt>
      <trkpt lat="43.47565" lon="2.3786">
        <ele>469.74</ele>
        <time>2021-05-23T11:28:26Z</time>
      </trkpt>
      <trkpt lat="43.47566" lon="2.37861">
        <ele>469.345</ele>
        <time>2021-05-23T11:28:28Z</time>
      </trkpt>
      <trkpt lat="43.47567" lon="2.37862">
        <ele>468.978</ele>
        <time>2021-05-23T11:28:30Z</time>
      </trkpt>
      <trkpt lat="43.47568" lon="2.37864">
        <ele>469.113</ele>
        <time>2021-05-23T11:28:32Z</time>
      </trkpt>
      <trkpt lat="43.4757" lon="2.37865">
        <ele>469.57</ele>
        <time>2021-05-23T11:28:34Z</time>
      </trkpt>
      <trkpt lat="43.47571" lon="2.37865">
        <ele>469.404</ele>
        <time>2021-05-23T11:28:36Z</time>
      </trkpt>
      <trkpt lat="43.47573" lon="2.37866">
        <ele>469.948</ele>
        <time>2021-05-23T11:28:38Z</time>
      </trkpt>
      <trkpt lat="43.47575" lon="2.37866">
        <ele>469.766</ele>
        <time>2021-05-23T11:28:40Z</time>
      </trkpt>
      <trkpt lat="43.47577" lon="2.37864">
        <ele>469.735</ele>
        <time>2021-05-23T11:28:42Z</time>
      </trkpt>
      <trkpt lat="43.47579" lon="2.37862">
        <ele>470.133</ele>
        <time>2021-05-23T11:28:44Z</time>
      </trkpt>
      <trkpt lat="43.47581" lon="2.37861">
        <ele>471.398</ele>
        <time>2021-05-23T11:28:46Z</time>
      </trkpt>
      <trkpt lat="43.47583" lon="2.37859">
        <ele>471.811</ele>
        <time>2021-05-23T11:28:48Z</time>
      </trkpt>
      <trkpt lat="43.47585" lon="2.37858">
        <ele>472.543</ele>
        <time>2021-05-23T11:28:50Z</time>
      </trkpt>
      <trkpt lat="43.47586" lon="2.37858">
        <ele>472.651</ele>
        <time>2021-05-23T11:28:52Z</time>
      </trkpt>
      <trkpt lat="43.47588" lon="2.37857">
        <ele>472.665</ele>
        <time>2021-05-23T11:28:54Z</time>
      </trkpt>
      <trkpt lat="43.47589" lon="2.37855">
        <ele>473.036</ele>
        <time>2021-05-23T11:28:56Z</time>
      </trkpt>
      <trkpt lat="43.47591" lon="2.37854">
        <ele>473.07</ele>
        <time>2021-05-23T11:28:58Z</time>
      </trkpt>
      <trkpt lat="43.47592" lon="2.37852">
        <ele>473.602</ele>
        <time>2021-05-23T11:29:00Z</time>
      </trkpt>
      <trkpt lat="43.47593" lon="2.37851">
        <ele>473.509</ele>
        <time>2021-05-23T11:29:02Z</time>
      </trkpt>
      <trkpt lat="43.47594" lon="2.37849">
        <ele>473.844</ele>
        <time>2021-05-23T11:29:04Z</time>
      </trkpt>
      <trkpt lat="43.47594" lon="2.37847">
        <ele>474.429</ele>
        <time>2021-05-23T11:29:06Z</time>
      </trkpt>
      <trkpt lat="43.47594" lon="2.37845">
        <ele>474.505</ele>
        <time>2021-05-23T11:29:08Z</time>
      </trkpt>
      <trkpt lat="43.47593" lon="2.37844">
        <ele>475.099</ele>
        <time>2021-05-23T11:29:10Z</time>
      </trkpt>
      <trkpt lat="43.47593" lon="2.37842">
        <ele>475.484</ele>
        <time>2021-05-23T11:29:12Z</time>
      </trkpt>
      <trkpt lat="43.47593" lon="2.37841">
        <ele>475.973</ele>
        <time>2021-05-23T11:29:14Z</time>
      </trkpt>
      <trkpt lat="43.47592" lon="2.3784">
        <ele>476.508</ele>
        <time>2021-05-23T11:29:16Z</time>
      </trkpt>
      <trkpt lat="43.47591" lon="2.37841">
        <ele>477.504</ele>
        <time>2021-05-23T11:29:18Z</time>
      </trkpt>
      <trkpt lat="43.47589" lon="2.37842">
        <ele>476.944</ele>
        <time>2021-05-23T11:29:20Z</time>
      </trkpt>
      <trkpt lat="43.47588" lon="2.37842">
        <ele>475.76</ele>
        <time>2021-05-23T11:29:22Z</time>
      </trkpt>
      <trkpt lat="43.47587" lon="2.37842">
        <ele>476.563</ele>
        <time>2021-05-23T11:29:24Z</time>
      </trkpt>
      <trkpt lat="43.47586" lon="2.37842">
        <ele>476.594</ele>
        <time>2021-05-23T11:29:26Z</time>
      </trkpt>
      <trkpt lat="43.47584" lon="2.37842">
        <ele>476.169</ele>
        <time>2021-05-23T11:29:28Z</time>
      </trkpt>
      <trkpt lat="43.47583" lon="2.37843">
        <ele>476.556</ele>
        <time>2021-05-23T11:29:30Z</time>
      </trkpt>
      <trkpt lat="43.47581" lon="2.37844">
        <ele>476.184</ele>
        <time>2021-05-23T11:29:32Z</time>
      </trkpt>
      <trkpt lat="43.4758" lon="2.37845">
        <ele>476.819</ele>
        <time>2021-05-23T11:29:34Z</time>
      </trkpt>
      <trkpt lat="43.47579" lon="2.37844">
        <ele>476.984</ele>
        <time>2021-05-23T11:29:36Z</time>
      </trkpt>
      <trkpt lat="43.47577" lon="2.37843">
        <ele>477.068</ele>
        <time>2021-05-23T11:29:38Z</time>
      </trkpt>
      <trkpt lat="43.47576" lon="2.37842">
        <ele>478.894</ele>
        <time>2021-05-23T11:29:40Z</time>
      </trkpt>
      <trkpt lat="43.47576" lon="2.3784">
        <ele>478.947</ele>
        <time>2021-05-23T11:29:42Z</time>
      </trkpt>
      <trkpt lat="43.47576" lon="2.37839">
        <ele>480.091</ele>
        <time>2021-05-23T11:29:44Z</time>
      </trkpt>
      <trkpt lat="43.47576" lon="2.37837">
        <ele>479.953</ele>
        <time>2021-05-23T11:29:46Z</time>
      </trkpt>
      <trkpt lat="43.47576" lon="2.37835">
        <ele>480.496</ele>
        <time>2021-05-23T11:29:48Z</time>
      </trkpt>
      <trkpt lat="43.47576" lon="2.37833">
        <ele>480.251</ele>
        <time>2021-05-23T11:29:50Z</time>
      </trkpt>
      <trkpt lat="43.47576" lon="2.37831">
        <ele>481.312</ele>
        <time>2021-05-23T11:29:52Z</time>
      </trkpt>
      <trkpt lat="43.47575" lon="2.3783">
        <ele>481.571</ele>
        <time>2021-05-23T11:29:54Z</time>
      </trkpt>
      <trkpt lat="43.47575" lon="2.37829">
        <ele>481.405</ele>
        <time>2021-05-23T11:29:56Z</time>
      </trkpt>
      <trkpt lat="43.47574" lon="2.37828">
        <ele>481.546</ele>
        <time>2021-05-23T11:29:58Z</time>
      </trkpt>
      <trkpt lat="43.47573" lon="2.37827">
        <ele>482.674</ele>
        <time>2021-05-23T11:30:00Z</time>
      </trkpt>
      <trkpt lat="43.47571" lon="2.37827">
        <ele>482.434</ele>
        <time>2021-05-23T11:30:02Z</time>
      </trkpt>
      <trkpt lat="43.47571" lon="2.37828">
        <ele>482.688</ele>
        <time>2021-05-23T11:30:04Z</time>
      </trkpt>
      <trkpt lat="43.47569" lon="2.37827">
        <ele>481.365</ele>
        <time>2021-05-23T11:30:06Z</time>
      </trkpt>
      <trkpt lat="43.47568" lon="2.37827">
        <ele>481.62</ele>
        <time>2021-05-23T11:30:08Z</time>
      </trkpt>
      <trkpt lat="43.47567" lon="2.37828">
        <ele>481.803</ele>
        <time>2021-05-23T11:30:10Z</time>
      </trkpt>
      <trkpt lat="43.47566" lon="2.37828">
        <ele>481.422</ele>
        <time>2021-05-23T11:30:12Z</time>
      </trkpt>
      <trkpt lat="43.47566" lon="2.37826">
        <ele>480.422</ele>
        <time>2021-05-23T11:30:14Z</time>
      </trkpt>
      <trkpt lat="43.47567" lon="2.37822">
        <ele>480.33</ele>
        <time>2021-05-23T11:30:16Z</time>
      </trkpt>
      <trkpt lat="43.47566" lon="2.37819">
        <ele>479.864</ele>
        <time>2021-05-23T11:30:18Z</time>
      </trkpt>
      <trkpt lat="43.47565" lon="2.37817">
        <ele>480.006</ele>
        <time>2021-05-23T11:30:20Z</time>
      </trkpt>
      <trkpt lat="43.47564" lon="2.37815">
        <ele>479.628</ele>
        <time>2021-05-23T11:30:22Z</time>
      </trkpt>
      <trkpt lat="43.47561" lon="2.37816">
        <ele>481.26</ele>
        <time>2021-05-23T11:30:24Z</time>
      </trkpt>
      <trkpt lat="43.47558" lon="2.37818">
        <ele>482.654</ele>
        <time>2021-05-23T11:30:26Z</time>
      </trkpt>
      <trkpt lat="43.47556" lon="2.37819">
        <ele>483.81</ele>
        <time>2021-05-23T11:30:28Z</time>
      </trkpt>
      <trkpt lat="43.47555" lon="2.37819">
        <ele>484.46</ele>
        <time>2021-05-23T11:30:30Z</time>
      </trkpt>
      <trkpt lat="43.47554" lon="2.3782">
        <ele>484.839</ele>
        <time>2021-05-23T11:30:32Z</time>
      </trkpt>
      <trkpt lat="43.47553" lon="2.3782">
        <ele>485.27</ele>
        <time>2021-05-23T11:30:34Z</time>
      </trkpt>
      <trkpt lat="43.47553" lon="2.3782">
        <ele>485.273</ele>
        <time>2021-05-23T11:30:36Z</time>
      </trkpt>
      <trkpt lat="43.47553" lon="2.3782">
        <ele>485.041</ele>
        <time>2021-05-23T11:30:38Z</time>
      </trkpt>
      <trkpt lat="43.47552" lon="2.37819">
        <ele>485.109</ele>
        <time>2021-05-23T11:30:40Z</time>
      </trkpt>
      <trkpt lat="43.4755" lon="2.37818">
        <ele>485.355</ele>
        <time>2021-05-23T11:30:42Z</time>
      </trkpt>
      <trkpt lat="43.4755" lon="2.37817">
        <ele>486.619</ele>
        <time>2021-05-23T11:30:44Z</time>
      </trkpt>
      <trkpt lat="43.47549" lon="2.37817">
        <ele>487.586</ele>
        <time>2021-05-23T11:30:46Z</time>
      </trkpt>
      <trkpt lat="43.47548" lon="2.37818">
        <ele>488.481</ele>
        <time>2021-05-23T11:30:48Z</time>
      </trkpt>
      <trkpt lat="43.47548" lon="2.37818">
        <ele>488.412</ele>
        <time>2021-05-23T11:30:50Z</time>
      </trkpt>
      <trkpt lat="43.47547" lon="2.37818">
        <ele>488.16</ele>
        <time>2021-05-23T11:30:51Z</time>
      </trkpt>
      <trkpt lat="43.47543" lon="2.3782">
        <ele>487.427</ele>
        <time>2021-05-23T11:30:57Z</time>
      </trkpt>
      <trkpt lat="43.47541" lon="2.37819">
        <ele>486.296</ele>
        <time>2021-05-23T11:30:59Z</time>
      </trkpt>
      <trkpt lat="43.47539" lon="2.3782">
        <ele>486.904</ele>
        <time>2021-05-23T11:31:01Z</time>
      </trkpt>
      <trkpt lat="43.47538" lon="2.37821">
        <ele>485.317</ele>
        <time>2021-05-23T11:31:03Z</time>
      </trkpt>
      <trkpt lat="43.4754" lon="2.37821">
        <ele>479.673</ele>
        <time>2021-05-23T11:31:05Z</time>
      </trkpt>
      <trkpt lat="43.47541" lon="2.37821">
        <ele>479.658</ele>
        <time>2021-05-23T11:31:07Z</time>
      </trkpt>
      <trkpt lat="43.4754" lon="2.37821">
        <ele>479.593</ele>
        <time>2021-05-23T11:31:09Z</time>
      </trkpt>
      <trkpt lat="43.47539" lon="2.37821">
        <ele>480.681</ele>
        <time>2021-05-23T11:31:11Z</time>
      </trkpt>
      <trkpt lat="43.47538" lon="2.37822">
        <ele>480.376</ele>
        <time>2021-05-23T11:31:13Z</time>
      </trkpt>
      <trkpt lat="43.47537" lon="2.37823">
        <ele>480.413</ele>
        <time>2021-05-23T11:31:15Z</time>
      </trkpt>
      <trkpt lat="43.47535" lon="2.37822">
        <ele>481.892</ele>
        <time>2021-05-23T11:31:17Z</time>
      </trkpt>
      <trkpt lat="43.47532" lon="2.37822">
        <ele>482.458</ele>
        <time>2021-05-23T11:31:19Z</time>
      </trkpt>
      <trkpt lat="43.4753" lon="2.37822">
        <ele>482.785</ele>
        <time>2021-05-23T11:31:21Z</time>
      </trkpt>
      <trkpt lat="43.47528" lon="2.37822">
        <ele>483.349</ele>
        <time>2021-05-23T11:31:23Z</time>
      </trkpt>
      <trkpt lat="43.47526" lon="2.37822">
        <ele>483.686</ele>
        <time>2021-05-23T11:31:25Z</time>
      </trkpt>
      <trkpt lat="43.47524" lon="2.37822">
        <ele>485.07</ele>
        <time>2021-05-23T11:31:27Z</time>
      </trkpt>
      <trkpt lat="43.47522" lon="2.37822">
        <ele>485.842</ele>
        <time>2021-05-23T11:31:29Z</time>
      </trkpt>
      <trkpt lat="43.47521" lon="2.37823">
        <ele>487.375</ele>
        <time>2021-05-23T11:31:31Z</time>
      </trkpt>
      <trkpt lat="43.47519" lon="2.37822">
        <ele>487.413</ele>
        <time>2021-05-23T11:31:33Z</time>
      </trkpt>
      <trkpt lat="43.4752" lon="2.37822">
        <ele>484.881</ele>
        <time>2021-05-23T11:31:35Z</time>
      </trkpt>
      <trkpt lat="43.4752" lon="2.37822">
        <ele>484.885</ele>
        <time>2021-05-23T11:31:37Z</time>
      </trkpt>
      <trkpt lat="43.47519" lon="2.37822">
        <ele>486.157</ele>
        <time>2021-05-23T11:31:39Z</time>
      </trkpt>
      <trkpt lat="43.47518" lon="2.37822">
        <ele>487.956</ele>
        <time>2021-05-23T11:31:41Z</time>
      </trkpt>
      <trkpt lat="43.47518" lon="2.37822">
        <ele>489.144</ele>
        <time>2021-05-23T11:31:43Z</time>
      </trkpt>
      <trkpt lat="43.47517" lon="2.37822">
        <ele>490.716</ele>
        <time>2021-05-23T11:31:45Z</time>
      </trkpt>
      <trkpt lat="43.47517" lon="2.37822">
        <ele>491.131</ele>
        <time>2021-05-23T11:31:47Z</time>
      </trkpt>
      <trkpt lat="43.47517" lon="2.37822">
        <ele>489.874</ele>
        <time>2021-05-23T11:31:49Z</time>
      </trkpt>
      <trkpt lat="43.47516" lon="2.37823">
        <ele>490.442</ele>
        <time>2021-05-23T11:31:51Z</time>
      </trkpt>
      <trkpt lat="43.47516" lon="2.37823">
        <ele>490.443</ele>
        <time>2021-05-23T11:31:53Z</time>
      </trkpt>
      <trkpt lat="43.47516" lon="2.37823">
        <ele>490.438</ele>
        <time>2021-05-23T11:31:55Z</time>
      </trkpt>
      <trkpt lat="43.47516" lon="2.37823">
        <ele>490.444</ele>
        <time>2021-05-23T11:31:57Z</time>
      </trkpt>
      <trkpt lat="43.47516" lon="2.37823">
        <ele>490.444</ele>
        <time>2021-05-23T11:31:59Z</time>
      </trkpt>
      <trkpt lat="43.47516" lon="2.37823">
        <ele>490.468</ele>
        <time>2021-05-23T11:32:01Z</time>
      </trkpt>
      <trkpt lat="43.47516" lon="2.37823">
        <ele>490.491</ele>
        <time>2021-05-23T11:32:03Z</time>
      </trkpt>
      <trkpt lat="43.47516" lon="2.37823">
        <ele>490.48</ele>
        <time>2021-05-23T11:32:05Z</time>
      </trkpt>
      <trkpt lat="43.47515" lon="2.3782">
        <ele>491.091</ele>
        <time>2021-05-23T11:32:07Z</time>
      </trkpt>
      <trkpt lat="43.47514" lon="2.37822">
        <ele>490.976</ele>
        <time>2021-05-23T11:32:09Z</time>
      </trkpt>
      <trkpt lat="43.47515" lon="2.37824">
        <ele>491.602</ele>
        <time>2021-05-23T11:32:11Z</time>
      </trkpt>
      <trkpt lat="43.47512" lon="2.37823">
        <ele>491.616</ele>
        <time>2021-05-23T11:32:13Z</time>
      </trkpt>
      <trkpt lat="43.4751" lon="2.37823">
        <ele>492.554</ele>
        <time>2021-05-23T11:32:15Z</time>
      </trkpt>
      <trkpt lat="43.47509" lon="2.37823">
        <ele>493.285</ele>
        <time>2021-05-23T11:32:17Z</time>
      </trkpt>
      <trkpt lat="43.47508" lon="2.37823">
        <ele>493.396</ele>
        <time>2021-05-23T11:32:19Z</time>
      </trkpt>
      <trkpt lat="43.47508" lon="2.37824">
        <ele>495.772</ele>
        <time>2021-05-23T11:32:21Z</time>
      </trkpt>
      <trkpt lat="43.47506" lon="2.37823">
        <ele>493.413</ele>
        <time>2021-05-23T11:32:23Z</time>
      </trkpt>
      <trkpt lat="43.47506" lon="2.37822">
        <ele>492.943</ele>
        <time>2021-05-23T11:32:25Z</time>
      </trkpt>
      <trkpt lat="43.47505" lon="2.3782">
        <ele>490.775</ele>
        <time>2021-05-23T11:32:27Z</time>
      </trkpt>
      <trkpt lat="43.47505" lon="2.37819">
        <ele>491.324</ele>
        <time>2021-05-23T11:32:29Z</time>
      </trkpt>
      <trkpt lat="43.47503" lon="2.37818">
        <ele>491.179</ele>
        <time>2021-05-23T11:32:31Z</time>
      </trkpt>
      <trkpt lat="43.47503" lon="2.37819">
        <ele>492.093</ele>
        <time>2021-05-23T11:32:33Z</time>
      </trkpt>
      <trkpt lat="43.47503" lon="2.3782">
        <ele>492.355</ele>
        <time>2021-05-23T11:32:35Z</time>
      </trkpt>
      <trkpt lat="43.47504" lon="2.3782">
        <ele>492.462</ele>
        <time>2021-05-23T11:32:37Z</time>
      </trkpt>
      <trkpt lat="43.47504" lon="2.3782">
        <ele>492.468</ele>
        <time>2021-05-23T11:32:39Z</time>
      </trkpt>
      <trkpt lat="43.47504" lon="2.3782">
        <ele>492.485</ele>
        <time>2021-05-23T11:32:41Z</time>
      </trkpt>
      <trkpt lat="43.47504" lon="2.3782">
        <ele>492.486</ele>
        <time>2021-05-23T11:32:43Z</time>
      </trkpt>
      <trkpt lat="43.47504" lon="2.3782">
        <ele>492.491</ele>
        <time>2021-05-23T11:32:45Z</time>
      </trkpt>
      <trkpt lat="43.47504" lon="2.3782">
        <ele>492.498</ele>
        <time>2021-05-23T11:32:47Z</time>
      </trkpt>
      <trkpt lat="43.47504" lon="2.3782">
        <ele>492.501</ele>
        <time>2021-05-23T11:32:49Z</time>
      </trkpt>
      <trkpt lat="43.47504" lon="2.3782">
        <ele>492.5</ele>
        <time>2021-05-23T11:32:51Z</time>
      </trkpt>
      <trkpt lat="43.47504" lon="2.3782">
        <ele>492.5</ele>
        <time>2021-05-23T11:32:53Z</time>
      </trkpt>
      <trkpt lat="43.47504" lon="2.3782">
        <ele>492.502</ele>
        <time>2021-05-23T11:32:55Z</time>
      </trkpt>
      <trkpt lat="43.47504" lon="2.3782">
        <ele>492.507</ele>
        <time>2021-05-23T11:32:57Z</time>
      </trkpt>
      <trkpt lat="43.47504" lon="2.3782">
        <ele>492.511</ele>
        <time>2021-05-23T11:32:59Z</time>
      </trkpt>
      <trkpt lat="43.47504" lon="2.3782">
        <ele>492.529</ele>
        <time>2021-05-23T11:33:01Z</time>
      </trkpt>
      <trkpt lat="43.47504" lon="2.37821">
        <ele>492.937</ele>
        <time>2021-05-23T11:33:03Z</time>
      </trkpt>
      <trkpt lat="43.47504" lon="2.37822">
        <ele>493.074</ele>
        <time>2021-05-23T11:33:05Z</time>
      </trkpt>
      <trkpt lat="43.47504" lon="2.37822">
        <ele>493.829</ele>
        <time>2021-05-23T11:33:07Z</time>
      </trkpt>
      <trkpt lat="43.47503" lon="2.37822">
        <ele>494.282</ele>
        <time>2021-05-23T11:33:09Z</time>
      </trkpt>
      <trkpt lat="43.47504" lon="2.37822">
        <ele>493.962</ele>
        <time>2021-05-23T11:33:11Z</time>
      </trkpt>
      <trkpt lat="43.47504" lon="2.37822">
        <ele>493.942</ele>
        <time>2021-05-23T11:33:13Z</time>
      </trkpt>
      <trkpt lat="43.47504" lon="2.37822">
        <ele>493.948</ele>
        <time>2021-05-23T11:33:15Z</time>
      </trkpt>
      <trkpt lat="43.47504" lon="2.37822">
        <ele>493.953</ele>
        <time>2021-05-23T11:33:17Z</time>
      </trkpt>
      <trkpt lat="43.47504" lon="2.37822">
        <ele>493.956</ele>
        <time>2021-05-23T11:33:19Z</time>
      </trkpt>
      <trkpt lat="43.47504" lon="2.37822">
        <ele>493.97</ele>
        <time>2021-05-23T11:33:21Z</time>
      </trkpt>
      <trkpt lat="43.47504" lon="2.37823">
        <ele>493.991</ele>
        <time>2021-05-23T11:33:23Z</time>
      </trkpt>
      <trkpt lat="43.47504" lon="2.37822">
        <ele>493.61</ele>
        <time>2021-05-23T11:33:25Z</time>
      </trkpt>
      <trkpt lat="43.47506" lon="2.3782">
        <ele>492.345</ele>
        <time>2021-05-23T11:33:27Z</time>
      </trkpt>
      <trkpt lat="43.47505" lon="2.3782">
        <ele>492.105</ele>
        <time>2021-05-23T11:33:29Z</time>
      </trkpt>
      <trkpt lat="43.47504" lon="2.37821">
        <ele>491.118</ele>
        <time>2021-05-23T11:33:31Z</time>
      </trkpt>
      <trkpt lat="43.47503" lon="2.3782">
        <ele>488.369</ele>
        <time>2021-05-23T11:33:33Z</time>
      </trkpt>
      <trkpt lat="43.47501" lon="2.37819">
        <ele>490.115</ele>
        <time>2021-05-23T11:33:35Z</time>
      </trkpt>
      <trkpt lat="43.475" lon="2.37816">
        <ele>491.215</ele>
        <time>2021-05-23T11:33:37Z</time>
      </trkpt>
      <trkpt lat="43.475" lon="2.37814">
        <ele>491.407</ele>
        <time>2021-05-23T11:33:39Z</time>
      </trkpt>
      <trkpt lat="43.47501" lon="2.37813">
        <ele>492.561</ele>
        <time>2021-05-23T11:33:41Z</time>
      </trkpt>
      <trkpt lat="43.47503" lon="2.37811">
        <ele>492.128</ele>
        <time>2021-05-23T11:33:43Z</time>
      </trkpt>
      <trkpt lat="43.47503" lon="2.37809">
        <ele>492.184</ele>
        <time>2021-05-23T11:33:45Z</time>
      </trkpt>
      <trkpt lat="43.47504" lon="2.37807">
        <ele>492.788</ele>
        <time>2021-05-23T11:33:47Z</time>
      </trkpt>
      <trkpt lat="43.47505" lon="2.37804">
        <ele>492.459</ele>
        <time>2021-05-23T11:33:49Z</time>
      </trkpt>
      <trkpt lat="43.47505" lon="2.37801">
        <ele>492.905</ele>
        <time>2021-05-23T11:33:51Z</time>
      </trkpt>
      <trkpt lat="43.47505" lon="2.37799">
        <ele>493.921</ele>
        <time>2021-05-23T11:33:53Z</time>
      </trkpt>
      <trkpt lat="43.47505" lon="2.37797">
        <ele>493.91</ele>
        <time>2021-05-23T11:33:55Z</time>
      </trkpt>
      <trkpt lat="43.47505" lon="2.37795">
        <ele>495.093</ele>
        <time>2021-05-23T11:33:57Z</time>
      </trkpt>
      <trkpt lat="43.47504" lon="2.37793">
        <ele>494.372</ele>
        <time>2021-05-23T11:33:59Z</time>
      </trkpt>
      <trkpt lat="43.47503" lon="2.37792">
        <ele>493.998</ele>
        <time>2021-05-23T11:34:01Z</time>
      </trkpt>
      <trkpt lat="43.47503" lon="2.3779">
        <ele>494.931</ele>
        <time>2021-05-23T11:34:03Z</time>
      </trkpt>
      <trkpt lat="43.47503" lon="2.37788">
        <ele>495.484</ele>
        <time>2021-05-23T11:34:05Z</time>
      </trkpt>
      <trkpt lat="43.47503" lon="2.37786">
        <ele>495.844</ele>
        <time>2021-05-23T11:34:07Z</time>
      </trkpt>
      <trkpt lat="43.47503" lon="2.37784">
        <ele>496.211</ele>
        <time>2021-05-23T11:34:09Z</time>
      </trkpt>
      <trkpt lat="43.47504" lon="2.37781">
        <ele>496.278</ele>
        <time>2021-05-23T11:34:11Z</time>
      </trkpt>
      <trkpt lat="43.47504" lon="2.37779">
        <ele>497.116</ele>
        <time>2021-05-23T11:34:13Z</time>
      </trkpt>
      <trkpt lat="43.47505" lon="2.37777">
        <ele>497.935</ele>
        <time>2021-05-23T11:34:15Z</time>
      </trkpt>
      <trkpt lat="43.47505" lon="2.37775">
        <ele>497.589</ele>
        <time>2021-05-23T11:34:17Z</time>
      </trkpt>
      <trkpt lat="43.47506" lon="2.37772">
        <ele>497.345</ele>
        <time>2021-05-23T11:34:19Z</time>
      </trkpt>
      <trkpt lat="43.47507" lon="2.3777">
        <ele>496.576</ele>
        <time>2021-05-23T11:34:21Z</time>
      </trkpt>
      <trkpt lat="43.47507" lon="2.37768">
        <ele>496.913</ele>
        <time>2021-05-23T11:34:23Z</time>
      </trkpt>
      <trkpt lat="43.47507" lon="2.37766">
        <ele>496.946</ele>
        <time>2021-05-23T11:34:25Z</time>
      </trkpt>
      <trkpt lat="43.47508" lon="2.37765">
        <ele>496.893</ele>
        <time>2021-05-23T11:34:27Z</time>
      </trkpt>
      <trkpt lat="43.47509" lon="2.37764">
        <ele>497.341</ele>
        <time>2021-05-23T11:34:29Z</time>
      </trkpt>
      <trkpt lat="43.4751" lon="2.37763">
        <ele>496.862</ele>
        <time>2021-05-23T11:34:31Z</time>
      </trkpt>
      <trkpt lat="43.4751" lon="2.37763">
        <ele>496.867</ele>
        <time>2021-05-23T11:34:33Z</time>
      </trkpt>
      <trkpt lat="43.4751" lon="2.37763">
        <ele>496.865</ele>
        <time>2021-05-23T11:34:35Z</time>
      </trkpt>
      <trkpt lat="43.4751" lon="2.37763">
        <ele>496.868</ele>
        <time>2021-05-23T11:34:37Z</time>
      </trkpt>
      <trkpt lat="43.4751" lon="2.37763">
        <ele>496.872</ele>
        <time>2021-05-23T11:34:39Z</time>
      </trkpt>
      <trkpt lat="43.4751" lon="2.37763">
        <ele>496.878</ele>
        <time>2021-05-23T11:34:41Z</time>
      </trkpt>
      <trkpt lat="43.4751" lon="2.37763">
        <ele>496.884</ele>
        <time>2021-05-23T11:34:43Z</time>
      </trkpt>
      <trkpt lat="43.4751" lon="2.37763">
        <ele>496.718</ele>
        <time>2021-05-23T11:34:45Z</time>
      </trkpt>
      <trkpt lat="43.47511" lon="2.37762">
        <ele>496.811</ele>
        <time>2021-05-23T11:34:47Z</time>
      </trkpt>
      <trkpt lat="43.4751" lon="2.37763">
        <ele>497.152</ele>
        <time>2021-05-23T11:34:49Z</time>
      </trkpt>
      <trkpt lat="43.47513" lon="2.37762">
        <ele>497.324</ele>
        <time>2021-05-23T11:34:51Z</time>
      </trkpt>
      <trkpt lat="43.47514" lon="2.37762">
        <ele>497.325</ele>
        <time>2021-05-23T11:34:53Z</time>
      </trkpt>
      <trkpt lat="43.47514" lon="2.37762">
        <ele>497.327</ele>
        <time>2021-05-23T11:34:55Z</time>
      </trkpt>
      <trkpt lat="43.47514" lon="2.37762">
        <ele>497.324</ele>
        <time>2021-05-23T11:34:57Z</time>
      </trkpt>
      <trkpt lat="43.47514" lon="2.37762">
        <ele>497.317</ele>
        <time>2021-05-23T11:34:59Z</time>
      </trkpt>
      <trkpt lat="43.47514" lon="2.37762">
        <ele>496.695</ele>
        <time>2021-05-23T11:35:01Z</time>
      </trkpt>
      <trkpt lat="43.47514" lon="2.37763">
        <ele>496.542</ele>
        <time>2021-05-23T11:35:03Z</time>
      </trkpt>
      <trkpt lat="43.47515" lon="2.37763">
        <ele>496.774</ele>
        <time>2021-05-23T11:35:05Z</time>
      </trkpt>
      <trkpt lat="43.47516" lon="2.37764">
        <ele>495.501</ele>
        <time>2021-05-23T11:35:07Z</time>
      </trkpt>
      <trkpt lat="43.47517" lon="2.37765">
        <ele>495.957</ele>
        <time>2021-05-23T11:35:09Z</time>
      </trkpt>
      <trkpt lat="43.47519" lon="2.37766">
        <ele>496.928</ele>
        <time>2021-05-23T11:35:11Z</time>
      </trkpt>
      <trkpt lat="43.4752" lon="2.37767">
        <ele>497.184</ele>
        <time>2021-05-23T11:35:13Z</time>
      </trkpt>
      <trkpt lat="43.47521" lon="2.37767">
        <ele>498.491</ele>
        <time>2021-05-23T11:35:15Z</time>
      </trkpt>
      <trkpt lat="43.47523" lon="2.37767">
        <ele>498.196</ele>
        <time>2021-05-23T11:35:17Z</time>
      </trkpt>
      <trkpt lat="43.47523" lon="2.37768">
        <ele>497.849</ele>
        <time>2021-05-23T11:35:19Z</time>
      </trkpt>
      <trkpt lat="43.47524" lon="2.37769">
        <ele>496.851</ele>
        <time>2021-05-23T11:35:21Z</time>
      </trkpt>
      <trkpt lat="43.47524" lon="2.37771">
        <ele>495.809</ele>
        <time>2021-05-23T11:35:23Z</time>
      </trkpt>
      <trkpt lat="43.47524" lon="2.37771">
        <ele>497.463</ele>
        <time>2021-05-23T11:35:25Z</time>
      </trkpt>
      <trkpt lat="43.47524" lon="2.37771">
        <ele>497.173</ele>
        <time>2021-05-23T11:35:27Z</time>
      </trkpt>
      <trkpt lat="43.47522" lon="2.37771">
        <ele>497.328</ele>
        <time>2021-05-23T11:35:29Z</time>
      </trkpt>
      <trkpt lat="43.4752" lon="2.37772">
        <ele>499.087</ele>
        <time>2021-05-23T11:35:31Z</time>
      </trkpt>
      <trkpt lat="43.4752" lon="2.37773">
        <ele>498.773</ele>
        <time>2021-05-23T11:35:33Z</time>
      </trkpt>
      <trkpt lat="43.4752" lon="2.37771">
        <ele>498.049</ele>
        <time>2021-05-23T11:35:35Z</time>
      </trkpt>
      <trkpt lat="43.47521" lon="2.3777">
        <ele>498.604</ele>
        <time>2021-05-23T11:35:37Z</time>
      </trkpt>
      <trkpt lat="43.47523" lon="2.3777">
        <ele>498.015</ele>
        <time>2021-05-23T11:35:39Z</time>
      </trkpt>
      <trkpt lat="43.47523" lon="2.37773">
        <ele>499.311</ele>
        <time>2021-05-23T11:35:41Z</time>
      </trkpt>
      <trkpt lat="43.47523" lon="2.37773">
        <ele>499.093</ele>
        <time>2021-05-23T11:35:43Z</time>
      </trkpt>
      <trkpt lat="43.47523" lon="2.37774">
        <ele>499.924</ele>
        <time>2021-05-23T11:35:45Z</time>
      </trkpt>
      <trkpt lat="43.47523" lon="2.37774">
        <ele>499.924</ele>
        <time>2021-05-23T11:35:47Z</time>
      </trkpt>
      <trkpt lat="43.47523" lon="2.37775">
        <ele>500.782</ele>
        <time>2021-05-23T11:35:49Z</time>
      </trkpt>
      <trkpt lat="43.47522" lon="2.37776">
        <ele>501.138</ele>
        <time>2021-05-23T11:35:51Z</time>
      </trkpt>
      <trkpt lat="43.47521" lon="2.37779">
        <ele>502.906</ele>
        <time>2021-05-23T11:35:53Z</time>
      </trkpt>
      <trkpt lat="43.47522" lon="2.37781">
        <ele>503.595</ele>
        <time>2021-05-23T11:35:55Z</time>
      </trkpt>
      <trkpt lat="43.47522" lon="2.37783">
        <ele>502.96</ele>
        <time>2021-05-23T11:35:57Z</time>
      </trkpt>
      <trkpt lat="43.47523" lon="2.37785">
        <ele>503.228</ele>
        <time>2021-05-23T11:35:59Z</time>
      </trkpt>
      <trkpt lat="43.47523" lon="2.37786">
        <ele>503.157</ele>
        <time>2021-05-23T11:36:01Z</time>
      </trkpt>
      <trkpt lat="43.47524" lon="2.37788">
        <ele>502.202</ele>
        <time>2021-05-23T11:36:03Z</time>
      </trkpt>
      <trkpt lat="43.47523" lon="2.3779">
        <ele>502.765</ele>
        <time>2021-05-23T11:36:05Z</time>
      </trkpt>
      <trkpt lat="43.47523" lon="2.37791">
        <ele>503.673</ele>
        <time>2021-05-23T11:36:07Z</time>
      </trkpt>
      <trkpt lat="43.47523" lon="2.37791">
        <ele>503.529</ele>
        <time>2021-05-23T11:36:09Z</time>
      </trkpt>
      <trkpt lat="43.47523" lon="2.3779">
        <ele>503.298</ele>
        <time>2021-05-23T11:36:11Z</time>
      </trkpt>
      <trkpt lat="43.47523" lon="2.37791">
        <ele>503.049</ele>
        <time>2021-05-23T11:36:13Z</time>
      </trkpt>
      <trkpt lat="43.47524" lon="2.37793">
        <ele>503.339</ele>
        <time>2021-05-23T11:36:15Z</time>
      </trkpt>
      <trkpt lat="43.47525" lon="2.37794">
        <ele>502.527</ele>
        <time>2021-05-23T11:36:17Z</time>
      </trkpt>
      <trkpt lat="43.47526" lon="2.37797">
        <ele>502.007</ele>
        <time>2021-05-23T11:36:19Z</time>
      </trkpt>
      <trkpt lat="43.47527" lon="2.37798">
        <ele>502.097</ele>
        <time>2021-05-23T11:36:21Z</time>
      </trkpt>
      <trkpt lat="43.47529" lon="2.37798">
        <ele>502.972</ele>
        <time>2021-05-23T11:36:23Z</time>
      </trkpt>
      <trkpt lat="43.47529" lon="2.37797">
        <ele>502.538</ele>
        <time>2021-05-23T11:36:25Z</time>
      </trkpt>
      <trkpt lat="43.47529" lon="2.37797">
        <ele>503.576</ele>
        <time>2021-05-23T11:36:27Z</time>
      </trkpt>
      <trkpt lat="43.4753" lon="2.37797">
        <ele>503.656</ele>
        <time>2021-05-23T11:36:29Z</time>
      </trkpt>
      <trkpt lat="43.4753" lon="2.37797">
        <ele>503.445</ele>
        <time>2021-05-23T11:36:31Z</time>
      </trkpt>
      <trkpt lat="43.4753" lon="2.37796">
        <ele>504.586</ele>
        <time>2021-05-23T11:36:33Z</time>
      </trkpt>
      <trkpt lat="43.47531" lon="2.37795">
        <ele>504.242</ele>
        <time>2021-05-23T11:36:35Z</time>
      </trkpt>
      <trkpt lat="43.47532" lon="2.37794">
        <ele>505.186</ele>
        <time>2021-05-23T11:36:37Z</time>
      </trkpt>
      <trkpt lat="43.47534" lon="2.37794">
        <ele>505.716</ele>
        <time>2021-05-23T11:36:39Z</time>
      </trkpt>
      <trkpt lat="43.47534" lon="2.37794">
        <ele>506.244</ele>
        <time>2021-05-23T11:36:41Z</time>
      </trkpt>
      <trkpt lat="43.47536" lon="2.37794">
        <ele>506.114</ele>
        <time>2021-05-23T11:36:43Z</time>
      </trkpt>
      <trkpt lat="43.47537" lon="2.37793">
        <ele>505.548</ele>
        <time>2021-05-23T11:36:45Z</time>
      </trkpt>
      <trkpt lat="43.47538" lon="2.37794">
        <ele>507.843</ele>
        <time>2021-05-23T11:36:47Z</time>
      </trkpt>
      <trkpt lat="43.47539" lon="2.37795">
        <ele>509.777</ele>
        <time>2021-05-23T11:36:49Z</time>
      </trkpt>
      <trkpt lat="43.4754" lon="2.37796">
        <ele>510.12</ele>
        <time>2021-05-23T11:36:51Z</time>
      </trkpt>
      <trkpt lat="43.4754" lon="2.37796">
        <ele>510.003</ele>
        <time>2021-05-23T11:36:53Z</time>
      </trkpt>
      <trkpt lat="43.4754" lon="2.37798">
        <ele>510.698</ele>
        <time>2021-05-23T11:36:55Z</time>
      </trkpt>
      <trkpt lat="43.47541" lon="2.37798">
        <ele>511.806</ele>
        <time>2021-05-23T11:36:57Z</time>
      </trkpt>
      <trkpt lat="43.47542" lon="2.37798">
        <ele>512.183</ele>
        <time>2021-05-23T11:36:59Z</time>
      </trkpt>
      <trkpt lat="43.47542" lon="2.37798">
        <ele>512.182</ele>
        <time>2021-05-23T11:37:01Z</time>
      </trkpt>
      <trkpt lat="43.47542" lon="2.37798">
        <ele>512.183</ele>
        <time>2021-05-23T11:37:03Z</time>
      </trkpt>
      <trkpt lat="43.47542" lon="2.37798">
        <ele>512.192</ele>
        <time>2021-05-23T11:37:05Z</time>
      </trkpt>
      <trkpt lat="43.47542" lon="2.37798">
        <ele>512.253</ele>
        <time>2021-05-23T11:37:07Z</time>
      </trkpt>
      <trkpt lat="43.47542" lon="2.37798">
        <ele>511.985</ele>
        <time>2021-05-23T11:37:09Z</time>
      </trkpt>
      <trkpt lat="43.47542" lon="2.37798">
        <ele>512.037</ele>
        <time>2021-05-23T11:37:11Z</time>
      </trkpt>
      <trkpt lat="43.47542" lon="2.37798">
        <ele>512.239</ele>
        <time>2021-05-23T11:37:13Z</time>
      </trkpt>
      <trkpt lat="43.47542" lon="2.37797">
        <ele>511.601</ele>
        <time>2021-05-23T11:37:15Z</time>
      </trkpt>
      <trkpt lat="43.47542" lon="2.37797">
        <ele>511.907</ele>
        <time>2021-05-23T11:37:17Z</time>
      </trkpt>
      <trkpt lat="43.47542" lon="2.37796">
        <ele>512.476</ele>
        <time>2021-05-23T11:37:19Z</time>
      </trkpt>
      <trkpt lat="43.47542" lon="2.37795">
        <ele>512.967</ele>
        <time>2021-05-23T11:37:21Z</time>
      </trkpt>
      <trkpt lat="43.47542" lon="2.37795">
        <ele>512.977</ele>
        <time>2021-05-23T11:37:23Z</time>
      </trkpt>
      <trkpt lat="43.47542" lon="2.37795">
        <ele>512.983</ele>
        <time>2021-05-23T11:37:25Z</time>
      </trkpt>
      <trkpt lat="43.47542" lon="2.37795">
        <ele>512.993</ele>
        <time>2021-05-23T11:37:27Z</time>
      </trkpt>
      <trkpt lat="43.47542" lon="2.37795">
        <ele>512.999</ele>
        <time>2021-05-23T11:37:29Z</time>
      </trkpt>
      <trkpt lat="43.47542" lon="2.37795">
        <ele>512.383</ele>
        <time>2021-05-23T11:37:31Z</time>
      </trkpt>
      <trkpt lat="43.47541" lon="2.37793">
        <ele>512.524</ele>
        <time>2021-05-23T11:37:33Z</time>
      </trkpt>
      <trkpt lat="43.47541" lon="2.37792">
        <ele>513.147</ele>
        <time>2021-05-23T11:37:35Z</time>
      </trkpt>
      <trkpt lat="43.47541" lon="2.37792">
        <ele>513.905</ele>
        <time>2021-05-23T11:37:37Z</time>
      </trkpt>
      <trkpt lat="43.47541" lon="2.37792">
        <ele>514.761</ele>
        <time>2021-05-23T11:37:39Z</time>
      </trkpt>
      <trkpt lat="43.47541" lon="2.37792">
        <ele>514.31</ele>
        <time>2021-05-23T11:37:41Z</time>
      </trkpt>
      <trkpt lat="43.47541" lon="2.3779">
        <ele>514.426</ele>
        <time>2021-05-23T11:37:43Z</time>
      </trkpt>
      <trkpt lat="43.47541" lon="2.37789">
        <ele>514.375</ele>
        <time>2021-05-23T11:37:45Z</time>
      </trkpt>
      <trkpt lat="43.4754" lon="2.37789">
        <ele>514.031</ele>
        <time>2021-05-23T11:37:47Z</time>
      </trkpt>
      <trkpt lat="43.4754" lon="2.37788">
        <ele>514.596</ele>
        <time>2021-05-23T11:37:49Z</time>
      </trkpt>
      <trkpt lat="43.47539" lon="2.37788">
        <ele>514.613</ele>
        <time>2021-05-23T11:37:51Z</time>
      </trkpt>
      <trkpt lat="43.47539" lon="2.37788">
        <ele>514.611</ele>
        <time>2021-05-23T11:37:53Z</time>
      </trkpt>
      <trkpt lat="43.47538" lon="2.37787">
        <ele>514.762</ele>
        <time>2021-05-23T11:37:55Z</time>
      </trkpt>
      <trkpt lat="43.47537" lon="2.37788">
        <ele>514.263</ele>
        <time>2021-05-23T11:37:57Z</time>
      </trkpt>
      <trkpt lat="43.47536" lon="2.37789">
        <ele>514.275</ele>
        <time>2021-05-23T11:37:59Z</time>
      </trkpt>
      <trkpt lat="43.47534" lon="2.3779">
        <ele>514.672</ele>
        <time>2021-05-23T11:38:01Z</time>
      </trkpt>
      <trkpt lat="43.47533" lon="2.37789">
        <ele>515.364</ele>
        <time>2021-05-23T11:38:03Z</time>
      </trkpt>
      <trkpt lat="43.47533" lon="2.37789">
        <ele>515.368</ele>
        <time>2021-05-23T11:38:05Z</time>
      </trkpt>
      <trkpt lat="43.47533" lon="2.37789">
        <ele>515.359</ele>
        <time>2021-05-23T11:38:07Z</time>
      </trkpt>
      <trkpt lat="43.47533" lon="2.37789">
        <ele>515.352</ele>
        <time>2021-05-23T11:38:09Z</time>
      </trkpt>
      <trkpt lat="43.47533" lon="2.37789">
        <ele>515.467</ele>
        <time>2021-05-23T11:38:11Z</time>
      </trkpt>
      <trkpt lat="43.47533" lon="2.37789">
        <ele>515.603</ele>
        <time>2021-05-23T11:38:13Z</time>
      </trkpt>
      <trkpt lat="43.47533" lon="2.37789">
        <ele>515.581</ele>
        <time>2021-05-23T11:38:15Z</time>
      </trkpt>
      <trkpt lat="43.47533" lon="2.37789">
        <ele>514.854</ele>
        <time>2021-05-23T11:38:17Z</time>
      </trkpt>
      <trkpt lat="43.47533" lon="2.37789">
        <ele>514.628</ele>
        <time>2021-05-23T11:38:19Z</time>
      </trkpt>
      <trkpt lat="43.47533" lon="2.37789">
        <ele>514.625</ele>
        <time>2021-05-23T11:38:22Z</time>
      </trkpt>
      <trkpt lat="43.47533" lon="2.37789">
        <ele>514.624</ele>
        <time>2021-05-23T11:38:24Z</time>
      </trkpt>
      <trkpt lat="43.47533" lon="2.37789">
        <ele>514.624</ele>
        <time>2021-05-23T11:38:27Z</time>
      </trkpt>
      <trkpt lat="43.47534" lon="2.37788">
        <ele>514.678</ele>
        <time>2021-05-23T11:38:29Z</time>
      </trkpt>
      <trkpt lat="43.47534" lon="2.37788">
        <ele>513.723</ele>
        <time>2021-05-23T11:38:31Z</time>
      </trkpt>
      <trkpt lat="43.47535" lon="2.37788">
        <ele>513.39</ele>
        <time>2021-05-23T11:38:33Z</time>
      </trkpt>
      <trkpt lat="43.47536" lon="2.37787">
        <ele>513.498</ele>
        <time>2021-05-23T11:38:35Z</time>
      </trkpt>
      <trkpt lat="43.47537" lon="2.37786">
        <ele>513.855</ele>
        <time>2021-05-23T11:38:37Z</time>
      </trkpt>
      <trkpt lat="43.47537" lon="2.37786">
        <ele>513.232</ele>
        <time>2021-05-23T11:38:39Z</time>
      </trkpt>
      <trkpt lat="43.47538" lon="2.37785">
        <ele>513.415</ele>
        <time>2021-05-23T11:38:41Z</time>
      </trkpt>
      <trkpt lat="43.47539" lon="2.37784">
        <ele>514.2</ele>
        <time>2021-05-23T11:38:43Z</time>
      </trkpt>
      <trkpt lat="43.47539" lon="2.37784">
        <ele>514.458</ele>
        <time>2021-05-23T11:38:45Z</time>
      </trkpt>
      <trkpt lat="43.47539" lon="2.37784">
        <ele>514.471</ele>
        <time>2021-05-23T11:38:47Z</time>
      </trkpt>
      <trkpt lat="43.47539" lon="2.37784">
        <ele>514.478</ele>
        <time>2021-05-23T11:38:49Z</time>
      </trkpt>
      <trkpt lat="43.47539" lon="2.37784">
        <ele>514.48</ele>
        <time>2021-05-23T11:38:51Z</time>
      </trkpt>
      <trkpt lat="43.47539" lon="2.37784">
        <ele>514.483</ele>
        <time>2021-05-23T11:38:53Z</time>
      </trkpt>
      <trkpt lat="43.47539" lon="2.37784">
        <ele>514.483</ele>
        <time>2021-05-23T11:38:55Z</time>
      </trkpt>
      <trkpt lat="43.47539" lon="2.37784">
        <ele>514.488</ele>
        <time>2021-05-23T11:38:57Z</time>
      </trkpt>
      <trkpt lat="43.47539" lon="2.37784">
        <ele>514.486</ele>
        <time>2021-05-23T11:38:59Z</time>
      </trkpt>
      <trkpt lat="43.47539" lon="2.37784">
        <ele>514.484</ele>
        <time>2021-05-23T11:39:01Z</time>
      </trkpt>
      <trkpt lat="43.47539" lon="2.37784">
        <ele>514.489</ele>
        <time>2021-05-23T11:39:03Z</time>
      </trkpt>
      <trkpt lat="43.47539" lon="2.37784">
        <ele>514.496</ele>
        <time>2021-05-23T11:39:05Z</time>
      </trkpt>
      <trkpt lat="43.47539" lon="2.37784">
        <ele>514.451</ele>
        <time>2021-05-23T11:39:07Z</time>
      </trkpt>
      <trkpt lat="43.47538" lon="2.37785">
        <ele>514.86</ele>
        <time>2021-05-23T11:39:09Z</time>
      </trkpt>
      <trkpt lat="43.47538" lon="2.37785">
        <ele>514.875</ele>
        <time>2021-05-23T11:39:11Z</time>
      </trkpt>
      <trkpt lat="43.47538" lon="2.37785">
        <ele>515.44</ele>
        <time>2021-05-23T11:39:13Z</time>
      </trkpt>
      <trkpt lat="43.47538" lon="2.37785">
        <ele>515.623</ele>
        <time>2021-05-23T11:39:15Z</time>
      </trkpt>
      <trkpt lat="43.47538" lon="2.37784">
        <ele>515.586</ele>
        <time>2021-05-23T11:39:17Z</time>
      </trkpt>
      <trkpt lat="43.47538" lon="2.37784">
        <ele>515.599</ele>
        <time>2021-05-23T11:39:19Z</time>
      </trkpt>
      <trkpt lat="43.47538" lon="2.37784">
        <ele>515.605</ele>
        <time>2021-05-23T11:39:21Z</time>
      </trkpt>
      <trkpt lat="43.47538" lon="2.37784">
        <ele>515.612</ele>
        <time>2021-05-23T11:39:23Z</time>
      </trkpt>
      <trkpt lat="43.47538" lon="2.37784">
        <ele>515.625</ele>
        <time>2021-05-23T11:39:25Z</time>
      </trkpt>
      <trkpt lat="43.47538" lon="2.37784">
        <ele>515.628</ele>
        <time>2021-05-23T11:39:27Z</time>
      </trkpt>
      <trkpt lat="43.47538" lon="2.37784">
        <ele>515.579</ele>
        <time>2021-05-23T11:39:29Z</time>
      </trkpt>
      <trkpt lat="43.47538" lon="2.37785">
        <ele>515.002</ele>
        <time>2021-05-23T11:39:31Z</time>
      </trkpt>
      <trkpt lat="43.47538" lon="2.37787">
        <ele>514.088</ele>
        <time>2021-05-23T11:39:33Z</time>
      </trkpt>
      <trkpt lat="43.47538" lon="2.37788">
        <ele>514.421</ele>
        <time>2021-05-23T11:39:35Z</time>
      </trkpt>
      <trkpt lat="43.47538" lon="2.37789">
        <ele>514.948</ele>
        <time>2021-05-23T11:39:37Z</time>
      </trkpt>
      <trkpt lat="43.47538" lon="2.37789">
        <ele>514.947</ele>
        <time>2021-05-23T11:39:39Z</time>
      </trkpt>
      <trkpt lat="43.47538" lon="2.37789">
        <ele>514.953</ele>
        <time>2021-05-23T11:39:41Z</time>
      </trkpt>
      <trkpt lat="43.47538" lon="2.37789">
        <ele>514.951</ele>
        <time>2021-05-23T11:39:43Z</time>
      </trkpt>
      <trkpt lat="43.47538" lon="2.37789">
        <ele>514.954</ele>
        <time>2021-05-23T11:39:45Z</time>
      </trkpt>
      <trkpt lat="43.47538" lon="2.37789">
        <ele>514.955</ele>
        <time>2021-05-23T11:39:47Z</time>
      </trkpt>
      <trkpt lat="43.47538" lon="2.37789">
        <ele>514.954</ele>
        <time>2021-05-23T11:39:49Z</time>
      </trkpt>
      <trkpt lat="43.47538" lon="2.37789">
        <ele>514.958</ele>
        <time>2021-05-23T11:39:51Z</time>
      </trkpt>
      <trkpt lat="43.47538" lon="2.37789">
        <ele>514.961</ele>
        <time>2021-05-23T11:39:53Z</time>
      </trkpt>
      <trkpt lat="43.47538" lon="2.37789">
        <ele>514.963</ele>
        <time>2021-05-23T11:39:55Z</time>
      </trkpt>
      <trkpt lat="43.47539" lon="2.37789">
        <ele>515.458</ele>
        <time>2021-05-23T11:39:57Z</time>
      </trkpt>
      <trkpt lat="43.47539" lon="2.37789">
        <ele>515.635</ele>
        <time>2021-05-23T11:39:59Z</time>
      </trkpt>
      <trkpt lat="43.47539" lon="2.37789">
        <ele>515.633</ele>
        <time>2021-05-23T11:40:01Z</time>
      </trkpt>
      <trkpt lat="43.47539" lon="2.37789">
        <ele>515.637</ele>
        <time>2021-05-23T11:40:03Z</time>
      </trkpt>
      <trkpt lat="43.47539" lon="2.37789">
        <ele>515.643</ele>
        <time>2021-05-23T11:40:05Z</time>
      </trkpt>
      <trkpt lat="43.47539" lon="2.37789">
        <ele>515.641</ele>
        <time>2021-05-23T11:40:07Z</time>
      </trkpt>
      <trkpt lat="43.47539" lon="2.37789">
        <ele>515.641</ele>
        <time>2021-05-23T11:40:09Z</time>
      </trkpt>
      <trkpt lat="43.47539" lon="2.37789">
        <ele>515.644</ele>
        <time>2021-05-23T11:40:11Z</time>
      </trkpt>
      <trkpt lat="43.47539" lon="2.37789">
        <ele>515.646</ele>
        <time>2021-05-23T11:40:13Z</time>
      </trkpt>
      <trkpt lat="43.47539" lon="2.37789">
        <ele>515.651</ele>
        <time>2021-05-23T11:40:15Z</time>
      </trkpt>
      <trkpt lat="43.47539" lon="2.37789">
        <ele>515.648</ele>
        <time>2021-05-23T11:40:17Z</time>
      </trkpt>
      <trkpt lat="43.47539" lon="2.37789">
        <ele>515.645</ele>
        <time>2021-05-23T11:40:19Z</time>
      </trkpt>
      <trkpt lat="43.47539" lon="2.37789">
        <ele>515.638</ele>
        <time>2021-05-23T11:40:21Z</time>
      </trkpt>
      <trkpt lat="43.47539" lon="2.37789">
        <ele>515.636</ele>
        <time>2021-05-23T11:40:23Z</time>
      </trkpt>
      <trkpt lat="43.47539" lon="2.37789">
        <ele>515.643</ele>
        <time>2021-05-23T11:40:25Z</time>
      </trkpt>
      <trkpt lat="43.47539" lon="2.37789">
        <ele>515.648</ele>
        <time>2021-05-23T11:40:27Z</time>
      </trkpt>
      <trkpt lat="43.47539" lon="2.37789">
        <ele>515.652</ele>
        <time>2021-05-23T11:40:29Z</time>
      </trkpt>
      <trkpt lat="43.47539" lon="2.37789">
        <ele>515.659</ele>
        <time>2021-05-23T11:40:31Z</time>
      </trkpt>
      <trkpt lat="43.47539" lon="2.37789">
        <ele>515.654</ele>
        <time>2021-05-23T11:40:33Z</time>
      </trkpt>
      <trkpt lat="43.47539" lon="2.37789">
        <ele>515.657</ele>
        <time>2021-05-23T11:40:35Z</time>
      </trkpt>
      <trkpt lat="43.47539" lon="2.3779">
        <ele>515.575</ele>
        <time>2021-05-23T11:40:37Z</time>
      </trkpt>
      <trkpt lat="43.47539" lon="2.3779">
        <ele>515.136</ele>
        <time>2021-05-23T11:40:39Z</time>
      </trkpt>
      <trkpt lat="43.47539" lon="2.3779">
        <ele>515.326</ele>
        <time>2021-05-23T11:40:41Z</time>
      </trkpt>
      <trkpt lat="43.47539" lon="2.37791">
        <ele>515.079</ele>
        <time>2021-05-23T11:40:43Z</time>
      </trkpt>
      <trkpt lat="43.47539" lon="2.37792">
        <ele>515.242</ele>
        <time>2021-05-23T11:40:45Z</time>
      </trkpt>
      <trkpt lat="43.47539" lon="2.37793">
        <ele>515.16</ele>
        <time>2021-05-23T11:40:47Z</time>
      </trkpt>
      <trkpt lat="43.47539" lon="2.37794">
        <ele>514.579</ele>
        <time>2021-05-23T11:40:49Z</time>
      </trkpt>
      <trkpt lat="43.47539" lon="2.37795">
        <ele>513.649</ele>
        <time>2021-05-23T11:40:51Z</time>
      </trkpt>
      <trkpt lat="43.4754" lon="2.37797">
        <ele>513.719</ele>
        <time>2021-05-23T11:40:53Z</time>
      </trkpt>
      <trkpt lat="43.47541" lon="2.37797">
        <ele>514.125</ele>
        <time>2021-05-23T11:40:55Z</time>
      </trkpt>
      <trkpt lat="43.47541" lon="2.37797">
        <ele>514.527</ele>
        <time>2021-05-23T11:40:57Z</time>
      </trkpt>
      <trkpt lat="43.47541" lon="2.37797">
        <ele>514.481</ele>
        <time>2021-05-23T11:40:59Z</time>
      </trkpt>
      <trkpt lat="43.47541" lon="2.37797">
        <ele>514.485</ele>
        <time>2021-05-23T11:41:01Z</time>
      </trkpt>
      <trkpt lat="43.47541" lon="2.37797">
        <ele>514.486</ele>
        <time>2021-05-23T11:41:03Z</time>
      </trkpt>
      <trkpt lat="43.47541" lon="2.37797">
        <ele>514.484</ele>
        <time>2021-05-23T11:41:05Z</time>
      </trkpt>
      <trkpt lat="43.47541" lon="2.37797">
        <ele>514.484</ele>
        <time>2021-05-23T11:41:07Z</time>
      </trkpt>
      <trkpt lat="43.47541" lon="2.37797">
        <ele>514.485</ele>
        <time>2021-05-23T11:41:09Z</time>
      </trkpt>
      <trkpt lat="43.47541" lon="2.37797">
        <ele>514.491</ele>
        <time>2021-05-23T11:41:11Z</time>
      </trkpt>
      <trkpt lat="43.47541" lon="2.37797">
        <ele>514.491</ele>
        <time>2021-05-23T11:41:13Z</time>
      </trkpt>
      <trkpt lat="43.47541" lon="2.37797">
        <ele>514.488</ele>
        <time>2021-05-23T11:41:15Z</time>
      </trkpt>
      <trkpt lat="43.47541" lon="2.37797">
        <ele>514.486</ele>
        <time>2021-05-23T11:41:17Z</time>
      </trkpt>
      <trkpt lat="43.47541" lon="2.37797">
        <ele>514.489</ele>
        <time>2021-05-23T11:41:19Z</time>
      </trkpt>
      <trkpt lat="43.47541" lon="2.37797">
        <ele>514.489</ele>
        <time>2021-05-23T11:41:21Z</time>
      </trkpt>
      <trkpt lat="43.47541" lon="2.37797">
        <ele>514.486</ele>
        <time>2021-05-23T11:41:23Z</time>
      </trkpt>
      <trkpt lat="43.47541" lon="2.37797">
        <ele>514.488</ele>
        <time>2021-05-23T11:41:25Z</time>
      </trkpt>
      <trkpt lat="43.47541" lon="2.37797">
        <ele>514.488</ele>
        <time>2021-05-23T11:41:27Z</time>
      </trkpt>
      <trkpt lat="43.47541" lon="2.37797">
        <ele>514.484</ele>
        <time>2021-05-23T11:41:29Z</time>
      </trkpt>
      <trkpt lat="43.47541" lon="2.37797">
        <ele>514.485</ele>
        <time>2021-05-23T11:41:31Z</time>
      </trkpt>
      <trkpt lat="43.47542" lon="2.37796">
        <ele>515.438</ele>
        <time>2021-05-23T11:41:33Z</time>
      </trkpt>
      <trkpt lat="43.47544" lon="2.37794">
        <ele>514.397</ele>
        <time>2021-05-23T11:41:35Z</time>
      </trkpt>
      <trkpt lat="43.47545" lon="2.37793">
        <ele>513.283</ele>
        <time>2021-05-23T11:41:37Z</time>
      </trkpt>
      <trkpt lat="43.47547" lon="2.37792">
        <ele>512.849</ele>
        <time>2021-05-23T11:41:39Z</time>
      </trkpt>
      <trkpt lat="43.47547" lon="2.37792">
        <ele>511.962</ele>
        <time>2021-05-23T11:41:41Z</time>
      </trkpt>
      <trkpt lat="43.47548" lon="2.37792">
        <ele>510.765</ele>
        <time>2021-05-23T11:41:43Z</time>
      </trkpt>
      <trkpt lat="43.47549" lon="2.37793">
        <ele>510.123</ele>
        <time>2021-05-23T11:41:45Z</time>
      </trkpt>
      <trkpt lat="43.47551" lon="2.37794">
        <ele>511.073</ele>
        <time>2021-05-23T11:41:47Z</time>
      </trkpt>
      <trkpt lat="43.47552" lon="2.37795">
        <ele>510.817</ele>
        <time>2021-05-23T11:41:49Z</time>
      </trkpt>
      <trkpt lat="43.47554" lon="2.37796">
        <ele>511.766</ele>
        <time>2021-05-23T11:41:51Z</time>
      </trkpt>
      <trkpt lat="43.47554" lon="2.37796">
        <ele>509.523</ele>
        <time>2021-05-23T11:41:53Z</time>
      </trkpt>
      <trkpt lat="43.47554" lon="2.37797">
        <ele>509.351</ele>
        <time>2021-05-23T11:41:55Z</time>
      </trkpt>
      <trkpt lat="43.47554" lon="2.37797">
        <ele>509.313</ele>
        <time>2021-05-23T11:41:57Z</time>
      </trkpt>
      <trkpt lat="43.47555" lon="2.37797">
        <ele>509.477</ele>
        <time>2021-05-23T11:41:59Z</time>
      </trkpt>
      <trkpt lat="43.47555" lon="2.37796">
        <ele>509.099</ele>
        <time>2021-05-23T11:42:01Z</time>
      </trkpt>
      <trkpt lat="43.47557" lon="2.37795">
        <ele>508.866</ele>
        <time>2021-05-23T11:42:03Z</time>
      </trkpt>
      <trkpt lat="43.47559" lon="2.37794">
        <ele>508.541</ele>
        <time>2021-05-23T11:42:05Z</time>
      </trkpt>
      <trkpt lat="43.4756" lon="2.37793">
        <ele>508.74</ele>
        <time>2021-05-23T11:42:07Z</time>
      </trkpt>
      <trkpt lat="43.47561" lon="2.37791">
        <ele>507.874</ele>
        <time>2021-05-23T11:42:09Z</time>
      </trkpt>
      <trkpt lat="43.47561" lon="2.37789">
        <ele>508.338</ele>
        <time>2021-05-23T11:42:11Z</time>
      </trkpt>
      <trkpt lat="43.47559" lon="2.37789">
        <ele>508.054</ele>
        <time>2021-05-23T11:42:13Z</time>
      </trkpt>
      <trkpt lat="43.47557" lon="2.37787">
        <ele>507.47</ele>
        <time>2021-05-23T11:42:15Z</time>
      </trkpt>
      <trkpt lat="43.47556" lon="2.37786">
        <ele>507.108</ele>
        <time>2021-05-23T11:42:17Z</time>
      </trkpt>
      <trkpt lat="43.47554" lon="2.37785">
        <ele>507.282</ele>
        <time>2021-05-23T11:42:19Z</time>
      </trkpt>
      <trkpt lat="43.47553" lon="2.37785">
        <ele>507.048</ele>
        <time>2021-05-23T11:42:21Z</time>
      </trkpt>
      <trkpt lat="43.47552" lon="2.37784">
        <ele>506.656</ele>
        <time>2021-05-23T11:42:23Z</time>
      </trkpt>
      <trkpt lat="43.47552" lon="2.37782">
        <ele>507.055</ele>
        <time>2021-05-23T11:42:25Z</time>
      </trkpt>
      <trkpt lat="43.47551" lon="2.37779">
        <ele>506.646</ele>
        <time>2021-05-23T11:42:27Z</time>
      </trkpt>
      <trkpt lat="43.47549" lon="2.37778">
        <ele>506.251</ele>
        <time>2021-05-23T11:42:29Z</time>
      </trkpt>
      <trkpt lat="43.47547" lon="2.37777">
        <ele>506.201</ele>
        <time>2021-05-23T11:42:31Z</time>
      </trkpt>
      <trkpt lat="43.47545" lon="2.37776">
        <ele>506.763</ele>
        <time>2021-05-23T11:42:33Z</time>
      </trkpt>
      <trkpt lat="43.47542" lon="2.37775">
        <ele>507.331</ele>
        <time>2021-05-23T11:42:35Z</time>
      </trkpt>
      <trkpt lat="43.4754" lon="2.37774">
        <ele>506.613</ele>
        <time>2021-05-23T11:42:37Z</time>
      </trkpt>
      <trkpt lat="43.47538" lon="2.37773">
        <ele>506.334</ele>
        <time>2021-05-23T11:42:39Z</time>
      </trkpt>
      <trkpt lat="43.47536" lon="2.37772">
        <ele>505.803</ele>
        <time>2021-05-23T11:42:41Z</time>
      </trkpt>
      <trkpt lat="43.47535" lon="2.37771">
        <ele>505.119</ele>
        <time>2021-05-23T11:42:43Z</time>
      </trkpt>
      <trkpt lat="43.47533" lon="2.37771">
        <ele>504.401</ele>
        <time>2021-05-23T11:42:45Z</time>
      </trkpt>
      <trkpt lat="43.47531" lon="2.37771">
        <ele>503.184</ele>
        <time>2021-05-23T11:42:47Z</time>
      </trkpt>
      <trkpt lat="43.47528" lon="2.37769">
        <ele>503.364</ele>
        <time>2021-05-23T11:42:49Z</time>
      </trkpt>
      <trkpt lat="43.47526" lon="2.37767">
        <ele>503.097</ele>
        <time>2021-05-23T11:42:51Z</time>
      </trkpt>
      <trkpt lat="43.47523" lon="2.37767">
        <ele>503.301</ele>
        <time>2021-05-23T11:42:53Z</time>
      </trkpt>
      <trkpt lat="43.47522" lon="2.37766">
        <ele>503.407</ele>
        <time>2021-05-23T11:42:55Z</time>
      </trkpt>
      <trkpt lat="43.4752" lon="2.37765">
        <ele>503.078</ele>
        <time>2021-05-23T11:42:57Z</time>
      </trkpt>
      <trkpt lat="43.4752" lon="2.37765">
        <ele>503.219</ele>
        <time>2021-05-23T11:42:59Z</time>
      </trkpt>
      <trkpt lat="43.47521" lon="2.37766">
        <ele>501.378</ele>
        <time>2021-05-23T11:43:01Z</time>
      </trkpt>
      <trkpt lat="43.4752" lon="2.37764">
        <ele>501.773</ele>
        <time>2021-05-23T11:43:03Z</time>
      </trkpt>
      <trkpt lat="43.47518" lon="2.37765">
        <ele>501.142</ele>
        <time>2021-05-23T11:43:05Z</time>
      </trkpt>
      <trkpt lat="43.47517" lon="2.37766">
        <ele>500.271</ele>
        <time>2021-05-23T11:43:07Z</time>
      </trkpt>
      <trkpt lat="43.47515" lon="2.37767">
        <ele>500.513</ele>
        <time>2021-05-23T11:43:09Z</time>
      </trkpt>
      <trkpt lat="43.47514" lon="2.37766">
        <ele>501.363</ele>
        <time>2021-05-23T11:43:11Z</time>
      </trkpt>
      <trkpt lat="43.47511" lon="2.37766">
        <ele>500.932</ele>
        <time>2021-05-23T11:43:13Z</time>
      </trkpt>
      <trkpt lat="43.47509" lon="2.37766">
        <ele>501.146</ele>
        <time>2021-05-23T11:43:15Z</time>
      </trkpt>
      <trkpt lat="43.47506" lon="2.37765">
        <ele>501.942</ele>
        <time>2021-05-23T11:43:17Z</time>
      </trkpt>
      <trkpt lat="43.47504" lon="2.37764">
        <ele>505.087</ele>
        <time>2021-05-23T11:43:19Z</time>
      </trkpt>
      <trkpt lat="43.47501" lon="2.37763">
        <ele>506.618</ele>
        <time>2021-05-23T11:43:21Z</time>
      </trkpt>
      <trkpt lat="43.47499" lon="2.37763">
        <ele>506.549</ele>
        <time>2021-05-23T11:43:23Z</time>
      </trkpt>
      <trkpt lat="43.47497" lon="2.37764">
        <ele>507.061</ele>
        <time>2021-05-23T11:43:25Z</time>
      </trkpt>
      <trkpt lat="43.47495" lon="2.37766">
        <ele>507.372</ele>
        <time>2021-05-23T11:43:27Z</time>
      </trkpt>
      <trkpt lat="43.47495" lon="2.37767">
        <ele>506.87</ele>
        <time>2021-05-23T11:43:29Z</time>
      </trkpt>
      <trkpt lat="43.47495" lon="2.3777">
        <ele>504.94</ele>
        <time>2021-05-23T11:43:31Z</time>
      </trkpt>
      <trkpt lat="43.47495" lon="2.37772">
        <ele>505.016</ele>
        <time>2021-05-23T11:43:33Z</time>
      </trkpt>
      <trkpt lat="43.47494" lon="2.37773">
        <ele>504.425</ele>
        <time>2021-05-23T11:43:35Z</time>
      </trkpt>
      <trkpt lat="43.47493" lon="2.37773">
        <ele>503.984</ele>
        <time>2021-05-23T11:43:37Z</time>
      </trkpt>
      <trkpt lat="43.47492" lon="2.37774">
        <ele>503.404</ele>
        <time>2021-05-23T11:43:39Z</time>
      </trkpt>
      <trkpt lat="43.47491" lon="2.37774">
        <ele>503.374</ele>
        <time>2021-05-23T11:43:41Z</time>
      </trkpt>
      <trkpt lat="43.47491" lon="2.37774">
        <ele>502.512</ele>
        <time>2021-05-23T11:43:43Z</time>
      </trkpt>
      <trkpt lat="43.4749" lon="2.37773">
        <ele>501.914</ele>
        <time>2021-05-23T11:43:45Z</time>
      </trkpt>
      <trkpt lat="43.4749" lon="2.37773">
        <ele>502.22</ele>
        <time>2021-05-23T11:43:47Z</time>
      </trkpt>
      <trkpt lat="43.4749" lon="2.37773">
        <ele>502.146</ele>
        <time>2021-05-23T11:43:49Z</time>
      </trkpt>
      <trkpt lat="43.4749" lon="2.37773">
        <ele>502.14</ele>
        <time>2021-05-23T11:43:51Z</time>
      </trkpt>
      <trkpt lat="43.4749" lon="2.37773">
        <ele>502.128</ele>
        <time>2021-05-23T11:43:53Z</time>
      </trkpt>
      <trkpt lat="43.4749" lon="2.37773">
        <ele>502.125</ele>
        <time>2021-05-23T11:43:55Z</time>
      </trkpt>
      <trkpt lat="43.4749" lon="2.37772">
        <ele>502.245</ele>
        <time>2021-05-23T11:43:57Z</time>
      </trkpt>
      <trkpt lat="43.47489" lon="2.37771">
        <ele>502.698</ele>
        <time>2021-05-23T11:43:59Z</time>
      </trkpt>
      <trkpt lat="43.47489" lon="2.3777">
        <ele>502.587</ele>
        <time>2021-05-23T11:44:01Z</time>
      </trkpt>
      <trkpt lat="43.47488" lon="2.37769">
        <ele>502.212</ele>
        <time>2021-05-23T11:44:03Z</time>
      </trkpt>
      <trkpt lat="43.47487" lon="2.37768">
        <ele>501.224</ele>
        <time>2021-05-23T11:44:05Z</time>
      </trkpt>
      <trkpt lat="43.47485" lon="2.37767">
        <ele>500.978</ele>
        <time>2021-05-23T11:44:07Z</time>
      </trkpt>
      <trkpt lat="43.47484" lon="2.37766">
        <ele>500.863</ele>
        <time>2021-05-23T11:44:09Z</time>
      </trkpt>
      <trkpt lat="43.47482" lon="2.37764">
        <ele>500.357</ele>
        <time>2021-05-23T11:44:11Z</time>
      </trkpt>
      <trkpt lat="43.47481" lon="2.37762">
        <ele>500.733</ele>
        <time>2021-05-23T11:44:13Z</time>
      </trkpt>
      <trkpt lat="43.47478" lon="2.37757">
        <ele>500.805</ele>
        <time>2021-05-23T11:44:15Z</time>
      </trkpt>
      <trkpt lat="43.47479" lon="2.37754">
        <ele>500.917</ele>
        <time>2021-05-23T11:44:17Z</time>
      </trkpt>
      <trkpt lat="43.47478" lon="2.37753">
        <ele>501.305</ele>
        <time>2021-05-23T11:44:19Z</time>
      </trkpt>
      <trkpt lat="43.47477" lon="2.37752">
        <ele>501.551</ele>
        <time>2021-05-23T11:44:21Z</time>
      </trkpt>
      <trkpt lat="43.47476" lon="2.37751">
        <ele>502.319</ele>
        <time>2021-05-23T11:44:23Z</time>
      </trkpt>
      <trkpt lat="43.47475" lon="2.37751">
        <ele>503.101</ele>
        <time>2021-05-23T11:44:25Z</time>
      </trkpt>
      <trkpt lat="43.47474" lon="2.37751">
        <ele>502.871</ele>
        <time>2021-05-23T11:44:27Z</time>
      </trkpt>
      <trkpt lat="43.47473" lon="2.37751">
        <ele>503.517</ele>
        <time>2021-05-23T11:44:29Z</time>
      </trkpt>
      <trkpt lat="43.47473" lon="2.37751">
        <ele>503.741</ele>
        <time>2021-05-23T11:44:31Z</time>
      </trkpt>
      <trkpt lat="43.47473" lon="2.37751">
        <ele>503.749</ele>
        <time>2021-05-23T11:44:33Z</time>
      </trkpt>
      <trkpt lat="43.47473" lon="2.37751">
        <ele>503.75</ele>
        <time>2021-05-23T11:44:35Z</time>
      </trkpt>
      <trkpt lat="43.47473" lon="2.37751">
        <ele>503.752</ele>
        <time>2021-05-23T11:44:37Z</time>
      </trkpt>
      <trkpt lat="43.47473" lon="2.37751">
        <ele>503.931</ele>
        <time>2021-05-23T11:44:39Z</time>
      </trkpt>
      <trkpt lat="43.47473" lon="2.37751">
        <ele>503.93</ele>
        <time>2021-05-23T11:44:41Z</time>
      </trkpt>
      <trkpt lat="43.47473" lon="2.37751">
        <ele>503.995</ele>
        <time>2021-05-23T11:44:43Z</time>
      </trkpt>
      <trkpt lat="43.47473" lon="2.37751">
        <ele>503.969</ele>
        <time>2021-05-23T11:44:45Z</time>
      </trkpt>
      <trkpt lat="43.47473" lon="2.37751">
        <ele>503.974</ele>
        <time>2021-05-23T11:44:47Z</time>
      </trkpt>
      <trkpt lat="43.47473" lon="2.37751">
        <ele>503.974</ele>
        <time>2021-05-23T11:44:49Z</time>
      </trkpt>
      <trkpt lat="43.47473" lon="2.37751">
        <ele>503.898</ele>
        <time>2021-05-23T11:44:51Z</time>
      </trkpt>
      <trkpt lat="43.47473" lon="2.37751">
        <ele>503.871</ele>
        <time>2021-05-23T11:44:53Z</time>
      </trkpt>
      <trkpt lat="43.47473" lon="2.37751">
        <ele>503.877</ele>
        <time>2021-05-23T11:44:55Z</time>
      </trkpt>
      <trkpt lat="43.47473" lon="2.37751">
        <ele>503.879</ele>
        <time>2021-05-23T11:44:57Z</time>
      </trkpt>
      <trkpt lat="43.47472" lon="2.37751">
        <ele>503.939</ele>
        <time>2021-05-23T11:44:59Z</time>
      </trkpt>
      <trkpt lat="43.47471" lon="2.37751">
        <ele>503.872</ele>
        <time>2021-05-23T11:45:01Z</time>
      </trkpt>
      <trkpt lat="43.47471" lon="2.3775">
        <ele>503.994</ele>
        <time>2021-05-23T11:45:03Z</time>
      </trkpt>
      <trkpt lat="43.47469" lon="2.3775">
        <ele>504.451</ele>
        <time>2021-05-23T11:45:05Z</time>
      </trkpt>
      <trkpt lat="43.47468" lon="2.37749">
        <ele>503.95</ele>
        <time>2021-05-23T11:45:07Z</time>
      </trkpt>
      <trkpt lat="43.47468" lon="2.37748">
        <ele>504.368</ele>
        <time>2021-05-23T11:45:08Z</time>
      </trkpt>
      <trkpt lat="43.47467" lon="2.37747">
        <ele>504.181</ele>
        <time>2021-05-23T11:45:11Z</time>
      </trkpt>
      <trkpt lat="43.47466" lon="2.37746">
        <ele>504.297</ele>
        <time>2021-05-23T11:45:13Z</time>
      </trkpt>
      <trkpt lat="43.47465" lon="2.37746">
        <ele>504.223</ele>
        <time>2021-05-23T11:45:15Z</time>
      </trkpt>
      <trkpt lat="43.47464" lon="2.37746">
        <ele>505.205</ele>
        <time>2021-05-23T11:45:17Z</time>
      </trkpt>
      <trkpt lat="43.47462" lon="2.37745">
        <ele>506.482</ele>
        <time>2021-05-23T11:45:19Z</time>
      </trkpt>
      <trkpt lat="43.47461" lon="2.37745">
        <ele>505.513</ele>
        <time>2021-05-23T11:45:21Z</time>
      </trkpt>
      <trkpt lat="43.4746" lon="2.37744">
        <ele>505.053</ele>
        <time>2021-05-23T11:45:23Z</time>
      </trkpt>
      <trkpt lat="43.47458" lon="2.37744">
        <ele>504.564</ele>
        <time>2021-05-23T11:45:25Z</time>
      </trkpt>
      <trkpt lat="43.47457" lon="2.37742">
        <ele>504.017</ele>
        <time>2021-05-23T11:45:27Z</time>
      </trkpt>
      <trkpt lat="43.47455" lon="2.3774">
        <ele>504.679</ele>
        <time>2021-05-23T11:45:29Z</time>
      </trkpt>
      <trkpt lat="43.47453" lon="2.37739">
        <ele>504.746</ele>
        <time>2021-05-23T11:45:31Z</time>
      </trkpt>
      <trkpt lat="43.47452" lon="2.37736">
        <ele>505.084</ele>
        <time>2021-05-23T11:45:33Z</time>
      </trkpt>
      <trkpt lat="43.47451" lon="2.37733">
        <ele>505.051</ele>
        <time>2021-05-23T11:45:35Z</time>
      </trkpt>
      <trkpt lat="43.47449" lon="2.37731">
        <ele>503.99</ele>
        <time>2021-05-23T11:45:37Z</time>
      </trkpt>
      <trkpt lat="43.47448" lon="2.37731">
        <ele>503.922</ele>
        <time>2021-05-23T11:45:39Z</time>
      </trkpt>
      <trkpt lat="43.47447" lon="2.3773">
        <ele>503.815</ele>
        <time>2021-05-23T11:45:41Z</time>
      </trkpt>
      <trkpt lat="43.47445" lon="2.37729">
        <ele>503.386</ele>
        <time>2021-05-23T11:45:43Z</time>
      </trkpt>
      <trkpt lat="43.47444" lon="2.37727">
        <ele>504.417</ele>
        <time>2021-05-23T11:45:45Z</time>
      </trkpt>
      <trkpt lat="43.47443" lon="2.37724">
        <ele>505.019</ele>
        <time>2021-05-23T11:45:47Z</time>
      </trkpt>
      <trkpt lat="43.47441" lon="2.37722">
        <ele>504.971</ele>
        <time>2021-05-23T11:45:49Z</time>
      </trkpt>
      <trkpt lat="43.47439" lon="2.37719">
        <ele>505.746</ele>
        <time>2021-05-23T11:45:51Z</time>
      </trkpt>
      <trkpt lat="43.47438" lon="2.37716">
        <ele>506.881</ele>
        <time>2021-05-23T11:45:53Z</time>
      </trkpt>
      <trkpt lat="43.47437" lon="2.37714">
        <ele>508.064</ele>
        <time>2021-05-23T11:45:55Z</time>
      </trkpt>
      <trkpt lat="43.47436" lon="2.37711">
        <ele>509.595</ele>
        <time>2021-05-23T11:45:57Z</time>
      </trkpt>
      <trkpt lat="43.47434" lon="2.37707">
        <ele>510.531</ele>
        <time>2021-05-23T11:45:59Z</time>
      </trkpt>
      <trkpt lat="43.47432" lon="2.37705">
        <ele>512.303</ele>
        <time>2021-05-23T11:46:01Z</time>
      </trkpt>
      <trkpt lat="43.47431" lon="2.37704">
        <ele>510.848</ele>
        <time>2021-05-23T11:46:03Z</time>
      </trkpt>
      <trkpt lat="43.47429" lon="2.37702">
        <ele>511.16</ele>
        <time>2021-05-23T11:46:05Z</time>
      </trkpt>
      <trkpt lat="43.47427" lon="2.377">
        <ele>512.096</ele>
        <time>2021-05-23T11:46:07Z</time>
      </trkpt>
      <trkpt lat="43.47425" lon="2.37699">
        <ele>512.076</ele>
        <time>2021-05-23T11:46:09Z</time>
      </trkpt>
      <trkpt lat="43.47424" lon="2.37698">
        <ele>511.419</ele>
        <time>2021-05-23T11:46:11Z</time>
      </trkpt>
      <trkpt lat="43.47422" lon="2.37697">
        <ele>511.334</ele>
        <time>2021-05-23T11:46:14Z</time>
      </trkpt>
      <trkpt lat="43.4742" lon="2.37696">
        <ele>511.807</ele>
        <time>2021-05-23T11:46:16Z</time>
      </trkpt>
      <trkpt lat="43.47418" lon="2.37695">
        <ele>511.924</ele>
        <time>2021-05-23T11:46:18Z</time>
      </trkpt>
      <trkpt lat="43.47417" lon="2.37694">
        <ele>511.996</ele>
        <time>2021-05-23T11:46:20Z</time>
      </trkpt>
      <trkpt lat="43.47414" lon="2.37692">
        <ele>513.052</ele>
        <time>2021-05-23T11:46:22Z</time>
      </trkpt>
      <trkpt lat="43.47413" lon="2.3769">
        <ele>513.074</ele>
        <time>2021-05-23T11:46:24Z</time>
      </trkpt>
      <trkpt lat="43.47413" lon="2.37687">
        <ele>516.524</ele>
        <time>2021-05-23T11:46:26Z</time>
      </trkpt>
      <trkpt lat="43.47413" lon="2.37683">
        <ele>517.407</ele>
        <time>2021-05-23T11:46:28Z</time>
      </trkpt>
      <trkpt lat="43.47409" lon="2.37681">
        <ele>518.63</ele>
        <time>2021-05-23T11:46:30Z</time>
      </trkpt>
      <trkpt lat="43.47407" lon="2.37679">
        <ele>520.81</ele>
        <time>2021-05-23T11:46:32Z</time>
      </trkpt>
      <trkpt lat="43.47404" lon="2.37678">
        <ele>521.664</ele>
        <time>2021-05-23T11:46:34Z</time>
      </trkpt>
      <trkpt lat="43.47401" lon="2.37678">
        <ele>522.969</ele>
        <time>2021-05-23T11:46:36Z</time>
      </trkpt>
      <trkpt lat="43.47399" lon="2.37677">
        <ele>522.878</ele>
        <time>2021-05-23T11:46:38Z</time>
      </trkpt>
      <trkpt lat="43.47397" lon="2.37675">
        <ele>523.253</ele>
        <time>2021-05-23T11:46:40Z</time>
      </trkpt>
      <trkpt lat="43.47395" lon="2.37675">
        <ele>522.708</ele>
        <time>2021-05-23T11:46:42Z</time>
      </trkpt>
      <trkpt lat="43.47394" lon="2.37673">
        <ele>523.247</ele>
        <time>2021-05-23T11:46:44Z</time>
      </trkpt>
      <trkpt lat="43.47392" lon="2.3767">
        <ele>523.763</ele>
        <time>2021-05-23T11:46:46Z</time>
      </trkpt>
      <trkpt lat="43.47391" lon="2.37668">
        <ele>523.814</ele>
        <time>2021-05-23T11:46:48Z</time>
      </trkpt>
      <trkpt lat="43.47389" lon="2.37668">
        <ele>524.215</ele>
        <time>2021-05-23T11:46:50Z</time>
      </trkpt>
      <trkpt lat="43.47387" lon="2.37668">
        <ele>523.22</ele>
        <time>2021-05-23T11:46:52Z</time>
      </trkpt>
      <trkpt lat="43.47386" lon="2.37668">
        <ele>521.686</ele>
        <time>2021-05-23T11:46:54Z</time>
      </trkpt>
      <trkpt lat="43.47384" lon="2.37667">
        <ele>522.46</ele>
        <time>2021-05-23T11:46:56Z</time>
      </trkpt>
      <trkpt lat="43.47382" lon="2.37665">
        <ele>521.754</ele>
        <time>2021-05-23T11:46:58Z</time>
      </trkpt>
      <trkpt lat="43.4738" lon="2.37664">
        <ele>522.135</ele>
        <time>2021-05-23T11:47:00Z</time>
      </trkpt>
      <trkpt lat="43.47378" lon="2.37663">
        <ele>521.272</ele>
        <time>2021-05-23T11:47:02Z</time>
      </trkpt>
      <trkpt lat="43.47377" lon="2.37663">
        <ele>521.747</ele>
        <time>2021-05-23T11:47:04Z</time>
      </trkpt>
      <trkpt lat="43.47374" lon="2.37662">
        <ele>520.995</ele>
        <time>2021-05-23T11:47:06Z</time>
      </trkpt>
      <trkpt lat="43.47373" lon="2.37661">
        <ele>520.659</ele>
        <time>2021-05-23T11:47:08Z</time>
      </trkpt>
      <trkpt lat="43.47371" lon="2.37661">
        <ele>518.473</ele>
        <time>2021-05-23T11:47:10Z</time>
      </trkpt>
      <trkpt lat="43.4737" lon="2.37661">
        <ele>518.546</ele>
        <time>2021-05-23T11:47:12Z</time>
      </trkpt>
      <trkpt lat="43.47368" lon="2.37661">
        <ele>517.918</ele>
        <time>2021-05-23T11:47:14Z</time>
      </trkpt>
      <trkpt lat="43.47366" lon="2.37661">
        <ele>517.163</ele>
        <time>2021-05-23T11:47:16Z</time>
      </trkpt>
      <trkpt lat="43.47364" lon="2.37661">
        <ele>517.207</ele>
        <time>2021-05-23T11:47:18Z</time>
      </trkpt>
      <trkpt lat="43.47362" lon="2.3766">
        <ele>516.809</ele>
        <time>2021-05-23T11:47:20Z</time>
      </trkpt>
      <trkpt lat="43.47361" lon="2.37661">
        <ele>517.606</ele>
        <time>2021-05-23T11:47:22Z</time>
      </trkpt>
      <trkpt lat="43.47359" lon="2.37661">
        <ele>517.011</ele>
        <time>2021-05-23T11:47:24Z</time>
      </trkpt>
      <trkpt lat="43.47357" lon="2.37661">
        <ele>515.702</ele>
        <time>2021-05-23T11:47:26Z</time>
      </trkpt>
      <trkpt lat="43.47355" lon="2.37662">
        <ele>515.211</ele>
        <time>2021-05-23T11:47:28Z</time>
      </trkpt>
      <trkpt lat="43.47353" lon="2.37662">
        <ele>514.401</ele>
        <time>2021-05-23T11:47:30Z</time>
      </trkpt>
      <trkpt lat="43.47351" lon="2.37662">
        <ele>513.297</ele>
        <time>2021-05-23T11:47:32Z</time>
      </trkpt>
      <trkpt lat="43.47349" lon="2.37662">
        <ele>513.082</ele>
        <time>2021-05-23T11:47:34Z</time>
      </trkpt>
      <trkpt lat="43.47347" lon="2.37662">
        <ele>513.354</ele>
        <time>2021-05-23T11:47:36Z</time>
      </trkpt>
      <trkpt lat="43.47345" lon="2.37663">
        <ele>512.546</ele>
        <time>2021-05-23T11:47:38Z</time>
      </trkpt>
      <trkpt lat="43.47342" lon="2.37664">
        <ele>512.147</ele>
        <time>2021-05-23T11:47:40Z</time>
      </trkpt>
      <trkpt lat="43.4734" lon="2.37664">
        <ele>512.701</ele>
        <time>2021-05-23T11:47:42Z</time>
      </trkpt>
      <trkpt lat="43.47338" lon="2.37665">
        <ele>512.454</ele>
        <time>2021-05-23T11:47:44Z</time>
      </trkpt>
      <trkpt lat="43.47335" lon="2.37666">
        <ele>512.497</ele>
        <time>2021-05-23T11:47:46Z</time>
      </trkpt>
      <trkpt lat="43.47333" lon="2.37666">
        <ele>512.579</ele>
        <time>2021-05-23T11:47:48Z</time>
      </trkpt>
      <trkpt lat="43.47331" lon="2.37666">
        <ele>512.77</ele>
        <time>2021-05-23T11:47:50Z</time>
      </trkpt>
      <trkpt lat="43.47329" lon="2.37666">
        <ele>513.383</ele>
        <time>2021-05-23T11:47:52Z</time>
      </trkpt>
      <trkpt lat="43.47327" lon="2.37667">
        <ele>512.262</ele>
        <time>2021-05-23T11:47:54Z</time>
      </trkpt>
      <trkpt lat="43.47325" lon="2.37667">
        <ele>512.41</ele>
        <time>2021-05-23T11:47:56Z</time>
      </trkpt>
      <trkpt lat="43.47322" lon="2.37668">
        <ele>514.177</ele>
        <time>2021-05-23T11:47:58Z</time>
      </trkpt>
      <trkpt lat="43.47321" lon="2.37669">
        <ele>513.964</ele>
        <time>2021-05-23T11:48:00Z</time>
      </trkpt>
      <trkpt lat="43.47319" lon="2.3767">
        <ele>513.771</ele>
        <time>2021-05-23T11:48:02Z</time>
      </trkpt>
      <trkpt lat="43.47316" lon="2.3767">
        <ele>513.302</ele>
        <time>2021-05-23T11:48:04Z</time>
      </trkpt>
      <trkpt lat="43.47314" lon="2.37671">
        <ele>514.502</ele>
        <time>2021-05-23T11:48:06Z</time>
      </trkpt>
      <trkpt lat="43.47311" lon="2.37672">
        <ele>513.601</ele>
        <time>2021-05-23T11:48:08Z</time>
      </trkpt>
      <trkpt lat="43.47309" lon="2.37673">
        <ele>512.157</ele>
        <time>2021-05-23T11:48:10Z</time>
      </trkpt>
      <trkpt lat="43.47308" lon="2.37675">
        <ele>510.513</ele>
        <time>2021-05-23T11:48:12Z</time>
      </trkpt>
      <trkpt lat="43.47305" lon="2.37675">
        <ele>510.27</ele>
        <time>2021-05-23T11:48:14Z</time>
      </trkpt>
      <trkpt lat="43.47303" lon="2.37677">
        <ele>510.624</ele>
        <time>2021-05-23T11:48:16Z</time>
      </trkpt>
      <trkpt lat="43.47301" lon="2.37677">
        <ele>512.229</ele>
        <time>2021-05-23T11:48:18Z</time>
      </trkpt>
      <trkpt lat="43.47298" lon="2.37678">
        <ele>511.473</ele>
        <time>2021-05-23T11:48:20Z</time>
      </trkpt>
      <trkpt lat="43.47296" lon="2.37679">
        <ele>514.625</ele>
        <time>2021-05-23T11:48:22Z</time>
      </trkpt>
      <trkpt lat="43.47294" lon="2.3768">
        <ele>513.795</ele>
        <time>2021-05-23T11:48:24Z</time>
      </trkpt>
      <trkpt lat="43.47291" lon="2.37681">
        <ele>514.144</ele>
        <time>2021-05-23T11:48:26Z</time>
      </trkpt>
      <trkpt lat="43.47289" lon="2.37682">
        <ele>514.244</ele>
        <time>2021-05-23T11:48:28Z</time>
      </trkpt>
      <trkpt lat="43.47287" lon="2.37683">
        <ele>514.674</ele>
        <time>2021-05-23T11:48:30Z</time>
      </trkpt>
      <trkpt lat="43.47285" lon="2.37683">
        <ele>513.13</ele>
        <time>2021-05-23T11:48:32Z</time>
      </trkpt>
      <trkpt lat="43.47283" lon="2.37684">
        <ele>513.501</ele>
        <time>2021-05-23T11:48:34Z</time>
      </trkpt>
      <trkpt lat="43.4728" lon="2.37684">
        <ele>513.906</ele>
        <time>2021-05-23T11:48:36Z</time>
      </trkpt>
      <trkpt lat="43.47278" lon="2.37685">
        <ele>512.178</ele>
        <time>2021-05-23T11:48:38Z</time>
      </trkpt>
      <trkpt lat="43.47276" lon="2.37685">
        <ele>513.202</ele>
        <time>2021-05-23T11:48:40Z</time>
      </trkpt>
      <trkpt lat="43.47274" lon="2.37685">
        <ele>512.869</ele>
        <time>2021-05-23T11:48:42Z</time>
      </trkpt>
      <trkpt lat="43.47271" lon="2.37686">
        <ele>513.015</ele>
        <time>2021-05-23T11:48:44Z</time>
      </trkpt>
      <trkpt lat="43.47268" lon="2.37686">
        <ele>514.95</ele>
        <time>2021-05-23T11:48:46Z</time>
      </trkpt>
      <trkpt lat="43.47266" lon="2.37687">
        <ele>515.662</ele>
        <time>2021-05-23T11:48:48Z</time>
      </trkpt>
      <trkpt lat="43.47264" lon="2.37688">
        <ele>515.962</ele>
        <time>2021-05-23T11:48:50Z</time>
      </trkpt>
      <trkpt lat="43.47262" lon="2.37688">
        <ele>515.76</ele>
        <time>2021-05-23T11:48:52Z</time>
      </trkpt>
      <trkpt lat="43.4726" lon="2.37689">
        <ele>515.361</ele>
        <time>2021-05-23T11:48:54Z</time>
      </trkpt>
      <trkpt lat="43.47258" lon="2.3769">
        <ele>514.694</ele>
        <time>2021-05-23T11:48:56Z</time>
      </trkpt>
      <trkpt lat="43.47256" lon="2.3769">
        <ele>515.004</ele>
        <time>2021-05-23T11:48:58Z</time>
      </trkpt>
      <trkpt lat="43.47255" lon="2.37691">
        <ele>515.781</ele>
        <time>2021-05-23T11:49:00Z</time>
      </trkpt>
      <trkpt lat="43.47252" lon="2.37691">
        <ele>516.114</ele>
        <time>2021-05-23T11:49:02Z</time>
      </trkpt>
      <trkpt lat="43.4725" lon="2.37692">
        <ele>516.873</ele>
        <time>2021-05-23T11:49:04Z</time>
      </trkpt>
      <trkpt lat="43.47248" lon="2.37693">
        <ele>517.198</ele>
        <time>2021-05-23T11:49:06Z</time>
      </trkpt>
      <trkpt lat="43.47246" lon="2.37692">
        <ele>518.699</ele>
        <time>2021-05-23T11:49:08Z</time>
      </trkpt>
      <trkpt lat="43.47245" lon="2.37691">
        <ele>517.477</ele>
        <time>2021-05-23T11:49:10Z</time>
      </trkpt>
      <trkpt lat="43.47242" lon="2.37692">
        <ele>518.427</ele>
        <time>2021-05-23T11:49:12Z</time>
      </trkpt>
      <trkpt lat="43.4724" lon="2.37693">
        <ele>520.792</ele>
        <time>2021-05-23T11:49:14Z</time>
      </trkpt>
      <trkpt lat="43.47237" lon="2.37693">
        <ele>521.421</ele>
        <time>2021-05-23T11:49:16Z</time>
      </trkpt>
      <trkpt lat="43.47234" lon="2.37693">
        <ele>521.606</ele>
        <time>2021-05-23T11:49:18Z</time>
      </trkpt>
      <trkpt lat="43.47232" lon="2.37694">
        <ele>523.711</ele>
        <time>2021-05-23T11:49:20Z</time>
      </trkpt>
      <trkpt lat="43.4723" lon="2.37694">
        <ele>524.589</ele>
        <time>2021-05-23T11:49:22Z</time>
      </trkpt>
      <trkpt lat="43.47227" lon="2.37696">
        <ele>525.145</ele>
        <time>2021-05-23T11:49:24Z</time>
      </trkpt>
      <trkpt lat="43.47225" lon="2.37698">
        <ele>524.194</ele>
        <time>2021-05-23T11:49:26Z</time>
      </trkpt>
      <trkpt lat="43.47223" lon="2.37699">
        <ele>525.668</ele>
        <time>2021-05-23T11:49:28Z</time>
      </trkpt>
      <trkpt lat="43.4722" lon="2.37699">
        <ele>525.664</ele>
        <time>2021-05-23T11:49:30Z</time>
      </trkpt>
      <trkpt lat="43.47218" lon="2.37699">
        <ele>526.479</ele>
        <time>2021-05-23T11:49:32Z</time>
      </trkpt>
      <trkpt lat="43.47216" lon="2.37699">
        <ele>524.155</ele>
        <time>2021-05-23T11:49:34Z</time>
      </trkpt>
      <trkpt lat="43.47214" lon="2.377">
        <ele>524.862</ele>
        <time>2021-05-23T11:49:36Z</time>
      </trkpt>
      <trkpt lat="43.47212" lon="2.377">
        <ele>525.283</ele>
        <time>2021-05-23T11:49:38Z</time>
      </trkpt>
      <trkpt lat="43.47211" lon="2.37699">
        <ele>526.121</ele>
        <time>2021-05-23T11:49:40Z</time>
      </trkpt>
      <trkpt lat="43.47209" lon="2.377">
        <ele>524.191</ele>
        <time>2021-05-23T11:49:42Z</time>
      </trkpt>
      <trkpt lat="43.47207" lon="2.377">
        <ele>525.659</ele>
        <time>2021-05-23T11:49:44Z</time>
      </trkpt>
      <trkpt lat="43.47204" lon="2.377">
        <ele>525.674</ele>
        <time>2021-05-23T11:49:46Z</time>
      </trkpt>
      <trkpt lat="43.47202" lon="2.377">
        <ele>526.849</ele>
        <time>2021-05-23T11:49:48Z</time>
      </trkpt>
      <trkpt lat="43.472" lon="2.37701">
        <ele>526.448</ele>
        <time>2021-05-23T11:49:50Z</time>
      </trkpt>
      <trkpt lat="43.47197" lon="2.37702">
        <ele>527.048</ele>
        <time>2021-05-23T11:49:52Z</time>
      </trkpt>
      <trkpt lat="43.47195" lon="2.37702">
        <ele>525.907</ele>
        <time>2021-05-23T11:49:54Z</time>
      </trkpt>
      <trkpt lat="43.47193" lon="2.37704">
        <ele>525.221</ele>
        <time>2021-05-23T11:49:56Z</time>
      </trkpt>
      <trkpt lat="43.47191" lon="2.37705">
        <ele>524.494</ele>
        <time>2021-05-23T11:49:58Z</time>
      </trkpt>
      <trkpt lat="43.47189" lon="2.37707">
        <ele>522.651</ele>
        <time>2021-05-23T11:50:00Z</time>
      </trkpt>
      <trkpt lat="43.47188" lon="2.37709">
        <ele>523.727</ele>
        <time>2021-05-23T11:50:02Z</time>
      </trkpt>
      <trkpt lat="43.47186" lon="2.3771">
        <ele>524.863</ele>
        <time>2021-05-23T11:50:04Z</time>
      </trkpt>
      <trkpt lat="43.47184" lon="2.37711">
        <ele>524.945</ele>
        <time>2021-05-23T11:50:06Z</time>
      </trkpt>
      <trkpt lat="43.47182" lon="2.37712">
        <ele>524.545</ele>
        <time>2021-05-23T11:50:08Z</time>
      </trkpt>
      <trkpt lat="43.4718" lon="2.37713">
        <ele>524.798</ele>
        <time>2021-05-23T11:50:10Z</time>
      </trkpt>
      <trkpt lat="43.47178" lon="2.37715">
        <ele>523.879</ele>
        <time>2021-05-23T11:50:12Z</time>
      </trkpt>
      <trkpt lat="43.47176" lon="2.37717">
        <ele>522.14</ele>
        <time>2021-05-23T11:50:14Z</time>
      </trkpt>
      <trkpt lat="43.47174" lon="2.37718">
        <ele>522.253</ele>
        <time>2021-05-23T11:50:16Z</time>
      </trkpt>
      <trkpt lat="43.47173" lon="2.37721">
        <ele>522.023</ele>
        <time>2021-05-23T11:50:18Z</time>
      </trkpt>
      <trkpt lat="43.47172" lon="2.37723">
        <ele>522.597</ele>
        <time>2021-05-23T11:50:20Z</time>
      </trkpt>
      <trkpt lat="43.47169" lon="2.37725">
        <ele>522.226</ele>
        <time>2021-05-23T11:50:22Z</time>
      </trkpt>
      <trkpt lat="43.47168" lon="2.37726">
        <ele>522.994</ele>
        <time>2021-05-23T11:50:24Z</time>
      </trkpt>
      <trkpt lat="43.47166" lon="2.37728">
        <ele>522.663</ele>
        <time>2021-05-23T11:50:26Z</time>
      </trkpt>
      <trkpt lat="43.47164" lon="2.3773">
        <ele>522.112</ele>
        <time>2021-05-23T11:50:28Z</time>
      </trkpt>
      <trkpt lat="43.47163" lon="2.3773">
        <ele>522.748</ele>
        <time>2021-05-23T11:50:30Z</time>
      </trkpt>
      <trkpt lat="43.4716" lon="2.37731">
        <ele>527.17</ele>
        <time>2021-05-23T11:50:32Z</time>
      </trkpt>
      <trkpt lat="43.47158" lon="2.37732">
        <ele>525.836</ele>
        <time>2021-05-23T11:50:34Z</time>
      </trkpt>
      <trkpt lat="43.47157" lon="2.37733">
        <ele>526.002</ele>
        <time>2021-05-23T11:50:36Z</time>
      </trkpt>
      <trkpt lat="43.47157" lon="2.37736">
        <ele>527.201</ele>
        <time>2021-05-23T11:50:38Z</time>
      </trkpt>
      <trkpt lat="43.47158" lon="2.37737">
        <ele>525.917</ele>
        <time>2021-05-23T11:50:40Z</time>
      </trkpt>
      <trkpt lat="43.47158" lon="2.37738">
        <ele>526.311</ele>
        <time>2021-05-23T11:50:42Z</time>
      </trkpt>
      <trkpt lat="43.47159" lon="2.37739">
        <ele>527.038</ele>
        <time>2021-05-23T11:50:44Z</time>
      </trkpt>
      <trkpt lat="43.4716" lon="2.37738">
        <ele>527.082</ele>
        <time>2021-05-23T11:50:46Z</time>
      </trkpt>
      <trkpt lat="43.47161" lon="2.37738">
        <ele>526.983</ele>
        <time>2021-05-23T11:50:48Z</time>
      </trkpt>
      <trkpt lat="43.47162" lon="2.37738">
        <ele>526.925</ele>
        <time>2021-05-23T11:50:50Z</time>
      </trkpt>
      <trkpt lat="43.47163" lon="2.37738">
        <ele>528.051</ele>
        <time>2021-05-23T11:50:52Z</time>
      </trkpt>
      <trkpt lat="43.47164" lon="2.37737">
        <ele>529.497</ele>
        <time>2021-05-23T11:50:54Z</time>
      </trkpt>
      <trkpt lat="43.47166" lon="2.37736">
        <ele>530.28</ele>
        <time>2021-05-23T11:50:56Z</time>
      </trkpt>
      <trkpt lat="43.47168" lon="2.37735">
        <ele>530.733</ele>
        <time>2021-05-23T11:50:58Z</time>
      </trkpt>
      <trkpt lat="43.4717" lon="2.37732">
        <ele>532.594</ele>
        <time>2021-05-23T11:51:00Z</time>
      </trkpt>
      <trkpt lat="43.47172" lon="2.3773">
        <ele>534.194</ele>
        <time>2021-05-23T11:51:02Z</time>
      </trkpt>
      <trkpt lat="43.47172" lon="2.3773">
        <ele>533.856</ele>
        <time>2021-05-23T11:51:04Z</time>
      </trkpt>
      <trkpt lat="43.47175" lon="2.37731">
        <ele>532.868</ele>
        <time>2021-05-23T11:51:06Z</time>
      </trkpt>
      <trkpt lat="43.47178" lon="2.37731">
        <ele>534.634</ele>
        <time>2021-05-23T11:51:08Z</time>
      </trkpt>
      <trkpt lat="43.4718" lon="2.37728">
        <ele>534.08</ele>
        <time>2021-05-23T11:51:10Z</time>
      </trkpt>
      <trkpt lat="43.47183" lon="2.37727">
        <ele>535.09</ele>
        <time>2021-05-23T11:51:12Z</time>
      </trkpt>
      <trkpt lat="43.47185" lon="2.37726">
        <ele>535.896</ele>
        <time>2021-05-23T11:51:14Z</time>
      </trkpt>
      <trkpt lat="43.47185" lon="2.37725">
        <ele>536.133</ele>
        <time>2021-05-23T11:51:16Z</time>
      </trkpt>
      <trkpt lat="43.47186" lon="2.37726">
        <ele>533.132</ele>
        <time>2021-05-23T11:51:18Z</time>
      </trkpt>
      <trkpt lat="43.47185" lon="2.37727">
        <ele>532.395</ele>
        <time>2021-05-23T11:51:20Z</time>
      </trkpt>
      <trkpt lat="43.47184" lon="2.37724">
        <ele>532.82</ele>
        <time>2021-05-23T11:51:22Z</time>
      </trkpt>
      <trkpt lat="43.47182" lon="2.37724">
        <ele>533.685</ele>
        <time>2021-05-23T11:51:24Z</time>
      </trkpt>
      <trkpt lat="43.4718" lon="2.37724">
        <ele>534.658</ele>
        <time>2021-05-23T11:51:26Z</time>
      </trkpt>
      <trkpt lat="43.47181" lon="2.37724">
        <ele>534.664</ele>
        <time>2021-05-23T11:51:28Z</time>
      </trkpt>
      <trkpt lat="43.47181" lon="2.37724">
        <ele>534.669</ele>
        <time>2021-05-23T11:51:30Z</time>
      </trkpt>
      <trkpt lat="43.47181" lon="2.37724">
        <ele>534.681</ele>
        <time>2021-05-23T11:51:32Z</time>
      </trkpt>
      <trkpt lat="43.47181" lon="2.37724">
        <ele>534.678</ele>
        <time>2021-05-23T11:51:34Z</time>
      </trkpt>
      <trkpt lat="43.47181" lon="2.37724">
        <ele>534.885</ele>
        <time>2021-05-23T11:51:36Z</time>
      </trkpt>
      <trkpt lat="43.47181" lon="2.37724">
        <ele>534.885</ele>
        <time>2021-05-23T11:51:38Z</time>
      </trkpt>
      <trkpt lat="43.47181" lon="2.37724">
        <ele>534.884</ele>
        <time>2021-05-23T11:51:40Z</time>
      </trkpt>
      <trkpt lat="43.47181" lon="2.37724">
        <ele>534.884</ele>
        <time>2021-05-23T11:51:42Z</time>
      </trkpt>
      <trkpt lat="43.47181" lon="2.37725">
        <ele>534.378</ele>
        <time>2021-05-23T11:51:44Z</time>
      </trkpt>
      <trkpt lat="43.47181" lon="2.37725">
        <ele>534.378</ele>
        <time>2021-05-23T11:51:46Z</time>
      </trkpt>
      <trkpt lat="43.47181" lon="2.37725">
        <ele>534.419</ele>
        <time>2021-05-23T11:51:48Z</time>
      </trkpt>
      <trkpt lat="43.47181" lon="2.37725">
        <ele>534.406</ele>
        <time>2021-05-23T11:51:50Z</time>
      </trkpt>
      <trkpt lat="43.47181" lon="2.37725">
        <ele>534.397</ele>
        <time>2021-05-23T11:51:52Z</time>
      </trkpt>
      <trkpt lat="43.47181" lon="2.37725">
        <ele>534.395</ele>
        <time>2021-05-23T11:51:54Z</time>
      </trkpt>
      <trkpt lat="43.47181" lon="2.37725">
        <ele>534.395</ele>
        <time>2021-05-23T11:51:56Z</time>
      </trkpt>
      <trkpt lat="43.47181" lon="2.37725">
        <ele>534.389</ele>
        <time>2021-05-23T11:51:58Z</time>
      </trkpt>
      <trkpt lat="43.47181" lon="2.37726">
        <ele>534.802</ele>
        <time>2021-05-23T11:52:00Z</time>
      </trkpt>
      <trkpt lat="43.47182" lon="2.37726">
        <ele>534.004</ele>
        <time>2021-05-23T11:52:02Z</time>
      </trkpt>
      <trkpt lat="43.47182" lon="2.37726">
        <ele>533.571</ele>
        <time>2021-05-23T11:52:04Z</time>
      </trkpt>
      <trkpt lat="43.47184" lon="2.37727">
        <ele>533.077</ele>
        <time>2021-05-23T11:52:06Z</time>
      </trkpt>
      <trkpt lat="43.47186" lon="2.37727">
        <ele>533.111</ele>
        <time>2021-05-23T11:52:08Z</time>
      </trkpt>
      <trkpt lat="43.47187" lon="2.37728">
        <ele>533.198</ele>
        <time>2021-05-23T11:52:10Z</time>
      </trkpt>
      <trkpt lat="43.47188" lon="2.37729">
        <ele>532.869</ele>
        <time>2021-05-23T11:52:12Z</time>
      </trkpt>
      <trkpt lat="43.47188" lon="2.37729">
        <ele>533.298</ele>
        <time>2021-05-23T11:52:14Z</time>
      </trkpt>
      <trkpt lat="43.47191" lon="2.37729">
        <ele>532.403</ele>
        <time>2021-05-23T11:52:16Z</time>
      </trkpt>
      <trkpt lat="43.47193" lon="2.3773">
        <ele>532.932</ele>
        <time>2021-05-23T11:52:18Z</time>
      </trkpt>
      <trkpt lat="43.47195" lon="2.37731">
        <ele>533.051</ele>
        <time>2021-05-23T11:52:20Z</time>
      </trkpt>
      <trkpt lat="43.47197" lon="2.3773">
        <ele>533.849</ele>
        <time>2021-05-23T11:52:22Z</time>
      </trkpt>
      <trkpt lat="43.47199" lon="2.37729">
        <ele>534.932</ele>
        <time>2021-05-23T11:52:24Z</time>
      </trkpt>
      <trkpt lat="43.472" lon="2.37729">
        <ele>535.912</ele>
        <time>2021-05-23T11:52:26Z</time>
      </trkpt>
      <trkpt lat="43.47202" lon="2.37729">
        <ele>536.232</ele>
        <time>2021-05-23T11:52:28Z</time>
      </trkpt>
      <trkpt lat="43.47205" lon="2.37729">
        <ele>536.901</ele>
        <time>2021-05-23T11:52:30Z</time>
      </trkpt>
      <trkpt lat="43.47208" lon="2.3773">
        <ele>536.746</ele>
        <time>2021-05-23T11:52:32Z</time>
      </trkpt>
      <trkpt lat="43.47211" lon="2.3773">
        <ele>536.011</ele>
        <time>2021-05-23T11:52:34Z</time>
      </trkpt>
      <trkpt lat="43.47213" lon="2.3773">
        <ele>537.063</ele>
        <time>2021-05-23T11:52:36Z</time>
      </trkpt>
      <trkpt lat="43.47215" lon="2.3773">
        <ele>537.239</ele>
        <time>2021-05-23T11:52:38Z</time>
      </trkpt>
      <trkpt lat="43.47217" lon="2.3773">
        <ele>537.03</ele>
        <time>2021-05-23T11:52:40Z</time>
      </trkpt>
      <trkpt lat="43.47219" lon="2.3773">
        <ele>538.062</ele>
        <time>2021-05-23T11:52:42Z</time>
      </trkpt>
      <trkpt lat="43.47222" lon="2.37729">
        <ele>538.659</ele>
        <time>2021-05-23T11:52:44Z</time>
      </trkpt>
      <trkpt lat="43.47224" lon="2.37729">
        <ele>539.367</ele>
        <time>2021-05-23T11:52:46Z</time>
      </trkpt>
      <trkpt lat="43.47227" lon="2.3773">
        <ele>538.821</ele>
        <time>2021-05-23T11:52:48Z</time>
      </trkpt>
      <trkpt lat="43.47229" lon="2.3773">
        <ele>539.622</ele>
        <time>2021-05-23T11:52:50Z</time>
      </trkpt>
      <trkpt lat="43.47231" lon="2.37728">
        <ele>540.213</ele>
        <time>2021-05-23T11:52:52Z</time>
      </trkpt>
      <trkpt lat="43.47233" lon="2.37728">
        <ele>539.753</ele>
        <time>2021-05-23T11:52:54Z</time>
      </trkpt>
      <trkpt lat="43.47235" lon="2.37728">
        <ele>539.789</ele>
        <time>2021-05-23T11:52:56Z</time>
      </trkpt>
      <trkpt lat="43.47237" lon="2.37728">
        <ele>540.255</ele>
        <time>2021-05-23T11:52:58Z</time>
      </trkpt>
      <trkpt lat="43.47239" lon="2.37729">
        <ele>539.388</ele>
        <time>2021-05-23T11:53:00Z</time>
      </trkpt>
      <trkpt lat="43.47241" lon="2.37728">
        <ele>540.464</ele>
        <time>2021-05-23T11:53:02Z</time>
      </trkpt>
      <trkpt lat="43.47243" lon="2.37728">
        <ele>540.676</ele>
        <time>2021-05-23T11:53:04Z</time>
      </trkpt>
      <trkpt lat="43.47245" lon="2.37727">
        <ele>542.264</ele>
        <time>2021-05-23T11:53:06Z</time>
      </trkpt>
      <trkpt lat="43.47246" lon="2.37727">
        <ele>542.603</ele>
        <time>2021-05-23T11:53:08Z</time>
      </trkpt>
      <trkpt lat="43.47248" lon="2.37728">
        <ele>542.729</ele>
        <time>2021-05-23T11:53:10Z</time>
      </trkpt>
      <trkpt lat="43.4725" lon="2.37728">
        <ele>542.4</ele>
        <time>2021-05-23T11:53:12Z</time>
      </trkpt>
      <trkpt lat="43.4725" lon="2.37728">
        <ele>542.415</ele>
        <time>2021-05-23T11:53:14Z</time>
      </trkpt>
      <trkpt lat="43.47251" lon="2.37728">
        <ele>541.93</ele>
        <time>2021-05-23T11:53:16Z</time>
      </trkpt>
      <trkpt lat="43.47253" lon="2.3773">
        <ele>541.552</ele>
        <time>2021-05-23T11:53:18Z</time>
      </trkpt>
      <trkpt lat="43.47255" lon="2.3773">
        <ele>541.436</ele>
        <time>2021-05-23T11:53:20Z</time>
      </trkpt>
      <trkpt lat="43.47257" lon="2.3773">
        <ele>541.282</ele>
        <time>2021-05-23T11:53:22Z</time>
      </trkpt>
      <trkpt lat="43.47258" lon="2.37731">
        <ele>541.06</ele>
        <time>2021-05-23T11:53:24Z</time>
      </trkpt>
      <trkpt lat="43.47258" lon="2.37733">
        <ele>539.537</ele>
        <time>2021-05-23T11:53:26Z</time>
      </trkpt>
      <trkpt lat="43.47259" lon="2.37735">
        <ele>539.591</ele>
        <time>2021-05-23T11:53:28Z</time>
      </trkpt>
      <trkpt lat="43.4726" lon="2.37734">
        <ele>539.347</ele>
        <time>2021-05-23T11:53:30Z</time>
      </trkpt>
      <trkpt lat="43.47262" lon="2.37734">
        <ele>540.825</ele>
        <time>2021-05-23T11:53:32Z</time>
      </trkpt>
      <trkpt lat="43.47264" lon="2.37734">
        <ele>542.219</ele>
        <time>2021-05-23T11:53:34Z</time>
      </trkpt>
      <trkpt lat="43.47267" lon="2.37735">
        <ele>542.051</ele>
        <time>2021-05-23T11:53:36Z</time>
      </trkpt>
      <trkpt lat="43.47269" lon="2.37736">
        <ele>542.292</ele>
        <time>2021-05-23T11:53:38Z</time>
      </trkpt>
      <trkpt lat="43.4727" lon="2.37735">
        <ele>543.358</ele>
        <time>2021-05-23T11:53:40Z</time>
      </trkpt>
      <trkpt lat="43.47272" lon="2.37736">
        <ele>544.192</ele>
        <time>2021-05-23T11:53:42Z</time>
      </trkpt>
      <trkpt lat="43.47274" lon="2.37735">
        <ele>545.346</ele>
        <time>2021-05-23T11:53:44Z</time>
      </trkpt>
      <trkpt lat="43.47276" lon="2.37736">
        <ele>545.009</ele>
        <time>2021-05-23T11:53:46Z</time>
      </trkpt>
      <trkpt lat="43.47277" lon="2.37737">
        <ele>543.918</ele>
        <time>2021-05-23T11:53:48Z</time>
      </trkpt>
      <trkpt lat="43.47279" lon="2.37738">
        <ele>544.301</ele>
        <time>2021-05-23T11:53:50Z</time>
      </trkpt>
      <trkpt lat="43.47281" lon="2.37739">
        <ele>546.61</ele>
        <time>2021-05-23T11:53:52Z</time>
      </trkpt>
      <trkpt lat="43.47281" lon="2.37741">
        <ele>546.103</ele>
        <time>2021-05-23T11:53:54Z</time>
      </trkpt>
      <trkpt lat="43.4728" lon="2.37741">
        <ele>545.938</ele>
        <time>2021-05-23T11:53:56Z</time>
      </trkpt>
      <trkpt lat="43.4728" lon="2.37742">
        <ele>545.941</ele>
        <time>2021-05-23T11:53:58Z</time>
      </trkpt>
      <trkpt lat="43.47281" lon="2.37742">
        <ele>546.952</ele>
        <time>2021-05-23T11:54:00Z</time>
      </trkpt>
      <trkpt lat="43.47283" lon="2.37742">
        <ele>546.448</ele>
        <time>2021-05-23T11:54:02Z</time>
      </trkpt>
      <trkpt lat="43.47284" lon="2.37743">
        <ele>546.741</ele>
        <time>2021-05-23T11:54:04Z</time>
      </trkpt>
      <trkpt lat="43.47285" lon="2.37745">
        <ele>546.372</ele>
        <time>2021-05-23T11:54:06Z</time>
      </trkpt>
      <trkpt lat="43.47286" lon="2.37746">
        <ele>545.358</ele>
        <time>2021-05-23T11:54:08Z</time>
      </trkpt>
      <trkpt lat="43.47287" lon="2.37747">
        <ele>546.452</ele>
        <time>2021-05-23T11:54:10Z</time>
      </trkpt>
      <trkpt lat="43.47288" lon="2.37747">
        <ele>548.028</ele>
        <time>2021-05-23T11:54:12Z</time>
      </trkpt>
      <trkpt lat="43.47289" lon="2.37748">
        <ele>548.184</ele>
        <time>2021-05-23T11:54:14Z</time>
      </trkpt>
      <trkpt lat="43.4729" lon="2.37749">
        <ele>548.02</ele>
        <time>2021-05-23T11:54:16Z</time>
      </trkpt>
      <trkpt lat="43.47291" lon="2.37749">
        <ele>547.418</ele>
        <time>2021-05-23T11:54:18Z</time>
      </trkpt>
      <trkpt lat="43.47293" lon="2.3775">
        <ele>546.29</ele>
        <time>2021-05-23T11:54:20Z</time>
      </trkpt>
      <trkpt lat="43.47294" lon="2.37752">
        <ele>546.299</ele>
        <time>2021-05-23T11:54:22Z</time>
      </trkpt>
      <trkpt lat="43.47296" lon="2.37754">
        <ele>545.658</ele>
        <time>2021-05-23T11:54:24Z</time>
      </trkpt>
      <trkpt lat="43.47297" lon="2.37755">
        <ele>546.886</ele>
        <time>2021-05-23T11:54:26Z</time>
      </trkpt>
      <trkpt lat="43.473" lon="2.37756">
        <ele>546.352</ele>
        <time>2021-05-23T11:54:28Z</time>
      </trkpt>
      <trkpt lat="43.47301" lon="2.37758">
        <ele>546.703</ele>
        <time>2021-05-23T11:54:30Z</time>
      </trkpt>
      <trkpt lat="43.47304" lon="2.37758">
        <ele>546.832</ele>
        <time>2021-05-23T11:54:32Z</time>
      </trkpt>
      <trkpt lat="43.47304" lon="2.3776">
        <ele>546.753</ele>
        <time>2021-05-23T11:54:34Z</time>
      </trkpt>
      <trkpt lat="43.47305" lon="2.37761">
        <ele>547.682</ele>
        <time>2021-05-23T11:54:36Z</time>
      </trkpt>
      <trkpt lat="43.47302" lon="2.37761">
        <ele>547.78</ele>
        <time>2021-05-23T11:54:38Z</time>
      </trkpt>
      <trkpt lat="43.473" lon="2.37762">
        <ele>548.75</ele>
        <time>2021-05-23T11:54:40Z</time>
      </trkpt>
      <trkpt lat="43.47298" lon="2.37761">
        <ele>548.192</ele>
        <time>2021-05-23T11:54:42Z</time>
      </trkpt>
      <trkpt lat="43.47297" lon="2.37759">
        <ele>548.968</ele>
        <time>2021-05-23T11:54:44Z</time>
      </trkpt>
      <trkpt lat="43.47295" lon="2.37757">
        <ele>548.715</ele>
        <time>2021-05-23T11:54:46Z</time>
      </trkpt>
      <trkpt lat="43.47293" lon="2.37756">
        <ele>548.837</ele>
        <time>2021-05-23T11:54:48Z</time>
      </trkpt>
      <trkpt lat="43.47292" lon="2.37754">
        <ele>548.848</ele>
        <time>2021-05-23T11:54:50Z</time>
      </trkpt>
      <trkpt lat="43.4729" lon="2.37753">
        <ele>548.736</ele>
        <time>2021-05-23T11:54:52Z</time>
      </trkpt>
      <trkpt lat="43.47289" lon="2.37751">
        <ele>549.049</ele>
        <time>2021-05-23T11:54:54Z</time>
      </trkpt>
      <trkpt lat="43.47287" lon="2.3775">
        <ele>548.032</ele>
        <time>2021-05-23T11:54:56Z</time>
      </trkpt>
      <trkpt lat="43.47286" lon="2.37749">
        <ele>547.715</ele>
        <time>2021-05-23T11:54:58Z</time>
      </trkpt>
      <trkpt lat="43.47284" lon="2.37747">
        <ele>548.287</ele>
        <time>2021-05-23T11:55:00Z</time>
      </trkpt>
      <trkpt lat="43.47283" lon="2.37746">
        <ele>547.25</ele>
        <time>2021-05-23T11:55:02Z</time>
      </trkpt>
      <trkpt lat="43.47281" lon="2.37745">
        <ele>547.394</ele>
        <time>2021-05-23T11:55:04Z</time>
      </trkpt>
      <trkpt lat="43.4728" lon="2.37744">
        <ele>546.954</ele>
        <time>2021-05-23T11:55:06Z</time>
      </trkpt>
      <trkpt lat="43.4728" lon="2.37741">
        <ele>548.903</ele>
        <time>2021-05-23T11:55:08Z</time>
      </trkpt>
      <trkpt lat="43.47279" lon="2.37739">
        <ele>549.442</ele>
        <time>2021-05-23T11:55:10Z</time>
      </trkpt>
      <trkpt lat="43.47278" lon="2.37739">
        <ele>548.587</ele>
        <time>2021-05-23T11:55:12Z</time>
      </trkpt>
      <trkpt lat="43.47279" lon="2.37739">
        <ele>548.579</ele>
        <time>2021-05-23T11:55:14Z</time>
      </trkpt>
      <trkpt lat="43.47279" lon="2.37739">
        <ele>548.575</ele>
        <time>2021-05-23T11:55:16Z</time>
      </trkpt>
      <trkpt lat="43.47279" lon="2.37739">
        <ele>548.412</ele>
        <time>2021-05-23T11:55:18Z</time>
      </trkpt>
      <trkpt lat="43.47279" lon="2.37741">
        <ele>548.237</ele>
        <time>2021-05-23T11:55:20Z</time>
      </trkpt>
      <trkpt lat="43.47281" lon="2.37742">
        <ele>545.67</ele>
        <time>2021-05-23T11:55:22Z</time>
      </trkpt>
      <trkpt lat="43.47283" lon="2.37743">
        <ele>544.846</ele>
        <time>2021-05-23T11:55:24Z</time>
      </trkpt>
      <trkpt lat="43.47284" lon="2.37742">
        <ele>545.117</ele>
        <time>2021-05-23T11:55:26Z</time>
      </trkpt>
      <trkpt lat="43.47285" lon="2.37742">
        <ele>546.232</ele>
        <time>2021-05-23T11:55:28Z</time>
      </trkpt>
      <trkpt lat="43.47286" lon="2.37742">
        <ele>545.5</ele>
        <time>2021-05-23T11:55:30Z</time>
      </trkpt>
      <trkpt lat="43.47287" lon="2.37742">
        <ele>545.875</ele>
        <time>2021-05-23T11:55:32Z</time>
      </trkpt>
      <trkpt lat="43.47286" lon="2.37743">
        <ele>546.237</ele>
        <time>2021-05-23T11:55:34Z</time>
      </trkpt>
      <trkpt lat="43.47286" lon="2.37744">
        <ele>546.113</ele>
        <time>2021-05-23T11:55:36Z</time>
      </trkpt>
      <trkpt lat="43.47286" lon="2.37744">
        <ele>546.115</ele>
        <time>2021-05-23T11:55:38Z</time>
      </trkpt>
      <trkpt lat="43.47286" lon="2.37744">
        <ele>546.113</ele>
        <time>2021-05-23T11:55:40Z</time>
      </trkpt>
      <trkpt lat="43.47286" lon="2.37744">
        <ele>546.109</ele>
        <time>2021-05-23T11:55:42Z</time>
      </trkpt>
      <trkpt lat="43.47286" lon="2.37744">
        <ele>546.107</ele>
        <time>2021-05-23T11:55:44Z</time>
      </trkpt>
      <trkpt lat="43.47286" lon="2.37744">
        <ele>546.098</ele>
        <time>2021-05-23T11:55:46Z</time>
      </trkpt>
      <trkpt lat="43.47286" lon="2.37744">
        <ele>545.999</ele>
        <time>2021-05-23T11:55:48Z</time>
      </trkpt>
      <trkpt lat="43.47286" lon="2.37744">
        <ele>545.822</ele>
        <time>2021-05-23T11:55:50Z</time>
      </trkpt>
      <trkpt lat="43.47286" lon="2.37744">
        <ele>545.822</ele>
        <time>2021-05-23T11:55:52Z</time>
      </trkpt>
      <trkpt lat="43.47286" lon="2.37744">
        <ele>545.814</ele>
        <time>2021-05-23T11:55:54Z</time>
      </trkpt>
      <trkpt lat="43.47286" lon="2.37744">
        <ele>545.808</ele>
        <time>2021-05-23T11:55:56Z</time>
      </trkpt>
      <trkpt lat="43.47286" lon="2.37744">
        <ele>545.803</ele>
        <time>2021-05-23T11:55:58Z</time>
      </trkpt>
      <trkpt lat="43.47286" lon="2.37744">
        <ele>545.803</ele>
        <time>2021-05-23T11:56:00Z</time>
      </trkpt>
      <trkpt lat="43.47286" lon="2.37744">
        <ele>545.803</ele>
        <time>2021-05-23T11:56:02Z</time>
      </trkpt>
      <trkpt lat="43.47286" lon="2.37744">
        <ele>545.648</ele>
        <time>2021-05-23T11:56:04Z</time>
      </trkpt>
      <trkpt lat="43.47286" lon="2.37744">
        <ele>545.641</ele>
        <time>2021-05-23T11:56:06Z</time>
      </trkpt>
      <trkpt lat="43.47286" lon="2.37744">
        <ele>545.645</ele>
        <time>2021-05-23T11:56:08Z</time>
      </trkpt>
      <trkpt lat="43.47286" lon="2.37744">
        <ele>545.698</ele>
        <time>2021-05-23T11:56:10Z</time>
      </trkpt>
      <trkpt lat="43.47286" lon="2.37744">
        <ele>545.834</ele>
        <time>2021-05-23T11:56:12Z</time>
      </trkpt>
      <trkpt lat="43.47286" lon="2.37744">
        <ele>545.866</ele>
        <time>2021-05-23T11:56:14Z</time>
      </trkpt>
      <trkpt lat="43.47286" lon="2.37744">
        <ele>545.867</ele>
        <time>2021-05-23T11:56:16Z</time>
      </trkpt>
      <trkpt lat="43.47286" lon="2.37744">
        <ele>546.008</ele>
        <time>2021-05-23T11:56:18Z</time>
      </trkpt>
      <trkpt lat="43.47286" lon="2.37744">
        <ele>545.84</ele>
        <time>2021-05-23T11:56:20Z</time>
      </trkpt>
      <trkpt lat="43.47286" lon="2.37744">
        <ele>545.827</ele>
        <time>2021-05-23T11:56:22Z</time>
      </trkpt>
      <trkpt lat="43.47286" lon="2.37744">
        <ele>545.826</ele>
        <time>2021-05-23T11:56:24Z</time>
      </trkpt>
      <trkpt lat="43.47286" lon="2.37744">
        <ele>545.832</ele>
        <time>2021-05-23T11:56:26Z</time>
      </trkpt>
      <trkpt lat="43.47286" lon="2.37744">
        <ele>545.839</ele>
        <time>2021-05-23T11:56:28Z</time>
      </trkpt>
      <trkpt lat="43.47286" lon="2.37744">
        <ele>545.847</ele>
        <time>2021-05-23T11:56:30Z</time>
      </trkpt>
      <trkpt lat="43.47286" lon="2.37744">
        <ele>545.85</ele>
        <time>2021-05-23T11:56:32Z</time>
      </trkpt>
      <trkpt lat="43.47286" lon="2.37744">
        <ele>545.846</ele>
        <time>2021-05-23T11:56:34Z</time>
      </trkpt>
      <trkpt lat="43.47286" lon="2.37744">
        <ele>545.841</ele>
        <time>2021-05-23T11:56:37Z</time>
      </trkpt>
      <trkpt lat="43.47286" lon="2.37744">
        <ele>545.84</ele>
        <time>2021-05-23T11:56:39Z</time>
      </trkpt>
      <trkpt lat="43.47286" lon="2.37744">
        <ele>545.847</ele>
        <time>2021-05-23T11:56:41Z</time>
      </trkpt>
      <trkpt lat="43.47286" lon="2.37744">
        <ele>546.08</ele>
        <time>2021-05-23T11:56:43Z</time>
      </trkpt>
      <trkpt lat="43.47286" lon="2.37745">
        <ele>546.116</ele>
        <time>2021-05-23T11:56:45Z</time>
      </trkpt>
      <trkpt lat="43.47286" lon="2.37745">
        <ele>546.366</ele>
        <time>2021-05-23T11:56:47Z</time>
      </trkpt>
      <trkpt lat="43.47286" lon="2.37745">
        <ele>546.303</ele>
        <time>2021-05-23T11:56:49Z</time>
      </trkpt>
      <trkpt lat="43.47286" lon="2.37745">
        <ele>546.789</ele>
        <time>2021-05-23T11:56:51Z</time>
      </trkpt>
      <trkpt lat="43.47285" lon="2.37744">
        <ele>546.019</ele>
        <time>2021-05-23T11:56:53Z</time>
      </trkpt>
      <trkpt lat="43.47285" lon="2.37744">
        <ele>546.095</ele>
        <time>2021-05-23T11:56:55Z</time>
      </trkpt>
      <trkpt lat="43.47285" lon="2.37744">
        <ele>546.095</ele>
        <time>2021-05-23T11:56:57Z</time>
      </trkpt>
      <trkpt lat="43.47285" lon="2.37744">
        <ele>546.42</ele>
        <time>2021-05-23T11:56:59Z</time>
      </trkpt>
      <trkpt lat="43.47285" lon="2.37744">
        <ele>546.423</ele>
        <time>2021-05-23T11:57:01Z</time>
      </trkpt>
      <trkpt lat="43.47285" lon="2.37744">
        <ele>546.426</ele>
        <time>2021-05-23T11:57:03Z</time>
      </trkpt>
      <trkpt lat="43.47285" lon="2.37744">
        <ele>546.422</ele>
        <time>2021-05-23T11:57:05Z</time>
      </trkpt>
      <trkpt lat="43.47285" lon="2.37744">
        <ele>546.425</ele>
        <time>2021-05-23T11:57:07Z</time>
      </trkpt>
      <trkpt lat="43.47285" lon="2.37744">
        <ele>546.482</ele>
        <time>2021-05-23T11:57:09Z</time>
      </trkpt>
      <trkpt lat="43.47285" lon="2.37744">
        <ele>546.486</ele>
        <time>2021-05-23T11:57:11Z</time>
      </trkpt>
      <trkpt lat="43.47285" lon="2.37744">
        <ele>546.487</ele>
        <time>2021-05-23T11:57:13Z</time>
      </trkpt>
      <trkpt lat="43.47285" lon="2.37744">
        <ele>546.5</ele>
        <time>2021-05-23T11:57:15Z</time>
      </trkpt>
      <trkpt lat="43.47285" lon="2.37744">
        <ele>546.511</ele>
        <time>2021-05-23T11:57:17Z</time>
      </trkpt>
      <trkpt lat="43.47285" lon="2.37744">
        <ele>546.516</ele>
        <time>2021-05-23T11:57:19Z</time>
      </trkpt>
      <trkpt lat="43.47285" lon="2.37744">
        <ele>546.519</ele>
        <time>2021-05-23T11:57:21Z</time>
      </trkpt>
      <trkpt lat="43.47285" lon="2.37744">
        <ele>546.514</ele>
        <time>2021-05-23T11:57:23Z</time>
      </trkpt>
      <trkpt lat="43.47285" lon="2.37744">
        <ele>546.515</ele>
        <time>2021-05-23T11:57:25Z</time>
      </trkpt>
      <trkpt lat="43.47285" lon="2.37744">
        <ele>546.513</ele>
        <time>2021-05-23T11:57:27Z</time>
      </trkpt>
      <trkpt lat="43.47285" lon="2.37744">
        <ele>546.51</ele>
        <time>2021-05-23T11:57:29Z</time>
      </trkpt>
      <trkpt lat="43.47285" lon="2.37744">
        <ele>546.504</ele>
        <time>2021-05-23T11:57:31Z</time>
      </trkpt>
      <trkpt lat="43.47285" lon="2.37744">
        <ele>546.504</ele>
        <time>2021-05-23T11:57:33Z</time>
      </trkpt>
      <trkpt lat="43.47285" lon="2.37744">
        <ele>546.508</ele>
        <time>2021-05-23T11:57:35Z</time>
      </trkpt>
      <trkpt lat="43.47285" lon="2.37744">
        <ele>546.507</ele>
        <time>2021-05-23T11:57:37Z</time>
      </trkpt>
      <trkpt lat="43.47285" lon="2.37744">
        <ele>546.51</ele>
        <time>2021-05-23T11:57:39Z</time>
      </trkpt>
      <trkpt lat="43.47285" lon="2.37744">
        <ele>546.512</ele>
        <time>2021-05-23T11:57:41Z</time>
      </trkpt>
      <trkpt lat="43.47285" lon="2.37744">
        <ele>546.512</ele>
        <time>2021-05-23T11:57:43Z</time>
      </trkpt>
      <trkpt lat="43.47285" lon="2.37744">
        <ele>546.528</ele>
        <time>2021-05-23T11:57:45Z</time>
      </trkpt>
      <trkpt lat="43.47285" lon="2.37744">
        <ele>546.531</ele>
        <time>2021-05-23T11:57:47Z</time>
      </trkpt>
      <trkpt lat="43.47285" lon="2.37744">
        <ele>546.537</ele>
        <time>2021-05-23T11:57:49Z</time>
      </trkpt>
      <trkpt lat="43.47285" lon="2.37744">
        <ele>546.539</ele>
        <time>2021-05-23T11:57:51Z</time>
      </trkpt>
      <trkpt lat="43.47285" lon="2.37744">
        <ele>546.548</ele>
        <time>2021-05-23T11:57:53Z</time>
      </trkpt>
      <trkpt lat="43.47285" lon="2.37744">
        <ele>546.553</ele>
        <time>2021-05-23T11:57:55Z</time>
      </trkpt>
      <trkpt lat="43.47285" lon="2.37744">
        <ele>546.553</ele>
        <time>2021-05-23T11:57:57Z</time>
      </trkpt>
      <trkpt lat="43.47285" lon="2.37744">
        <ele>546.56</ele>
        <time>2021-05-23T11:57:59Z</time>
      </trkpt>
      <trkpt lat="43.47285" lon="2.37744">
        <ele>546.568</ele>
        <time>2021-05-23T11:58:01Z</time>
      </trkpt>
      <trkpt lat="43.47285" lon="2.37744">
        <ele>546.577</ele>
        <time>2021-05-23T11:58:03Z</time>
      </trkpt>
      <trkpt lat="43.47285" lon="2.37744">
        <ele>546.588</ele>
        <time>2021-05-23T11:58:05Z</time>
      </trkpt>
      <trkpt lat="43.47285" lon="2.37744">
        <ele>546.589</ele>
        <time>2021-05-23T11:58:07Z</time>
      </trkpt>
      <trkpt lat="43.47285" lon="2.37744">
        <ele>546.599</ele>
        <time>2021-05-23T11:58:09Z</time>
      </trkpt>
      <trkpt lat="43.47285" lon="2.37744">
        <ele>546.611</ele>
        <time>2021-05-23T11:58:11Z</time>
      </trkpt>
      <trkpt lat="43.47285" lon="2.37744">
        <ele>546.623</ele>
        <time>2021-05-23T11:58:13Z</time>
      </trkpt>
      <trkpt lat="43.47285" lon="2.37744">
        <ele>546.627</ele>
        <time>2021-05-23T11:58:15Z</time>
      </trkpt>
      <trkpt lat="43.47285" lon="2.37744">
        <ele>546.969</ele>
        <time>2021-05-23T11:58:17Z</time>
      </trkpt>
      <trkpt lat="43.47286" lon="2.37744">
        <ele>546.593</ele>
        <time>2021-05-23T11:58:19Z</time>
      </trkpt>
      <trkpt lat="43.47286" lon="2.37744">
        <ele>546.18</ele>
        <time>2021-05-23T11:58:21Z</time>
      </trkpt>
      <trkpt lat="43.47287" lon="2.37744">
        <ele>545.374</ele>
        <time>2021-05-23T11:58:23Z</time>
      </trkpt>
      <trkpt lat="43.47287" lon="2.37743">
        <ele>545.452</ele>
        <time>2021-05-23T11:58:25Z</time>
      </trkpt>
      <trkpt lat="43.47287" lon="2.37743">
        <ele>545.459</ele>
        <time>2021-05-23T11:58:27Z</time>
      </trkpt>
      <trkpt lat="43.47287" lon="2.37743">
        <ele>545.46</ele>
        <time>2021-05-23T11:58:29Z</time>
      </trkpt>
      <trkpt lat="43.47287" lon="2.37743">
        <ele>545.464</ele>
        <time>2021-05-23T11:58:31Z</time>
      </trkpt>
      <trkpt lat="43.47287" lon="2.37743">
        <ele>545.471</ele>
        <time>2021-05-23T11:58:33Z</time>
      </trkpt>
      <trkpt lat="43.47287" lon="2.37743">
        <ele>545.484</ele>
        <time>2021-05-23T11:58:35Z</time>
      </trkpt>
      <trkpt lat="43.47287" lon="2.37743">
        <ele>545.487</ele>
        <time>2021-05-23T11:58:37Z</time>
      </trkpt>
      <trkpt lat="43.47287" lon="2.37743">
        <ele>545.495</ele>
        <time>2021-05-23T11:58:39Z</time>
      </trkpt>
      <trkpt lat="43.47287" lon="2.37743">
        <ele>545.494</ele>
        <time>2021-05-23T11:58:41Z</time>
      </trkpt>
      <trkpt lat="43.47287" lon="2.37743">
        <ele>545.504</ele>
        <time>2021-05-23T11:58:43Z</time>
      </trkpt>
      <trkpt lat="43.47287" lon="2.37743">
        <ele>545.511</ele>
        <time>2021-05-23T11:58:45Z</time>
      </trkpt>
      <trkpt lat="43.47287" lon="2.37743">
        <ele>545.51</ele>
        <time>2021-05-23T11:58:47Z</time>
      </trkpt>
      <trkpt lat="43.47287" lon="2.37743">
        <ele>545.507</ele>
        <time>2021-05-23T11:58:49Z</time>
      </trkpt>
      <trkpt lat="43.47287" lon="2.37743">
        <ele>545.517</ele>
        <time>2021-05-23T11:58:51Z</time>
      </trkpt>
      <trkpt lat="43.47287" lon="2.37743">
        <ele>545.525</ele>
        <time>2021-05-23T11:58:53Z</time>
      </trkpt>
      <trkpt lat="43.47287" lon="2.37743">
        <ele>545.524</ele>
        <time>2021-05-23T11:58:55Z</time>
      </trkpt>
      <trkpt lat="43.47287" lon="2.37743">
        <ele>545.524</ele>
        <time>2021-05-23T11:58:57Z</time>
      </trkpt>
      <trkpt lat="43.47287" lon="2.37743">
        <ele>545.524</ele>
        <time>2021-05-23T11:58:59Z</time>
      </trkpt>
      <trkpt lat="43.47287" lon="2.37743">
        <ele>545.527</ele>
        <time>2021-05-23T11:59:01Z</time>
      </trkpt>
      <trkpt lat="43.47287" lon="2.37744">
        <ele>545.107</ele>
        <time>2021-05-23T11:59:03Z</time>
      </trkpt>
      <trkpt lat="43.47286" lon="2.37744">
        <ele>545.073</ele>
        <time>2021-05-23T11:59:05Z</time>
      </trkpt>
      <trkpt lat="43.47286" lon="2.37744">
        <ele>545.068</ele>
        <time>2021-05-23T11:59:07Z</time>
      </trkpt>
      <trkpt lat="43.47286" lon="2.37744">
        <ele>545.068</ele>
        <time>2021-05-23T11:59:09Z</time>
      </trkpt>
      <trkpt lat="43.47286" lon="2.37744">
        <ele>545.066</ele>
        <time>2021-05-23T11:59:11Z</time>
      </trkpt>
      <trkpt lat="43.47286" lon="2.37744">
        <ele>545.068</ele>
        <time>2021-05-23T11:59:13Z</time>
      </trkpt>
      <trkpt lat="43.47286" lon="2.37744">
        <ele>545.07</ele>
        <time>2021-05-23T11:59:15Z</time>
      </trkpt>
      <trkpt lat="43.47286" lon="2.37744">
        <ele>545.068</ele>
        <time>2021-05-23T11:59:17Z</time>
      </trkpt>
      <trkpt lat="43.47286" lon="2.37744">
        <ele>545.071</ele>
        <time>2021-05-23T11:59:19Z</time>
      </trkpt>
      <trkpt lat="43.47286" lon="2.37744">
        <ele>545.074</ele>
        <time>2021-05-23T11:59:21Z</time>
      </trkpt>
      <trkpt lat="43.47286" lon="2.37744">
        <ele>545.078</ele>
        <time>2021-05-23T11:59:23Z</time>
      </trkpt>
      <trkpt lat="43.47286" lon="2.37744">
        <ele>545.077</ele>
        <time>2021-05-23T11:59:25Z</time>
      </trkpt>
      <trkpt lat="43.47286" lon="2.37744">
        <ele>544.89</ele>
        <time>2021-05-23T11:59:27Z</time>
      </trkpt>
      <trkpt lat="43.47287" lon="2.37744">
        <ele>545.07</ele>
        <time>2021-05-23T11:59:29Z</time>
      </trkpt>
      <trkpt lat="43.47287" lon="2.37744">
        <ele>545.068</ele>
        <time>2021-05-23T11:59:31Z</time>
      </trkpt>
      <trkpt lat="43.47287" lon="2.37744">
        <ele>545.065</ele>
        <time>2021-05-23T11:59:33Z</time>
      </trkpt>
      <trkpt lat="43.47287" lon="2.37744">
        <ele>545.057</ele>
        <time>2021-05-23T11:59:35Z</time>
      </trkpt>
      <trkpt lat="43.47287" lon="2.37744">
        <ele>545.053</ele>
        <time>2021-05-23T11:59:37Z</time>
      </trkpt>
      <trkpt lat="43.47287" lon="2.37744">
        <ele>545.053</ele>
        <time>2021-05-23T11:59:38Z</time>
      </trkpt>
      <trkpt lat="43.47287" lon="2.37744">
        <ele>545.052</ele>
        <time>2021-05-23T11:59:41Z</time>
      </trkpt>
      <trkpt lat="43.47287" lon="2.37744">
        <ele>545.057</ele>
        <time>2021-05-23T11:59:43Z</time>
      </trkpt>
      <trkpt lat="43.47287" lon="2.37744">
        <ele>545.06</ele>
        <time>2021-05-23T11:59:45Z</time>
      </trkpt>
      <trkpt lat="43.47287" lon="2.37744">
        <ele>545.064</ele>
        <time>2021-05-23T11:59:47Z</time>
      </trkpt>
      <trkpt lat="43.47287" lon="2.37744">
        <ele>545.072</ele>
        <time>2021-05-23T11:59:49Z</time>
      </trkpt>
      <trkpt lat="43.47287" lon="2.37744">
        <ele>545.075</ele>
        <time>2021-05-23T11:59:51Z</time>
      </trkpt>
      <trkpt lat="43.47287" lon="2.37744">
        <ele>545.081</ele>
        <time>2021-05-23T11:59:53Z</time>
      </trkpt>
      <trkpt lat="43.47287" lon="2.37744">
        <ele>545.083</ele>
        <time>2021-05-23T11:59:55Z</time>
      </trkpt>
      <trkpt lat="43.47287" lon="2.37744">
        <ele>545.092</ele>
        <time>2021-05-23T11:59:57Z</time>
      </trkpt>
      <trkpt lat="43.47287" lon="2.37744">
        <ele>545.089</ele>
        <time>2021-05-23T11:59:59Z</time>
      </trkpt>
      <trkpt lat="43.47287" lon="2.37744">
        <ele>545.084</ele>
        <time>2021-05-23T12:00:01Z</time>
      </trkpt>
      <trkpt lat="43.47287" lon="2.37744">
        <ele>545.085</ele>
        <time>2021-05-23T12:00:03Z</time>
      </trkpt>
      <trkpt lat="43.47287" lon="2.37744">
        <ele>545.086</ele>
        <time>2021-05-23T12:00:05Z</time>
      </trkpt>
      <trkpt lat="43.47287" lon="2.37744">
        <ele>545.092</ele>
        <time>2021-05-23T12:00:07Z</time>
      </trkpt>
      <trkpt lat="43.47287" lon="2.37744">
        <ele>545.099</ele>
        <time>2021-05-23T12:00:09Z</time>
      </trkpt>
      <trkpt lat="43.47287" lon="2.37744">
        <ele>545.101</ele>
        <time>2021-05-23T12:00:11Z</time>
      </trkpt>
      <trkpt lat="43.47287" lon="2.37744">
        <ele>545.099</ele>
        <time>2021-05-23T12:00:13Z</time>
      </trkpt>
      <trkpt lat="43.47287" lon="2.37744">
        <ele>545.098</ele>
        <time>2021-05-23T12:00:15Z</time>
      </trkpt>
      <trkpt lat="43.47287" lon="2.37744">
        <ele>545.101</ele>
        <time>2021-05-23T12:00:17Z</time>
      </trkpt>
      <trkpt lat="43.47287" lon="2.37744">
        <ele>545.106</ele>
        <time>2021-05-23T12:00:19Z</time>
      </trkpt>
      <trkpt lat="43.47287" lon="2.37744">
        <ele>545.11</ele>
        <time>2021-05-23T12:00:21Z</time>
      </trkpt>
      <trkpt lat="43.47287" lon="2.37744">
        <ele>545.113</ele>
        <time>2021-05-23T12:00:23Z</time>
      </trkpt>
      <trkpt lat="43.47287" lon="2.37744">
        <ele>545.109</ele>
        <time>2021-05-23T12:00:25Z</time>
      </trkpt>
      <trkpt lat="43.47287" lon="2.37744">
        <ele>545.111</ele>
        <time>2021-05-23T12:00:27Z</time>
      </trkpt>
      <trkpt lat="43.47287" lon="2.37744">
        <ele>545.107</ele>
        <time>2021-05-23T12:00:29Z</time>
      </trkpt>
      <trkpt lat="43.47287" lon="2.37744">
        <ele>545.11</ele>
        <time>2021-05-23T12:00:31Z</time>
      </trkpt>
      <trkpt lat="43.47287" lon="2.37744">
        <ele>545.118</ele>
        <time>2021-05-23T12:00:33Z</time>
      </trkpt>
      <trkpt lat="43.47287" lon="2.37744">
        <ele>545.118</ele>
        <time>2021-05-23T12:00:35Z</time>
      </trkpt>
      <trkpt lat="43.47287" lon="2.37744">
        <ele>545.127</ele>
        <time>2021-05-23T12:00:37Z</time>
      </trkpt>
      <trkpt lat="43.47287" lon="2.37744">
        <ele>545.139</ele>
        <time>2021-05-23T12:00:39Z</time>
      </trkpt>
      <trkpt lat="43.47287" lon="2.37744">
        <ele>545.15</ele>
        <time>2021-05-23T12:00:41Z</time>
      </trkpt>
      <trkpt lat="43.47287" lon="2.37744">
        <ele>545.147</ele>
        <time>2021-05-23T12:00:43Z</time>
      </trkpt>
      <trkpt lat="43.47287" lon="2.37744">
        <ele>545.15</ele>
        <time>2021-05-23T12:00:45Z</time>
      </trkpt>
      <trkpt lat="43.47287" lon="2.37744">
        <ele>545.151</ele>
        <time>2021-05-23T12:00:47Z</time>
      </trkpt>
      <trkpt lat="43.47287" lon="2.37744">
        <ele>545.148</ele>
        <time>2021-05-23T12:00:49Z</time>
      </trkpt>
      <trkpt lat="43.47287" lon="2.37744">
        <ele>545.144</ele>
        <time>2021-05-23T12:00:51Z</time>
      </trkpt>
      <trkpt lat="43.47287" lon="2.37744">
        <ele>545.141</ele>
        <time>2021-05-23T12:00:53Z</time>
      </trkpt>
      <trkpt lat="43.47287" lon="2.37744">
        <ele>545.139</ele>
        <time>2021-05-23T12:00:55Z</time>
      </trkpt>
      <trkpt lat="43.47287" lon="2.37744">
        <ele>545.136</ele>
        <time>2021-05-23T12:00:57Z</time>
      </trkpt>
      <trkpt lat="43.47287" lon="2.37744">
        <ele>545.137</ele>
        <time>2021-05-23T12:00:59Z</time>
      </trkpt>
      <trkpt lat="43.47287" lon="2.37744">
        <ele>545.138</ele>
        <time>2021-05-23T12:01:01Z</time>
      </trkpt>
      <trkpt lat="43.47287" lon="2.37744">
        <ele>545.144</ele>
        <time>2021-05-23T12:01:03Z</time>
      </trkpt>
      <trkpt lat="43.47287" lon="2.37744">
        <ele>545.155</ele>
        <time>2021-05-23T12:01:05Z</time>
      </trkpt>
      <trkpt lat="43.47287" lon="2.37744">
        <ele>545.16</ele>
        <time>2021-05-23T12:01:07Z</time>
      </trkpt>
      <trkpt lat="43.47287" lon="2.37744">
        <ele>545.169</ele>
        <time>2021-05-23T12:01:09Z</time>
      </trkpt>
      <trkpt lat="43.47287" lon="2.37744">
        <ele>545.181</ele>
        <time>2021-05-23T12:01:11Z</time>
      </trkpt>
      <trkpt lat="43.47287" lon="2.37744">
        <ele>545.191</ele>
        <time>2021-05-23T12:01:13Z</time>
      </trkpt>
      <trkpt lat="43.47287" lon="2.37744">
        <ele>545.198</ele>
        <time>2021-05-23T12:01:15Z</time>
      </trkpt>
      <trkpt lat="43.47287" lon="2.37744">
        <ele>545.202</ele>
        <time>2021-05-23T12:01:17Z</time>
      </trkpt>
      <trkpt lat="43.47287" lon="2.37744">
        <ele>545.205</ele>
        <time>2021-05-23T12:01:19Z</time>
      </trkpt>
      <trkpt lat="43.47287" lon="2.37744">
        <ele>545.216</ele>
        <time>2021-05-23T12:01:21Z</time>
      </trkpt>
      <trkpt lat="43.47287" lon="2.37744">
        <ele>545.226</ele>
        <time>2021-05-23T12:01:23Z</time>
      </trkpt>
      <trkpt lat="43.47287" lon="2.37744">
        <ele>545.234</ele>
        <time>2021-05-23T12:01:25Z</time>
      </trkpt>
      <trkpt lat="43.47287" lon="2.37744">
        <ele>545.24</ele>
        <time>2021-05-23T12:01:27Z</time>
      </trkpt>
      <trkpt lat="43.47287" lon="2.37744">
        <ele>545.246</ele>
        <time>2021-05-23T12:01:29Z</time>
      </trkpt>
      <trkpt lat="43.47287" lon="2.37744">
        <ele>545.25</ele>
        <time>2021-05-23T12:01:31Z</time>
      </trkpt>
      <trkpt lat="43.47287" lon="2.37744">
        <ele>545.251</ele>
        <time>2021-05-23T12:01:33Z</time>
      </trkpt>
      <trkpt lat="43.47287" lon="2.37744">
        <ele>545.251</ele>
        <time>2021-05-23T12:01:35Z</time>
      </trkpt>
      <trkpt lat="43.47287" lon="2.37744">
        <ele>545.254</ele>
        <time>2021-05-23T12:01:37Z</time>
      </trkpt>
      <trkpt lat="43.47287" lon="2.37744">
        <ele>545.265</ele>
        <time>2021-05-23T12:01:39Z</time>
      </trkpt>
      <trkpt lat="43.47287" lon="2.37744">
        <ele>545.274</ele>
        <time>2021-05-23T12:01:41Z</time>
      </trkpt>
      <trkpt lat="43.47287" lon="2.37744">
        <ele>545.287</ele>
        <time>2021-05-23T12:01:43Z</time>
      </trkpt>
      <trkpt lat="43.47287" lon="2.37744">
        <ele>545.299</ele>
        <time>2021-05-23T12:01:45Z</time>
      </trkpt>
      <trkpt lat="43.47287" lon="2.37744">
        <ele>545.299</ele>
        <time>2021-05-23T12:01:47Z</time>
      </trkpt>
      <trkpt lat="43.47287" lon="2.37744">
        <ele>545.308</ele>
        <time>2021-05-23T12:01:49Z</time>
      </trkpt>
      <trkpt lat="43.47287" lon="2.37744">
        <ele>545.319</ele>
        <time>2021-05-23T12:01:51Z</time>
      </trkpt>
      <trkpt lat="43.47287" lon="2.37744">
        <ele>545.331</ele>
        <time>2021-05-23T12:01:53Z</time>
      </trkpt>
      <trkpt lat="43.47287" lon="2.37744">
        <ele>545.345</ele>
        <time>2021-05-23T12:01:55Z</time>
      </trkpt>
      <trkpt lat="43.47287" lon="2.37744">
        <ele>545.36</ele>
        <time>2021-05-23T12:01:57Z</time>
      </trkpt>
      <trkpt lat="43.47287" lon="2.37744">
        <ele>545.37</ele>
        <time>2021-05-23T12:01:59Z</time>
      </trkpt>
      <trkpt lat="43.47287" lon="2.37744">
        <ele>545.376</ele>
        <time>2021-05-23T12:02:01Z</time>
      </trkpt>
      <trkpt lat="43.47287" lon="2.37744">
        <ele>545.374</ele>
        <time>2021-05-23T12:02:03Z</time>
      </trkpt>
      <trkpt lat="43.47287" lon="2.37744">
        <ele>545.385</ele>
        <time>2021-05-23T12:02:05Z</time>
      </trkpt>
      <trkpt lat="43.47287" lon="2.37744">
        <ele>545.398</ele>
        <time>2021-05-23T12:02:07Z</time>
      </trkpt>
      <trkpt lat="43.47287" lon="2.37744">
        <ele>545.41</ele>
        <time>2021-05-23T12:02:09Z</time>
      </trkpt>
      <trkpt lat="43.47287" lon="2.37744">
        <ele>545.421</ele>
        <time>2021-05-23T12:02:11Z</time>
      </trkpt>
      <trkpt lat="43.47287" lon="2.37744">
        <ele>545.44</ele>
        <time>2021-05-23T12:02:13Z</time>
      </trkpt>
      <trkpt lat="43.47287" lon="2.37744">
        <ele>545.446</ele>
        <time>2021-05-23T12:02:15Z</time>
      </trkpt>
      <trkpt lat="43.47287" lon="2.37744">
        <ele>545.453</ele>
        <time>2021-05-23T12:02:17Z</time>
      </trkpt>
      <trkpt lat="43.47287" lon="2.37744">
        <ele>545.451</ele>
        <time>2021-05-23T12:02:19Z</time>
      </trkpt>
      <trkpt lat="43.47287" lon="2.37744">
        <ele>545.462</ele>
        <time>2021-05-23T12:02:21Z</time>
      </trkpt>
      <trkpt lat="43.47287" lon="2.37744">
        <ele>545.48</ele>
        <time>2021-05-23T12:02:23Z</time>
      </trkpt>
      <trkpt lat="43.47287" lon="2.37744">
        <ele>545.496</ele>
        <time>2021-05-23T12:02:25Z</time>
      </trkpt>
      <trkpt lat="43.47287" lon="2.37744">
        <ele>545.509</ele>
        <time>2021-05-23T12:02:27Z</time>
      </trkpt>
      <trkpt lat="43.47287" lon="2.37744">
        <ele>545.521</ele>
        <time>2021-05-23T12:02:29Z</time>
      </trkpt>
      <trkpt lat="43.47287" lon="2.37744">
        <ele>545.522</ele>
        <time>2021-05-23T12:02:31Z</time>
      </trkpt>
      <trkpt lat="43.47287" lon="2.37744">
        <ele>545.523</ele>
        <time>2021-05-23T12:02:33Z</time>
      </trkpt>
      <trkpt lat="43.47287" lon="2.37744">
        <ele>545.518</ele>
        <time>2021-05-23T12:02:35Z</time>
      </trkpt>
      <trkpt lat="43.47287" lon="2.37744">
        <ele>545.519</ele>
        <time>2021-05-23T12:02:37Z</time>
      </trkpt>
      <trkpt lat="43.47287" lon="2.37744">
        <ele>545.515</ele>
        <time>2021-05-23T12:02:39Z</time>
      </trkpt>
      <trkpt lat="43.47287" lon="2.37744">
        <ele>545.509</ele>
        <time>2021-05-23T12:02:41Z</time>
      </trkpt>
      <trkpt lat="43.47287" lon="2.37744">
        <ele>545.512</ele>
        <time>2021-05-23T12:02:43Z</time>
      </trkpt>
      <trkpt lat="43.47287" lon="2.37744">
        <ele>545.51</ele>
        <time>2021-05-23T12:02:45Z</time>
      </trkpt>
      <trkpt lat="43.47287" lon="2.37744">
        <ele>545.513</ele>
        <time>2021-05-23T12:02:47Z</time>
      </trkpt>
      <trkpt lat="43.47287" lon="2.37744">
        <ele>545.516</ele>
        <time>2021-05-23T12:02:49Z</time>
      </trkpt>
      <trkpt lat="43.47287" lon="2.37744">
        <ele>545.514</ele>
        <time>2021-05-23T12:02:51Z</time>
      </trkpt>
      <trkpt lat="43.47287" lon="2.37744">
        <ele>545.514</ele>
        <time>2021-05-23T12:02:53Z</time>
      </trkpt>
      <trkpt lat="43.47287" lon="2.37744">
        <ele>545.519</ele>
        <time>2021-05-23T12:02:55Z</time>
      </trkpt>
      <trkpt lat="43.47287" lon="2.37744">
        <ele>545.52</ele>
        <time>2021-05-23T12:02:57Z</time>
      </trkpt>
      <trkpt lat="43.47287" lon="2.37744">
        <ele>545.521</ele>
        <time>2021-05-23T12:02:59Z</time>
      </trkpt>
      <trkpt lat="43.47287" lon="2.37744">
        <ele>545.521</ele>
        <time>2021-05-23T12:03:01Z</time>
      </trkpt>
      <trkpt lat="43.47287" lon="2.37744">
        <ele>545.522</ele>
        <time>2021-05-23T12:03:03Z</time>
      </trkpt>
      <trkpt lat="43.47287" lon="2.37744">
        <ele>545.521</ele>
        <time>2021-05-23T12:03:05Z</time>
      </trkpt>
      <trkpt lat="43.47287" lon="2.37744">
        <ele>545.522</ele>
        <time>2021-05-23T12:03:07Z</time>
      </trkpt>
      <trkpt lat="43.47287" lon="2.37744">
        <ele>545.519</ele>
        <time>2021-05-23T12:03:09Z</time>
      </trkpt>
      <trkpt lat="43.47287" lon="2.37744">
        <ele>545.527</ele>
        <time>2021-05-23T12:03:11Z</time>
      </trkpt>
      <trkpt lat="43.47287" lon="2.37744">
        <ele>545.527</ele>
        <time>2021-05-23T12:03:13Z</time>
      </trkpt>
      <trkpt lat="43.47287" lon="2.37744">
        <ele>545.545</ele>
        <time>2021-05-23T12:03:15Z</time>
      </trkpt>
      <trkpt lat="43.47287" lon="2.37744">
        <ele>545.551</ele>
        <time>2021-05-23T12:03:17Z</time>
      </trkpt>
      <trkpt lat="43.47287" lon="2.37744">
        <ele>545.563</ele>
        <time>2021-05-23T12:03:19Z</time>
      </trkpt>
      <trkpt lat="43.47287" lon="2.37744">
        <ele>545.578</ele>
        <time>2021-05-23T12:03:21Z</time>
      </trkpt>
      <trkpt lat="43.47287" lon="2.37744">
        <ele>545.591</ele>
        <time>2021-05-23T12:03:23Z</time>
      </trkpt>
      <trkpt lat="43.47287" lon="2.37744">
        <ele>545.606</ele>
        <time>2021-05-23T12:03:25Z</time>
      </trkpt>
      <trkpt lat="43.47287" lon="2.37744">
        <ele>545.611</ele>
        <time>2021-05-23T12:03:27Z</time>
      </trkpt>
      <trkpt lat="43.47287" lon="2.37744">
        <ele>545.623</ele>
        <time>2021-05-23T12:03:29Z</time>
      </trkpt>
      <trkpt lat="43.47288" lon="2.37744">
        <ele>545.629</ele>
        <time>2021-05-23T12:03:31Z</time>
      </trkpt>
      <trkpt lat="43.47288" lon="2.37744">
        <ele>545.627</ele>
        <time>2021-05-23T12:03:33Z</time>
      </trkpt>
      <trkpt lat="43.47288" lon="2.37744">
        <ele>545.632</ele>
        <time>2021-05-23T12:03:35Z</time>
      </trkpt>
      <trkpt lat="43.47288" lon="2.37744">
        <ele>545.641</ele>
        <time>2021-05-23T12:03:37Z</time>
      </trkpt>
      <trkpt lat="43.47288" lon="2.37744">
        <ele>545.648</ele>
        <time>2021-05-23T12:03:39Z</time>
      </trkpt>
      <trkpt lat="43.47288" lon="2.37744">
        <ele>545.657</ele>
        <time>2021-05-23T12:03:41Z</time>
      </trkpt>
      <trkpt lat="43.47288" lon="2.37744">
        <ele>545.666</ele>
        <time>2021-05-23T12:03:43Z</time>
      </trkpt>
      <trkpt lat="43.47288" lon="2.37744">
        <ele>545.673</ele>
        <time>2021-05-23T12:03:45Z</time>
      </trkpt>
      <trkpt lat="43.47288" lon="2.37744">
        <ele>545.676</ele>
        <time>2021-05-23T12:03:47Z</time>
      </trkpt>
      <trkpt lat="43.47288" lon="2.37744">
        <ele>545.675</ele>
        <time>2021-05-23T12:03:49Z</time>
      </trkpt>
      <trkpt lat="43.47288" lon="2.37744">
        <ele>545.676</ele>
        <time>2021-05-23T12:03:51Z</time>
      </trkpt>
      <trkpt lat="43.47288" lon="2.37744">
        <ele>545.681</ele>
        <time>2021-05-23T12:03:53Z</time>
      </trkpt>
      <trkpt lat="43.47288" lon="2.37744">
        <ele>545.686</ele>
        <time>2021-05-23T12:03:55Z</time>
      </trkpt>
      <trkpt lat="43.47288" lon="2.37744">
        <ele>545.693</ele>
        <time>2021-05-23T12:03:57Z</time>
      </trkpt>
      <trkpt lat="43.47288" lon="2.37744">
        <ele>545.698</ele>
        <time>2021-05-23T12:03:59Z</time>
      </trkpt>
      <trkpt lat="43.47288" lon="2.37744">
        <ele>545.702</ele>
        <time>2021-05-23T12:04:01Z</time>
      </trkpt>
      <trkpt lat="43.47288" lon="2.37744">
        <ele>545.705</ele>
        <time>2021-05-23T12:04:03Z</time>
      </trkpt>
      <trkpt lat="43.47288" lon="2.37744">
        <ele>545.707</ele>
        <time>2021-05-23T12:04:05Z</time>
      </trkpt>
      <trkpt lat="43.47288" lon="2.37744">
        <ele>545.707</ele>
        <time>2021-05-23T12:04:07Z</time>
      </trkpt>
      <trkpt lat="43.47288" lon="2.37744">
        <ele>545.706</ele>
        <time>2021-05-23T12:04:09Z</time>
      </trkpt>
      <trkpt lat="43.47288" lon="2.37744">
        <ele>545.713</ele>
        <time>2021-05-23T12:04:11Z</time>
      </trkpt>
      <trkpt lat="43.47288" lon="2.37744">
        <ele>545.715</ele>
        <time>2021-05-23T12:04:13Z</time>
      </trkpt>
      <trkpt lat="43.47288" lon="2.37744">
        <ele>545.719</ele>
        <time>2021-05-23T12:04:15Z</time>
      </trkpt>
      <trkpt lat="43.47288" lon="2.37744">
        <ele>545.717</ele>
        <time>2021-05-23T12:04:17Z</time>
      </trkpt>
      <trkpt lat="43.47288" lon="2.37744">
        <ele>545.719</ele>
        <time>2021-05-23T12:04:19Z</time>
      </trkpt>
      <trkpt lat="43.47288" lon="2.37744">
        <ele>545.72</ele>
        <time>2021-05-23T12:04:21Z</time>
      </trkpt>
      <trkpt lat="43.47288" lon="2.37744">
        <ele>545.723</ele>
        <time>2021-05-23T12:04:23Z</time>
      </trkpt>
      <trkpt lat="43.47288" lon="2.37744">
        <ele>545.723</ele>
        <time>2021-05-23T12:04:25Z</time>
      </trkpt>
      <trkpt lat="43.47288" lon="2.37744">
        <ele>545.726</ele>
        <time>2021-05-23T12:04:27Z</time>
      </trkpt>
      <trkpt lat="43.47288" lon="2.37744">
        <ele>545.729</ele>
        <time>2021-05-23T12:04:29Z</time>
      </trkpt>
      <trkpt lat="43.47288" lon="2.37744">
        <ele>545.735</ele>
        <time>2021-05-23T12:04:31Z</time>
      </trkpt>
      <trkpt lat="43.47288" lon="2.37744">
        <ele>545.743</ele>
        <time>2021-05-23T12:04:33Z</time>
      </trkpt>
      <trkpt lat="43.47288" lon="2.37744">
        <ele>545.747</ele>
        <time>2021-05-23T12:04:35Z</time>
      </trkpt>
      <trkpt lat="43.47288" lon="2.37744">
        <ele>545.749</ele>
        <time>2021-05-23T12:04:37Z</time>
      </trkpt>
      <trkpt lat="43.47288" lon="2.37744">
        <ele>545.744</ele>
        <time>2021-05-23T12:04:39Z</time>
      </trkpt>
      <trkpt lat="43.47288" lon="2.37744">
        <ele>545.747</ele>
        <time>2021-05-23T12:04:41Z</time>
      </trkpt>
      <trkpt lat="43.47288" lon="2.37744">
        <ele>545.749</ele>
        <time>2021-05-23T12:04:43Z</time>
      </trkpt>
      <trkpt lat="43.47288" lon="2.37744">
        <ele>545.75</ele>
        <time>2021-05-23T12:04:45Z</time>
      </trkpt>
      <trkpt lat="43.47288" lon="2.37744">
        <ele>545.754</ele>
        <time>2021-05-23T12:04:47Z</time>
      </trkpt>
      <trkpt lat="43.47288" lon="2.37744">
        <ele>545.756</ele>
        <time>2021-05-23T12:04:49Z</time>
      </trkpt>
      <trkpt lat="43.47288" lon="2.37745">
        <ele>545.761</ele>
        <time>2021-05-23T12:04:51Z</time>
      </trkpt>
      <trkpt lat="43.47288" lon="2.37745">
        <ele>545.762</ele>
        <time>2021-05-23T12:04:53Z</time>
      </trkpt>
      <trkpt lat="43.47288" lon="2.37745">
        <ele>545.764</ele>
        <time>2021-05-23T12:04:55Z</time>
      </trkpt>
      <trkpt lat="43.47288" lon="2.37745">
        <ele>545.766</ele>
        <time>2021-05-23T12:04:57Z</time>
      </trkpt>
      <trkpt lat="43.47288" lon="2.37745">
        <ele>545.771</ele>
        <time>2021-05-23T12:04:59Z</time>
      </trkpt>
      <trkpt lat="43.47288" lon="2.37745">
        <ele>545.775</ele>
        <time>2021-05-23T12:05:01Z</time>
      </trkpt>
      <trkpt lat="43.47288" lon="2.37745">
        <ele>545.785</ele>
        <time>2021-05-23T12:05:03Z</time>
      </trkpt>
      <trkpt lat="43.47288" lon="2.37745">
        <ele>545.79</ele>
        <time>2021-05-23T12:05:05Z</time>
      </trkpt>
      <trkpt lat="43.47288" lon="2.37745">
        <ele>545.791</ele>
        <time>2021-05-23T12:05:07Z</time>
      </trkpt>
      <trkpt lat="43.47288" lon="2.37745">
        <ele>545.795</ele>
        <time>2021-05-23T12:05:09Z</time>
      </trkpt>
      <trkpt lat="43.47288" lon="2.37745">
        <ele>545.797</ele>
        <time>2021-05-23T12:05:11Z</time>
      </trkpt>
      <trkpt lat="43.47288" lon="2.37745">
        <ele>545.801</ele>
        <time>2021-05-23T12:05:13Z</time>
      </trkpt>
      <trkpt lat="43.47288" lon="2.37745">
        <ele>545.803</ele>
        <time>2021-05-23T12:05:15Z</time>
      </trkpt>
      <trkpt lat="43.47288" lon="2.37745">
        <ele>545.808</ele>
        <time>2021-05-23T12:05:17Z</time>
      </trkpt>
      <trkpt lat="43.47288" lon="2.37745">
        <ele>545.812</ele>
        <time>2021-05-23T12:05:19Z</time>
      </trkpt>
      <trkpt lat="43.47288" lon="2.37745">
        <ele>545.816</ele>
        <time>2021-05-23T12:05:21Z</time>
      </trkpt>
      <trkpt lat="43.47288" lon="2.37745">
        <ele>545.819</ele>
        <time>2021-05-23T12:05:23Z</time>
      </trkpt>
      <trkpt lat="43.47288" lon="2.37745">
        <ele>545.82</ele>
        <time>2021-05-23T12:05:25Z</time>
      </trkpt>
      <trkpt lat="43.47288" lon="2.37745">
        <ele>545.825</ele>
        <time>2021-05-23T12:05:27Z</time>
      </trkpt>
      <trkpt lat="43.47288" lon="2.37745">
        <ele>545.83</ele>
        <time>2021-05-23T12:05:29Z</time>
      </trkpt>
      <trkpt lat="43.47288" lon="2.37745">
        <ele>545.839</ele>
        <time>2021-05-23T12:05:31Z</time>
      </trkpt>
      <trkpt lat="43.47288" lon="2.37745">
        <ele>545.848</ele>
        <time>2021-05-23T12:05:33Z</time>
      </trkpt>
      <trkpt lat="43.47288" lon="2.37745">
        <ele>545.86</ele>
        <time>2021-05-23T12:05:35Z</time>
      </trkpt>
      <trkpt lat="43.47288" lon="2.37745">
        <ele>545.868</ele>
        <time>2021-05-23T12:05:37Z</time>
      </trkpt>
      <trkpt lat="43.47288" lon="2.37745">
        <ele>545.874</ele>
        <time>2021-05-23T12:05:39Z</time>
      </trkpt>
      <trkpt lat="43.47288" lon="2.37745">
        <ele>545.882</ele>
        <time>2021-05-23T12:05:41Z</time>
      </trkpt>
      <trkpt lat="43.47288" lon="2.37745">
        <ele>545.886</ele>
        <time>2021-05-23T12:05:43Z</time>
      </trkpt>
      <trkpt lat="43.47288" lon="2.37745">
        <ele>545.889</ele>
        <time>2021-05-23T12:05:45Z</time>
      </trkpt>
      <trkpt lat="43.47288" lon="2.37745">
        <ele>545.892</ele>
        <time>2021-05-23T12:05:47Z</time>
      </trkpt>
      <trkpt lat="43.47288" lon="2.37745">
        <ele>545.891</ele>
        <time>2021-05-23T12:05:49Z</time>
      </trkpt>
      <trkpt lat="43.47288" lon="2.37745">
        <ele>545.894</ele>
        <time>2021-05-23T12:05:51Z</time>
      </trkpt>
      <trkpt lat="43.47288" lon="2.37745">
        <ele>545.898</ele>
        <time>2021-05-23T12:05:53Z</time>
      </trkpt>
      <trkpt lat="43.47288" lon="2.37745">
        <ele>545.899</ele>
        <time>2021-05-23T12:05:55Z</time>
      </trkpt>
      <trkpt lat="43.47288" lon="2.37745">
        <ele>545.904</ele>
        <time>2021-05-23T12:05:57Z</time>
      </trkpt>
      <trkpt lat="43.47288" lon="2.37745">
        <ele>545.912</ele>
        <time>2021-05-23T12:05:59Z</time>
      </trkpt>
      <trkpt lat="43.47288" lon="2.37745">
        <ele>545.917</ele>
        <time>2021-05-23T12:06:01Z</time>
      </trkpt>
      <trkpt lat="43.47288" lon="2.37745">
        <ele>545.924</ele>
        <time>2021-05-23T12:06:03Z</time>
      </trkpt>
      <trkpt lat="43.47288" lon="2.37745">
        <ele>545.933</ele>
        <time>2021-05-23T12:06:05Z</time>
      </trkpt>
      <trkpt lat="43.47288" lon="2.37745">
        <ele>545.936</ele>
        <time>2021-05-23T12:06:07Z</time>
      </trkpt>
      <trkpt lat="43.47288" lon="2.37745">
        <ele>545.941</ele>
        <time>2021-05-23T12:06:09Z</time>
      </trkpt>
      <trkpt lat="43.47288" lon="2.37745">
        <ele>545.944</ele>
        <time>2021-05-23T12:06:11Z</time>
      </trkpt>
      <trkpt lat="43.47288" lon="2.37745">
        <ele>545.954</ele>
        <time>2021-05-23T12:06:13Z</time>
      </trkpt>
      <trkpt lat="43.47288" lon="2.37745">
        <ele>545.958</ele>
        <time>2021-05-23T12:06:15Z</time>
      </trkpt>
      <trkpt lat="43.47288" lon="2.37745">
        <ele>545.963</ele>
        <time>2021-05-23T12:06:17Z</time>
      </trkpt>
      <trkpt lat="43.47288" lon="2.37745">
        <ele>545.964</ele>
        <time>2021-05-23T12:06:19Z</time>
      </trkpt>
      <trkpt lat="43.47288" lon="2.37745">
        <ele>545.968</ele>
        <time>2021-05-23T12:06:21Z</time>
      </trkpt>
      <trkpt lat="43.47288" lon="2.37745">
        <ele>545.972</ele>
        <time>2021-05-23T12:06:23Z</time>
      </trkpt>
      <trkpt lat="43.47288" lon="2.37745">
        <ele>545.974</ele>
        <time>2021-05-23T12:06:25Z</time>
      </trkpt>
      <trkpt lat="43.47288" lon="2.37745">
        <ele>545.973</ele>
        <time>2021-05-23T12:06:27Z</time>
      </trkpt>
      <trkpt lat="43.47288" lon="2.37745">
        <ele>545.974</ele>
        <time>2021-05-23T12:06:29Z</time>
      </trkpt>
      <trkpt lat="43.47288" lon="2.37745">
        <ele>545.974</ele>
        <time>2021-05-23T12:06:31Z</time>
      </trkpt>
      <trkpt lat="43.47288" lon="2.37745">
        <ele>545.979</ele>
        <time>2021-05-23T12:06:33Z</time>
      </trkpt>
      <trkpt lat="43.47288" lon="2.37745">
        <ele>545.981</ele>
        <time>2021-05-23T12:06:35Z</time>
      </trkpt>
      <trkpt lat="43.47288" lon="2.37745">
        <ele>545.981</ele>
        <time>2021-05-23T12:06:37Z</time>
      </trkpt>
      <trkpt lat="43.47288" lon="2.37745">
        <ele>545.99</ele>
        <time>2021-05-23T12:06:39Z</time>
      </trkpt>
      <trkpt lat="43.47288" lon="2.37745">
        <ele>545.995</ele>
        <time>2021-05-23T12:06:41Z</time>
      </trkpt>
      <trkpt lat="43.47288" lon="2.37745">
        <ele>545.997</ele>
        <time>2021-05-23T12:06:43Z</time>
      </trkpt>
      <trkpt lat="43.47288" lon="2.37745">
        <ele>546.004</ele>
        <time>2021-05-23T12:06:45Z</time>
      </trkpt>
      <trkpt lat="43.47288" lon="2.37745">
        <ele>546.005</ele>
        <time>2021-05-23T12:06:47Z</time>
      </trkpt>
      <trkpt lat="43.47288" lon="2.37745">
        <ele>546.005</ele>
        <time>2021-05-23T12:06:49Z</time>
      </trkpt>
      <trkpt lat="43.47288" lon="2.37745">
        <ele>546.009</ele>
        <time>2021-05-23T12:06:51Z</time>
      </trkpt>
      <trkpt lat="43.47288" lon="2.37745">
        <ele>546.017</ele>
        <time>2021-05-23T12:06:53Z</time>
      </trkpt>
      <trkpt lat="43.47288" lon="2.37745">
        <ele>546.018</ele>
        <time>2021-05-23T12:06:55Z</time>
      </trkpt>
      <trkpt lat="43.47288" lon="2.37745">
        <ele>546.022</ele>
        <time>2021-05-23T12:06:57Z</time>
      </trkpt>
      <trkpt lat="43.47288" lon="2.37745">
        <ele>546.028</ele>
        <time>2021-05-23T12:06:59Z</time>
      </trkpt>
      <trkpt lat="43.47288" lon="2.37745">
        <ele>546.03</ele>
        <time>2021-05-23T12:07:01Z</time>
      </trkpt>
      <trkpt lat="43.47288" lon="2.37745">
        <ele>546.032</ele>
        <time>2021-05-23T12:07:03Z</time>
      </trkpt>
      <trkpt lat="43.47288" lon="2.37745">
        <ele>546.036</ele>
        <time>2021-05-23T12:07:05Z</time>
      </trkpt>
      <trkpt lat="43.47288" lon="2.37745">
        <ele>546.046</ele>
        <time>2021-05-23T12:07:07Z</time>
      </trkpt>
      <trkpt lat="43.47288" lon="2.37745">
        <ele>546.049</ele>
        <time>2021-05-23T12:07:09Z</time>
      </trkpt>
      <trkpt lat="43.47288" lon="2.37745">
        <ele>546.054</ele>
        <time>2021-05-23T12:07:11Z</time>
      </trkpt>
      <trkpt lat="43.47288" lon="2.37745">
        <ele>546.063</ele>
        <time>2021-05-23T12:07:13Z</time>
      </trkpt>
      <trkpt lat="43.47288" lon="2.37745">
        <ele>546.076</ele>
        <time>2021-05-23T12:07:15Z</time>
      </trkpt>
      <trkpt lat="43.47288" lon="2.37745">
        <ele>546.085</ele>
        <time>2021-05-23T12:07:17Z</time>
      </trkpt>
      <trkpt lat="43.47288" lon="2.37745">
        <ele>546.092</ele>
        <time>2021-05-23T12:07:19Z</time>
      </trkpt>
      <trkpt lat="43.47288" lon="2.37745">
        <ele>546.099</ele>
        <time>2021-05-23T12:07:21Z</time>
      </trkpt>
      <trkpt lat="43.47288" lon="2.37745">
        <ele>546.1</ele>
        <time>2021-05-23T12:07:23Z</time>
      </trkpt>
      <trkpt lat="43.47288" lon="2.37745">
        <ele>546.103</ele>
        <time>2021-05-23T12:07:25Z</time>
      </trkpt>
      <trkpt lat="43.47288" lon="2.37745">
        <ele>546.107</ele>
        <time>2021-05-23T12:07:26Z</time>
      </trkpt>
      <trkpt lat="43.47288" lon="2.37745">
        <ele>546.121</ele>
        <time>2021-05-23T12:07:29Z</time>
      </trkpt>
      <trkpt lat="43.47288" lon="2.37745">
        <ele>546.128</ele>
        <time>2021-05-23T12:07:31Z</time>
      </trkpt>
      <trkpt lat="43.47288" lon="2.37745">
        <ele>546.136</ele>
        <time>2021-05-23T12:07:33Z</time>
      </trkpt>
      <trkpt lat="43.47288" lon="2.37745">
        <ele>546.145</ele>
        <time>2021-05-23T12:07:35Z</time>
      </trkpt>
      <trkpt lat="43.47288" lon="2.37745">
        <ele>546.153</ele>
        <time>2021-05-23T12:07:37Z</time>
      </trkpt>
      <trkpt lat="43.47288" lon="2.37745">
        <ele>546.159</ele>
        <time>2021-05-23T12:07:39Z</time>
      </trkpt>
      <trkpt lat="43.47288" lon="2.37745">
        <ele>546.168</ele>
        <time>2021-05-23T12:07:41Z</time>
      </trkpt>
      <trkpt lat="43.47288" lon="2.37745">
        <ele>546.172</ele>
        <time>2021-05-23T12:07:43Z</time>
      </trkpt>
      <trkpt lat="43.47288" lon="2.37745">
        <ele>546.176</ele>
        <time>2021-05-23T12:07:45Z</time>
      </trkpt>
      <trkpt lat="43.47288" lon="2.37745">
        <ele>546.182</ele>
        <time>2021-05-23T12:07:47Z</time>
      </trkpt>
      <trkpt lat="43.47288" lon="2.37745">
        <ele>546.183</ele>
        <time>2021-05-23T12:07:49Z</time>
      </trkpt>
      <trkpt lat="43.47288" lon="2.37745">
        <ele>546.186</ele>
        <time>2021-05-23T12:07:51Z</time>
      </trkpt>
      <trkpt lat="43.47288" lon="2.37745">
        <ele>546.193</ele>
        <time>2021-05-23T12:07:53Z</time>
      </trkpt>
      <trkpt lat="43.47288" lon="2.37745">
        <ele>546.198</ele>
        <time>2021-05-23T12:07:55Z</time>
      </trkpt>
      <trkpt lat="43.47288" lon="2.37745">
        <ele>546.196</ele>
        <time>2021-05-23T12:07:57Z</time>
      </trkpt>
      <trkpt lat="43.47288" lon="2.37745">
        <ele>546.197</ele>
        <time>2021-05-23T12:07:59Z</time>
      </trkpt>
      <trkpt lat="43.47288" lon="2.37745">
        <ele>546.195</ele>
        <time>2021-05-23T12:08:01Z</time>
      </trkpt>
      <trkpt lat="43.47288" lon="2.37745">
        <ele>546.197</ele>
        <time>2021-05-23T12:08:03Z</time>
      </trkpt>
      <trkpt lat="43.47288" lon="2.37745">
        <ele>546.2</ele>
        <time>2021-05-23T12:08:05Z</time>
      </trkpt>
      <trkpt lat="43.47288" lon="2.37745">
        <ele>546.208</ele>
        <time>2021-05-23T12:08:07Z</time>
      </trkpt>
      <trkpt lat="43.47288" lon="2.37745">
        <ele>546.213</ele>
        <time>2021-05-23T12:08:09Z</time>
      </trkpt>
      <trkpt lat="43.47288" lon="2.37745">
        <ele>546.214</ele>
        <time>2021-05-23T12:08:11Z</time>
      </trkpt>
      <trkpt lat="43.47288" lon="2.37745">
        <ele>546.214</ele>
        <time>2021-05-23T12:08:13Z</time>
      </trkpt>
      <trkpt lat="43.47288" lon="2.37745">
        <ele>546.209</ele>
        <time>2021-05-23T12:08:15Z</time>
      </trkpt>
      <trkpt lat="43.47288" lon="2.37745">
        <ele>546.209</ele>
        <time>2021-05-23T12:08:17Z</time>
      </trkpt>
      <trkpt lat="43.47288" lon="2.37745">
        <ele>546.206</ele>
        <time>2021-05-23T12:08:19Z</time>
      </trkpt>
      <trkpt lat="43.47288" lon="2.37745">
        <ele>546.208</ele>
        <time>2021-05-23T12:08:21Z</time>
      </trkpt>
      <trkpt lat="43.47288" lon="2.37745">
        <ele>546.208</ele>
        <time>2021-05-23T12:08:23Z</time>
      </trkpt>
      <trkpt lat="43.47288" lon="2.37745">
        <ele>546.209</ele>
        <time>2021-05-23T12:08:25Z</time>
      </trkpt>
      <trkpt lat="43.47288" lon="2.37745">
        <ele>546.21</ele>
        <time>2021-05-23T12:08:27Z</time>
      </trkpt>
      <trkpt lat="43.47288" lon="2.37745">
        <ele>546.214</ele>
        <time>2021-05-23T12:08:29Z</time>
      </trkpt>
      <trkpt lat="43.47288" lon="2.37745">
        <ele>546.22</ele>
        <time>2021-05-23T12:08:31Z</time>
      </trkpt>
      <trkpt lat="43.47288" lon="2.37745">
        <ele>546.219</ele>
        <time>2021-05-23T12:08:33Z</time>
      </trkpt>
      <trkpt lat="43.47288" lon="2.37745">
        <ele>546.225</ele>
        <time>2021-05-23T12:08:35Z</time>
      </trkpt>
      <trkpt lat="43.47288" lon="2.37745">
        <ele>546.228</ele>
        <time>2021-05-23T12:08:37Z</time>
      </trkpt>
      <trkpt lat="43.47288" lon="2.37745">
        <ele>546.23</ele>
        <time>2021-05-23T12:08:39Z</time>
      </trkpt>
      <trkpt lat="43.47288" lon="2.37745">
        <ele>546.235</ele>
        <time>2021-05-23T12:08:41Z</time>
      </trkpt>
      <trkpt lat="43.47288" lon="2.37745">
        <ele>546.234</ele>
        <time>2021-05-23T12:08:43Z</time>
      </trkpt>
      <trkpt lat="43.47288" lon="2.37745">
        <ele>546.233</ele>
        <time>2021-05-23T12:08:45Z</time>
      </trkpt>
      <trkpt lat="43.47288" lon="2.37745">
        <ele>546.232</ele>
        <time>2021-05-23T12:08:47Z</time>
      </trkpt>
      <trkpt lat="43.47288" lon="2.37745">
        <ele>546.234</ele>
        <time>2021-05-23T12:08:49Z</time>
      </trkpt>
      <trkpt lat="43.47288" lon="2.37745">
        <ele>546.234</ele>
        <time>2021-05-23T12:08:51Z</time>
      </trkpt>
      <trkpt lat="43.47288" lon="2.37745">
        <ele>546.235</ele>
        <time>2021-05-23T12:08:53Z</time>
      </trkpt>
      <trkpt lat="43.47288" lon="2.37745">
        <ele>546.241</ele>
        <time>2021-05-23T12:08:55Z</time>
      </trkpt>
      <trkpt lat="43.47288" lon="2.37745">
        <ele>546.249</ele>
        <time>2021-05-23T12:08:57Z</time>
      </trkpt>
      <trkpt lat="43.47288" lon="2.37745">
        <ele>546.253</ele>
        <time>2021-05-23T12:08:59Z</time>
      </trkpt>
      <trkpt lat="43.47288" lon="2.37745">
        <ele>546.254</ele>
        <time>2021-05-23T12:09:01Z</time>
      </trkpt>
      <trkpt lat="43.47288" lon="2.37745">
        <ele>546.257</ele>
        <time>2021-05-23T12:09:03Z</time>
      </trkpt>
      <trkpt lat="43.47288" lon="2.37745">
        <ele>546.258</ele>
        <time>2021-05-23T12:09:05Z</time>
      </trkpt>
      <trkpt lat="43.47288" lon="2.37745">
        <ele>546.264</ele>
        <time>2021-05-23T12:09:07Z</time>
      </trkpt>
      <trkpt lat="43.47288" lon="2.37745">
        <ele>546.267</ele>
        <time>2021-05-23T12:09:09Z</time>
      </trkpt>
      <trkpt lat="43.47288" lon="2.37745">
        <ele>546.27</ele>
        <time>2021-05-23T12:09:11Z</time>
      </trkpt>
      <trkpt lat="43.47288" lon="2.37745">
        <ele>546.269</ele>
        <time>2021-05-23T12:09:13Z</time>
      </trkpt>
      <trkpt lat="43.47288" lon="2.37745">
        <ele>546.272</ele>
        <time>2021-05-23T12:09:15Z</time>
      </trkpt>
      <trkpt lat="43.47288" lon="2.37745">
        <ele>546.277</ele>
        <time>2021-05-23T12:09:17Z</time>
      </trkpt>
      <trkpt lat="43.47288" lon="2.37745">
        <ele>546.281</ele>
        <time>2021-05-23T12:09:19Z</time>
      </trkpt>
      <trkpt lat="43.47288" lon="2.37745">
        <ele>546.286</ele>
        <time>2021-05-23T12:09:21Z</time>
      </trkpt>
      <trkpt lat="43.47288" lon="2.37745">
        <ele>546.291</ele>
        <time>2021-05-23T12:09:23Z</time>
      </trkpt>
      <trkpt lat="43.47288" lon="2.37745">
        <ele>546.299</ele>
        <time>2021-05-23T12:09:25Z</time>
      </trkpt>
      <trkpt lat="43.47288" lon="2.37745">
        <ele>546.305</ele>
        <time>2021-05-23T12:09:27Z</time>
      </trkpt>
      <trkpt lat="43.47288" lon="2.37745">
        <ele>546.306</ele>
        <time>2021-05-23T12:09:29Z</time>
      </trkpt>
      <trkpt lat="43.47288" lon="2.37745">
        <ele>546.311</ele>
        <time>2021-05-23T12:09:31Z</time>
      </trkpt>
      <trkpt lat="43.47288" lon="2.37745">
        <ele>546.317</ele>
        <time>2021-05-23T12:09:33Z</time>
      </trkpt>
      <trkpt lat="43.47288" lon="2.37745">
        <ele>546.321</ele>
        <time>2021-05-23T12:09:35Z</time>
      </trkpt>
      <trkpt lat="43.47288" lon="2.37745">
        <ele>546.332</ele>
        <time>2021-05-23T12:09:37Z</time>
      </trkpt>
      <trkpt lat="43.47288" lon="2.37745">
        <ele>546.341</ele>
        <time>2021-05-23T12:09:39Z</time>
      </trkpt>
      <trkpt lat="43.47288" lon="2.37745">
        <ele>546.343</ele>
        <time>2021-05-23T12:09:41Z</time>
      </trkpt>
      <trkpt lat="43.47288" lon="2.37745">
        <ele>546.348</ele>
        <time>2021-05-23T12:09:43Z</time>
      </trkpt>
      <trkpt lat="43.47288" lon="2.37745">
        <ele>546.355</ele>
        <time>2021-05-23T12:09:45Z</time>
      </trkpt>
      <trkpt lat="43.47288" lon="2.37745">
        <ele>546.365</ele>
        <time>2021-05-23T12:09:47Z</time>
      </trkpt>
      <trkpt lat="43.47288" lon="2.37745">
        <ele>546.372</ele>
        <time>2021-05-23T12:09:49Z</time>
      </trkpt>
      <trkpt lat="43.47288" lon="2.37745">
        <ele>546.375</ele>
        <time>2021-05-23T12:09:51Z</time>
      </trkpt>
      <trkpt lat="43.47288" lon="2.37745">
        <ele>546.381</ele>
        <time>2021-05-23T12:09:53Z</time>
      </trkpt>
      <trkpt lat="43.47288" lon="2.37745">
        <ele>546.388</ele>
        <time>2021-05-23T12:09:55Z</time>
      </trkpt>
      <trkpt lat="43.47288" lon="2.37745">
        <ele>546.392</ele>
        <time>2021-05-23T12:09:57Z</time>
      </trkpt>
      <trkpt lat="43.47288" lon="2.37745">
        <ele>546.394</ele>
        <time>2021-05-23T12:09:59Z</time>
      </trkpt>
      <trkpt lat="43.47288" lon="2.37745">
        <ele>546.399</ele>
        <time>2021-05-23T12:10:01Z</time>
      </trkpt>
      <trkpt lat="43.47288" lon="2.37745">
        <ele>546.401</ele>
        <time>2021-05-23T12:10:03Z</time>
      </trkpt>
      <trkpt lat="43.47288" lon="2.37745">
        <ele>546.404</ele>
        <time>2021-05-23T12:10:05Z</time>
      </trkpt>
      <trkpt lat="43.47288" lon="2.37745">
        <ele>546.402</ele>
        <time>2021-05-23T12:10:07Z</time>
      </trkpt>
      <trkpt lat="43.47288" lon="2.37745">
        <ele>546.407</ele>
        <time>2021-05-23T12:10:09Z</time>
      </trkpt>
      <trkpt lat="43.47288" lon="2.37745">
        <ele>546.411</ele>
        <time>2021-05-23T12:10:11Z</time>
      </trkpt>
      <trkpt lat="43.47288" lon="2.37745">
        <ele>546.41</ele>
        <time>2021-05-23T12:10:13Z</time>
      </trkpt>
      <trkpt lat="43.47288" lon="2.37745">
        <ele>546.41</ele>
        <time>2021-05-23T12:10:15Z</time>
      </trkpt>
      <trkpt lat="43.47288" lon="2.37745">
        <ele>546.413</ele>
        <time>2021-05-23T12:10:17Z</time>
      </trkpt>
      <trkpt lat="43.47288" lon="2.37745">
        <ele>546.414</ele>
        <time>2021-05-23T12:10:19Z</time>
      </trkpt>
      <trkpt lat="43.47288" lon="2.37745">
        <ele>546.412</ele>
        <time>2021-05-23T12:10:21Z</time>
      </trkpt>
      <trkpt lat="43.47288" lon="2.37745">
        <ele>546.407</ele>
        <time>2021-05-23T12:10:23Z</time>
      </trkpt>
      <trkpt lat="43.47288" lon="2.37745">
        <ele>546.407</ele>
        <time>2021-05-23T12:10:25Z</time>
      </trkpt>
      <trkpt lat="43.47288" lon="2.37745">
        <ele>546.407</ele>
        <time>2021-05-23T12:10:27Z</time>
      </trkpt>
      <trkpt lat="43.47288" lon="2.37745">
        <ele>546.411</ele>
        <time>2021-05-23T12:10:29Z</time>
      </trkpt>
      <trkpt lat="43.47288" lon="2.37745">
        <ele>546.413</ele>
        <time>2021-05-23T12:10:31Z</time>
      </trkpt>
      <trkpt lat="43.47288" lon="2.37745">
        <ele>546.416</ele>
        <time>2021-05-23T12:10:33Z</time>
      </trkpt>
      <trkpt lat="43.47288" lon="2.37745">
        <ele>546.42</ele>
        <time>2021-05-23T12:10:35Z</time>
      </trkpt>
      <trkpt lat="43.47288" lon="2.37745">
        <ele>546.424</ele>
        <time>2021-05-23T12:10:37Z</time>
      </trkpt>
      <trkpt lat="43.47288" lon="2.37745">
        <ele>546.43</ele>
        <time>2021-05-23T12:10:39Z</time>
      </trkpt>
      <trkpt lat="43.47288" lon="2.37745">
        <ele>546.439</ele>
        <time>2021-05-23T12:10:41Z</time>
      </trkpt>
      <trkpt lat="43.47288" lon="2.37745">
        <ele>546.446</ele>
        <time>2021-05-23T12:10:43Z</time>
      </trkpt>
      <trkpt lat="43.47288" lon="2.37745">
        <ele>546.451</ele>
        <time>2021-05-23T12:10:45Z</time>
      </trkpt>
      <trkpt lat="43.47288" lon="2.37745">
        <ele>546.458</ele>
        <time>2021-05-23T12:10:47Z</time>
      </trkpt>
      <trkpt lat="43.47288" lon="2.37745">
        <ele>546.465</ele>
        <time>2021-05-23T12:10:49Z</time>
      </trkpt>
      <trkpt lat="43.47288" lon="2.37745">
        <ele>546.475</ele>
        <time>2021-05-23T12:10:51Z</time>
      </trkpt>
      <trkpt lat="43.47288" lon="2.37745">
        <ele>546.48</ele>
        <time>2021-05-23T12:10:53Z</time>
      </trkpt>
      <trkpt lat="43.47288" lon="2.37745">
        <ele>546.484</ele>
        <time>2021-05-23T12:10:55Z</time>
      </trkpt>
      <trkpt lat="43.47288" lon="2.37745">
        <ele>546.489</ele>
        <time>2021-05-23T12:10:57Z</time>
      </trkpt>
      <trkpt lat="43.47288" lon="2.37745">
        <ele>546.493</ele>
        <time>2021-05-23T12:10:59Z</time>
      </trkpt>
      <trkpt lat="43.47288" lon="2.37745">
        <ele>546.495</ele>
        <time>2021-05-23T12:11:01Z</time>
      </trkpt>
      <trkpt lat="43.47288" lon="2.37745">
        <ele>546.5</ele>
        <time>2021-05-23T12:11:03Z</time>
      </trkpt>
      <trkpt lat="43.47288" lon="2.37745">
        <ele>546.502</ele>
        <time>2021-05-23T12:11:05Z</time>
      </trkpt>
      <trkpt lat="43.47288" lon="2.37745">
        <ele>546.502</ele>
        <time>2021-05-23T12:11:07Z</time>
      </trkpt>
      <trkpt lat="43.47288" lon="2.37745">
        <ele>546.507</ele>
        <time>2021-05-23T12:11:09Z</time>
      </trkpt>
      <trkpt lat="43.47288" lon="2.37745">
        <ele>546.51</ele>
        <time>2021-05-23T12:11:11Z</time>
      </trkpt>
      <trkpt lat="43.47288" lon="2.37745">
        <ele>546.742</ele>
        <time>2021-05-23T12:11:13Z</time>
      </trkpt>
      <trkpt lat="43.47288" lon="2.37745">
        <ele>547.115</ele>
        <time>2021-05-23T12:11:15Z</time>
      </trkpt>
      <trkpt lat="43.47288" lon="2.37745">
        <ele>547.118</ele>
        <time>2021-05-23T12:11:17Z</time>
      </trkpt>
      <trkpt lat="43.47288" lon="2.37745">
        <ele>547.119</ele>
        <time>2021-05-23T12:11:19Z</time>
      </trkpt>
      <trkpt lat="43.47288" lon="2.37745">
        <ele>547.119</ele>
        <time>2021-05-23T12:11:21Z</time>
      </trkpt>
      <trkpt lat="43.47288" lon="2.37745">
        <ele>547.126</ele>
        <time>2021-05-23T12:11:23Z</time>
      </trkpt>
      <trkpt lat="43.47288" lon="2.37745">
        <ele>547.131</ele>
        <time>2021-05-23T12:11:25Z</time>
      </trkpt>
      <trkpt lat="43.47288" lon="2.37745">
        <ele>547.136</ele>
        <time>2021-05-23T12:11:27Z</time>
      </trkpt>
      <trkpt lat="43.47288" lon="2.37745">
        <ele>547.139</ele>
        <time>2021-05-23T12:11:29Z</time>
      </trkpt>
      <trkpt lat="43.47288" lon="2.37745">
        <ele>547.138</ele>
        <time>2021-05-23T12:11:31Z</time>
      </trkpt>
      <trkpt lat="43.47288" lon="2.37745">
        <ele>547.133</ele>
        <time>2021-05-23T12:11:33Z</time>
      </trkpt>
      <trkpt lat="43.47288" lon="2.37745">
        <ele>547.19</ele>
        <time>2021-05-23T12:11:35Z</time>
      </trkpt>
      <trkpt lat="43.47288" lon="2.37745">
        <ele>547.229</ele>
        <time>2021-05-23T12:11:37Z</time>
      </trkpt>
      <trkpt lat="43.47288" lon="2.37745">
        <ele>547.231</ele>
        <time>2021-05-23T12:11:39Z</time>
      </trkpt>
      <trkpt lat="43.47288" lon="2.37745">
        <ele>547.227</ele>
        <time>2021-05-23T12:11:41Z</time>
      </trkpt>
      <trkpt lat="43.47288" lon="2.37745">
        <ele>547.227</ele>
        <time>2021-05-23T12:11:43Z</time>
      </trkpt>
      <trkpt lat="43.47288" lon="2.37745">
        <ele>547.229</ele>
        <time>2021-05-23T12:11:45Z</time>
      </trkpt>
      <trkpt lat="43.47288" lon="2.37745">
        <ele>547.23</ele>
        <time>2021-05-23T12:11:47Z</time>
      </trkpt>
      <trkpt lat="43.47288" lon="2.37745">
        <ele>547.23</ele>
        <time>2021-05-23T12:11:49Z</time>
      </trkpt>
      <trkpt lat="43.47288" lon="2.37745">
        <ele>547.23</ele>
        <time>2021-05-23T12:11:51Z</time>
      </trkpt>
      <trkpt lat="43.47288" lon="2.37745">
        <ele>547.81</ele>
        <time>2021-05-23T12:11:53Z</time>
      </trkpt>
      <trkpt lat="43.47288" lon="2.37745">
        <ele>547.823</ele>
        <time>2021-05-23T12:11:55Z</time>
      </trkpt>
      <trkpt lat="43.47288" lon="2.37745">
        <ele>547.822</ele>
        <time>2021-05-23T12:11:57Z</time>
      </trkpt>
      <trkpt lat="43.47288" lon="2.37745">
        <ele>547.815</ele>
        <time>2021-05-23T12:11:59Z</time>
      </trkpt>
      <trkpt lat="43.47288" lon="2.37745">
        <ele>547.815</ele>
        <time>2021-05-23T12:12:01Z</time>
      </trkpt>
      <trkpt lat="43.47288" lon="2.37745">
        <ele>547.816</ele>
        <time>2021-05-23T12:12:03Z</time>
      </trkpt>
      <trkpt lat="43.47288" lon="2.37745">
        <ele>547.822</ele>
        <time>2021-05-23T12:12:05Z</time>
      </trkpt>
      <trkpt lat="43.47288" lon="2.37745">
        <ele>547.823</ele>
        <time>2021-05-23T12:12:07Z</time>
      </trkpt>
      <trkpt lat="43.47288" lon="2.37745">
        <ele>547.82</ele>
        <time>2021-05-23T12:12:09Z</time>
      </trkpt>
      <trkpt lat="43.47288" lon="2.37745">
        <ele>547.818</ele>
        <time>2021-05-23T12:12:11Z</time>
      </trkpt>
      <trkpt lat="43.47288" lon="2.37745">
        <ele>547.817</ele>
        <time>2021-05-23T12:12:13Z</time>
      </trkpt>
      <trkpt lat="43.47288" lon="2.37745">
        <ele>547.827</ele>
        <time>2021-05-23T12:12:15Z</time>
      </trkpt>
      <trkpt lat="43.47288" lon="2.37745">
        <ele>547.85</ele>
        <time>2021-05-23T12:12:17Z</time>
      </trkpt>
      <trkpt lat="43.47288" lon="2.37745">
        <ele>547.876</ele>
        <time>2021-05-23T12:12:19Z</time>
      </trkpt>
      <trkpt lat="43.47288" lon="2.37745">
        <ele>547.905</ele>
        <time>2021-05-23T12:12:21Z</time>
      </trkpt>
      <trkpt lat="43.47288" lon="2.37745">
        <ele>547.926</ele>
        <time>2021-05-23T12:12:23Z</time>
      </trkpt>
      <trkpt lat="43.47288" lon="2.37745">
        <ele>547.931</ele>
        <time>2021-05-23T12:12:25Z</time>
      </trkpt>
      <trkpt lat="43.47288" lon="2.37745">
        <ele>547.938</ele>
        <time>2021-05-23T12:12:27Z</time>
      </trkpt>
      <trkpt lat="43.47288" lon="2.37745">
        <ele>547.943</ele>
        <time>2021-05-23T12:12:29Z</time>
      </trkpt>
      <trkpt lat="43.47288" lon="2.37745">
        <ele>547.946</ele>
        <time>2021-05-23T12:12:31Z</time>
      </trkpt>
      <trkpt lat="43.47288" lon="2.37745">
        <ele>547.948</ele>
        <time>2021-05-23T12:12:33Z</time>
      </trkpt>
      <trkpt lat="43.47288" lon="2.37745">
        <ele>547.952</ele>
        <time>2021-05-23T12:12:35Z</time>
      </trkpt>
      <trkpt lat="43.47288" lon="2.37745">
        <ele>547.954</ele>
        <time>2021-05-23T12:12:37Z</time>
      </trkpt>
      <trkpt lat="43.47288" lon="2.37745">
        <ele>547.958</ele>
        <time>2021-05-23T12:12:39Z</time>
      </trkpt>
      <trkpt lat="43.47288" lon="2.37745">
        <ele>547.962</ele>
        <time>2021-05-23T12:12:41Z</time>
      </trkpt>
      <trkpt lat="43.47288" lon="2.37745">
        <ele>547.966</ele>
        <time>2021-05-23T12:12:43Z</time>
      </trkpt>
      <trkpt lat="43.47288" lon="2.37745">
        <ele>547.967</ele>
        <time>2021-05-23T12:12:45Z</time>
      </trkpt>
      <trkpt lat="43.47288" lon="2.37745">
        <ele>547.968</ele>
        <time>2021-05-23T12:12:47Z</time>
      </trkpt>
      <trkpt lat="43.47288" lon="2.37745">
        <ele>547.97</ele>
        <time>2021-05-23T12:12:49Z</time>
      </trkpt>
      <trkpt lat="43.47288" lon="2.37745">
        <ele>547.973</ele>
        <time>2021-05-23T12:12:51Z</time>
      </trkpt>
      <trkpt lat="43.47288" lon="2.37745">
        <ele>547.971</ele>
        <time>2021-05-23T12:12:53Z</time>
      </trkpt>
      <trkpt lat="43.47288" lon="2.37745">
        <ele>547.974</ele>
        <time>2021-05-23T12:12:55Z</time>
      </trkpt>
      <trkpt lat="43.47288" lon="2.37745">
        <ele>547.976</ele>
        <time>2021-05-23T12:12:57Z</time>
      </trkpt>
      <trkpt lat="43.47288" lon="2.37745">
        <ele>547.977</ele>
        <time>2021-05-23T12:12:59Z</time>
      </trkpt>
      <trkpt lat="43.47288" lon="2.37745">
        <ele>548.225</ele>
        <time>2021-05-23T12:13:01Z</time>
      </trkpt>
      <trkpt lat="43.47288" lon="2.37745">
        <ele>548.23</ele>
        <time>2021-05-23T12:13:03Z</time>
      </trkpt>
      <trkpt lat="43.47288" lon="2.37745">
        <ele>548.235</ele>
        <time>2021-05-23T12:13:05Z</time>
      </trkpt>
      <trkpt lat="43.47288" lon="2.37745">
        <ele>548.238</ele>
        <time>2021-05-23T12:13:07Z</time>
      </trkpt>
      <trkpt lat="43.47288" lon="2.37745">
        <ele>548.245</ele>
        <time>2021-05-23T12:13:09Z</time>
      </trkpt>
      <trkpt lat="43.47288" lon="2.37745">
        <ele>548.245</ele>
        <time>2021-05-23T12:13:11Z</time>
      </trkpt>
      <trkpt lat="43.47288" lon="2.37745">
        <ele>548.254</ele>
        <time>2021-05-23T12:13:13Z</time>
      </trkpt>
      <trkpt lat="43.47288" lon="2.37745">
        <ele>548.26</ele>
        <time>2021-05-23T12:13:15Z</time>
      </trkpt>
      <trkpt lat="43.47288" lon="2.37745">
        <ele>548.268</ele>
        <time>2021-05-23T12:13:17Z</time>
      </trkpt>
      <trkpt lat="43.47288" lon="2.37745">
        <ele>548.27</ele>
        <time>2021-05-23T12:13:19Z</time>
      </trkpt>
      <trkpt lat="43.47288" lon="2.37745">
        <ele>548.276</ele>
        <time>2021-05-23T12:13:21Z</time>
      </trkpt>
      <trkpt lat="43.47288" lon="2.37745">
        <ele>548.279</ele>
        <time>2021-05-23T12:13:23Z</time>
      </trkpt>
      <trkpt lat="43.47288" lon="2.37745">
        <ele>548.278</ele>
        <time>2021-05-23T12:13:25Z</time>
      </trkpt>
      <trkpt lat="43.47288" lon="2.37745">
        <ele>548.278</ele>
        <time>2021-05-23T12:13:27Z</time>
      </trkpt>
      <trkpt lat="43.47288" lon="2.37745">
        <ele>548.28</ele>
        <time>2021-05-23T12:13:29Z</time>
      </trkpt>
      <trkpt lat="43.47288" lon="2.37745">
        <ele>548.283</ele>
        <time>2021-05-23T12:13:31Z</time>
      </trkpt>
      <trkpt lat="43.47288" lon="2.37745">
        <ele>548.286</ele>
        <time>2021-05-23T12:13:33Z</time>
      </trkpt>
      <trkpt lat="43.47288" lon="2.37745">
        <ele>548.289</ele>
        <time>2021-05-23T12:13:35Z</time>
      </trkpt>
      <trkpt lat="43.47288" lon="2.37745">
        <ele>548.288</ele>
        <time>2021-05-23T12:13:37Z</time>
      </trkpt>
      <trkpt lat="43.47288" lon="2.37745">
        <ele>548.29</ele>
        <time>2021-05-23T12:13:39Z</time>
      </trkpt>
      <trkpt lat="43.47288" lon="2.37745">
        <ele>548.293</ele>
        <time>2021-05-23T12:13:41Z</time>
      </trkpt>
      <trkpt lat="43.47288" lon="2.37745">
        <ele>548.295</ele>
        <time>2021-05-23T12:13:43Z</time>
      </trkpt>
      <trkpt lat="43.47288" lon="2.37745">
        <ele>548.301</ele>
        <time>2021-05-23T12:13:45Z</time>
      </trkpt>
      <trkpt lat="43.47288" lon="2.37745">
        <ele>548.308</ele>
        <time>2021-05-23T12:13:47Z</time>
      </trkpt>
      <trkpt lat="43.47288" lon="2.37745">
        <ele>548.312</ele>
        <time>2021-05-23T12:13:49Z</time>
      </trkpt>
      <trkpt lat="43.47288" lon="2.37745">
        <ele>548.314</ele>
        <time>2021-05-23T12:13:51Z</time>
      </trkpt>
      <trkpt lat="43.47288" lon="2.37745">
        <ele>548.317</ele>
        <time>2021-05-23T12:13:53Z</time>
      </trkpt>
      <trkpt lat="43.47288" lon="2.37745">
        <ele>548.322</ele>
        <time>2021-05-23T12:13:55Z</time>
      </trkpt>
      <trkpt lat="43.47288" lon="2.37745">
        <ele>548.324</ele>
        <time>2021-05-23T12:13:57Z</time>
      </trkpt>
      <trkpt lat="43.47288" lon="2.37745">
        <ele>547.938</ele>
        <time>2021-05-23T12:13:59Z</time>
      </trkpt>
      <trkpt lat="43.47287" lon="2.37746">
        <ele>548.364</ele>
        <time>2021-05-23T12:14:01Z</time>
      </trkpt>
      <trkpt lat="43.47287" lon="2.37746">
        <ele>548.383</ele>
        <time>2021-05-23T12:14:03Z</time>
      </trkpt>
      <trkpt lat="43.47287" lon="2.37746">
        <ele>548.393</ele>
        <time>2021-05-23T12:14:05Z</time>
      </trkpt>
      <trkpt lat="43.47287" lon="2.37746">
        <ele>548.405</ele>
        <time>2021-05-23T12:14:07Z</time>
      </trkpt>
      <trkpt lat="43.47287" lon="2.37746">
        <ele>548.41</ele>
        <time>2021-05-23T12:14:09Z</time>
      </trkpt>
      <trkpt lat="43.47287" lon="2.37746">
        <ele>548.415</ele>
        <time>2021-05-23T12:14:11Z</time>
      </trkpt>
      <trkpt lat="43.47287" lon="2.37746">
        <ele>548.419</ele>
        <time>2021-05-23T12:14:13Z</time>
      </trkpt>
      <trkpt lat="43.47287" lon="2.37746">
        <ele>548.953</ele>
        <time>2021-05-23T12:14:15Z</time>
      </trkpt>
      <trkpt lat="43.47287" lon="2.37746">
        <ele>549.318</ele>
        <time>2021-05-23T12:14:17Z</time>
      </trkpt>
      <trkpt lat="43.47287" lon="2.37747">
        <ele>549.154</ele>
        <time>2021-05-23T12:14:19Z</time>
      </trkpt>
      <trkpt lat="43.47287" lon="2.37747">
        <ele>549.16</ele>
        <time>2021-05-23T12:14:21Z</time>
      </trkpt>
      <trkpt lat="43.47287" lon="2.37747">
        <ele>549.164</ele>
        <time>2021-05-23T12:14:23Z</time>
      </trkpt>
      <trkpt lat="43.47287" lon="2.37747">
        <ele>549.169</ele>
        <time>2021-05-23T12:14:25Z</time>
      </trkpt>
      <trkpt lat="43.47287" lon="2.37747">
        <ele>549.173</ele>
        <time>2021-05-23T12:14:27Z</time>
      </trkpt>
      <trkpt lat="43.47287" lon="2.37747">
        <ele>549.18</ele>
        <time>2021-05-23T12:14:29Z</time>
      </trkpt>
      <trkpt lat="43.47287" lon="2.37747">
        <ele>549.183</ele>
        <time>2021-05-23T12:14:31Z</time>
      </trkpt>
      <trkpt lat="43.47287" lon="2.37747">
        <ele>549.187</ele>
        <time>2021-05-23T12:14:33Z</time>
      </trkpt>
      <trkpt lat="43.47287" lon="2.37747">
        <ele>549.19</ele>
        <time>2021-05-23T12:14:35Z</time>
      </trkpt>
      <trkpt lat="43.47287" lon="2.37747">
        <ele>549.192</ele>
        <time>2021-05-23T12:14:37Z</time>
      </trkpt>
      <trkpt lat="43.47287" lon="2.37747">
        <ele>549.197</ele>
        <time>2021-05-23T12:14:39Z</time>
      </trkpt>
      <trkpt lat="43.47287" lon="2.37747">
        <ele>549.197</ele>
        <time>2021-05-23T12:14:41Z</time>
      </trkpt>
      <trkpt lat="43.47287" lon="2.37747">
        <ele>549.199</ele>
        <time>2021-05-23T12:14:43Z</time>
      </trkpt>
      <trkpt lat="43.47287" lon="2.37747">
        <ele>549.35</ele>
        <time>2021-05-23T12:14:45Z</time>
      </trkpt>
      <trkpt lat="43.47287" lon="2.37746">
        <ele>549.944</ele>
        <time>2021-05-23T12:14:47Z</time>
      </trkpt>
      <trkpt lat="43.47287" lon="2.37746">
        <ele>549.962</ele>
        <time>2021-05-23T12:14:49Z</time>
      </trkpt>
      <trkpt lat="43.47287" lon="2.37746">
        <ele>549.981</ele>
        <time>2021-05-23T12:14:51Z</time>
      </trkpt>
      <trkpt lat="43.47287" lon="2.37746">
        <ele>550</ele>
        <time>2021-05-23T12:14:53Z</time>
      </trkpt>
      <trkpt lat="43.47287" lon="2.37746">
        <ele>550.022</ele>
        <time>2021-05-23T12:14:55Z</time>
      </trkpt>
      <trkpt lat="43.47287" lon="2.37746">
        <ele>550.039</ele>
        <time>2021-05-23T12:14:57Z</time>
      </trkpt>
      <trkpt lat="43.47287" lon="2.37746">
        <ele>550.041</ele>
        <time>2021-05-23T12:14:59Z</time>
      </trkpt>
      <trkpt lat="43.47287" lon="2.37746">
        <ele>550.046</ele>
        <time>2021-05-23T12:15:01Z</time>
      </trkpt>
      <trkpt lat="43.47287" lon="2.37746">
        <ele>550.047</ele>
        <time>2021-05-23T12:15:03Z</time>
      </trkpt>
      <trkpt lat="43.47287" lon="2.37746">
        <ele>550.043</ele>
        <time>2021-05-23T12:15:05Z</time>
      </trkpt>
      <trkpt lat="43.47287" lon="2.37746">
        <ele>550.048</ele>
        <time>2021-05-23T12:15:07Z</time>
      </trkpt>
      <trkpt lat="43.47287" lon="2.37746">
        <ele>550.051</ele>
        <time>2021-05-23T12:15:09Z</time>
      </trkpt>
      <trkpt lat="43.47287" lon="2.37746">
        <ele>550.051</ele>
        <time>2021-05-23T12:15:11Z</time>
      </trkpt>
      <trkpt lat="43.47287" lon="2.37746">
        <ele>550.23</ele>
        <time>2021-05-23T12:15:13Z</time>
      </trkpt>
      <trkpt lat="43.47287" lon="2.37746">
        <ele>550.229</ele>
        <time>2021-05-23T12:15:15Z</time>
      </trkpt>
      <trkpt lat="43.47287" lon="2.37746">
        <ele>550.23</ele>
        <time>2021-05-23T12:15:17Z</time>
      </trkpt>
      <trkpt lat="43.47287" lon="2.37746">
        <ele>550.234</ele>
        <time>2021-05-23T12:15:19Z</time>
      </trkpt>
      <trkpt lat="43.47287" lon="2.37746">
        <ele>550.245</ele>
        <time>2021-05-23T12:15:21Z</time>
      </trkpt>
      <trkpt lat="43.47287" lon="2.37746">
        <ele>550.254</ele>
        <time>2021-05-23T12:15:23Z</time>
      </trkpt>
      <trkpt lat="43.47287" lon="2.37746">
        <ele>550.023</ele>
        <time>2021-05-23T12:15:25Z</time>
      </trkpt>
      <trkpt lat="43.47287" lon="2.37746">
        <ele>550.032</ele>
        <time>2021-05-23T12:15:27Z</time>
      </trkpt>
      <trkpt lat="43.47287" lon="2.37747">
        <ele>550.2</ele>
        <time>2021-05-23T12:15:29Z</time>
      </trkpt>
      <trkpt lat="43.47288" lon="2.37747">
        <ele>550.588</ele>
        <time>2021-05-23T12:15:31Z</time>
      </trkpt>
      <trkpt lat="43.47288" lon="2.37747">
        <ele>550.605</ele>
        <time>2021-05-23T12:15:33Z</time>
      </trkpt>
      <trkpt lat="43.47288" lon="2.37747">
        <ele>550.621</ele>
        <time>2021-05-23T12:15:35Z</time>
      </trkpt>
      <trkpt lat="43.47288" lon="2.37747">
        <ele>550.633</ele>
        <time>2021-05-23T12:15:37Z</time>
      </trkpt>
      <trkpt lat="43.47288" lon="2.37747">
        <ele>550.637</ele>
        <time>2021-05-23T12:15:39Z</time>
      </trkpt>
      <trkpt lat="43.47288" lon="2.37747">
        <ele>550.656</ele>
        <time>2021-05-23T12:15:41Z</time>
      </trkpt>
      <trkpt lat="43.47288" lon="2.37747">
        <ele>550.681</ele>
        <time>2021-05-23T12:15:43Z</time>
      </trkpt>
      <trkpt lat="43.47288" lon="2.37747">
        <ele>550.702</ele>
        <time>2021-05-23T12:15:45Z</time>
      </trkpt>
      <trkpt lat="43.47288" lon="2.37747">
        <ele>551.003</ele>
        <time>2021-05-23T12:15:47Z</time>
      </trkpt>
      <trkpt lat="43.47288" lon="2.37747">
        <ele>551.041</ele>
        <time>2021-05-23T12:15:49Z</time>
      </trkpt>
      <trkpt lat="43.47288" lon="2.37747">
        <ele>551.06</ele>
        <time>2021-05-23T12:15:51Z</time>
      </trkpt>
      <trkpt lat="43.47288" lon="2.37747">
        <ele>551.061</ele>
        <time>2021-05-23T12:15:53Z</time>
      </trkpt>
      <trkpt lat="43.47288" lon="2.37747">
        <ele>551.063</ele>
        <time>2021-05-23T12:15:55Z</time>
      </trkpt>
      <trkpt lat="43.47288" lon="2.37747">
        <ele>551.066</ele>
        <time>2021-05-23T12:15:57Z</time>
      </trkpt>
      <trkpt lat="43.47288" lon="2.37747">
        <ele>551.07</ele>
        <time>2021-05-23T12:15:59Z</time>
      </trkpt>
      <trkpt lat="43.47288" lon="2.37747">
        <ele>551.07</ele>
        <time>2021-05-23T12:16:01Z</time>
      </trkpt>
      <trkpt lat="43.47288" lon="2.37747">
        <ele>551.072</ele>
        <time>2021-05-23T12:16:03Z</time>
      </trkpt>
      <trkpt lat="43.47288" lon="2.37747">
        <ele>551.071</ele>
        <time>2021-05-23T12:16:05Z</time>
      </trkpt>
      <trkpt lat="43.47288" lon="2.37747">
        <ele>551.073</ele>
        <time>2021-05-23T12:16:07Z</time>
      </trkpt>
      <trkpt lat="43.47288" lon="2.37747">
        <ele>551.073</ele>
        <time>2021-05-23T12:16:09Z</time>
      </trkpt>
      <trkpt lat="43.47288" lon="2.37747">
        <ele>551.074</ele>
        <time>2021-05-23T12:16:11Z</time>
      </trkpt>
      <trkpt lat="43.47288" lon="2.37747">
        <ele>551.077</ele>
        <time>2021-05-23T12:16:13Z</time>
      </trkpt>
      <trkpt lat="43.47288" lon="2.37747">
        <ele>551.08</ele>
        <time>2021-05-23T12:16:15Z</time>
      </trkpt>
      <trkpt lat="43.47288" lon="2.37747">
        <ele>551.083</ele>
        <time>2021-05-23T12:16:17Z</time>
      </trkpt>
      <trkpt lat="43.47288" lon="2.37747">
        <ele>551.087</ele>
        <time>2021-05-23T12:16:19Z</time>
      </trkpt>
      <trkpt lat="43.47288" lon="2.37747">
        <ele>551.088</ele>
        <time>2021-05-23T12:16:21Z</time>
      </trkpt>
      <trkpt lat="43.47288" lon="2.37747">
        <ele>551.086</ele>
        <time>2021-05-23T12:16:23Z</time>
      </trkpt>
      <trkpt lat="43.47288" lon="2.37747">
        <ele>551.089</ele>
        <time>2021-05-23T12:16:25Z</time>
      </trkpt>
      <trkpt lat="43.47288" lon="2.37747">
        <ele>551.094</ele>
        <time>2021-05-23T12:16:27Z</time>
      </trkpt>
      <trkpt lat="43.47288" lon="2.37747">
        <ele>551.1</ele>
        <time>2021-05-23T12:16:29Z</time>
      </trkpt>
      <trkpt lat="43.47288" lon="2.37747">
        <ele>551.105</ele>
        <time>2021-05-23T12:16:31Z</time>
      </trkpt>
      <trkpt lat="43.47288" lon="2.37747">
        <ele>551.108</ele>
        <time>2021-05-23T12:16:33Z</time>
      </trkpt>
      <trkpt lat="43.47288" lon="2.37747">
        <ele>551.115</ele>
        <time>2021-05-23T12:16:35Z</time>
      </trkpt>
      <trkpt lat="43.47288" lon="2.37747">
        <ele>551.121</ele>
        <time>2021-05-23T12:16:37Z</time>
      </trkpt>
      <trkpt lat="43.47288" lon="2.37747">
        <ele>551.125</ele>
        <time>2021-05-23T12:16:39Z</time>
      </trkpt>
      <trkpt lat="43.47288" lon="2.37747">
        <ele>551.126</ele>
        <time>2021-05-23T12:16:41Z</time>
      </trkpt>
      <trkpt lat="43.47288" lon="2.37747">
        <ele>551.131</ele>
        <time>2021-05-23T12:16:43Z</time>
      </trkpt>
      <trkpt lat="43.47288" lon="2.37747">
        <ele>551.135</ele>
        <time>2021-05-23T12:16:45Z</time>
      </trkpt>
      <trkpt lat="43.47288" lon="2.37747">
        <ele>551.142</ele>
        <time>2021-05-23T12:16:47Z</time>
      </trkpt>
      <trkpt lat="43.47288" lon="2.37747">
        <ele>551.147</ele>
        <time>2021-05-23T12:16:49Z</time>
      </trkpt>
      <trkpt lat="43.47288" lon="2.37747">
        <ele>551.147</ele>
        <time>2021-05-23T12:16:51Z</time>
      </trkpt>
      <trkpt lat="43.47288" lon="2.37747">
        <ele>551.15</ele>
        <time>2021-05-23T12:16:53Z</time>
      </trkpt>
      <trkpt lat="43.47288" lon="2.37747">
        <ele>551.152</ele>
        <time>2021-05-23T12:16:55Z</time>
      </trkpt>
      <trkpt lat="43.47288" lon="2.37747">
        <ele>550.966</ele>
        <time>2021-05-23T12:16:57Z</time>
      </trkpt>
      <trkpt lat="43.47288" lon="2.37747">
        <ele>550.937</ele>
        <time>2021-05-23T12:16:59Z</time>
      </trkpt>
      <trkpt lat="43.47288" lon="2.37747">
        <ele>550.935</ele>
        <time>2021-05-23T12:17:01Z</time>
      </trkpt>
      <trkpt lat="43.47288" lon="2.37747">
        <ele>550.937</ele>
        <time>2021-05-23T12:17:03Z</time>
      </trkpt>
      <trkpt lat="43.47288" lon="2.37747">
        <ele>550.94</ele>
        <time>2021-05-23T12:17:05Z</time>
      </trkpt>
      <trkpt lat="43.47288" lon="2.37747">
        <ele>550.935</ele>
        <time>2021-05-23T12:17:07Z</time>
      </trkpt>
      <trkpt lat="43.47288" lon="2.37747">
        <ele>550.933</ele>
        <time>2021-05-23T12:17:09Z</time>
      </trkpt>
      <trkpt lat="43.47288" lon="2.37747">
        <ele>550.934</ele>
        <time>2021-05-23T12:17:11Z</time>
      </trkpt>
      <trkpt lat="43.47288" lon="2.37747">
        <ele>550.936</ele>
        <time>2021-05-23T12:17:13Z</time>
      </trkpt>
      <trkpt lat="43.47288" lon="2.37747">
        <ele>550.935</ele>
        <time>2021-05-23T12:17:15Z</time>
      </trkpt>
      <trkpt lat="43.47288" lon="2.37747">
        <ele>550.939</ele>
        <time>2021-05-23T12:17:17Z</time>
      </trkpt>
      <trkpt lat="43.47288" lon="2.37747">
        <ele>550.94</ele>
        <time>2021-05-23T12:17:19Z</time>
      </trkpt>
      <trkpt lat="43.47288" lon="2.37747">
        <ele>550.94</ele>
        <time>2021-05-23T12:17:21Z</time>
      </trkpt>
      <trkpt lat="43.47288" lon="2.37747">
        <ele>550.94</ele>
        <time>2021-05-23T12:17:23Z</time>
      </trkpt>
      <trkpt lat="43.47288" lon="2.37747">
        <ele>550.941</ele>
        <time>2021-05-23T12:17:25Z</time>
      </trkpt>
      <trkpt lat="43.47288" lon="2.37747">
        <ele>550.944</ele>
        <time>2021-05-23T12:17:27Z</time>
      </trkpt>
      <trkpt lat="43.47288" lon="2.37747">
        <ele>550.944</ele>
        <time>2021-05-23T12:17:29Z</time>
      </trkpt>
      <trkpt lat="43.47288" lon="2.37747">
        <ele>550.944</ele>
        <time>2021-05-23T12:17:31Z</time>
      </trkpt>
      <trkpt lat="43.47288" lon="2.37747">
        <ele>550.943</ele>
        <time>2021-05-23T12:17:33Z</time>
      </trkpt>
      <trkpt lat="43.47288" lon="2.37747">
        <ele>550.941</ele>
        <time>2021-05-23T12:17:35Z</time>
      </trkpt>
      <trkpt lat="43.47288" lon="2.37747">
        <ele>550.941</ele>
        <time>2021-05-23T12:17:37Z</time>
      </trkpt>
      <trkpt lat="43.47288" lon="2.37747">
        <ele>550.943</ele>
        <time>2021-05-23T12:17:39Z</time>
      </trkpt>
      <trkpt lat="43.47288" lon="2.37747">
        <ele>550.946</ele>
        <time>2021-05-23T12:17:41Z</time>
      </trkpt>
      <trkpt lat="43.47288" lon="2.37747">
        <ele>550.948</ele>
        <time>2021-05-23T12:17:43Z</time>
      </trkpt>
      <trkpt lat="43.47288" lon="2.37747">
        <ele>550.945</ele>
        <time>2021-05-23T12:17:45Z</time>
      </trkpt>
      <trkpt lat="43.47288" lon="2.37747">
        <ele>550.945</ele>
        <time>2021-05-23T12:17:47Z</time>
      </trkpt>
      <trkpt lat="43.47288" lon="2.37747">
        <ele>550.948</ele>
        <time>2021-05-23T12:17:49Z</time>
      </trkpt>
      <trkpt lat="43.47288" lon="2.37747">
        <ele>550.951</ele>
        <time>2021-05-23T12:17:51Z</time>
      </trkpt>
      <trkpt lat="43.47288" lon="2.37747">
        <ele>550.953</ele>
        <time>2021-05-23T12:17:53Z</time>
      </trkpt>
      <trkpt lat="43.47288" lon="2.37747">
        <ele>550.954</ele>
        <time>2021-05-23T12:17:55Z</time>
      </trkpt>
      <trkpt lat="43.47288" lon="2.37747">
        <ele>550.956</ele>
        <time>2021-05-23T12:17:57Z</time>
      </trkpt>
      <trkpt lat="43.47288" lon="2.37747">
        <ele>550.956</ele>
        <time>2021-05-23T12:17:59Z</time>
      </trkpt>
      <trkpt lat="43.47288" lon="2.37747">
        <ele>550.954</ele>
        <time>2021-05-23T12:18:01Z</time>
      </trkpt>
      <trkpt lat="43.47288" lon="2.37747">
        <ele>550.954</ele>
        <time>2021-05-23T12:18:03Z</time>
      </trkpt>
      <trkpt lat="43.47288" lon="2.37747">
        <ele>550.955</ele>
        <time>2021-05-23T12:18:05Z</time>
      </trkpt>
      <trkpt lat="43.47288" lon="2.37747">
        <ele>550.958</ele>
        <time>2021-05-23T12:18:07Z</time>
      </trkpt>
      <trkpt lat="43.47288" lon="2.37747">
        <ele>550.96</ele>
        <time>2021-05-23T12:18:09Z</time>
      </trkpt>
      <trkpt lat="43.47288" lon="2.37747">
        <ele>550.963</ele>
        <time>2021-05-23T12:18:11Z</time>
      </trkpt>
      <trkpt lat="43.47288" lon="2.37747">
        <ele>550.963</ele>
        <time>2021-05-23T12:18:13Z</time>
      </trkpt>
      <trkpt lat="43.47288" lon="2.37747">
        <ele>550.964</ele>
        <time>2021-05-23T12:18:15Z</time>
      </trkpt>
      <trkpt lat="43.47288" lon="2.37747">
        <ele>550.969</ele>
        <time>2021-05-23T12:18:17Z</time>
      </trkpt>
      <trkpt lat="43.47288" lon="2.37747">
        <ele>550.97</ele>
        <time>2021-05-23T12:18:19Z</time>
      </trkpt>
      <trkpt lat="43.47288" lon="2.37747">
        <ele>550.971</ele>
        <time>2021-05-23T12:18:21Z</time>
      </trkpt>
      <trkpt lat="43.47288" lon="2.37747">
        <ele>550.974</ele>
        <time>2021-05-23T12:18:23Z</time>
      </trkpt>
      <trkpt lat="43.47288" lon="2.37747">
        <ele>550.976</ele>
        <time>2021-05-23T12:18:25Z</time>
      </trkpt>
      <trkpt lat="43.47288" lon="2.37747">
        <ele>550.977</ele>
        <time>2021-05-23T12:18:27Z</time>
      </trkpt>
      <trkpt lat="43.47288" lon="2.37747">
        <ele>550.979</ele>
        <time>2021-05-23T12:18:29Z</time>
      </trkpt>
      <trkpt lat="43.47288" lon="2.37747">
        <ele>550.98</ele>
        <time>2021-05-23T12:18:31Z</time>
      </trkpt>
      <trkpt lat="43.47288" lon="2.37747">
        <ele>550.976</ele>
        <time>2021-05-23T12:18:33Z</time>
      </trkpt>
      <trkpt lat="43.47288" lon="2.37747">
        <ele>550.975</ele>
        <time>2021-05-23T12:18:35Z</time>
      </trkpt>
      <trkpt lat="43.47288" lon="2.37747">
        <ele>550.97</ele>
        <time>2021-05-23T12:18:37Z</time>
      </trkpt>
      <trkpt lat="43.47288" lon="2.37747">
        <ele>550.968</ele>
        <time>2021-05-23T12:18:39Z</time>
      </trkpt>
      <trkpt lat="43.47288" lon="2.37747">
        <ele>550.971</ele>
        <time>2021-05-23T12:18:41Z</time>
      </trkpt>
      <trkpt lat="43.47288" lon="2.37747">
        <ele>550.97</ele>
        <time>2021-05-23T12:18:43Z</time>
      </trkpt>
      <trkpt lat="43.47288" lon="2.37747">
        <ele>550.974</ele>
        <time>2021-05-23T12:18:45Z</time>
      </trkpt>
      <trkpt lat="43.47288" lon="2.37747">
        <ele>550.979</ele>
        <time>2021-05-23T12:18:47Z</time>
      </trkpt>
      <trkpt lat="43.47288" lon="2.37747">
        <ele>550.985</ele>
        <time>2021-05-23T12:18:49Z</time>
      </trkpt>
      <trkpt lat="43.47288" lon="2.37747">
        <ele>550.989</ele>
        <time>2021-05-23T12:18:51Z</time>
      </trkpt>
      <trkpt lat="43.47288" lon="2.37747">
        <ele>550.992</ele>
        <time>2021-05-23T12:18:53Z</time>
      </trkpt>
      <trkpt lat="43.47288" lon="2.37747">
        <ele>550.99</ele>
        <time>2021-05-23T12:18:55Z</time>
      </trkpt>
      <trkpt lat="43.47288" lon="2.37747">
        <ele>550.992</ele>
        <time>2021-05-23T12:18:57Z</time>
      </trkpt>
      <trkpt lat="43.47288" lon="2.37747">
        <ele>550.991</ele>
        <time>2021-05-23T12:18:59Z</time>
      </trkpt>
      <trkpt lat="43.47288" lon="2.37747">
        <ele>550.987</ele>
        <time>2021-05-23T12:19:01Z</time>
      </trkpt>
      <trkpt lat="43.47288" lon="2.37747">
        <ele>550.989</ele>
        <time>2021-05-23T12:19:03Z</time>
      </trkpt>
      <trkpt lat="43.47288" lon="2.37747">
        <ele>550.899</ele>
        <time>2021-05-23T12:19:05Z</time>
      </trkpt>
      <trkpt lat="43.47288" lon="2.37747">
        <ele>550.901</ele>
        <time>2021-05-23T12:19:07Z</time>
      </trkpt>
      <trkpt lat="43.47288" lon="2.37747">
        <ele>550.902</ele>
        <time>2021-05-23T12:19:09Z</time>
      </trkpt>
      <trkpt lat="43.47288" lon="2.37747">
        <ele>550.903</ele>
        <time>2021-05-23T12:19:11Z</time>
      </trkpt>
      <trkpt lat="43.47288" lon="2.37747">
        <ele>550.901</ele>
        <time>2021-05-23T12:19:13Z</time>
      </trkpt>
      <trkpt lat="43.47288" lon="2.37747">
        <ele>550.905</ele>
        <time>2021-05-23T12:19:15Z</time>
      </trkpt>
      <trkpt lat="43.47288" lon="2.37747">
        <ele>550.905</ele>
        <time>2021-05-23T12:19:17Z</time>
      </trkpt>
      <trkpt lat="43.47288" lon="2.37747">
        <ele>550.905</ele>
        <time>2021-05-23T12:19:19Z</time>
      </trkpt>
      <trkpt lat="43.47288" lon="2.37747">
        <ele>550.906</ele>
        <time>2021-05-23T12:19:21Z</time>
      </trkpt>
      <trkpt lat="43.47288" lon="2.37747">
        <ele>550.906</ele>
        <time>2021-05-23T12:19:23Z</time>
      </trkpt>
      <trkpt lat="43.47288" lon="2.37747">
        <ele>550.904</ele>
        <time>2021-05-23T12:19:25Z</time>
      </trkpt>
      <trkpt lat="43.47288" lon="2.37747">
        <ele>550.902</ele>
        <time>2021-05-23T12:19:27Z</time>
      </trkpt>
      <trkpt lat="43.47288" lon="2.37747">
        <ele>550.901</ele>
        <time>2021-05-23T12:19:29Z</time>
      </trkpt>
      <trkpt lat="43.47288" lon="2.37747">
        <ele>550.899</ele>
        <time>2021-05-23T12:19:31Z</time>
      </trkpt>
      <trkpt lat="43.47288" lon="2.37747">
        <ele>550.896</ele>
        <time>2021-05-23T12:19:33Z</time>
      </trkpt>
      <trkpt lat="43.47288" lon="2.37747">
        <ele>551.01</ele>
        <time>2021-05-23T12:19:35Z</time>
      </trkpt>
      <trkpt lat="43.47288" lon="2.37747">
        <ele>551.034</ele>
        <time>2021-05-23T12:19:37Z</time>
      </trkpt>
      <trkpt lat="43.47288" lon="2.37747">
        <ele>551.034</ele>
        <time>2021-05-23T12:19:39Z</time>
      </trkpt>
      <trkpt lat="43.47288" lon="2.37747">
        <ele>551.033</ele>
        <time>2021-05-23T12:19:41Z</time>
      </trkpt>
      <trkpt lat="43.47288" lon="2.37747">
        <ele>551.034</ele>
        <time>2021-05-23T12:19:43Z</time>
      </trkpt>
      <trkpt lat="43.47288" lon="2.37747">
        <ele>551.035</ele>
        <time>2021-05-23T12:19:45Z</time>
      </trkpt>
      <trkpt lat="43.47288" lon="2.37747">
        <ele>551.034</ele>
        <time>2021-05-23T12:19:47Z</time>
      </trkpt>
      <trkpt lat="43.47288" lon="2.37747">
        <ele>551.034</ele>
        <time>2021-05-23T12:19:49Z</time>
      </trkpt>
      <trkpt lat="43.47288" lon="2.37747">
        <ele>551.037</ele>
        <time>2021-05-23T12:19:51Z</time>
      </trkpt>
      <trkpt lat="43.47288" lon="2.37747">
        <ele>551.036</ele>
        <time>2021-05-23T12:19:53Z</time>
      </trkpt>
      <trkpt lat="43.47288" lon="2.37747">
        <ele>551.038</ele>
        <time>2021-05-23T12:19:55Z</time>
      </trkpt>
      <trkpt lat="43.47288" lon="2.37747">
        <ele>551.04</ele>
        <time>2021-05-23T12:19:57Z</time>
      </trkpt>
      <trkpt lat="43.47288" lon="2.37747">
        <ele>551.04</ele>
        <time>2021-05-23T12:19:59Z</time>
      </trkpt>
      <trkpt lat="43.47288" lon="2.37747">
        <ele>551.042</ele>
        <time>2021-05-23T12:20:01Z</time>
      </trkpt>
      <trkpt lat="43.47288" lon="2.37747">
        <ele>551.041</ele>
        <time>2021-05-23T12:20:03Z</time>
      </trkpt>
      <trkpt lat="43.47288" lon="2.37747">
        <ele>551.041</ele>
        <time>2021-05-23T12:20:05Z</time>
      </trkpt>
      <trkpt lat="43.47288" lon="2.37747">
        <ele>551.041</ele>
        <time>2021-05-23T12:20:07Z</time>
      </trkpt>
      <trkpt lat="43.47288" lon="2.37747">
        <ele>551.04</ele>
        <time>2021-05-23T12:20:09Z</time>
      </trkpt>
      <trkpt lat="43.47288" lon="2.37747">
        <ele>551.042</ele>
        <time>2021-05-23T12:20:11Z</time>
      </trkpt>
      <trkpt lat="43.47288" lon="2.37747">
        <ele>551.043</ele>
        <time>2021-05-23T12:20:13Z</time>
      </trkpt>
      <trkpt lat="43.47288" lon="2.37747">
        <ele>551.042</ele>
        <time>2021-05-23T12:20:15Z</time>
      </trkpt>
      <trkpt lat="43.47288" lon="2.37747">
        <ele>551.041</ele>
        <time>2021-05-23T12:20:17Z</time>
      </trkpt>
      <trkpt lat="43.47288" lon="2.37747">
        <ele>551.04</ele>
        <time>2021-05-23T12:20:19Z</time>
      </trkpt>
      <trkpt lat="43.47288" lon="2.37747">
        <ele>551.039</ele>
        <time>2021-05-23T12:20:21Z</time>
      </trkpt>
      <trkpt lat="43.47288" lon="2.37747">
        <ele>551.038</ele>
        <time>2021-05-23T12:20:23Z</time>
      </trkpt>
      <trkpt lat="43.47288" lon="2.37747">
        <ele>551.036</ele>
        <time>2021-05-23T12:20:25Z</time>
      </trkpt>
      <trkpt lat="43.47288" lon="2.37747">
        <ele>551.036</ele>
        <time>2021-05-23T12:20:27Z</time>
      </trkpt>
      <trkpt lat="43.47288" lon="2.37747">
        <ele>551.035</ele>
        <time>2021-05-23T12:20:29Z</time>
      </trkpt>
      <trkpt lat="43.47288" lon="2.37747">
        <ele>551.035</ele>
        <time>2021-05-23T12:20:31Z</time>
      </trkpt>
      <trkpt lat="43.47288" lon="2.37747">
        <ele>551.041</ele>
        <time>2021-05-23T12:20:33Z</time>
      </trkpt>
      <trkpt lat="43.47288" lon="2.37747">
        <ele>551.042</ele>
        <time>2021-05-23T12:20:35Z</time>
      </trkpt>
      <trkpt lat="43.47288" lon="2.37747">
        <ele>551.045</ele>
        <time>2021-05-23T12:20:37Z</time>
      </trkpt>
      <trkpt lat="43.47288" lon="2.37747">
        <ele>551.052</ele>
        <time>2021-05-23T12:20:39Z</time>
      </trkpt>
      <trkpt lat="43.47288" lon="2.37747">
        <ele>551.055</ele>
        <time>2021-05-23T12:20:41Z</time>
      </trkpt>
      <trkpt lat="43.47288" lon="2.37747">
        <ele>551.059</ele>
        <time>2021-05-23T12:20:43Z</time>
      </trkpt>
      <trkpt lat="43.47288" lon="2.37747">
        <ele>551.06</ele>
        <time>2021-05-23T12:20:45Z</time>
      </trkpt>
      <trkpt lat="43.47288" lon="2.37747">
        <ele>551.064</ele>
        <time>2021-05-23T12:20:47Z</time>
      </trkpt>
      <trkpt lat="43.47288" lon="2.37747">
        <ele>551.068</ele>
        <time>2021-05-23T12:20:49Z</time>
      </trkpt>
      <trkpt lat="43.47288" lon="2.37747">
        <ele>551.071</ele>
        <time>2021-05-23T12:20:51Z</time>
      </trkpt>
      <trkpt lat="43.47288" lon="2.37747">
        <ele>551.075</ele>
        <time>2021-05-23T12:20:53Z</time>
      </trkpt>
      <trkpt lat="43.47288" lon="2.37747">
        <ele>551.076</ele>
        <time>2021-05-23T12:20:55Z</time>
      </trkpt>
      <trkpt lat="43.47288" lon="2.37747">
        <ele>551.078</ele>
        <time>2021-05-23T12:20:57Z</time>
      </trkpt>
      <trkpt lat="43.47288" lon="2.37747">
        <ele>551.079</ele>
        <time>2021-05-23T12:20:59Z</time>
      </trkpt>
      <trkpt lat="43.47288" lon="2.37747">
        <ele>551.081</ele>
        <time>2021-05-23T12:21:01Z</time>
      </trkpt>
      <trkpt lat="43.47288" lon="2.37747">
        <ele>551.083</ele>
        <time>2021-05-23T12:21:03Z</time>
      </trkpt>
      <trkpt lat="43.47288" lon="2.37747">
        <ele>551.084</ele>
        <time>2021-05-23T12:21:05Z</time>
      </trkpt>
      <trkpt lat="43.47288" lon="2.37747">
        <ele>551.084</ele>
        <time>2021-05-23T12:21:07Z</time>
      </trkpt>
      <trkpt lat="43.47288" lon="2.37747">
        <ele>551.083</ele>
        <time>2021-05-23T12:21:09Z</time>
      </trkpt>
      <trkpt lat="43.47288" lon="2.37747">
        <ele>551.085</ele>
        <time>2021-05-23T12:21:11Z</time>
      </trkpt>
      <trkpt lat="43.47288" lon="2.37747">
        <ele>551.088</ele>
        <time>2021-05-23T12:21:13Z</time>
      </trkpt>
      <trkpt lat="43.47288" lon="2.37747">
        <ele>551.086</ele>
        <time>2021-05-23T12:21:15Z</time>
      </trkpt>
      <trkpt lat="43.47288" lon="2.37747">
        <ele>551.085</ele>
        <time>2021-05-23T12:21:17Z</time>
      </trkpt>
      <trkpt lat="43.47288" lon="2.37747">
        <ele>551.084</ele>
        <time>2021-05-23T12:21:19Z</time>
      </trkpt>
      <trkpt lat="43.47288" lon="2.37747">
        <ele>551.083</ele>
        <time>2021-05-23T12:21:21Z</time>
      </trkpt>
      <trkpt lat="43.47288" lon="2.37747">
        <ele>551.082</ele>
        <time>2021-05-23T12:21:23Z</time>
      </trkpt>
      <trkpt lat="43.47288" lon="2.37747">
        <ele>551.079</ele>
        <time>2021-05-23T12:21:25Z</time>
      </trkpt>
      <trkpt lat="43.47288" lon="2.37747">
        <ele>551.079</ele>
        <time>2021-05-23T12:21:27Z</time>
      </trkpt>
      <trkpt lat="43.47288" lon="2.37747">
        <ele>551.078</ele>
        <time>2021-05-23T12:21:29Z</time>
      </trkpt>
      <trkpt lat="43.47288" lon="2.37747">
        <ele>551.078</ele>
        <time>2021-05-23T12:21:31Z</time>
      </trkpt>
      <trkpt lat="43.47288" lon="2.37747">
        <ele>551.076</ele>
        <time>2021-05-23T12:21:33Z</time>
      </trkpt>
      <trkpt lat="43.47288" lon="2.37747">
        <ele>551.08</ele>
        <time>2021-05-23T12:21:35Z</time>
      </trkpt>
      <trkpt lat="43.47288" lon="2.37747">
        <ele>551.082</ele>
        <time>2021-05-23T12:21:37Z</time>
      </trkpt>
      <trkpt lat="43.47288" lon="2.37747">
        <ele>551.088</ele>
        <time>2021-05-23T12:21:39Z</time>
      </trkpt>
      <trkpt lat="43.47288" lon="2.37747">
        <ele>551.097</ele>
        <time>2021-05-23T12:21:41Z</time>
      </trkpt>
      <trkpt lat="43.47288" lon="2.37747">
        <ele>551.102</ele>
        <time>2021-05-23T12:21:43Z</time>
      </trkpt>
      <trkpt lat="43.47288" lon="2.37747">
        <ele>551.106</ele>
        <time>2021-05-23T12:21:45Z</time>
      </trkpt>
      <trkpt lat="43.47288" lon="2.37747">
        <ele>551.109</ele>
        <time>2021-05-23T12:21:47Z</time>
      </trkpt>
      <trkpt lat="43.47288" lon="2.37747">
        <ele>551.109</ele>
        <time>2021-05-23T12:21:49Z</time>
      </trkpt>
      <trkpt lat="43.47288" lon="2.37747">
        <ele>551.11</ele>
        <time>2021-05-23T12:21:51Z</time>
      </trkpt>
      <trkpt lat="43.47288" lon="2.37747">
        <ele>551.11</ele>
        <time>2021-05-23T12:21:53Z</time>
      </trkpt>
      <trkpt lat="43.47288" lon="2.37747">
        <ele>551.11</ele>
        <time>2021-05-23T12:21:55Z</time>
      </trkpt>
      <trkpt lat="43.47288" lon="2.37747">
        <ele>551.111</ele>
        <time>2021-05-23T12:21:57Z</time>
      </trkpt>
      <trkpt lat="43.47288" lon="2.37747">
        <ele>551.11</ele>
        <time>2021-05-23T12:21:59Z</time>
      </trkpt>
      <trkpt lat="43.47288" lon="2.37747">
        <ele>551.109</ele>
        <time>2021-05-23T12:22:01Z</time>
      </trkpt>
      <trkpt lat="43.47288" lon="2.37747">
        <ele>551.108</ele>
        <time>2021-05-23T12:22:03Z</time>
      </trkpt>
      <trkpt lat="43.47288" lon="2.37747">
        <ele>551.107</ele>
        <time>2021-05-23T12:22:05Z</time>
      </trkpt>
      <trkpt lat="43.47288" lon="2.37747">
        <ele>551.107</ele>
        <time>2021-05-23T12:22:07Z</time>
      </trkpt>
      <trkpt lat="43.47288" lon="2.37747">
        <ele>551.104</ele>
        <time>2021-05-23T12:22:09Z</time>
      </trkpt>
      <trkpt lat="43.47288" lon="2.37747">
        <ele>551.105</ele>
        <time>2021-05-23T12:22:11Z</time>
      </trkpt>
      <trkpt lat="43.47288" lon="2.37747">
        <ele>551.11</ele>
        <time>2021-05-23T12:22:13Z</time>
      </trkpt>
      <trkpt lat="43.47288" lon="2.37747">
        <ele>551.11</ele>
        <time>2021-05-23T12:22:15Z</time>
      </trkpt>
      <trkpt lat="43.47288" lon="2.37747">
        <ele>551.107</ele>
        <time>2021-05-23T12:22:17Z</time>
      </trkpt>
      <trkpt lat="43.47288" lon="2.37747">
        <ele>551.106</ele>
        <time>2021-05-23T12:22:19Z</time>
      </trkpt>
      <trkpt lat="43.47288" lon="2.37747">
        <ele>551.105</ele>
        <time>2021-05-23T12:22:21Z</time>
      </trkpt>
      <trkpt lat="43.47288" lon="2.37747">
        <ele>551.104</ele>
        <time>2021-05-23T12:22:23Z</time>
      </trkpt>
      <trkpt lat="43.47288" lon="2.37747">
        <ele>551.105</ele>
        <time>2021-05-23T12:22:25Z</time>
      </trkpt>
      <trkpt lat="43.47288" lon="2.37747">
        <ele>551.107</ele>
        <time>2021-05-23T12:22:27Z</time>
      </trkpt>
      <trkpt lat="43.47288" lon="2.37747">
        <ele>551.111</ele>
        <time>2021-05-23T12:22:29Z</time>
      </trkpt>
      <trkpt lat="43.47288" lon="2.37747">
        <ele>551.11</ele>
        <time>2021-05-23T12:22:31Z</time>
      </trkpt>
      <trkpt lat="43.47288" lon="2.37747">
        <ele>551.109</ele>
        <time>2021-05-23T12:22:33Z</time>
      </trkpt>
      <trkpt lat="43.47288" lon="2.37747">
        <ele>551.113</ele>
        <time>2021-05-23T12:22:35Z</time>
      </trkpt>
      <trkpt lat="43.47288" lon="2.37747">
        <ele>551.117</ele>
        <time>2021-05-23T12:22:37Z</time>
      </trkpt>
      <trkpt lat="43.47288" lon="2.37747">
        <ele>551.119</ele>
        <time>2021-05-23T12:22:39Z</time>
      </trkpt>
      <trkpt lat="43.47288" lon="2.37747">
        <ele>551.117</ele>
        <time>2021-05-23T12:22:40Z</time>
      </trkpt>
      <trkpt lat="43.47288" lon="2.37747">
        <ele>551.115</ele>
        <time>2021-05-23T12:22:43Z</time>
      </trkpt>
      <trkpt lat="43.47288" lon="2.37747">
        <ele>551.114</ele>
        <time>2021-05-23T12:22:45Z</time>
      </trkpt>
      <trkpt lat="43.47288" lon="2.37747">
        <ele>551.116</ele>
        <time>2021-05-23T12:22:47Z</time>
      </trkpt>
      <trkpt lat="43.47288" lon="2.37747">
        <ele>551.118</ele>
        <time>2021-05-23T12:22:49Z</time>
      </trkpt>
      <trkpt lat="43.47288" lon="2.37747">
        <ele>551.122</ele>
        <time>2021-05-23T12:22:51Z</time>
      </trkpt>
      <trkpt lat="43.47288" lon="2.37747">
        <ele>551.127</ele>
        <time>2021-05-23T12:22:53Z</time>
      </trkpt>
      <trkpt lat="43.47288" lon="2.37747">
        <ele>551.129</ele>
        <time>2021-05-23T12:22:55Z</time>
      </trkpt>
      <trkpt lat="43.47288" lon="2.37747">
        <ele>551.131</ele>
        <time>2021-05-23T12:22:57Z</time>
      </trkpt>
      <trkpt lat="43.47288" lon="2.37747">
        <ele>551.135</ele>
        <time>2021-05-23T12:22:59Z</time>
      </trkpt>
      <trkpt lat="43.47288" lon="2.37747">
        <ele>551.139</ele>
        <time>2021-05-23T12:23:01Z</time>
      </trkpt>
      <trkpt lat="43.47288" lon="2.37747">
        <ele>551.142</ele>
        <time>2021-05-23T12:23:03Z</time>
      </trkpt>
      <trkpt lat="43.47288" lon="2.37747">
        <ele>551.148</ele>
        <time>2021-05-23T12:23:05Z</time>
      </trkpt>
      <trkpt lat="43.47288" lon="2.37747">
        <ele>551.15</ele>
        <time>2021-05-23T12:23:07Z</time>
      </trkpt>
      <trkpt lat="43.47288" lon="2.37747">
        <ele>551.15</ele>
        <time>2021-05-23T12:23:09Z</time>
      </trkpt>
      <trkpt lat="43.47288" lon="2.37747">
        <ele>551.152</ele>
        <time>2021-05-23T12:23:11Z</time>
      </trkpt>
      <trkpt lat="43.47288" lon="2.37747">
        <ele>551.154</ele>
        <time>2021-05-23T12:23:13Z</time>
      </trkpt>
      <trkpt lat="43.47288" lon="2.37747">
        <ele>551.156</ele>
        <time>2021-05-23T12:23:15Z</time>
      </trkpt>
      <trkpt lat="43.47288" lon="2.37747">
        <ele>551.157</ele>
        <time>2021-05-23T12:23:17Z</time>
      </trkpt>
      <trkpt lat="43.47288" lon="2.37747">
        <ele>551.163</ele>
        <time>2021-05-23T12:23:19Z</time>
      </trkpt>
      <trkpt lat="43.47288" lon="2.37747">
        <ele>551.165</ele>
        <time>2021-05-23T12:23:21Z</time>
      </trkpt>
      <trkpt lat="43.47288" lon="2.37747">
        <ele>551.169</ele>
        <time>2021-05-23T12:23:23Z</time>
      </trkpt>
      <trkpt lat="43.47288" lon="2.37747">
        <ele>551.175</ele>
        <time>2021-05-23T12:23:25Z</time>
      </trkpt>
      <trkpt lat="43.47288" lon="2.37747">
        <ele>551.181</ele>
        <time>2021-05-23T12:23:27Z</time>
      </trkpt>
      <trkpt lat="43.47288" lon="2.37747">
        <ele>551.184</ele>
        <time>2021-05-23T12:23:29Z</time>
      </trkpt>
      <trkpt lat="43.47288" lon="2.37747">
        <ele>551.185</ele>
        <time>2021-05-23T12:23:31Z</time>
      </trkpt>
      <trkpt lat="43.47288" lon="2.37747">
        <ele>551.183</ele>
        <time>2021-05-23T12:23:33Z</time>
      </trkpt>
      <trkpt lat="43.47288" lon="2.37747">
        <ele>551.181</ele>
        <time>2021-05-23T12:23:35Z</time>
      </trkpt>
      <trkpt lat="43.47288" lon="2.37747">
        <ele>551.181</ele>
        <time>2021-05-23T12:23:37Z</time>
      </trkpt>
      <trkpt lat="43.47288" lon="2.37747">
        <ele>551.185</ele>
        <time>2021-05-23T12:23:39Z</time>
      </trkpt>
      <trkpt lat="43.47288" lon="2.37747">
        <ele>551.187</ele>
        <time>2021-05-23T12:23:41Z</time>
      </trkpt>
      <trkpt lat="43.47288" lon="2.37747">
        <ele>551.187</ele>
        <time>2021-05-23T12:23:43Z</time>
      </trkpt>
      <trkpt lat="43.47288" lon="2.37747">
        <ele>551.188</ele>
        <time>2021-05-23T12:23:45Z</time>
      </trkpt>
      <trkpt lat="43.47288" lon="2.37747">
        <ele>551.191</ele>
        <time>2021-05-23T12:23:47Z</time>
      </trkpt>
      <trkpt lat="43.47288" lon="2.37747">
        <ele>551.195</ele>
        <time>2021-05-23T12:23:49Z</time>
      </trkpt>
      <trkpt lat="43.47288" lon="2.37747">
        <ele>551.199</ele>
        <time>2021-05-23T12:23:51Z</time>
      </trkpt>
      <trkpt lat="43.47288" lon="2.37747">
        <ele>551.197</ele>
        <time>2021-05-23T12:23:53Z</time>
      </trkpt>
      <trkpt lat="43.47288" lon="2.37747">
        <ele>551.199</ele>
        <time>2021-05-23T12:23:55Z</time>
      </trkpt>
      <trkpt lat="43.47288" lon="2.37747">
        <ele>551.201</ele>
        <time>2021-05-23T12:23:57Z</time>
      </trkpt>
      <trkpt lat="43.47288" lon="2.37747">
        <ele>551.203</ele>
        <time>2021-05-23T12:23:59Z</time>
      </trkpt>
      <trkpt lat="43.47288" lon="2.37747">
        <ele>551.206</ele>
        <time>2021-05-23T12:24:01Z</time>
      </trkpt>
      <trkpt lat="43.47288" lon="2.37747">
        <ele>551.208</ele>
        <time>2021-05-23T12:24:03Z</time>
      </trkpt>
      <trkpt lat="43.47288" lon="2.37747">
        <ele>551.209</ele>
        <time>2021-05-23T12:24:05Z</time>
      </trkpt>
      <trkpt lat="43.47288" lon="2.37747">
        <ele>551.209</ele>
        <time>2021-05-23T12:24:07Z</time>
      </trkpt>
      <trkpt lat="43.47288" lon="2.37747">
        <ele>551.212</ele>
        <time>2021-05-23T12:24:09Z</time>
      </trkpt>
      <trkpt lat="43.47288" lon="2.37747">
        <ele>551.216</ele>
        <time>2021-05-23T12:24:12Z</time>
      </trkpt>
      <trkpt lat="43.47288" lon="2.37747">
        <ele>551.209</ele>
        <time>2021-05-23T12:24:14Z</time>
      </trkpt>
      <trkpt lat="43.47288" lon="2.37747">
        <ele>551.205</ele>
        <time>2021-05-23T12:24:16Z</time>
      </trkpt>
      <trkpt lat="43.47288" lon="2.37747">
        <ele>551.202</ele>
        <time>2021-05-23T12:24:18Z</time>
      </trkpt>
      <trkpt lat="43.47288" lon="2.37747">
        <ele>551.201</ele>
        <time>2021-05-23T12:24:20Z</time>
      </trkpt>
      <trkpt lat="43.47288" lon="2.37747">
        <ele>551.193</ele>
        <time>2021-05-23T12:24:22Z</time>
      </trkpt>
      <trkpt lat="43.47288" lon="2.37747">
        <ele>551.19</ele>
        <time>2021-05-23T12:24:24Z</time>
      </trkpt>
      <trkpt lat="43.47288" lon="2.37747">
        <ele>551.186</ele>
        <time>2021-05-23T12:24:26Z</time>
      </trkpt>
      <trkpt lat="43.47288" lon="2.37747">
        <ele>551.183</ele>
        <time>2021-05-23T12:24:28Z</time>
      </trkpt>
      <trkpt lat="43.47288" lon="2.37747">
        <ele>551.184</ele>
        <time>2021-05-23T12:24:30Z</time>
      </trkpt>
      <trkpt lat="43.47288" lon="2.37747">
        <ele>551.183</ele>
        <time>2021-05-23T12:24:32Z</time>
      </trkpt>
      <trkpt lat="43.47288" lon="2.37747">
        <ele>551.181</ele>
        <time>2021-05-23T12:24:34Z</time>
      </trkpt>
      <trkpt lat="43.47288" lon="2.37747">
        <ele>551.18</ele>
        <time>2021-05-23T12:24:36Z</time>
      </trkpt>
      <trkpt lat="43.47288" lon="2.37747">
        <ele>551.18</ele>
        <time>2021-05-23T12:24:38Z</time>
      </trkpt>
      <trkpt lat="43.47288" lon="2.37747">
        <ele>551.181</ele>
        <time>2021-05-23T12:24:40Z</time>
      </trkpt>
      <trkpt lat="43.47288" lon="2.37747">
        <ele>551.18</ele>
        <time>2021-05-23T12:24:42Z</time>
      </trkpt>
      <trkpt lat="43.47288" lon="2.37747">
        <ele>551.178</ele>
        <time>2021-05-23T12:24:44Z</time>
      </trkpt>
      <trkpt lat="43.47288" lon="2.37747">
        <ele>551.18</ele>
        <time>2021-05-23T12:24:46Z</time>
      </trkpt>
      <trkpt lat="43.47288" lon="2.37747">
        <ele>551.177</ele>
        <time>2021-05-23T12:24:48Z</time>
      </trkpt>
      <trkpt lat="43.47288" lon="2.37747">
        <ele>551.175</ele>
        <time>2021-05-23T12:24:50Z</time>
      </trkpt>
      <trkpt lat="43.47288" lon="2.37747">
        <ele>551.174</ele>
        <time>2021-05-23T12:24:52Z</time>
      </trkpt>
      <trkpt lat="43.47288" lon="2.37747">
        <ele>551.171</ele>
        <time>2021-05-23T12:24:54Z</time>
      </trkpt>
      <trkpt lat="43.47288" lon="2.37747">
        <ele>551.168</ele>
        <time>2021-05-23T12:24:56Z</time>
      </trkpt>
      <trkpt lat="43.47288" lon="2.37747">
        <ele>551.164</ele>
        <time>2021-05-23T12:24:58Z</time>
      </trkpt>
      <trkpt lat="43.47288" lon="2.37747">
        <ele>551.161</ele>
        <time>2021-05-23T12:25:00Z</time>
      </trkpt>
      <trkpt lat="43.47288" lon="2.37747">
        <ele>551.155</ele>
        <time>2021-05-23T12:25:02Z</time>
      </trkpt>
      <trkpt lat="43.47288" lon="2.37747">
        <ele>551.155</ele>
        <time>2021-05-23T12:25:04Z</time>
      </trkpt>
      <trkpt lat="43.47288" lon="2.37747">
        <ele>551.151</ele>
        <time>2021-05-23T12:25:06Z</time>
      </trkpt>
      <trkpt lat="43.47288" lon="2.37747">
        <ele>551.146</ele>
        <time>2021-05-23T12:25:08Z</time>
      </trkpt>
      <trkpt lat="43.47288" lon="2.37747">
        <ele>551.142</ele>
        <time>2021-05-23T12:25:10Z</time>
      </trkpt>
      <trkpt lat="43.47288" lon="2.37747">
        <ele>551.138</ele>
        <time>2021-05-23T12:25:12Z</time>
      </trkpt>
      <trkpt lat="43.47288" lon="2.37747">
        <ele>551.137</ele>
        <time>2021-05-23T12:25:14Z</time>
      </trkpt>
      <trkpt lat="43.47288" lon="2.37747">
        <ele>551.135</ele>
        <time>2021-05-23T12:25:16Z</time>
      </trkpt>
      <trkpt lat="43.47288" lon="2.37747">
        <ele>551.133</ele>
        <time>2021-05-23T12:25:18Z</time>
      </trkpt>
      <trkpt lat="43.47288" lon="2.37747">
        <ele>551.131</ele>
        <time>2021-05-23T12:25:20Z</time>
      </trkpt>
      <trkpt lat="43.47288" lon="2.37747">
        <ele>551.134</ele>
        <time>2021-05-23T12:25:22Z</time>
      </trkpt>
      <trkpt lat="43.47288" lon="2.37747">
        <ele>551.131</ele>
        <time>2021-05-23T12:25:24Z</time>
      </trkpt>
      <trkpt lat="43.47288" lon="2.37747">
        <ele>551.132</ele>
        <time>2021-05-23T12:25:26Z</time>
      </trkpt>
      <trkpt lat="43.47288" lon="2.37747">
        <ele>551.13</ele>
        <time>2021-05-23T12:25:28Z</time>
      </trkpt>
      <trkpt lat="43.47288" lon="2.37747">
        <ele>551.131</ele>
        <time>2021-05-23T12:25:30Z</time>
      </trkpt>
      <trkpt lat="43.47288" lon="2.37747">
        <ele>551.13</ele>
        <time>2021-05-23T12:25:32Z</time>
      </trkpt>
      <trkpt lat="43.47288" lon="2.37747">
        <ele>551.131</ele>
        <time>2021-05-23T12:25:34Z</time>
      </trkpt>
      <trkpt lat="43.47288" lon="2.37747">
        <ele>551.13</ele>
        <time>2021-05-23T12:25:36Z</time>
      </trkpt>
      <trkpt lat="43.47288" lon="2.37747">
        <ele>551.129</ele>
        <time>2021-05-23T12:25:38Z</time>
      </trkpt>
      <trkpt lat="43.47288" lon="2.37747">
        <ele>551.131</ele>
        <time>2021-05-23T12:25:40Z</time>
      </trkpt>
      <trkpt lat="43.47288" lon="2.37747">
        <ele>551.132</ele>
        <time>2021-05-23T12:25:42Z</time>
      </trkpt>
      <trkpt lat="43.47288" lon="2.37747">
        <ele>551.133</ele>
        <time>2021-05-23T12:25:44Z</time>
      </trkpt>
      <trkpt lat="43.47288" lon="2.37747">
        <ele>551.135</ele>
        <time>2021-05-23T12:25:46Z</time>
      </trkpt>
      <trkpt lat="43.47288" lon="2.37747">
        <ele>551.137</ele>
        <time>2021-05-23T12:25:48Z</time>
      </trkpt>
      <trkpt lat="43.47288" lon="2.37747">
        <ele>551.142</ele>
        <time>2021-05-23T12:25:50Z</time>
      </trkpt>
      <trkpt lat="43.47288" lon="2.37747">
        <ele>551.148</ele>
        <time>2021-05-23T12:25:52Z</time>
      </trkpt>
      <trkpt lat="43.47288" lon="2.37747">
        <ele>551.148</ele>
        <time>2021-05-23T12:25:54Z</time>
      </trkpt>
      <trkpt lat="43.47288" lon="2.37747">
        <ele>551.15</ele>
        <time>2021-05-23T12:25:56Z</time>
      </trkpt>
      <trkpt lat="43.47288" lon="2.37747">
        <ele>551.153</ele>
        <time>2021-05-23T12:25:58Z</time>
      </trkpt>
      <trkpt lat="43.47288" lon="2.37747">
        <ele>551.156</ele>
        <time>2021-05-23T12:26:00Z</time>
      </trkpt>
      <trkpt lat="43.47288" lon="2.37747">
        <ele>551.159</ele>
        <time>2021-05-23T12:26:02Z</time>
      </trkpt>
      <trkpt lat="43.47288" lon="2.37747">
        <ele>551.16</ele>
        <time>2021-05-23T12:26:04Z</time>
      </trkpt>
      <trkpt lat="43.47288" lon="2.37747">
        <ele>551.161</ele>
        <time>2021-05-23T12:26:06Z</time>
      </trkpt>
      <trkpt lat="43.47288" lon="2.37747">
        <ele>551.162</ele>
        <time>2021-05-23T12:26:08Z</time>
      </trkpt>
      <trkpt lat="43.47288" lon="2.37747">
        <ele>551.163</ele>
        <time>2021-05-23T12:26:10Z</time>
      </trkpt>
      <trkpt lat="43.47288" lon="2.37747">
        <ele>551.165</ele>
        <time>2021-05-23T12:26:12Z</time>
      </trkpt>
      <trkpt lat="43.47288" lon="2.37747">
        <ele>551.168</ele>
        <time>2021-05-23T12:26:14Z</time>
      </trkpt>
      <trkpt lat="43.47288" lon="2.37747">
        <ele>551.169</ele>
        <time>2021-05-23T12:26:16Z</time>
      </trkpt>
      <trkpt lat="43.47288" lon="2.37747">
        <ele>551.174</ele>
        <time>2021-05-23T12:26:18Z</time>
      </trkpt>
      <trkpt lat="43.47288" lon="2.37747">
        <ele>551.175</ele>
        <time>2021-05-23T12:26:20Z</time>
      </trkpt>
      <trkpt lat="43.47288" lon="2.37747">
        <ele>551.179</ele>
        <time>2021-05-23T12:26:22Z</time>
      </trkpt>
      <trkpt lat="43.47288" lon="2.37747">
        <ele>551.185</ele>
        <time>2021-05-23T12:26:24Z</time>
      </trkpt>
      <trkpt lat="43.47288" lon="2.37747">
        <ele>551.19</ele>
        <time>2021-05-23T12:26:26Z</time>
      </trkpt>
      <trkpt lat="43.47288" lon="2.37747">
        <ele>551.193</ele>
        <time>2021-05-23T12:26:28Z</time>
      </trkpt>
      <trkpt lat="43.47288" lon="2.37747">
        <ele>551.201</ele>
        <time>2021-05-23T12:26:30Z</time>
      </trkpt>
      <trkpt lat="43.47288" lon="2.37747">
        <ele>551.205</ele>
        <time>2021-05-23T12:26:32Z</time>
      </trkpt>
      <trkpt lat="43.47288" lon="2.37747">
        <ele>551.206</ele>
        <time>2021-05-23T12:26:34Z</time>
      </trkpt>
      <trkpt lat="43.47288" lon="2.37747">
        <ele>551.212</ele>
        <time>2021-05-23T12:26:36Z</time>
      </trkpt>
      <trkpt lat="43.47288" lon="2.37747">
        <ele>551.212</ele>
        <time>2021-05-23T12:26:38Z</time>
      </trkpt>
      <trkpt lat="43.47288" lon="2.37747">
        <ele>551.212</ele>
        <time>2021-05-23T12:26:40Z</time>
      </trkpt>
      <trkpt lat="43.47288" lon="2.37747">
        <ele>551.212</ele>
        <time>2021-05-23T12:26:42Z</time>
      </trkpt>
      <trkpt lat="43.47288" lon="2.37747">
        <ele>551.214</ele>
        <time>2021-05-23T12:26:44Z</time>
      </trkpt>
      <trkpt lat="43.47288" lon="2.37747">
        <ele>551.214</ele>
        <time>2021-05-23T12:26:46Z</time>
      </trkpt>
      <trkpt lat="43.47288" lon="2.37747">
        <ele>551.213</ele>
        <time>2021-05-23T12:26:48Z</time>
      </trkpt>
      <trkpt lat="43.47288" lon="2.37747">
        <ele>551.223</ele>
        <time>2021-05-23T12:26:50Z</time>
      </trkpt>
      <trkpt lat="43.47288" lon="2.37747">
        <ele>551.229</ele>
        <time>2021-05-23T12:26:52Z</time>
      </trkpt>
      <trkpt lat="43.47288" lon="2.37747">
        <ele>551.231</ele>
        <time>2021-05-23T12:26:54Z</time>
      </trkpt>
      <trkpt lat="43.47288" lon="2.37747">
        <ele>551.233</ele>
        <time>2021-05-23T12:26:56Z</time>
      </trkpt>
      <trkpt lat="43.47288" lon="2.37747">
        <ele>551.232</ele>
        <time>2021-05-23T12:26:58Z</time>
      </trkpt>
      <trkpt lat="43.47288" lon="2.37747">
        <ele>551.233</ele>
        <time>2021-05-23T12:27:00Z</time>
      </trkpt>
      <trkpt lat="43.47288" lon="2.37747">
        <ele>551.232</ele>
        <time>2021-05-23T12:27:02Z</time>
      </trkpt>
      <trkpt lat="43.47288" lon="2.37747">
        <ele>551.233</ele>
        <time>2021-05-23T12:27:04Z</time>
      </trkpt>
      <trkpt lat="43.47288" lon="2.37747">
        <ele>551.234</ele>
        <time>2021-05-23T12:27:06Z</time>
      </trkpt>
      <trkpt lat="43.47288" lon="2.37747">
        <ele>551.234</ele>
        <time>2021-05-23T12:27:08Z</time>
      </trkpt>
      <trkpt lat="43.47288" lon="2.37747">
        <ele>551.237</ele>
        <time>2021-05-23T12:27:10Z</time>
      </trkpt>
      <trkpt lat="43.47288" lon="2.37747">
        <ele>551.24</ele>
        <time>2021-05-23T12:27:12Z</time>
      </trkpt>
      <trkpt lat="43.47288" lon="2.37747">
        <ele>551.241</ele>
        <time>2021-05-23T12:27:14Z</time>
      </trkpt>
      <trkpt lat="43.47288" lon="2.37747">
        <ele>551.244</ele>
        <time>2021-05-23T12:27:16Z</time>
      </trkpt>
      <trkpt lat="43.47288" lon="2.37747">
        <ele>551.245</ele>
        <time>2021-05-23T12:27:18Z</time>
      </trkpt>
      <trkpt lat="43.47288" lon="2.37747">
        <ele>551.246</ele>
        <time>2021-05-23T12:27:20Z</time>
      </trkpt>
      <trkpt lat="43.47288" lon="2.37747">
        <ele>551.246</ele>
        <time>2021-05-23T12:27:22Z</time>
      </trkpt>
      <trkpt lat="43.47288" lon="2.37747">
        <ele>551.252</ele>
        <time>2021-05-23T12:27:24Z</time>
      </trkpt>
      <trkpt lat="43.47288" lon="2.37747">
        <ele>551.254</ele>
        <time>2021-05-23T12:27:26Z</time>
      </trkpt>
      <trkpt lat="43.47288" lon="2.37747">
        <ele>551.257</ele>
        <time>2021-05-23T12:27:28Z</time>
      </trkpt>
      <trkpt lat="43.47288" lon="2.37747">
        <ele>551.265</ele>
        <time>2021-05-23T12:27:30Z</time>
      </trkpt>
      <trkpt lat="43.47288" lon="2.37747">
        <ele>551.269</ele>
        <time>2021-05-23T12:27:32Z</time>
      </trkpt>
      <trkpt lat="43.47288" lon="2.37747">
        <ele>551.271</ele>
        <time>2021-05-23T12:27:34Z</time>
      </trkpt>
      <trkpt lat="43.47288" lon="2.37747">
        <ele>551.276</ele>
        <time>2021-05-23T12:27:36Z</time>
      </trkpt>
      <trkpt lat="43.47288" lon="2.37747">
        <ele>551.277</ele>
        <time>2021-05-23T12:27:38Z</time>
      </trkpt>
      <trkpt lat="43.47288" lon="2.37747">
        <ele>551.281</ele>
        <time>2021-05-23T12:27:40Z</time>
      </trkpt>
      <trkpt lat="43.47288" lon="2.37747">
        <ele>551.283</ele>
        <time>2021-05-23T12:27:42Z</time>
      </trkpt>
      <trkpt lat="43.47288" lon="2.37747">
        <ele>551.289</ele>
        <time>2021-05-23T12:27:44Z</time>
      </trkpt>
      <trkpt lat="43.47288" lon="2.37747">
        <ele>551.29</ele>
        <time>2021-05-23T12:27:46Z</time>
      </trkpt>
      <trkpt lat="43.47288" lon="2.37747">
        <ele>551.293</ele>
        <time>2021-05-23T12:27:48Z</time>
      </trkpt>
      <trkpt lat="43.47288" lon="2.37747">
        <ele>551.296</ele>
        <time>2021-05-23T12:27:50Z</time>
      </trkpt>
      <trkpt lat="43.47288" lon="2.37747">
        <ele>551.302</ele>
        <time>2021-05-23T12:27:52Z</time>
      </trkpt>
      <trkpt lat="43.47288" lon="2.37747">
        <ele>551.307</ele>
        <time>2021-05-23T12:27:54Z</time>
      </trkpt>
      <trkpt lat="43.47288" lon="2.37747">
        <ele>551.313</ele>
        <time>2021-05-23T12:27:56Z</time>
      </trkpt>
      <trkpt lat="43.47288" lon="2.37747">
        <ele>551.319</ele>
        <time>2021-05-23T12:27:58Z</time>
      </trkpt>
      <trkpt lat="43.47288" lon="2.37747">
        <ele>551.323</ele>
        <time>2021-05-23T12:28:00Z</time>
      </trkpt>
      <trkpt lat="43.47288" lon="2.37747">
        <ele>551.33</ele>
        <time>2021-05-23T12:28:02Z</time>
      </trkpt>
      <trkpt lat="43.47288" lon="2.37747">
        <ele>551.334</ele>
        <time>2021-05-23T12:28:04Z</time>
      </trkpt>
      <trkpt lat="43.47288" lon="2.37747">
        <ele>551.34</ele>
        <time>2021-05-23T12:28:06Z</time>
      </trkpt>
      <trkpt lat="43.47288" lon="2.37747">
        <ele>551.343</ele>
        <time>2021-05-23T12:28:08Z</time>
      </trkpt>
      <trkpt lat="43.47288" lon="2.37747">
        <ele>551.345</ele>
        <time>2021-05-23T12:28:10Z</time>
      </trkpt>
      <trkpt lat="43.47288" lon="2.37747">
        <ele>551.356</ele>
        <time>2021-05-23T12:28:12Z</time>
      </trkpt>
      <trkpt lat="43.47288" lon="2.37747">
        <ele>551.361</ele>
        <time>2021-05-23T12:28:14Z</time>
      </trkpt>
      <trkpt lat="43.47288" lon="2.37747">
        <ele>551.368</ele>
        <time>2021-05-23T12:28:16Z</time>
      </trkpt>
      <trkpt lat="43.47288" lon="2.37747">
        <ele>551.375</ele>
        <time>2021-05-23T12:28:18Z</time>
      </trkpt>
      <trkpt lat="43.47288" lon="2.37747">
        <ele>551.378</ele>
        <time>2021-05-23T12:28:20Z</time>
      </trkpt>
      <trkpt lat="43.47288" lon="2.37747">
        <ele>551.379</ele>
        <time>2021-05-23T12:28:22Z</time>
      </trkpt>
      <trkpt lat="43.47288" lon="2.37747">
        <ele>551.382</ele>
        <time>2021-05-23T12:28:24Z</time>
      </trkpt>
      <trkpt lat="43.47288" lon="2.37747">
        <ele>551.384</ele>
        <time>2021-05-23T12:28:26Z</time>
      </trkpt>
      <trkpt lat="43.47288" lon="2.37747">
        <ele>551.382</ele>
        <time>2021-05-23T12:28:28Z</time>
      </trkpt>
      <trkpt lat="43.47288" lon="2.37747">
        <ele>551.383</ele>
        <time>2021-05-23T12:28:30Z</time>
      </trkpt>
      <trkpt lat="43.47288" lon="2.37747">
        <ele>551.385</ele>
        <time>2021-05-23T12:28:32Z</time>
      </trkpt>
      <trkpt lat="43.47288" lon="2.37747">
        <ele>551.391</ele>
        <time>2021-05-23T12:28:34Z</time>
      </trkpt>
      <trkpt lat="43.47288" lon="2.37747">
        <ele>551.394</ele>
        <time>2021-05-23T12:28:36Z</time>
      </trkpt>
      <trkpt lat="43.47288" lon="2.37747">
        <ele>551.394</ele>
        <time>2021-05-23T12:28:38Z</time>
      </trkpt>
      <trkpt lat="43.47288" lon="2.37747">
        <ele>551.394</ele>
        <time>2021-05-23T12:28:40Z</time>
      </trkpt>
      <trkpt lat="43.47288" lon="2.37747">
        <ele>551.395</ele>
        <time>2021-05-23T12:28:42Z</time>
      </trkpt>
      <trkpt lat="43.47288" lon="2.37747">
        <ele>551.4</ele>
        <time>2021-05-23T12:28:44Z</time>
      </trkpt>
      <trkpt lat="43.47288" lon="2.37747">
        <ele>551.399</ele>
        <time>2021-05-23T12:28:46Z</time>
      </trkpt>
      <trkpt lat="43.47288" lon="2.37747">
        <ele>551.4</ele>
        <time>2021-05-23T12:28:48Z</time>
      </trkpt>
      <trkpt lat="43.47288" lon="2.37747">
        <ele>551.401</ele>
        <time>2021-05-23T12:28:50Z</time>
      </trkpt>
      <trkpt lat="43.47288" lon="2.37747">
        <ele>551.404</ele>
        <time>2021-05-23T12:28:52Z</time>
      </trkpt>
      <trkpt lat="43.47288" lon="2.37747">
        <ele>551.403</ele>
        <time>2021-05-23T12:28:54Z</time>
      </trkpt>
      <trkpt lat="43.47288" lon="2.37747">
        <ele>551.402</ele>
        <time>2021-05-23T12:28:56Z</time>
      </trkpt>
      <trkpt lat="43.47288" lon="2.37747">
        <ele>551.402</ele>
        <time>2021-05-23T12:28:58Z</time>
      </trkpt>
      <trkpt lat="43.47288" lon="2.37747">
        <ele>551.4</ele>
        <time>2021-05-23T12:29:00Z</time>
      </trkpt>
      <trkpt lat="43.47288" lon="2.37747">
        <ele>551.401</ele>
        <time>2021-05-23T12:29:02Z</time>
      </trkpt>
      <trkpt lat="43.47288" lon="2.37747">
        <ele>551.403</ele>
        <time>2021-05-23T12:29:04Z</time>
      </trkpt>
      <trkpt lat="43.47288" lon="2.37747">
        <ele>551.403</ele>
        <time>2021-05-23T12:29:06Z</time>
      </trkpt>
      <trkpt lat="43.47288" lon="2.37747">
        <ele>551.401</ele>
        <time>2021-05-23T12:29:08Z</time>
      </trkpt>
      <trkpt lat="43.47289" lon="2.37747">
        <ele>551.402</ele>
        <time>2021-05-23T12:29:10Z</time>
      </trkpt>
      <trkpt lat="43.47289" lon="2.37747">
        <ele>551.401</ele>
        <time>2021-05-23T12:29:12Z</time>
      </trkpt>
      <trkpt lat="43.47289" lon="2.37747">
        <ele>551.4</ele>
        <time>2021-05-23T12:29:14Z</time>
      </trkpt>
      <trkpt lat="43.47289" lon="2.37747">
        <ele>551.401</ele>
        <time>2021-05-23T12:29:16Z</time>
      </trkpt>
      <trkpt lat="43.47289" lon="2.37747">
        <ele>551.403</ele>
        <time>2021-05-23T12:29:18Z</time>
      </trkpt>
      <trkpt lat="43.47289" lon="2.37747">
        <ele>551.404</ele>
        <time>2021-05-23T12:29:20Z</time>
      </trkpt>
      <trkpt lat="43.47289" lon="2.37747">
        <ele>551.405</ele>
        <time>2021-05-23T12:29:22Z</time>
      </trkpt>
      <trkpt lat="43.47289" lon="2.37747">
        <ele>551.407</ele>
        <time>2021-05-23T12:29:24Z</time>
      </trkpt>
      <trkpt lat="43.47289" lon="2.37747">
        <ele>551.41</ele>
        <time>2021-05-23T12:29:26Z</time>
      </trkpt>
      <trkpt lat="43.47289" lon="2.37747">
        <ele>551.411</ele>
        <time>2021-05-23T12:29:28Z</time>
      </trkpt>
      <trkpt lat="43.47289" lon="2.37747">
        <ele>551.411</ele>
        <time>2021-05-23T12:29:30Z</time>
      </trkpt>
      <trkpt lat="43.47289" lon="2.37747">
        <ele>551.41</ele>
        <time>2021-05-23T12:29:32Z</time>
      </trkpt>
      <trkpt lat="43.47289" lon="2.37747">
        <ele>551.409</ele>
        <time>2021-05-23T12:29:34Z</time>
      </trkpt>
      <trkpt lat="43.47289" lon="2.37747">
        <ele>551.41</ele>
        <time>2021-05-23T12:29:36Z</time>
      </trkpt>
      <trkpt lat="43.47289" lon="2.37747">
        <ele>551.413</ele>
        <time>2021-05-23T12:29:38Z</time>
      </trkpt>
      <trkpt lat="43.47289" lon="2.37747">
        <ele>551.415</ele>
        <time>2021-05-23T12:29:40Z</time>
      </trkpt>
      <trkpt lat="43.47289" lon="2.37747">
        <ele>551.415</ele>
        <time>2021-05-23T12:29:42Z</time>
      </trkpt>
      <trkpt lat="43.47289" lon="2.37747">
        <ele>551.413</ele>
        <time>2021-05-23T12:29:44Z</time>
      </trkpt>
      <trkpt lat="43.47289" lon="2.37747">
        <ele>551.414</ele>
        <time>2021-05-23T12:29:46Z</time>
      </trkpt>
      <trkpt lat="43.47289" lon="2.37747">
        <ele>551.414</ele>
        <time>2021-05-23T12:29:48Z</time>
      </trkpt>
      <trkpt lat="43.47289" lon="2.37747">
        <ele>551.417</ele>
        <time>2021-05-23T12:29:50Z</time>
      </trkpt>
      <trkpt lat="43.47289" lon="2.37747">
        <ele>551.423</ele>
        <time>2021-05-23T12:29:52Z</time>
      </trkpt>
      <trkpt lat="43.47289" lon="2.37747">
        <ele>551.429</ele>
        <time>2021-05-23T12:29:55Z</time>
      </trkpt>
      <trkpt lat="43.47289" lon="2.37747">
        <ele>551.433</ele>
        <time>2021-05-23T12:29:57Z</time>
      </trkpt>
      <trkpt lat="43.47289" lon="2.37747">
        <ele>551.438</ele>
        <time>2021-05-23T12:29:59Z</time>
      </trkpt>
      <trkpt lat="43.47289" lon="2.37747">
        <ele>551.441</ele>
        <time>2021-05-23T12:30:01Z</time>
      </trkpt>
      <trkpt lat="43.47289" lon="2.37747">
        <ele>551.445</ele>
        <time>2021-05-23T12:30:03Z</time>
      </trkpt>
      <trkpt lat="43.47289" lon="2.37747">
        <ele>551.448</ele>
        <time>2021-05-23T12:30:05Z</time>
      </trkpt>
      <trkpt lat="43.47289" lon="2.37747">
        <ele>551.449</ele>
        <time>2021-05-23T12:30:07Z</time>
      </trkpt>
      <trkpt lat="43.47289" lon="2.37747">
        <ele>551.45</ele>
        <time>2021-05-23T12:30:09Z</time>
      </trkpt>
      <trkpt lat="43.47289" lon="2.37747">
        <ele>551.451</ele>
        <time>2021-05-23T12:30:11Z</time>
      </trkpt>
      <trkpt lat="43.47289" lon="2.37747">
        <ele>551.454</ele>
        <time>2021-05-23T12:30:13Z</time>
      </trkpt>
      <trkpt lat="43.47289" lon="2.37747">
        <ele>551.457</ele>
        <time>2021-05-23T12:30:15Z</time>
      </trkpt>
      <trkpt lat="43.47289" lon="2.37747">
        <ele>551.458</ele>
        <time>2021-05-23T12:30:17Z</time>
      </trkpt>
      <trkpt lat="43.47289" lon="2.37747">
        <ele>551.459</ele>
        <time>2021-05-23T12:30:19Z</time>
      </trkpt>
      <trkpt lat="43.47289" lon="2.37747">
        <ele>551.457</ele>
        <time>2021-05-23T12:30:21Z</time>
      </trkpt>
      <trkpt lat="43.47289" lon="2.37747">
        <ele>551.46</ele>
        <time>2021-05-23T12:30:23Z</time>
      </trkpt>
      <trkpt lat="43.47289" lon="2.37747">
        <ele>551.462</ele>
        <time>2021-05-23T12:30:25Z</time>
      </trkpt>
      <trkpt lat="43.47289" lon="2.37747">
        <ele>551.462</ele>
        <time>2021-05-23T12:30:27Z</time>
      </trkpt>
      <trkpt lat="43.47289" lon="2.37747">
        <ele>551.465</ele>
        <time>2021-05-23T12:30:29Z</time>
      </trkpt>
      <trkpt lat="43.47289" lon="2.37747">
        <ele>551.463</ele>
        <time>2021-05-23T12:30:31Z</time>
      </trkpt>
      <trkpt lat="43.47289" lon="2.37747">
        <ele>551.462</ele>
        <time>2021-05-23T12:30:33Z</time>
      </trkpt>
      <trkpt lat="43.47289" lon="2.37747">
        <ele>551.463</ele>
        <time>2021-05-23T12:30:35Z</time>
      </trkpt>
      <trkpt lat="43.47289" lon="2.37747">
        <ele>551.462</ele>
        <time>2021-05-23T12:30:37Z</time>
      </trkpt>
      <trkpt lat="43.47289" lon="2.37747">
        <ele>551.462</ele>
        <time>2021-05-23T12:30:39Z</time>
      </trkpt>
      <trkpt lat="43.47289" lon="2.37747">
        <ele>551.461</ele>
        <time>2021-05-23T12:30:41Z</time>
      </trkpt>
      <trkpt lat="43.47289" lon="2.37747">
        <ele>551.46</ele>
        <time>2021-05-23T12:30:43Z</time>
      </trkpt>
      <trkpt lat="43.47289" lon="2.37747">
        <ele>551.46</ele>
        <time>2021-05-23T12:30:45Z</time>
      </trkpt>
      <trkpt lat="43.47289" lon="2.37747">
        <ele>551.46</ele>
        <time>2021-05-23T12:30:47Z</time>
      </trkpt>
      <trkpt lat="43.47289" lon="2.37747">
        <ele>551.46</ele>
        <time>2021-05-23T12:30:49Z</time>
      </trkpt>
      <trkpt lat="43.47289" lon="2.37747">
        <ele>551.464</ele>
        <time>2021-05-23T12:30:51Z</time>
      </trkpt>
      <trkpt lat="43.47289" lon="2.37747">
        <ele>551.465</ele>
        <time>2021-05-23T12:30:53Z</time>
      </trkpt>
      <trkpt lat="43.47289" lon="2.37747">
        <ele>551.462</ele>
        <time>2021-05-23T12:30:55Z</time>
      </trkpt>
      <trkpt lat="43.47289" lon="2.37747">
        <ele>551.462</ele>
        <time>2021-05-23T12:30:57Z</time>
      </trkpt>
      <trkpt lat="43.47289" lon="2.37747">
        <ele>551.459</ele>
        <time>2021-05-23T12:30:59Z</time>
      </trkpt>
      <trkpt lat="43.47289" lon="2.37747">
        <ele>551.46</ele>
        <time>2021-05-23T12:31:01Z</time>
      </trkpt>
      <trkpt lat="43.47289" lon="2.37747">
        <ele>551.458</ele>
        <time>2021-05-23T12:31:03Z</time>
      </trkpt>
      <trkpt lat="43.47289" lon="2.37747">
        <ele>551.458</ele>
        <time>2021-05-23T12:31:05Z</time>
      </trkpt>
      <trkpt lat="43.47289" lon="2.37747">
        <ele>551.458</ele>
        <time>2021-05-23T12:31:07Z</time>
      </trkpt>
      <trkpt lat="43.47289" lon="2.37747">
        <ele>551.463</ele>
        <time>2021-05-23T12:31:09Z</time>
      </trkpt>
      <trkpt lat="43.47289" lon="2.37747">
        <ele>551.464</ele>
        <time>2021-05-23T12:31:11Z</time>
      </trkpt>
      <trkpt lat="43.47289" lon="2.37747">
        <ele>551.465</ele>
        <time>2021-05-23T12:31:13Z</time>
      </trkpt>
      <trkpt lat="43.47289" lon="2.37747">
        <ele>551.469</ele>
        <time>2021-05-23T12:31:15Z</time>
      </trkpt>
      <trkpt lat="43.47289" lon="2.37747">
        <ele>551.471</ele>
        <time>2021-05-23T12:31:17Z</time>
      </trkpt>
      <trkpt lat="43.47289" lon="2.37747">
        <ele>551.333</ele>
        <time>2021-05-23T12:31:19Z</time>
      </trkpt>
      <trkpt lat="43.47289" lon="2.37748">
        <ele>551.395</ele>
        <time>2021-05-23T12:31:21Z</time>
      </trkpt>
      <trkpt lat="43.47289" lon="2.37748">
        <ele>551.593</ele>
        <time>2021-05-23T12:31:23Z</time>
      </trkpt>
      <trkpt lat="43.47289" lon="2.37747">
        <ele>551.543</ele>
        <time>2021-05-23T12:31:25Z</time>
      </trkpt>
      <trkpt lat="43.47289" lon="2.37747">
        <ele>551.544</ele>
        <time>2021-05-23T12:31:27Z</time>
      </trkpt>
      <trkpt lat="43.47289" lon="2.37747">
        <ele>551.545</ele>
        <time>2021-05-23T12:31:29Z</time>
      </trkpt>
      <trkpt lat="43.47289" lon="2.37747">
        <ele>551.548</ele>
        <time>2021-05-23T12:31:31Z</time>
      </trkpt>
      <trkpt lat="43.47289" lon="2.37747">
        <ele>551.551</ele>
        <time>2021-05-23T12:31:33Z</time>
      </trkpt>
      <trkpt lat="43.47289" lon="2.37747">
        <ele>551.553</ele>
        <time>2021-05-23T12:31:35Z</time>
      </trkpt>
      <trkpt lat="43.47289" lon="2.37747">
        <ele>551.554</ele>
        <time>2021-05-23T12:31:37Z</time>
      </trkpt>
      <trkpt lat="43.47289" lon="2.37747">
        <ele>551.556</ele>
        <time>2021-05-23T12:31:39Z</time>
      </trkpt>
      <trkpt lat="43.47289" lon="2.37747">
        <ele>551.557</ele>
        <time>2021-05-23T12:31:41Z</time>
      </trkpt>
      <trkpt lat="43.47289" lon="2.37747">
        <ele>551.56</ele>
        <time>2021-05-23T12:31:43Z</time>
      </trkpt>
      <trkpt lat="43.47289" lon="2.37747">
        <ele>551.56</ele>
        <time>2021-05-23T12:31:45Z</time>
      </trkpt>
      <trkpt lat="43.47289" lon="2.37747">
        <ele>551.561</ele>
        <time>2021-05-23T12:31:47Z</time>
      </trkpt>
      <trkpt lat="43.47289" lon="2.37747">
        <ele>551.563</ele>
        <time>2021-05-23T12:31:49Z</time>
      </trkpt>
      <trkpt lat="43.47289" lon="2.37747">
        <ele>551.563</ele>
        <time>2021-05-23T12:31:51Z</time>
      </trkpt>
      <trkpt lat="43.47289" lon="2.37747">
        <ele>551.564</ele>
        <time>2021-05-23T12:31:53Z</time>
      </trkpt>
      <trkpt lat="43.47289" lon="2.37747">
        <ele>551.565</ele>
        <time>2021-05-23T12:31:55Z</time>
      </trkpt>
      <trkpt lat="43.47289" lon="2.37747">
        <ele>551.57</ele>
        <time>2021-05-23T12:31:57Z</time>
      </trkpt>
      <trkpt lat="43.47289" lon="2.37747">
        <ele>551.572</ele>
        <time>2021-05-23T12:31:59Z</time>
      </trkpt>
      <trkpt lat="43.47289" lon="2.37747">
        <ele>551.573</ele>
        <time>2021-05-23T12:32:01Z</time>
      </trkpt>
      <trkpt lat="43.47289" lon="2.37747">
        <ele>551.574</ele>
        <time>2021-05-23T12:32:02Z</time>
      </trkpt>
      <trkpt lat="43.47289" lon="2.37747">
        <ele>551.574</ele>
        <time>2021-05-23T12:32:05Z</time>
      </trkpt>
      <trkpt lat="43.47289" lon="2.37747">
        <ele>551.579</ele>
        <time>2021-05-23T12:32:07Z</time>
      </trkpt>
      <trkpt lat="43.47289" lon="2.37747">
        <ele>551.581</ele>
        <time>2021-05-23T12:32:09Z</time>
      </trkpt>
      <trkpt lat="43.47289" lon="2.37747">
        <ele>551.583</ele>
        <time>2021-05-23T12:32:11Z</time>
      </trkpt>
      <trkpt lat="43.47289" lon="2.37747">
        <ele>551.583</ele>
        <time>2021-05-23T12:32:13Z</time>
      </trkpt>
      <trkpt lat="43.47289" lon="2.37747">
        <ele>551.585</ele>
        <time>2021-05-23T12:32:15Z</time>
      </trkpt>
      <trkpt lat="43.47289" lon="2.37747">
        <ele>551.585</ele>
        <time>2021-05-23T12:32:17Z</time>
      </trkpt>
      <trkpt lat="43.47289" lon="2.37747">
        <ele>551.585</ele>
        <time>2021-05-23T12:32:19Z</time>
      </trkpt>
      <trkpt lat="43.47289" lon="2.37747">
        <ele>551.584</ele>
        <time>2021-05-23T12:32:21Z</time>
      </trkpt>
      <trkpt lat="43.47289" lon="2.37747">
        <ele>551.584</ele>
        <time>2021-05-23T12:32:23Z</time>
      </trkpt>
      <trkpt lat="43.47289" lon="2.37747">
        <ele>551.586</ele>
        <time>2021-05-23T12:32:26Z</time>
      </trkpt>
      <trkpt lat="43.47289" lon="2.37747">
        <ele>551.588</ele>
        <time>2021-05-23T12:32:28Z</time>
      </trkpt>
      <trkpt lat="43.47289" lon="2.37747">
        <ele>551.588</ele>
        <time>2021-05-23T12:32:30Z</time>
      </trkpt>
      <trkpt lat="43.47289" lon="2.37747">
        <ele>551.585</ele>
        <time>2021-05-23T12:32:32Z</time>
      </trkpt>
      <trkpt lat="43.47289" lon="2.37747">
        <ele>551.585</ele>
        <time>2021-05-23T12:32:34Z</time>
      </trkpt>
      <trkpt lat="43.47289" lon="2.37747">
        <ele>551.584</ele>
        <time>2021-05-23T12:32:36Z</time>
      </trkpt>
      <trkpt lat="43.47289" lon="2.37747">
        <ele>551.584</ele>
        <time>2021-05-23T12:32:38Z</time>
      </trkpt>
      <trkpt lat="43.47289" lon="2.37747">
        <ele>551.582</ele>
        <time>2021-05-23T12:32:40Z</time>
      </trkpt>
      <trkpt lat="43.47289" lon="2.37747">
        <ele>551.583</ele>
        <time>2021-05-23T12:32:42Z</time>
      </trkpt>
      <trkpt lat="43.47289" lon="2.37747">
        <ele>551.583</ele>
        <time>2021-05-23T12:32:44Z</time>
      </trkpt>
      <trkpt lat="43.47289" lon="2.37747">
        <ele>551.584</ele>
        <time>2021-05-23T12:32:46Z</time>
      </trkpt>
      <trkpt lat="43.47289" lon="2.37747">
        <ele>551.585</ele>
        <time>2021-05-23T12:32:48Z</time>
      </trkpt>
      <trkpt lat="43.47289" lon="2.37747">
        <ele>551.585</ele>
        <time>2021-05-23T12:32:50Z</time>
      </trkpt>
      <trkpt lat="43.47289" lon="2.37747">
        <ele>551.584</ele>
        <time>2021-05-23T12:32:52Z</time>
      </trkpt>
      <trkpt lat="43.47289" lon="2.37747">
        <ele>551.588</ele>
        <time>2021-05-23T12:32:54Z</time>
      </trkpt>
      <trkpt lat="43.47289" lon="2.37747">
        <ele>551.588</ele>
        <time>2021-05-23T12:32:56Z</time>
      </trkpt>
      <trkpt lat="43.47289" lon="2.37747">
        <ele>551.59</ele>
        <time>2021-05-23T12:32:58Z</time>
      </trkpt>
      <trkpt lat="43.47289" lon="2.37747">
        <ele>551.592</ele>
        <time>2021-05-23T12:33:00Z</time>
      </trkpt>
      <trkpt lat="43.47289" lon="2.37747">
        <ele>551.591</ele>
        <time>2021-05-23T12:33:02Z</time>
      </trkpt>
      <trkpt lat="43.47289" lon="2.37747">
        <ele>551.593</ele>
        <time>2021-05-23T12:33:04Z</time>
      </trkpt>
      <trkpt lat="43.47289" lon="2.37747">
        <ele>551.594</ele>
        <time>2021-05-23T12:33:06Z</time>
      </trkpt>
      <trkpt lat="43.47289" lon="2.37747">
        <ele>551.594</ele>
        <time>2021-05-23T12:33:08Z</time>
      </trkpt>
      <trkpt lat="43.47289" lon="2.37747">
        <ele>551.598</ele>
        <time>2021-05-23T12:33:10Z</time>
      </trkpt>
      <trkpt lat="43.47289" lon="2.37747">
        <ele>551.6</ele>
        <time>2021-05-23T12:33:12Z</time>
      </trkpt>
      <trkpt lat="43.47289" lon="2.37747">
        <ele>551.603</ele>
        <time>2021-05-23T12:33:14Z</time>
      </trkpt>
      <trkpt lat="43.47289" lon="2.37747">
        <ele>551.605</ele>
        <time>2021-05-23T12:33:16Z</time>
      </trkpt>
      <trkpt lat="43.47289" lon="2.37747">
        <ele>551.606</ele>
        <time>2021-05-23T12:33:18Z</time>
      </trkpt>
      <trkpt lat="43.47289" lon="2.37747">
        <ele>551.607</ele>
        <time>2021-05-23T12:33:20Z</time>
      </trkpt>
      <trkpt lat="43.47289" lon="2.37747">
        <ele>551.609</ele>
        <time>2021-05-23T12:33:22Z</time>
      </trkpt>
      <trkpt lat="43.47289" lon="2.37747">
        <ele>551.61</ele>
        <time>2021-05-23T12:33:24Z</time>
      </trkpt>
      <trkpt lat="43.47289" lon="2.37747">
        <ele>551.61</ele>
        <time>2021-05-23T12:33:26Z</time>
      </trkpt>
      <trkpt lat="43.47289" lon="2.37747">
        <ele>551.611</ele>
        <time>2021-05-23T12:33:28Z</time>
      </trkpt>
      <trkpt lat="43.47289" lon="2.37747">
        <ele>551.615</ele>
        <time>2021-05-23T12:33:30Z</time>
      </trkpt>
      <trkpt lat="43.47289" lon="2.37747">
        <ele>551.617</ele>
        <time>2021-05-23T12:33:32Z</time>
      </trkpt>
      <trkpt lat="43.47289" lon="2.37747">
        <ele>551.618</ele>
        <time>2021-05-23T12:33:34Z</time>
      </trkpt>
      <trkpt lat="43.47289" lon="2.37747">
        <ele>551.62</ele>
        <time>2021-05-23T12:33:36Z</time>
      </trkpt>
      <trkpt lat="43.47289" lon="2.37747">
        <ele>551.622</ele>
        <time>2021-05-23T12:33:38Z</time>
      </trkpt>
      <trkpt lat="43.47289" lon="2.37747">
        <ele>551.623</ele>
        <time>2021-05-23T12:33:40Z</time>
      </trkpt>
      <trkpt lat="43.47289" lon="2.37747">
        <ele>551.623</ele>
        <time>2021-05-23T12:33:42Z</time>
      </trkpt>
      <trkpt lat="43.47289" lon="2.37747">
        <ele>551.632</ele>
        <time>2021-05-23T12:33:44Z</time>
      </trkpt>
      <trkpt lat="43.47289" lon="2.37747">
        <ele>551.634</ele>
        <time>2021-05-23T12:33:46Z</time>
      </trkpt>
      <trkpt lat="43.47289" lon="2.37747">
        <ele>551.638</ele>
        <time>2021-05-23T12:33:48Z</time>
      </trkpt>
      <trkpt lat="43.47289" lon="2.37747">
        <ele>551.646</ele>
        <time>2021-05-23T12:33:50Z</time>
      </trkpt>
      <trkpt lat="43.47289" lon="2.37747">
        <ele>551.655</ele>
        <time>2021-05-23T12:33:52Z</time>
      </trkpt>
      <trkpt lat="43.47289" lon="2.37747">
        <ele>551.653</ele>
        <time>2021-05-23T12:33:54Z</time>
      </trkpt>
      <trkpt lat="43.47289" lon="2.37747">
        <ele>551.654</ele>
        <time>2021-05-23T12:33:56Z</time>
      </trkpt>
      <trkpt lat="43.47289" lon="2.37747">
        <ele>551.655</ele>
        <time>2021-05-23T12:33:58Z</time>
      </trkpt>
      <trkpt lat="43.47289" lon="2.37747">
        <ele>551.657</ele>
        <time>2021-05-23T12:34:00Z</time>
      </trkpt>
      <trkpt lat="43.47289" lon="2.37747">
        <ele>551.666</ele>
        <time>2021-05-23T12:34:02Z</time>
      </trkpt>
      <trkpt lat="43.47289" lon="2.37747">
        <ele>551.673</ele>
        <time>2021-05-23T12:34:04Z</time>
      </trkpt>
      <trkpt lat="43.47289" lon="2.37747">
        <ele>551.687</ele>
        <time>2021-05-23T12:34:06Z</time>
      </trkpt>
      <trkpt lat="43.47289" lon="2.37747">
        <ele>551.693</ele>
        <time>2021-05-23T12:34:08Z</time>
      </trkpt>
      <trkpt lat="43.47289" lon="2.37747">
        <ele>551.697</ele>
        <time>2021-05-23T12:34:10Z</time>
      </trkpt>
      <trkpt lat="43.47289" lon="2.37747">
        <ele>551.699</ele>
        <time>2021-05-23T12:34:12Z</time>
      </trkpt>
      <trkpt lat="43.47289" lon="2.37747">
        <ele>551.705</ele>
        <time>2021-05-23T12:34:14Z</time>
      </trkpt>
      <trkpt lat="43.47289" lon="2.37747">
        <ele>551.706</ele>
        <time>2021-05-23T12:34:16Z</time>
      </trkpt>
      <trkpt lat="43.47289" lon="2.37747">
        <ele>551.708</ele>
        <time>2021-05-23T12:34:18Z</time>
      </trkpt>
      <trkpt lat="43.47289" lon="2.37747">
        <ele>551.711</ele>
        <time>2021-05-23T12:34:20Z</time>
      </trkpt>
      <trkpt lat="43.47289" lon="2.37747">
        <ele>551.713</ele>
        <time>2021-05-23T12:34:22Z</time>
      </trkpt>
      <trkpt lat="43.47289" lon="2.37747">
        <ele>551.715</ele>
        <time>2021-05-23T12:34:24Z</time>
      </trkpt>
      <trkpt lat="43.47289" lon="2.37747">
        <ele>551.722</ele>
        <time>2021-05-23T12:34:26Z</time>
      </trkpt>
      <trkpt lat="43.47289" lon="2.37747">
        <ele>551.723</ele>
        <time>2021-05-23T12:34:28Z</time>
      </trkpt>
      <trkpt lat="43.47289" lon="2.37747">
        <ele>551.723</ele>
        <time>2021-05-23T12:34:30Z</time>
      </trkpt>
      <trkpt lat="43.47289" lon="2.37747">
        <ele>551.726</ele>
        <time>2021-05-23T12:34:32Z</time>
      </trkpt>
      <trkpt lat="43.47289" lon="2.37747">
        <ele>551.725</ele>
        <time>2021-05-23T12:34:34Z</time>
      </trkpt>
      <trkpt lat="43.47289" lon="2.37747">
        <ele>551.727</ele>
        <time>2021-05-23T12:34:36Z</time>
      </trkpt>
      <trkpt lat="43.47289" lon="2.37747">
        <ele>551.734</ele>
        <time>2021-05-23T12:34:38Z</time>
      </trkpt>
      <trkpt lat="43.47289" lon="2.37747">
        <ele>551.731</ele>
        <time>2021-05-23T12:34:40Z</time>
      </trkpt>
      <trkpt lat="43.47289" lon="2.37747">
        <ele>551.731</ele>
        <time>2021-05-23T12:34:42Z</time>
      </trkpt>
      <trkpt lat="43.47289" lon="2.37747">
        <ele>551.729</ele>
        <time>2021-05-23T12:34:44Z</time>
      </trkpt>
      <trkpt lat="43.47289" lon="2.37747">
        <ele>551.733</ele>
        <time>2021-05-23T12:34:46Z</time>
      </trkpt>
      <trkpt lat="43.47289" lon="2.37747">
        <ele>551.739</ele>
        <time>2021-05-23T12:34:48Z</time>
      </trkpt>
      <trkpt lat="43.47289" lon="2.37747">
        <ele>551.74</ele>
        <time>2021-05-23T12:34:50Z</time>
      </trkpt>
      <trkpt lat="43.47289" lon="2.37747">
        <ele>551.744</ele>
        <time>2021-05-23T12:34:52Z</time>
      </trkpt>
      <trkpt lat="43.47289" lon="2.37747">
        <ele>551.745</ele>
        <time>2021-05-23T12:34:54Z</time>
      </trkpt>
      <trkpt lat="43.47289" lon="2.37747">
        <ele>551.744</ele>
        <time>2021-05-23T12:34:56Z</time>
      </trkpt>
      <trkpt lat="43.47289" lon="2.37747">
        <ele>551.742</ele>
        <time>2021-05-23T12:34:58Z</time>
      </trkpt>
      <trkpt lat="43.47289" lon="2.37747">
        <ele>551.741</ele>
        <time>2021-05-23T12:35:00Z</time>
      </trkpt>
      <trkpt lat="43.47289" lon="2.37747">
        <ele>551.742</ele>
        <time>2021-05-23T12:35:02Z</time>
      </trkpt>
      <trkpt lat="43.47289" lon="2.37747">
        <ele>551.807</ele>
        <time>2021-05-23T12:35:04Z</time>
      </trkpt>
      <trkpt lat="43.47289" lon="2.37747">
        <ele>551.091</ele>
        <time>2021-05-23T12:35:06Z</time>
      </trkpt>
      <trkpt lat="43.47289" lon="2.37747">
        <ele>551.151</ele>
        <time>2021-05-23T12:35:08Z</time>
      </trkpt>
      <trkpt lat="43.47289" lon="2.37747">
        <ele>550.685</ele>
        <time>2021-05-23T12:35:10Z</time>
      </trkpt>
      <trkpt lat="43.47288" lon="2.37748">
        <ele>550.469</ele>
        <time>2021-05-23T12:35:12Z</time>
      </trkpt>
      <trkpt lat="43.47288" lon="2.37748">
        <ele>550.467</ele>
        <time>2021-05-23T12:35:14Z</time>
      </trkpt>
      <trkpt lat="43.47289" lon="2.37748">
        <ele>550.511</ele>
        <time>2021-05-23T12:35:16Z</time>
      </trkpt>
      <trkpt lat="43.47289" lon="2.37748">
        <ele>549.732</ele>
        <time>2021-05-23T12:35:18Z</time>
      </trkpt>
      <trkpt lat="43.47289" lon="2.37748">
        <ele>549.209</ele>
        <time>2021-05-23T12:35:20Z</time>
      </trkpt>
      <trkpt lat="43.47289" lon="2.37748">
        <ele>549.212</ele>
        <time>2021-05-23T12:35:22Z</time>
      </trkpt>
      <trkpt lat="43.47289" lon="2.37748">
        <ele>549.215</ele>
        <time>2021-05-23T12:35:24Z</time>
      </trkpt>
      <trkpt lat="43.47289" lon="2.37748">
        <ele>549.215</ele>
        <time>2021-05-23T12:35:26Z</time>
      </trkpt>
      <trkpt lat="43.47289" lon="2.37748">
        <ele>549.212</ele>
        <time>2021-05-23T12:35:28Z</time>
      </trkpt>
      <trkpt lat="43.47289" lon="2.37748">
        <ele>549.211</ele>
        <time>2021-05-23T12:35:30Z</time>
      </trkpt>
      <trkpt lat="43.47289" lon="2.37748">
        <ele>549.212</ele>
        <time>2021-05-23T12:35:32Z</time>
      </trkpt>
      <trkpt lat="43.47289" lon="2.37747">
        <ele>549.417</ele>
        <time>2021-05-23T12:35:34Z</time>
      </trkpt>
      <trkpt lat="43.47289" lon="2.37747">
        <ele>550.477</ele>
        <time>2021-05-23T12:35:36Z</time>
      </trkpt>
      <trkpt lat="43.47289" lon="2.37748">
        <ele>550.957</ele>
        <time>2021-05-23T12:35:38Z</time>
      </trkpt>
      <trkpt lat="43.47288" lon="2.37748">
        <ele>551.439</ele>
        <time>2021-05-23T12:35:40Z</time>
      </trkpt>
      <trkpt lat="43.47288" lon="2.37748">
        <ele>550.783</ele>
        <time>2021-05-23T12:35:42Z</time>
      </trkpt>
      <trkpt lat="43.47287" lon="2.37747">
        <ele>550.777</ele>
        <time>2021-05-23T12:35:44Z</time>
      </trkpt>
      <trkpt lat="43.47287" lon="2.37747">
        <ele>550.781</ele>
        <time>2021-05-23T12:35:47Z</time>
      </trkpt>
      <trkpt lat="43.47287" lon="2.37747">
        <ele>550.775</ele>
        <time>2021-05-23T12:35:49Z</time>
      </trkpt>
      <trkpt lat="43.47287" lon="2.37748">
        <ele>550.941</ele>
        <time>2021-05-23T12:35:51Z</time>
      </trkpt>
      <trkpt lat="43.47287" lon="2.37748">
        <ele>550.927</ele>
        <time>2021-05-23T12:35:53Z</time>
      </trkpt>
      <trkpt lat="43.47287" lon="2.37747">
        <ele>550.435</ele>
        <time>2021-05-23T12:35:55Z</time>
      </trkpt>
      <trkpt lat="43.47287" lon="2.37747">
        <ele>550.403</ele>
        <time>2021-05-23T12:35:57Z</time>
      </trkpt>
      <trkpt lat="43.47287" lon="2.37747">
        <ele>550.4</ele>
        <time>2021-05-23T12:35:59Z</time>
      </trkpt>
      <trkpt lat="43.47287" lon="2.37747">
        <ele>550.404</ele>
        <time>2021-05-23T12:36:01Z</time>
      </trkpt>
      <trkpt lat="43.47287" lon="2.37747">
        <ele>550.394</ele>
        <time>2021-05-23T12:36:03Z</time>
      </trkpt>
      <trkpt lat="43.47287" lon="2.37747">
        <ele>550.402</ele>
        <time>2021-05-23T12:36:05Z</time>
      </trkpt>
      <trkpt lat="43.47287" lon="2.37747">
        <ele>550.403</ele>
        <time>2021-05-23T12:36:07Z</time>
      </trkpt>
      <trkpt lat="43.47287" lon="2.37747">
        <ele>550.41</ele>
        <time>2021-05-23T12:36:09Z</time>
      </trkpt>
      <trkpt lat="43.47287" lon="2.37747">
        <ele>550.422</ele>
        <time>2021-05-23T12:36:11Z</time>
      </trkpt>
      <trkpt lat="43.47287" lon="2.37747">
        <ele>550.432</ele>
        <time>2021-05-23T12:36:13Z</time>
      </trkpt>
      <trkpt lat="43.47287" lon="2.37747">
        <ele>550.449</ele>
        <time>2021-05-23T12:36:15Z</time>
      </trkpt>
      <trkpt lat="43.47287" lon="2.37747">
        <ele>550.446</ele>
        <time>2021-05-23T12:36:17Z</time>
      </trkpt>
      <trkpt lat="43.47287" lon="2.37747">
        <ele>550.437</ele>
        <time>2021-05-23T12:36:19Z</time>
      </trkpt>
      <trkpt lat="43.47287" lon="2.37747">
        <ele>550.424</ele>
        <time>2021-05-23T12:36:21Z</time>
      </trkpt>
      <trkpt lat="43.47287" lon="2.37747">
        <ele>550.399</ele>
        <time>2021-05-23T12:36:23Z</time>
      </trkpt>
      <trkpt lat="43.47287" lon="2.37747">
        <ele>550.396</ele>
        <time>2021-05-23T12:36:25Z</time>
      </trkpt>
      <trkpt lat="43.47287" lon="2.37747">
        <ele>550.388</ele>
        <time>2021-05-23T12:36:27Z</time>
      </trkpt>
      <trkpt lat="43.47287" lon="2.37747">
        <ele>550.376</ele>
        <time>2021-05-23T12:36:29Z</time>
      </trkpt>
      <trkpt lat="43.47288" lon="2.37747">
        <ele>549.64</ele>
        <time>2021-05-23T12:36:31Z</time>
      </trkpt>
      <trkpt lat="43.47288" lon="2.37747">
        <ele>548.132</ele>
        <time>2021-05-23T12:36:33Z</time>
      </trkpt>
      <trkpt lat="43.47288" lon="2.37747">
        <ele>548.121</ele>
        <time>2021-05-23T12:36:35Z</time>
      </trkpt>
      <trkpt lat="43.47288" lon="2.37747">
        <ele>548.128</ele>
        <time>2021-05-23T12:36:37Z</time>
      </trkpt>
      <trkpt lat="43.47288" lon="2.37747">
        <ele>548.13</ele>
        <time>2021-05-23T12:36:39Z</time>
      </trkpt>
      <trkpt lat="43.47288" lon="2.37747">
        <ele>548.123</ele>
        <time>2021-05-23T12:36:41Z</time>
      </trkpt>
      <trkpt lat="43.47288" lon="2.37747">
        <ele>548.123</ele>
        <time>2021-05-23T12:36:43Z</time>
      </trkpt>
      <trkpt lat="43.47288" lon="2.37747">
        <ele>548.109</ele>
        <time>2021-05-23T12:36:45Z</time>
      </trkpt>
      <trkpt lat="43.47288" lon="2.37747">
        <ele>548.097</ele>
        <time>2021-05-23T12:36:47Z</time>
      </trkpt>
      <trkpt lat="43.47288" lon="2.37747">
        <ele>548.098</ele>
        <time>2021-05-23T12:36:49Z</time>
      </trkpt>
      <trkpt lat="43.47288" lon="2.37747">
        <ele>548.092</ele>
        <time>2021-05-23T12:36:51Z</time>
      </trkpt>
      <trkpt lat="43.47288" lon="2.37747">
        <ele>548.093</ele>
        <time>2021-05-23T12:36:53Z</time>
      </trkpt>
      <trkpt lat="43.47288" lon="2.37747">
        <ele>548.168</ele>
        <time>2021-05-23T12:36:55Z</time>
      </trkpt>
      <trkpt lat="43.47288" lon="2.37747">
        <ele>548.171</ele>
        <time>2021-05-23T12:36:57Z</time>
      </trkpt>
      <trkpt lat="43.47288" lon="2.37747">
        <ele>548.171</ele>
        <time>2021-05-23T12:36:59Z</time>
      </trkpt>
      <trkpt lat="43.47288" lon="2.37747">
        <ele>548.17</ele>
        <time>2021-05-23T12:37:01Z</time>
      </trkpt>
      <trkpt lat="43.47288" lon="2.37747">
        <ele>548.162</ele>
        <time>2021-05-23T12:37:03Z</time>
      </trkpt>
      <trkpt lat="43.47288" lon="2.37747">
        <ele>548.152</ele>
        <time>2021-05-23T12:37:05Z</time>
      </trkpt>
      <trkpt lat="43.47288" lon="2.37747">
        <ele>548.268</ele>
        <time>2021-05-23T12:37:07Z</time>
      </trkpt>
      <trkpt lat="43.47288" lon="2.37747">
        <ele>547.64</ele>
        <time>2021-05-23T12:37:09Z</time>
      </trkpt>
      <trkpt lat="43.47288" lon="2.37748">
        <ele>547.138</ele>
        <time>2021-05-23T12:37:11Z</time>
      </trkpt>
      <trkpt lat="43.4729" lon="2.37749">
        <ele>547.739</ele>
        <time>2021-05-23T12:37:13Z</time>
      </trkpt>
      <trkpt lat="43.47291" lon="2.37749">
        <ele>548.282</ele>
        <time>2021-05-23T12:37:15Z</time>
      </trkpt>
      <trkpt lat="43.47293" lon="2.3775">
        <ele>549.05</ele>
        <time>2021-05-23T12:37:17Z</time>
      </trkpt>
      <trkpt lat="43.47294" lon="2.37751">
        <ele>549.251</ele>
        <time>2021-05-23T12:37:19Z</time>
      </trkpt>
      <trkpt lat="43.47296" lon="2.37753">
        <ele>549.78</ele>
        <time>2021-05-23T12:37:21Z</time>
      </trkpt>
      <trkpt lat="43.47297" lon="2.37753">
        <ele>549.754</ele>
        <time>2021-05-23T12:37:23Z</time>
      </trkpt>
      <trkpt lat="43.47299" lon="2.37754">
        <ele>549.725</ele>
        <time>2021-05-23T12:37:25Z</time>
      </trkpt>
      <trkpt lat="43.47301" lon="2.37754">
        <ele>549.739</ele>
        <time>2021-05-23T12:37:27Z</time>
      </trkpt>
      <trkpt lat="43.473" lon="2.37755">
        <ele>550.013</ele>
        <time>2021-05-23T12:37:29Z</time>
      </trkpt>
      <trkpt lat="43.473" lon="2.37755">
        <ele>550.048</ele>
        <time>2021-05-23T12:37:31Z</time>
      </trkpt>
      <trkpt lat="43.473" lon="2.37755">
        <ele>550.062</ele>
        <time>2021-05-23T12:37:33Z</time>
      </trkpt>
      <trkpt lat="43.473" lon="2.37755">
        <ele>550.088</ele>
        <time>2021-05-23T12:37:35Z</time>
      </trkpt>
      <trkpt lat="43.473" lon="2.37755">
        <ele>550.117</ele>
        <time>2021-05-23T12:37:37Z</time>
      </trkpt>
      <trkpt lat="43.473" lon="2.37755">
        <ele>550.125</ele>
        <time>2021-05-23T12:37:39Z</time>
      </trkpt>
      <trkpt lat="43.473" lon="2.37755">
        <ele>550.138</ele>
        <time>2021-05-23T12:37:41Z</time>
      </trkpt>
      <trkpt lat="43.473" lon="2.37755">
        <ele>550.145</ele>
        <time>2021-05-23T12:37:43Z</time>
      </trkpt>
      <trkpt lat="43.473" lon="2.37755">
        <ele>550.145</ele>
        <time>2021-05-23T12:37:45Z</time>
      </trkpt>
      <trkpt lat="43.473" lon="2.37755">
        <ele>550.158</ele>
        <time>2021-05-23T12:37:47Z</time>
      </trkpt>
      <trkpt lat="43.473" lon="2.37755">
        <ele>550.152</ele>
        <time>2021-05-23T12:37:49Z</time>
      </trkpt>
      <trkpt lat="43.473" lon="2.37755">
        <ele>550.151</ele>
        <time>2021-05-23T12:37:51Z</time>
      </trkpt>
      <trkpt lat="43.473" lon="2.37755">
        <ele>550.159</ele>
        <time>2021-05-23T12:37:53Z</time>
      </trkpt>
      <trkpt lat="43.473" lon="2.37755">
        <ele>550.147</ele>
        <time>2021-05-23T12:37:55Z</time>
      </trkpt>
      <trkpt lat="43.473" lon="2.37755">
        <ele>550.153</ele>
        <time>2021-05-23T12:37:57Z</time>
      </trkpt>
      <trkpt lat="43.473" lon="2.37755">
        <ele>550.147</ele>
        <time>2021-05-23T12:37:59Z</time>
      </trkpt>
      <trkpt lat="43.473" lon="2.37755">
        <ele>550.145</ele>
        <time>2021-05-23T12:38:01Z</time>
      </trkpt>
      <trkpt lat="43.473" lon="2.37755">
        <ele>550.154</ele>
        <time>2021-05-23T12:38:03Z</time>
      </trkpt>
      <trkpt lat="43.473" lon="2.37755">
        <ele>550.165</ele>
        <time>2021-05-23T12:38:05Z</time>
      </trkpt>
      <trkpt lat="43.473" lon="2.37755">
        <ele>550.177</ele>
        <time>2021-05-23T12:38:07Z</time>
      </trkpt>
      <trkpt lat="43.473" lon="2.37755">
        <ele>550.194</ele>
        <time>2021-05-23T12:38:09Z</time>
      </trkpt>
      <trkpt lat="43.473" lon="2.37755">
        <ele>550.208</ele>
        <time>2021-05-23T12:38:11Z</time>
      </trkpt>
      <trkpt lat="43.473" lon="2.37755">
        <ele>550.215</ele>
        <time>2021-05-23T12:38:13Z</time>
      </trkpt>
      <trkpt lat="43.473" lon="2.37755">
        <ele>550.197</ele>
        <time>2021-05-23T12:38:15Z</time>
      </trkpt>
      <trkpt lat="43.473" lon="2.37755">
        <ele>550.198</ele>
        <time>2021-05-23T12:38:17Z</time>
      </trkpt>
      <trkpt lat="43.473" lon="2.37755">
        <ele>550.187</ele>
        <time>2021-05-23T12:38:19Z</time>
      </trkpt>
      <trkpt lat="43.473" lon="2.37755">
        <ele>550.2</ele>
        <time>2021-05-23T12:38:21Z</time>
      </trkpt>
      <trkpt lat="43.473" lon="2.37755">
        <ele>550.245</ele>
        <time>2021-05-23T12:38:23Z</time>
      </trkpt>
      <trkpt lat="43.473" lon="2.37755">
        <ele>550.267</ele>
        <time>2021-05-23T12:38:25Z</time>
      </trkpt>
      <trkpt lat="43.473" lon="2.37755">
        <ele>550.785</ele>
        <time>2021-05-23T12:38:27Z</time>
      </trkpt>
      <trkpt lat="43.47299" lon="2.37753">
        <ele>550.439</ele>
        <time>2021-05-23T12:38:29Z</time>
      </trkpt>
      <trkpt lat="43.47298" lon="2.37752">
        <ele>551.269</ele>
        <time>2021-05-23T12:38:31Z</time>
      </trkpt>
      <trkpt lat="43.47297" lon="2.37751">
        <ele>551.257</ele>
        <time>2021-05-23T12:38:33Z</time>
      </trkpt>
      <trkpt lat="43.47298" lon="2.37751">
        <ele>550.975</ele>
        <time>2021-05-23T12:38:35Z</time>
      </trkpt>
      <trkpt lat="43.47298" lon="2.37752">
        <ele>551.112</ele>
        <time>2021-05-23T12:38:37Z</time>
      </trkpt>
      <trkpt lat="43.47298" lon="2.37752">
        <ele>551.139</ele>
        <time>2021-05-23T12:38:39Z</time>
      </trkpt>
      <trkpt lat="43.47298" lon="2.37752">
        <ele>551.055</ele>
        <time>2021-05-23T12:38:41Z</time>
      </trkpt>
      <trkpt lat="43.47298" lon="2.37752">
        <ele>551.087</ele>
        <time>2021-05-23T12:38:43Z</time>
      </trkpt>
      <trkpt lat="43.47298" lon="2.37753">
        <ele>550.727</ele>
        <time>2021-05-23T12:38:45Z</time>
      </trkpt>
      <trkpt lat="43.47298" lon="2.37753">
        <ele>550.735</ele>
        <time>2021-05-23T12:38:47Z</time>
      </trkpt>
      <trkpt lat="43.47298" lon="2.37753">
        <ele>550.752</ele>
        <time>2021-05-23T12:38:49Z</time>
      </trkpt>
      <trkpt lat="43.47298" lon="2.37753">
        <ele>550.756</ele>
        <time>2021-05-23T12:38:51Z</time>
      </trkpt>
      <trkpt lat="43.47298" lon="2.37753">
        <ele>550.766</ele>
        <time>2021-05-23T12:38:53Z</time>
      </trkpt>
      <trkpt lat="43.47298" lon="2.37753">
        <ele>550.723</ele>
        <time>2021-05-23T12:38:55Z</time>
      </trkpt>
      <trkpt lat="43.47298" lon="2.37753">
        <ele>550.544</ele>
        <time>2021-05-23T12:38:57Z</time>
      </trkpt>
      <trkpt lat="43.47298" lon="2.37754">
        <ele>551.318</ele>
        <time>2021-05-23T12:38:59Z</time>
      </trkpt>
      <trkpt lat="43.47296" lon="2.37754">
        <ele>550.369</ele>
        <time>2021-05-23T12:39:01Z</time>
      </trkpt>
      <trkpt lat="43.47296" lon="2.37755">
        <ele>549.835</ele>
        <time>2021-05-23T12:39:03Z</time>
      </trkpt>
      <trkpt lat="43.47296" lon="2.37755">
        <ele>549.674</ele>
        <time>2021-05-23T12:39:05Z</time>
      </trkpt>
      <trkpt lat="43.47296" lon="2.37754">
        <ele>549.679</ele>
        <time>2021-05-23T12:39:07Z</time>
      </trkpt>
      <trkpt lat="43.47296" lon="2.37755">
        <ele>549.698</ele>
        <time>2021-05-23T12:39:09Z</time>
      </trkpt>
      <trkpt lat="43.47296" lon="2.37755">
        <ele>549.724</ele>
        <time>2021-05-23T12:39:11Z</time>
      </trkpt>
      <trkpt lat="43.47296" lon="2.37754">
        <ele>549.727</ele>
        <time>2021-05-23T12:39:13Z</time>
      </trkpt>
      <trkpt lat="43.47296" lon="2.37754">
        <ele>549.731</ele>
        <time>2021-05-23T12:39:15Z</time>
      </trkpt>
      <trkpt lat="43.47296" lon="2.37754">
        <ele>549.724</ele>
        <time>2021-05-23T12:39:17Z</time>
      </trkpt>
      <trkpt lat="43.47295" lon="2.37754">
        <ele>549.18</ele>
        <time>2021-05-23T12:39:19Z</time>
      </trkpt>
      <trkpt lat="43.47294" lon="2.37753">
        <ele>548.472</ele>
        <time>2021-05-23T12:39:21Z</time>
      </trkpt>
      <trkpt lat="43.47293" lon="2.37751">
        <ele>548.717</ele>
        <time>2021-05-23T12:39:23Z</time>
      </trkpt>
      <trkpt lat="43.47291" lon="2.3775">
        <ele>548.536</ele>
        <time>2021-05-23T12:39:25Z</time>
      </trkpt>
      <trkpt lat="43.47289" lon="2.37748">
        <ele>548.49</ele>
        <time>2021-05-23T12:39:27Z</time>
      </trkpt>
      <trkpt lat="43.47289" lon="2.37747">
        <ele>549.722</ele>
        <time>2021-05-23T12:39:29Z</time>
      </trkpt>
      <trkpt lat="43.47288" lon="2.37746">
        <ele>549.718</ele>
        <time>2021-05-23T12:39:31Z</time>
      </trkpt>
      <trkpt lat="43.47287" lon="2.37746">
        <ele>549.694</ele>
        <time>2021-05-23T12:39:33Z</time>
      </trkpt>
      <trkpt lat="43.47288" lon="2.37746">
        <ele>549.314</ele>
        <time>2021-05-23T12:39:35Z</time>
      </trkpt>
      <trkpt lat="43.47289" lon="2.37746">
        <ele>551.832</ele>
        <time>2021-05-23T12:39:37Z</time>
      </trkpt>
      <trkpt lat="43.4729" lon="2.37746">
        <ele>551.985</ele>
        <time>2021-05-23T12:39:39Z</time>
      </trkpt>
      <trkpt lat="43.4729" lon="2.37746">
        <ele>551.893</ele>
        <time>2021-05-23T12:39:41Z</time>
      </trkpt>
      <trkpt lat="43.4729" lon="2.37746">
        <ele>551.892</ele>
        <time>2021-05-23T12:39:43Z</time>
      </trkpt>
      <trkpt lat="43.4729" lon="2.37746">
        <ele>551.178</ele>
        <time>2021-05-23T12:39:45Z</time>
      </trkpt>
      <trkpt lat="43.4729" lon="2.37746">
        <ele>551.181</ele>
        <time>2021-05-23T12:39:47Z</time>
      </trkpt>
      <trkpt lat="43.4729" lon="2.37746">
        <ele>551.179</ele>
        <time>2021-05-23T12:39:49Z</time>
      </trkpt>
      <trkpt lat="43.4729" lon="2.37746">
        <ele>551.188</ele>
        <time>2021-05-23T12:39:51Z</time>
      </trkpt>
      <trkpt lat="43.47291" lon="2.37746">
        <ele>551.099</ele>
        <time>2021-05-23T12:39:53Z</time>
      </trkpt>
      <trkpt lat="43.47291" lon="2.37746">
        <ele>551.129</ele>
        <time>2021-05-23T12:39:55Z</time>
      </trkpt>
      <trkpt lat="43.47291" lon="2.37746">
        <ele>551.126</ele>
        <time>2021-05-23T12:39:57Z</time>
      </trkpt>
      <trkpt lat="43.47291" lon="2.37746">
        <ele>551.127</ele>
        <time>2021-05-23T12:39:59Z</time>
      </trkpt>
      <trkpt lat="43.47291" lon="2.37746">
        <ele>551.134</ele>
        <time>2021-05-23T12:40:01Z</time>
      </trkpt>
      <trkpt lat="43.47291" lon="2.37746">
        <ele>551.135</ele>
        <time>2021-05-23T12:40:03Z</time>
      </trkpt>
      <trkpt lat="43.47291" lon="2.37746">
        <ele>551.342</ele>
        <time>2021-05-23T12:40:05Z</time>
      </trkpt>
      <trkpt lat="43.47291" lon="2.37746">
        <ele>551.14</ele>
        <time>2021-05-23T12:40:07Z</time>
      </trkpt>
      <trkpt lat="43.47291" lon="2.37746">
        <ele>551.131</ele>
        <time>2021-05-23T12:40:09Z</time>
      </trkpt>
      <trkpt lat="43.47291" lon="2.37746">
        <ele>551.114</ele>
        <time>2021-05-23T12:40:11Z</time>
      </trkpt>
      <trkpt lat="43.47291" lon="2.37746">
        <ele>551.094</ele>
        <time>2021-05-23T12:40:13Z</time>
      </trkpt>
      <trkpt lat="43.47291" lon="2.37746">
        <ele>551.098</ele>
        <time>2021-05-23T12:40:15Z</time>
      </trkpt>
      <trkpt lat="43.47291" lon="2.37746">
        <ele>551.094</ele>
        <time>2021-05-23T12:40:17Z</time>
      </trkpt>
      <trkpt lat="43.47291" lon="2.37746">
        <ele>551.089</ele>
        <time>2021-05-23T12:40:19Z</time>
      </trkpt>
      <trkpt lat="43.47291" lon="2.37746">
        <ele>551.172</ele>
        <time>2021-05-23T12:40:21Z</time>
      </trkpt>
      <trkpt lat="43.47291" lon="2.37746">
        <ele>551.18</ele>
        <time>2021-05-23T12:40:23Z</time>
      </trkpt>
      <trkpt lat="43.47291" lon="2.37746">
        <ele>551.172</ele>
        <time>2021-05-23T12:40:25Z</time>
      </trkpt>
      <trkpt lat="43.47291" lon="2.37746">
        <ele>551.165</ele>
        <time>2021-05-23T12:40:27Z</time>
      </trkpt>
      <trkpt lat="43.47291" lon="2.37746">
        <ele>551.155</ele>
        <time>2021-05-23T12:40:29Z</time>
      </trkpt>
      <trkpt lat="43.47291" lon="2.37746">
        <ele>551.142</ele>
        <time>2021-05-23T12:40:31Z</time>
      </trkpt>
      <trkpt lat="43.47291" lon="2.37746">
        <ele>551.08</ele>
        <time>2021-05-23T12:40:33Z</time>
      </trkpt>
      <trkpt lat="43.47291" lon="2.37746">
        <ele>550.417</ele>
        <time>2021-05-23T12:40:35Z</time>
      </trkpt>
      <trkpt lat="43.47291" lon="2.37745">
        <ele>550.198</ele>
        <time>2021-05-23T12:40:37Z</time>
      </trkpt>
      <trkpt lat="43.47291" lon="2.37745">
        <ele>550.163</ele>
        <time>2021-05-23T12:40:39Z</time>
      </trkpt>
      <trkpt lat="43.47291" lon="2.37745">
        <ele>550.154</ele>
        <time>2021-05-23T12:40:41Z</time>
      </trkpt>
      <trkpt lat="43.47291" lon="2.37745">
        <ele>550.141</ele>
        <time>2021-05-23T12:40:43Z</time>
      </trkpt>
      <trkpt lat="43.47291" lon="2.37745">
        <ele>550.13</ele>
        <time>2021-05-23T12:40:45Z</time>
      </trkpt>
      <trkpt lat="43.47291" lon="2.37745">
        <ele>550.113</ele>
        <time>2021-05-23T12:40:47Z</time>
      </trkpt>
      <trkpt lat="43.47291" lon="2.37745">
        <ele>550.094</ele>
        <time>2021-05-23T12:40:49Z</time>
      </trkpt>
      <trkpt lat="43.47291" lon="2.37745">
        <ele>550.079</ele>
        <time>2021-05-23T12:40:51Z</time>
      </trkpt>
      <trkpt lat="43.47291" lon="2.37745">
        <ele>550.067</ele>
        <time>2021-05-23T12:40:53Z</time>
      </trkpt>
      <trkpt lat="43.47291" lon="2.37745">
        <ele>550.055</ele>
        <time>2021-05-23T12:40:55Z</time>
      </trkpt>
      <trkpt lat="43.47291" lon="2.37745">
        <ele>550.043</ele>
        <time>2021-05-23T12:40:57Z</time>
      </trkpt>
      <trkpt lat="43.47291" lon="2.37745">
        <ele>550.029</ele>
        <time>2021-05-23T12:40:59Z</time>
      </trkpt>
      <trkpt lat="43.47291" lon="2.37745">
        <ele>550.033</ele>
        <time>2021-05-23T12:41:01Z</time>
      </trkpt>
      <trkpt lat="43.47291" lon="2.37745">
        <ele>550.015</ele>
        <time>2021-05-23T12:41:03Z</time>
      </trkpt>
      <trkpt lat="43.47291" lon="2.37745">
        <ele>549.992</ele>
        <time>2021-05-23T12:41:05Z</time>
      </trkpt>
      <trkpt lat="43.47291" lon="2.37745">
        <ele>549.975</ele>
        <time>2021-05-23T12:41:07Z</time>
      </trkpt>
      <trkpt lat="43.47291" lon="2.37745">
        <ele>549.959</ele>
        <time>2021-05-23T12:41:09Z</time>
      </trkpt>
      <trkpt lat="43.47291" lon="2.37745">
        <ele>549.949</ele>
        <time>2021-05-23T12:41:11Z</time>
      </trkpt>
      <trkpt lat="43.47291" lon="2.37745">
        <ele>549.931</ele>
        <time>2021-05-23T12:41:13Z</time>
      </trkpt>
      <trkpt lat="43.47291" lon="2.37745">
        <ele>549.911</ele>
        <time>2021-05-23T12:41:15Z</time>
      </trkpt>
      <trkpt lat="43.47291" lon="2.37745">
        <ele>549.91</ele>
        <time>2021-05-23T12:41:17Z</time>
      </trkpt>
      <trkpt lat="43.47291" lon="2.37745">
        <ele>549.908</ele>
        <time>2021-05-23T12:41:19Z</time>
      </trkpt>
      <trkpt lat="43.47291" lon="2.37745">
        <ele>549.894</ele>
        <time>2021-05-23T12:41:21Z</time>
      </trkpt>
      <trkpt lat="43.47291" lon="2.37745">
        <ele>549.879</ele>
        <time>2021-05-23T12:41:23Z</time>
      </trkpt>
      <trkpt lat="43.47291" lon="2.37745">
        <ele>549.873</ele>
        <time>2021-05-23T12:41:25Z</time>
      </trkpt>
      <trkpt lat="43.47291" lon="2.37745">
        <ele>549.861</ele>
        <time>2021-05-23T12:41:27Z</time>
      </trkpt>
      <trkpt lat="43.47291" lon="2.37745">
        <ele>549.863</ele>
        <time>2021-05-23T12:41:29Z</time>
      </trkpt>
      <trkpt lat="43.47291" lon="2.37745">
        <ele>549.862</ele>
        <time>2021-05-23T12:41:31Z</time>
      </trkpt>
      <trkpt lat="43.47291" lon="2.37745">
        <ele>549.429</ele>
        <time>2021-05-23T12:41:33Z</time>
      </trkpt>
      <trkpt lat="43.47291" lon="2.37745">
        <ele>549.045</ele>
        <time>2021-05-23T12:41:35Z</time>
      </trkpt>
      <trkpt lat="43.4729" lon="2.37744">
        <ele>548.87</ele>
        <time>2021-05-23T12:41:37Z</time>
      </trkpt>
      <trkpt lat="43.47289" lon="2.37744">
        <ele>548.955</ele>
        <time>2021-05-23T12:41:39Z</time>
      </trkpt>
      <trkpt lat="43.47288" lon="2.37743">
        <ele>549.239</ele>
        <time>2021-05-23T12:41:41Z</time>
      </trkpt>
      <trkpt lat="43.47287" lon="2.37743">
        <ele>548.383</ele>
        <time>2021-05-23T12:41:43Z</time>
      </trkpt>
      <trkpt lat="43.47287" lon="2.37743">
        <ele>549.584</ele>
        <time>2021-05-23T12:41:45Z</time>
      </trkpt>
      <trkpt lat="43.47285" lon="2.37743">
        <ele>550.146</ele>
        <time>2021-05-23T12:41:47Z</time>
      </trkpt>
      <trkpt lat="43.47284" lon="2.37743">
        <ele>550.78</ele>
        <time>2021-05-23T12:41:49Z</time>
      </trkpt>
      <trkpt lat="43.47282" lon="2.37742">
        <ele>551.76</ele>
        <time>2021-05-23T12:41:51Z</time>
      </trkpt>
      <trkpt lat="43.4728" lon="2.37741">
        <ele>552.539</ele>
        <time>2021-05-23T12:41:53Z</time>
      </trkpt>
      <trkpt lat="43.47278" lon="2.37741">
        <ele>552.698</ele>
        <time>2021-05-23T12:41:55Z</time>
      </trkpt>
      <trkpt lat="43.47276" lon="2.3774">
        <ele>552.035</ele>
        <time>2021-05-23T12:41:57Z</time>
      </trkpt>
      <trkpt lat="43.47274" lon="2.3774">
        <ele>551.089</ele>
        <time>2021-05-23T12:41:59Z</time>
      </trkpt>
      <trkpt lat="43.47272" lon="2.37739">
        <ele>550.532</ele>
        <time>2021-05-23T12:42:01Z</time>
      </trkpt>
      <trkpt lat="43.47271" lon="2.37739">
        <ele>550.22</ele>
        <time>2021-05-23T12:42:03Z</time>
      </trkpt>
      <trkpt lat="43.47269" lon="2.37738">
        <ele>550.724</ele>
        <time>2021-05-23T12:42:05Z</time>
      </trkpt>
      <trkpt lat="43.47267" lon="2.37738">
        <ele>549.986</ele>
        <time>2021-05-23T12:42:07Z</time>
      </trkpt>
      <trkpt lat="43.47265" lon="2.37737">
        <ele>549.644</ele>
        <time>2021-05-23T12:42:09Z</time>
      </trkpt>
      <trkpt lat="43.47264" lon="2.37736">
        <ele>547.356</ele>
        <time>2021-05-23T12:42:11Z</time>
      </trkpt>
      <trkpt lat="43.47263" lon="2.37735">
        <ele>546.667</ele>
        <time>2021-05-23T12:42:13Z</time>
      </trkpt>
      <trkpt lat="43.47261" lon="2.37735">
        <ele>546.054</ele>
        <time>2021-05-23T12:42:15Z</time>
      </trkpt>
      <trkpt lat="43.47259" lon="2.37736">
        <ele>545.637</ele>
        <time>2021-05-23T12:42:17Z</time>
      </trkpt>
      <trkpt lat="43.47257" lon="2.37736">
        <ele>545.633</ele>
        <time>2021-05-23T12:42:19Z</time>
      </trkpt>
      <trkpt lat="43.47255" lon="2.37738">
        <ele>544.41</ele>
        <time>2021-05-23T12:42:21Z</time>
      </trkpt>
      <trkpt lat="43.47253" lon="2.37739">
        <ele>544.634</ele>
        <time>2021-05-23T12:42:23Z</time>
      </trkpt>
      <trkpt lat="43.47251" lon="2.37739">
        <ele>544.377</ele>
        <time>2021-05-23T12:42:25Z</time>
      </trkpt>
      <trkpt lat="43.47249" lon="2.3774">
        <ele>543.981</ele>
        <time>2021-05-23T12:42:27Z</time>
      </trkpt>
      <trkpt lat="43.47247" lon="2.37742">
        <ele>544.98</ele>
        <time>2021-05-23T12:42:29Z</time>
      </trkpt>
      <trkpt lat="43.47246" lon="2.37742">
        <ele>545.368</ele>
        <time>2021-05-23T12:42:31Z</time>
      </trkpt>
      <trkpt lat="43.47244" lon="2.37743">
        <ele>545.832</ele>
        <time>2021-05-23T12:42:33Z</time>
      </trkpt>
      <trkpt lat="43.47242" lon="2.37744">
        <ele>546.628</ele>
        <time>2021-05-23T12:42:35Z</time>
      </trkpt>
      <trkpt lat="43.4724" lon="2.37745">
        <ele>546.115</ele>
        <time>2021-05-23T12:42:37Z</time>
      </trkpt>
      <trkpt lat="43.47238" lon="2.37745">
        <ele>546.689</ele>
        <time>2021-05-23T12:42:39Z</time>
      </trkpt>
      <trkpt lat="43.47236" lon="2.37745">
        <ele>546.401</ele>
        <time>2021-05-23T12:42:41Z</time>
      </trkpt>
      <trkpt lat="43.47234" lon="2.37746">
        <ele>546.417</ele>
        <time>2021-05-23T12:42:43Z</time>
      </trkpt>
      <trkpt lat="43.47232" lon="2.37746">
        <ele>547.438</ele>
        <time>2021-05-23T12:42:45Z</time>
      </trkpt>
      <trkpt lat="43.47231" lon="2.37746">
        <ele>547.15</ele>
        <time>2021-05-23T12:42:47Z</time>
      </trkpt>
      <trkpt lat="43.47229" lon="2.37747">
        <ele>547.924</ele>
        <time>2021-05-23T12:42:49Z</time>
      </trkpt>
      <trkpt lat="43.47227" lon="2.37747">
        <ele>548.132</ele>
        <time>2021-05-23T12:42:51Z</time>
      </trkpt>
      <trkpt lat="43.47225" lon="2.37748">
        <ele>548.023</ele>
        <time>2021-05-23T12:42:53Z</time>
      </trkpt>
      <trkpt lat="43.47224" lon="2.37748">
        <ele>548.962</ele>
        <time>2021-05-23T12:42:55Z</time>
      </trkpt>
      <trkpt lat="43.47222" lon="2.37749">
        <ele>548.88</ele>
        <time>2021-05-23T12:42:57Z</time>
      </trkpt>
      <trkpt lat="43.4722" lon="2.37749">
        <ele>547.427</ele>
        <time>2021-05-23T12:42:59Z</time>
      </trkpt>
      <trkpt lat="43.47218" lon="2.3775">
        <ele>548.034</ele>
        <time>2021-05-23T12:43:01Z</time>
      </trkpt>
      <trkpt lat="43.47216" lon="2.3775">
        <ele>548.965</ele>
        <time>2021-05-23T12:43:03Z</time>
      </trkpt>
      <trkpt lat="43.47214" lon="2.3775">
        <ele>550.084</ele>
        <time>2021-05-23T12:43:05Z</time>
      </trkpt>
      <trkpt lat="43.47213" lon="2.37752">
        <ele>548.267</ele>
        <time>2021-05-23T12:43:07Z</time>
      </trkpt>
      <trkpt lat="43.47211" lon="2.37753">
        <ele>547.146</ele>
        <time>2021-05-23T12:43:09Z</time>
      </trkpt>
      <trkpt lat="43.47208" lon="2.37753">
        <ele>546.521</ele>
        <time>2021-05-23T12:43:11Z</time>
      </trkpt>
      <trkpt lat="43.47206" lon="2.37754">
        <ele>546.688</ele>
        <time>2021-05-23T12:43:13Z</time>
      </trkpt>
      <trkpt lat="43.47204" lon="2.37754">
        <ele>548.99</ele>
        <time>2021-05-23T12:43:15Z</time>
      </trkpt>
      <trkpt lat="43.47202" lon="2.37755">
        <ele>549.368</ele>
        <time>2021-05-23T12:43:17Z</time>
      </trkpt>
      <trkpt lat="43.472" lon="2.37756">
        <ele>548.887</ele>
        <time>2021-05-23T12:43:19Z</time>
      </trkpt>
      <trkpt lat="43.47198" lon="2.37756">
        <ele>548.306</ele>
        <time>2021-05-23T12:43:21Z</time>
      </trkpt>
      <trkpt lat="43.47196" lon="2.37757">
        <ele>548.22</ele>
        <time>2021-05-23T12:43:23Z</time>
      </trkpt>
      <trkpt lat="43.47193" lon="2.37758">
        <ele>548.665</ele>
        <time>2021-05-23T12:43:25Z</time>
      </trkpt>
      <trkpt lat="43.47191" lon="2.37758">
        <ele>548.321</ele>
        <time>2021-05-23T12:43:27Z</time>
      </trkpt>
      <trkpt lat="43.47189" lon="2.37759">
        <ele>547.444</ele>
        <time>2021-05-23T12:43:29Z</time>
      </trkpt>
      <trkpt lat="43.47187" lon="2.3776">
        <ele>546.815</ele>
        <time>2021-05-23T12:43:31Z</time>
      </trkpt>
      <trkpt lat="43.47185" lon="2.37761">
        <ele>547.49</ele>
        <time>2021-05-23T12:43:33Z</time>
      </trkpt>
      <trkpt lat="43.47182" lon="2.37762">
        <ele>547.69</ele>
        <time>2021-05-23T12:43:35Z</time>
      </trkpt>
      <trkpt lat="43.4718" lon="2.37762">
        <ele>548.515</ele>
        <time>2021-05-23T12:43:37Z</time>
      </trkpt>
      <trkpt lat="43.47178" lon="2.37764">
        <ele>548.369</ele>
        <time>2021-05-23T12:43:39Z</time>
      </trkpt>
      <trkpt lat="43.47176" lon="2.37764">
        <ele>549.718</ele>
        <time>2021-05-23T12:43:41Z</time>
      </trkpt>
      <trkpt lat="43.47174" lon="2.37765">
        <ele>549.18</ele>
        <time>2021-05-23T12:43:43Z</time>
      </trkpt>
      <trkpt lat="43.47171" lon="2.37766">
        <ele>549.127</ele>
        <time>2021-05-23T12:43:45Z</time>
      </trkpt>
      <trkpt lat="43.47169" lon="2.37767">
        <ele>549.302</ele>
        <time>2021-05-23T12:43:47Z</time>
      </trkpt>
      <trkpt lat="43.47167" lon="2.37768">
        <ele>550.648</ele>
        <time>2021-05-23T12:43:49Z</time>
      </trkpt>
      <trkpt lat="43.47164" lon="2.37769">
        <ele>552.068</ele>
        <time>2021-05-23T12:43:51Z</time>
      </trkpt>
      <trkpt lat="43.47163" lon="2.3777">
        <ele>550.935</ele>
        <time>2021-05-23T12:43:53Z</time>
      </trkpt>
      <trkpt lat="43.47161" lon="2.37771">
        <ele>550.768</ele>
        <time>2021-05-23T12:43:55Z</time>
      </trkpt>
      <trkpt lat="43.47158" lon="2.37771">
        <ele>551.514</ele>
        <time>2021-05-23T12:43:57Z</time>
      </trkpt>
      <trkpt lat="43.47156" lon="2.37772">
        <ele>551.214</ele>
        <time>2021-05-23T12:43:59Z</time>
      </trkpt>
      <trkpt lat="43.47154" lon="2.37773">
        <ele>551.39</ele>
        <time>2021-05-23T12:44:01Z</time>
      </trkpt>
      <trkpt lat="43.47152" lon="2.37774">
        <ele>552.257</ele>
        <time>2021-05-23T12:44:03Z</time>
      </trkpt>
      <trkpt lat="43.4715" lon="2.37775">
        <ele>553.718</ele>
        <time>2021-05-23T12:44:05Z</time>
      </trkpt>
      <trkpt lat="43.47148" lon="2.37775">
        <ele>554.111</ele>
        <time>2021-05-23T12:44:07Z</time>
      </trkpt>
      <trkpt lat="43.47146" lon="2.37776">
        <ele>554.241</ele>
        <time>2021-05-23T12:44:09Z</time>
      </trkpt>
      <trkpt lat="43.47144" lon="2.37778">
        <ele>552.517</ele>
        <time>2021-05-23T12:44:11Z</time>
      </trkpt>
      <trkpt lat="43.47142" lon="2.37779">
        <ele>553.727</ele>
        <time>2021-05-23T12:44:13Z</time>
      </trkpt>
      <trkpt lat="43.47139" lon="2.3778">
        <ele>552.503</ele>
        <time>2021-05-23T12:44:15Z</time>
      </trkpt>
      <trkpt lat="43.47137" lon="2.37781">
        <ele>552.653</ele>
        <time>2021-05-23T12:44:17Z</time>
      </trkpt>
      <trkpt lat="43.47134" lon="2.37783">
        <ele>552.739</ele>
        <time>2021-05-23T12:44:19Z</time>
      </trkpt>
      <trkpt lat="43.47131" lon="2.37784">
        <ele>552.01</ele>
        <time>2021-05-23T12:44:21Z</time>
      </trkpt>
      <trkpt lat="43.47129" lon="2.37786">
        <ele>552.101</ele>
        <time>2021-05-23T12:44:23Z</time>
      </trkpt>
      <trkpt lat="43.47126" lon="2.37787">
        <ele>552.922</ele>
        <time>2021-05-23T12:44:25Z</time>
      </trkpt>
      <trkpt lat="43.47123" lon="2.37788">
        <ele>553.551</ele>
        <time>2021-05-23T12:44:27Z</time>
      </trkpt>
      <trkpt lat="43.4712" lon="2.37789">
        <ele>552.931</ele>
        <time>2021-05-23T12:44:29Z</time>
      </trkpt>
      <trkpt lat="43.47118" lon="2.37792">
        <ele>554.183</ele>
        <time>2021-05-23T12:44:31Z</time>
      </trkpt>
      <trkpt lat="43.47117" lon="2.37794">
        <ele>553.393</ele>
        <time>2021-05-23T12:44:33Z</time>
      </trkpt>
      <trkpt lat="43.47115" lon="2.37794">
        <ele>552.788</ele>
        <time>2021-05-23T12:44:35Z</time>
      </trkpt>
      <trkpt lat="43.47113" lon="2.37795">
        <ele>553.148</ele>
        <time>2021-05-23T12:44:37Z</time>
      </trkpt>
      <trkpt lat="43.47111" lon="2.37797">
        <ele>552.93</ele>
        <time>2021-05-23T12:44:39Z</time>
      </trkpt>
      <trkpt lat="43.47108" lon="2.37798">
        <ele>552.619</ele>
        <time>2021-05-23T12:44:41Z</time>
      </trkpt>
      <trkpt lat="43.47106" lon="2.37801">
        <ele>551.48</ele>
        <time>2021-05-23T12:44:43Z</time>
      </trkpt>
      <trkpt lat="43.47104" lon="2.37802">
        <ele>551.246</ele>
        <time>2021-05-23T12:44:45Z</time>
      </trkpt>
      <trkpt lat="43.47102" lon="2.37803">
        <ele>553.035</ele>
        <time>2021-05-23T12:44:47Z</time>
      </trkpt>
      <trkpt lat="43.47099" lon="2.37804">
        <ele>553.286</ele>
        <time>2021-05-23T12:44:49Z</time>
      </trkpt>
      <trkpt lat="43.47097" lon="2.37805">
        <ele>554.17</ele>
        <time>2021-05-23T12:44:51Z</time>
      </trkpt>
      <trkpt lat="43.47095" lon="2.37806">
        <ele>556.078</ele>
        <time>2021-05-23T12:44:53Z</time>
      </trkpt>
      <trkpt lat="43.47093" lon="2.37807">
        <ele>555.932</ele>
        <time>2021-05-23T12:44:55Z</time>
      </trkpt>
      <trkpt lat="43.47091" lon="2.37809">
        <ele>555.786</ele>
        <time>2021-05-23T12:44:57Z</time>
      </trkpt>
      <trkpt lat="43.47089" lon="2.37811">
        <ele>555.04</ele>
        <time>2021-05-23T12:44:59Z</time>
      </trkpt>
      <trkpt lat="43.47087" lon="2.37812">
        <ele>556.329</ele>
        <time>2021-05-23T12:45:01Z</time>
      </trkpt>
      <trkpt lat="43.47085" lon="2.37813">
        <ele>556.653</ele>
        <time>2021-05-23T12:45:03Z</time>
      </trkpt>
      <trkpt lat="43.47083" lon="2.37814">
        <ele>556.596</ele>
        <time>2021-05-23T12:45:05Z</time>
      </trkpt>
      <trkpt lat="43.47081" lon="2.37815">
        <ele>556.273</ele>
        <time>2021-05-23T12:45:07Z</time>
      </trkpt>
      <trkpt lat="43.47078" lon="2.37816">
        <ele>555.985</ele>
        <time>2021-05-23T12:45:09Z</time>
      </trkpt>
      <trkpt lat="43.47076" lon="2.37817">
        <ele>555.382</ele>
        <time>2021-05-23T12:45:11Z</time>
      </trkpt>
      <trkpt lat="43.47074" lon="2.37818">
        <ele>555.787</ele>
        <time>2021-05-23T12:45:13Z</time>
      </trkpt>
      <trkpt lat="43.47072" lon="2.37819">
        <ele>556.949</ele>
        <time>2021-05-23T12:45:15Z</time>
      </trkpt>
      <trkpt lat="43.4707" lon="2.3782">
        <ele>557.478</ele>
        <time>2021-05-23T12:45:17Z</time>
      </trkpt>
      <trkpt lat="43.47067" lon="2.37822">
        <ele>556.521</ele>
        <time>2021-05-23T12:45:19Z</time>
      </trkpt>
      <trkpt lat="43.47065" lon="2.37823">
        <ele>557.307</ele>
        <time>2021-05-23T12:45:21Z</time>
      </trkpt>
      <trkpt lat="43.47063" lon="2.37823">
        <ele>556.992</ele>
        <time>2021-05-23T12:45:23Z</time>
      </trkpt>
      <trkpt lat="43.4706" lon="2.37825">
        <ele>556.929</ele>
        <time>2021-05-23T12:45:25Z</time>
      </trkpt>
      <trkpt lat="43.47056" lon="2.37828">
        <ele>554.977</ele>
        <time>2021-05-23T12:45:27Z</time>
      </trkpt>
      <trkpt lat="43.47053" lon="2.3783">
        <ele>553.721</ele>
        <time>2021-05-23T12:45:29Z</time>
      </trkpt>
      <trkpt lat="43.4705" lon="2.37832">
        <ele>553.462</ele>
        <time>2021-05-23T12:45:31Z</time>
      </trkpt>
      <trkpt lat="43.47048" lon="2.37832">
        <ele>554.186</ele>
        <time>2021-05-23T12:45:33Z</time>
      </trkpt>
      <trkpt lat="43.47045" lon="2.37833">
        <ele>554.752</ele>
        <time>2021-05-23T12:45:35Z</time>
      </trkpt>
      <trkpt lat="43.47043" lon="2.37836">
        <ele>554.451</ele>
        <time>2021-05-23T12:45:37Z</time>
      </trkpt>
      <trkpt lat="43.4704" lon="2.37836">
        <ele>555.044</ele>
        <time>2021-05-23T12:45:39Z</time>
      </trkpt>
      <trkpt lat="43.47038" lon="2.37836">
        <ele>555.058</ele>
        <time>2021-05-23T12:45:41Z</time>
      </trkpt>
      <trkpt lat="43.47035" lon="2.37838">
        <ele>556.885</ele>
        <time>2021-05-23T12:45:43Z</time>
      </trkpt>
      <trkpt lat="43.47033" lon="2.37839">
        <ele>555.977</ele>
        <time>2021-05-23T12:45:45Z</time>
      </trkpt>
      <trkpt lat="43.4703" lon="2.3784">
        <ele>556.926</ele>
        <time>2021-05-23T12:45:47Z</time>
      </trkpt>
      <trkpt lat="43.47028" lon="2.37842">
        <ele>557.816</ele>
        <time>2021-05-23T12:45:49Z</time>
      </trkpt>
      <trkpt lat="43.47026" lon="2.37842">
        <ele>558.251</ele>
        <time>2021-05-23T12:45:51Z</time>
      </trkpt>
      <trkpt lat="43.47024" lon="2.37844">
        <ele>559.052</ele>
        <time>2021-05-23T12:45:53Z</time>
      </trkpt>
      <trkpt lat="43.47022" lon="2.37845">
        <ele>559.842</ele>
        <time>2021-05-23T12:45:55Z</time>
      </trkpt>
      <trkpt lat="43.4702" lon="2.37847">
        <ele>560.707</ele>
        <time>2021-05-23T12:45:57Z</time>
      </trkpt>
      <trkpt lat="43.47019" lon="2.37848">
        <ele>560.549</ele>
        <time>2021-05-23T12:45:59Z</time>
      </trkpt>
      <trkpt lat="43.47017" lon="2.37848">
        <ele>561.755</ele>
        <time>2021-05-23T12:46:01Z</time>
      </trkpt>
      <trkpt lat="43.47015" lon="2.37849">
        <ele>562.526</ele>
        <time>2021-05-23T12:46:03Z</time>
      </trkpt>
      <trkpt lat="43.47012" lon="2.37849">
        <ele>563.041</ele>
        <time>2021-05-23T12:46:05Z</time>
      </trkpt>
      <trkpt lat="43.4701" lon="2.3785">
        <ele>563.741</ele>
        <time>2021-05-23T12:46:07Z</time>
      </trkpt>
      <trkpt lat="43.47008" lon="2.37852">
        <ele>562.658</ele>
        <time>2021-05-23T12:46:09Z</time>
      </trkpt>
      <trkpt lat="43.47005" lon="2.37852">
        <ele>563.303</ele>
        <time>2021-05-23T12:46:11Z</time>
      </trkpt>
      <trkpt lat="43.47003" lon="2.37852">
        <ele>563.412</ele>
        <time>2021-05-23T12:46:13Z</time>
      </trkpt>
      <trkpt lat="43.47001" lon="2.37852">
        <ele>563.705</ele>
        <time>2021-05-23T12:46:15Z</time>
      </trkpt>
      <trkpt lat="43.46999" lon="2.37853">
        <ele>563.437</ele>
        <time>2021-05-23T12:46:17Z</time>
      </trkpt>
      <trkpt lat="43.46997" lon="2.37853">
        <ele>562.645</ele>
        <time>2021-05-23T12:46:19Z</time>
      </trkpt>
      <trkpt lat="43.46995" lon="2.37854">
        <ele>562.363</ele>
        <time>2021-05-23T12:46:21Z</time>
      </trkpt>
      <trkpt lat="43.46993" lon="2.37856">
        <ele>563.586</ele>
        <time>2021-05-23T12:46:23Z</time>
      </trkpt>
      <trkpt lat="43.4699" lon="2.37857">
        <ele>564.184</ele>
        <time>2021-05-23T12:46:25Z</time>
      </trkpt>
      <trkpt lat="43.46988" lon="2.37858">
        <ele>562.666</ele>
        <time>2021-05-23T12:46:27Z</time>
      </trkpt>
      <trkpt lat="43.46986" lon="2.3786">
        <ele>561.467</ele>
        <time>2021-05-23T12:46:29Z</time>
      </trkpt>
      <trkpt lat="43.46984" lon="2.37861">
        <ele>562.112</ele>
        <time>2021-05-23T12:46:31Z</time>
      </trkpt>
      <trkpt lat="43.46982" lon="2.37861">
        <ele>563.794</ele>
        <time>2021-05-23T12:46:33Z</time>
      </trkpt>
      <trkpt lat="43.4698" lon="2.37862">
        <ele>563.597</ele>
        <time>2021-05-23T12:46:35Z</time>
      </trkpt>
      <trkpt lat="43.46979" lon="2.37864">
        <ele>564.834</ele>
        <time>2021-05-23T12:46:37Z</time>
      </trkpt>
      <trkpt lat="43.46977" lon="2.37864">
        <ele>564.707</ele>
        <time>2021-05-23T12:46:39Z</time>
      </trkpt>
      <trkpt lat="43.46974" lon="2.37865">
        <ele>565.796</ele>
        <time>2021-05-23T12:46:41Z</time>
      </trkpt>
      <trkpt lat="43.46972" lon="2.37865">
        <ele>565.428</ele>
        <time>2021-05-23T12:46:43Z</time>
      </trkpt>
      <trkpt lat="43.46971" lon="2.37866">
        <ele>565.801</ele>
        <time>2021-05-23T12:46:45Z</time>
      </trkpt>
      <trkpt lat="43.46968" lon="2.37868">
        <ele>565.884</ele>
        <time>2021-05-23T12:46:47Z</time>
      </trkpt>
      <trkpt lat="43.46966" lon="2.37869">
        <ele>566.509</ele>
        <time>2021-05-23T12:46:49Z</time>
      </trkpt>
      <trkpt lat="43.46964" lon="2.3787">
        <ele>567.251</ele>
        <time>2021-05-23T12:46:51Z</time>
      </trkpt>
      <trkpt lat="43.46962" lon="2.37871">
        <ele>567.095</ele>
        <time>2021-05-23T12:46:53Z</time>
      </trkpt>
      <trkpt lat="43.46961" lon="2.37872">
        <ele>569.005</ele>
        <time>2021-05-23T12:46:55Z</time>
      </trkpt>
      <trkpt lat="43.46959" lon="2.37873">
        <ele>568.864</ele>
        <time>2021-05-23T12:46:57Z</time>
      </trkpt>
      <trkpt lat="43.46957" lon="2.37873">
        <ele>569.355</ele>
        <time>2021-05-23T12:46:59Z</time>
      </trkpt>
      <trkpt lat="43.46956" lon="2.37874">
        <ele>568.014</ele>
        <time>2021-05-23T12:47:01Z</time>
      </trkpt>
      <trkpt lat="43.46954" lon="2.37876">
        <ele>567.587</ele>
        <time>2021-05-23T12:47:03Z</time>
      </trkpt>
      <trkpt lat="43.46952" lon="2.37876">
        <ele>568.824</ele>
        <time>2021-05-23T12:47:05Z</time>
      </trkpt>
      <trkpt lat="43.46951" lon="2.37877">
        <ele>568.946</ele>
        <time>2021-05-23T12:47:07Z</time>
      </trkpt>
      <trkpt lat="43.46949" lon="2.37877">
        <ele>569.818</ele>
        <time>2021-05-23T12:47:09Z</time>
      </trkpt>
      <trkpt lat="43.46947" lon="2.37876">
        <ele>570.524</ele>
        <time>2021-05-23T12:47:11Z</time>
      </trkpt>
      <trkpt lat="43.46945" lon="2.37875">
        <ele>571.212</ele>
        <time>2021-05-23T12:47:13Z</time>
      </trkpt>
      <trkpt lat="43.46944" lon="2.37875">
        <ele>572.956</ele>
        <time>2021-05-23T12:47:15Z</time>
      </trkpt>
      <trkpt lat="43.46942" lon="2.37874">
        <ele>573.379</ele>
        <time>2021-05-23T12:47:17Z</time>
      </trkpt>
      <trkpt lat="43.4694" lon="2.37874">
        <ele>573.521</ele>
        <time>2021-05-23T12:47:19Z</time>
      </trkpt>
      <trkpt lat="43.46939" lon="2.37875">
        <ele>573.751</ele>
        <time>2021-05-23T12:47:21Z</time>
      </trkpt>
      <trkpt lat="43.46937" lon="2.37876">
        <ele>573.002</ele>
        <time>2021-05-23T12:47:23Z</time>
      </trkpt>
      <trkpt lat="43.46936" lon="2.37877">
        <ele>573.504</ele>
        <time>2021-05-23T12:47:25Z</time>
      </trkpt>
      <trkpt lat="43.46934" lon="2.37877">
        <ele>575.434</ele>
        <time>2021-05-23T12:47:27Z</time>
      </trkpt>
      <trkpt lat="43.46933" lon="2.37879">
        <ele>577.132</ele>
        <time>2021-05-23T12:47:29Z</time>
      </trkpt>
      <trkpt lat="43.46931" lon="2.3788">
        <ele>578.829</ele>
        <time>2021-05-23T12:47:31Z</time>
      </trkpt>
      <trkpt lat="43.46929" lon="2.3788">
        <ele>578.618</ele>
        <time>2021-05-23T12:47:33Z</time>
      </trkpt>
      <trkpt lat="43.46928" lon="2.37881">
        <ele>579.149</ele>
        <time>2021-05-23T12:47:35Z</time>
      </trkpt>
      <trkpt lat="43.46926" lon="2.37883">
        <ele>578.372</ele>
        <time>2021-05-23T12:47:37Z</time>
      </trkpt>
      <trkpt lat="43.46925" lon="2.37884">
        <ele>579.232</ele>
        <time>2021-05-23T12:47:39Z</time>
      </trkpt>
      <trkpt lat="43.46923" lon="2.37886">
        <ele>579.843</ele>
        <time>2021-05-23T12:47:41Z</time>
      </trkpt>
      <trkpt lat="43.46922" lon="2.37887">
        <ele>581.437</ele>
        <time>2021-05-23T12:47:43Z</time>
      </trkpt>
      <trkpt lat="43.46921" lon="2.37888">
        <ele>581.184</ele>
        <time>2021-05-23T12:47:45Z</time>
      </trkpt>
      <trkpt lat="43.46919" lon="2.3789">
        <ele>581.248</ele>
        <time>2021-05-23T12:47:47Z</time>
      </trkpt>
      <trkpt lat="43.46918" lon="2.37892">
        <ele>580.748</ele>
        <time>2021-05-23T12:47:49Z</time>
      </trkpt>
      <trkpt lat="43.46917" lon="2.37894">
        <ele>580.882</ele>
        <time>2021-05-23T12:47:51Z</time>
      </trkpt>
      <trkpt lat="43.46917" lon="2.37896">
        <ele>581.149</ele>
        <time>2021-05-23T12:47:53Z</time>
      </trkpt>
      <trkpt lat="43.46916" lon="2.37898">
        <ele>582.402</ele>
        <time>2021-05-23T12:47:55Z</time>
      </trkpt>
      <trkpt lat="43.46916" lon="2.379">
        <ele>584.339</ele>
        <time>2021-05-23T12:47:57Z</time>
      </trkpt>
      <trkpt lat="43.46915" lon="2.37902">
        <ele>583.681</ele>
        <time>2021-05-23T12:47:59Z</time>
      </trkpt>
      <trkpt lat="43.46914" lon="2.37903">
        <ele>584.335</ele>
        <time>2021-05-23T12:48:01Z</time>
      </trkpt>
      <trkpt lat="43.46912" lon="2.37903">
        <ele>585.319</ele>
        <time>2021-05-23T12:48:03Z</time>
      </trkpt>
      <trkpt lat="43.46911" lon="2.37905">
        <ele>585.036</ele>
        <time>2021-05-23T12:48:05Z</time>
      </trkpt>
      <trkpt lat="43.46909" lon="2.37906">
        <ele>585.375</ele>
        <time>2021-05-23T12:48:07Z</time>
      </trkpt>
      <trkpt lat="43.46908" lon="2.37908">
        <ele>585.569</ele>
        <time>2021-05-23T12:48:09Z</time>
      </trkpt>
      <trkpt lat="43.46906" lon="2.37909">
        <ele>584.819</ele>
        <time>2021-05-23T12:48:11Z</time>
      </trkpt>
      <trkpt lat="43.46905" lon="2.3791">
        <ele>587.073</ele>
        <time>2021-05-23T12:48:13Z</time>
      </trkpt>
      <trkpt lat="43.46903" lon="2.37911">
        <ele>586.186</ele>
        <time>2021-05-23T12:48:15Z</time>
      </trkpt>
      <trkpt lat="43.46902" lon="2.37911">
        <ele>586.407</ele>
        <time>2021-05-23T12:48:17Z</time>
      </trkpt>
      <trkpt lat="43.469" lon="2.37911">
        <ele>586.241</ele>
        <time>2021-05-23T12:48:19Z</time>
      </trkpt>
      <trkpt lat="43.46899" lon="2.37911">
        <ele>586.676</ele>
        <time>2021-05-23T12:48:21Z</time>
      </trkpt>
      <trkpt lat="43.46897" lon="2.37911">
        <ele>586.095</ele>
        <time>2021-05-23T12:48:23Z</time>
      </trkpt>
      <trkpt lat="43.46895" lon="2.3791">
        <ele>586.524</ele>
        <time>2021-05-23T12:48:25Z</time>
      </trkpt>
      <trkpt lat="43.46893" lon="2.3791">
        <ele>585.869</ele>
        <time>2021-05-23T12:48:27Z</time>
      </trkpt>
      <trkpt lat="43.46891" lon="2.37909">
        <ele>585.829</ele>
        <time>2021-05-23T12:48:29Z</time>
      </trkpt>
      <trkpt lat="43.4689" lon="2.37908">
        <ele>584.719</ele>
        <time>2021-05-23T12:48:31Z</time>
      </trkpt>
      <trkpt lat="43.46888" lon="2.37907">
        <ele>586.138</ele>
        <time>2021-05-23T12:48:33Z</time>
      </trkpt>
      <trkpt lat="43.46886" lon="2.37906">
        <ele>587.331</ele>
        <time>2021-05-23T12:48:35Z</time>
      </trkpt>
      <trkpt lat="43.46884" lon="2.37905">
        <ele>587.765</ele>
        <time>2021-05-23T12:48:37Z</time>
      </trkpt>
      <trkpt lat="43.46882" lon="2.37905">
        <ele>587.886</ele>
        <time>2021-05-23T12:48:39Z</time>
      </trkpt>
      <trkpt lat="43.4688" lon="2.37905">
        <ele>587.816</ele>
        <time>2021-05-23T12:48:41Z</time>
      </trkpt>
      <trkpt lat="43.46878" lon="2.37905">
        <ele>588.957</ele>
        <time>2021-05-23T12:48:43Z</time>
      </trkpt>
      <trkpt lat="43.46877" lon="2.37905">
        <ele>589.306</ele>
        <time>2021-05-23T12:48:45Z</time>
      </trkpt>
      <trkpt lat="43.46875" lon="2.37905">
        <ele>588.612</ele>
        <time>2021-05-23T12:48:47Z</time>
      </trkpt>
      <trkpt lat="43.46874" lon="2.37905">
        <ele>588.87</ele>
        <time>2021-05-23T12:48:49Z</time>
      </trkpt>
      <trkpt lat="43.46872" lon="2.37905">
        <ele>589.712</ele>
        <time>2021-05-23T12:48:51Z</time>
      </trkpt>
      <trkpt lat="43.4687" lon="2.37905">
        <ele>590.448</ele>
        <time>2021-05-23T12:48:53Z</time>
      </trkpt>
      <trkpt lat="43.46869" lon="2.37905">
        <ele>590.305</ele>
        <time>2021-05-23T12:48:55Z</time>
      </trkpt>
      <trkpt lat="43.46867" lon="2.37906">
        <ele>589.499</ele>
        <time>2021-05-23T12:48:57Z</time>
      </trkpt>
      <trkpt lat="43.46866" lon="2.37906">
        <ele>589.994</ele>
        <time>2021-05-23T12:48:59Z</time>
      </trkpt>
      <trkpt lat="43.46864" lon="2.37906">
        <ele>588.334</ele>
        <time>2021-05-23T12:49:01Z</time>
      </trkpt>
      <trkpt lat="43.46862" lon="2.37907">
        <ele>591.325</ele>
        <time>2021-05-23T12:49:03Z</time>
      </trkpt>
      <trkpt lat="43.46861" lon="2.37908">
        <ele>591.419</ele>
        <time>2021-05-23T12:49:05Z</time>
      </trkpt>
      <trkpt lat="43.46859" lon="2.37909">
        <ele>592.653</ele>
        <time>2021-05-23T12:49:07Z</time>
      </trkpt>
      <trkpt lat="43.46858" lon="2.3791">
        <ele>594.493</ele>
        <time>2021-05-23T12:49:09Z</time>
      </trkpt>
      <trkpt lat="43.46856" lon="2.37911">
        <ele>594.452</ele>
        <time>2021-05-23T12:49:11Z</time>
      </trkpt>
      <trkpt lat="43.46855" lon="2.37912">
        <ele>594.623</ele>
        <time>2021-05-23T12:49:13Z</time>
      </trkpt>
      <trkpt lat="43.46854" lon="2.37913">
        <ele>594.091</ele>
        <time>2021-05-23T12:49:15Z</time>
      </trkpt>
      <trkpt lat="43.46852" lon="2.37914">
        <ele>593.396</ele>
        <time>2021-05-23T12:49:17Z</time>
      </trkpt>
      <trkpt lat="43.4685" lon="2.37914">
        <ele>594.57</ele>
        <time>2021-05-23T12:49:19Z</time>
      </trkpt>
      <trkpt lat="43.46849" lon="2.37915">
        <ele>594.939</ele>
        <time>2021-05-23T12:49:21Z</time>
      </trkpt>
      <trkpt lat="43.46848" lon="2.37915">
        <ele>595.022</ele>
        <time>2021-05-23T12:49:23Z</time>
      </trkpt>
      <trkpt lat="43.46846" lon="2.37916">
        <ele>594.918</ele>
        <time>2021-05-23T12:49:25Z</time>
      </trkpt>
      <trkpt lat="43.46844" lon="2.37917">
        <ele>594.457</ele>
        <time>2021-05-23T12:49:27Z</time>
      </trkpt>
      <trkpt lat="43.46843" lon="2.37918">
        <ele>594.616</ele>
        <time>2021-05-23T12:49:29Z</time>
      </trkpt>
      <trkpt lat="43.46841" lon="2.37918">
        <ele>594.217</ele>
        <time>2021-05-23T12:49:31Z</time>
      </trkpt>
      <trkpt lat="43.4684" lon="2.3792">
        <ele>593.051</ele>
        <time>2021-05-23T12:49:33Z</time>
      </trkpt>
      <trkpt lat="43.46838" lon="2.37921">
        <ele>594.394</ele>
        <time>2021-05-23T12:49:35Z</time>
      </trkpt>
      <trkpt lat="43.46837" lon="2.37923">
        <ele>594.962</ele>
        <time>2021-05-23T12:49:37Z</time>
      </trkpt>
      <trkpt lat="43.46835" lon="2.37924">
        <ele>596.167</ele>
        <time>2021-05-23T12:49:39Z</time>
      </trkpt>
      <trkpt lat="43.46834" lon="2.37926">
        <ele>596.059</ele>
        <time>2021-05-23T12:49:41Z</time>
      </trkpt>
      <trkpt lat="43.46832" lon="2.37928">
        <ele>597.183</ele>
        <time>2021-05-23T12:49:43Z</time>
      </trkpt>
      <trkpt lat="43.46831" lon="2.37929">
        <ele>596.876</ele>
        <time>2021-05-23T12:49:45Z</time>
      </trkpt>
      <trkpt lat="43.4683" lon="2.37931">
        <ele>597.248</ele>
        <time>2021-05-23T12:49:47Z</time>
      </trkpt>
      <trkpt lat="43.46829" lon="2.37933">
        <ele>597.556</ele>
        <time>2021-05-23T12:49:49Z</time>
      </trkpt>
      <trkpt lat="43.46828" lon="2.37937">
        <ele>597.736</ele>
        <time>2021-05-23T12:49:51Z</time>
      </trkpt>
      <trkpt lat="43.46831" lon="2.37941">
        <ele>597.365</ele>
        <time>2021-05-23T12:49:53Z</time>
      </trkpt>
      <trkpt lat="43.46831" lon="2.37941">
        <ele>597.371</ele>
        <time>2021-05-23T12:49:55Z</time>
      </trkpt>
      <trkpt lat="43.46831" lon="2.37941">
        <ele>597.358</ele>
        <time>2021-05-23T12:49:57Z</time>
      </trkpt>
      <trkpt lat="43.46831" lon="2.37941">
        <ele>597.347</ele>
        <time>2021-05-23T12:49:59Z</time>
      </trkpt>
      <trkpt lat="43.46831" lon="2.37941">
        <ele>597.361</ele>
        <time>2021-05-23T12:50:01Z</time>
      </trkpt>
      <trkpt lat="43.46831" lon="2.37941">
        <ele>597.361</ele>
        <time>2021-05-23T12:50:03Z</time>
      </trkpt>
      <trkpt lat="43.46831" lon="2.37941">
        <ele>597.361</ele>
        <time>2021-05-23T12:50:05Z</time>
      </trkpt>
      <trkpt lat="43.46831" lon="2.37941">
        <ele>597.357</ele>
        <time>2021-05-23T12:50:07Z</time>
      </trkpt>
      <trkpt lat="43.4683" lon="2.37941">
        <ele>597.447</ele>
        <time>2021-05-23T12:50:09Z</time>
      </trkpt>
      <trkpt lat="43.4683" lon="2.37948">
        <ele>596.708</ele>
        <time>2021-05-23T12:50:11Z</time>
      </trkpt>
      <trkpt lat="43.46832" lon="2.37953">
        <ele>596.651</ele>
        <time>2021-05-23T12:50:13Z</time>
      </trkpt>
      <trkpt lat="43.46831" lon="2.37958">
        <ele>596.731</ele>
        <time>2021-05-23T12:50:15Z</time>
      </trkpt>
      <trkpt lat="43.4683" lon="2.37962">
        <ele>598.111</ele>
        <time>2021-05-23T12:50:17Z</time>
      </trkpt>
      <trkpt lat="43.46828" lon="2.37966">
        <ele>599.52</ele>
        <time>2021-05-23T12:50:19Z</time>
      </trkpt>
      <trkpt lat="43.46827" lon="2.37968">
        <ele>600.172</ele>
        <time>2021-05-23T12:50:21Z</time>
      </trkpt>
      <trkpt lat="43.46826" lon="2.3797">
        <ele>599.699</ele>
        <time>2021-05-23T12:50:23Z</time>
      </trkpt>
      <trkpt lat="43.46825" lon="2.37971">
        <ele>599.584</ele>
        <time>2021-05-23T12:50:25Z</time>
      </trkpt>
      <trkpt lat="43.46823" lon="2.37972">
        <ele>600.665</ele>
        <time>2021-05-23T12:50:27Z</time>
      </trkpt>
      <trkpt lat="43.46821" lon="2.37973">
        <ele>600.596</ele>
        <time>2021-05-23T12:50:29Z</time>
      </trkpt>
      <trkpt lat="43.46819" lon="2.37973">
        <ele>599.416</ele>
        <time>2021-05-23T12:50:31Z</time>
      </trkpt>
      <trkpt lat="43.46817" lon="2.37972">
        <ele>598.557</ele>
        <time>2021-05-23T12:50:33Z</time>
      </trkpt>
      <trkpt lat="43.46812" lon="2.37969">
        <ele>598.664</ele>
        <time>2021-05-23T12:50:35Z</time>
      </trkpt>
      <trkpt lat="43.46809" lon="2.3797">
        <ele>599.003</ele>
        <time>2021-05-23T12:50:37Z</time>
      </trkpt>
      <trkpt lat="43.46807" lon="2.3797">
        <ele>599.231</ele>
        <time>2021-05-23T12:50:39Z</time>
      </trkpt>
      <trkpt lat="43.46805" lon="2.3797">
        <ele>600.332</ele>
        <time>2021-05-23T12:50:41Z</time>
      </trkpt>
      <trkpt lat="43.46803" lon="2.37972">
        <ele>600.982</ele>
        <time>2021-05-23T12:50:43Z</time>
      </trkpt>
      <trkpt lat="43.46801" lon="2.37972">
        <ele>600.933</ele>
        <time>2021-05-23T12:50:45Z</time>
      </trkpt>
      <trkpt lat="43.46799" lon="2.37973">
        <ele>601.23</ele>
        <time>2021-05-23T12:50:47Z</time>
      </trkpt>
      <trkpt lat="43.46797" lon="2.37974">
        <ele>602.326</ele>
        <time>2021-05-23T12:50:49Z</time>
      </trkpt>
      <trkpt lat="43.46794" lon="2.37974">
        <ele>603.259</ele>
        <time>2021-05-23T12:50:51Z</time>
      </trkpt>
      <trkpt lat="43.46792" lon="2.37974">
        <ele>603.837</ele>
        <time>2021-05-23T12:50:53Z</time>
      </trkpt>
      <trkpt lat="43.4679" lon="2.37975">
        <ele>603.588</ele>
        <time>2021-05-23T12:50:55Z</time>
      </trkpt>
      <trkpt lat="43.46788" lon="2.37976">
        <ele>603.66</ele>
        <time>2021-05-23T12:50:57Z</time>
      </trkpt>
      <trkpt lat="43.46786" lon="2.37976">
        <ele>603.921</ele>
        <time>2021-05-23T12:50:59Z</time>
      </trkpt>
      <trkpt lat="43.46786" lon="2.37977">
        <ele>604.143</ele>
        <time>2021-05-23T12:51:00Z</time>
      </trkpt>
      <trkpt lat="43.46783" lon="2.37978">
        <ele>605.159</ele>
        <time>2021-05-23T12:51:03Z</time>
      </trkpt>
      <trkpt lat="43.4678" lon="2.37978">
        <ele>605.316</ele>
        <time>2021-05-23T12:51:05Z</time>
      </trkpt>
      <trkpt lat="43.46777" lon="2.37978">
        <ele>605.303</ele>
        <time>2021-05-23T12:51:07Z</time>
      </trkpt>
      <trkpt lat="43.46775" lon="2.37979">
        <ele>605.58</ele>
        <time>2021-05-23T12:51:09Z</time>
      </trkpt>
      <trkpt lat="43.46773" lon="2.37978">
        <ele>605.585</ele>
        <time>2021-05-23T12:51:11Z</time>
      </trkpt>
      <trkpt lat="43.46771" lon="2.37978">
        <ele>606.538</ele>
        <time>2021-05-23T12:51:13Z</time>
      </trkpt>
      <trkpt lat="43.46769" lon="2.37978">
        <ele>606.94</ele>
        <time>2021-05-23T12:51:15Z</time>
      </trkpt>
      <trkpt lat="43.46766" lon="2.37979">
        <ele>606.864</ele>
        <time>2021-05-23T12:51:17Z</time>
      </trkpt>
      <trkpt lat="43.46765" lon="2.37979">
        <ele>607.186</ele>
        <time>2021-05-23T12:51:19Z</time>
      </trkpt>
      <trkpt lat="43.46763" lon="2.37979">
        <ele>607.496</ele>
        <time>2021-05-23T12:51:21Z</time>
      </trkpt>
      <trkpt lat="43.4676" lon="2.37979">
        <ele>607.713</ele>
        <time>2021-05-23T12:51:23Z</time>
      </trkpt>
      <trkpt lat="43.46758" lon="2.37978">
        <ele>608.613</ele>
        <time>2021-05-23T12:51:25Z</time>
      </trkpt>
      <trkpt lat="43.46756" lon="2.37978">
        <ele>608.959</ele>
        <time>2021-05-23T12:51:27Z</time>
      </trkpt>
      <trkpt lat="43.46754" lon="2.37978">
        <ele>609.505</ele>
        <time>2021-05-23T12:51:29Z</time>
      </trkpt>
      <trkpt lat="43.4675" lon="2.37977">
        <ele>610.359</ele>
        <time>2021-05-23T12:51:31Z</time>
      </trkpt>
      <trkpt lat="43.46748" lon="2.37977">
        <ele>611.009</ele>
        <time>2021-05-23T12:51:33Z</time>
      </trkpt>
      <trkpt lat="43.46746" lon="2.37977">
        <ele>611.785</ele>
        <time>2021-05-23T12:51:35Z</time>
      </trkpt>
      <trkpt lat="43.46743" lon="2.37976">
        <ele>612.001</ele>
        <time>2021-05-23T12:51:37Z</time>
      </trkpt>
      <trkpt lat="43.46741" lon="2.37976">
        <ele>612.3</ele>
        <time>2021-05-23T12:51:39Z</time>
      </trkpt>
      <trkpt lat="43.46738" lon="2.37975">
        <ele>612.802</ele>
        <time>2021-05-23T12:51:41Z</time>
      </trkpt>
      <trkpt lat="43.46736" lon="2.37976">
        <ele>611.958</ele>
        <time>2021-05-23T12:51:43Z</time>
      </trkpt>
      <trkpt lat="43.46732" lon="2.37976">
        <ele>611.6</ele>
        <time>2021-05-23T12:51:45Z</time>
      </trkpt>
      <trkpt lat="43.46728" lon="2.37977">
        <ele>610.815</ele>
        <time>2021-05-23T12:51:47Z</time>
      </trkpt>
      <trkpt lat="43.46725" lon="2.37977">
        <ele>610.438</ele>
        <time>2021-05-23T12:51:49Z</time>
      </trkpt>
      <trkpt lat="43.46722" lon="2.37979">
        <ele>609.618</ele>
        <time>2021-05-23T12:51:51Z</time>
      </trkpt>
      <trkpt lat="43.46718" lon="2.37979">
        <ele>609.244</ele>
        <time>2021-05-23T12:51:53Z</time>
      </trkpt>
      <trkpt lat="43.46714" lon="2.37978">
        <ele>608.629</ele>
        <time>2021-05-23T12:51:55Z</time>
      </trkpt>
      <trkpt lat="43.46711" lon="2.37977">
        <ele>607.793</ele>
        <time>2021-05-23T12:51:57Z</time>
      </trkpt>
      <trkpt lat="43.46708" lon="2.37976">
        <ele>607.758</ele>
        <time>2021-05-23T12:51:59Z</time>
      </trkpt>
      <trkpt lat="43.46705" lon="2.37974">
        <ele>609.076</ele>
        <time>2021-05-23T12:52:01Z</time>
      </trkpt>
      <trkpt lat="43.46702" lon="2.37973">
        <ele>609.924</ele>
        <time>2021-05-23T12:52:03Z</time>
      </trkpt>
      <trkpt lat="43.46701" lon="2.37973">
        <ele>609.622</ele>
        <time>2021-05-23T12:52:05Z</time>
      </trkpt>
      <trkpt lat="43.46698" lon="2.37972">
        <ele>610.705</ele>
        <time>2021-05-23T12:52:07Z</time>
      </trkpt>
      <trkpt lat="43.46696" lon="2.37969">
        <ele>610.902</ele>
        <time>2021-05-23T12:52:09Z</time>
      </trkpt>
      <trkpt lat="43.46694" lon="2.37968">
        <ele>611.517</ele>
        <time>2021-05-23T12:52:11Z</time>
      </trkpt>
      <trkpt lat="43.46692" lon="2.37966">
        <ele>612.4</ele>
        <time>2021-05-23T12:52:13Z</time>
      </trkpt>
      <trkpt lat="43.4669" lon="2.37965">
        <ele>612.52</ele>
        <time>2021-05-23T12:52:15Z</time>
      </trkpt>
      <trkpt lat="43.46688" lon="2.37964">
        <ele>612.828</ele>
        <time>2021-05-23T12:52:17Z</time>
      </trkpt>
      <trkpt lat="43.46687" lon="2.37964">
        <ele>613.608</ele>
        <time>2021-05-23T12:52:19Z</time>
      </trkpt>
      <trkpt lat="43.46686" lon="2.37964">
        <ele>614.099</ele>
        <time>2021-05-23T12:52:21Z</time>
      </trkpt>
      <trkpt lat="43.46684" lon="2.37962">
        <ele>615.68</ele>
        <time>2021-05-23T12:52:23Z</time>
      </trkpt>
      <trkpt lat="43.46682" lon="2.37961">
        <ele>616.186</ele>
        <time>2021-05-23T12:52:25Z</time>
      </trkpt>
      <trkpt lat="43.46679" lon="2.37959">
        <ele>617.269</ele>
        <time>2021-05-23T12:52:27Z</time>
      </trkpt>
      <trkpt lat="43.46678" lon="2.37958">
        <ele>618.12</ele>
        <time>2021-05-23T12:52:29Z</time>
      </trkpt>
      <trkpt lat="43.46676" lon="2.37957">
        <ele>618.214</ele>
        <time>2021-05-23T12:52:31Z</time>
      </trkpt>
      <trkpt lat="43.46674" lon="2.37956">
        <ele>619.085</ele>
        <time>2021-05-23T12:52:33Z</time>
      </trkpt>
      <trkpt lat="43.46673" lon="2.37955">
        <ele>620.224</ele>
        <time>2021-05-23T12:52:35Z</time>
      </trkpt>
      <trkpt lat="43.46671" lon="2.37954">
        <ele>621.103</ele>
        <time>2021-05-23T12:52:37Z</time>
      </trkpt>
      <trkpt lat="43.46669" lon="2.37953">
        <ele>620.504</ele>
        <time>2021-05-23T12:52:39Z</time>
      </trkpt>
      <trkpt lat="43.46667" lon="2.37951">
        <ele>621.248</ele>
        <time>2021-05-23T12:52:41Z</time>
      </trkpt>
      <trkpt lat="43.46665" lon="2.37951">
        <ele>621.316</ele>
        <time>2021-05-23T12:52:43Z</time>
      </trkpt>
      <trkpt lat="43.46664" lon="2.3795">
        <ele>621.663</ele>
        <time>2021-05-23T12:52:45Z</time>
      </trkpt>
      <trkpt lat="43.46662" lon="2.3795">
        <ele>621.783</ele>
        <time>2021-05-23T12:52:47Z</time>
      </trkpt>
      <trkpt lat="43.4666" lon="2.3795">
        <ele>621.38</ele>
        <time>2021-05-23T12:52:49Z</time>
      </trkpt>
      <trkpt lat="43.46658" lon="2.37948">
        <ele>621.849</ele>
        <time>2021-05-23T12:52:51Z</time>
      </trkpt>
      <trkpt lat="43.46656" lon="2.37948">
        <ele>622.991</ele>
        <time>2021-05-23T12:52:53Z</time>
      </trkpt>
      <trkpt lat="43.46655" lon="2.37946">
        <ele>623.423</ele>
        <time>2021-05-23T12:52:55Z</time>
      </trkpt>
      <trkpt lat="43.46653" lon="2.37945">
        <ele>624.094</ele>
        <time>2021-05-23T12:52:57Z</time>
      </trkpt>
      <trkpt lat="43.46651" lon="2.37944">
        <ele>624.838</ele>
        <time>2021-05-23T12:52:59Z</time>
      </trkpt>
      <trkpt lat="43.46649" lon="2.37942">
        <ele>625.555</ele>
        <time>2021-05-23T12:53:01Z</time>
      </trkpt>
      <trkpt lat="43.46647" lon="2.37941">
        <ele>626.276</ele>
        <time>2021-05-23T12:53:03Z</time>
      </trkpt>
      <trkpt lat="43.46645" lon="2.3794">
        <ele>626.913</ele>
        <time>2021-05-23T12:53:05Z</time>
      </trkpt>
      <trkpt lat="43.46643" lon="2.37938">
        <ele>627.282</ele>
        <time>2021-05-23T12:53:07Z</time>
      </trkpt>
      <trkpt lat="43.46642" lon="2.37937">
        <ele>627.54</ele>
        <time>2021-05-23T12:53:09Z</time>
      </trkpt>
      <trkpt lat="43.4664" lon="2.37936">
        <ele>628.421</ele>
        <time>2021-05-23T12:53:11Z</time>
      </trkpt>
      <trkpt lat="43.46639" lon="2.37935">
        <ele>630.103</ele>
        <time>2021-05-23T12:53:13Z</time>
      </trkpt>
      <trkpt lat="43.46637" lon="2.37935">
        <ele>630.834</ele>
        <time>2021-05-23T12:53:15Z</time>
      </trkpt>
      <trkpt lat="43.46635" lon="2.37934">
        <ele>631.669</ele>
        <time>2021-05-23T12:53:17Z</time>
      </trkpt>
      <trkpt lat="43.46633" lon="2.37934">
        <ele>632.143</ele>
        <time>2021-05-23T12:53:19Z</time>
      </trkpt>
      <trkpt lat="43.46632" lon="2.37933">
        <ele>631.963</ele>
        <time>2021-05-23T12:53:21Z</time>
      </trkpt>
      <trkpt lat="43.4663" lon="2.37933">
        <ele>632.326</ele>
        <time>2021-05-23T12:53:23Z</time>
      </trkpt>
      <trkpt lat="43.46628" lon="2.37932">
        <ele>632.17</ele>
        <time>2021-05-23T12:53:25Z</time>
      </trkpt>
      <trkpt lat="43.46626" lon="2.37932">
        <ele>632.287</ele>
        <time>2021-05-23T12:53:27Z</time>
      </trkpt>
      <trkpt lat="43.46625" lon="2.37932">
        <ele>632.319</ele>
        <time>2021-05-23T12:53:28Z</time>
      </trkpt>
      <trkpt lat="43.46621" lon="2.37931">
        <ele>631.294</ele>
        <time>2021-05-23T12:53:31Z</time>
      </trkpt>
      <trkpt lat="43.46619" lon="2.3793">
        <ele>631.398</ele>
        <time>2021-05-23T12:53:33Z</time>
      </trkpt>
      <trkpt lat="43.46617" lon="2.37929">
        <ele>631.955</ele>
        <time>2021-05-23T12:53:35Z</time>
      </trkpt>
      <trkpt lat="43.46615" lon="2.37929">
        <ele>631.66</ele>
        <time>2021-05-23T12:53:37Z</time>
      </trkpt>
      <trkpt lat="43.46613" lon="2.37929">
        <ele>632.913</ele>
        <time>2021-05-23T12:53:39Z</time>
      </trkpt>
      <trkpt lat="43.46612" lon="2.37929">
        <ele>631.962</ele>
        <time>2021-05-23T12:53:41Z</time>
      </trkpt>
      <trkpt lat="43.4661" lon="2.37929">
        <ele>631.99</ele>
        <time>2021-05-23T12:53:43Z</time>
      </trkpt>
      <trkpt lat="43.46608" lon="2.37928">
        <ele>633.339</ele>
        <time>2021-05-23T12:53:45Z</time>
      </trkpt>
      <trkpt lat="43.46605" lon="2.37928">
        <ele>633.92</ele>
        <time>2021-05-23T12:53:47Z</time>
      </trkpt>
      <trkpt lat="43.46603" lon="2.37927">
        <ele>634.898</ele>
        <time>2021-05-23T12:53:49Z</time>
      </trkpt>
      <trkpt lat="43.46602" lon="2.37927">
        <ele>636.474</ele>
        <time>2021-05-23T12:53:51Z</time>
      </trkpt>
      <trkpt lat="43.46599" lon="2.37926">
        <ele>636.849</ele>
        <time>2021-05-23T12:53:53Z</time>
      </trkpt>
      <trkpt lat="43.46597" lon="2.37925">
        <ele>636.818</ele>
        <time>2021-05-23T12:53:55Z</time>
      </trkpt>
      <trkpt lat="43.46595" lon="2.37925">
        <ele>638.728</ele>
        <time>2021-05-23T12:53:57Z</time>
      </trkpt>
      <trkpt lat="43.46593" lon="2.37924">
        <ele>638.508</ele>
        <time>2021-05-23T12:53:59Z</time>
      </trkpt>
      <trkpt lat="43.46591" lon="2.37924">
        <ele>638.901</ele>
        <time>2021-05-23T12:54:01Z</time>
      </trkpt>
      <trkpt lat="43.46589" lon="2.37924">
        <ele>639.456</ele>
        <time>2021-05-23T12:54:03Z</time>
      </trkpt>
      <trkpt lat="43.46586" lon="2.37923">
        <ele>639.501</ele>
        <time>2021-05-23T12:54:05Z</time>
      </trkpt>
      <trkpt lat="43.46584" lon="2.37923">
        <ele>639.61</ele>
        <time>2021-05-23T12:54:07Z</time>
      </trkpt>
      <trkpt lat="43.46581" lon="2.37923">
        <ele>639.818</ele>
        <time>2021-05-23T12:54:09Z</time>
      </trkpt>
      <trkpt lat="43.46579" lon="2.37922">
        <ele>641.322</ele>
        <time>2021-05-23T12:54:11Z</time>
      </trkpt>
      <trkpt lat="43.46577" lon="2.37921">
        <ele>641.798</ele>
        <time>2021-05-23T12:54:13Z</time>
      </trkpt>
      <trkpt lat="43.46574" lon="2.3792">
        <ele>643.329</ele>
        <time>2021-05-23T12:54:15Z</time>
      </trkpt>
      <trkpt lat="43.46572" lon="2.37919">
        <ele>644.417</ele>
        <time>2021-05-23T12:54:17Z</time>
      </trkpt>
      <trkpt lat="43.46569" lon="2.37919">
        <ele>643.871</ele>
        <time>2021-05-23T12:54:19Z</time>
      </trkpt>
      <trkpt lat="43.46567" lon="2.37919">
        <ele>644.864</ele>
        <time>2021-05-23T12:54:21Z</time>
      </trkpt>
      <trkpt lat="43.46564" lon="2.37919">
        <ele>645.434</ele>
        <time>2021-05-23T12:54:23Z</time>
      </trkpt>
      <trkpt lat="43.46562" lon="2.37919">
        <ele>644.914</ele>
        <time>2021-05-23T12:54:25Z</time>
      </trkpt>
      <trkpt lat="43.46561" lon="2.37919">
        <ele>645.458</ele>
        <time>2021-05-23T12:54:27Z</time>
      </trkpt>
      <trkpt lat="43.46558" lon="2.3792">
        <ele>644.485</ele>
        <time>2021-05-23T12:54:29Z</time>
      </trkpt>
      <trkpt lat="43.46555" lon="2.37922">
        <ele>645.564</ele>
        <time>2021-05-23T12:54:32Z</time>
      </trkpt>
      <trkpt lat="43.46553" lon="2.37923">
        <ele>646.419</ele>
        <time>2021-05-23T12:54:34Z</time>
      </trkpt>
      <trkpt lat="43.46551" lon="2.37922">
        <ele>647.223</ele>
        <time>2021-05-23T12:54:36Z</time>
      </trkpt>
      <trkpt lat="43.46549" lon="2.37922">
        <ele>647.84</ele>
        <time>2021-05-23T12:54:38Z</time>
      </trkpt>
      <trkpt lat="43.46547" lon="2.37923">
        <ele>647.171</ele>
        <time>2021-05-23T12:54:40Z</time>
      </trkpt>
      <trkpt lat="43.46545" lon="2.37923">
        <ele>647.783</ele>
        <time>2021-05-23T12:54:42Z</time>
      </trkpt>
      <trkpt lat="43.46543" lon="2.37924">
        <ele>646.754</ele>
        <time>2021-05-23T12:54:44Z</time>
      </trkpt>
      <trkpt lat="43.46541" lon="2.37925">
        <ele>646.806</ele>
        <time>2021-05-23T12:54:46Z</time>
      </trkpt>
      <trkpt lat="43.46537" lon="2.37925">
        <ele>646.377</ele>
        <time>2021-05-23T12:54:48Z</time>
      </trkpt>
      <trkpt lat="43.46535" lon="2.37926">
        <ele>646.502</ele>
        <time>2021-05-23T12:54:50Z</time>
      </trkpt>
      <trkpt lat="43.46534" lon="2.37926">
        <ele>646.158</ele>
        <time>2021-05-23T12:54:52Z</time>
      </trkpt>
      <trkpt lat="43.46532" lon="2.37926">
        <ele>645.751</ele>
        <time>2021-05-23T12:54:54Z</time>
      </trkpt>
      <trkpt lat="43.4653" lon="2.37927">
        <ele>646.117</ele>
        <time>2021-05-23T12:54:56Z</time>
      </trkpt>
      <trkpt lat="43.46527" lon="2.37925">
        <ele>645.294</ele>
        <time>2021-05-23T12:54:58Z</time>
      </trkpt>
      <trkpt lat="43.46527" lon="2.37922">
        <ele>645.107</ele>
        <time>2021-05-23T12:55:00Z</time>
      </trkpt>
      <trkpt lat="43.46527" lon="2.37919">
        <ele>645.179</ele>
        <time>2021-05-23T12:55:02Z</time>
      </trkpt>
      <trkpt lat="43.46526" lon="2.37916">
        <ele>645.725</ele>
        <time>2021-05-23T12:55:04Z</time>
      </trkpt>
      <trkpt lat="43.46526" lon="2.37918">
        <ele>645.493</ele>
        <time>2021-05-23T12:55:06Z</time>
      </trkpt>
      <trkpt lat="43.46526" lon="2.37918">
        <ele>645.509</ele>
        <time>2021-05-23T12:55:08Z</time>
      </trkpt>
      <trkpt lat="43.46526" lon="2.37918">
        <ele>645.524</ele>
        <time>2021-05-23T12:55:10Z</time>
      </trkpt>
      <trkpt lat="43.46525" lon="2.37919">
        <ele>644.723</ele>
        <time>2021-05-23T12:55:12Z</time>
      </trkpt>
      <trkpt lat="43.46525" lon="2.37919">
        <ele>644.469</ele>
        <time>2021-05-23T12:55:14Z</time>
      </trkpt>
      <trkpt lat="43.46523" lon="2.37921">
        <ele>644.607</ele>
        <time>2021-05-23T12:55:16Z</time>
      </trkpt>
      <trkpt lat="43.46521" lon="2.37922">
        <ele>645.047</ele>
        <time>2021-05-23T12:55:18Z</time>
      </trkpt>
      <trkpt lat="43.4652" lon="2.37922">
        <ele>645.053</ele>
        <time>2021-05-23T12:55:20Z</time>
      </trkpt>
      <trkpt lat="43.46518" lon="2.37923">
        <ele>644.763</ele>
        <time>2021-05-23T12:55:22Z</time>
      </trkpt>
      <trkpt lat="43.46516" lon="2.37925">
        <ele>645.445</ele>
        <time>2021-05-23T12:55:24Z</time>
      </trkpt>
      <trkpt lat="43.46515" lon="2.37926">
        <ele>645.681</ele>
        <time>2021-05-23T12:55:26Z</time>
      </trkpt>
      <trkpt lat="43.46514" lon="2.37926">
        <ele>645.724</ele>
        <time>2021-05-23T12:55:28Z</time>
      </trkpt>
      <trkpt lat="43.46512" lon="2.37927">
        <ele>645.797</ele>
        <time>2021-05-23T12:55:30Z</time>
      </trkpt>
      <trkpt lat="43.46511" lon="2.37927">
        <ele>645.915</ele>
        <time>2021-05-23T12:55:32Z</time>
      </trkpt>
      <trkpt lat="43.4651" lon="2.37927">
        <ele>645.534</ele>
        <time>2021-05-23T12:55:34Z</time>
      </trkpt>
      <trkpt lat="43.4651" lon="2.37927">
        <ele>645.499</ele>
        <time>2021-05-23T12:55:36Z</time>
      </trkpt>
      <trkpt lat="43.4651" lon="2.37927">
        <ele>645.499</ele>
        <time>2021-05-23T12:55:38Z</time>
      </trkpt>
      <trkpt lat="43.4651" lon="2.37927">
        <ele>645.511</ele>
        <time>2021-05-23T12:55:40Z</time>
      </trkpt>
      <trkpt lat="43.4651" lon="2.37927">
        <ele>645.512</ele>
        <time>2021-05-23T12:55:42Z</time>
      </trkpt>
      <trkpt lat="43.4651" lon="2.37927">
        <ele>645.513</ele>
        <time>2021-05-23T12:55:44Z</time>
      </trkpt>
      <trkpt lat="43.4651" lon="2.37927">
        <ele>645.519</ele>
        <time>2021-05-23T12:55:46Z</time>
      </trkpt>
      <trkpt lat="43.4651" lon="2.37926">
        <ele>646.094</ele>
        <time>2021-05-23T12:55:48Z</time>
      </trkpt>
      <trkpt lat="43.4651" lon="2.37925">
        <ele>646.483</ele>
        <time>2021-05-23T12:55:50Z</time>
      </trkpt>
      <trkpt lat="43.46509" lon="2.37925">
        <ele>647.697</ele>
        <time>2021-05-23T12:55:52Z</time>
      </trkpt>
      <trkpt lat="43.46509" lon="2.37925">
        <ele>648.018</ele>
        <time>2021-05-23T12:55:54Z</time>
      </trkpt>
      <trkpt lat="43.46509" lon="2.37925">
        <ele>648.028</ele>
        <time>2021-05-23T12:55:56Z</time>
      </trkpt>
      <trkpt lat="43.46509" lon="2.37925">
        <ele>648.026</ele>
        <time>2021-05-23T12:55:58Z</time>
      </trkpt>
      <trkpt lat="43.46509" lon="2.37925">
        <ele>648.028</ele>
        <time>2021-05-23T12:56:00Z</time>
      </trkpt>
      <trkpt lat="43.46509" lon="2.37925">
        <ele>648.025</ele>
        <time>2021-05-23T12:56:02Z</time>
      </trkpt>
      <trkpt lat="43.46509" lon="2.37925">
        <ele>648.033</ele>
        <time>2021-05-23T12:56:04Z</time>
      </trkpt>
      <trkpt lat="43.46509" lon="2.37925">
        <ele>648.038</ele>
        <time>2021-05-23T12:56:06Z</time>
      </trkpt>
      <trkpt lat="43.46509" lon="2.37925">
        <ele>648.041</ele>
        <time>2021-05-23T12:56:08Z</time>
      </trkpt>
      <trkpt lat="43.46509" lon="2.37925">
        <ele>648.028</ele>
        <time>2021-05-23T12:56:10Z</time>
      </trkpt>
      <trkpt lat="43.46509" lon="2.37925">
        <ele>648.006</ele>
        <time>2021-05-23T12:56:12Z</time>
      </trkpt>
      <trkpt lat="43.46509" lon="2.37925">
        <ele>648</ele>
        <time>2021-05-23T12:56:14Z</time>
      </trkpt>
      <trkpt lat="43.46509" lon="2.37925">
        <ele>648.002</ele>
        <time>2021-05-23T12:56:16Z</time>
      </trkpt>
      <trkpt lat="43.46509" lon="2.37925">
        <ele>647.994</ele>
        <time>2021-05-23T12:56:18Z</time>
      </trkpt>
      <trkpt lat="43.46509" lon="2.37925">
        <ele>647.993</ele>
        <time>2021-05-23T12:56:20Z</time>
      </trkpt>
      <trkpt lat="43.46509" lon="2.37925">
        <ele>647.99</ele>
        <time>2021-05-23T12:56:22Z</time>
      </trkpt>
      <trkpt lat="43.46509" lon="2.37925">
        <ele>647.984</ele>
        <time>2021-05-23T12:56:24Z</time>
      </trkpt>
      <trkpt lat="43.46509" lon="2.37925">
        <ele>647.971</ele>
        <time>2021-05-23T12:56:26Z</time>
      </trkpt>
      <trkpt lat="43.46509" lon="2.37925">
        <ele>647.961</ele>
        <time>2021-05-23T12:56:28Z</time>
      </trkpt>
      <trkpt lat="43.4651" lon="2.37925">
        <ele>647.957</ele>
        <time>2021-05-23T12:56:30Z</time>
      </trkpt>
      <trkpt lat="43.4651" lon="2.37925">
        <ele>647.96</ele>
        <time>2021-05-23T12:56:32Z</time>
      </trkpt>
      <trkpt lat="43.4651" lon="2.37925">
        <ele>647.96</ele>
        <time>2021-05-23T12:56:34Z</time>
      </trkpt>
      <trkpt lat="43.4651" lon="2.37925">
        <ele>647.961</ele>
        <time>2021-05-23T12:56:36Z</time>
      </trkpt>
      <trkpt lat="43.4651" lon="2.37925">
        <ele>647.969</ele>
        <time>2021-05-23T12:56:38Z</time>
      </trkpt>
      <trkpt lat="43.4651" lon="2.37925">
        <ele>647.959</ele>
        <time>2021-05-23T12:56:40Z</time>
      </trkpt>
      <trkpt lat="43.4651" lon="2.37925">
        <ele>647.953</ele>
        <time>2021-05-23T12:56:42Z</time>
      </trkpt>
      <trkpt lat="43.4651" lon="2.37925">
        <ele>647.948</ele>
        <time>2021-05-23T12:56:44Z</time>
      </trkpt>
      <trkpt lat="43.4651" lon="2.37925">
        <ele>647.94</ele>
        <time>2021-05-23T12:56:46Z</time>
      </trkpt>
      <trkpt lat="43.4651" lon="2.37925">
        <ele>647.932</ele>
        <time>2021-05-23T12:56:48Z</time>
      </trkpt>
      <trkpt lat="43.4651" lon="2.37925">
        <ele>647.924</ele>
        <time>2021-05-23T12:56:50Z</time>
      </trkpt>
      <trkpt lat="43.4651" lon="2.37925">
        <ele>647.916</ele>
        <time>2021-05-23T12:56:52Z</time>
      </trkpt>
      <trkpt lat="43.4651" lon="2.37925">
        <ele>647.898</ele>
        <time>2021-05-23T12:56:54Z</time>
      </trkpt>
      <trkpt lat="43.4651" lon="2.37925">
        <ele>647.894</ele>
        <time>2021-05-23T12:56:56Z</time>
      </trkpt>
      <trkpt lat="43.4651" lon="2.37925">
        <ele>647.882</ele>
        <time>2021-05-23T12:56:58Z</time>
      </trkpt>
      <trkpt lat="43.4651" lon="2.37925">
        <ele>647.881</ele>
        <time>2021-05-23T12:57:00Z</time>
      </trkpt>
      <trkpt lat="43.4651" lon="2.37925">
        <ele>647.876</ele>
        <time>2021-05-23T12:57:02Z</time>
      </trkpt>
      <trkpt lat="43.4651" lon="2.37925">
        <ele>647.861</ele>
        <time>2021-05-23T12:57:04Z</time>
      </trkpt>
      <trkpt lat="43.4651" lon="2.37925">
        <ele>647.851</ele>
        <time>2021-05-23T12:57:06Z</time>
      </trkpt>
      <trkpt lat="43.4651" lon="2.37925">
        <ele>647.84</ele>
        <time>2021-05-23T12:57:08Z</time>
      </trkpt>
      <trkpt lat="43.4651" lon="2.37925">
        <ele>647.83</ele>
        <time>2021-05-23T12:57:10Z</time>
      </trkpt>
      <trkpt lat="43.4651" lon="2.37925">
        <ele>647.826</ele>
        <time>2021-05-23T12:57:12Z</time>
      </trkpt>
      <trkpt lat="43.4651" lon="2.37925">
        <ele>647.816</ele>
        <time>2021-05-23T12:57:14Z</time>
      </trkpt>
      <trkpt lat="43.4651" lon="2.37925">
        <ele>647.794</ele>
        <time>2021-05-23T12:57:16Z</time>
      </trkpt>
      <trkpt lat="43.4651" lon="2.37925">
        <ele>647.788</ele>
        <time>2021-05-23T12:57:18Z</time>
      </trkpt>
      <trkpt lat="43.4651" lon="2.37925">
        <ele>647.786</ele>
        <time>2021-05-23T12:57:20Z</time>
      </trkpt>
      <trkpt lat="43.4651" lon="2.37924">
        <ele>647.785</ele>
        <time>2021-05-23T12:57:22Z</time>
      </trkpt>
      <trkpt lat="43.4651" lon="2.37924">
        <ele>647.782</ele>
        <time>2021-05-23T12:57:24Z</time>
      </trkpt>
      <trkpt lat="43.4651" lon="2.37924">
        <ele>647.793</ele>
        <time>2021-05-23T12:57:26Z</time>
      </trkpt>
      <trkpt lat="43.4651" lon="2.37924">
        <ele>647.803</ele>
        <time>2021-05-23T12:57:28Z</time>
      </trkpt>
      <trkpt lat="43.4651" lon="2.37924">
        <ele>647.797</ele>
        <time>2021-05-23T12:57:30Z</time>
      </trkpt>
      <trkpt lat="43.4651" lon="2.37924">
        <ele>647.784</ele>
        <time>2021-05-23T12:57:32Z</time>
      </trkpt>
      <trkpt lat="43.4651" lon="2.37924">
        <ele>647.777</ele>
        <time>2021-05-23T12:57:34Z</time>
      </trkpt>
      <trkpt lat="43.4651" lon="2.37924">
        <ele>647.785</ele>
        <time>2021-05-23T12:57:36Z</time>
      </trkpt>
      <trkpt lat="43.4651" lon="2.37924">
        <ele>647.79</ele>
        <time>2021-05-23T12:57:38Z</time>
      </trkpt>
      <trkpt lat="43.4651" lon="2.37924">
        <ele>647.775</ele>
        <time>2021-05-23T12:57:40Z</time>
      </trkpt>
      <trkpt lat="43.4651" lon="2.37924">
        <ele>647.767</ele>
        <time>2021-05-23T12:57:42Z</time>
      </trkpt>
      <trkpt lat="43.4651" lon="2.37924">
        <ele>647.762</ele>
        <time>2021-05-23T12:57:44Z</time>
      </trkpt>
      <trkpt lat="43.4651" lon="2.37924">
        <ele>647.747</ele>
        <time>2021-05-23T12:57:46Z</time>
      </trkpt>
      <trkpt lat="43.4651" lon="2.37924">
        <ele>647.737</ele>
        <time>2021-05-23T12:57:48Z</time>
      </trkpt>
      <trkpt lat="43.4651" lon="2.37924">
        <ele>647.757</ele>
        <time>2021-05-23T12:57:50Z</time>
      </trkpt>
      <trkpt lat="43.4651" lon="2.37924">
        <ele>647.773</ele>
        <time>2021-05-23T12:57:52Z</time>
      </trkpt>
      <trkpt lat="43.4651" lon="2.37924">
        <ele>647.782</ele>
        <time>2021-05-23T12:57:54Z</time>
      </trkpt>
      <trkpt lat="43.4651" lon="2.37924">
        <ele>647.805</ele>
        <time>2021-05-23T12:57:56Z</time>
      </trkpt>
      <trkpt lat="43.4651" lon="2.37924">
        <ele>647.811</ele>
        <time>2021-05-23T12:57:58Z</time>
      </trkpt>
      <trkpt lat="43.4651" lon="2.37924">
        <ele>647.818</ele>
        <time>2021-05-23T12:58:00Z</time>
      </trkpt>
      <trkpt lat="43.4651" lon="2.37924">
        <ele>647.828</ele>
        <time>2021-05-23T12:58:02Z</time>
      </trkpt>
      <trkpt lat="43.4651" lon="2.37924">
        <ele>647.851</ele>
        <time>2021-05-23T12:58:04Z</time>
      </trkpt>
      <trkpt lat="43.4651" lon="2.37924">
        <ele>647.861</ele>
        <time>2021-05-23T12:58:06Z</time>
      </trkpt>
      <trkpt lat="43.4651" lon="2.37924">
        <ele>647.874</ele>
        <time>2021-05-23T12:58:08Z</time>
      </trkpt>
      <trkpt lat="43.4651" lon="2.37924">
        <ele>647.875</ele>
        <time>2021-05-23T12:58:10Z</time>
      </trkpt>
      <trkpt lat="43.4651" lon="2.37924">
        <ele>647.872</ele>
        <time>2021-05-23T12:58:12Z</time>
      </trkpt>
      <trkpt lat="43.4651" lon="2.37924">
        <ele>647.869</ele>
        <time>2021-05-23T12:58:14Z</time>
      </trkpt>
      <trkpt lat="43.4651" lon="2.37924">
        <ele>647.86</ele>
        <time>2021-05-23T12:58:16Z</time>
      </trkpt>
      <trkpt lat="43.4651" lon="2.37924">
        <ele>647.866</ele>
        <time>2021-05-23T12:58:18Z</time>
      </trkpt>
      <trkpt lat="43.4651" lon="2.37924">
        <ele>647.887</ele>
        <time>2021-05-23T12:58:20Z</time>
      </trkpt>
      <trkpt lat="43.4651" lon="2.37924">
        <ele>647.894</ele>
        <time>2021-05-23T12:58:22Z</time>
      </trkpt>
      <trkpt lat="43.4651" lon="2.37924">
        <ele>647.904</ele>
        <time>2021-05-23T12:58:24Z</time>
      </trkpt>
      <trkpt lat="43.4651" lon="2.37924">
        <ele>647.905</ele>
        <time>2021-05-23T12:58:26Z</time>
      </trkpt>
      <trkpt lat="43.4651" lon="2.37924">
        <ele>647.901</ele>
        <time>2021-05-23T12:58:28Z</time>
      </trkpt>
      <trkpt lat="43.4651" lon="2.37924">
        <ele>647.894</ele>
        <time>2021-05-23T12:58:30Z</time>
      </trkpt>
      <trkpt lat="43.4651" lon="2.37924">
        <ele>647.88</ele>
        <time>2021-05-23T12:58:32Z</time>
      </trkpt>
      <trkpt lat="43.4651" lon="2.37924">
        <ele>647.871</ele>
        <time>2021-05-23T12:58:34Z</time>
      </trkpt>
      <trkpt lat="43.4651" lon="2.37924">
        <ele>647.863</ele>
        <time>2021-05-23T12:58:36Z</time>
      </trkpt>
      <trkpt lat="43.4651" lon="2.37924">
        <ele>647.859</ele>
        <time>2021-05-23T12:58:38Z</time>
      </trkpt>
      <trkpt lat="43.4651" lon="2.37924">
        <ele>647.853</ele>
        <time>2021-05-23T12:58:40Z</time>
      </trkpt>
      <trkpt lat="43.4651" lon="2.37924">
        <ele>647.863</ele>
        <time>2021-05-23T12:58:42Z</time>
      </trkpt>
      <trkpt lat="43.4651" lon="2.37924">
        <ele>647.868</ele>
        <time>2021-05-23T12:58:44Z</time>
      </trkpt>
      <trkpt lat="43.4651" lon="2.37924">
        <ele>647.863</ele>
        <time>2021-05-23T12:58:46Z</time>
      </trkpt>
      <trkpt lat="43.4651" lon="2.37924">
        <ele>647.742</ele>
        <time>2021-05-23T12:58:48Z</time>
      </trkpt>
      <trkpt lat="43.4651" lon="2.37923">
        <ele>648.428</ele>
        <time>2021-05-23T12:58:50Z</time>
      </trkpt>
      <trkpt lat="43.46508" lon="2.37924">
        <ele>647.234</ele>
        <time>2021-05-23T12:58:52Z</time>
      </trkpt>
      <trkpt lat="43.46506" lon="2.37925">
        <ele>646.508</ele>
        <time>2021-05-23T12:58:54Z</time>
      </trkpt>
      <trkpt lat="43.46504" lon="2.37925">
        <ele>646.695</ele>
        <time>2021-05-23T12:58:56Z</time>
      </trkpt>
      <trkpt lat="43.46501" lon="2.37921">
        <ele>645.69</ele>
        <time>2021-05-23T12:58:58Z</time>
      </trkpt>
      <trkpt lat="43.46502" lon="2.37921">
        <ele>646.479</ele>
        <time>2021-05-23T12:59:00Z</time>
      </trkpt>
      <trkpt lat="43.46499" lon="2.37923">
        <ele>644.883</ele>
        <time>2021-05-23T12:59:02Z</time>
      </trkpt>
      <trkpt lat="43.46497" lon="2.37924">
        <ele>644.155</ele>
        <time>2021-05-23T12:59:04Z</time>
      </trkpt>
      <trkpt lat="43.46494" lon="2.37925">
        <ele>644.145</ele>
        <time>2021-05-23T12:59:06Z</time>
      </trkpt>
      <trkpt lat="43.46492" lon="2.37926">
        <ele>643.123</ele>
        <time>2021-05-23T12:59:08Z</time>
      </trkpt>
      <trkpt lat="43.4649" lon="2.37927">
        <ele>642.624</ele>
        <time>2021-05-23T12:59:10Z</time>
      </trkpt>
      <trkpt lat="43.46488" lon="2.37928">
        <ele>643.068</ele>
        <time>2021-05-23T12:59:12Z</time>
      </trkpt>
      <trkpt lat="43.46486" lon="2.37928">
        <ele>642.663</ele>
        <time>2021-05-23T12:59:14Z</time>
      </trkpt>
      <trkpt lat="43.46484" lon="2.37929">
        <ele>642.129</ele>
        <time>2021-05-23T12:59:16Z</time>
      </trkpt>
      <trkpt lat="43.46481" lon="2.37929">
        <ele>641.021</ele>
        <time>2021-05-23T12:59:18Z</time>
      </trkpt>
      <trkpt lat="43.46479" lon="2.37928">
        <ele>641.14</ele>
        <time>2021-05-23T12:59:20Z</time>
      </trkpt>
      <trkpt lat="43.46477" lon="2.37927">
        <ele>642.189</ele>
        <time>2021-05-23T12:59:22Z</time>
      </trkpt>
      <trkpt lat="43.46474" lon="2.37926">
        <ele>643.158</ele>
        <time>2021-05-23T12:59:24Z</time>
      </trkpt>
      <trkpt lat="43.46473" lon="2.37924">
        <ele>643.838</ele>
        <time>2021-05-23T12:59:26Z</time>
      </trkpt>
      <trkpt lat="43.46471" lon="2.37922">
        <ele>643.964</ele>
        <time>2021-05-23T12:59:28Z</time>
      </trkpt>
      <trkpt lat="43.46469" lon="2.3792">
        <ele>643.7</ele>
        <time>2021-05-23T12:59:30Z</time>
      </trkpt>
      <trkpt lat="43.46468" lon="2.37919">
        <ele>643.747</ele>
        <time>2021-05-23T12:59:32Z</time>
      </trkpt>
      <trkpt lat="43.46466" lon="2.37916">
        <ele>644.469</ele>
        <time>2021-05-23T12:59:34Z</time>
      </trkpt>
      <trkpt lat="43.46464" lon="2.37914">
        <ele>643.628</ele>
        <time>2021-05-23T12:59:36Z</time>
      </trkpt>
      <trkpt lat="43.46462" lon="2.37913">
        <ele>641.732</ele>
        <time>2021-05-23T12:59:38Z</time>
      </trkpt>
      <trkpt lat="43.46459" lon="2.37911">
        <ele>640.362</ele>
        <time>2021-05-23T12:59:40Z</time>
      </trkpt>
      <trkpt lat="43.46456" lon="2.37909">
        <ele>639.581</ele>
        <time>2021-05-23T12:59:42Z</time>
      </trkpt>
      <trkpt lat="43.46453" lon="2.37908">
        <ele>640.883</ele>
        <time>2021-05-23T12:59:44Z</time>
      </trkpt>
      <trkpt lat="43.46451" lon="2.37906">
        <ele>641.781</ele>
        <time>2021-05-23T12:59:46Z</time>
      </trkpt>
      <trkpt lat="43.46449" lon="2.37905">
        <ele>641.177</ele>
        <time>2021-05-23T12:59:48Z</time>
      </trkpt>
      <trkpt lat="43.46446" lon="2.37904">
        <ele>640.666</ele>
        <time>2021-05-23T12:59:50Z</time>
      </trkpt>
      <trkpt lat="43.46443" lon="2.37903">
        <ele>640.485</ele>
        <time>2021-05-23T12:59:52Z</time>
      </trkpt>
      <trkpt lat="43.4644" lon="2.37903">
        <ele>640.273</ele>
        <time>2021-05-23T12:59:54Z</time>
      </trkpt>
      <trkpt lat="43.46437" lon="2.37903">
        <ele>638.623</ele>
        <time>2021-05-23T12:59:56Z</time>
      </trkpt>
      <trkpt lat="43.46434" lon="2.37903">
        <ele>636.662</ele>
        <time>2021-05-23T12:59:58Z</time>
      </trkpt>
      <trkpt lat="43.46432" lon="2.37903">
        <ele>635.544</ele>
        <time>2021-05-23T13:00:00Z</time>
      </trkpt>
      <trkpt lat="43.46429" lon="2.37903">
        <ele>634.584</ele>
        <time>2021-05-23T13:00:02Z</time>
      </trkpt>
      <trkpt lat="43.46426" lon="2.37903">
        <ele>634.408</ele>
        <time>2021-05-23T13:00:04Z</time>
      </trkpt>
      <trkpt lat="43.46423" lon="2.37903">
        <ele>634.399</ele>
        <time>2021-05-23T13:00:06Z</time>
      </trkpt>
      <trkpt lat="43.4642" lon="2.37903">
        <ele>634.188</ele>
        <time>2021-05-23T13:00:08Z</time>
      </trkpt>
      <trkpt lat="43.46418" lon="2.37904">
        <ele>632.87</ele>
        <time>2021-05-23T13:00:10Z</time>
      </trkpt>
      <trkpt lat="43.46416" lon="2.37903">
        <ele>634.496</ele>
        <time>2021-05-23T13:00:12Z</time>
      </trkpt>
      <trkpt lat="43.46414" lon="2.37902">
        <ele>633.586</ele>
        <time>2021-05-23T13:00:14Z</time>
      </trkpt>
      <trkpt lat="43.46412" lon="2.37901">
        <ele>633.574</ele>
        <time>2021-05-23T13:00:16Z</time>
      </trkpt>
      <trkpt lat="43.4641" lon="2.379">
        <ele>632.903</ele>
        <time>2021-05-23T13:00:18Z</time>
      </trkpt>
      <trkpt lat="43.46407" lon="2.379">
        <ele>632.976</ele>
        <time>2021-05-23T13:00:20Z</time>
      </trkpt>
      <trkpt lat="43.46405" lon="2.379">
        <ele>633.787</ele>
        <time>2021-05-23T13:00:22Z</time>
      </trkpt>
      <trkpt lat="43.46403" lon="2.37901">
        <ele>633.6</ele>
        <time>2021-05-23T13:00:24Z</time>
      </trkpt>
      <trkpt lat="43.464" lon="2.379">
        <ele>632.12</ele>
        <time>2021-05-23T13:00:26Z</time>
      </trkpt>
      <trkpt lat="43.46397" lon="2.37899">
        <ele>633.1</ele>
        <time>2021-05-23T13:00:28Z</time>
      </trkpt>
      <trkpt lat="43.46394" lon="2.37899">
        <ele>634.106</ele>
        <time>2021-05-23T13:00:30Z</time>
      </trkpt>
      <trkpt lat="43.46392" lon="2.37898">
        <ele>635.177</ele>
        <time>2021-05-23T13:00:32Z</time>
      </trkpt>
      <trkpt lat="43.46389" lon="2.37897">
        <ele>635.46</ele>
        <time>2021-05-23T13:00:34Z</time>
      </trkpt>
      <trkpt lat="43.46386" lon="2.37896">
        <ele>636.16</ele>
        <time>2021-05-23T13:00:36Z</time>
      </trkpt>
      <trkpt lat="43.46383" lon="2.37895">
        <ele>635.196</ele>
        <time>2021-05-23T13:00:38Z</time>
      </trkpt>
      <trkpt lat="43.4638" lon="2.37894">
        <ele>634.296</ele>
        <time>2021-05-23T13:00:40Z</time>
      </trkpt>
      <trkpt lat="43.46377" lon="2.37894">
        <ele>633.036</ele>
        <time>2021-05-23T13:00:42Z</time>
      </trkpt>
      <trkpt lat="43.46375" lon="2.37894">
        <ele>631.525</ele>
        <time>2021-05-23T13:00:44Z</time>
      </trkpt>
      <trkpt lat="43.46372" lon="2.37895">
        <ele>631.48</ele>
        <time>2021-05-23T13:00:46Z</time>
      </trkpt>
      <trkpt lat="43.4637" lon="2.37895">
        <ele>631.319</ele>
        <time>2021-05-23T13:00:48Z</time>
      </trkpt>
      <trkpt lat="43.46367" lon="2.37895">
        <ele>632.248</ele>
        <time>2021-05-23T13:00:50Z</time>
      </trkpt>
      <trkpt lat="43.46364" lon="2.37896">
        <ele>631.938</ele>
        <time>2021-05-23T13:00:52Z</time>
      </trkpt>
      <trkpt lat="43.46362" lon="2.37896">
        <ele>630.381</ele>
        <time>2021-05-23T13:00:54Z</time>
      </trkpt>
      <trkpt lat="43.46359" lon="2.37896">
        <ele>628.323</ele>
        <time>2021-05-23T13:00:56Z</time>
      </trkpt>
      <trkpt lat="43.46356" lon="2.37897">
        <ele>626.334</ele>
        <time>2021-05-23T13:00:58Z</time>
      </trkpt>
      <trkpt lat="43.46353" lon="2.37897">
        <ele>624.442</ele>
        <time>2021-05-23T13:01:00Z</time>
      </trkpt>
      <trkpt lat="43.4635" lon="2.37897">
        <ele>622.948</ele>
        <time>2021-05-23T13:01:02Z</time>
      </trkpt>
      <trkpt lat="43.46347" lon="2.37897">
        <ele>622.254</ele>
        <time>2021-05-23T13:01:04Z</time>
      </trkpt>
      <trkpt lat="43.46345" lon="2.37897">
        <ele>621.286</ele>
        <time>2021-05-23T13:01:06Z</time>
      </trkpt>
      <trkpt lat="43.46342" lon="2.37897">
        <ele>619.731</ele>
        <time>2021-05-23T13:01:08Z</time>
      </trkpt>
      <trkpt lat="43.46339" lon="2.37897">
        <ele>619.805</ele>
        <time>2021-05-23T13:01:10Z</time>
      </trkpt>
      <trkpt lat="43.46336" lon="2.37898">
        <ele>618.805</ele>
        <time>2021-05-23T13:01:12Z</time>
      </trkpt>
      <trkpt lat="43.46333" lon="2.37898">
        <ele>618.133</ele>
        <time>2021-05-23T13:01:14Z</time>
      </trkpt>
      <trkpt lat="43.46331" lon="2.37899">
        <ele>617.791</ele>
        <time>2021-05-23T13:01:16Z</time>
      </trkpt>
      <trkpt lat="43.46328" lon="2.379">
        <ele>617.648</ele>
        <time>2021-05-23T13:01:18Z</time>
      </trkpt>
      <trkpt lat="43.46325" lon="2.37901">
        <ele>617.206</ele>
        <time>2021-05-23T13:01:20Z</time>
      </trkpt>
      <trkpt lat="43.46323" lon="2.37902">
        <ele>616.287</ele>
        <time>2021-05-23T13:01:22Z</time>
      </trkpt>
      <trkpt lat="43.46321" lon="2.37904">
        <ele>616.499</ele>
        <time>2021-05-23T13:01:24Z</time>
      </trkpt>
      <trkpt lat="43.46318" lon="2.37905">
        <ele>617.098</ele>
        <time>2021-05-23T13:01:26Z</time>
      </trkpt>
      <trkpt lat="43.46316" lon="2.37907">
        <ele>617.099</ele>
        <time>2021-05-23T13:01:28Z</time>
      </trkpt>
      <trkpt lat="43.46315" lon="2.37909">
        <ele>616.085</ele>
        <time>2021-05-23T13:01:30Z</time>
      </trkpt>
      <trkpt lat="43.46313" lon="2.37911">
        <ele>616.308</ele>
        <time>2021-05-23T13:01:32Z</time>
      </trkpt>
      <trkpt lat="43.46312" lon="2.37911">
        <ele>614.761</ele>
        <time>2021-05-23T13:01:34Z</time>
      </trkpt>
      <trkpt lat="43.46313" lon="2.37911">
        <ele>614.745</ele>
        <time>2021-05-23T13:01:36Z</time>
      </trkpt>
      <trkpt lat="43.46311" lon="2.37912">
        <ele>614.006</ele>
        <time>2021-05-23T13:01:38Z</time>
      </trkpt>
      <trkpt lat="43.4631" lon="2.37914">
        <ele>614.294</ele>
        <time>2021-05-23T13:01:40Z</time>
      </trkpt>
      <trkpt lat="43.46308" lon="2.37916">
        <ele>613.861</ele>
        <time>2021-05-23T13:01:42Z</time>
      </trkpt>
      <trkpt lat="43.46307" lon="2.37918">
        <ele>615.258</ele>
        <time>2021-05-23T13:01:44Z</time>
      </trkpt>
      <trkpt lat="43.46303" lon="2.37919">
        <ele>614.875</ele>
        <time>2021-05-23T13:01:46Z</time>
      </trkpt>
      <trkpt lat="43.46301" lon="2.37921">
        <ele>615.591</ele>
        <time>2021-05-23T13:01:48Z</time>
      </trkpt>
      <trkpt lat="43.46298" lon="2.37923">
        <ele>615.696</ele>
        <time>2021-05-23T13:01:50Z</time>
      </trkpt>
      <trkpt lat="43.46295" lon="2.37925">
        <ele>616.285</ele>
        <time>2021-05-23T13:01:52Z</time>
      </trkpt>
      <trkpt lat="43.46293" lon="2.37926">
        <ele>617.132</ele>
        <time>2021-05-23T13:01:54Z</time>
      </trkpt>
      <trkpt lat="43.4629" lon="2.37928">
        <ele>617.9</ele>
        <time>2021-05-23T13:01:56Z</time>
      </trkpt>
      <trkpt lat="43.46288" lon="2.37928">
        <ele>617.863</ele>
        <time>2021-05-23T13:01:58Z</time>
      </trkpt>
      <trkpt lat="43.46287" lon="2.37928">
        <ele>618.125</ele>
        <time>2021-05-23T13:02:00Z</time>
      </trkpt>
      <trkpt lat="43.46288" lon="2.37928">
        <ele>618.111</ele>
        <time>2021-05-23T13:02:02Z</time>
      </trkpt>
      <trkpt lat="43.46288" lon="2.37929">
        <ele>617.922</ele>
        <time>2021-05-23T13:02:04Z</time>
      </trkpt>
      <trkpt lat="43.46286" lon="2.3793">
        <ele>617.219</ele>
        <time>2021-05-23T13:02:06Z</time>
      </trkpt>
      <trkpt lat="43.46285" lon="2.37931">
        <ele>616.65</ele>
        <time>2021-05-23T13:02:08Z</time>
      </trkpt>
      <trkpt lat="43.46283" lon="2.37933">
        <ele>616.947</ele>
        <time>2021-05-23T13:02:10Z</time>
      </trkpt>
      <trkpt lat="43.46283" lon="2.37936">
        <ele>616.439</ele>
        <time>2021-05-23T13:02:12Z</time>
      </trkpt>
      <trkpt lat="43.46281" lon="2.37938">
        <ele>616.836</ele>
        <time>2021-05-23T13:02:14Z</time>
      </trkpt>
      <trkpt lat="43.4628" lon="2.37939">
        <ele>616.592</ele>
        <time>2021-05-23T13:02:15Z</time>
      </trkpt>
      <trkpt lat="43.46277" lon="2.37941">
        <ele>616.539</ele>
        <time>2021-05-23T13:02:18Z</time>
      </trkpt>
      <trkpt lat="43.46276" lon="2.37944">
        <ele>616.215</ele>
        <time>2021-05-23T13:02:20Z</time>
      </trkpt>
      <trkpt lat="43.46275" lon="2.37947">
        <ele>616.222</ele>
        <time>2021-05-23T13:02:22Z</time>
      </trkpt>
      <trkpt lat="43.46273" lon="2.37949">
        <ele>616.949</ele>
        <time>2021-05-23T13:02:24Z</time>
      </trkpt>
      <trkpt lat="43.46271" lon="2.3795">
        <ele>616.59</ele>
        <time>2021-05-23T13:02:26Z</time>
      </trkpt>
      <trkpt lat="43.46269" lon="2.37952">
        <ele>616.146</ele>
        <time>2021-05-23T13:02:28Z</time>
      </trkpt>
      <trkpt lat="43.46268" lon="2.37954">
        <ele>616.198</ele>
        <time>2021-05-23T13:02:30Z</time>
      </trkpt>
      <trkpt lat="43.46266" lon="2.37957">
        <ele>616.028</ele>
        <time>2021-05-23T13:02:32Z</time>
      </trkpt>
      <trkpt lat="43.46265" lon="2.37958">
        <ele>616.51</ele>
        <time>2021-05-23T13:02:34Z</time>
      </trkpt>
      <trkpt lat="43.46263" lon="2.3796">
        <ele>614.812</ele>
        <time>2021-05-23T13:02:36Z</time>
      </trkpt>
      <trkpt lat="43.46261" lon="2.37962">
        <ele>614.64</ele>
        <time>2021-05-23T13:02:38Z</time>
      </trkpt>
      <trkpt lat="43.46259" lon="2.37964">
        <ele>614.282</ele>
        <time>2021-05-23T13:02:40Z</time>
      </trkpt>
      <trkpt lat="43.46257" lon="2.37965">
        <ele>614.292</ele>
        <time>2021-05-23T13:02:42Z</time>
      </trkpt>
      <trkpt lat="43.46254" lon="2.37967">
        <ele>614.629</ele>
        <time>2021-05-23T13:02:44Z</time>
      </trkpt>
      <trkpt lat="43.46251" lon="2.37968">
        <ele>615.144</ele>
        <time>2021-05-23T13:02:46Z</time>
      </trkpt>
      <trkpt lat="43.46249" lon="2.37971">
        <ele>615.57</ele>
        <time>2021-05-23T13:02:48Z</time>
      </trkpt>
      <trkpt lat="43.46247" lon="2.37973">
        <ele>614.174</ele>
        <time>2021-05-23T13:02:50Z</time>
      </trkpt>
      <trkpt lat="43.46245" lon="2.37975">
        <ele>613.788</ele>
        <time>2021-05-23T13:02:52Z</time>
      </trkpt>
      <trkpt lat="43.46243" lon="2.37978">
        <ele>614.586</ele>
        <time>2021-05-23T13:02:54Z</time>
      </trkpt>
      <trkpt lat="43.46241" lon="2.3798">
        <ele>615.322</ele>
        <time>2021-05-23T13:02:56Z</time>
      </trkpt>
      <trkpt lat="43.46239" lon="2.37983">
        <ele>615.942</ele>
        <time>2021-05-23T13:02:58Z</time>
      </trkpt>
      <trkpt lat="43.46237" lon="2.37984">
        <ele>614.549</ele>
        <time>2021-05-23T13:03:00Z</time>
      </trkpt>
      <trkpt lat="43.46236" lon="2.37987">
        <ele>614.093</ele>
        <time>2021-05-23T13:03:02Z</time>
      </trkpt>
      <trkpt lat="43.46234" lon="2.37988">
        <ele>613.365</ele>
        <time>2021-05-23T13:03:04Z</time>
      </trkpt>
      <trkpt lat="43.46232" lon="2.37991">
        <ele>613.221</ele>
        <time>2021-05-23T13:03:06Z</time>
      </trkpt>
      <trkpt lat="43.46231" lon="2.37993">
        <ele>612.435</ele>
        <time>2021-05-23T13:03:08Z</time>
      </trkpt>
      <trkpt lat="43.46229" lon="2.37995">
        <ele>613.399</ele>
        <time>2021-05-23T13:03:10Z</time>
      </trkpt>
      <trkpt lat="43.46226" lon="2.37998">
        <ele>615.131</ele>
        <time>2021-05-23T13:03:12Z</time>
      </trkpt>
      <trkpt lat="43.46224" lon="2.38">
        <ele>615.327</ele>
        <time>2021-05-23T13:03:14Z</time>
      </trkpt>
      <trkpt lat="43.46222" lon="2.38003">
        <ele>615.638</ele>
        <time>2021-05-23T13:03:16Z</time>
      </trkpt>
      <trkpt lat="43.4622" lon="2.38006">
        <ele>615.548</ele>
        <time>2021-05-23T13:03:18Z</time>
      </trkpt>
      <trkpt lat="43.46219" lon="2.38008">
        <ele>615.211</ele>
        <time>2021-05-23T13:03:20Z</time>
      </trkpt>
      <trkpt lat="43.46216" lon="2.3801">
        <ele>615.38</ele>
        <time>2021-05-23T13:03:22Z</time>
      </trkpt>
      <trkpt lat="43.46215" lon="2.38013">
        <ele>615.232</ele>
        <time>2021-05-23T13:03:24Z</time>
      </trkpt>
      <trkpt lat="43.46213" lon="2.38015">
        <ele>615.187</ele>
        <time>2021-05-23T13:03:26Z</time>
      </trkpt>
      <trkpt lat="43.46211" lon="2.38017">
        <ele>616.002</ele>
        <time>2021-05-23T13:03:28Z</time>
      </trkpt>
      <trkpt lat="43.46208" lon="2.38018">
        <ele>616.389</ele>
        <time>2021-05-23T13:03:30Z</time>
      </trkpt>
      <trkpt lat="43.46207" lon="2.3802">
        <ele>617.153</ele>
        <time>2021-05-23T13:03:32Z</time>
      </trkpt>
      <trkpt lat="43.46205" lon="2.38023">
        <ele>617.306</ele>
        <time>2021-05-23T13:03:34Z</time>
      </trkpt>
      <trkpt lat="43.46204" lon="2.38025">
        <ele>617.572</ele>
        <time>2021-05-23T13:03:36Z</time>
      </trkpt>
      <trkpt lat="43.46201" lon="2.38028">
        <ele>619.108</ele>
        <time>2021-05-23T13:03:38Z</time>
      </trkpt>
      <trkpt lat="43.462" lon="2.3803">
        <ele>617.301</ele>
        <time>2021-05-23T13:03:40Z</time>
      </trkpt>
      <trkpt lat="43.46198" lon="2.38032">
        <ele>617.028</ele>
        <time>2021-05-23T13:03:42Z</time>
      </trkpt>
      <trkpt lat="43.46196" lon="2.38034">
        <ele>616.135</ele>
        <time>2021-05-23T13:03:44Z</time>
      </trkpt>
      <trkpt lat="43.46194" lon="2.38035">
        <ele>616.448</ele>
        <time>2021-05-23T13:03:46Z</time>
      </trkpt>
      <trkpt lat="43.46193" lon="2.38038">
        <ele>614.731</ele>
        <time>2021-05-23T13:03:48Z</time>
      </trkpt>
      <trkpt lat="43.46192" lon="2.38041">
        <ele>615.21</ele>
        <time>2021-05-23T13:03:50Z</time>
      </trkpt>
      <trkpt lat="43.46191" lon="2.38044">
        <ele>615.54</ele>
        <time>2021-05-23T13:03:52Z</time>
      </trkpt>
      <trkpt lat="43.46189" lon="2.38047">
        <ele>615.74</ele>
        <time>2021-05-23T13:03:54Z</time>
      </trkpt>
      <trkpt lat="43.46187" lon="2.3805">
        <ele>615.914</ele>
        <time>2021-05-23T13:03:56Z</time>
      </trkpt>
      <trkpt lat="43.46186" lon="2.38052">
        <ele>616.362</ele>
        <time>2021-05-23T13:03:58Z</time>
      </trkpt>
      <trkpt lat="43.46185" lon="2.38054">
        <ele>615.953</ele>
        <time>2021-05-23T13:04:00Z</time>
      </trkpt>
      <trkpt lat="43.46184" lon="2.38056">
        <ele>617.045</ele>
        <time>2021-05-23T13:04:02Z</time>
      </trkpt>
      <trkpt lat="43.46182" lon="2.38058">
        <ele>617.522</ele>
        <time>2021-05-23T13:04:04Z</time>
      </trkpt>
      <trkpt lat="43.46183" lon="2.3806">
        <ele>617.863</ele>
        <time>2021-05-23T13:04:06Z</time>
      </trkpt>
      <trkpt lat="43.46183" lon="2.38061">
        <ele>617.991</ele>
        <time>2021-05-23T13:04:08Z</time>
      </trkpt>
      <trkpt lat="43.46182" lon="2.38063">
        <ele>619.238</ele>
        <time>2021-05-23T13:04:10Z</time>
      </trkpt>
      <trkpt lat="43.46181" lon="2.38064">
        <ele>618.812</ele>
        <time>2021-05-23T13:04:12Z</time>
      </trkpt>
      <trkpt lat="43.46181" lon="2.38064">
        <ele>618.947</ele>
        <time>2021-05-23T13:04:14Z</time>
      </trkpt>
      <trkpt lat="43.46181" lon="2.38065">
        <ele>619.46</ele>
        <time>2021-05-23T13:04:16Z</time>
      </trkpt>
      <trkpt lat="43.4618" lon="2.38067">
        <ele>619.363</ele>
        <time>2021-05-23T13:04:18Z</time>
      </trkpt>
      <trkpt lat="43.4618" lon="2.38069">
        <ele>620.161</ele>
        <time>2021-05-23T13:04:20Z</time>
      </trkpt>
      <trkpt lat="43.46178" lon="2.38071">
        <ele>620.31</ele>
        <time>2021-05-23T13:04:22Z</time>
      </trkpt>
      <trkpt lat="43.46177" lon="2.38072">
        <ele>619.971</ele>
        <time>2021-05-23T13:04:24Z</time>
      </trkpt>
      <trkpt lat="43.46176" lon="2.38074">
        <ele>620.005</ele>
        <time>2021-05-23T13:04:26Z</time>
      </trkpt>
      <trkpt lat="43.46175" lon="2.38075">
        <ele>620.067</ele>
        <time>2021-05-23T13:04:28Z</time>
      </trkpt>
      <trkpt lat="43.46174" lon="2.38075">
        <ele>619.969</ele>
        <time>2021-05-23T13:04:30Z</time>
      </trkpt>
      <trkpt lat="43.46173" lon="2.38076">
        <ele>619.722</ele>
        <time>2021-05-23T13:04:32Z</time>
      </trkpt>
      <trkpt lat="43.46172" lon="2.38078">
        <ele>619.782</ele>
        <time>2021-05-23T13:04:34Z</time>
      </trkpt>
      <trkpt lat="43.46171" lon="2.38079">
        <ele>620.143</ele>
        <time>2021-05-23T13:04:36Z</time>
      </trkpt>
      <trkpt lat="43.4617" lon="2.38081">
        <ele>620.423</ele>
        <time>2021-05-23T13:04:38Z</time>
      </trkpt>
      <trkpt lat="43.46169" lon="2.38083">
        <ele>620.556</ele>
        <time>2021-05-23T13:04:40Z</time>
      </trkpt>
      <trkpt lat="43.46169" lon="2.38085">
        <ele>620.366</ele>
        <time>2021-05-23T13:04:42Z</time>
      </trkpt>
      <trkpt lat="43.4617" lon="2.38087">
        <ele>619.86</ele>
        <time>2021-05-23T13:04:44Z</time>
      </trkpt>
      <trkpt lat="43.4617" lon="2.38089">
        <ele>620.689</ele>
        <time>2021-05-23T13:04:46Z</time>
      </trkpt>
      <trkpt lat="43.46171" lon="2.38089">
        <ele>620.331</ele>
        <time>2021-05-23T13:04:48Z</time>
      </trkpt>
      <trkpt lat="43.46171" lon="2.38089">
        <ele>620.157</ele>
        <time>2021-05-23T13:04:50Z</time>
      </trkpt>
      <trkpt lat="43.46171" lon="2.38089">
        <ele>620.149</ele>
        <time>2021-05-23T13:04:52Z</time>
      </trkpt>
      <trkpt lat="43.4617" lon="2.38089">
        <ele>619.481</ele>
        <time>2021-05-23T13:04:54Z</time>
      </trkpt>
      <trkpt lat="43.46169" lon="2.3809">
        <ele>619.211</ele>
        <time>2021-05-23T13:04:56Z</time>
      </trkpt>
      <trkpt lat="43.46168" lon="2.38091">
        <ele>619.716</ele>
        <time>2021-05-23T13:04:58Z</time>
      </trkpt>
      <trkpt lat="43.46167" lon="2.38093">
        <ele>620.249</ele>
        <time>2021-05-23T13:05:00Z</time>
      </trkpt>
      <trkpt lat="43.46166" lon="2.38094">
        <ele>619.974</ele>
        <time>2021-05-23T13:05:02Z</time>
      </trkpt>
      <trkpt lat="43.46165" lon="2.38095">
        <ele>619.875</ele>
        <time>2021-05-23T13:05:04Z</time>
      </trkpt>
      <trkpt lat="43.46164" lon="2.38096">
        <ele>620.074</ele>
        <time>2021-05-23T13:05:06Z</time>
      </trkpt>
      <trkpt lat="43.46163" lon="2.38096">
        <ele>620.234</ele>
        <time>2021-05-23T13:05:08Z</time>
      </trkpt>
      <trkpt lat="43.46163" lon="2.38096">
        <ele>620.576</ele>
        <time>2021-05-23T13:05:10Z</time>
      </trkpt>
      <trkpt lat="43.46163" lon="2.38096">
        <ele>620.58</ele>
        <time>2021-05-23T13:05:12Z</time>
      </trkpt>
      <trkpt lat="43.46163" lon="2.38096">
        <ele>620.571</ele>
        <time>2021-05-23T13:05:14Z</time>
      </trkpt>
      <trkpt lat="43.46163" lon="2.38096">
        <ele>620.045</ele>
        <time>2021-05-23T13:05:16Z</time>
      </trkpt>
      <trkpt lat="43.46163" lon="2.38096">
        <ele>620.021</ele>
        <time>2021-05-23T13:05:18Z</time>
      </trkpt>
      <trkpt lat="43.46162" lon="2.38096">
        <ele>619.132</ele>
        <time>2021-05-23T13:05:20Z</time>
      </trkpt>
      <trkpt lat="43.46162" lon="2.38095">
        <ele>619.1</ele>
        <time>2021-05-23T13:05:22Z</time>
      </trkpt>
      <trkpt lat="43.46162" lon="2.38095">
        <ele>619.099</ele>
        <time>2021-05-23T13:05:24Z</time>
      </trkpt>
      <trkpt lat="43.46162" lon="2.38095">
        <ele>619.09</ele>
        <time>2021-05-23T13:05:26Z</time>
      </trkpt>
      <trkpt lat="43.46162" lon="2.38095">
        <ele>619.079</ele>
        <time>2021-05-23T13:05:28Z</time>
      </trkpt>
      <trkpt lat="43.46162" lon="2.38095">
        <ele>619.069</ele>
        <time>2021-05-23T13:05:30Z</time>
      </trkpt>
      <trkpt lat="43.46162" lon="2.38095">
        <ele>618.648</ele>
        <time>2021-05-23T13:05:32Z</time>
      </trkpt>
      <trkpt lat="43.46162" lon="2.38095">
        <ele>618.64</ele>
        <time>2021-05-23T13:05:34Z</time>
      </trkpt>
      <trkpt lat="43.46162" lon="2.38095">
        <ele>618.624</ele>
        <time>2021-05-23T13:05:36Z</time>
      </trkpt>
      <trkpt lat="43.46162" lon="2.38095">
        <ele>618.607</ele>
        <time>2021-05-23T13:05:38Z</time>
      </trkpt>
      <trkpt lat="43.46162" lon="2.38095">
        <ele>618.789</ele>
        <time>2021-05-23T13:05:40Z</time>
      </trkpt>
      <trkpt lat="43.46162" lon="2.38095">
        <ele>618.787</ele>
        <time>2021-05-23T13:05:42Z</time>
      </trkpt>
      <trkpt lat="43.46162" lon="2.38095">
        <ele>618.773</ele>
        <time>2021-05-23T13:05:44Z</time>
      </trkpt>
      <trkpt lat="43.46162" lon="2.38095">
        <ele>618.762</ele>
        <time>2021-05-23T13:05:46Z</time>
      </trkpt>
      <trkpt lat="43.46162" lon="2.38095">
        <ele>618.761</ele>
        <time>2021-05-23T13:05:48Z</time>
      </trkpt>
      <trkpt lat="43.46162" lon="2.38095">
        <ele>618.754</ele>
        <time>2021-05-23T13:05:50Z</time>
      </trkpt>
      <trkpt lat="43.46162" lon="2.38095">
        <ele>618.75</ele>
        <time>2021-05-23T13:05:52Z</time>
      </trkpt>
      <trkpt lat="43.46162" lon="2.38095">
        <ele>618.748</ele>
        <time>2021-05-23T13:05:54Z</time>
      </trkpt>
      <trkpt lat="43.46162" lon="2.38095">
        <ele>618.745</ele>
        <time>2021-05-23T13:05:56Z</time>
      </trkpt>
      <trkpt lat="43.46162" lon="2.38095">
        <ele>618.739</ele>
        <time>2021-05-23T13:05:58Z</time>
      </trkpt>
      <trkpt lat="43.46162" lon="2.38095">
        <ele>618.736</ele>
        <time>2021-05-23T13:06:00Z</time>
      </trkpt>
      <trkpt lat="43.46162" lon="2.38095">
        <ele>618.406</ele>
        <time>2021-05-23T13:06:02Z</time>
      </trkpt>
      <trkpt lat="43.46162" lon="2.38095">
        <ele>618.39</ele>
        <time>2021-05-23T13:06:04Z</time>
      </trkpt>
      <trkpt lat="43.46162" lon="2.38095">
        <ele>618.384</ele>
        <time>2021-05-23T13:06:06Z</time>
      </trkpt>
      <trkpt lat="43.46162" lon="2.38095">
        <ele>618.379</ele>
        <time>2021-05-23T13:06:08Z</time>
      </trkpt>
      <trkpt lat="43.46162" lon="2.38095">
        <ele>618.37</ele>
        <time>2021-05-23T13:06:10Z</time>
      </trkpt>
      <trkpt lat="43.46162" lon="2.38095">
        <ele>618.36</ele>
        <time>2021-05-23T13:06:12Z</time>
      </trkpt>
      <trkpt lat="43.46162" lon="2.38095">
        <ele>618.352</ele>
        <time>2021-05-23T13:06:14Z</time>
      </trkpt>
      <trkpt lat="43.46162" lon="2.38095">
        <ele>618.345</ele>
        <time>2021-05-23T13:06:16Z</time>
      </trkpt>
      <trkpt lat="43.46163" lon="2.38094">
        <ele>617.829</ele>
        <time>2021-05-23T13:06:18Z</time>
      </trkpt>
      <trkpt lat="43.46163" lon="2.38093">
        <ele>617.63</ele>
        <time>2021-05-23T13:06:20Z</time>
      </trkpt>
      <trkpt lat="43.46163" lon="2.38093">
        <ele>617.268</ele>
        <time>2021-05-23T13:06:22Z</time>
      </trkpt>
      <trkpt lat="43.46163" lon="2.38093">
        <ele>617.257</ele>
        <time>2021-05-23T13:06:24Z</time>
      </trkpt>
      <trkpt lat="43.46163" lon="2.38093">
        <ele>617.249</ele>
        <time>2021-05-23T13:06:26Z</time>
      </trkpt>
      <trkpt lat="43.46163" lon="2.38093">
        <ele>617.242</ele>
        <time>2021-05-23T13:06:28Z</time>
      </trkpt>
      <trkpt lat="43.46163" lon="2.38093">
        <ele>617.236</ele>
        <time>2021-05-23T13:06:30Z</time>
      </trkpt>
      <trkpt lat="43.46163" lon="2.38093">
        <ele>617.229</ele>
        <time>2021-05-23T13:06:32Z</time>
      </trkpt>
      <trkpt lat="43.46163" lon="2.38093">
        <ele>617.227</ele>
        <time>2021-05-23T13:06:34Z</time>
      </trkpt>
      <trkpt lat="43.46163" lon="2.38093">
        <ele>617.225</ele>
        <time>2021-05-23T13:06:36Z</time>
      </trkpt>
      <trkpt lat="43.46163" lon="2.38093">
        <ele>617.222</ele>
        <time>2021-05-23T13:06:38Z</time>
      </trkpt>
      <trkpt lat="43.46163" lon="2.38093">
        <ele>617.216</ele>
        <time>2021-05-23T13:06:40Z</time>
      </trkpt>
      <trkpt lat="43.46163" lon="2.38093">
        <ele>617.21</ele>
        <time>2021-05-23T13:06:42Z</time>
      </trkpt>
      <trkpt lat="43.46163" lon="2.38093">
        <ele>617.209</ele>
        <time>2021-05-23T13:06:44Z</time>
      </trkpt>
      <trkpt lat="43.46163" lon="2.38093">
        <ele>617.205</ele>
        <time>2021-05-23T13:06:46Z</time>
      </trkpt>
      <trkpt lat="43.46163" lon="2.38093">
        <ele>617.198</ele>
        <time>2021-05-23T13:06:48Z</time>
      </trkpt>
      <trkpt lat="43.46163" lon="2.38093">
        <ele>617.194</ele>
        <time>2021-05-23T13:06:50Z</time>
      </trkpt>
      <trkpt lat="43.46163" lon="2.38093">
        <ele>617.077</ele>
        <time>2021-05-23T13:06:52Z</time>
      </trkpt>
      <trkpt lat="43.46163" lon="2.38093">
        <ele>617.09</ele>
        <time>2021-05-23T13:06:54Z</time>
      </trkpt>
      <trkpt lat="43.46163" lon="2.38093">
        <ele>617.084</ele>
        <time>2021-05-23T13:06:56Z</time>
      </trkpt>
      <trkpt lat="43.46163" lon="2.38093">
        <ele>617.084</ele>
        <time>2021-05-23T13:06:58Z</time>
      </trkpt>
      <trkpt lat="43.46163" lon="2.38093">
        <ele>617.085</ele>
        <time>2021-05-23T13:07:00Z</time>
      </trkpt>
      <trkpt lat="43.46163" lon="2.38093">
        <ele>617.081</ele>
        <time>2021-05-23T13:07:02Z</time>
      </trkpt>
      <trkpt lat="43.46163" lon="2.38093">
        <ele>617.072</ele>
        <time>2021-05-23T13:07:04Z</time>
      </trkpt>
      <trkpt lat="43.46163" lon="2.38093">
        <ele>617.057</ele>
        <time>2021-05-23T13:07:06Z</time>
      </trkpt>
      <trkpt lat="43.46163" lon="2.38093">
        <ele>617.048</ele>
        <time>2021-05-23T13:07:08Z</time>
      </trkpt>
      <trkpt lat="43.46163" lon="2.38093">
        <ele>617.037</ele>
        <time>2021-05-23T13:07:10Z</time>
      </trkpt>
      <trkpt lat="43.46163" lon="2.38093">
        <ele>617.034</ele>
        <time>2021-05-23T13:07:12Z</time>
      </trkpt>
      <trkpt lat="43.46163" lon="2.38093">
        <ele>617.029</ele>
        <time>2021-05-23T13:07:14Z</time>
      </trkpt>
      <trkpt lat="43.46163" lon="2.38093">
        <ele>617.029</ele>
        <time>2021-05-23T13:07:16Z</time>
      </trkpt>
      <trkpt lat="43.46163" lon="2.38093">
        <ele>617.03</ele>
        <time>2021-05-23T13:07:18Z</time>
      </trkpt>
      <trkpt lat="43.46163" lon="2.38093">
        <ele>617.029</ele>
        <time>2021-05-23T13:07:20Z</time>
      </trkpt>
      <trkpt lat="43.46163" lon="2.38092">
        <ele>617.116</ele>
        <time>2021-05-23T13:07:22Z</time>
      </trkpt>
      <trkpt lat="43.46164" lon="2.38092">
        <ele>616.838</ele>
        <time>2021-05-23T13:07:24Z</time>
      </trkpt>
      <trkpt lat="43.46165" lon="2.38091">
        <ele>617.139</ele>
        <time>2021-05-23T13:07:26Z</time>
      </trkpt>
      <trkpt lat="43.46167" lon="2.38091">
        <ele>617.009</ele>
        <time>2021-05-23T13:07:28Z</time>
      </trkpt>
      <trkpt lat="43.46168" lon="2.3809">
        <ele>617.442</ele>
        <time>2021-05-23T13:07:30Z</time>
      </trkpt>
      <trkpt lat="43.4617" lon="2.3809">
        <ele>617.573</ele>
        <time>2021-05-23T13:07:32Z</time>
      </trkpt>
      <trkpt lat="43.46172" lon="2.38091">
        <ele>617.893</ele>
        <time>2021-05-23T13:07:34Z</time>
      </trkpt>
      <trkpt lat="43.46173" lon="2.3809">
        <ele>617.199</ele>
        <time>2021-05-23T13:07:36Z</time>
      </trkpt>
      <trkpt lat="43.46175" lon="2.3809">
        <ele>617.078</ele>
        <time>2021-05-23T13:07:38Z</time>
      </trkpt>
      <trkpt lat="43.46177" lon="2.3809">
        <ele>617.99</ele>
        <time>2021-05-23T13:07:40Z</time>
      </trkpt>
      <trkpt lat="43.46178" lon="2.3809">
        <ele>618.102</ele>
        <time>2021-05-23T13:07:42Z</time>
      </trkpt>
      <trkpt lat="43.46179" lon="2.3809">
        <ele>618.843</ele>
        <time>2021-05-23T13:07:44Z</time>
      </trkpt>
      <trkpt lat="43.46181" lon="2.3809">
        <ele>619.553</ele>
        <time>2021-05-23T13:07:46Z</time>
      </trkpt>
      <trkpt lat="43.46183" lon="2.38089">
        <ele>619.872</ele>
        <time>2021-05-23T13:07:48Z</time>
      </trkpt>
      <trkpt lat="43.46185" lon="2.38089">
        <ele>619.959</ele>
        <time>2021-05-23T13:07:50Z</time>
      </trkpt>
      <trkpt lat="43.46187" lon="2.38089">
        <ele>619.685</ele>
        <time>2021-05-23T13:07:52Z</time>
      </trkpt>
      <trkpt lat="43.46188" lon="2.38088">
        <ele>619.487</ele>
        <time>2021-05-23T13:07:54Z</time>
      </trkpt>
      <trkpt lat="43.4619" lon="2.38088">
        <ele>619.265</ele>
        <time>2021-05-23T13:07:56Z</time>
      </trkpt>
      <trkpt lat="43.46192" lon="2.38088">
        <ele>618.769</ele>
        <time>2021-05-23T13:07:58Z</time>
      </trkpt>
      <trkpt lat="43.46193" lon="2.38088">
        <ele>618.671</ele>
        <time>2021-05-23T13:08:00Z</time>
      </trkpt>
      <trkpt lat="43.46194" lon="2.38088">
        <ele>618.995</ele>
        <time>2021-05-23T13:08:02Z</time>
      </trkpt>
      <trkpt lat="43.46195" lon="2.38087">
        <ele>619.226</ele>
        <time>2021-05-23T13:08:04Z</time>
      </trkpt>
      <trkpt lat="43.46196" lon="2.38087">
        <ele>617.791</ele>
        <time>2021-05-23T13:08:06Z</time>
      </trkpt>
      <trkpt lat="43.46196" lon="2.38087">
        <ele>617.924</ele>
        <time>2021-05-23T13:08:08Z</time>
      </trkpt>
      <trkpt lat="43.46196" lon="2.38087">
        <ele>617.924</ele>
        <time>2021-05-23T13:08:10Z</time>
      </trkpt>
      <trkpt lat="43.46196" lon="2.38087">
        <ele>617.918</ele>
        <time>2021-05-23T13:08:12Z</time>
      </trkpt>
      <trkpt lat="43.46196" lon="2.38087">
        <ele>617.918</ele>
        <time>2021-05-23T13:08:14Z</time>
      </trkpt>
      <trkpt lat="43.46196" lon="2.38087">
        <ele>617.921</ele>
        <time>2021-05-23T13:08:16Z</time>
      </trkpt>
      <trkpt lat="43.46196" lon="2.38087">
        <ele>617.919</ele>
        <time>2021-05-23T13:08:18Z</time>
      </trkpt>
      <trkpt lat="43.46196" lon="2.38087">
        <ele>617.915</ele>
        <time>2021-05-23T13:08:20Z</time>
      </trkpt>
      <trkpt lat="43.46196" lon="2.38087">
        <ele>617.913</ele>
        <time>2021-05-23T13:08:22Z</time>
      </trkpt>
      <trkpt lat="43.46196" lon="2.38087">
        <ele>617.908</ele>
        <time>2021-05-23T13:08:24Z</time>
      </trkpt>
      <trkpt lat="43.46196" lon="2.38087">
        <ele>617.916</ele>
        <time>2021-05-23T13:08:26Z</time>
      </trkpt>
      <trkpt lat="43.46196" lon="2.38087">
        <ele>617.923</ele>
        <time>2021-05-23T13:08:28Z</time>
      </trkpt>
      <trkpt lat="43.46196" lon="2.38087">
        <ele>617.926</ele>
        <time>2021-05-23T13:08:30Z</time>
      </trkpt>
      <trkpt lat="43.46196" lon="2.38087">
        <ele>617.931</ele>
        <time>2021-05-23T13:08:32Z</time>
      </trkpt>
      <trkpt lat="43.46196" lon="2.38087">
        <ele>617.932</ele>
        <time>2021-05-23T13:08:34Z</time>
      </trkpt>
      <trkpt lat="43.46196" lon="2.38087">
        <ele>617.935</ele>
        <time>2021-05-23T13:08:36Z</time>
      </trkpt>
      <trkpt lat="43.46196" lon="2.38087">
        <ele>617.937</ele>
        <time>2021-05-23T13:08:38Z</time>
      </trkpt>
      <trkpt lat="43.46196" lon="2.38087">
        <ele>617.944</ele>
        <time>2021-05-23T13:08:40Z</time>
      </trkpt>
      <trkpt lat="43.46196" lon="2.38087">
        <ele>617.948</ele>
        <time>2021-05-23T13:08:42Z</time>
      </trkpt>
      <trkpt lat="43.46196" lon="2.38087">
        <ele>617.949</ele>
        <time>2021-05-23T13:08:44Z</time>
      </trkpt>
      <trkpt lat="43.46196" lon="2.38087">
        <ele>617.944</ele>
        <time>2021-05-23T13:08:46Z</time>
      </trkpt>
      <trkpt lat="43.46196" lon="2.38087">
        <ele>617.945</ele>
        <time>2021-05-23T13:08:48Z</time>
      </trkpt>
      <trkpt lat="43.46196" lon="2.38087">
        <ele>617.945</ele>
        <time>2021-05-23T13:08:50Z</time>
      </trkpt>
      <trkpt lat="43.46196" lon="2.38087">
        <ele>617.942</ele>
        <time>2021-05-23T13:08:52Z</time>
      </trkpt>
      <trkpt lat="43.46196" lon="2.38087">
        <ele>617.932</ele>
        <time>2021-05-23T13:08:54Z</time>
      </trkpt>
      <trkpt lat="43.46196" lon="2.38087">
        <ele>617.935</ele>
        <time>2021-05-23T13:08:56Z</time>
      </trkpt>
      <trkpt lat="43.46196" lon="2.38087">
        <ele>617.934</ele>
        <time>2021-05-23T13:08:58Z</time>
      </trkpt>
      <trkpt lat="43.46196" lon="2.38087">
        <ele>617.932</ele>
        <time>2021-05-23T13:09:00Z</time>
      </trkpt>
      <trkpt lat="43.46196" lon="2.38087">
        <ele>617.934</ele>
        <time>2021-05-23T13:09:02Z</time>
      </trkpt>
      <trkpt lat="43.46196" lon="2.38087">
        <ele>618.785</ele>
        <time>2021-05-23T13:09:04Z</time>
      </trkpt>
      <trkpt lat="43.46196" lon="2.38087">
        <ele>618.812</ele>
        <time>2021-05-23T13:09:06Z</time>
      </trkpt>
      <trkpt lat="43.46196" lon="2.38087">
        <ele>618.809</ele>
        <time>2021-05-23T13:09:08Z</time>
      </trkpt>
      <trkpt lat="43.46196" lon="2.38087">
        <ele>618.431</ele>
        <time>2021-05-23T13:09:10Z</time>
      </trkpt>
      <trkpt lat="43.46196" lon="2.38087">
        <ele>618.433</ele>
        <time>2021-05-23T13:09:12Z</time>
      </trkpt>
      <trkpt lat="43.46196" lon="2.38087">
        <ele>618.429</ele>
        <time>2021-05-23T13:09:14Z</time>
      </trkpt>
      <trkpt lat="43.46196" lon="2.38087">
        <ele>618.43</ele>
        <time>2021-05-23T13:09:16Z</time>
      </trkpt>
      <trkpt lat="43.46196" lon="2.38087">
        <ele>618.426</ele>
        <time>2021-05-23T13:09:18Z</time>
      </trkpt>
      <trkpt lat="43.46196" lon="2.38087">
        <ele>618.425</ele>
        <time>2021-05-23T13:09:20Z</time>
      </trkpt>
      <trkpt lat="43.46196" lon="2.38087">
        <ele>618.418</ele>
        <time>2021-05-23T13:09:22Z</time>
      </trkpt>
      <trkpt lat="43.46196" lon="2.38087">
        <ele>618.414</ele>
        <time>2021-05-23T13:09:24Z</time>
      </trkpt>
      <trkpt lat="43.46196" lon="2.38087">
        <ele>618.411</ele>
        <time>2021-05-23T13:09:26Z</time>
      </trkpt>
      <trkpt lat="43.46196" lon="2.38087">
        <ele>618.409</ele>
        <time>2021-05-23T13:09:28Z</time>
      </trkpt>
      <trkpt lat="43.46196" lon="2.38087">
        <ele>618.41</ele>
        <time>2021-05-23T13:09:30Z</time>
      </trkpt>
      <trkpt lat="43.46196" lon="2.38087">
        <ele>618.408</ele>
        <time>2021-05-23T13:09:32Z</time>
      </trkpt>
      <trkpt lat="43.46196" lon="2.38087">
        <ele>618.407</ele>
        <time>2021-05-23T13:09:34Z</time>
      </trkpt>
      <trkpt lat="43.46196" lon="2.38087">
        <ele>618.41</ele>
        <time>2021-05-23T13:09:36Z</time>
      </trkpt>
      <trkpt lat="43.46196" lon="2.38087">
        <ele>618.407</ele>
        <time>2021-05-23T13:09:38Z</time>
      </trkpt>
      <trkpt lat="43.46196" lon="2.38087">
        <ele>618.413</ele>
        <time>2021-05-23T13:09:40Z</time>
      </trkpt>
      <trkpt lat="43.46196" lon="2.38087">
        <ele>618.409</ele>
        <time>2021-05-23T13:09:42Z</time>
      </trkpt>
      <trkpt lat="43.46196" lon="2.38087">
        <ele>618.403</ele>
        <time>2021-05-23T13:09:44Z</time>
      </trkpt>
      <trkpt lat="43.46196" lon="2.38087">
        <ele>618.397</ele>
        <time>2021-05-23T13:09:46Z</time>
      </trkpt>
      <trkpt lat="43.46196" lon="2.38087">
        <ele>618.133</ele>
        <time>2021-05-23T13:09:48Z</time>
      </trkpt>
      <trkpt lat="43.46196" lon="2.38087">
        <ele>618.077</ele>
        <time>2021-05-23T13:09:50Z</time>
      </trkpt>
      <trkpt lat="43.46196" lon="2.38087">
        <ele>618.081</ele>
        <time>2021-05-23T13:09:52Z</time>
      </trkpt>
      <trkpt lat="43.46196" lon="2.38087">
        <ele>618.018</ele>
        <time>2021-05-23T13:09:54Z</time>
      </trkpt>
      <trkpt lat="43.46196" lon="2.38087">
        <ele>617.931</ele>
        <time>2021-05-23T13:09:56Z</time>
      </trkpt>
      <trkpt lat="43.46197" lon="2.38087">
        <ele>616.351</ele>
        <time>2021-05-23T13:09:58Z</time>
      </trkpt>
      <trkpt lat="43.46197" lon="2.38087">
        <ele>616.456</ele>
        <time>2021-05-23T13:10:00Z</time>
      </trkpt>
      <trkpt lat="43.46197" lon="2.38087">
        <ele>616.351</ele>
        <time>2021-05-23T13:10:02Z</time>
      </trkpt>
      <trkpt lat="43.46197" lon="2.38087">
        <ele>616.489</ele>
        <time>2021-05-23T13:10:04Z</time>
      </trkpt>
      <trkpt lat="43.46197" lon="2.38087">
        <ele>616.489</ele>
        <time>2021-05-23T13:10:06Z</time>
      </trkpt>
      <trkpt lat="43.46197" lon="2.38087">
        <ele>616.489</ele>
        <time>2021-05-23T13:10:08Z</time>
      </trkpt>
      <trkpt lat="43.46197" lon="2.38087">
        <ele>616.494</ele>
        <time>2021-05-23T13:10:10Z</time>
      </trkpt>
      <trkpt lat="43.46197" lon="2.38087">
        <ele>616.499</ele>
        <time>2021-05-23T13:10:12Z</time>
      </trkpt>
      <trkpt lat="43.46197" lon="2.38087">
        <ele>616.505</ele>
        <time>2021-05-23T13:10:14Z</time>
      </trkpt>
      <trkpt lat="43.46197" lon="2.38087">
        <ele>616.511</ele>
        <time>2021-05-23T13:10:16Z</time>
      </trkpt>
      <trkpt lat="43.46197" lon="2.38087">
        <ele>616.992</ele>
        <time>2021-05-23T13:10:18Z</time>
      </trkpt>
      <trkpt lat="43.46197" lon="2.38086">
        <ele>617.188</ele>
        <time>2021-05-23T13:10:20Z</time>
      </trkpt>
      <trkpt lat="43.46197" lon="2.38086">
        <ele>617.135</ele>
        <time>2021-05-23T13:10:22Z</time>
      </trkpt>
      <trkpt lat="43.46199" lon="2.38086">
        <ele>616.606</ele>
        <time>2021-05-23T13:10:24Z</time>
      </trkpt>
      <trkpt lat="43.46201" lon="2.38085">
        <ele>618.081</ele>
        <time>2021-05-23T13:10:26Z</time>
      </trkpt>
      <trkpt lat="43.46202" lon="2.38084">
        <ele>617.587</ele>
        <time>2021-05-23T13:10:28Z</time>
      </trkpt>
      <trkpt lat="43.46203" lon="2.38083">
        <ele>617.708</ele>
        <time>2021-05-23T13:10:30Z</time>
      </trkpt>
      <trkpt lat="43.46205" lon="2.38082">
        <ele>617.161</ele>
        <time>2021-05-23T13:10:32Z</time>
      </trkpt>
      <trkpt lat="43.46207" lon="2.38081">
        <ele>616.661</ele>
        <time>2021-05-23T13:10:34Z</time>
      </trkpt>
      <trkpt lat="43.46209" lon="2.38079">
        <ele>616.707</ele>
        <time>2021-05-23T13:10:36Z</time>
      </trkpt>
      <trkpt lat="43.46211" lon="2.38078">
        <ele>616.562</ele>
        <time>2021-05-23T13:10:38Z</time>
      </trkpt>
      <trkpt lat="43.46213" lon="2.38077">
        <ele>616.556</ele>
        <time>2021-05-23T13:10:40Z</time>
      </trkpt>
      <trkpt lat="43.46215" lon="2.38076">
        <ele>616.425</ele>
        <time>2021-05-23T13:10:42Z</time>
      </trkpt>
      <trkpt lat="43.46217" lon="2.38075">
        <ele>617.098</ele>
        <time>2021-05-23T13:10:44Z</time>
      </trkpt>
      <trkpt lat="43.4622" lon="2.38072">
        <ele>616.033</ele>
        <time>2021-05-23T13:10:46Z</time>
      </trkpt>
      <trkpt lat="43.46222" lon="2.3807">
        <ele>617.446</ele>
        <time>2021-05-23T13:10:48Z</time>
      </trkpt>
      <trkpt lat="43.46224" lon="2.38069">
        <ele>617.529</ele>
        <time>2021-05-23T13:10:50Z</time>
      </trkpt>
      <trkpt lat="43.46226" lon="2.38068">
        <ele>617.389</ele>
        <time>2021-05-23T13:10:52Z</time>
      </trkpt>
      <trkpt lat="43.46229" lon="2.38066">
        <ele>616.852</ele>
        <time>2021-05-23T13:10:54Z</time>
      </trkpt>
      <trkpt lat="43.46231" lon="2.38065">
        <ele>616.22</ele>
        <time>2021-05-23T13:10:56Z</time>
      </trkpt>
      <trkpt lat="43.46234" lon="2.38064">
        <ele>616.868</ele>
        <time>2021-05-23T13:10:58Z</time>
      </trkpt>
      <trkpt lat="43.46237" lon="2.38063">
        <ele>617.339</ele>
        <time>2021-05-23T13:11:00Z</time>
      </trkpt>
      <trkpt lat="43.46239" lon="2.38063">
        <ele>617.588</ele>
        <time>2021-05-23T13:11:02Z</time>
      </trkpt>
      <trkpt lat="43.46243" lon="2.38063">
        <ele>616.605</ele>
        <time>2021-05-23T13:11:04Z</time>
      </trkpt>
      <trkpt lat="43.46246" lon="2.38063">
        <ele>615.689</ele>
        <time>2021-05-23T13:11:06Z</time>
      </trkpt>
      <trkpt lat="43.46249" lon="2.38062">
        <ele>616.576</ele>
        <time>2021-05-23T13:11:08Z</time>
      </trkpt>
      <trkpt lat="43.46252" lon="2.38061">
        <ele>617.029</ele>
        <time>2021-05-23T13:11:10Z</time>
      </trkpt>
      <trkpt lat="43.46253" lon="2.38061">
        <ele>618.529</ele>
        <time>2021-05-23T13:11:12Z</time>
      </trkpt>
      <trkpt lat="43.46256" lon="2.38062">
        <ele>618.848</ele>
        <time>2021-05-23T13:11:14Z</time>
      </trkpt>
      <trkpt lat="43.46258" lon="2.38063">
        <ele>619.609</ele>
        <time>2021-05-23T13:11:16Z</time>
      </trkpt>
      <trkpt lat="43.4626" lon="2.38063">
        <ele>619.144</ele>
        <time>2021-05-23T13:11:18Z</time>
      </trkpt>
      <trkpt lat="43.46263" lon="2.38063">
        <ele>619.661</ele>
        <time>2021-05-23T13:11:20Z</time>
      </trkpt>
      <trkpt lat="43.46265" lon="2.38064">
        <ele>619.618</ele>
        <time>2021-05-23T13:11:22Z</time>
      </trkpt>
      <trkpt lat="43.46267" lon="2.38065">
        <ele>619.527</ele>
        <time>2021-05-23T13:11:24Z</time>
      </trkpt>
      <trkpt lat="43.4627" lon="2.38066">
        <ele>619.23</ele>
        <time>2021-05-23T13:11:26Z</time>
      </trkpt>
      <trkpt lat="43.46272" lon="2.38067">
        <ele>620.639</ele>
        <time>2021-05-23T13:11:28Z</time>
      </trkpt>
      <trkpt lat="43.46275" lon="2.38068">
        <ele>621.763</ele>
        <time>2021-05-23T13:11:30Z</time>
      </trkpt>
      <trkpt lat="43.46277" lon="2.38069">
        <ele>621.698</ele>
        <time>2021-05-23T13:11:32Z</time>
      </trkpt>
      <trkpt lat="43.46279" lon="2.3807">
        <ele>622.627</ele>
        <time>2021-05-23T13:11:34Z</time>
      </trkpt>
      <trkpt lat="43.46282" lon="2.38072">
        <ele>622.748</ele>
        <time>2021-05-23T13:11:36Z</time>
      </trkpt>
      <trkpt lat="43.46283" lon="2.38073">
        <ele>622.733</ele>
        <time>2021-05-23T13:11:38Z</time>
      </trkpt>
      <trkpt lat="43.46286" lon="2.38075">
        <ele>622.612</ele>
        <time>2021-05-23T13:11:40Z</time>
      </trkpt>
      <trkpt lat="43.46288" lon="2.38077">
        <ele>622.636</ele>
        <time>2021-05-23T13:11:42Z</time>
      </trkpt>
      <trkpt lat="43.4629" lon="2.38078">
        <ele>623.091</ele>
        <time>2021-05-23T13:11:44Z</time>
      </trkpt>
      <trkpt lat="43.46293" lon="2.3808">
        <ele>623.171</ele>
        <time>2021-05-23T13:11:46Z</time>
      </trkpt>
      <trkpt lat="43.46295" lon="2.38082">
        <ele>623.772</ele>
        <time>2021-05-23T13:11:48Z</time>
      </trkpt>
      <trkpt lat="43.46296" lon="2.38084">
        <ele>623.612</ele>
        <time>2021-05-23T13:11:50Z</time>
      </trkpt>
      <trkpt lat="43.46298" lon="2.38086">
        <ele>623.891</ele>
        <time>2021-05-23T13:11:52Z</time>
      </trkpt>
      <trkpt lat="43.46301" lon="2.38086">
        <ele>622.989</ele>
        <time>2021-05-23T13:11:54Z</time>
      </trkpt>
      <trkpt lat="43.46303" lon="2.38087">
        <ele>622.556</ele>
        <time>2021-05-23T13:11:56Z</time>
      </trkpt>
      <trkpt lat="43.46304" lon="2.38087">
        <ele>621.793</ele>
        <time>2021-05-23T13:11:58Z</time>
      </trkpt>
      <trkpt lat="43.46305" lon="2.38089">
        <ele>621.542</ele>
        <time>2021-05-23T13:12:00Z</time>
      </trkpt>
      <trkpt lat="43.46305" lon="2.38091">
        <ele>621.09</ele>
        <time>2021-05-23T13:12:02Z</time>
      </trkpt>
      <trkpt lat="43.46306" lon="2.38093">
        <ele>620.223</ele>
        <time>2021-05-23T13:12:04Z</time>
      </trkpt>
      <trkpt lat="43.46308" lon="2.38095">
        <ele>620.048</ele>
        <time>2021-05-23T13:12:06Z</time>
      </trkpt>
      <trkpt lat="43.46309" lon="2.38098">
        <ele>619.746</ele>
        <time>2021-05-23T13:12:08Z</time>
      </trkpt>
      <trkpt lat="43.46311" lon="2.381">
        <ele>618.834</ele>
        <time>2021-05-23T13:12:10Z</time>
      </trkpt>
      <trkpt lat="43.46312" lon="2.38102">
        <ele>619.242</ele>
        <time>2021-05-23T13:12:12Z</time>
      </trkpt>
      <trkpt lat="43.46314" lon="2.38105">
        <ele>619.568</ele>
        <time>2021-05-23T13:12:14Z</time>
      </trkpt>
      <trkpt lat="43.46315" lon="2.38107">
        <ele>618.796</ele>
        <time>2021-05-23T13:12:16Z</time>
      </trkpt>
      <trkpt lat="43.46316" lon="2.38109">
        <ele>618.311</ele>
        <time>2021-05-23T13:12:18Z</time>
      </trkpt>
      <trkpt lat="43.46317" lon="2.38112">
        <ele>618.807</ele>
        <time>2021-05-23T13:12:20Z</time>
      </trkpt>
      <trkpt lat="43.46319" lon="2.38114">
        <ele>618.864</ele>
        <time>2021-05-23T13:12:22Z</time>
      </trkpt>
      <trkpt lat="43.46321" lon="2.38116">
        <ele>618.552</ele>
        <time>2021-05-23T13:12:24Z</time>
      </trkpt>
      <trkpt lat="43.46322" lon="2.38118">
        <ele>619.526</ele>
        <time>2021-05-23T13:12:26Z</time>
      </trkpt>
      <trkpt lat="43.46324" lon="2.3812">
        <ele>618.676</ele>
        <time>2021-05-23T13:12:28Z</time>
      </trkpt>
      <trkpt lat="43.46325" lon="2.38123">
        <ele>618.158</ele>
        <time>2021-05-23T13:12:30Z</time>
      </trkpt>
      <trkpt lat="43.46326" lon="2.38126">
        <ele>618.107</ele>
        <time>2021-05-23T13:12:32Z</time>
      </trkpt>
      <trkpt lat="43.46327" lon="2.38129">
        <ele>618.413</ele>
        <time>2021-05-23T13:12:34Z</time>
      </trkpt>
      <trkpt lat="43.46328" lon="2.38133">
        <ele>619.447</ele>
        <time>2021-05-23T13:12:36Z</time>
      </trkpt>
      <trkpt lat="43.46329" lon="2.38136">
        <ele>619.209</ele>
        <time>2021-05-23T13:12:38Z</time>
      </trkpt>
      <trkpt lat="43.4633" lon="2.38139">
        <ele>618.817</ele>
        <time>2021-05-23T13:12:40Z</time>
      </trkpt>
      <trkpt lat="43.46332" lon="2.38142">
        <ele>618.525</ele>
        <time>2021-05-23T13:12:42Z</time>
      </trkpt>
      <trkpt lat="43.46333" lon="2.38144">
        <ele>617.946</ele>
        <time>2021-05-23T13:12:44Z</time>
      </trkpt>
      <trkpt lat="43.46334" lon="2.38147">
        <ele>617.196</ele>
        <time>2021-05-23T13:12:46Z</time>
      </trkpt>
      <trkpt lat="43.46335" lon="2.3815">
        <ele>617.19</ele>
        <time>2021-05-23T13:12:48Z</time>
      </trkpt>
      <trkpt lat="43.46336" lon="2.38153">
        <ele>617.083</ele>
        <time>2021-05-23T13:12:50Z</time>
      </trkpt>
      <trkpt lat="43.46337" lon="2.38156">
        <ele>616.475</ele>
        <time>2021-05-23T13:12:52Z</time>
      </trkpt>
      <trkpt lat="43.46338" lon="2.38159">
        <ele>616.663</ele>
        <time>2021-05-23T13:12:54Z</time>
      </trkpt>
      <trkpt lat="43.46339" lon="2.38162">
        <ele>616.274</ele>
        <time>2021-05-23T13:12:56Z</time>
      </trkpt>
      <trkpt lat="43.4634" lon="2.38165">
        <ele>616.117</ele>
        <time>2021-05-23T13:12:58Z</time>
      </trkpt>
      <trkpt lat="43.46341" lon="2.38168">
        <ele>616.569</ele>
        <time>2021-05-23T13:13:00Z</time>
      </trkpt>
      <trkpt lat="43.46342" lon="2.38171">
        <ele>618.3</ele>
        <time>2021-05-23T13:13:02Z</time>
      </trkpt>
      <trkpt lat="43.46342" lon="2.3817">
        <ele>616.623</ele>
        <time>2021-05-23T13:13:04Z</time>
      </trkpt>
      <trkpt lat="43.46342" lon="2.3817">
        <ele>616.625</ele>
        <time>2021-05-23T13:13:06Z</time>
      </trkpt>
      <trkpt lat="43.46342" lon="2.3817">
        <ele>616.622</ele>
        <time>2021-05-23T13:13:08Z</time>
      </trkpt>
      <trkpt lat="43.46342" lon="2.3817">
        <ele>616.622</ele>
        <time>2021-05-23T13:13:10Z</time>
      </trkpt>
      <trkpt lat="43.46342" lon="2.3817">
        <ele>616.623</ele>
        <time>2021-05-23T13:13:12Z</time>
      </trkpt>
      <trkpt lat="43.46342" lon="2.3817">
        <ele>616.624</ele>
        <time>2021-05-23T13:13:14Z</time>
      </trkpt>
      <trkpt lat="43.46342" lon="2.3817">
        <ele>616.626</ele>
        <time>2021-05-23T13:13:16Z</time>
      </trkpt>
      <trkpt lat="43.46342" lon="2.3817">
        <ele>616.586</ele>
        <time>2021-05-23T13:13:18Z</time>
      </trkpt>
      <trkpt lat="43.46343" lon="2.3817">
        <ele>616.984</ele>
        <time>2021-05-23T13:13:20Z</time>
      </trkpt>
      <trkpt lat="43.46345" lon="2.38171">
        <ele>616.248</ele>
        <time>2021-05-23T13:13:22Z</time>
      </trkpt>
      <trkpt lat="43.46346" lon="2.38174">
        <ele>616.614</ele>
        <time>2021-05-23T13:13:24Z</time>
      </trkpt>
      <trkpt lat="43.46347" lon="2.38177">
        <ele>617.379</ele>
        <time>2021-05-23T13:13:26Z</time>
      </trkpt>
      <trkpt lat="43.46348" lon="2.38179">
        <ele>618.013</ele>
        <time>2021-05-23T13:13:28Z</time>
      </trkpt>
      <trkpt lat="43.4635" lon="2.38175">
        <ele>615.636</ele>
        <time>2021-05-23T13:13:30Z</time>
      </trkpt>
      <trkpt lat="43.4635" lon="2.38175">
        <ele>615.648</ele>
        <time>2021-05-23T13:13:32Z</time>
      </trkpt>
      <trkpt lat="43.4635" lon="2.38176">
        <ele>616.285</ele>
        <time>2021-05-23T13:13:34Z</time>
      </trkpt>
      <trkpt lat="43.4635" lon="2.38177">
        <ele>616.623</ele>
        <time>2021-05-23T13:13:36Z</time>
      </trkpt>
      <trkpt lat="43.4635" lon="2.38177">
        <ele>616.59</ele>
        <time>2021-05-23T13:13:38Z</time>
      </trkpt>
      <trkpt lat="43.4635" lon="2.38177">
        <ele>616.579</ele>
        <time>2021-05-23T13:13:40Z</time>
      </trkpt>
      <trkpt lat="43.4635" lon="2.38177">
        <ele>616.571</ele>
        <time>2021-05-23T13:13:42Z</time>
      </trkpt>
      <trkpt lat="43.4635" lon="2.38177">
        <ele>616.564</ele>
        <time>2021-05-23T13:13:44Z</time>
      </trkpt>
      <trkpt lat="43.46349" lon="2.38181">
        <ele>617.676</ele>
        <time>2021-05-23T13:13:46Z</time>
      </trkpt>
      <trkpt lat="43.4635" lon="2.38183">
        <ele>617.297</ele>
        <time>2021-05-23T13:13:48Z</time>
      </trkpt>
      <trkpt lat="43.46351" lon="2.38185">
        <ele>616.852</ele>
        <time>2021-05-23T13:13:50Z</time>
      </trkpt>
      <trkpt lat="43.46352" lon="2.38187">
        <ele>617.277</ele>
        <time>2021-05-23T13:13:52Z</time>
      </trkpt>
      <trkpt lat="43.46354" lon="2.38189">
        <ele>617.859</ele>
        <time>2021-05-23T13:13:54Z</time>
      </trkpt>
      <trkpt lat="43.46357" lon="2.38191">
        <ele>617.442</ele>
        <time>2021-05-23T13:13:56Z</time>
      </trkpt>
      <trkpt lat="43.46359" lon="2.38192">
        <ele>617.624</ele>
        <time>2021-05-23T13:13:58Z</time>
      </trkpt>
      <trkpt lat="43.46362" lon="2.38193">
        <ele>618</ele>
        <time>2021-05-23T13:14:00Z</time>
      </trkpt>
      <trkpt lat="43.46364" lon="2.38194">
        <ele>619.297</ele>
        <time>2021-05-23T13:14:02Z</time>
      </trkpt>
      <trkpt lat="43.46367" lon="2.38194">
        <ele>619.014</ele>
        <time>2021-05-23T13:14:04Z</time>
      </trkpt>
      <trkpt lat="43.46369" lon="2.38193">
        <ele>619.031</ele>
        <time>2021-05-23T13:14:06Z</time>
      </trkpt>
      <trkpt lat="43.46372" lon="2.38192">
        <ele>618.857</ele>
        <time>2021-05-23T13:14:08Z</time>
      </trkpt>
      <trkpt lat="43.46375" lon="2.38192">
        <ele>618.745</ele>
        <time>2021-05-23T13:14:10Z</time>
      </trkpt>
      <trkpt lat="43.46377" lon="2.38191">
        <ele>618.842</ele>
        <time>2021-05-23T13:14:12Z</time>
      </trkpt>
      <trkpt lat="43.46379" lon="2.38191">
        <ele>619.133</ele>
        <time>2021-05-23T13:14:14Z</time>
      </trkpt>
      <trkpt lat="43.46381" lon="2.38191">
        <ele>620.013</ele>
        <time>2021-05-23T13:14:16Z</time>
      </trkpt>
      <trkpt lat="43.46384" lon="2.38192">
        <ele>620.077</ele>
        <time>2021-05-23T13:14:18Z</time>
      </trkpt>
      <trkpt lat="43.46387" lon="2.38193">
        <ele>619.992</ele>
        <time>2021-05-23T13:14:20Z</time>
      </trkpt>
      <trkpt lat="43.4639" lon="2.38195">
        <ele>619.696</ele>
        <time>2021-05-23T13:14:22Z</time>
      </trkpt>
      <trkpt lat="43.46392" lon="2.38196">
        <ele>619.463</ele>
        <time>2021-05-23T13:14:24Z</time>
      </trkpt>
      <trkpt lat="43.46394" lon="2.38198">
        <ele>620.407</ele>
        <time>2021-05-23T13:14:26Z</time>
      </trkpt>
      <trkpt lat="43.46396" lon="2.38201">
        <ele>620.542</ele>
        <time>2021-05-23T13:14:28Z</time>
      </trkpt>
      <trkpt lat="43.46398" lon="2.38203">
        <ele>620.487</ele>
        <time>2021-05-23T13:14:30Z</time>
      </trkpt>
      <trkpt lat="43.464" lon="2.38205">
        <ele>621.139</ele>
        <time>2021-05-23T13:14:32Z</time>
      </trkpt>
      <trkpt lat="43.46401" lon="2.38208">
        <ele>621.253</ele>
        <time>2021-05-23T13:14:34Z</time>
      </trkpt>
      <trkpt lat="43.46403" lon="2.3821">
        <ele>621.048</ele>
        <time>2021-05-23T13:14:36Z</time>
      </trkpt>
      <trkpt lat="43.46404" lon="2.38213">
        <ele>621.345</ele>
        <time>2021-05-23T13:14:38Z</time>
      </trkpt>
      <trkpt lat="43.46406" lon="2.38216">
        <ele>621.229</ele>
        <time>2021-05-23T13:14:40Z</time>
      </trkpt>
      <trkpt lat="43.46408" lon="2.38218">
        <ele>621.147</ele>
        <time>2021-05-23T13:14:42Z</time>
      </trkpt>
      <trkpt lat="43.4641" lon="2.38221">
        <ele>620.374</ele>
        <time>2021-05-23T13:14:44Z</time>
      </trkpt>
      <trkpt lat="43.46412" lon="2.38223">
        <ele>620.417</ele>
        <time>2021-05-23T13:14:46Z</time>
      </trkpt>
      <trkpt lat="43.46414" lon="2.38225">
        <ele>619.649</ele>
        <time>2021-05-23T13:14:48Z</time>
      </trkpt>
      <trkpt lat="43.46415" lon="2.38228">
        <ele>619.014</ele>
        <time>2021-05-23T13:14:50Z</time>
      </trkpt>
      <trkpt lat="43.46417" lon="2.3823">
        <ele>618.478</ele>
        <time>2021-05-23T13:14:52Z</time>
      </trkpt>
      <trkpt lat="43.46418" lon="2.38233">
        <ele>617.576</ele>
        <time>2021-05-23T13:14:54Z</time>
      </trkpt>
      <trkpt lat="43.4642" lon="2.38236">
        <ele>617.102</ele>
        <time>2021-05-23T13:14:56Z</time>
      </trkpt>
      <trkpt lat="43.46421" lon="2.38239">
        <ele>616.835</ele>
        <time>2021-05-23T13:14:58Z</time>
      </trkpt>
      <trkpt lat="43.46423" lon="2.38242">
        <ele>616.684</ele>
        <time>2021-05-23T13:15:00Z</time>
      </trkpt>
      <trkpt lat="43.46424" lon="2.38245">
        <ele>616.55</ele>
        <time>2021-05-23T13:15:02Z</time>
      </trkpt>
      <trkpt lat="43.46426" lon="2.38248">
        <ele>616.659</ele>
        <time>2021-05-23T13:15:04Z</time>
      </trkpt>
      <trkpt lat="43.46427" lon="2.38251">
        <ele>615.154</ele>
        <time>2021-05-23T13:15:06Z</time>
      </trkpt>
      <trkpt lat="43.46428" lon="2.38254">
        <ele>615.268</ele>
        <time>2021-05-23T13:15:08Z</time>
      </trkpt>
      <trkpt lat="43.4643" lon="2.38257">
        <ele>614.814</ele>
        <time>2021-05-23T13:15:10Z</time>
      </trkpt>
      <trkpt lat="43.4643" lon="2.38261">
        <ele>614.862</ele>
        <time>2021-05-23T13:15:12Z</time>
      </trkpt>
      <trkpt lat="43.46432" lon="2.38264">
        <ele>614.348</ele>
        <time>2021-05-23T13:15:14Z</time>
      </trkpt>
      <trkpt lat="43.46433" lon="2.38268">
        <ele>613.846</ele>
        <time>2021-05-23T13:15:16Z</time>
      </trkpt>
      <trkpt lat="43.46434" lon="2.38271">
        <ele>613.415</ele>
        <time>2021-05-23T13:15:18Z</time>
      </trkpt>
      <trkpt lat="43.46435" lon="2.38274">
        <ele>613.599</ele>
        <time>2021-05-23T13:15:20Z</time>
      </trkpt>
      <trkpt lat="43.46437" lon="2.38278">
        <ele>613.567</ele>
        <time>2021-05-23T13:15:22Z</time>
      </trkpt>
      <trkpt lat="43.46438" lon="2.38281">
        <ele>613.152</ele>
        <time>2021-05-23T13:15:24Z</time>
      </trkpt>
      <trkpt lat="43.46439" lon="2.38285">
        <ele>613.097</ele>
        <time>2021-05-23T13:15:26Z</time>
      </trkpt>
      <trkpt lat="43.46441" lon="2.38287">
        <ele>612.422</ele>
        <time>2021-05-23T13:15:28Z</time>
      </trkpt>
      <trkpt lat="43.46443" lon="2.38291">
        <ele>612.381</ele>
        <time>2021-05-23T13:15:30Z</time>
      </trkpt>
      <trkpt lat="43.46445" lon="2.38293">
        <ele>611.211</ele>
        <time>2021-05-23T13:15:32Z</time>
      </trkpt>
      <trkpt lat="43.46447" lon="2.38295">
        <ele>610.383</ele>
        <time>2021-05-23T13:15:34Z</time>
      </trkpt>
      <trkpt lat="43.46449" lon="2.38297">
        <ele>609.919</ele>
        <time>2021-05-23T13:15:36Z</time>
      </trkpt>
      <trkpt lat="43.46452" lon="2.38299">
        <ele>609.804</ele>
        <time>2021-05-23T13:15:38Z</time>
      </trkpt>
      <trkpt lat="43.46454" lon="2.38301">
        <ele>609.249</ele>
        <time>2021-05-23T13:15:40Z</time>
      </trkpt>
      <trkpt lat="43.46457" lon="2.38302">
        <ele>609.059</ele>
        <time>2021-05-23T13:15:42Z</time>
      </trkpt>
      <trkpt lat="43.46459" lon="2.38304">
        <ele>608.142</ele>
        <time>2021-05-23T13:15:44Z</time>
      </trkpt>
      <trkpt lat="43.46462" lon="2.38305">
        <ele>607.481</ele>
        <time>2021-05-23T13:15:46Z</time>
      </trkpt>
      <trkpt lat="43.46465" lon="2.38306">
        <ele>606.29</ele>
        <time>2021-05-23T13:15:48Z</time>
      </trkpt>
      <trkpt lat="43.46467" lon="2.38307">
        <ele>606.251</ele>
        <time>2021-05-23T13:15:50Z</time>
      </trkpt>
      <trkpt lat="43.4647" lon="2.38308">
        <ele>606.2</ele>
        <time>2021-05-23T13:15:52Z</time>
      </trkpt>
      <trkpt lat="43.46473" lon="2.38309">
        <ele>606.086</ele>
        <time>2021-05-23T13:15:54Z</time>
      </trkpt>
      <trkpt lat="43.46475" lon="2.38311">
        <ele>606.76</ele>
        <time>2021-05-23T13:15:56Z</time>
      </trkpt>
      <trkpt lat="43.46478" lon="2.38312">
        <ele>606.588</ele>
        <time>2021-05-23T13:15:58Z</time>
      </trkpt>
      <trkpt lat="43.4648" lon="2.38313">
        <ele>606.266</ele>
        <time>2021-05-23T13:16:00Z</time>
      </trkpt>
      <trkpt lat="43.46483" lon="2.38315">
        <ele>606.311</ele>
        <time>2021-05-23T13:16:02Z</time>
      </trkpt>
      <trkpt lat="43.46486" lon="2.38317">
        <ele>606.887</ele>
        <time>2021-05-23T13:16:04Z</time>
      </trkpt>
      <trkpt lat="43.46488" lon="2.38318">
        <ele>606.072</ele>
        <time>2021-05-23T13:16:06Z</time>
      </trkpt>
      <trkpt lat="43.46491" lon="2.38319">
        <ele>606.244</ele>
        <time>2021-05-23T13:16:08Z</time>
      </trkpt>
      <trkpt lat="43.46494" lon="2.38321">
        <ele>605.702</ele>
        <time>2021-05-23T13:16:10Z</time>
      </trkpt>
      <trkpt lat="43.46497" lon="2.38323">
        <ele>605.405</ele>
        <time>2021-05-23T13:16:12Z</time>
      </trkpt>
      <trkpt lat="43.46499" lon="2.38324">
        <ele>605.328</ele>
        <time>2021-05-23T13:16:14Z</time>
      </trkpt>
      <trkpt lat="43.46502" lon="2.38325">
        <ele>605.61</ele>
        <time>2021-05-23T13:16:16Z</time>
      </trkpt>
      <trkpt lat="43.46505" lon="2.38326">
        <ele>605.816</ele>
        <time>2021-05-23T13:16:18Z</time>
      </trkpt>
      <trkpt lat="43.46508" lon="2.38326">
        <ele>605.757</ele>
        <time>2021-05-23T13:16:20Z</time>
      </trkpt>
      <trkpt lat="43.4651" lon="2.38328">
        <ele>605.781</ele>
        <time>2021-05-23T13:16:22Z</time>
      </trkpt>
      <trkpt lat="43.46513" lon="2.38329">
        <ele>605.243</ele>
        <time>2021-05-23T13:16:24Z</time>
      </trkpt>
      <trkpt lat="43.46515" lon="2.3833">
        <ele>605.279</ele>
        <time>2021-05-23T13:16:26Z</time>
      </trkpt>
      <trkpt lat="43.46518" lon="2.38331">
        <ele>605.418</ele>
        <time>2021-05-23T13:16:28Z</time>
      </trkpt>
      <trkpt lat="43.46521" lon="2.38333">
        <ele>605.407</ele>
        <time>2021-05-23T13:16:30Z</time>
      </trkpt>
      <trkpt lat="43.46523" lon="2.38334">
        <ele>605.161</ele>
        <time>2021-05-23T13:16:32Z</time>
      </trkpt>
      <trkpt lat="43.46526" lon="2.38335">
        <ele>604.601</ele>
        <time>2021-05-23T13:16:34Z</time>
      </trkpt>
      <trkpt lat="43.46529" lon="2.38336">
        <ele>603.666</ele>
        <time>2021-05-23T13:16:36Z</time>
      </trkpt>
      <trkpt lat="43.46532" lon="2.38338">
        <ele>603.711</ele>
        <time>2021-05-23T13:16:38Z</time>
      </trkpt>
      <trkpt lat="43.46534" lon="2.38338">
        <ele>603.546</ele>
        <time>2021-05-23T13:16:40Z</time>
      </trkpt>
      <trkpt lat="43.46537" lon="2.38339">
        <ele>603.555</ele>
        <time>2021-05-23T13:16:42Z</time>
      </trkpt>
      <trkpt lat="43.4654" lon="2.38339">
        <ele>603.677</ele>
        <time>2021-05-23T13:16:44Z</time>
      </trkpt>
      <trkpt lat="43.46542" lon="2.38341">
        <ele>603.291</ele>
        <time>2021-05-23T13:16:46Z</time>
      </trkpt>
      <trkpt lat="43.46545" lon="2.38342">
        <ele>602.803</ele>
        <time>2021-05-23T13:16:48Z</time>
      </trkpt>
      <trkpt lat="43.46547" lon="2.38343">
        <ele>602.816</ele>
        <time>2021-05-23T13:16:50Z</time>
      </trkpt>
      <trkpt lat="43.4655" lon="2.38344">
        <ele>602.921</ele>
        <time>2021-05-23T13:16:52Z</time>
      </trkpt>
      <trkpt lat="43.46552" lon="2.38345">
        <ele>603.264</ele>
        <time>2021-05-23T13:16:54Z</time>
      </trkpt>
      <trkpt lat="43.46554" lon="2.38346">
        <ele>603.834</ele>
        <time>2021-05-23T13:16:56Z</time>
      </trkpt>
      <trkpt lat="43.46556" lon="2.38347">
        <ele>604.026</ele>
        <time>2021-05-23T13:16:58Z</time>
      </trkpt>
      <trkpt lat="43.46557" lon="2.38348">
        <ele>604.176</ele>
        <time>2021-05-23T13:17:00Z</time>
      </trkpt>
      <trkpt lat="43.46559" lon="2.38349">
        <ele>603.311</ele>
        <time>2021-05-23T13:17:02Z</time>
      </trkpt>
      <trkpt lat="43.46561" lon="2.38349">
        <ele>603.151</ele>
        <time>2021-05-23T13:17:04Z</time>
      </trkpt>
      <trkpt lat="43.46564" lon="2.38351">
        <ele>602.241</ele>
        <time>2021-05-23T13:17:06Z</time>
      </trkpt>
      <trkpt lat="43.46566" lon="2.38352">
        <ele>602.072</ele>
        <time>2021-05-23T13:17:08Z</time>
      </trkpt>
      <trkpt lat="43.46568" lon="2.38353">
        <ele>602.546</ele>
        <time>2021-05-23T13:17:10Z</time>
      </trkpt>
      <trkpt lat="43.46571" lon="2.38355">
        <ele>602.034</ele>
        <time>2021-05-23T13:17:12Z</time>
      </trkpt>
      <trkpt lat="43.46573" lon="2.38357">
        <ele>601.098</ele>
        <time>2021-05-23T13:17:14Z</time>
      </trkpt>
      <trkpt lat="43.46575" lon="2.38358">
        <ele>601.409</ele>
        <time>2021-05-23T13:17:16Z</time>
      </trkpt>
      <trkpt lat="43.46578" lon="2.3836">
        <ele>601.044</ele>
        <time>2021-05-23T13:17:18Z</time>
      </trkpt>
      <trkpt lat="43.4658" lon="2.38362">
        <ele>600.913</ele>
        <time>2021-05-23T13:17:20Z</time>
      </trkpt>
      <trkpt lat="43.46582" lon="2.38364">
        <ele>600.55</ele>
        <time>2021-05-23T13:17:22Z</time>
      </trkpt>
      <trkpt lat="43.46585" lon="2.38366">
        <ele>600.108</ele>
        <time>2021-05-23T13:17:24Z</time>
      </trkpt>
      <trkpt lat="43.46587" lon="2.38368">
        <ele>600.161</ele>
        <time>2021-05-23T13:17:26Z</time>
      </trkpt>
      <trkpt lat="43.4659" lon="2.3837">
        <ele>599.86</ele>
        <time>2021-05-23T13:17:28Z</time>
      </trkpt>
      <trkpt lat="43.46592" lon="2.38372">
        <ele>599.393</ele>
        <time>2021-05-23T13:17:30Z</time>
      </trkpt>
      <trkpt lat="43.46594" lon="2.38374">
        <ele>599.038</ele>
        <time>2021-05-23T13:17:32Z</time>
      </trkpt>
      <trkpt lat="43.46597" lon="2.38375">
        <ele>598.69</ele>
        <time>2021-05-23T13:17:34Z</time>
      </trkpt>
      <trkpt lat="43.46599" lon="2.38377">
        <ele>598.615</ele>
        <time>2021-05-23T13:17:36Z</time>
      </trkpt>
      <trkpt lat="43.46601" lon="2.38378">
        <ele>598.335</ele>
        <time>2021-05-23T13:17:38Z</time>
      </trkpt>
      <trkpt lat="43.46604" lon="2.3838">
        <ele>597.993</ele>
        <time>2021-05-23T13:17:40Z</time>
      </trkpt>
      <trkpt lat="43.46606" lon="2.38382">
        <ele>598.051</ele>
        <time>2021-05-23T13:17:42Z</time>
      </trkpt>
      <trkpt lat="43.46608" lon="2.38384">
        <ele>597.842</ele>
        <time>2021-05-23T13:17:44Z</time>
      </trkpt>
      <trkpt lat="43.46611" lon="2.38386">
        <ele>597.77</ele>
        <time>2021-05-23T13:17:46Z</time>
      </trkpt>
      <trkpt lat="43.46613" lon="2.38388">
        <ele>597.653</ele>
        <time>2021-05-23T13:17:48Z</time>
      </trkpt>
      <trkpt lat="43.46616" lon="2.3839">
        <ele>597.477</ele>
        <time>2021-05-23T13:17:50Z</time>
      </trkpt>
      <trkpt lat="43.46618" lon="2.38391">
        <ele>597.322</ele>
        <time>2021-05-23T13:17:52Z</time>
      </trkpt>
      <trkpt lat="43.46621" lon="2.38393">
        <ele>597.268</ele>
        <time>2021-05-23T13:17:54Z</time>
      </trkpt>
      <trkpt lat="43.46624" lon="2.38395">
        <ele>596.988</ele>
        <time>2021-05-23T13:17:56Z</time>
      </trkpt>
      <trkpt lat="43.46626" lon="2.38397">
        <ele>596.416</ele>
        <time>2021-05-23T13:17:58Z</time>
      </trkpt>
      <trkpt lat="43.46629" lon="2.38399">
        <ele>595.891</ele>
        <time>2021-05-23T13:18:00Z</time>
      </trkpt>
      <trkpt lat="43.46632" lon="2.38401">
        <ele>595.159</ele>
        <time>2021-05-23T13:18:02Z</time>
      </trkpt>
      <trkpt lat="43.46634" lon="2.38403">
        <ele>595.071</ele>
        <time>2021-05-23T13:18:04Z</time>
      </trkpt>
      <trkpt lat="43.46637" lon="2.38405">
        <ele>595.061</ele>
        <time>2021-05-23T13:18:06Z</time>
      </trkpt>
      <trkpt lat="43.46639" lon="2.38407">
        <ele>595.61</ele>
        <time>2021-05-23T13:18:08Z</time>
      </trkpt>
      <trkpt lat="43.46642" lon="2.38409">
        <ele>595.588</ele>
        <time>2021-05-23T13:18:10Z</time>
      </trkpt>
      <trkpt lat="43.46644" lon="2.38411">
        <ele>595.272</ele>
        <time>2021-05-23T13:18:12Z</time>
      </trkpt>
      <trkpt lat="43.46647" lon="2.38413">
        <ele>595.185</ele>
        <time>2021-05-23T13:18:14Z</time>
      </trkpt>
      <trkpt lat="43.46649" lon="2.38415">
        <ele>595.071</ele>
        <time>2021-05-23T13:18:16Z</time>
      </trkpt>
      <trkpt lat="43.46651" lon="2.38417">
        <ele>594.561</ele>
        <time>2021-05-23T13:18:18Z</time>
      </trkpt>
      <trkpt lat="43.46653" lon="2.38419">
        <ele>593.412</ele>
        <time>2021-05-23T13:18:20Z</time>
      </trkpt>
      <trkpt lat="43.46655" lon="2.38422">
        <ele>593.548</ele>
        <time>2021-05-23T13:18:22Z</time>
      </trkpt>
      <trkpt lat="43.46657" lon="2.38425">
        <ele>593.347</ele>
        <time>2021-05-23T13:18:24Z</time>
      </trkpt>
      <trkpt lat="43.46659" lon="2.38428">
        <ele>592.962</ele>
        <time>2021-05-23T13:18:26Z</time>
      </trkpt>
      <trkpt lat="43.46661" lon="2.3843">
        <ele>592.221</ele>
        <time>2021-05-23T13:18:28Z</time>
      </trkpt>
      <trkpt lat="43.46663" lon="2.38434">
        <ele>592.654</ele>
        <time>2021-05-23T13:18:30Z</time>
      </trkpt>
      <trkpt lat="43.46664" lon="2.38437">
        <ele>592.857</ele>
        <time>2021-05-23T13:18:32Z</time>
      </trkpt>
      <trkpt lat="43.46666" lon="2.3844">
        <ele>592.451</ele>
        <time>2021-05-23T13:18:34Z</time>
      </trkpt>
      <trkpt lat="43.46668" lon="2.38443">
        <ele>592.084</ele>
        <time>2021-05-23T13:18:36Z</time>
      </trkpt>
      <trkpt lat="43.4667" lon="2.38446">
        <ele>591.293</ele>
        <time>2021-05-23T13:18:38Z</time>
      </trkpt>
      <trkpt lat="43.46671" lon="2.38449">
        <ele>591.724</ele>
        <time>2021-05-23T13:18:40Z</time>
      </trkpt>
      <trkpt lat="43.46673" lon="2.38452">
        <ele>591.776</ele>
        <time>2021-05-23T13:18:42Z</time>
      </trkpt>
      <trkpt lat="43.46675" lon="2.38455">
        <ele>591.208</ele>
        <time>2021-05-23T13:18:44Z</time>
      </trkpt>
      <trkpt lat="43.46677" lon="2.38458">
        <ele>591.161</ele>
        <time>2021-05-23T13:18:46Z</time>
      </trkpt>
      <trkpt lat="43.46679" lon="2.3846">
        <ele>591.073</ele>
        <time>2021-05-23T13:18:48Z</time>
      </trkpt>
      <trkpt lat="43.4668" lon="2.38463">
        <ele>591.387</ele>
        <time>2021-05-23T13:18:50Z</time>
      </trkpt>
      <trkpt lat="43.46682" lon="2.38466">
        <ele>591.008</ele>
        <time>2021-05-23T13:18:52Z</time>
      </trkpt>
      <trkpt lat="43.46684" lon="2.38469">
        <ele>590.037</ele>
        <time>2021-05-23T13:18:54Z</time>
      </trkpt>
      <trkpt lat="43.46686" lon="2.38471">
        <ele>589.536</ele>
        <time>2021-05-23T13:18:56Z</time>
      </trkpt>
      <trkpt lat="43.46689" lon="2.38473">
        <ele>589.323</ele>
        <time>2021-05-23T13:18:58Z</time>
      </trkpt>
      <trkpt lat="43.46691" lon="2.38475">
        <ele>589.36</ele>
        <time>2021-05-23T13:19:00Z</time>
      </trkpt>
      <trkpt lat="43.46693" lon="2.38477">
        <ele>589.396</ele>
        <time>2021-05-23T13:19:02Z</time>
      </trkpt>
      <trkpt lat="43.46696" lon="2.38478">
        <ele>588.546</ele>
        <time>2021-05-23T13:19:04Z</time>
      </trkpt>
      <trkpt lat="43.46698" lon="2.3848">
        <ele>588.612</ele>
        <time>2021-05-23T13:19:06Z</time>
      </trkpt>
      <trkpt lat="43.46701" lon="2.38481">
        <ele>588.74</ele>
        <time>2021-05-23T13:19:08Z</time>
      </trkpt>
      <trkpt lat="43.46703" lon="2.38483">
        <ele>588.775</ele>
        <time>2021-05-23T13:19:10Z</time>
      </trkpt>
      <trkpt lat="43.46705" lon="2.38484">
        <ele>589.132</ele>
        <time>2021-05-23T13:19:12Z</time>
      </trkpt>
      <trkpt lat="43.46707" lon="2.38486">
        <ele>589.497</ele>
        <time>2021-05-23T13:19:14Z</time>
      </trkpt>
      <trkpt lat="43.46709" lon="2.38487">
        <ele>589.867</ele>
        <time>2021-05-23T13:19:16Z</time>
      </trkpt>
      <trkpt lat="43.46712" lon="2.38488">
        <ele>590.212</ele>
        <time>2021-05-23T13:19:18Z</time>
      </trkpt>
      <trkpt lat="43.46714" lon="2.38489">
        <ele>590.996</ele>
        <time>2021-05-23T13:19:20Z</time>
      </trkpt>
      <trkpt lat="43.46716" lon="2.3849">
        <ele>591.372</ele>
        <time>2021-05-23T13:19:22Z</time>
      </trkpt>
      <trkpt lat="43.46717" lon="2.38493">
        <ele>591.179</ele>
        <time>2021-05-23T13:19:24Z</time>
      </trkpt>
      <trkpt lat="43.46716" lon="2.38496">
        <ele>590.917</ele>
        <time>2021-05-23T13:19:26Z</time>
      </trkpt>
      <trkpt lat="43.46715" lon="2.38498">
        <ele>595.139</ele>
        <time>2021-05-23T13:19:28Z</time>
      </trkpt>
      <trkpt lat="43.46716" lon="2.38495">
        <ele>590.875</ele>
        <time>2021-05-23T13:19:30Z</time>
      </trkpt>
      <trkpt lat="43.46716" lon="2.38495">
        <ele>590.888</ele>
        <time>2021-05-23T13:19:32Z</time>
      </trkpt>
      <trkpt lat="43.46716" lon="2.38494">
        <ele>591.162</ele>
        <time>2021-05-23T13:19:34Z</time>
      </trkpt>
      <trkpt lat="43.46716" lon="2.38494">
        <ele>591.15</ele>
        <time>2021-05-23T13:19:36Z</time>
      </trkpt>
      <trkpt lat="43.46716" lon="2.38494">
        <ele>591.148</ele>
        <time>2021-05-23T13:19:38Z</time>
      </trkpt>
      <trkpt lat="43.46716" lon="2.38494">
        <ele>591.141</ele>
        <time>2021-05-23T13:19:40Z</time>
      </trkpt>
      <trkpt lat="43.46716" lon="2.38494">
        <ele>591.125</ele>
        <time>2021-05-23T13:19:42Z</time>
      </trkpt>
      <trkpt lat="43.46716" lon="2.38494">
        <ele>591.112</ele>
        <time>2021-05-23T13:19:44Z</time>
      </trkpt>
      <trkpt lat="43.46716" lon="2.38494">
        <ele>591.107</ele>
        <time>2021-05-23T13:19:46Z</time>
      </trkpt>
      <trkpt lat="43.46716" lon="2.38494">
        <ele>591.096</ele>
        <time>2021-05-23T13:19:48Z</time>
      </trkpt>
      <trkpt lat="43.46716" lon="2.38494">
        <ele>591.078</ele>
        <time>2021-05-23T13:19:50Z</time>
      </trkpt>
      <trkpt lat="43.46716" lon="2.38494">
        <ele>591.06</ele>
        <time>2021-05-23T13:19:52Z</time>
      </trkpt>
      <trkpt lat="43.46716" lon="2.38494">
        <ele>591.051</ele>
        <time>2021-05-23T13:19:54Z</time>
      </trkpt>
      <trkpt lat="43.46716" lon="2.38494">
        <ele>591.038</ele>
        <time>2021-05-23T13:19:56Z</time>
      </trkpt>
      <trkpt lat="43.46716" lon="2.38494">
        <ele>591.031</ele>
        <time>2021-05-23T13:19:58Z</time>
      </trkpt>
      <trkpt lat="43.46716" lon="2.38494">
        <ele>591.021</ele>
        <time>2021-05-23T13:20:00Z</time>
      </trkpt>
      <trkpt lat="43.46716" lon="2.38494">
        <ele>591.008</ele>
        <time>2021-05-23T13:20:02Z</time>
      </trkpt>
      <trkpt lat="43.46716" lon="2.38494">
        <ele>590.997</ele>
        <time>2021-05-23T13:20:04Z</time>
      </trkpt>
      <trkpt lat="43.46716" lon="2.38494">
        <ele>590.988</ele>
        <time>2021-05-23T13:20:06Z</time>
      </trkpt>
      <trkpt lat="43.46716" lon="2.38494">
        <ele>590.979</ele>
        <time>2021-05-23T13:20:08Z</time>
      </trkpt>
      <trkpt lat="43.46716" lon="2.38494">
        <ele>590.967</ele>
        <time>2021-05-23T13:20:10Z</time>
      </trkpt>
      <trkpt lat="43.46716" lon="2.38494">
        <ele>590.441</ele>
        <time>2021-05-23T13:20:12Z</time>
      </trkpt>
      <trkpt lat="43.46716" lon="2.38494">
        <ele>590.437</ele>
        <time>2021-05-23T13:20:14Z</time>
      </trkpt>
      <trkpt lat="43.46716" lon="2.38494">
        <ele>590.438</ele>
        <time>2021-05-23T13:20:16Z</time>
      </trkpt>
      <trkpt lat="43.46716" lon="2.38494">
        <ele>590.434</ele>
        <time>2021-05-23T13:20:18Z</time>
      </trkpt>
      <trkpt lat="43.46716" lon="2.38494">
        <ele>590.425</ele>
        <time>2021-05-23T13:20:20Z</time>
      </trkpt>
      <trkpt lat="43.46716" lon="2.38494">
        <ele>589.474</ele>
        <time>2021-05-23T13:20:22Z</time>
      </trkpt>
      <trkpt lat="43.46716" lon="2.38493">
        <ele>589.345</ele>
        <time>2021-05-23T13:20:24Z</time>
      </trkpt>
      <trkpt lat="43.46716" lon="2.38491">
        <ele>589.279</ele>
        <time>2021-05-23T13:20:26Z</time>
      </trkpt>
      <trkpt lat="43.46716" lon="2.38491">
        <ele>589.221</ele>
        <time>2021-05-23T13:20:28Z</time>
      </trkpt>
      <trkpt lat="43.46716" lon="2.38491">
        <ele>589.207</ele>
        <time>2021-05-23T13:20:30Z</time>
      </trkpt>
      <trkpt lat="43.46716" lon="2.38491">
        <ele>589.197</ele>
        <time>2021-05-23T13:20:32Z</time>
      </trkpt>
      <trkpt lat="43.46716" lon="2.38491">
        <ele>589.195</ele>
        <time>2021-05-23T13:20:34Z</time>
      </trkpt>
      <trkpt lat="43.46716" lon="2.38491">
        <ele>589.193</ele>
        <time>2021-05-23T13:20:36Z</time>
      </trkpt>
      <trkpt lat="43.46716" lon="2.38491">
        <ele>589.189</ele>
        <time>2021-05-23T13:20:38Z</time>
      </trkpt>
      <trkpt lat="43.46716" lon="2.38491">
        <ele>589.184</ele>
        <time>2021-05-23T13:20:40Z</time>
      </trkpt>
      <trkpt lat="43.46716" lon="2.38491">
        <ele>589.179</ele>
        <time>2021-05-23T13:20:42Z</time>
      </trkpt>
      <trkpt lat="43.46716" lon="2.38491">
        <ele>589.175</ele>
        <time>2021-05-23T13:20:44Z</time>
      </trkpt>
      <trkpt lat="43.46716" lon="2.38491">
        <ele>589.183</ele>
        <time>2021-05-23T13:20:46Z</time>
      </trkpt>
      <trkpt lat="43.46716" lon="2.38491">
        <ele>589.188</ele>
        <time>2021-05-23T13:20:48Z</time>
      </trkpt>
      <trkpt lat="43.46716" lon="2.38491">
        <ele>589.187</ele>
        <time>2021-05-23T13:20:50Z</time>
      </trkpt>
      <trkpt lat="43.46716" lon="2.38491">
        <ele>589.186</ele>
        <time>2021-05-23T13:20:52Z</time>
      </trkpt>
      <trkpt lat="43.46716" lon="2.3849">
        <ele>589.15</ele>
        <time>2021-05-23T13:20:54Z</time>
      </trkpt>
      <trkpt lat="43.46716" lon="2.38488">
        <ele>586.855</ele>
        <time>2021-05-23T13:20:56Z</time>
      </trkpt>
      <trkpt lat="43.46717" lon="2.38489">
        <ele>586.818</ele>
        <time>2021-05-23T13:20:58Z</time>
      </trkpt>
      <trkpt lat="43.46717" lon="2.38489">
        <ele>586.814</ele>
        <time>2021-05-23T13:21:00Z</time>
      </trkpt>
      <trkpt lat="43.46717" lon="2.38489">
        <ele>586.784</ele>
        <time>2021-05-23T13:21:02Z</time>
      </trkpt>
      <trkpt lat="43.46718" lon="2.3849">
        <ele>586.589</ele>
        <time>2021-05-23T13:21:04Z</time>
      </trkpt>
      <trkpt lat="43.46718" lon="2.38491">
        <ele>586.666</ele>
        <time>2021-05-23T13:21:06Z</time>
      </trkpt>
      <trkpt lat="43.46719" lon="2.38493">
        <ele>588.203</ele>
        <time>2021-05-23T13:21:08Z</time>
      </trkpt>
      <trkpt lat="43.46721" lon="2.38495">
        <ele>589.288</ele>
        <time>2021-05-23T13:21:10Z</time>
      </trkpt>
      <trkpt lat="43.46722" lon="2.38496">
        <ele>589.442</ele>
        <time>2021-05-23T13:21:12Z</time>
      </trkpt>
      <trkpt lat="43.46724" lon="2.38496">
        <ele>589.514</ele>
        <time>2021-05-23T13:21:14Z</time>
      </trkpt>
      <trkpt lat="43.46726" lon="2.38497">
        <ele>588.813</ele>
        <time>2021-05-23T13:21:16Z</time>
      </trkpt>
      <trkpt lat="43.46728" lon="2.38498">
        <ele>588.946</ele>
        <time>2021-05-23T13:21:18Z</time>
      </trkpt>
      <trkpt lat="43.46729" lon="2.38498">
        <ele>589.168</ele>
        <time>2021-05-23T13:21:20Z</time>
      </trkpt>
      <trkpt lat="43.46731" lon="2.38498">
        <ele>588.222</ele>
        <time>2021-05-23T13:21:22Z</time>
      </trkpt>
      <trkpt lat="43.46733" lon="2.38498">
        <ele>587.193</ele>
        <time>2021-05-23T13:21:24Z</time>
      </trkpt>
      <trkpt lat="43.46735" lon="2.38499">
        <ele>586.243</ele>
        <time>2021-05-23T13:21:26Z</time>
      </trkpt>
      <trkpt lat="43.46738" lon="2.38498">
        <ele>587.257</ele>
        <time>2021-05-23T13:21:28Z</time>
      </trkpt>
      <trkpt lat="43.46739" lon="2.38497">
        <ele>587.218</ele>
        <time>2021-05-23T13:21:30Z</time>
      </trkpt>
      <trkpt lat="43.46742" lon="2.38495">
        <ele>584.983</ele>
        <time>2021-05-23T13:21:32Z</time>
      </trkpt>
      <trkpt lat="43.46743" lon="2.38494">
        <ele>583.531</ele>
        <time>2021-05-23T13:21:34Z</time>
      </trkpt>
      <trkpt lat="43.46745" lon="2.38493">
        <ele>582.701</ele>
        <time>2021-05-23T13:21:36Z</time>
      </trkpt>
      <trkpt lat="43.46747" lon="2.38492">
        <ele>582.273</ele>
        <time>2021-05-23T13:21:38Z</time>
      </trkpt>
      <trkpt lat="43.46748" lon="2.38491">
        <ele>583.337</ele>
        <time>2021-05-23T13:21:40Z</time>
      </trkpt>
      <trkpt lat="43.4675" lon="2.3849">
        <ele>584.564</ele>
        <time>2021-05-23T13:21:42Z</time>
      </trkpt>
      <trkpt lat="43.46752" lon="2.38489">
        <ele>583.949</ele>
        <time>2021-05-23T13:21:44Z</time>
      </trkpt>
      <trkpt lat="43.46754" lon="2.38487">
        <ele>583.824</ele>
        <time>2021-05-23T13:21:46Z</time>
      </trkpt>
      <trkpt lat="43.46757" lon="2.38486">
        <ele>582.163</ele>
        <time>2021-05-23T13:21:48Z</time>
      </trkpt>
      <trkpt lat="43.4676" lon="2.38488">
        <ele>585.247</ele>
        <time>2021-05-23T13:21:50Z</time>
      </trkpt>
      <trkpt lat="43.46762" lon="2.38489">
        <ele>585.533</ele>
        <time>2021-05-23T13:21:52Z</time>
      </trkpt>
      <trkpt lat="43.46764" lon="2.38489">
        <ele>587.785</ele>
        <time>2021-05-23T13:21:54Z</time>
      </trkpt>
      <trkpt lat="43.46767" lon="2.38489">
        <ele>587.241</ele>
        <time>2021-05-23T13:21:56Z</time>
      </trkpt>
      <trkpt lat="43.4677" lon="2.38492">
        <ele>588.128</ele>
        <time>2021-05-23T13:21:58Z</time>
      </trkpt>
      <trkpt lat="43.46772" lon="2.38493">
        <ele>588.174</ele>
        <time>2021-05-23T13:22:00Z</time>
      </trkpt>
      <trkpt lat="43.46774" lon="2.38496">
        <ele>589.45</ele>
        <time>2021-05-23T13:22:02Z</time>
      </trkpt>
      <trkpt lat="43.46777" lon="2.38496">
        <ele>589.563</ele>
        <time>2021-05-23T13:22:04Z</time>
      </trkpt>
      <trkpt lat="43.4678" lon="2.38497">
        <ele>589.03</ele>
        <time>2021-05-23T13:22:06Z</time>
      </trkpt>
      <trkpt lat="43.46782" lon="2.38497">
        <ele>588.119</ele>
        <time>2021-05-23T13:22:08Z</time>
      </trkpt>
      <trkpt lat="43.46785" lon="2.38498">
        <ele>587.089</ele>
        <time>2021-05-23T13:22:10Z</time>
      </trkpt>
      <trkpt lat="43.46787" lon="2.38499">
        <ele>587.117</ele>
        <time>2021-05-23T13:22:12Z</time>
      </trkpt>
      <trkpt lat="43.4679" lon="2.38499">
        <ele>586.138</ele>
        <time>2021-05-23T13:22:14Z</time>
      </trkpt>
      <trkpt lat="43.46792" lon="2.385">
        <ele>586.079</ele>
        <time>2021-05-23T13:22:16Z</time>
      </trkpt>
      <trkpt lat="43.46795" lon="2.385">
        <ele>585.103</ele>
        <time>2021-05-23T13:22:18Z</time>
      </trkpt>
      <trkpt lat="43.46797" lon="2.385">
        <ele>584.213</ele>
        <time>2021-05-23T13:22:20Z</time>
      </trkpt>
      <trkpt lat="43.46799" lon="2.385">
        <ele>583.643</ele>
        <time>2021-05-23T13:22:22Z</time>
      </trkpt>
      <trkpt lat="43.46802" lon="2.38501">
        <ele>583.286</ele>
        <time>2021-05-23T13:22:24Z</time>
      </trkpt>
      <trkpt lat="43.46804" lon="2.38502">
        <ele>582.9</ele>
        <time>2021-05-23T13:22:26Z</time>
      </trkpt>
      <trkpt lat="43.46806" lon="2.38502">
        <ele>582.508</ele>
        <time>2021-05-23T13:22:28Z</time>
      </trkpt>
      <trkpt lat="43.46809" lon="2.38503">
        <ele>581.119</ele>
        <time>2021-05-23T13:22:30Z</time>
      </trkpt>
      <trkpt lat="43.46812" lon="2.38503">
        <ele>579.845</ele>
        <time>2021-05-23T13:22:32Z</time>
      </trkpt>
      <trkpt lat="43.46814" lon="2.38504">
        <ele>579.412</ele>
        <time>2021-05-23T13:22:34Z</time>
      </trkpt>
      <trkpt lat="43.46816" lon="2.38505">
        <ele>579.152</ele>
        <time>2021-05-23T13:22:36Z</time>
      </trkpt>
      <trkpt lat="43.46818" lon="2.38506">
        <ele>578.503</ele>
        <time>2021-05-23T13:22:38Z</time>
      </trkpt>
      <trkpt lat="43.4682" lon="2.38509">
        <ele>579.213</ele>
        <time>2021-05-23T13:22:40Z</time>
      </trkpt>
      <trkpt lat="43.46822" lon="2.3851">
        <ele>579.354</ele>
        <time>2021-05-23T13:22:42Z</time>
      </trkpt>
      <trkpt lat="43.46824" lon="2.3851">
        <ele>578.651</ele>
        <time>2021-05-23T13:22:44Z</time>
      </trkpt>
      <trkpt lat="43.46826" lon="2.38511">
        <ele>578.229</ele>
        <time>2021-05-23T13:22:46Z</time>
      </trkpt>
      <trkpt lat="43.46828" lon="2.38511">
        <ele>577.053</ele>
        <time>2021-05-23T13:22:48Z</time>
      </trkpt>
      <trkpt lat="43.46831" lon="2.38511">
        <ele>575.835</ele>
        <time>2021-05-23T13:22:50Z</time>
      </trkpt>
      <trkpt lat="43.46833" lon="2.38511">
        <ele>574.439</ele>
        <time>2021-05-23T13:22:52Z</time>
      </trkpt>
      <trkpt lat="43.46836" lon="2.38512">
        <ele>574.151</ele>
        <time>2021-05-23T13:22:54Z</time>
      </trkpt>
      <trkpt lat="43.46838" lon="2.38512">
        <ele>573.547</ele>
        <time>2021-05-23T13:22:56Z</time>
      </trkpt>
      <trkpt lat="43.4684" lon="2.38514">
        <ele>573.538</ele>
        <time>2021-05-23T13:22:58Z</time>
      </trkpt>
      <trkpt lat="43.46842" lon="2.38514">
        <ele>572.293</ele>
        <time>2021-05-23T13:23:00Z</time>
      </trkpt>
      <trkpt lat="43.46845" lon="2.38514">
        <ele>572.68</ele>
        <time>2021-05-23T13:23:02Z</time>
      </trkpt>
      <trkpt lat="43.46847" lon="2.38514">
        <ele>571.933</ele>
        <time>2021-05-23T13:23:04Z</time>
      </trkpt>
      <trkpt lat="43.46849" lon="2.38514">
        <ele>572.105</ele>
        <time>2021-05-23T13:23:06Z</time>
      </trkpt>
      <trkpt lat="43.46851" lon="2.38514">
        <ele>572.571</ele>
        <time>2021-05-23T13:23:08Z</time>
      </trkpt>
      <trkpt lat="43.46853" lon="2.38514">
        <ele>572.637</ele>
        <time>2021-05-23T13:23:10Z</time>
      </trkpt>
      <trkpt lat="43.46854" lon="2.38515">
        <ele>572.905</ele>
        <time>2021-05-23T13:23:12Z</time>
      </trkpt>
      <trkpt lat="43.46857" lon="2.38515">
        <ele>572.126</ele>
        <time>2021-05-23T13:23:14Z</time>
      </trkpt>
      <trkpt lat="43.46859" lon="2.38515">
        <ele>572.463</ele>
        <time>2021-05-23T13:23:16Z</time>
      </trkpt>
      <trkpt lat="43.46861" lon="2.38516">
        <ele>572.31</ele>
        <time>2021-05-23T13:23:18Z</time>
      </trkpt>
      <trkpt lat="43.46863" lon="2.38516">
        <ele>572.615</ele>
        <time>2021-05-23T13:23:20Z</time>
      </trkpt>
      <trkpt lat="43.46865" lon="2.38516">
        <ele>571.86</ele>
        <time>2021-05-23T13:23:22Z</time>
      </trkpt>
      <trkpt lat="43.46867" lon="2.38518">
        <ele>572.519</ele>
        <time>2021-05-23T13:23:24Z</time>
      </trkpt>
      <trkpt lat="43.46869" lon="2.3852">
        <ele>572.888</ele>
        <time>2021-05-23T13:23:26Z</time>
      </trkpt>
      <trkpt lat="43.46871" lon="2.3852">
        <ele>572.585</ele>
        <time>2021-05-23T13:23:28Z</time>
      </trkpt>
      <trkpt lat="43.46873" lon="2.38521">
        <ele>572.483</ele>
        <time>2021-05-23T13:23:30Z</time>
      </trkpt>
      <trkpt lat="43.46875" lon="2.38524">
        <ele>573.376</ele>
        <time>2021-05-23T13:23:32Z</time>
      </trkpt>
      <trkpt lat="43.46878" lon="2.38527">
        <ele>574.954</ele>
        <time>2021-05-23T13:23:34Z</time>
      </trkpt>
      <trkpt lat="43.46879" lon="2.38528">
        <ele>574.762</ele>
        <time>2021-05-23T13:23:36Z</time>
      </trkpt>
      <trkpt lat="43.46881" lon="2.38531">
        <ele>574.761</ele>
        <time>2021-05-23T13:23:38Z</time>
      </trkpt>
      <trkpt lat="43.46883" lon="2.38534">
        <ele>575.661</ele>
        <time>2021-05-23T13:23:40Z</time>
      </trkpt>
      <trkpt lat="43.46885" lon="2.38536">
        <ele>574.488</ele>
        <time>2021-05-23T13:23:42Z</time>
      </trkpt>
      <trkpt lat="43.46886" lon="2.38538">
        <ele>575.071</ele>
        <time>2021-05-23T13:23:44Z</time>
      </trkpt>
      <trkpt lat="43.46888" lon="2.3854">
        <ele>574.306</ele>
        <time>2021-05-23T13:23:46Z</time>
      </trkpt>
      <trkpt lat="43.46889" lon="2.38542">
        <ele>574.716</ele>
        <time>2021-05-23T13:23:48Z</time>
      </trkpt>
      <trkpt lat="43.46891" lon="2.38545">
        <ele>576.316</ele>
        <time>2021-05-23T13:23:50Z</time>
      </trkpt>
      <trkpt lat="43.46893" lon="2.38548">
        <ele>576.305</ele>
        <time>2021-05-23T13:23:52Z</time>
      </trkpt>
      <trkpt lat="43.46895" lon="2.38551">
        <ele>576.719</ele>
        <time>2021-05-23T13:23:54Z</time>
      </trkpt>
      <trkpt lat="43.46896" lon="2.38553">
        <ele>576.328</ele>
        <time>2021-05-23T13:23:56Z</time>
      </trkpt>
      <trkpt lat="43.46898" lon="2.38556">
        <ele>576.595</ele>
        <time>2021-05-23T13:23:58Z</time>
      </trkpt>
      <trkpt lat="43.46899" lon="2.38558">
        <ele>577.344</ele>
        <time>2021-05-23T13:24:00Z</time>
      </trkpt>
      <trkpt lat="43.46901" lon="2.38561">
        <ele>577.821</ele>
        <time>2021-05-23T13:24:02Z</time>
      </trkpt>
      <trkpt lat="43.46903" lon="2.38564">
        <ele>577.427</ele>
        <time>2021-05-23T13:24:04Z</time>
      </trkpt>
      <trkpt lat="43.46905" lon="2.38566">
        <ele>577.947</ele>
        <time>2021-05-23T13:24:06Z</time>
      </trkpt>
      <trkpt lat="43.46906" lon="2.38567">
        <ele>578.953</ele>
        <time>2021-05-23T13:24:08Z</time>
      </trkpt>
      <trkpt lat="43.46908" lon="2.38569">
        <ele>579.259</ele>
        <time>2021-05-23T13:24:10Z</time>
      </trkpt>
      <trkpt lat="43.4691" lon="2.3857">
        <ele>580.449</ele>
        <time>2021-05-23T13:24:12Z</time>
      </trkpt>
      <trkpt lat="43.46911" lon="2.38571">
        <ele>580.204</ele>
        <time>2021-05-23T13:24:14Z</time>
      </trkpt>
      <trkpt lat="43.46914" lon="2.38574">
        <ele>581.542</ele>
        <time>2021-05-23T13:24:16Z</time>
      </trkpt>
      <trkpt lat="43.46913" lon="2.38578">
        <ele>582.612</ele>
        <time>2021-05-23T13:24:18Z</time>
      </trkpt>
      <trkpt lat="43.46912" lon="2.38579">
        <ele>582.974</ele>
        <time>2021-05-23T13:24:20Z</time>
      </trkpt>
      <trkpt lat="43.46912" lon="2.38579">
        <ele>582.975</ele>
        <time>2021-05-23T13:24:22Z</time>
      </trkpt>
      <trkpt lat="43.46912" lon="2.38579">
        <ele>583</ele>
        <time>2021-05-23T13:24:24Z</time>
      </trkpt>
      <trkpt lat="43.46912" lon="2.38579">
        <ele>583.029</ele>
        <time>2021-05-23T13:24:26Z</time>
      </trkpt>
      <trkpt lat="43.46912" lon="2.38579">
        <ele>583.038</ele>
        <time>2021-05-23T13:24:28Z</time>
      </trkpt>
      <trkpt lat="43.46912" lon="2.38579">
        <ele>583.04</ele>
        <time>2021-05-23T13:24:30Z</time>
      </trkpt>
      <trkpt lat="43.46912" lon="2.38579">
        <ele>583.043</ele>
        <time>2021-05-23T13:24:32Z</time>
      </trkpt>
      <trkpt lat="43.46912" lon="2.38579">
        <ele>583.638</ele>
        <time>2021-05-23T13:24:34Z</time>
      </trkpt>
      <trkpt lat="43.46913" lon="2.38579">
        <ele>583.678</ele>
        <time>2021-05-23T13:24:36Z</time>
      </trkpt>
      <trkpt lat="43.46913" lon="2.38579">
        <ele>583.449</ele>
        <time>2021-05-23T13:24:38Z</time>
      </trkpt>
      <trkpt lat="43.46913" lon="2.38579">
        <ele>583.447</ele>
        <time>2021-05-23T13:24:40Z</time>
      </trkpt>
      <trkpt lat="43.46913" lon="2.38579">
        <ele>583.451</ele>
        <time>2021-05-23T13:24:43Z</time>
      </trkpt>
      <trkpt lat="43.46913" lon="2.38578">
        <ele>583.452</ele>
        <time>2021-05-23T13:24:45Z</time>
      </trkpt>
      <trkpt lat="43.46913" lon="2.38578">
        <ele>583.458</ele>
        <time>2021-05-23T13:24:47Z</time>
      </trkpt>
      <trkpt lat="43.46913" lon="2.38578">
        <ele>583.463</ele>
        <time>2021-05-23T13:24:49Z</time>
      </trkpt>
      <trkpt lat="43.46913" lon="2.38578">
        <ele>583.467</ele>
        <time>2021-05-23T13:24:51Z</time>
      </trkpt>
      <trkpt lat="43.46913" lon="2.38578">
        <ele>583.47</ele>
        <time>2021-05-23T13:24:53Z</time>
      </trkpt>
      <trkpt lat="43.46913" lon="2.38578">
        <ele>583.02</ele>
        <time>2021-05-23T13:24:55Z</time>
      </trkpt>
      <trkpt lat="43.46913" lon="2.38579">
        <ele>584.157</ele>
        <time>2021-05-23T13:24:57Z</time>
      </trkpt>
      <trkpt lat="43.46912" lon="2.38581">
        <ele>585.417</ele>
        <time>2021-05-23T13:24:59Z</time>
      </trkpt>
      <trkpt lat="43.46912" lon="2.38581">
        <ele>585.39</ele>
        <time>2021-05-23T13:25:01Z</time>
      </trkpt>
      <trkpt lat="43.46912" lon="2.38582">
        <ele>585.419</ele>
        <time>2021-05-23T13:25:03Z</time>
      </trkpt>
      <trkpt lat="43.46912" lon="2.38582">
        <ele>585.458</ele>
        <time>2021-05-23T13:25:05Z</time>
      </trkpt>
      <trkpt lat="43.46912" lon="2.38582">
        <ele>585.474</ele>
        <time>2021-05-23T13:25:07Z</time>
      </trkpt>
      <trkpt lat="43.46912" lon="2.38582">
        <ele>585.489</ele>
        <time>2021-05-23T13:25:09Z</time>
      </trkpt>
      <trkpt lat="43.46912" lon="2.38582">
        <ele>585.497</ele>
        <time>2021-05-23T13:25:11Z</time>
      </trkpt>
      <trkpt lat="43.46912" lon="2.38582">
        <ele>585.5</ele>
        <time>2021-05-23T13:25:13Z</time>
      </trkpt>
      <trkpt lat="43.46912" lon="2.38582">
        <ele>585.499</ele>
        <time>2021-05-23T13:25:15Z</time>
      </trkpt>
      <trkpt lat="43.46912" lon="2.38582">
        <ele>585.501</ele>
        <time>2021-05-23T13:25:17Z</time>
      </trkpt>
      <trkpt lat="43.46912" lon="2.38582">
        <ele>585.498</ele>
        <time>2021-05-23T13:25:19Z</time>
      </trkpt>
      <trkpt lat="43.46912" lon="2.38582">
        <ele>585.497</ele>
        <time>2021-05-23T13:25:21Z</time>
      </trkpt>
      <trkpt lat="43.46912" lon="2.38582">
        <ele>585.497</ele>
        <time>2021-05-23T13:25:23Z</time>
      </trkpt>
      <trkpt lat="43.46912" lon="2.38582">
        <ele>585.489</ele>
        <time>2021-05-23T13:25:25Z</time>
      </trkpt>
      <trkpt lat="43.46912" lon="2.38582">
        <ele>585.488</ele>
        <time>2021-05-23T13:25:27Z</time>
      </trkpt>
      <trkpt lat="43.46912" lon="2.38582">
        <ele>585.493</ele>
        <time>2021-05-23T13:25:29Z</time>
      </trkpt>
      <trkpt lat="43.46912" lon="2.38582">
        <ele>585.498</ele>
        <time>2021-05-23T13:25:31Z</time>
      </trkpt>
      <trkpt lat="43.46912" lon="2.38582">
        <ele>585.507</ele>
        <time>2021-05-23T13:25:33Z</time>
      </trkpt>
      <trkpt lat="43.46913" lon="2.3859">
        <ele>594.29</ele>
        <time>2021-05-23T13:25:35Z</time>
      </trkpt>
      <trkpt lat="43.46913" lon="2.38591">
        <ele>593.988</ele>
        <time>2021-05-23T13:25:37Z</time>
      </trkpt>
      <trkpt lat="43.46913" lon="2.38592">
        <ele>593.774</ele>
        <time>2021-05-23T13:25:39Z</time>
      </trkpt>
      <trkpt lat="43.46913" lon="2.38591">
        <ele>593.704</ele>
        <time>2021-05-23T13:25:41Z</time>
      </trkpt>
      <trkpt lat="43.46913" lon="2.38592">
        <ele>594.091</ele>
        <time>2021-05-23T13:25:43Z</time>
      </trkpt>
      <trkpt lat="43.46913" lon="2.38593">
        <ele>595.002</ele>
        <time>2021-05-23T13:25:45Z</time>
      </trkpt>
      <trkpt lat="43.46912" lon="2.38594">
        <ele>596.02</ele>
        <time>2021-05-23T13:25:47Z</time>
      </trkpt>
      <trkpt lat="43.46912" lon="2.38594">
        <ele>596.328</ele>
        <time>2021-05-23T13:25:49Z</time>
      </trkpt>
      <trkpt lat="43.46912" lon="2.38594">
        <ele>596.314</ele>
        <time>2021-05-23T13:25:51Z</time>
      </trkpt>
      <trkpt lat="43.46912" lon="2.38594">
        <ele>596.322</ele>
        <time>2021-05-23T13:25:53Z</time>
      </trkpt>
      <trkpt lat="43.46914" lon="2.38594">
        <ele>596.079</ele>
        <time>2021-05-23T13:25:55Z</time>
      </trkpt>
      <trkpt lat="43.46917" lon="2.38594">
        <ele>596.084</ele>
        <time>2021-05-23T13:25:57Z</time>
      </trkpt>
      <trkpt lat="43.46919" lon="2.38593">
        <ele>595.107</ele>
        <time>2021-05-23T13:25:59Z</time>
      </trkpt>
      <trkpt lat="43.46921" lon="2.38593">
        <ele>595.493</ele>
        <time>2021-05-23T13:26:01Z</time>
      </trkpt>
      <trkpt lat="43.46923" lon="2.38593">
        <ele>595.699</ele>
        <time>2021-05-23T13:26:03Z</time>
      </trkpt>
      <trkpt lat="43.46925" lon="2.38593">
        <ele>595.542</ele>
        <time>2021-05-23T13:26:05Z</time>
      </trkpt>
      <trkpt lat="43.46927" lon="2.38592">
        <ele>595.626</ele>
        <time>2021-05-23T13:26:07Z</time>
      </trkpt>
      <trkpt lat="43.4693" lon="2.38591">
        <ele>594.235</ele>
        <time>2021-05-23T13:26:09Z</time>
      </trkpt>
      <trkpt lat="43.46932" lon="2.3859">
        <ele>595.039</ele>
        <time>2021-05-23T13:26:11Z</time>
      </trkpt>
      <trkpt lat="43.46934" lon="2.38589">
        <ele>595.68</ele>
        <time>2021-05-23T13:26:13Z</time>
      </trkpt>
      <trkpt lat="43.46937" lon="2.38589">
        <ele>595.873</ele>
        <time>2021-05-23T13:26:15Z</time>
      </trkpt>
      <trkpt lat="43.46939" lon="2.38587">
        <ele>595.826</ele>
        <time>2021-05-23T13:26:17Z</time>
      </trkpt>
      <trkpt lat="43.46941" lon="2.38586">
        <ele>596.27</ele>
        <time>2021-05-23T13:26:19Z</time>
      </trkpt>
      <trkpt lat="43.46944" lon="2.38585">
        <ele>596.743</ele>
        <time>2021-05-23T13:26:21Z</time>
      </trkpt>
      <trkpt lat="43.46945" lon="2.38584">
        <ele>596.518</ele>
        <time>2021-05-23T13:26:23Z</time>
      </trkpt>
      <trkpt lat="43.46947" lon="2.38582">
        <ele>596.119</ele>
        <time>2021-05-23T13:26:25Z</time>
      </trkpt>
      <trkpt lat="43.46949" lon="2.38581">
        <ele>596.942</ele>
        <time>2021-05-23T13:26:27Z</time>
      </trkpt>
      <trkpt lat="43.46951" lon="2.38579">
        <ele>597.873</ele>
        <time>2021-05-23T13:26:29Z</time>
      </trkpt>
      <trkpt lat="43.46952" lon="2.38577">
        <ele>596.852</ele>
        <time>2021-05-23T13:26:31Z</time>
      </trkpt>
      <trkpt lat="43.46954" lon="2.38574">
        <ele>597.349</ele>
        <time>2021-05-23T13:26:33Z</time>
      </trkpt>
      <trkpt lat="43.46956" lon="2.38573">
        <ele>597.823</ele>
        <time>2021-05-23T13:26:35Z</time>
      </trkpt>
      <trkpt lat="43.46958" lon="2.38571">
        <ele>598.237</ele>
        <time>2021-05-23T13:26:37Z</time>
      </trkpt>
      <trkpt lat="43.46959" lon="2.3857">
        <ele>598.322</ele>
        <time>2021-05-23T13:26:39Z</time>
      </trkpt>
      <trkpt lat="43.46961" lon="2.38568">
        <ele>597.978</ele>
        <time>2021-05-23T13:26:41Z</time>
      </trkpt>
      <trkpt lat="43.46962" lon="2.38566">
        <ele>598.265</ele>
        <time>2021-05-23T13:26:43Z</time>
      </trkpt>
      <trkpt lat="43.46964" lon="2.38564">
        <ele>598.781</ele>
        <time>2021-05-23T13:26:45Z</time>
      </trkpt>
      <trkpt lat="43.46966" lon="2.38563">
        <ele>598.67</ele>
        <time>2021-05-23T13:26:47Z</time>
      </trkpt>
      <trkpt lat="43.46969" lon="2.38561">
        <ele>598.126</ele>
        <time>2021-05-23T13:26:49Z</time>
      </trkpt>
      <trkpt lat="43.46971" lon="2.38559">
        <ele>598.741</ele>
        <time>2021-05-23T13:26:51Z</time>
      </trkpt>
      <trkpt lat="43.46973" lon="2.38559">
        <ele>599.735</ele>
        <time>2021-05-23T13:26:53Z</time>
      </trkpt>
      <trkpt lat="43.46974" lon="2.38557">
        <ele>600.457</ele>
        <time>2021-05-23T13:26:55Z</time>
      </trkpt>
      <trkpt lat="43.46973" lon="2.38557">
        <ele>600.343</ele>
        <time>2021-05-23T13:26:57Z</time>
      </trkpt>
      <trkpt lat="43.46973" lon="2.38557">
        <ele>600.349</ele>
        <time>2021-05-23T13:26:59Z</time>
      </trkpt>
      <trkpt lat="43.46973" lon="2.38557">
        <ele>600.352</ele>
        <time>2021-05-23T13:27:01Z</time>
      </trkpt>
      <trkpt lat="43.46973" lon="2.38557">
        <ele>600.352</ele>
        <time>2021-05-23T13:27:03Z</time>
      </trkpt>
      <trkpt lat="43.46973" lon="2.38557">
        <ele>600.354</ele>
        <time>2021-05-23T13:27:05Z</time>
      </trkpt>
      <trkpt lat="43.46973" lon="2.38557">
        <ele>600.632</ele>
        <time>2021-05-23T13:27:07Z</time>
      </trkpt>
      <trkpt lat="43.46973" lon="2.38557">
        <ele>600.631</ele>
        <time>2021-05-23T13:27:09Z</time>
      </trkpt>
      <trkpt lat="43.46973" lon="2.38557">
        <ele>600.618</ele>
        <time>2021-05-23T13:27:11Z</time>
      </trkpt>
      <trkpt lat="43.46973" lon="2.38558">
        <ele>600.604</ele>
        <time>2021-05-23T13:27:13Z</time>
      </trkpt>
      <trkpt lat="43.46973" lon="2.38558">
        <ele>600.598</ele>
        <time>2021-05-23T13:27:15Z</time>
      </trkpt>
      <trkpt lat="43.46973" lon="2.38558">
        <ele>600.599</ele>
        <time>2021-05-23T13:27:17Z</time>
      </trkpt>
      <trkpt lat="43.46973" lon="2.38558">
        <ele>600.597</ele>
        <time>2021-05-23T13:27:19Z</time>
      </trkpt>
      <trkpt lat="43.46973" lon="2.38558">
        <ele>600.598</ele>
        <time>2021-05-23T13:27:21Z</time>
      </trkpt>
      <trkpt lat="43.46973" lon="2.38558">
        <ele>600.594</ele>
        <time>2021-05-23T13:27:23Z</time>
      </trkpt>
      <trkpt lat="43.46973" lon="2.38558">
        <ele>600.593</ele>
        <time>2021-05-23T13:27:25Z</time>
      </trkpt>
      <trkpt lat="43.46973" lon="2.38558">
        <ele>600.6</ele>
        <time>2021-05-23T13:27:27Z</time>
      </trkpt>
      <trkpt lat="43.46973" lon="2.38558">
        <ele>600.608</ele>
        <time>2021-05-23T13:27:29Z</time>
      </trkpt>
      <trkpt lat="43.46974" lon="2.38557">
        <ele>601.404</ele>
        <time>2021-05-23T13:27:31Z</time>
      </trkpt>
      <trkpt lat="43.46974" lon="2.38557">
        <ele>601.412</ele>
        <time>2021-05-23T13:27:33Z</time>
      </trkpt>
      <trkpt lat="43.46973" lon="2.38557">
        <ele>602.115</ele>
        <time>2021-05-23T13:27:35Z</time>
      </trkpt>
      <trkpt lat="43.46973" lon="2.38557">
        <ele>602.115</ele>
        <time>2021-05-23T13:27:37Z</time>
      </trkpt>
      <trkpt lat="43.46974" lon="2.38557">
        <ele>602.173</ele>
        <time>2021-05-23T13:27:39Z</time>
      </trkpt>
      <trkpt lat="43.46974" lon="2.38557">
        <ele>602.354</ele>
        <time>2021-05-23T13:27:41Z</time>
      </trkpt>
      <trkpt lat="43.46974" lon="2.38557">
        <ele>602.701</ele>
        <time>2021-05-23T13:27:43Z</time>
      </trkpt>
      <trkpt lat="43.46974" lon="2.38557">
        <ele>602.81</ele>
        <time>2021-05-23T13:27:45Z</time>
      </trkpt>
      <trkpt lat="43.46974" lon="2.38557">
        <ele>602.435</ele>
        <time>2021-05-23T13:27:47Z</time>
      </trkpt>
      <trkpt lat="43.46974" lon="2.38556">
        <ele>601.86</ele>
        <time>2021-05-23T13:27:49Z</time>
      </trkpt>
      <trkpt lat="43.46974" lon="2.38555">
        <ele>602.115</ele>
        <time>2021-05-23T13:27:51Z</time>
      </trkpt>
      <trkpt lat="43.46975" lon="2.38554">
        <ele>601.528</ele>
        <time>2021-05-23T13:27:53Z</time>
      </trkpt>
      <trkpt lat="43.46976" lon="2.38552">
        <ele>601.235</ele>
        <time>2021-05-23T13:27:55Z</time>
      </trkpt>
      <trkpt lat="43.46977" lon="2.3855">
        <ele>601.292</ele>
        <time>2021-05-23T13:27:57Z</time>
      </trkpt>
      <trkpt lat="43.46978" lon="2.38549">
        <ele>601.244</ele>
        <time>2021-05-23T13:27:59Z</time>
      </trkpt>
      <trkpt lat="43.46979" lon="2.38548">
        <ele>598.999</ele>
        <time>2021-05-23T13:28:01Z</time>
      </trkpt>
      <trkpt lat="43.4698" lon="2.38547">
        <ele>597.2</ele>
        <time>2021-05-23T13:28:03Z</time>
      </trkpt>
      <trkpt lat="43.46981" lon="2.38547">
        <ele>596.289</ele>
        <time>2021-05-23T13:28:05Z</time>
      </trkpt>
      <trkpt lat="43.46981" lon="2.38547">
        <ele>596.28</ele>
        <time>2021-05-23T13:28:07Z</time>
      </trkpt>
      <trkpt lat="43.46982" lon="2.38546">
        <ele>596.28</ele>
        <time>2021-05-23T13:28:09Z</time>
      </trkpt>
      <trkpt lat="43.46983" lon="2.38544">
        <ele>595.22</ele>
        <time>2021-05-23T13:28:11Z</time>
      </trkpt>
      <trkpt lat="43.46985" lon="2.38542">
        <ele>595.848</ele>
        <time>2021-05-23T13:28:13Z</time>
      </trkpt>
      <trkpt lat="43.46987" lon="2.3854">
        <ele>596.146</ele>
        <time>2021-05-23T13:28:15Z</time>
      </trkpt>
      <trkpt lat="43.46989" lon="2.38538">
        <ele>597.017</ele>
        <time>2021-05-23T13:28:17Z</time>
      </trkpt>
      <trkpt lat="43.46991" lon="2.38537">
        <ele>597.368</ele>
        <time>2021-05-23T13:28:19Z</time>
      </trkpt>
      <trkpt lat="43.46992" lon="2.38535">
        <ele>597.21</ele>
        <time>2021-05-23T13:28:21Z</time>
      </trkpt>
      <trkpt lat="43.46994" lon="2.38533">
        <ele>597.257</ele>
        <time>2021-05-23T13:28:23Z</time>
      </trkpt>
      <trkpt lat="43.46996" lon="2.38531">
        <ele>597.457</ele>
        <time>2021-05-23T13:28:25Z</time>
      </trkpt>
      <trkpt lat="43.46997" lon="2.38528">
        <ele>597.299</ele>
        <time>2021-05-23T13:28:27Z</time>
      </trkpt>
      <trkpt lat="43.46999" lon="2.38525">
        <ele>596.876</ele>
        <time>2021-05-23T13:28:29Z</time>
      </trkpt>
      <trkpt lat="43.47001" lon="2.38525">
        <ele>597.489</ele>
        <time>2021-05-23T13:28:31Z</time>
      </trkpt>
      <trkpt lat="43.47002" lon="2.38523">
        <ele>596.603</ele>
        <time>2021-05-23T13:28:33Z</time>
      </trkpt>
      <trkpt lat="43.47004" lon="2.38521">
        <ele>595.389</ele>
        <time>2021-05-23T13:28:35Z</time>
      </trkpt>
      <trkpt lat="43.47006" lon="2.38519">
        <ele>594.76</ele>
        <time>2021-05-23T13:28:37Z</time>
      </trkpt>
      <trkpt lat="43.47006" lon="2.38517">
        <ele>593.911</ele>
        <time>2021-05-23T13:28:39Z</time>
      </trkpt>
      <trkpt lat="43.47007" lon="2.38515">
        <ele>592.931</ele>
        <time>2021-05-23T13:28:41Z</time>
      </trkpt>
      <trkpt lat="43.47008" lon="2.38514">
        <ele>591.762</ele>
        <time>2021-05-23T13:28:43Z</time>
      </trkpt>
      <trkpt lat="43.47012" lon="2.38512">
        <ele>592.331</ele>
        <time>2021-05-23T13:28:46Z</time>
      </trkpt>
      <trkpt lat="43.47014" lon="2.3851">
        <ele>592.19</ele>
        <time>2021-05-23T13:28:48Z</time>
      </trkpt>
      <trkpt lat="43.47015" lon="2.38509">
        <ele>592.446</ele>
        <time>2021-05-23T13:28:50Z</time>
      </trkpt>
      <trkpt lat="43.47016" lon="2.38508">
        <ele>590.888</ele>
        <time>2021-05-23T13:28:52Z</time>
      </trkpt>
      <trkpt lat="43.47017" lon="2.38506">
        <ele>591.624</ele>
        <time>2021-05-23T13:28:54Z</time>
      </trkpt>
      <trkpt lat="43.4702" lon="2.38504">
        <ele>590.921</ele>
        <time>2021-05-23T13:28:56Z</time>
      </trkpt>
      <trkpt lat="43.47021" lon="2.38499">
        <ele>592.204</ele>
        <time>2021-05-23T13:28:58Z</time>
      </trkpt>
      <trkpt lat="43.4702" lon="2.38494">
        <ele>592.011</ele>
        <time>2021-05-23T13:29:00Z</time>
      </trkpt>
      <trkpt lat="43.47023" lon="2.38491">
        <ele>591.15</ele>
        <time>2021-05-23T13:29:02Z</time>
      </trkpt>
      <trkpt lat="43.47024" lon="2.38489">
        <ele>589.505</ele>
        <time>2021-05-23T13:29:04Z</time>
      </trkpt>
      <trkpt lat="43.47025" lon="2.38486">
        <ele>589.893</ele>
        <time>2021-05-23T13:29:06Z</time>
      </trkpt>
      <trkpt lat="43.47026" lon="2.38482">
        <ele>588.965</ele>
        <time>2021-05-23T13:29:08Z</time>
      </trkpt>
      <trkpt lat="43.47028" lon="2.38482">
        <ele>586.456</ele>
        <time>2021-05-23T13:29:10Z</time>
      </trkpt>
      <trkpt lat="43.47028" lon="2.3848">
        <ele>585.349</ele>
        <time>2021-05-23T13:29:12Z</time>
      </trkpt>
      <trkpt lat="43.47031" lon="2.38481">
        <ele>584.292</ele>
        <time>2021-05-23T13:29:14Z</time>
      </trkpt>
      <trkpt lat="43.47032" lon="2.3848">
        <ele>584.02</ele>
        <time>2021-05-23T13:29:16Z</time>
      </trkpt>
      <trkpt lat="43.47033" lon="2.38479">
        <ele>583.648</ele>
        <time>2021-05-23T13:29:18Z</time>
      </trkpt>
      <trkpt lat="43.47034" lon="2.38479">
        <ele>582.677</ele>
        <time>2021-05-23T13:29:20Z</time>
      </trkpt>
      <trkpt lat="43.47036" lon="2.38479">
        <ele>582.198</ele>
        <time>2021-05-23T13:29:22Z</time>
      </trkpt>
      <trkpt lat="43.47037" lon="2.38479">
        <ele>581.499</ele>
        <time>2021-05-23T13:29:24Z</time>
      </trkpt>
      <trkpt lat="43.47038" lon="2.3848">
        <ele>581.086</ele>
        <time>2021-05-23T13:29:26Z</time>
      </trkpt>
      <trkpt lat="43.47038" lon="2.3848">
        <ele>580.84</ele>
        <time>2021-05-23T13:29:28Z</time>
      </trkpt>
      <trkpt lat="43.4704" lon="2.38481">
        <ele>581.254</ele>
        <time>2021-05-23T13:29:30Z</time>
      </trkpt>
      <trkpt lat="43.47041" lon="2.38484">
        <ele>581.267</ele>
        <time>2021-05-23T13:29:32Z</time>
      </trkpt>
      <trkpt lat="43.47041" lon="2.38486">
        <ele>581.436</ele>
        <time>2021-05-23T13:29:34Z</time>
      </trkpt>
      <trkpt lat="43.47041" lon="2.38488">
        <ele>579.265</ele>
        <time>2021-05-23T13:29:36Z</time>
      </trkpt>
      <trkpt lat="43.47041" lon="2.3849">
        <ele>579.335</ele>
        <time>2021-05-23T13:29:38Z</time>
      </trkpt>
      <trkpt lat="43.47042" lon="2.38493">
        <ele>580.342</ele>
        <time>2021-05-23T13:29:40Z</time>
      </trkpt>
      <trkpt lat="43.47043" lon="2.38494">
        <ele>581.05</ele>
        <time>2021-05-23T13:29:42Z</time>
      </trkpt>
      <trkpt lat="43.47045" lon="2.38496">
        <ele>581.405</ele>
        <time>2021-05-23T13:29:44Z</time>
      </trkpt>
      <trkpt lat="43.47047" lon="2.38497">
        <ele>583.003</ele>
        <time>2021-05-23T13:29:46Z</time>
      </trkpt>
      <trkpt lat="43.4705" lon="2.38498">
        <ele>583.551</ele>
        <time>2021-05-23T13:29:48Z</time>
      </trkpt>
      <trkpt lat="43.47051" lon="2.38499">
        <ele>584.445</ele>
        <time>2021-05-23T13:29:50Z</time>
      </trkpt>
      <trkpt lat="43.47053" lon="2.38501">
        <ele>584.438</ele>
        <time>2021-05-23T13:29:52Z</time>
      </trkpt>
      <trkpt lat="43.47054" lon="2.38504">
        <ele>584.269</ele>
        <time>2021-05-23T13:29:54Z</time>
      </trkpt>
      <trkpt lat="43.47055" lon="2.38505">
        <ele>582.787</ele>
        <time>2021-05-23T13:29:56Z</time>
      </trkpt>
      <trkpt lat="43.47056" lon="2.38506">
        <ele>582.476</ele>
        <time>2021-05-23T13:29:58Z</time>
      </trkpt>
      <trkpt lat="43.47056" lon="2.38509">
        <ele>579.709</ele>
        <time>2021-05-23T13:30:00Z</time>
      </trkpt>
      <trkpt lat="43.47057" lon="2.38509">
        <ele>580.434</ele>
        <time>2021-05-23T13:30:02Z</time>
      </trkpt>
      <trkpt lat="43.47059" lon="2.3851">
        <ele>577.687</ele>
        <time>2021-05-23T13:30:04Z</time>
      </trkpt>
      <trkpt lat="43.47062" lon="2.3851">
        <ele>577.405</ele>
        <time>2021-05-23T13:30:06Z</time>
      </trkpt>
      <trkpt lat="43.47064" lon="2.3851">
        <ele>578.241</ele>
        <time>2021-05-23T13:30:08Z</time>
      </trkpt>
      <trkpt lat="43.47066" lon="2.38511">
        <ele>578.404</ele>
        <time>2021-05-23T13:30:10Z</time>
      </trkpt>
      <trkpt lat="43.47067" lon="2.38511">
        <ele>579.038</ele>
        <time>2021-05-23T13:30:12Z</time>
      </trkpt>
      <trkpt lat="43.47069" lon="2.38512">
        <ele>580.148</ele>
        <time>2021-05-23T13:30:14Z</time>
      </trkpt>
      <trkpt lat="43.47071" lon="2.38512">
        <ele>579.762</ele>
        <time>2021-05-23T13:30:16Z</time>
      </trkpt>
      <trkpt lat="43.47073" lon="2.38512">
        <ele>579.237</ele>
        <time>2021-05-23T13:30:18Z</time>
      </trkpt>
      <trkpt lat="43.47074" lon="2.38513">
        <ele>579.406</ele>
        <time>2021-05-23T13:30:20Z</time>
      </trkpt>
      <trkpt lat="43.47076" lon="2.38515">
        <ele>578.755</ele>
        <time>2021-05-23T13:30:22Z</time>
      </trkpt>
      <trkpt lat="43.47077" lon="2.38516">
        <ele>574.768</ele>
        <time>2021-05-23T13:30:24Z</time>
      </trkpt>
      <trkpt lat="43.47079" lon="2.38519">
        <ele>572.524</ele>
        <time>2021-05-23T13:30:26Z</time>
      </trkpt>
      <trkpt lat="43.4708" lon="2.38521">
        <ele>571.879</ele>
        <time>2021-05-23T13:30:28Z</time>
      </trkpt>
      <trkpt lat="43.47082" lon="2.38522">
        <ele>572.562</ele>
        <time>2021-05-23T13:30:30Z</time>
      </trkpt>
      <trkpt lat="43.47084" lon="2.38522">
        <ele>573.445</ele>
        <time>2021-05-23T13:30:32Z</time>
      </trkpt>
      <trkpt lat="43.47086" lon="2.38524">
        <ele>573.974</ele>
        <time>2021-05-23T13:30:34Z</time>
      </trkpt>
      <trkpt lat="43.47088" lon="2.38525">
        <ele>574.121</ele>
        <time>2021-05-23T13:30:36Z</time>
      </trkpt>
      <trkpt lat="43.47091" lon="2.38526">
        <ele>574.866</ele>
        <time>2021-05-23T13:30:38Z</time>
      </trkpt>
      <trkpt lat="43.47093" lon="2.38527">
        <ele>574.269</ele>
        <time>2021-05-23T13:30:40Z</time>
      </trkpt>
      <trkpt lat="43.47094" lon="2.38529">
        <ele>573.372</ele>
        <time>2021-05-23T13:30:42Z</time>
      </trkpt>
      <trkpt lat="43.47096" lon="2.3853">
        <ele>573.493</ele>
        <time>2021-05-23T13:30:44Z</time>
      </trkpt>
      <trkpt lat="43.47098" lon="2.38531">
        <ele>572.349</ele>
        <time>2021-05-23T13:30:46Z</time>
      </trkpt>
      <trkpt lat="43.47099" lon="2.38531">
        <ele>573.025</ele>
        <time>2021-05-23T13:30:48Z</time>
      </trkpt>
      <trkpt lat="43.471" lon="2.38531">
        <ele>573.891</ele>
        <time>2021-05-23T13:30:50Z</time>
      </trkpt>
      <trkpt lat="43.47101" lon="2.38533">
        <ele>573.51</ele>
        <time>2021-05-23T13:30:52Z</time>
      </trkpt>
      <trkpt lat="43.47103" lon="2.38533">
        <ele>575.111</ele>
        <time>2021-05-23T13:30:54Z</time>
      </trkpt>
      <trkpt lat="43.47103" lon="2.38532">
        <ele>575.075</ele>
        <time>2021-05-23T13:30:56Z</time>
      </trkpt>
      <trkpt lat="43.47103" lon="2.38532">
        <ele>575.074</ele>
        <time>2021-05-23T13:30:58Z</time>
      </trkpt>
      <trkpt lat="43.47103" lon="2.38532">
        <ele>575.314</ele>
        <time>2021-05-23T13:31:00Z</time>
      </trkpt>
      <trkpt lat="43.47104" lon="2.38532">
        <ele>576.308</ele>
        <time>2021-05-23T13:31:02Z</time>
      </trkpt>
      <trkpt lat="43.47106" lon="2.38532">
        <ele>575.919</ele>
        <time>2021-05-23T13:31:04Z</time>
      </trkpt>
      <trkpt lat="43.47108" lon="2.38531">
        <ele>576.593</ele>
        <time>2021-05-23T13:31:06Z</time>
      </trkpt>
      <trkpt lat="43.4711" lon="2.38531">
        <ele>577.959</ele>
        <time>2021-05-23T13:31:08Z</time>
      </trkpt>
      <trkpt lat="43.47113" lon="2.38531">
        <ele>578.095</ele>
        <time>2021-05-23T13:31:10Z</time>
      </trkpt>
      <trkpt lat="43.47115" lon="2.38532">
        <ele>576.598</ele>
        <time>2021-05-23T13:31:12Z</time>
      </trkpt>
      <trkpt lat="43.47117" lon="2.38533">
        <ele>576.333</ele>
        <time>2021-05-23T13:31:14Z</time>
      </trkpt>
      <trkpt lat="43.47119" lon="2.38533">
        <ele>576.099</ele>
        <time>2021-05-23T13:31:16Z</time>
      </trkpt>
      <trkpt lat="43.4712" lon="2.38534">
        <ele>576.311</ele>
        <time>2021-05-23T13:31:18Z</time>
      </trkpt>
      <trkpt lat="43.47122" lon="2.38535">
        <ele>575.248</ele>
        <time>2021-05-23T13:31:20Z</time>
      </trkpt>
      <trkpt lat="43.47123" lon="2.38536">
        <ele>573.759</ele>
        <time>2021-05-23T13:31:22Z</time>
      </trkpt>
      <trkpt lat="43.47125" lon="2.38537">
        <ele>573.146</ele>
        <time>2021-05-23T13:31:24Z</time>
      </trkpt>
      <trkpt lat="43.47127" lon="2.38538">
        <ele>574.073</ele>
        <time>2021-05-23T13:31:26Z</time>
      </trkpt>
      <trkpt lat="43.47129" lon="2.3854">
        <ele>573.968</ele>
        <time>2021-05-23T13:31:28Z</time>
      </trkpt>
      <trkpt lat="43.4713" lon="2.3854">
        <ele>573.682</ele>
        <time>2021-05-23T13:31:30Z</time>
      </trkpt>
      <trkpt lat="43.4713" lon="2.38542">
        <ele>573.777</ele>
        <time>2021-05-23T13:31:32Z</time>
      </trkpt>
      <trkpt lat="43.47132" lon="2.38543">
        <ele>574.013</ele>
        <time>2021-05-23T13:31:34Z</time>
      </trkpt>
      <trkpt lat="43.47134" lon="2.38544">
        <ele>574.499</ele>
        <time>2021-05-23T13:31:36Z</time>
      </trkpt>
      <trkpt lat="43.47136" lon="2.38546">
        <ele>573.067</ele>
        <time>2021-05-23T13:31:38Z</time>
      </trkpt>
      <trkpt lat="43.47137" lon="2.38547">
        <ele>571.392</ele>
        <time>2021-05-23T13:31:40Z</time>
      </trkpt>
      <trkpt lat="43.47138" lon="2.38549">
        <ele>571.718</ele>
        <time>2021-05-23T13:31:42Z</time>
      </trkpt>
      <trkpt lat="43.47141" lon="2.38554">
        <ele>571.216</ele>
        <time>2021-05-23T13:31:44Z</time>
      </trkpt>
      <trkpt lat="43.47143" lon="2.38557">
        <ele>570.373</ele>
        <time>2021-05-23T13:31:46Z</time>
      </trkpt>
      <trkpt lat="43.47143" lon="2.38558">
        <ele>569.699</ele>
        <time>2021-05-23T13:31:48Z</time>
      </trkpt>
      <trkpt lat="43.47145" lon="2.38559">
        <ele>567.804</ele>
        <time>2021-05-23T13:31:50Z</time>
      </trkpt>
      <trkpt lat="43.47146" lon="2.3856">
        <ele>567.298</ele>
        <time>2021-05-23T13:31:52Z</time>
      </trkpt>
      <trkpt lat="43.47148" lon="2.38562">
        <ele>567.373</ele>
        <time>2021-05-23T13:31:54Z</time>
      </trkpt>
      <trkpt lat="43.4715" lon="2.38563">
        <ele>566.399</ele>
        <time>2021-05-23T13:31:56Z</time>
      </trkpt>
      <trkpt lat="43.47152" lon="2.38564">
        <ele>566.575</ele>
        <time>2021-05-23T13:31:58Z</time>
      </trkpt>
      <trkpt lat="43.47154" lon="2.38566">
        <ele>566.127</ele>
        <time>2021-05-23T13:32:00Z</time>
      </trkpt>
      <trkpt lat="43.47156" lon="2.38566">
        <ele>564.924</ele>
        <time>2021-05-23T13:32:02Z</time>
      </trkpt>
      <trkpt lat="43.47158" lon="2.38567">
        <ele>565.724</ele>
        <time>2021-05-23T13:32:04Z</time>
      </trkpt>
      <trkpt lat="43.47159" lon="2.38569">
        <ele>564.628</ele>
        <time>2021-05-23T13:32:06Z</time>
      </trkpt>
      <trkpt lat="43.4716" lon="2.3857">
        <ele>564.614</ele>
        <time>2021-05-23T13:32:08Z</time>
      </trkpt>
      <trkpt lat="43.47161" lon="2.38571">
        <ele>563.78</ele>
        <time>2021-05-23T13:32:10Z</time>
      </trkpt>
      <trkpt lat="43.47162" lon="2.38572">
        <ele>563.848</ele>
        <time>2021-05-23T13:32:12Z</time>
      </trkpt>
      <trkpt lat="43.47164" lon="2.38574">
        <ele>562.97</ele>
        <time>2021-05-23T13:32:14Z</time>
      </trkpt>
      <trkpt lat="43.47165" lon="2.38575">
        <ele>563.039</ele>
        <time>2021-05-23T13:32:16Z</time>
      </trkpt>
      <trkpt lat="43.47166" lon="2.38576">
        <ele>564.074</ele>
        <time>2021-05-23T13:32:18Z</time>
      </trkpt>
      <trkpt lat="43.47168" lon="2.38578">
        <ele>563.355</ele>
        <time>2021-05-23T13:32:20Z</time>
      </trkpt>
      <trkpt lat="43.47168" lon="2.3858">
        <ele>564.422</ele>
        <time>2021-05-23T13:32:22Z</time>
      </trkpt>
      <trkpt lat="43.4717" lon="2.38581">
        <ele>563.803</ele>
        <time>2021-05-23T13:32:24Z</time>
      </trkpt>
      <trkpt lat="43.47171" lon="2.38582">
        <ele>564.393</ele>
        <time>2021-05-23T13:32:26Z</time>
      </trkpt>
      <trkpt lat="43.47172" lon="2.38583">
        <ele>564.684</ele>
        <time>2021-05-23T13:32:28Z</time>
      </trkpt>
      <trkpt lat="43.47173" lon="2.38584">
        <ele>565.484</ele>
        <time>2021-05-23T13:32:30Z</time>
      </trkpt>
      <trkpt lat="43.47175" lon="2.38586">
        <ele>565.269</ele>
        <time>2021-05-23T13:32:32Z</time>
      </trkpt>
      <trkpt lat="43.47176" lon="2.38587">
        <ele>565.884</ele>
        <time>2021-05-23T13:32:34Z</time>
      </trkpt>
      <trkpt lat="43.47177" lon="2.38588">
        <ele>565.835</ele>
        <time>2021-05-23T13:32:36Z</time>
      </trkpt>
      <trkpt lat="43.47178" lon="2.3859">
        <ele>565.143</ele>
        <time>2021-05-23T13:32:38Z</time>
      </trkpt>
      <trkpt lat="43.4718" lon="2.38591">
        <ele>565.72</ele>
        <time>2021-05-23T13:32:40Z</time>
      </trkpt>
      <trkpt lat="43.47181" lon="2.38592">
        <ele>565.706</ele>
        <time>2021-05-23T13:32:42Z</time>
      </trkpt>
      <trkpt lat="43.47182" lon="2.38593">
        <ele>565.367</ele>
        <time>2021-05-23T13:32:44Z</time>
      </trkpt>
      <trkpt lat="43.47184" lon="2.38593">
        <ele>566.589</ele>
        <time>2021-05-23T13:32:46Z</time>
      </trkpt>
      <trkpt lat="43.47185" lon="2.38594">
        <ele>566.711</ele>
        <time>2021-05-23T13:32:48Z</time>
      </trkpt>
      <trkpt lat="43.47187" lon="2.38593">
        <ele>566.404</ele>
        <time>2021-05-23T13:32:50Z</time>
      </trkpt>
      <trkpt lat="43.47189" lon="2.38593">
        <ele>565.511</ele>
        <time>2021-05-23T13:32:52Z</time>
      </trkpt>
      <trkpt lat="43.47191" lon="2.38593">
        <ele>565.418</ele>
        <time>2021-05-23T13:32:54Z</time>
      </trkpt>
      <trkpt lat="43.47193" lon="2.38594">
        <ele>564.18</ele>
        <time>2021-05-23T13:32:56Z</time>
      </trkpt>
      <trkpt lat="43.47195" lon="2.38594">
        <ele>563.207</ele>
        <time>2021-05-23T13:32:58Z</time>
      </trkpt>
      <trkpt lat="43.47197" lon="2.38594">
        <ele>563.522</ele>
        <time>2021-05-23T13:33:00Z</time>
      </trkpt>
      <trkpt lat="43.472" lon="2.38594">
        <ele>563.44</ele>
        <time>2021-05-23T13:33:02Z</time>
      </trkpt>
      <trkpt lat="43.47202" lon="2.38594">
        <ele>564.315</ele>
        <time>2021-05-23T13:33:04Z</time>
      </trkpt>
      <trkpt lat="43.47204" lon="2.38594">
        <ele>564.161</ele>
        <time>2021-05-23T13:33:06Z</time>
      </trkpt>
      <trkpt lat="43.47206" lon="2.38595">
        <ele>563.794</ele>
        <time>2021-05-23T13:33:08Z</time>
      </trkpt>
      <trkpt lat="43.47207" lon="2.38595">
        <ele>564.296</ele>
        <time>2021-05-23T13:33:10Z</time>
      </trkpt>
      <trkpt lat="43.47208" lon="2.38596">
        <ele>564.55</ele>
        <time>2021-05-23T13:33:12Z</time>
      </trkpt>
      <trkpt lat="43.4721" lon="2.38597">
        <ele>564.004</ele>
        <time>2021-05-23T13:33:14Z</time>
      </trkpt>
      <trkpt lat="43.47212" lon="2.38598">
        <ele>564.212</ele>
        <time>2021-05-23T13:33:16Z</time>
      </trkpt>
      <trkpt lat="43.47213" lon="2.38598">
        <ele>563.677</ele>
        <time>2021-05-23T13:33:18Z</time>
      </trkpt>
      <trkpt lat="43.47215" lon="2.386">
        <ele>563.074</ele>
        <time>2021-05-23T13:33:20Z</time>
      </trkpt>
      <trkpt lat="43.47217" lon="2.38601">
        <ele>562.854</ele>
        <time>2021-05-23T13:33:22Z</time>
      </trkpt>
      <trkpt lat="43.47219" lon="2.38603">
        <ele>562.586</ele>
        <time>2021-05-23T13:33:24Z</time>
      </trkpt>
      <trkpt lat="43.47221" lon="2.38604">
        <ele>562.431</ele>
        <time>2021-05-23T13:33:26Z</time>
      </trkpt>
      <trkpt lat="43.47223" lon="2.38605">
        <ele>562.563</ele>
        <time>2021-05-23T13:33:28Z</time>
      </trkpt>
      <trkpt lat="43.47225" lon="2.38606">
        <ele>561.582</ele>
        <time>2021-05-23T13:33:30Z</time>
      </trkpt>
      <trkpt lat="43.47226" lon="2.38607">
        <ele>561.866</ele>
        <time>2021-05-23T13:33:32Z</time>
      </trkpt>
      <trkpt lat="43.47228" lon="2.38608">
        <ele>562.442</ele>
        <time>2021-05-23T13:33:34Z</time>
      </trkpt>
      <trkpt lat="43.4723" lon="2.3861">
        <ele>561.924</ele>
        <time>2021-05-23T13:33:36Z</time>
      </trkpt>
      <trkpt lat="43.47232" lon="2.38611">
        <ele>564.423</ele>
        <time>2021-05-23T13:33:38Z</time>
      </trkpt>
      <trkpt lat="43.47234" lon="2.38613">
        <ele>564.777</ele>
        <time>2021-05-23T13:33:40Z</time>
      </trkpt>
      <trkpt lat="43.47235" lon="2.38615">
        <ele>564.875</ele>
        <time>2021-05-23T13:33:42Z</time>
      </trkpt>
      <trkpt lat="43.47237" lon="2.38616">
        <ele>563.692</ele>
        <time>2021-05-23T13:33:44Z</time>
      </trkpt>
      <trkpt lat="43.47239" lon="2.38618">
        <ele>563.872</ele>
        <time>2021-05-23T13:33:46Z</time>
      </trkpt>
      <trkpt lat="43.47241" lon="2.38619">
        <ele>564.098</ele>
        <time>2021-05-23T13:33:48Z</time>
      </trkpt>
      <trkpt lat="43.47243" lon="2.3862">
        <ele>564.415</ele>
        <time>2021-05-23T13:33:50Z</time>
      </trkpt>
      <trkpt lat="43.47244" lon="2.38621">
        <ele>564.153</ele>
        <time>2021-05-23T13:33:52Z</time>
      </trkpt>
      <trkpt lat="43.47243" lon="2.38624">
        <ele>562.029</ele>
        <time>2021-05-23T13:33:54Z</time>
      </trkpt>
      <trkpt lat="43.47241" lon="2.38622">
        <ele>558.949</ele>
        <time>2021-05-23T13:33:56Z</time>
      </trkpt>
      <trkpt lat="43.47241" lon="2.3862">
        <ele>559.067</ele>
        <time>2021-05-23T13:33:58Z</time>
      </trkpt>
      <trkpt lat="43.4724" lon="2.38619">
        <ele>559.109</ele>
        <time>2021-05-23T13:34:00Z</time>
      </trkpt>
      <trkpt lat="43.4724" lon="2.38619">
        <ele>559.108</ele>
        <time>2021-05-23T13:34:02Z</time>
      </trkpt>
      <trkpt lat="43.4724" lon="2.38619">
        <ele>558.682</ele>
        <time>2021-05-23T13:34:04Z</time>
      </trkpt>
      <trkpt lat="43.4724" lon="2.38619">
        <ele>557.403</ele>
        <time>2021-05-23T13:34:06Z</time>
      </trkpt>
      <trkpt lat="43.4724" lon="2.38619">
        <ele>557.365</ele>
        <time>2021-05-23T13:34:08Z</time>
      </trkpt>
      <trkpt lat="43.4724" lon="2.38619">
        <ele>557.353</ele>
        <time>2021-05-23T13:34:10Z</time>
      </trkpt>
      <trkpt lat="43.4724" lon="2.38619">
        <ele>557.363</ele>
        <time>2021-05-23T13:34:12Z</time>
      </trkpt>
      <trkpt lat="43.47241" lon="2.3862">
        <ele>557.323</ele>
        <time>2021-05-23T13:34:14Z</time>
      </trkpt>
      <trkpt lat="43.47248" lon="2.38618">
        <ele>559.115</ele>
        <time>2021-05-23T13:34:16Z</time>
      </trkpt>
      <trkpt lat="43.47251" lon="2.38621">
        <ele>558.769</ele>
        <time>2021-05-23T13:34:18Z</time>
      </trkpt>
      <trkpt lat="43.47255" lon="2.38622">
        <ele>558.499</ele>
        <time>2021-05-23T13:34:20Z</time>
      </trkpt>
      <trkpt lat="43.47258" lon="2.38624">
        <ele>557.85</ele>
        <time>2021-05-23T13:34:22Z</time>
      </trkpt>
      <trkpt lat="43.47261" lon="2.38624">
        <ele>559.081</ele>
        <time>2021-05-23T13:34:24Z</time>
      </trkpt>
      <trkpt lat="43.47265" lon="2.38625">
        <ele>559.137</ele>
        <time>2021-05-23T13:34:26Z</time>
      </trkpt>
      <trkpt lat="43.47268" lon="2.38626">
        <ele>559.511</ele>
        <time>2021-05-23T13:34:28Z</time>
      </trkpt>
      <trkpt lat="43.47271" lon="2.38627">
        <ele>558.862</ele>
        <time>2021-05-23T13:34:30Z</time>
      </trkpt>
      <trkpt lat="43.47273" lon="2.38627">
        <ele>559.663</ele>
        <time>2021-05-23T13:34:32Z</time>
      </trkpt>
      <trkpt lat="43.47276" lon="2.38627">
        <ele>559.21</ele>
        <time>2021-05-23T13:34:34Z</time>
      </trkpt>
      <trkpt lat="43.47279" lon="2.38628">
        <ele>558.87</ele>
        <time>2021-05-23T13:34:36Z</time>
      </trkpt>
      <trkpt lat="43.47282" lon="2.38629">
        <ele>560.175</ele>
        <time>2021-05-23T13:34:38Z</time>
      </trkpt>
      <trkpt lat="43.47284" lon="2.3863">
        <ele>559.86</ele>
        <time>2021-05-23T13:34:40Z</time>
      </trkpt>
      <trkpt lat="43.47286" lon="2.3863">
        <ele>558.428</ele>
        <time>2021-05-23T13:34:42Z</time>
      </trkpt>
      <trkpt lat="43.47288" lon="2.3863">
        <ele>558.379</ele>
        <time>2021-05-23T13:34:44Z</time>
      </trkpt>
      <trkpt lat="43.47291" lon="2.38632">
        <ele>557.699</ele>
        <time>2021-05-23T13:34:46Z</time>
      </trkpt>
      <trkpt lat="43.47293" lon="2.38633">
        <ele>555.603</ele>
        <time>2021-05-23T13:34:48Z</time>
      </trkpt>
      <trkpt lat="43.47296" lon="2.38633">
        <ele>555.653</ele>
        <time>2021-05-23T13:34:50Z</time>
      </trkpt>
      <trkpt lat="43.47298" lon="2.38634">
        <ele>555.283</ele>
        <time>2021-05-23T13:34:52Z</time>
      </trkpt>
      <trkpt lat="43.47301" lon="2.38634">
        <ele>555.543</ele>
        <time>2021-05-23T13:34:54Z</time>
      </trkpt>
      <trkpt lat="43.47303" lon="2.38635">
        <ele>555.324</ele>
        <time>2021-05-23T13:34:56Z</time>
      </trkpt>
      <trkpt lat="43.47305" lon="2.38636">
        <ele>555.229</ele>
        <time>2021-05-23T13:34:58Z</time>
      </trkpt>
      <trkpt lat="43.47307" lon="2.38636">
        <ele>555.454</ele>
        <time>2021-05-23T13:35:00Z</time>
      </trkpt>
      <trkpt lat="43.47309" lon="2.38637">
        <ele>553.936</ele>
        <time>2021-05-23T13:35:02Z</time>
      </trkpt>
      <trkpt lat="43.47312" lon="2.38638">
        <ele>554.362</ele>
        <time>2021-05-23T13:35:04Z</time>
      </trkpt>
      <trkpt lat="43.47314" lon="2.38639">
        <ele>553.825</ele>
        <time>2021-05-23T13:35:06Z</time>
      </trkpt>
      <trkpt lat="43.47316" lon="2.3864">
        <ele>554.513</ele>
        <time>2021-05-23T13:35:08Z</time>
      </trkpt>
      <trkpt lat="43.47318" lon="2.38641">
        <ele>554.269</ele>
        <time>2021-05-23T13:35:10Z</time>
      </trkpt>
      <trkpt lat="43.4732" lon="2.38643">
        <ele>553.861</ele>
        <time>2021-05-23T13:35:12Z</time>
      </trkpt>
      <trkpt lat="43.47323" lon="2.38644">
        <ele>553.096</ele>
        <time>2021-05-23T13:35:14Z</time>
      </trkpt>
      <trkpt lat="43.47325" lon="2.38644">
        <ele>553.883</ele>
        <time>2021-05-23T13:35:16Z</time>
      </trkpt>
      <trkpt lat="43.47328" lon="2.38645">
        <ele>552.102</ele>
        <time>2021-05-23T13:35:18Z</time>
      </trkpt>
      <trkpt lat="43.4733" lon="2.38645">
        <ele>552.585</ele>
        <time>2021-05-23T13:35:20Z</time>
      </trkpt>
      <trkpt lat="43.47333" lon="2.38646">
        <ele>552.898</ele>
        <time>2021-05-23T13:35:22Z</time>
      </trkpt>
      <trkpt lat="43.47335" lon="2.38647">
        <ele>553.324</ele>
        <time>2021-05-23T13:35:24Z</time>
      </trkpt>
      <trkpt lat="43.47337" lon="2.38648">
        <ele>553.302</ele>
        <time>2021-05-23T13:35:26Z</time>
      </trkpt>
      <trkpt lat="43.47338" lon="2.38649">
        <ele>551.417</ele>
        <time>2021-05-23T13:35:28Z</time>
      </trkpt>
      <trkpt lat="43.4734" lon="2.38649">
        <ele>551.704</ele>
        <time>2021-05-23T13:35:30Z</time>
      </trkpt>
      <trkpt lat="43.47342" lon="2.3865">
        <ele>551.516</ele>
        <time>2021-05-23T13:35:32Z</time>
      </trkpt>
      <trkpt lat="43.47344" lon="2.38651">
        <ele>552.988</ele>
        <time>2021-05-23T13:35:34Z</time>
      </trkpt>
      <trkpt lat="43.47347" lon="2.38652">
        <ele>552.271</ele>
        <time>2021-05-23T13:35:36Z</time>
      </trkpt>
      <trkpt lat="43.47348" lon="2.38652">
        <ele>550.493</ele>
        <time>2021-05-23T13:35:38Z</time>
      </trkpt>
      <trkpt lat="43.4735" lon="2.38653">
        <ele>550.039</ele>
        <time>2021-05-23T13:35:40Z</time>
      </trkpt>
      <trkpt lat="43.47352" lon="2.38654">
        <ele>549.87</ele>
        <time>2021-05-23T13:35:42Z</time>
      </trkpt>
      <trkpt lat="43.47354" lon="2.38655">
        <ele>548.781</ele>
        <time>2021-05-23T13:35:44Z</time>
      </trkpt>
      <trkpt lat="43.47356" lon="2.38656">
        <ele>548.794</ele>
        <time>2021-05-23T13:35:46Z</time>
      </trkpt>
      <trkpt lat="43.47358" lon="2.38658">
        <ele>548.709</ele>
        <time>2021-05-23T13:35:48Z</time>
      </trkpt>
      <trkpt lat="43.4736" lon="2.38659">
        <ele>548.159</ele>
        <time>2021-05-23T13:35:50Z</time>
      </trkpt>
      <trkpt lat="43.47361" lon="2.38661">
        <ele>547.675</ele>
        <time>2021-05-23T13:35:52Z</time>
      </trkpt>
      <trkpt lat="43.47362" lon="2.38662">
        <ele>548.472</ele>
        <time>2021-05-23T13:35:54Z</time>
      </trkpt>
      <trkpt lat="43.4736" lon="2.38665">
        <ele>547.976</ele>
        <time>2021-05-23T13:35:56Z</time>
      </trkpt>
      <trkpt lat="43.4736" lon="2.38665">
        <ele>547.268</ele>
        <time>2021-05-23T13:35:58Z</time>
      </trkpt>
      <trkpt lat="43.47363" lon="2.38668">
        <ele>548.928</ele>
        <time>2021-05-23T13:36:00Z</time>
      </trkpt>
      <trkpt lat="43.47364" lon="2.38667">
        <ele>547.808</ele>
        <time>2021-05-23T13:36:02Z</time>
      </trkpt>
      <trkpt lat="43.47365" lon="2.3867">
        <ele>548.922</ele>
        <time>2021-05-23T13:36:04Z</time>
      </trkpt>
      <trkpt lat="43.47362" lon="2.38671">
        <ele>547.153</ele>
        <time>2021-05-23T13:36:06Z</time>
      </trkpt>
      <trkpt lat="43.47359" lon="2.38672">
        <ele>545.593</ele>
        <time>2021-05-23T13:36:08Z</time>
      </trkpt>
      <trkpt lat="43.47356" lon="2.38664">
        <ele>544.523</ele>
        <time>2021-05-23T13:36:10Z</time>
      </trkpt>
      <trkpt lat="43.47357" lon="2.38665">
        <ele>541.783</ele>
        <time>2021-05-23T13:36:12Z</time>
      </trkpt>
      <trkpt lat="43.47358" lon="2.38664">
        <ele>539.97</ele>
        <time>2021-05-23T13:36:14Z</time>
      </trkpt>
      <trkpt lat="43.47358" lon="2.38662">
        <ele>538.987</ele>
        <time>2021-05-23T13:36:16Z</time>
      </trkpt>
      <trkpt lat="43.47357" lon="2.3866">
        <ele>537.571</ele>
        <time>2021-05-23T13:36:18Z</time>
      </trkpt>
      <trkpt lat="43.47357" lon="2.38658">
        <ele>536.579</ele>
        <time>2021-05-23T13:36:20Z</time>
      </trkpt>
      <trkpt lat="43.47355" lon="2.38656">
        <ele>535.21</ele>
        <time>2021-05-23T13:36:22Z</time>
      </trkpt>
      <trkpt lat="43.47353" lon="2.38652">
        <ele>536.116</ele>
        <time>2021-05-23T13:36:24Z</time>
      </trkpt>
      <trkpt lat="43.47351" lon="2.38648">
        <ele>536.253</ele>
        <time>2021-05-23T13:36:26Z</time>
      </trkpt>
      <trkpt lat="43.47349" lon="2.38645">
        <ele>536.267</ele>
        <time>2021-05-23T13:36:28Z</time>
      </trkpt>
      <trkpt lat="43.47346" lon="2.38643">
        <ele>535.725</ele>
        <time>2021-05-23T13:36:30Z</time>
      </trkpt>
      <trkpt lat="43.47344" lon="2.3864">
        <ele>535.823</ele>
        <time>2021-05-23T13:36:32Z</time>
      </trkpt>
      <trkpt lat="43.47342" lon="2.38637">
        <ele>535.502</ele>
        <time>2021-05-23T13:36:34Z</time>
      </trkpt>
      <trkpt lat="43.4734" lon="2.38634">
        <ele>534.436</ele>
        <time>2021-05-23T13:36:36Z</time>
      </trkpt>
      <trkpt lat="43.47339" lon="2.38631">
        <ele>533.436</ele>
        <time>2021-05-23T13:36:38Z</time>
      </trkpt>
      <trkpt lat="43.47337" lon="2.38629">
        <ele>531.282</ele>
        <time>2021-05-23T13:36:40Z</time>
      </trkpt>
      <trkpt lat="43.47335" lon="2.38627">
        <ele>532.648</ele>
        <time>2021-05-23T13:36:42Z</time>
      </trkpt>
      <trkpt lat="43.47333" lon="2.38625">
        <ele>532.933</ele>
        <time>2021-05-23T13:36:44Z</time>
      </trkpt>
      <trkpt lat="43.47331" lon="2.38622">
        <ele>531.897</ele>
        <time>2021-05-23T13:36:46Z</time>
      </trkpt>
      <trkpt lat="43.47329" lon="2.38621">
        <ele>532.168</ele>
        <time>2021-05-23T13:36:48Z</time>
      </trkpt>
      <trkpt lat="43.47328" lon="2.3862">
        <ele>531.043</ele>
        <time>2021-05-23T13:36:50Z</time>
      </trkpt>
      <trkpt lat="43.47327" lon="2.38618">
        <ele>531.077</ele>
        <time>2021-05-23T13:36:52Z</time>
      </trkpt>
      <trkpt lat="43.47326" lon="2.38616">
        <ele>531.399</ele>
        <time>2021-05-23T13:36:54Z</time>
      </trkpt>
      <trkpt lat="43.47325" lon="2.38614">
        <ele>531.655</ele>
        <time>2021-05-23T13:36:56Z</time>
      </trkpt>
      <trkpt lat="43.47323" lon="2.38613">
        <ele>531.82</ele>
        <time>2021-05-23T13:36:58Z</time>
      </trkpt>
      <trkpt lat="43.47321" lon="2.38611">
        <ele>531.804</ele>
        <time>2021-05-23T13:37:00Z</time>
      </trkpt>
      <trkpt lat="43.4732" lon="2.38609">
        <ele>530.759</ele>
        <time>2021-05-23T13:37:02Z</time>
      </trkpt>
      <trkpt lat="43.47318" lon="2.38607">
        <ele>531.871</ele>
        <time>2021-05-23T13:37:04Z</time>
      </trkpt>
      <trkpt lat="43.47316" lon="2.38605">
        <ele>532.657</ele>
        <time>2021-05-23T13:37:06Z</time>
      </trkpt>
      <trkpt lat="43.47316" lon="2.38605">
        <ele>531.768</ele>
        <time>2021-05-23T13:37:08Z</time>
      </trkpt>
      <trkpt lat="43.47317" lon="2.38605">
        <ele>532.254</ele>
        <time>2021-05-23T13:37:10Z</time>
      </trkpt>
      <trkpt lat="43.47316" lon="2.38605">
        <ele>531.295</ele>
        <time>2021-05-23T13:37:12Z</time>
      </trkpt>
      <trkpt lat="43.47315" lon="2.38604">
        <ele>529.696</ele>
        <time>2021-05-23T13:37:14Z</time>
      </trkpt>
      <trkpt lat="43.47313" lon="2.38602">
        <ele>529.021</ele>
        <time>2021-05-23T13:37:16Z</time>
      </trkpt>
      <trkpt lat="43.4731" lon="2.386">
        <ele>531.259</ele>
        <time>2021-05-23T13:37:18Z</time>
      </trkpt>
      <trkpt lat="43.47309" lon="2.386">
        <ele>532.655</ele>
        <time>2021-05-23T13:37:20Z</time>
      </trkpt>
      <trkpt lat="43.47308" lon="2.38598">
        <ele>533.553</ele>
        <time>2021-05-23T13:37:21Z</time>
      </trkpt>
      <trkpt lat="43.47305" lon="2.38597">
        <ele>534.096</ele>
        <time>2021-05-23T13:37:24Z</time>
      </trkpt>
      <trkpt lat="43.47303" lon="2.38596">
        <ele>534.983</ele>
        <time>2021-05-23T13:37:26Z</time>
      </trkpt>
      <trkpt lat="43.47302" lon="2.38595">
        <ele>535.973</ele>
        <time>2021-05-23T13:37:28Z</time>
      </trkpt>
      <trkpt lat="43.473" lon="2.38593">
        <ele>535.914</ele>
        <time>2021-05-23T13:37:30Z</time>
      </trkpt>
      <trkpt lat="43.47297" lon="2.38593">
        <ele>535.394</ele>
        <time>2021-05-23T13:37:32Z</time>
      </trkpt>
      <trkpt lat="43.47295" lon="2.38592">
        <ele>534.88</ele>
        <time>2021-05-23T13:37:34Z</time>
      </trkpt>
      <trkpt lat="43.47293" lon="2.3859">
        <ele>535.503</ele>
        <time>2021-05-23T13:37:36Z</time>
      </trkpt>
      <trkpt lat="43.47291" lon="2.38588">
        <ele>535.01</ele>
        <time>2021-05-23T13:37:38Z</time>
      </trkpt>
      <trkpt lat="43.47288" lon="2.38588">
        <ele>534.454</ele>
        <time>2021-05-23T13:37:40Z</time>
      </trkpt>
      <trkpt lat="43.47285" lon="2.38588">
        <ele>534.013</ele>
        <time>2021-05-23T13:37:42Z</time>
      </trkpt>
      <trkpt lat="43.47283" lon="2.38588">
        <ele>534.208</ele>
        <time>2021-05-23T13:37:44Z</time>
      </trkpt>
      <trkpt lat="43.47281" lon="2.38587">
        <ele>533.895</ele>
        <time>2021-05-23T13:37:46Z</time>
      </trkpt>
      <trkpt lat="43.47278" lon="2.38587">
        <ele>533.956</ele>
        <time>2021-05-23T13:37:48Z</time>
      </trkpt>
      <trkpt lat="43.47276" lon="2.38586">
        <ele>534.599</ele>
        <time>2021-05-23T13:37:50Z</time>
      </trkpt>
      <trkpt lat="43.47275" lon="2.38586">
        <ele>535.988</ele>
        <time>2021-05-23T13:37:52Z</time>
      </trkpt>
      <trkpt lat="43.47274" lon="2.38585">
        <ele>537.634</ele>
        <time>2021-05-23T13:37:54Z</time>
      </trkpt>
      <trkpt lat="43.47272" lon="2.38584">
        <ele>538.425</ele>
        <time>2021-05-23T13:37:56Z</time>
      </trkpt>
      <trkpt lat="43.4727" lon="2.38583">
        <ele>537.849</ele>
        <time>2021-05-23T13:37:58Z</time>
      </trkpt>
      <trkpt lat="43.47269" lon="2.38583">
        <ele>537.787</ele>
        <time>2021-05-23T13:38:00Z</time>
      </trkpt>
      <trkpt lat="43.47268" lon="2.38583">
        <ele>538.743</ele>
        <time>2021-05-23T13:38:02Z</time>
      </trkpt>
      <trkpt lat="43.47268" lon="2.38583">
        <ele>538.248</ele>
        <time>2021-05-23T13:38:04Z</time>
      </trkpt>
      <trkpt lat="43.47268" lon="2.38583">
        <ele>538.158</ele>
        <time>2021-05-23T13:38:06Z</time>
      </trkpt>
      <trkpt lat="43.47268" lon="2.38583">
        <ele>538.156</ele>
        <time>2021-05-23T13:38:08Z</time>
      </trkpt>
      <trkpt lat="43.47268" lon="2.38584">
        <ele>538.634</ele>
        <time>2021-05-23T13:38:10Z</time>
      </trkpt>
      <trkpt lat="43.47268" lon="2.38584">
        <ele>538.412</ele>
        <time>2021-05-23T13:38:12Z</time>
      </trkpt>
      <trkpt lat="43.47271" lon="2.38585">
        <ele>539.228</ele>
        <time>2021-05-23T13:38:14Z</time>
      </trkpt>
      <trkpt lat="43.47272" lon="2.38586">
        <ele>538.122</ele>
        <time>2021-05-23T13:38:16Z</time>
      </trkpt>
      <trkpt lat="43.47274" lon="2.38587">
        <ele>537.534</ele>
        <time>2021-05-23T13:38:18Z</time>
      </trkpt>
      <trkpt lat="43.47277" lon="2.38587">
        <ele>538.033</ele>
        <time>2021-05-23T13:38:20Z</time>
      </trkpt>
      <trkpt lat="43.4728" lon="2.38587">
        <ele>539.924</ele>
        <time>2021-05-23T13:38:22Z</time>
      </trkpt>
      <trkpt lat="43.47283" lon="2.38587">
        <ele>539.319</ele>
        <time>2021-05-23T13:38:24Z</time>
      </trkpt>
      <trkpt lat="43.47285" lon="2.38588">
        <ele>538.716</ele>
        <time>2021-05-23T13:38:26Z</time>
      </trkpt>
      <trkpt lat="43.47288" lon="2.3859">
        <ele>538.016</ele>
        <time>2021-05-23T13:38:28Z</time>
      </trkpt>
      <trkpt lat="43.4729" lon="2.38592">
        <ele>538.329</ele>
        <time>2021-05-23T13:38:30Z</time>
      </trkpt>
      <trkpt lat="43.47292" lon="2.38593">
        <ele>535.573</ele>
        <time>2021-05-23T13:38:32Z</time>
      </trkpt>
      <trkpt lat="43.47294" lon="2.38594">
        <ele>534.323</ele>
        <time>2021-05-23T13:38:34Z</time>
      </trkpt>
      <trkpt lat="43.47295" lon="2.38595">
        <ele>533.858</ele>
        <time>2021-05-23T13:38:36Z</time>
      </trkpt>
      <trkpt lat="43.47296" lon="2.38595">
        <ele>534.319</ele>
        <time>2021-05-23T13:38:38Z</time>
      </trkpt>
      <trkpt lat="43.47298" lon="2.38596">
        <ele>534.929</ele>
        <time>2021-05-23T13:38:40Z</time>
      </trkpt>
      <trkpt lat="43.473" lon="2.38597">
        <ele>534.227</ele>
        <time>2021-05-23T13:38:42Z</time>
      </trkpt>
      <trkpt lat="43.47302" lon="2.38598">
        <ele>533.705</ele>
        <time>2021-05-23T13:38:44Z</time>
      </trkpt>
      <trkpt lat="43.47304" lon="2.386">
        <ele>533.403</ele>
        <time>2021-05-23T13:38:46Z</time>
      </trkpt>
      <trkpt lat="43.47306" lon="2.38602">
        <ele>532.045</ele>
        <time>2021-05-23T13:38:48Z</time>
      </trkpt>
      <trkpt lat="43.47307" lon="2.38603">
        <ele>533.196</ele>
        <time>2021-05-23T13:38:50Z</time>
      </trkpt>
      <trkpt lat="43.47309" lon="2.38604">
        <ele>533.04</ele>
        <time>2021-05-23T13:38:52Z</time>
      </trkpt>
      <trkpt lat="43.47311" lon="2.38606">
        <ele>533.944</ele>
        <time>2021-05-23T13:38:54Z</time>
      </trkpt>
      <trkpt lat="43.47313" lon="2.38606">
        <ele>532.273</ele>
        <time>2021-05-23T13:38:56Z</time>
      </trkpt>
      <trkpt lat="43.47315" lon="2.38606">
        <ele>530.851</ele>
        <time>2021-05-23T13:38:58Z</time>
      </trkpt>
      <trkpt lat="43.47316" lon="2.38603">
        <ele>529.744</ele>
        <time>2021-05-23T13:39:00Z</time>
      </trkpt>
      <trkpt lat="43.47315" lon="2.38601">
        <ele>529.575</ele>
        <time>2021-05-23T13:39:02Z</time>
      </trkpt>
      <trkpt lat="43.47314" lon="2.38599">
        <ele>529.199</ele>
        <time>2021-05-23T13:39:04Z</time>
      </trkpt>
      <trkpt lat="43.47312" lon="2.38597">
        <ele>529.085</ele>
        <time>2021-05-23T13:39:06Z</time>
      </trkpt>
      <trkpt lat="43.47311" lon="2.38596">
        <ele>527.805</ele>
        <time>2021-05-23T13:39:08Z</time>
      </trkpt>
      <trkpt lat="43.47309" lon="2.38595">
        <ele>527.866</ele>
        <time>2021-05-23T13:39:10Z</time>
      </trkpt>
      <trkpt lat="43.47308" lon="2.38594">
        <ele>526.005</ele>
        <time>2021-05-23T13:39:12Z</time>
      </trkpt>
      <trkpt lat="43.47306" lon="2.38593">
        <ele>524.985</ele>
        <time>2021-05-23T13:39:14Z</time>
      </trkpt>
      <trkpt lat="43.47304" lon="2.38592">
        <ele>524.42</ele>
        <time>2021-05-23T13:39:16Z</time>
      </trkpt>
      <trkpt lat="43.47302" lon="2.38591">
        <ele>524.288</ele>
        <time>2021-05-23T13:39:18Z</time>
      </trkpt>
      <trkpt lat="43.473" lon="2.38591">
        <ele>524.054</ele>
        <time>2021-05-23T13:39:20Z</time>
      </trkpt>
      <trkpt lat="43.47297" lon="2.38589">
        <ele>524.313</ele>
        <time>2021-05-23T13:39:22Z</time>
      </trkpt>
      <trkpt lat="43.47295" lon="2.38588">
        <ele>522.926</ele>
        <time>2021-05-23T13:39:24Z</time>
      </trkpt>
      <trkpt lat="43.47293" lon="2.38586">
        <ele>521.636</ele>
        <time>2021-05-23T13:39:26Z</time>
      </trkpt>
      <trkpt lat="43.47292" lon="2.38586">
        <ele>521.447</ele>
        <time>2021-05-23T13:39:28Z</time>
      </trkpt>
      <trkpt lat="43.4729" lon="2.38584">
        <ele>520.131</ele>
        <time>2021-05-23T13:39:30Z</time>
      </trkpt>
      <trkpt lat="43.47288" lon="2.38582">
        <ele>519.693</ele>
        <time>2021-05-23T13:39:32Z</time>
      </trkpt>
      <trkpt lat="43.47286" lon="2.38581">
        <ele>518.932</ele>
        <time>2021-05-23T13:39:34Z</time>
      </trkpt>
      <trkpt lat="43.47284" lon="2.3858">
        <ele>518.633</ele>
        <time>2021-05-23T13:39:36Z</time>
      </trkpt>
      <trkpt lat="43.47283" lon="2.38579">
        <ele>518.463</ele>
        <time>2021-05-23T13:39:38Z</time>
      </trkpt>
      <trkpt lat="43.47281" lon="2.38577">
        <ele>517.416</ele>
        <time>2021-05-23T13:39:40Z</time>
      </trkpt>
      <trkpt lat="43.47279" lon="2.38576">
        <ele>517.086</ele>
        <time>2021-05-23T13:39:42Z</time>
      </trkpt>
      <trkpt lat="43.47277" lon="2.38573">
        <ele>518.207</ele>
        <time>2021-05-23T13:39:44Z</time>
      </trkpt>
      <trkpt lat="43.47276" lon="2.3857">
        <ele>517.414</ele>
        <time>2021-05-23T13:39:46Z</time>
      </trkpt>
      <trkpt lat="43.47275" lon="2.38567">
        <ele>517.6</ele>
        <time>2021-05-23T13:39:48Z</time>
      </trkpt>
      <trkpt lat="43.47273" lon="2.38565">
        <ele>516.422</ele>
        <time>2021-05-23T13:39:50Z</time>
      </trkpt>
      <trkpt lat="43.47272" lon="2.38563">
        <ele>515.984</ele>
        <time>2021-05-23T13:39:52Z</time>
      </trkpt>
      <trkpt lat="43.4727" lon="2.38561">
        <ele>514.573</ele>
        <time>2021-05-23T13:39:54Z</time>
      </trkpt>
      <trkpt lat="43.47269" lon="2.38559">
        <ele>514.276</ele>
        <time>2021-05-23T13:39:56Z</time>
      </trkpt>
      <trkpt lat="43.47267" lon="2.38556">
        <ele>512.907</ele>
        <time>2021-05-23T13:39:58Z</time>
      </trkpt>
      <trkpt lat="43.47265" lon="2.38553">
        <ele>512.235</ele>
        <time>2021-05-23T13:40:00Z</time>
      </trkpt>
      <trkpt lat="43.47263" lon="2.38551">
        <ele>511.774</ele>
        <time>2021-05-23T13:40:02Z</time>
      </trkpt>
      <trkpt lat="43.47261" lon="2.38548">
        <ele>510.821</ele>
        <time>2021-05-23T13:40:04Z</time>
      </trkpt>
      <trkpt lat="43.47259" lon="2.38545">
        <ele>510.574</ele>
        <time>2021-05-23T13:40:06Z</time>
      </trkpt>
      <trkpt lat="43.47258" lon="2.38542">
        <ele>509.344</ele>
        <time>2021-05-23T13:40:08Z</time>
      </trkpt>
      <trkpt lat="43.47256" lon="2.38539">
        <ele>509.229</ele>
        <time>2021-05-23T13:40:10Z</time>
      </trkpt>
      <trkpt lat="43.47254" lon="2.38535">
        <ele>510.022</ele>
        <time>2021-05-23T13:40:12Z</time>
      </trkpt>
      <trkpt lat="43.47253" lon="2.38533">
        <ele>509.098</ele>
        <time>2021-05-23T13:40:14Z</time>
      </trkpt>
      <trkpt lat="43.47251" lon="2.3853">
        <ele>509.243</ele>
        <time>2021-05-23T13:40:16Z</time>
      </trkpt>
      <trkpt lat="43.47249" lon="2.38528">
        <ele>508.985</ele>
        <time>2021-05-23T13:40:18Z</time>
      </trkpt>
      <trkpt lat="43.47247" lon="2.38524">
        <ele>509.314</ele>
        <time>2021-05-23T13:40:20Z</time>
      </trkpt>
      <trkpt lat="43.47246" lon="2.38521">
        <ele>509.585</ele>
        <time>2021-05-23T13:40:22Z</time>
      </trkpt>
      <trkpt lat="43.47244" lon="2.38518">
        <ele>509.538</ele>
        <time>2021-05-23T13:40:24Z</time>
      </trkpt>
      <trkpt lat="43.47242" lon="2.38515">
        <ele>509.239</ele>
        <time>2021-05-23T13:40:26Z</time>
      </trkpt>
      <trkpt lat="43.4724" lon="2.38513">
        <ele>507.791</ele>
        <time>2021-05-23T13:40:28Z</time>
      </trkpt>
      <trkpt lat="43.47239" lon="2.38511">
        <ele>506.18</ele>
        <time>2021-05-23T13:40:30Z</time>
      </trkpt>
      <trkpt lat="43.47237" lon="2.38508">
        <ele>506.142</ele>
        <time>2021-05-23T13:40:32Z</time>
      </trkpt>
      <trkpt lat="43.47235" lon="2.38506">
        <ele>505.538</ele>
        <time>2021-05-23T13:40:34Z</time>
      </trkpt>
      <trkpt lat="43.47233" lon="2.38504">
        <ele>504.462</ele>
        <time>2021-05-23T13:40:36Z</time>
      </trkpt>
      <trkpt lat="43.47231" lon="2.38501">
        <ele>505.187</ele>
        <time>2021-05-23T13:40:38Z</time>
      </trkpt>
      <trkpt lat="43.47229" lon="2.38498">
        <ele>505.388</ele>
        <time>2021-05-23T13:40:40Z</time>
      </trkpt>
      <trkpt lat="43.47228" lon="2.38495">
        <ele>505.57</ele>
        <time>2021-05-23T13:40:42Z</time>
      </trkpt>
      <trkpt lat="43.47227" lon="2.38493">
        <ele>505.016</ele>
        <time>2021-05-23T13:40:44Z</time>
      </trkpt>
      <trkpt lat="43.47224" lon="2.38488">
        <ele>506.619</ele>
        <time>2021-05-23T13:40:46Z</time>
      </trkpt>
      <trkpt lat="43.47222" lon="2.38485">
        <ele>505.753</ele>
        <time>2021-05-23T13:40:48Z</time>
      </trkpt>
      <trkpt lat="43.4722" lon="2.38483">
        <ele>504.726</ele>
        <time>2021-05-23T13:40:50Z</time>
      </trkpt>
      <trkpt lat="43.47218" lon="2.38481">
        <ele>504.563</ele>
        <time>2021-05-23T13:40:52Z</time>
      </trkpt>
      <trkpt lat="43.47216" lon="2.38479">
        <ele>504.069</ele>
        <time>2021-05-23T13:40:54Z</time>
      </trkpt>
      <trkpt lat="43.47213" lon="2.38476">
        <ele>504.384</ele>
        <time>2021-05-23T13:40:56Z</time>
      </trkpt>
      <trkpt lat="43.47212" lon="2.38473">
        <ele>503.512</ele>
        <time>2021-05-23T13:40:58Z</time>
      </trkpt>
      <trkpt lat="43.47213" lon="2.3847">
        <ele>503.503</ele>
        <time>2021-05-23T13:41:00Z</time>
      </trkpt>
      <trkpt lat="43.47215" lon="2.38468">
        <ele>504.923</ele>
        <time>2021-05-23T13:41:02Z</time>
      </trkpt>
      <trkpt lat="43.47217" lon="2.38467">
        <ele>506.676</ele>
        <time>2021-05-23T13:41:04Z</time>
      </trkpt>
      <trkpt lat="43.47219" lon="2.38468">
        <ele>506.31</ele>
        <time>2021-05-23T13:41:06Z</time>
      </trkpt>
      <trkpt lat="43.47221" lon="2.3847">
        <ele>505.258</ele>
        <time>2021-05-23T13:41:08Z</time>
      </trkpt>
      <trkpt lat="43.47222" lon="2.38471">
        <ele>505.141</ele>
        <time>2021-05-23T13:41:10Z</time>
      </trkpt>
      <trkpt lat="43.47224" lon="2.38472">
        <ele>505.029</ele>
        <time>2021-05-23T13:41:12Z</time>
      </trkpt>
      <trkpt lat="43.47226" lon="2.38474">
        <ele>505.486</ele>
        <time>2021-05-23T13:41:14Z</time>
      </trkpt>
      <trkpt lat="43.47228" lon="2.38476">
        <ele>504.336</ele>
        <time>2021-05-23T13:41:16Z</time>
      </trkpt>
      <trkpt lat="43.4723" lon="2.38477">
        <ele>502.795</ele>
        <time>2021-05-23T13:41:18Z</time>
      </trkpt>
      <trkpt lat="43.47232" lon="2.38479">
        <ele>503.232</ele>
        <time>2021-05-23T13:41:20Z</time>
      </trkpt>
      <trkpt lat="43.47234" lon="2.3848">
        <ele>502.563</ele>
        <time>2021-05-23T13:41:22Z</time>
      </trkpt>
      <trkpt lat="43.47236" lon="2.38481">
        <ele>503.157</ele>
        <time>2021-05-23T13:41:24Z</time>
      </trkpt>
      <trkpt lat="43.47238" lon="2.38482">
        <ele>503.521</ele>
        <time>2021-05-23T13:41:26Z</time>
      </trkpt>
      <trkpt lat="43.4724" lon="2.38483">
        <ele>504.264</ele>
        <time>2021-05-23T13:41:28Z</time>
      </trkpt>
      <trkpt lat="43.47242" lon="2.38484">
        <ele>504.789</ele>
        <time>2021-05-23T13:41:30Z</time>
      </trkpt>
      <trkpt lat="43.47245" lon="2.38485">
        <ele>503.452</ele>
        <time>2021-05-23T13:41:32Z</time>
      </trkpt>
      <trkpt lat="43.47247" lon="2.38487">
        <ele>503.321</ele>
        <time>2021-05-23T13:41:34Z</time>
      </trkpt>
      <trkpt lat="43.47249" lon="2.38487">
        <ele>503.755</ele>
        <time>2021-05-23T13:41:36Z</time>
      </trkpt>
      <trkpt lat="43.47251" lon="2.38489">
        <ele>504.165</ele>
        <time>2021-05-23T13:41:38Z</time>
      </trkpt>
      <trkpt lat="43.47254" lon="2.38489">
        <ele>504.544</ele>
        <time>2021-05-23T13:41:40Z</time>
      </trkpt>
      <trkpt lat="43.47256" lon="2.3849">
        <ele>503.178</ele>
        <time>2021-05-23T13:41:42Z</time>
      </trkpt>
      <trkpt lat="43.47258" lon="2.3849">
        <ele>502.18</ele>
        <time>2021-05-23T13:41:44Z</time>
      </trkpt>
      <trkpt lat="43.47261" lon="2.38491">
        <ele>500.231</ele>
        <time>2021-05-23T13:41:46Z</time>
      </trkpt>
      <trkpt lat="43.47264" lon="2.38493">
        <ele>501.706</ele>
        <time>2021-05-23T13:41:48Z</time>
      </trkpt>
      <trkpt lat="43.47266" lon="2.38494">
        <ele>501.445</ele>
        <time>2021-05-23T13:41:50Z</time>
      </trkpt>
      <trkpt lat="43.47268" lon="2.38496">
        <ele>502.03</ele>
        <time>2021-05-23T13:41:52Z</time>
      </trkpt>
      <trkpt lat="43.47271" lon="2.38498">
        <ele>502.7</ele>
        <time>2021-05-23T13:41:54Z</time>
      </trkpt>
      <trkpt lat="43.47273" lon="2.385">
        <ele>502.555</ele>
        <time>2021-05-23T13:41:56Z</time>
      </trkpt>
      <trkpt lat="43.47275" lon="2.38502">
        <ele>502.491</ele>
        <time>2021-05-23T13:41:58Z</time>
      </trkpt>
      <trkpt lat="43.47276" lon="2.38503">
        <ele>502.524</ele>
        <time>2021-05-23T13:42:00Z</time>
      </trkpt>
      <trkpt lat="43.47278" lon="2.38504">
        <ele>502.557</ele>
        <time>2021-05-23T13:42:02Z</time>
      </trkpt>
      <trkpt lat="43.4728" lon="2.38505">
        <ele>502.939</ele>
        <time>2021-05-23T13:42:04Z</time>
      </trkpt>
      <trkpt lat="43.47282" lon="2.38506">
        <ele>503.077</ele>
        <time>2021-05-23T13:42:06Z</time>
      </trkpt>
      <trkpt lat="43.47283" lon="2.38508">
        <ele>503.121</ele>
        <time>2021-05-23T13:42:08Z</time>
      </trkpt>
      <trkpt lat="43.47285" lon="2.3851">
        <ele>502.288</ele>
        <time>2021-05-23T13:42:10Z</time>
      </trkpt>
      <trkpt lat="43.47287" lon="2.38511">
        <ele>502.869</ele>
        <time>2021-05-23T13:42:12Z</time>
      </trkpt>
      <trkpt lat="43.47289" lon="2.38512">
        <ele>502.449</ele>
        <time>2021-05-23T13:42:14Z</time>
      </trkpt>
      <trkpt lat="43.47291" lon="2.38513">
        <ele>503.577</ele>
        <time>2021-05-23T13:42:16Z</time>
      </trkpt>
      <trkpt lat="43.47294" lon="2.38512">
        <ele>504.798</ele>
        <time>2021-05-23T13:42:18Z</time>
      </trkpt>
      <trkpt lat="43.47296" lon="2.38513">
        <ele>504.917</ele>
        <time>2021-05-23T13:42:20Z</time>
      </trkpt>
      <trkpt lat="43.47298" lon="2.38513">
        <ele>504.607</ele>
        <time>2021-05-23T13:42:22Z</time>
      </trkpt>
      <trkpt lat="43.47301" lon="2.38513">
        <ele>504.393</ele>
        <time>2021-05-23T13:42:24Z</time>
      </trkpt>
      <trkpt lat="43.47303" lon="2.38514">
        <ele>504.648</ele>
        <time>2021-05-23T13:42:26Z</time>
      </trkpt>
      <trkpt lat="43.47305" lon="2.38514">
        <ele>503.447</ele>
        <time>2021-05-23T13:42:28Z</time>
      </trkpt>
      <trkpt lat="43.47308" lon="2.38514">
        <ele>506.269</ele>
        <time>2021-05-23T13:42:30Z</time>
      </trkpt>
      <trkpt lat="43.4731" lon="2.38515">
        <ele>505.674</ele>
        <time>2021-05-23T13:42:32Z</time>
      </trkpt>
      <trkpt lat="43.47313" lon="2.38517">
        <ele>502.19</ele>
        <time>2021-05-23T13:42:34Z</time>
      </trkpt>
      <trkpt lat="43.47315" lon="2.38518">
        <ele>500.293</ele>
        <time>2021-05-23T13:42:36Z</time>
      </trkpt>
      <trkpt lat="43.47318" lon="2.38518">
        <ele>499.118</ele>
        <time>2021-05-23T13:42:38Z</time>
      </trkpt>
      <trkpt lat="43.47321" lon="2.38519">
        <ele>497.891</ele>
        <time>2021-05-23T13:42:40Z</time>
      </trkpt>
      <trkpt lat="43.47323" lon="2.3852">
        <ele>497.427</ele>
        <time>2021-05-23T13:42:42Z</time>
      </trkpt>
      <trkpt lat="43.47325" lon="2.38521">
        <ele>497.876</ele>
        <time>2021-05-23T13:42:44Z</time>
      </trkpt>
      <trkpt lat="43.47328" lon="2.38522">
        <ele>497.309</ele>
        <time>2021-05-23T13:42:46Z</time>
      </trkpt>
      <trkpt lat="43.47331" lon="2.38522">
        <ele>497.731</ele>
        <time>2021-05-23T13:42:48Z</time>
      </trkpt>
      <trkpt lat="43.47333" lon="2.38522">
        <ele>496.806</ele>
        <time>2021-05-23T13:42:50Z</time>
      </trkpt>
      <trkpt lat="43.47335" lon="2.38522">
        <ele>496.992</ele>
        <time>2021-05-23T13:42:52Z</time>
      </trkpt>
      <trkpt lat="43.47337" lon="2.38523">
        <ele>496.773</ele>
        <time>2021-05-23T13:42:54Z</time>
      </trkpt>
      <trkpt lat="43.47339" lon="2.38524">
        <ele>496.248</ele>
        <time>2021-05-23T13:42:56Z</time>
      </trkpt>
      <trkpt lat="43.47341" lon="2.38525">
        <ele>495.822</ele>
        <time>2021-05-23T13:42:58Z</time>
      </trkpt>
      <trkpt lat="43.47342" lon="2.38526">
        <ele>495.296</ele>
        <time>2021-05-23T13:43:00Z</time>
      </trkpt>
      <trkpt lat="43.47343" lon="2.38527">
        <ele>493.946</ele>
        <time>2021-05-23T13:43:02Z</time>
      </trkpt>
      <trkpt lat="43.47344" lon="2.38527">
        <ele>493.785</ele>
        <time>2021-05-23T13:43:04Z</time>
      </trkpt>
      <trkpt lat="43.47344" lon="2.38526">
        <ele>493.798</ele>
        <time>2021-05-23T13:43:06Z</time>
      </trkpt>
      <trkpt lat="43.47344" lon="2.38526">
        <ele>493.779</ele>
        <time>2021-05-23T13:43:08Z</time>
      </trkpt>
      <trkpt lat="43.47344" lon="2.38526">
        <ele>493.822</ele>
        <time>2021-05-23T13:43:10Z</time>
      </trkpt>
      <trkpt lat="43.47344" lon="2.38526">
        <ele>492.529</ele>
        <time>2021-05-23T13:43:12Z</time>
      </trkpt>
      <trkpt lat="43.47344" lon="2.38526">
        <ele>492.536</ele>
        <time>2021-05-23T13:43:14Z</time>
      </trkpt>
      <trkpt lat="43.47344" lon="2.38526">
        <ele>492.524</ele>
        <time>2021-05-23T13:43:16Z</time>
      </trkpt>
      <trkpt lat="43.47344" lon="2.38526">
        <ele>492.519</ele>
        <time>2021-05-23T13:43:18Z</time>
      </trkpt>
      <trkpt lat="43.47344" lon="2.38526">
        <ele>492.5</ele>
        <time>2021-05-23T13:43:20Z</time>
      </trkpt>
      <trkpt lat="43.47344" lon="2.38526">
        <ele>492.491</ele>
        <time>2021-05-23T13:43:22Z</time>
      </trkpt>
      <trkpt lat="43.47344" lon="2.38526">
        <ele>492.485</ele>
        <time>2021-05-23T13:43:24Z</time>
      </trkpt>
      <trkpt lat="43.47344" lon="2.38526">
        <ele>492.474</ele>
        <time>2021-05-23T13:43:26Z</time>
      </trkpt>
      <trkpt lat="43.47344" lon="2.38526">
        <ele>492.487</ele>
        <time>2021-05-23T13:43:28Z</time>
      </trkpt>
      <trkpt lat="43.47344" lon="2.38526">
        <ele>492.475</ele>
        <time>2021-05-23T13:43:30Z</time>
      </trkpt>
      <trkpt lat="43.47344" lon="2.38526">
        <ele>492.507</ele>
        <time>2021-05-23T13:43:32Z</time>
      </trkpt>
      <trkpt lat="43.47344" lon="2.38526">
        <ele>492.509</ele>
        <time>2021-05-23T13:43:34Z</time>
      </trkpt>
      <trkpt lat="43.47344" lon="2.38526">
        <ele>492.514</ele>
        <time>2021-05-23T13:43:36Z</time>
      </trkpt>
      <trkpt lat="43.47344" lon="2.38526">
        <ele>492.525</ele>
        <time>2021-05-23T13:43:38Z</time>
      </trkpt>
      <trkpt lat="43.47344" lon="2.38526">
        <ele>492.386</ele>
        <time>2021-05-23T13:43:40Z</time>
      </trkpt>
      <trkpt lat="43.47344" lon="2.38526">
        <ele>492.863</ele>
        <time>2021-05-23T13:43:42Z</time>
      </trkpt>
      <trkpt lat="43.47345" lon="2.38526">
        <ele>493.433</ele>
        <time>2021-05-23T13:43:44Z</time>
      </trkpt>
      <trkpt lat="43.47347" lon="2.38527">
        <ele>494.136</ele>
        <time>2021-05-23T13:43:46Z</time>
      </trkpt>
      <trkpt lat="43.47349" lon="2.38526">
        <ele>494.22</ele>
        <time>2021-05-23T13:43:48Z</time>
      </trkpt>
      <trkpt lat="43.47351" lon="2.38528">
        <ele>494.54</ele>
        <time>2021-05-23T13:43:50Z</time>
      </trkpt>
      <trkpt lat="43.47353" lon="2.38528">
        <ele>494.14</ele>
        <time>2021-05-23T13:43:52Z</time>
      </trkpt>
      <trkpt lat="43.47353" lon="2.38527">
        <ele>494.021</ele>
        <time>2021-05-23T13:43:54Z</time>
      </trkpt>
      <trkpt lat="43.47353" lon="2.38527">
        <ele>494.023</ele>
        <time>2021-05-23T13:43:56Z</time>
      </trkpt>
      <trkpt lat="43.47353" lon="2.38527">
        <ele>494.024</ele>
        <time>2021-05-23T13:43:58Z</time>
      </trkpt>
      <trkpt lat="43.47353" lon="2.38527">
        <ele>494.02</ele>
        <time>2021-05-23T13:44:00Z</time>
      </trkpt>
      <trkpt lat="43.47353" lon="2.38527">
        <ele>494.014</ele>
        <time>2021-05-23T13:44:02Z</time>
      </trkpt>
      <trkpt lat="43.47353" lon="2.38527">
        <ele>494.003</ele>
        <time>2021-05-23T13:44:04Z</time>
      </trkpt>
      <trkpt lat="43.47353" lon="2.38527">
        <ele>494.343</ele>
        <time>2021-05-23T13:44:06Z</time>
      </trkpt>
      <trkpt lat="43.47352" lon="2.38527">
        <ele>494.245</ele>
        <time>2021-05-23T13:44:08Z</time>
      </trkpt>
      <trkpt lat="43.47351" lon="2.38527">
        <ele>493.469</ele>
        <time>2021-05-23T13:44:10Z</time>
      </trkpt>
      <trkpt lat="43.47352" lon="2.38527">
        <ele>495.031</ele>
        <time>2021-05-23T13:44:12Z</time>
      </trkpt>
      <trkpt lat="43.47354" lon="2.38527">
        <ele>495.381</ele>
        <time>2021-05-23T13:44:14Z</time>
      </trkpt>
      <trkpt lat="43.47354" lon="2.38527">
        <ele>496.304</ele>
        <time>2021-05-23T13:44:16Z</time>
      </trkpt>
      <trkpt lat="43.47354" lon="2.38527">
        <ele>496.304</ele>
        <time>2021-05-23T13:44:18Z</time>
      </trkpt>
      <trkpt lat="43.47354" lon="2.38527">
        <ele>496.316</ele>
        <time>2021-05-23T13:44:20Z</time>
      </trkpt>
      <trkpt lat="43.47354" lon="2.38527">
        <ele>496.31</ele>
        <time>2021-05-23T13:44:22Z</time>
      </trkpt>
      <trkpt lat="43.47354" lon="2.38527">
        <ele>496.299</ele>
        <time>2021-05-23T13:44:24Z</time>
      </trkpt>
      <trkpt lat="43.47354" lon="2.38527">
        <ele>496.309</ele>
        <time>2021-05-23T13:44:26Z</time>
      </trkpt>
      <trkpt lat="43.47354" lon="2.38527">
        <ele>496.27</ele>
        <time>2021-05-23T13:44:28Z</time>
      </trkpt>
      <trkpt lat="43.47354" lon="2.38527">
        <ele>496.238</ele>
        <time>2021-05-23T13:44:30Z</time>
      </trkpt>
      <trkpt lat="43.47354" lon="2.38527">
        <ele>496.234</ele>
        <time>2021-05-23T13:44:32Z</time>
      </trkpt>
      <trkpt lat="43.47354" lon="2.38527">
        <ele>495.748</ele>
        <time>2021-05-23T13:44:34Z</time>
      </trkpt>
      <trkpt lat="43.47354" lon="2.38527">
        <ele>496.218</ele>
        <time>2021-05-23T13:44:36Z</time>
      </trkpt>
      <trkpt lat="43.47354" lon="2.38528">
        <ele>496.011</ele>
        <time>2021-05-23T13:44:39Z</time>
      </trkpt>
      <trkpt lat="43.47354" lon="2.38528">
        <ele>496.01</ele>
        <time>2021-05-23T13:44:41Z</time>
      </trkpt>
      <trkpt lat="43.47354" lon="2.38528">
        <ele>496.006</ele>
        <time>2021-05-23T13:44:43Z</time>
      </trkpt>
      <trkpt lat="43.47354" lon="2.38528">
        <ele>496.003</ele>
        <time>2021-05-23T13:44:45Z</time>
      </trkpt>
      <trkpt lat="43.47354" lon="2.38528">
        <ele>496.016</ele>
        <time>2021-05-23T13:44:47Z</time>
      </trkpt>
      <trkpt lat="43.47354" lon="2.38528">
        <ele>496.019</ele>
        <time>2021-05-23T13:44:49Z</time>
      </trkpt>
      <trkpt lat="43.47354" lon="2.38528">
        <ele>496.021</ele>
        <time>2021-05-23T13:44:51Z</time>
      </trkpt>
      <trkpt lat="43.47355" lon="2.38528">
        <ele>495.951</ele>
        <time>2021-05-23T13:44:53Z</time>
      </trkpt>
      <trkpt lat="43.47357" lon="2.38527">
        <ele>495.54</ele>
        <time>2021-05-23T13:44:55Z</time>
      </trkpt>
      <trkpt lat="43.47359" lon="2.38527">
        <ele>496.096</ele>
        <time>2021-05-23T13:44:57Z</time>
      </trkpt>
      <trkpt lat="43.47361" lon="2.38528">
        <ele>495.112</ele>
        <time>2021-05-23T13:44:59Z</time>
      </trkpt>
      <trkpt lat="43.47363" lon="2.38526">
        <ele>494.804</ele>
        <time>2021-05-23T13:45:01Z</time>
      </trkpt>
      <trkpt lat="43.47363" lon="2.38525">
        <ele>495.145</ele>
        <time>2021-05-23T13:45:03Z</time>
      </trkpt>
      <trkpt lat="43.47363" lon="2.38525">
        <ele>495.139</ele>
        <time>2021-05-23T13:45:05Z</time>
      </trkpt>
      <trkpt lat="43.47363" lon="2.38525">
        <ele>495.147</ele>
        <time>2021-05-23T13:45:07Z</time>
      </trkpt>
      <trkpt lat="43.47363" lon="2.38526">
        <ele>495.266</ele>
        <time>2021-05-23T13:45:09Z</time>
      </trkpt>
      <trkpt lat="43.47366" lon="2.38523">
        <ele>495.96</ele>
        <time>2021-05-23T13:45:11Z</time>
      </trkpt>
      <trkpt lat="43.47369" lon="2.38525">
        <ele>497.94</ele>
        <time>2021-05-23T13:45:13Z</time>
      </trkpt>
      <trkpt lat="43.47372" lon="2.38526">
        <ele>498.165</ele>
        <time>2021-05-23T13:45:15Z</time>
      </trkpt>
      <trkpt lat="43.47375" lon="2.38527">
        <ele>497.781</ele>
        <time>2021-05-23T13:45:17Z</time>
      </trkpt>
      <trkpt lat="43.47377" lon="2.38529">
        <ele>498.274</ele>
        <time>2021-05-23T13:45:19Z</time>
      </trkpt>
      <trkpt lat="43.47379" lon="2.38529">
        <ele>498.062</ele>
        <time>2021-05-23T13:45:21Z</time>
      </trkpt>
      <trkpt lat="43.47381" lon="2.3853">
        <ele>497.879</ele>
        <time>2021-05-23T13:45:23Z</time>
      </trkpt>
      <trkpt lat="43.47383" lon="2.38531">
        <ele>496.067</ele>
        <time>2021-05-23T13:45:25Z</time>
      </trkpt>
      <trkpt lat="43.47385" lon="2.38531">
        <ele>496.554</ele>
        <time>2021-05-23T13:45:27Z</time>
      </trkpt>
      <trkpt lat="43.47387" lon="2.38531">
        <ele>496.71</ele>
        <time>2021-05-23T13:45:29Z</time>
      </trkpt>
      <trkpt lat="43.47389" lon="2.38531">
        <ele>497.353</ele>
        <time>2021-05-23T13:45:31Z</time>
      </trkpt>
      <trkpt lat="43.47392" lon="2.38532">
        <ele>494.701</ele>
        <time>2021-05-23T13:45:33Z</time>
      </trkpt>
      <trkpt lat="43.47394" lon="2.38532">
        <ele>493.777</ele>
        <time>2021-05-23T13:45:35Z</time>
      </trkpt>
      <trkpt lat="43.47395" lon="2.38532">
        <ele>491.348</ele>
        <time>2021-05-23T13:45:37Z</time>
      </trkpt>
      <trkpt lat="43.47397" lon="2.38532">
        <ele>491.913</ele>
        <time>2021-05-23T13:45:39Z</time>
      </trkpt>
      <trkpt lat="43.47399" lon="2.38532">
        <ele>492.311</ele>
        <time>2021-05-23T13:45:41Z</time>
      </trkpt>
      <trkpt lat="43.47401" lon="2.38532">
        <ele>492.191</ele>
        <time>2021-05-23T13:45:43Z</time>
      </trkpt>
      <trkpt lat="43.47403" lon="2.3853">
        <ele>489.252</ele>
        <time>2021-05-23T13:45:45Z</time>
      </trkpt>
      <trkpt lat="43.47405" lon="2.3853">
        <ele>487.902</ele>
        <time>2021-05-23T13:45:47Z</time>
      </trkpt>
      <trkpt lat="43.47407" lon="2.3853">
        <ele>488.266</ele>
        <time>2021-05-23T13:45:49Z</time>
      </trkpt>
      <trkpt lat="43.47408" lon="2.3853">
        <ele>488.389</ele>
        <time>2021-05-23T13:45:51Z</time>
      </trkpt>
      <trkpt lat="43.4741" lon="2.3853">
        <ele>488.047</ele>
        <time>2021-05-23T13:45:53Z</time>
      </trkpt>
      <trkpt lat="43.47412" lon="2.3853">
        <ele>486.704</ele>
        <time>2021-05-23T13:45:55Z</time>
      </trkpt>
      <trkpt lat="43.47414" lon="2.38531">
        <ele>484.969</ele>
        <time>2021-05-23T13:45:57Z</time>
      </trkpt>
      <trkpt lat="43.47416" lon="2.3853">
        <ele>482.259</ele>
        <time>2021-05-23T13:45:59Z</time>
      </trkpt>
      <trkpt lat="43.47418" lon="2.3853">
        <ele>481.59</ele>
        <time>2021-05-23T13:46:01Z</time>
      </trkpt>
      <trkpt lat="43.4742" lon="2.38531">
        <ele>480.916</ele>
        <time>2021-05-23T13:46:03Z</time>
      </trkpt>
      <trkpt lat="43.47423" lon="2.38531">
        <ele>479.459</ele>
        <time>2021-05-23T13:46:05Z</time>
      </trkpt>
      <trkpt lat="43.47425" lon="2.38532">
        <ele>480.417</ele>
        <time>2021-05-23T13:46:07Z</time>
      </trkpt>
      <trkpt lat="43.47427" lon="2.38532">
        <ele>479.373</ele>
        <time>2021-05-23T13:46:09Z</time>
      </trkpt>
      <trkpt lat="43.47429" lon="2.38534">
        <ele>481.968</ele>
        <time>2021-05-23T13:46:11Z</time>
      </trkpt>
      <trkpt lat="43.47431" lon="2.38535">
        <ele>482.741</ele>
        <time>2021-05-23T13:46:13Z</time>
      </trkpt>
      <trkpt lat="43.47433" lon="2.38536">
        <ele>481.371</ele>
        <time>2021-05-23T13:46:15Z</time>
      </trkpt>
      <trkpt lat="43.47436" lon="2.38536">
        <ele>483.458</ele>
        <time>2021-05-23T13:46:17Z</time>
      </trkpt>
      <trkpt lat="43.47438" lon="2.38537">
        <ele>482.302</ele>
        <time>2021-05-23T13:46:19Z</time>
      </trkpt>
      <trkpt lat="43.4744" lon="2.38538">
        <ele>480.685</ele>
        <time>2021-05-23T13:46:21Z</time>
      </trkpt>
      <trkpt lat="43.47443" lon="2.3854">
        <ele>480.064</ele>
        <time>2021-05-23T13:46:23Z</time>
      </trkpt>
      <trkpt lat="43.47445" lon="2.38541">
        <ele>477.808</ele>
        <time>2021-05-23T13:46:25Z</time>
      </trkpt>
      <trkpt lat="43.47448" lon="2.38543">
        <ele>479.134</ele>
        <time>2021-05-23T13:46:27Z</time>
      </trkpt>
      <trkpt lat="43.4745" lon="2.38544">
        <ele>478.08</ele>
        <time>2021-05-23T13:46:29Z</time>
      </trkpt>
      <trkpt lat="43.47452" lon="2.38545">
        <ele>477.07</ele>
        <time>2021-05-23T13:46:31Z</time>
      </trkpt>
      <trkpt lat="43.47454" lon="2.38547">
        <ele>475.297</ele>
        <time>2021-05-23T13:46:33Z</time>
      </trkpt>
      <trkpt lat="43.47456" lon="2.38549">
        <ele>475.89</ele>
        <time>2021-05-23T13:46:35Z</time>
      </trkpt>
      <trkpt lat="43.47458" lon="2.3855">
        <ele>475.346</ele>
        <time>2021-05-23T13:46:37Z</time>
      </trkpt>
      <trkpt lat="43.47461" lon="2.38552">
        <ele>476.53</ele>
        <time>2021-05-23T13:46:39Z</time>
      </trkpt>
      <trkpt lat="43.47463" lon="2.38554">
        <ele>474.77</ele>
        <time>2021-05-23T13:46:41Z</time>
      </trkpt>
      <trkpt lat="43.47467" lon="2.38556">
        <ele>474.485</ele>
        <time>2021-05-23T13:46:43Z</time>
      </trkpt>
      <trkpt lat="43.47469" lon="2.38558">
        <ele>476.205</ele>
        <time>2021-05-23T13:46:45Z</time>
      </trkpt>
      <trkpt lat="43.47471" lon="2.3856">
        <ele>475.523</ele>
        <time>2021-05-23T13:46:47Z</time>
      </trkpt>
      <trkpt lat="43.47473" lon="2.38562">
        <ele>475.077</ele>
        <time>2021-05-23T13:46:49Z</time>
      </trkpt>
      <trkpt lat="43.47476" lon="2.38564">
        <ele>474.649</ele>
        <time>2021-05-23T13:46:51Z</time>
      </trkpt>
      <trkpt lat="43.47478" lon="2.38565">
        <ele>474.466</ele>
        <time>2021-05-23T13:46:53Z</time>
      </trkpt>
      <trkpt lat="43.4748" lon="2.38566">
        <ele>474.609</ele>
        <time>2021-05-23T13:46:55Z</time>
      </trkpt>
      <trkpt lat="43.47482" lon="2.38567">
        <ele>474.625</ele>
        <time>2021-05-23T13:46:57Z</time>
      </trkpt>
      <trkpt lat="43.47485" lon="2.38566">
        <ele>475.066</ele>
        <time>2021-05-23T13:46:59Z</time>
      </trkpt>
      <trkpt lat="43.47487" lon="2.38567">
        <ele>472.245</ele>
        <time>2021-05-23T13:47:01Z</time>
      </trkpt>
      <trkpt lat="43.47488" lon="2.38568">
        <ele>471.705</ele>
        <time>2021-05-23T13:47:03Z</time>
      </trkpt>
      <trkpt lat="43.4749" lon="2.38569">
        <ele>471.707</ele>
        <time>2021-05-23T13:47:05Z</time>
      </trkpt>
      <trkpt lat="43.47492" lon="2.38571">
        <ele>469.735</ele>
        <time>2021-05-23T13:47:07Z</time>
      </trkpt>
      <trkpt lat="43.47494" lon="2.38573">
        <ele>468.726</ele>
        <time>2021-05-23T13:47:09Z</time>
      </trkpt>
      <trkpt lat="43.47495" lon="2.38575">
        <ele>467.41</ele>
        <time>2021-05-23T13:47:11Z</time>
      </trkpt>
      <trkpt lat="43.47497" lon="2.38577">
        <ele>466.376</ele>
        <time>2021-05-23T13:47:13Z</time>
      </trkpt>
      <trkpt lat="43.47499" lon="2.38579">
        <ele>464.946</ele>
        <time>2021-05-23T13:47:15Z</time>
      </trkpt>
      <trkpt lat="43.475" lon="2.38581">
        <ele>463.103</ele>
        <time>2021-05-23T13:47:17Z</time>
      </trkpt>
      <trkpt lat="43.47502" lon="2.38583">
        <ele>462.312</ele>
        <time>2021-05-23T13:47:19Z</time>
      </trkpt>
      <trkpt lat="43.47504" lon="2.38584">
        <ele>462.421</ele>
        <time>2021-05-23T13:47:21Z</time>
      </trkpt>
      <trkpt lat="43.47506" lon="2.38583">
        <ele>463.13</ele>
        <time>2021-05-23T13:47:23Z</time>
      </trkpt>
      <trkpt lat="43.47506" lon="2.38582">
        <ele>463.87</ele>
        <time>2021-05-23T13:47:25Z</time>
      </trkpt>
      <trkpt lat="43.47506" lon="2.3858">
        <ele>462.704</ele>
        <time>2021-05-23T13:47:27Z</time>
      </trkpt>
      <trkpt lat="43.47505" lon="2.38577">
        <ele>462.18</ele>
        <time>2021-05-23T13:47:29Z</time>
      </trkpt>
      <trkpt lat="43.47504" lon="2.38575">
        <ele>461.088</ele>
        <time>2021-05-23T13:47:31Z</time>
      </trkpt>
      <trkpt lat="43.47503" lon="2.38573">
        <ele>459.512</ele>
        <time>2021-05-23T13:47:33Z</time>
      </trkpt>
      <trkpt lat="43.47502" lon="2.38571">
        <ele>458.882</ele>
        <time>2021-05-23T13:47:35Z</time>
      </trkpt>
      <trkpt lat="43.47501" lon="2.3857">
        <ele>458.562</ele>
        <time>2021-05-23T13:47:37Z</time>
      </trkpt>
      <trkpt lat="43.475" lon="2.38567">
        <ele>457.792</ele>
        <time>2021-05-23T13:47:39Z</time>
      </trkpt>
      <trkpt lat="43.47499" lon="2.38565">
        <ele>457.546</ele>
        <time>2021-05-23T13:47:41Z</time>
      </trkpt>
      <trkpt lat="43.47498" lon="2.38563">
        <ele>456.763</ele>
        <time>2021-05-23T13:47:43Z</time>
      </trkpt>
      <trkpt lat="43.47497" lon="2.38561">
        <ele>456.012</ele>
        <time>2021-05-23T13:47:45Z</time>
      </trkpt>
      <trkpt lat="43.47496" lon="2.38558">
        <ele>454.946</ele>
        <time>2021-05-23T13:47:47Z</time>
      </trkpt>
      <trkpt lat="43.47494" lon="2.38556">
        <ele>453.855</ele>
        <time>2021-05-23T13:47:49Z</time>
      </trkpt>
      <trkpt lat="43.47493" lon="2.38554">
        <ele>452.976</ele>
        <time>2021-05-23T13:47:51Z</time>
      </trkpt>
      <trkpt lat="43.47492" lon="2.38552">
        <ele>452.209</ele>
        <time>2021-05-23T13:47:53Z</time>
      </trkpt>
      <trkpt lat="43.47491" lon="2.38549">
        <ele>451.74</ele>
        <time>2021-05-23T13:47:55Z</time>
      </trkpt>
      <trkpt lat="43.4749" lon="2.38546">
        <ele>452.392</ele>
        <time>2021-05-23T13:47:57Z</time>
      </trkpt>
      <trkpt lat="43.47489" lon="2.38543">
        <ele>452.541</ele>
        <time>2021-05-23T13:47:59Z</time>
      </trkpt>
      <trkpt lat="43.47488" lon="2.3854">
        <ele>452.484</ele>
        <time>2021-05-23T13:48:01Z</time>
      </trkpt>
      <trkpt lat="43.47487" lon="2.38539">
        <ele>452.561</ele>
        <time>2021-05-23T13:48:03Z</time>
      </trkpt>
      <trkpt lat="43.47486" lon="2.38537">
        <ele>452.237</ele>
        <time>2021-05-23T13:48:05Z</time>
      </trkpt>
      <trkpt lat="43.47484" lon="2.38535">
        <ele>452.23</ele>
        <time>2021-05-23T13:48:07Z</time>
      </trkpt>
      <trkpt lat="43.47483" lon="2.38532">
        <ele>450.375</ele>
        <time>2021-05-23T13:48:09Z</time>
      </trkpt>
      <trkpt lat="43.47481" lon="2.3853">
        <ele>449.539</ele>
        <time>2021-05-23T13:48:11Z</time>
      </trkpt>
      <trkpt lat="43.47481" lon="2.38526">
        <ele>449.143</ele>
        <time>2021-05-23T13:48:13Z</time>
      </trkpt>
      <trkpt lat="43.4748" lon="2.38523">
        <ele>448.846</ele>
        <time>2021-05-23T13:48:15Z</time>
      </trkpt>
      <trkpt lat="43.47478" lon="2.38521">
        <ele>447.936</ele>
        <time>2021-05-23T13:48:17Z</time>
      </trkpt>
      <trkpt lat="43.47478" lon="2.38518">
        <ele>447.154</ele>
        <time>2021-05-23T13:48:19Z</time>
      </trkpt>
      <trkpt lat="43.47477" lon="2.38515">
        <ele>445.6</ele>
        <time>2021-05-23T13:48:21Z</time>
      </trkpt>
      <trkpt lat="43.47476" lon="2.38512">
        <ele>444.805</ele>
        <time>2021-05-23T13:48:23Z</time>
      </trkpt>
      <trkpt lat="43.47475" lon="2.38509">
        <ele>443.45</ele>
        <time>2021-05-23T13:48:25Z</time>
      </trkpt>
      <trkpt lat="43.47474" lon="2.38506">
        <ele>441.458</ele>
        <time>2021-05-23T13:48:27Z</time>
      </trkpt>
      <trkpt lat="43.47473" lon="2.38504">
        <ele>440.236</ele>
        <time>2021-05-23T13:48:29Z</time>
      </trkpt>
      <trkpt lat="43.47471" lon="2.38501">
        <ele>438.883</ele>
        <time>2021-05-23T13:48:31Z</time>
      </trkpt>
      <trkpt lat="43.4747" lon="2.38498">
        <ele>437.136</ele>
        <time>2021-05-23T13:48:33Z</time>
      </trkpt>
      <trkpt lat="43.47469" lon="2.38496">
        <ele>436.496</ele>
        <time>2021-05-23T13:48:35Z</time>
      </trkpt>
      <trkpt lat="43.47468" lon="2.38492">
        <ele>438.935</ele>
        <time>2021-05-23T13:48:37Z</time>
      </trkpt>
      <trkpt lat="43.47466" lon="2.38489">
        <ele>437.808</ele>
        <time>2021-05-23T13:48:39Z</time>
      </trkpt>
      <trkpt lat="43.47465" lon="2.38487">
        <ele>437.145</ele>
        <time>2021-05-23T13:48:41Z</time>
      </trkpt>
      <trkpt lat="43.47462" lon="2.38486">
        <ele>436.623</ele>
        <time>2021-05-23T13:48:43Z</time>
      </trkpt>
      <trkpt lat="43.4746" lon="2.38483">
        <ele>436.558</ele>
        <time>2021-05-23T13:48:45Z</time>
      </trkpt>
      <trkpt lat="43.47458" lon="2.3848">
        <ele>437.29</ele>
        <time>2021-05-23T13:48:47Z</time>
      </trkpt>
      <trkpt lat="43.47456" lon="2.38476">
        <ele>438.034</ele>
        <time>2021-05-23T13:48:49Z</time>
      </trkpt>
      <trkpt lat="43.47454" lon="2.38473">
        <ele>437.484</ele>
        <time>2021-05-23T13:48:51Z</time>
      </trkpt>
      <trkpt lat="43.47452" lon="2.38471">
        <ele>437.306</ele>
        <time>2021-05-23T13:48:53Z</time>
      </trkpt>
      <trkpt lat="43.47449" lon="2.38469">
        <ele>437.63</ele>
        <time>2021-05-23T13:48:55Z</time>
      </trkpt>
      <trkpt lat="43.47447" lon="2.38467">
        <ele>437.775</ele>
        <time>2021-05-23T13:48:57Z</time>
      </trkpt>
      <trkpt lat="43.47445" lon="2.38465">
        <ele>436.309</ele>
        <time>2021-05-23T13:48:59Z</time>
      </trkpt>
      <trkpt lat="43.47443" lon="2.38464">
        <ele>436.886</ele>
        <time>2021-05-23T13:49:01Z</time>
      </trkpt>
      <trkpt lat="43.47441" lon="2.38462">
        <ele>435.884</ele>
        <time>2021-05-23T13:49:03Z</time>
      </trkpt>
      <trkpt lat="43.47439" lon="2.3846">
        <ele>434.853</ele>
        <time>2021-05-23T13:49:05Z</time>
      </trkpt>
      <trkpt lat="43.47437" lon="2.38457">
        <ele>436.244</ele>
        <time>2021-05-23T13:49:07Z</time>
      </trkpt>
      <trkpt lat="43.47434" lon="2.38456">
        <ele>435.992</ele>
        <time>2021-05-23T13:49:09Z</time>
      </trkpt>
      <trkpt lat="43.47432" lon="2.38455">
        <ele>435.728</ele>
        <time>2021-05-23T13:49:11Z</time>
      </trkpt>
      <trkpt lat="43.47429" lon="2.38453">
        <ele>435.267</ele>
        <time>2021-05-23T13:49:13Z</time>
      </trkpt>
      <trkpt lat="43.47427" lon="2.38451">
        <ele>436.116</ele>
        <time>2021-05-23T13:49:15Z</time>
      </trkpt>
      <trkpt lat="43.47424" lon="2.38449">
        <ele>435.293</ele>
        <time>2021-05-23T13:49:17Z</time>
      </trkpt>
      <trkpt lat="43.47422" lon="2.38449">
        <ele>434.802</ele>
        <time>2021-05-23T13:49:19Z</time>
      </trkpt>
      <trkpt lat="43.4742" lon="2.38447">
        <ele>433.453</ele>
        <time>2021-05-23T13:49:21Z</time>
      </trkpt>
      <trkpt lat="43.47418" lon="2.38446">
        <ele>432.474</ele>
        <time>2021-05-23T13:49:23Z</time>
      </trkpt>
      <trkpt lat="43.47415" lon="2.38444">
        <ele>433.627</ele>
        <time>2021-05-23T13:49:25Z</time>
      </trkpt>
      <trkpt lat="43.47413" lon="2.38443">
        <ele>432.761</ele>
        <time>2021-05-23T13:49:27Z</time>
      </trkpt>
      <trkpt lat="43.47411" lon="2.38441">
        <ele>432.646</ele>
        <time>2021-05-23T13:49:29Z</time>
      </trkpt>
      <trkpt lat="43.47409" lon="2.38438">
        <ele>433.063</ele>
        <time>2021-05-23T13:49:31Z</time>
      </trkpt>
      <trkpt lat="43.47406" lon="2.38436">
        <ele>431.807</ele>
        <time>2021-05-23T13:49:33Z</time>
      </trkpt>
      <trkpt lat="43.47404" lon="2.38435">
        <ele>430.964</ele>
        <time>2021-05-23T13:49:35Z</time>
      </trkpt>
      <trkpt lat="43.47402" lon="2.38434">
        <ele>430.522</ele>
        <time>2021-05-23T13:49:37Z</time>
      </trkpt>
      <trkpt lat="43.474" lon="2.38433">
        <ele>428.943</ele>
        <time>2021-05-23T13:49:39Z</time>
      </trkpt>
      <trkpt lat="43.47398" lon="2.38431">
        <ele>428.393</ele>
        <time>2021-05-23T13:49:41Z</time>
      </trkpt>
      <trkpt lat="43.47396" lon="2.38429">
        <ele>428.017</ele>
        <time>2021-05-23T13:49:43Z</time>
      </trkpt>
      <trkpt lat="43.47394" lon="2.38427">
        <ele>428.117</ele>
        <time>2021-05-23T13:49:45Z</time>
      </trkpt>
      <trkpt lat="43.47392" lon="2.38426">
        <ele>429.7</ele>
        <time>2021-05-23T13:49:47Z</time>
      </trkpt>
      <trkpt lat="43.4739" lon="2.38425">
        <ele>428.59</ele>
        <time>2021-05-23T13:49:49Z</time>
      </trkpt>
      <trkpt lat="43.47388" lon="2.38422">
        <ele>429.183</ele>
        <time>2021-05-23T13:49:51Z</time>
      </trkpt>
      <trkpt lat="43.47386" lon="2.3842">
        <ele>428.709</ele>
        <time>2021-05-23T13:49:53Z</time>
      </trkpt>
      <trkpt lat="43.47385" lon="2.38419">
        <ele>428.186</ele>
        <time>2021-05-23T13:49:55Z</time>
      </trkpt>
      <trkpt lat="43.47383" lon="2.38417">
        <ele>428.158</ele>
        <time>2021-05-23T13:49:57Z</time>
      </trkpt>
      <trkpt lat="43.47381" lon="2.38414">
        <ele>428.961</ele>
        <time>2021-05-23T13:49:59Z</time>
      </trkpt>
      <trkpt lat="43.47379" lon="2.38412">
        <ele>430.469</ele>
        <time>2021-05-23T13:50:01Z</time>
      </trkpt>
      <trkpt lat="43.47378" lon="2.3841">
        <ele>431.713</ele>
        <time>2021-05-23T13:50:03Z</time>
      </trkpt>
      <trkpt lat="43.47376" lon="2.38407">
        <ele>433.056</ele>
        <time>2021-05-23T13:50:05Z</time>
      </trkpt>
      <trkpt lat="43.47375" lon="2.38405">
        <ele>433.35</ele>
        <time>2021-05-23T13:50:07Z</time>
      </trkpt>
      <trkpt lat="43.47373" lon="2.38403">
        <ele>432.538</ele>
        <time>2021-05-23T13:50:09Z</time>
      </trkpt>
      <trkpt lat="43.47372" lon="2.38401">
        <ele>432.85</ele>
        <time>2021-05-23T13:50:11Z</time>
      </trkpt>
      <trkpt lat="43.47371" lon="2.38399">
        <ele>432.794</ele>
        <time>2021-05-23T13:50:13Z</time>
      </trkpt>
      <trkpt lat="43.4737" lon="2.38396">
        <ele>434.314</ele>
        <time>2021-05-23T13:50:15Z</time>
      </trkpt>
      <trkpt lat="43.47369" lon="2.38394">
        <ele>434.487</ele>
        <time>2021-05-23T13:50:17Z</time>
      </trkpt>
      <trkpt lat="43.47367" lon="2.38393">
        <ele>434.799</ele>
        <time>2021-05-23T13:50:19Z</time>
      </trkpt>
      <trkpt lat="43.47365" lon="2.38392">
        <ele>434.73</ele>
        <time>2021-05-23T13:50:21Z</time>
      </trkpt>
      <trkpt lat="43.47366" lon="2.38389">
        <ele>436.162</ele>
        <time>2021-05-23T13:50:23Z</time>
      </trkpt>
      <trkpt lat="43.47367" lon="2.38389">
        <ele>436.471</ele>
        <time>2021-05-23T13:50:25Z</time>
      </trkpt>
      <trkpt lat="43.47367" lon="2.38389">
        <ele>436.469</ele>
        <time>2021-05-23T13:50:27Z</time>
      </trkpt>
      <trkpt lat="43.47367" lon="2.38389">
        <ele>436.476</ele>
        <time>2021-05-23T13:50:29Z</time>
      </trkpt>
      <trkpt lat="43.47367" lon="2.38389">
        <ele>436.489</ele>
        <time>2021-05-23T13:50:31Z</time>
      </trkpt>
      <trkpt lat="43.47367" lon="2.38389">
        <ele>436.477</ele>
        <time>2021-05-23T13:50:33Z</time>
      </trkpt>
      <trkpt lat="43.47367" lon="2.38389">
        <ele>436.476</ele>
        <time>2021-05-23T13:50:35Z</time>
      </trkpt>
      <trkpt lat="43.47367" lon="2.38389">
        <ele>436.483</ele>
        <time>2021-05-23T13:50:37Z</time>
      </trkpt>
      <trkpt lat="43.47367" lon="2.38389">
        <ele>436.5</ele>
        <time>2021-05-23T13:50:39Z</time>
      </trkpt>
      <trkpt lat="43.47367" lon="2.38389">
        <ele>436.51</ele>
        <time>2021-05-23T13:50:41Z</time>
      </trkpt>
      <trkpt lat="43.47367" lon="2.38389">
        <ele>436.505</ele>
        <time>2021-05-23T13:50:43Z</time>
      </trkpt>
      <trkpt lat="43.47367" lon="2.38389">
        <ele>436.513</ele>
        <time>2021-05-23T13:50:45Z</time>
      </trkpt>
      <trkpt lat="43.47367" lon="2.38389">
        <ele>436.527</ele>
        <time>2021-05-23T13:50:47Z</time>
      </trkpt>
      <trkpt lat="43.47367" lon="2.38389">
        <ele>437.104</ele>
        <time>2021-05-23T13:50:49Z</time>
      </trkpt>
      <trkpt lat="43.47367" lon="2.38389">
        <ele>437.107</ele>
        <time>2021-05-23T13:50:51Z</time>
      </trkpt>
      <trkpt lat="43.47367" lon="2.38389">
        <ele>437.098</ele>
        <time>2021-05-23T13:50:53Z</time>
      </trkpt>
      <trkpt lat="43.47367" lon="2.38389">
        <ele>437.101</ele>
        <time>2021-05-23T13:50:55Z</time>
      </trkpt>
      <trkpt lat="43.47367" lon="2.38389">
        <ele>437.1</ele>
        <time>2021-05-23T13:50:57Z</time>
      </trkpt>
      <trkpt lat="43.47367" lon="2.38389">
        <ele>437.099</ele>
        <time>2021-05-23T13:50:59Z</time>
      </trkpt>
      <trkpt lat="43.47367" lon="2.38389">
        <ele>437.092</ele>
        <time>2021-05-23T13:51:01Z</time>
      </trkpt>
      <trkpt lat="43.47367" lon="2.38389">
        <ele>437.086</ele>
        <time>2021-05-23T13:51:03Z</time>
      </trkpt>
      <trkpt lat="43.47367" lon="2.38389">
        <ele>436.997</ele>
        <time>2021-05-23T13:51:05Z</time>
      </trkpt>
      <trkpt lat="43.47368" lon="2.38387">
        <ele>435.579</ele>
        <time>2021-05-23T13:51:07Z</time>
      </trkpt>
      <trkpt lat="43.4737" lon="2.38389">
        <ele>435.179</ele>
        <time>2021-05-23T13:51:09Z</time>
      </trkpt>
      <trkpt lat="43.47371" lon="2.38391">
        <ele>436.655</ele>
        <time>2021-05-23T13:51:11Z</time>
      </trkpt>
      <trkpt lat="43.47372" lon="2.38392">
        <ele>435.796</ele>
        <time>2021-05-23T13:51:13Z</time>
      </trkpt>
      <trkpt lat="43.47372" lon="2.38392">
        <ele>435.78</ele>
        <time>2021-05-23T13:51:15Z</time>
      </trkpt>
      <trkpt lat="43.47372" lon="2.38391">
        <ele>436.977</ele>
        <time>2021-05-23T13:51:17Z</time>
      </trkpt>
      <trkpt lat="43.47373" lon="2.3839">
        <ele>436.968</ele>
        <time>2021-05-23T13:51:19Z</time>
      </trkpt>
      <trkpt lat="43.47373" lon="2.3839">
        <ele>436.961</ele>
        <time>2021-05-23T13:51:21Z</time>
      </trkpt>
      <trkpt lat="43.47373" lon="2.3839">
        <ele>436.964</ele>
        <time>2021-05-23T13:51:23Z</time>
      </trkpt>
      <trkpt lat="43.47373" lon="2.3839">
        <ele>436.952</ele>
        <time>2021-05-23T13:51:25Z</time>
      </trkpt>
      <trkpt lat="43.47373" lon="2.3839">
        <ele>436.582</ele>
        <time>2021-05-23T13:51:27Z</time>
      </trkpt>
      <trkpt lat="43.47373" lon="2.3839">
        <ele>436.548</ele>
        <time>2021-05-23T13:51:29Z</time>
      </trkpt>
      <trkpt lat="43.47374" lon="2.3839">
        <ele>436.713</ele>
        <time>2021-05-23T13:51:31Z</time>
      </trkpt>
      <trkpt lat="43.47375" lon="2.38391">
        <ele>436.51</ele>
        <time>2021-05-23T13:51:33Z</time>
      </trkpt>
      <trkpt lat="43.47375" lon="2.38391">
        <ele>436.971</ele>
        <time>2021-05-23T13:51:35Z</time>
      </trkpt>
      <trkpt lat="43.47375" lon="2.38391">
        <ele>437.004</ele>
        <time>2021-05-23T13:51:37Z</time>
      </trkpt>
      <trkpt lat="43.47375" lon="2.38391">
        <ele>436.977</ele>
        <time>2021-05-23T13:51:39Z</time>
      </trkpt>
      <trkpt lat="43.47374" lon="2.38391">
        <ele>437.67</ele>
        <time>2021-05-23T13:51:41Z</time>
      </trkpt>
      <trkpt lat="43.47372" lon="2.38391">
        <ele>437.75</ele>
        <time>2021-05-23T13:51:43Z</time>
      </trkpt>
      <trkpt lat="43.4737" lon="2.38387">
        <ele>438.452</ele>
        <time>2021-05-23T13:51:45Z</time>
      </trkpt>
      <trkpt lat="43.47368" lon="2.38388">
        <ele>437.932</ele>
        <time>2021-05-23T13:51:47Z</time>
      </trkpt>
      <trkpt lat="43.47366" lon="2.38391">
        <ele>437.414</ele>
        <time>2021-05-23T13:51:49Z</time>
      </trkpt>
      <trkpt lat="43.47366" lon="2.38391">
        <ele>437.396</ele>
        <time>2021-05-23T13:51:51Z</time>
      </trkpt>
      <trkpt lat="43.47365" lon="2.38393">
        <ele>437.355</ele>
        <time>2021-05-23T13:51:53Z</time>
      </trkpt>
      <trkpt lat="43.47365" lon="2.38394">
        <ele>437.269</ele>
        <time>2021-05-23T13:51:55Z</time>
      </trkpt>
      <trkpt lat="43.47365" lon="2.38393">
        <ele>438.695</ele>
        <time>2021-05-23T13:51:57Z</time>
      </trkpt>
      <trkpt lat="43.47365" lon="2.38391">
        <ele>437.109</ele>
        <time>2021-05-23T13:51:59Z</time>
      </trkpt>
      <trkpt lat="43.47365" lon="2.38389">
        <ele>436.76</ele>
        <time>2021-05-23T13:52:01Z</time>
      </trkpt>
      <trkpt lat="43.47362" lon="2.3839">
        <ele>435.383</ele>
        <time>2021-05-23T13:52:03Z</time>
      </trkpt>
      <trkpt lat="43.47362" lon="2.38388">
        <ele>434.408</ele>
        <time>2021-05-23T13:52:05Z</time>
      </trkpt>
      <trkpt lat="43.47361" lon="2.38385">
        <ele>433.866</ele>
        <time>2021-05-23T13:52:07Z</time>
      </trkpt>
      <trkpt lat="43.47362" lon="2.38383">
        <ele>432.323</ele>
        <time>2021-05-23T13:52:09Z</time>
      </trkpt>
      <trkpt lat="43.47361" lon="2.38381">
        <ele>431.618</ele>
        <time>2021-05-23T13:52:11Z</time>
      </trkpt>
      <trkpt lat="43.47363" lon="2.38378">
        <ele>431.731</ele>
        <time>2021-05-23T13:52:13Z</time>
      </trkpt>
      <trkpt lat="43.47364" lon="2.38377">
        <ele>430.996</ele>
        <time>2021-05-23T13:52:15Z</time>
      </trkpt>
      <trkpt lat="43.47365" lon="2.38375">
        <ele>433.044</ele>
        <time>2021-05-23T13:52:17Z</time>
      </trkpt>
      <trkpt lat="43.47367" lon="2.38373">
        <ele>433.668</ele>
        <time>2021-05-23T13:52:19Z</time>
      </trkpt>
      <trkpt lat="43.4737" lon="2.38373">
        <ele>432.935</ele>
        <time>2021-05-23T13:52:21Z</time>
      </trkpt>
      <trkpt lat="43.47372" lon="2.38372">
        <ele>432.734</ele>
        <time>2021-05-23T13:52:23Z</time>
      </trkpt>
      <trkpt lat="43.47374" lon="2.38372">
        <ele>432.853</ele>
        <time>2021-05-23T13:52:25Z</time>
      </trkpt>
      <trkpt lat="43.47376" lon="2.3837">
        <ele>432.022</ele>
        <time>2021-05-23T13:52:27Z</time>
      </trkpt>
      <trkpt lat="43.47377" lon="2.38369">
        <ele>431.924</ele>
        <time>2021-05-23T13:52:29Z</time>
      </trkpt>
      <trkpt lat="43.47379" lon="2.38367">
        <ele>433.614</ele>
        <time>2021-05-23T13:52:31Z</time>
      </trkpt>
      <trkpt lat="43.47381" lon="2.38365">
        <ele>433.396</ele>
        <time>2021-05-23T13:52:33Z</time>
      </trkpt>
      <trkpt lat="43.47382" lon="2.38363">
        <ele>432.366</ele>
        <time>2021-05-23T13:52:35Z</time>
      </trkpt>
      <trkpt lat="43.47383" lon="2.38361">
        <ele>430.87</ele>
        <time>2021-05-23T13:52:37Z</time>
      </trkpt>
      <trkpt lat="43.47385" lon="2.3836">
        <ele>431.449</ele>
        <time>2021-05-23T13:52:39Z</time>
      </trkpt>
      <trkpt lat="43.47386" lon="2.38358">
        <ele>429.858</ele>
        <time>2021-05-23T13:52:41Z</time>
      </trkpt>
      <trkpt lat="43.47387" lon="2.38356">
        <ele>430.365</ele>
        <time>2021-05-23T13:52:43Z</time>
      </trkpt>
      <trkpt lat="43.47389" lon="2.38354">
        <ele>431.022</ele>
        <time>2021-05-23T13:52:45Z</time>
      </trkpt>
      <trkpt lat="43.4739" lon="2.38351">
        <ele>430.574</ele>
        <time>2021-05-23T13:52:47Z</time>
      </trkpt>
      <trkpt lat="43.4739" lon="2.38348">
        <ele>429.949</ele>
        <time>2021-05-23T13:52:49Z</time>
      </trkpt>
      <trkpt lat="43.47392" lon="2.38346">
        <ele>431.57</ele>
        <time>2021-05-23T13:52:51Z</time>
      </trkpt>
      <trkpt lat="43.47393" lon="2.38343">
        <ele>431.434</ele>
        <time>2021-05-23T13:52:53Z</time>
      </trkpt>
      <trkpt lat="43.47395" lon="2.3834">
        <ele>429.922</ele>
        <time>2021-05-23T13:52:55Z</time>
      </trkpt>
      <trkpt lat="43.47395" lon="2.38335">
        <ele>428.594</ele>
        <time>2021-05-23T13:52:57Z</time>
      </trkpt>
      <trkpt lat="43.47397" lon="2.38332">
        <ele>428.312</ele>
        <time>2021-05-23T13:52:59Z</time>
      </trkpt>
      <trkpt lat="43.47399" lon="2.38331">
        <ele>428.177</ele>
        <time>2021-05-23T13:53:01Z</time>
      </trkpt>
      <trkpt lat="43.47398" lon="2.3833">
        <ele>427.378</ele>
        <time>2021-05-23T13:53:03Z</time>
      </trkpt>
      <trkpt lat="43.47399" lon="2.38327">
        <ele>426.497</ele>
        <time>2021-05-23T13:53:05Z</time>
      </trkpt>
      <trkpt lat="43.474" lon="2.38324">
        <ele>425.901</ele>
        <time>2021-05-23T13:53:07Z</time>
      </trkpt>
      <trkpt lat="43.474" lon="2.38322">
        <ele>424.023</ele>
        <time>2021-05-23T13:53:09Z</time>
      </trkpt>
      <trkpt lat="43.47401" lon="2.3832">
        <ele>423.125</ele>
        <time>2021-05-23T13:53:11Z</time>
      </trkpt>
      <trkpt lat="43.47402" lon="2.38318">
        <ele>422.382</ele>
        <time>2021-05-23T13:53:13Z</time>
      </trkpt>
      <trkpt lat="43.47402" lon="2.38315">
        <ele>422.582</ele>
        <time>2021-05-23T13:53:15Z</time>
      </trkpt>
      <trkpt lat="43.47403" lon="2.38312">
        <ele>421.375</ele>
        <time>2021-05-23T13:53:17Z</time>
      </trkpt>
      <trkpt lat="43.47403" lon="2.38308">
        <ele>420.988</ele>
        <time>2021-05-23T13:53:19Z</time>
      </trkpt>
      <trkpt lat="43.47405" lon="2.38306">
        <ele>422.146</ele>
        <time>2021-05-23T13:53:21Z</time>
      </trkpt>
      <trkpt lat="43.47406" lon="2.38304">
        <ele>420.708</ele>
        <time>2021-05-23T13:53:23Z</time>
      </trkpt>
      <trkpt lat="43.47407" lon="2.38301">
        <ele>419.824</ele>
        <time>2021-05-23T13:53:25Z</time>
      </trkpt>
      <trkpt lat="43.47408" lon="2.38299">
        <ele>419.664</ele>
        <time>2021-05-23T13:53:27Z</time>
      </trkpt>
      <trkpt lat="43.47409" lon="2.38296">
        <ele>417.868</ele>
        <time>2021-05-23T13:53:29Z</time>
      </trkpt>
      <trkpt lat="43.47409" lon="2.38293">
        <ele>416.278</ele>
        <time>2021-05-23T13:53:31Z</time>
      </trkpt>
      <trkpt lat="43.4741" lon="2.3829">
        <ele>415.538</ele>
        <time>2021-05-23T13:53:33Z</time>
      </trkpt>
      <trkpt lat="43.47411" lon="2.38288">
        <ele>414.909</ele>
        <time>2021-05-23T13:53:35Z</time>
      </trkpt>
      <trkpt lat="43.47412" lon="2.38285">
        <ele>415.037</ele>
        <time>2021-05-23T13:53:37Z</time>
      </trkpt>
      <trkpt lat="43.47413" lon="2.38283">
        <ele>413.57</ele>
        <time>2021-05-23T13:53:39Z</time>
      </trkpt>
      <trkpt lat="43.47414" lon="2.3828">
        <ele>412.582</ele>
        <time>2021-05-23T13:53:41Z</time>
      </trkpt>
      <trkpt lat="43.47415" lon="2.38278">
        <ele>411.325</ele>
        <time>2021-05-23T13:53:43Z</time>
      </trkpt>
      <trkpt lat="43.47416" lon="2.38276">
        <ele>410.763</ele>
        <time>2021-05-23T13:53:45Z</time>
      </trkpt>
      <trkpt lat="43.47417" lon="2.38273">
        <ele>412.272</ele>
        <time>2021-05-23T13:53:47Z</time>
      </trkpt>
      <trkpt lat="43.47419" lon="2.38271">
        <ele>413.376</ele>
        <time>2021-05-23T13:53:49Z</time>
      </trkpt>
      <trkpt lat="43.47421" lon="2.3827">
        <ele>413.047</ele>
        <time>2021-05-23T13:53:51Z</time>
      </trkpt>
      <trkpt lat="43.47423" lon="2.38268">
        <ele>413.97</ele>
        <time>2021-05-23T13:53:53Z</time>
      </trkpt>
      <trkpt lat="43.47424" lon="2.38266">
        <ele>412.889</ele>
        <time>2021-05-23T13:53:55Z</time>
      </trkpt>
      <trkpt lat="43.47426" lon="2.38263">
        <ele>413.229</ele>
        <time>2021-05-23T13:53:57Z</time>
      </trkpt>
      <trkpt lat="43.47426" lon="2.3826">
        <ele>413.062</ele>
        <time>2021-05-23T13:53:59Z</time>
      </trkpt>
      <trkpt lat="43.47426" lon="2.38257">
        <ele>413.562</ele>
        <time>2021-05-23T13:54:01Z</time>
      </trkpt>
      <trkpt lat="43.47428" lon="2.38254">
        <ele>415.315</ele>
        <time>2021-05-23T13:54:03Z</time>
      </trkpt>
      <trkpt lat="43.47428" lon="2.38251">
        <ele>415.07</ele>
        <time>2021-05-23T13:54:05Z</time>
      </trkpt>
      <trkpt lat="43.47428" lon="2.38248">
        <ele>413.596</ele>
        <time>2021-05-23T13:54:07Z</time>
      </trkpt>
      <trkpt lat="43.47429" lon="2.38245">
        <ele>413.888</ele>
        <time>2021-05-23T13:54:09Z</time>
      </trkpt>
      <trkpt lat="43.47429" lon="2.38242">
        <ele>413.31</ele>
        <time>2021-05-23T13:54:11Z</time>
      </trkpt>
      <trkpt lat="43.47429" lon="2.3824">
        <ele>414.477</ele>
        <time>2021-05-23T13:54:13Z</time>
      </trkpt>
      <trkpt lat="43.47429" lon="2.38238">
        <ele>413.856</ele>
        <time>2021-05-23T13:54:15Z</time>
      </trkpt>
      <trkpt lat="43.47429" lon="2.38236">
        <ele>414.055</ele>
        <time>2021-05-23T13:54:17Z</time>
      </trkpt>
      <trkpt lat="43.47429" lon="2.38233">
        <ele>413.894</ele>
        <time>2021-05-23T13:54:19Z</time>
      </trkpt>
      <trkpt lat="43.47429" lon="2.38234">
        <ele>412.953</ele>
        <time>2021-05-23T13:54:21Z</time>
      </trkpt>
      <trkpt lat="43.47429" lon="2.38233">
        <ele>413.511</ele>
        <time>2021-05-23T13:54:23Z</time>
      </trkpt>
      <trkpt lat="43.47429" lon="2.38231">
        <ele>412.724</ele>
        <time>2021-05-23T13:54:25Z</time>
      </trkpt>
      <trkpt lat="43.47429" lon="2.38231">
        <ele>412.764</ele>
        <time>2021-05-23T13:54:27Z</time>
      </trkpt>
      <trkpt lat="43.47429" lon="2.38231">
        <ele>412.782</ele>
        <time>2021-05-23T13:54:29Z</time>
      </trkpt>
      <trkpt lat="43.4743" lon="2.3823">
        <ele>413.333</ele>
        <time>2021-05-23T13:54:31Z</time>
      </trkpt>
      <trkpt lat="43.47431" lon="2.38228">
        <ele>414.412</ele>
        <time>2021-05-23T13:54:33Z</time>
      </trkpt>
      <trkpt lat="43.47431" lon="2.38228">
        <ele>414.388</ele>
        <time>2021-05-23T13:54:35Z</time>
      </trkpt>
      <trkpt lat="43.47431" lon="2.38228">
        <ele>414.39</ele>
        <time>2021-05-23T13:54:37Z</time>
      </trkpt>
      <trkpt lat="43.47431" lon="2.38228">
        <ele>414.389</ele>
        <time>2021-05-23T13:54:39Z</time>
      </trkpt>
      <trkpt lat="43.47431" lon="2.38228">
        <ele>414.381</ele>
        <time>2021-05-23T13:54:41Z</time>
      </trkpt>
      <trkpt lat="43.4743" lon="2.38227">
        <ele>414.497</ele>
        <time>2021-05-23T13:54:43Z</time>
      </trkpt>
      <trkpt lat="43.47429" lon="2.38227">
        <ele>414.562</ele>
        <time>2021-05-23T13:54:45Z</time>
      </trkpt>
      <trkpt lat="43.47429" lon="2.38226">
        <ele>414.446</ele>
        <time>2021-05-23T13:54:47Z</time>
      </trkpt>
      <trkpt lat="43.47429" lon="2.38226">
        <ele>414.157</ele>
        <time>2021-05-23T13:54:49Z</time>
      </trkpt>
      <trkpt lat="43.47429" lon="2.38226">
        <ele>414.03</ele>
        <time>2021-05-23T13:54:51Z</time>
      </trkpt>
      <trkpt lat="43.47429" lon="2.38226">
        <ele>414.029</ele>
        <time>2021-05-23T13:54:53Z</time>
      </trkpt>
      <trkpt lat="43.47429" lon="2.38226">
        <ele>414.028</ele>
        <time>2021-05-23T13:54:55Z</time>
      </trkpt>
      <trkpt lat="43.47429" lon="2.38226">
        <ele>414.028</ele>
        <time>2021-05-23T13:54:57Z</time>
      </trkpt>
      <trkpt lat="43.47429" lon="2.38226">
        <ele>414.03</ele>
        <time>2021-05-23T13:54:59Z</time>
      </trkpt>
      <trkpt lat="43.47429" lon="2.38226">
        <ele>413.353</ele>
        <time>2021-05-23T13:55:01Z</time>
      </trkpt>
      <trkpt lat="43.47429" lon="2.38225">
        <ele>413.385</ele>
        <time>2021-05-23T13:55:03Z</time>
      </trkpt>
      <trkpt lat="43.4743" lon="2.38223">
        <ele>413.003</ele>
        <time>2021-05-23T13:55:05Z</time>
      </trkpt>
      <trkpt lat="43.47433" lon="2.38225">
        <ele>413.484</ele>
        <time>2021-05-23T13:55:07Z</time>
      </trkpt>
      <trkpt lat="43.47434" lon="2.38228">
        <ele>413.243</ele>
        <time>2021-05-23T13:55:09Z</time>
      </trkpt>
      <trkpt lat="43.47435" lon="2.38231">
        <ele>413.286</ele>
        <time>2021-05-23T13:55:11Z</time>
      </trkpt>
      <trkpt lat="43.47435" lon="2.38234">
        <ele>413.683</ele>
        <time>2021-05-23T13:55:13Z</time>
      </trkpt>
      <trkpt lat="43.47434" lon="2.38237">
        <ele>413.984</ele>
        <time>2021-05-23T13:55:15Z</time>
      </trkpt>
      <trkpt lat="43.47435" lon="2.3824">
        <ele>413.381</ele>
        <time>2021-05-23T13:55:17Z</time>
      </trkpt>
      <trkpt lat="43.47435" lon="2.38243">
        <ele>412.828</ele>
        <time>2021-05-23T13:55:19Z</time>
      </trkpt>
      <trkpt lat="43.47436" lon="2.38245">
        <ele>413.908</ele>
        <time>2021-05-23T13:55:21Z</time>
      </trkpt>
      <trkpt lat="43.47437" lon="2.38247">
        <ele>413.139</ele>
        <time>2021-05-23T13:55:23Z</time>
      </trkpt>
      <trkpt lat="43.47438" lon="2.38249">
        <ele>413.488</ele>
        <time>2021-05-23T13:55:25Z</time>
      </trkpt>
      <trkpt lat="43.47438" lon="2.38251">
        <ele>412.257</ele>
        <time>2021-05-23T13:55:27Z</time>
      </trkpt>
      <trkpt lat="43.47439" lon="2.38252">
        <ele>413.042</ele>
        <time>2021-05-23T13:55:29Z</time>
      </trkpt>
      <trkpt lat="43.4744" lon="2.38254">
        <ele>412.67</ele>
        <time>2021-05-23T13:55:31Z</time>
      </trkpt>
      <trkpt lat="43.47441" lon="2.38255">
        <ele>411.468</ele>
        <time>2021-05-23T13:55:33Z</time>
      </trkpt>
      <trkpt lat="43.47442" lon="2.38257">
        <ele>411.089</ele>
        <time>2021-05-23T13:55:35Z</time>
      </trkpt>
      <trkpt lat="43.47441" lon="2.3826">
        <ele>411.564</ele>
        <time>2021-05-23T13:55:37Z</time>
      </trkpt>
      <trkpt lat="43.47441" lon="2.38263">
        <ele>411.033</ele>
        <time>2021-05-23T13:55:39Z</time>
      </trkpt>
      <trkpt lat="43.47441" lon="2.38265">
        <ele>410.746</ele>
        <time>2021-05-23T13:55:41Z</time>
      </trkpt>
      <trkpt lat="43.47442" lon="2.38267">
        <ele>409.871</ele>
        <time>2021-05-23T13:55:43Z</time>
      </trkpt>
      <trkpt lat="43.47442" lon="2.3827">
        <ele>408.824</ele>
        <time>2021-05-23T13:55:45Z</time>
      </trkpt>
      <trkpt lat="43.47443" lon="2.38273">
        <ele>409.361</ele>
        <time>2021-05-23T13:55:47Z</time>
      </trkpt>
      <trkpt lat="43.47444" lon="2.38277">
        <ele>410.199</ele>
        <time>2021-05-23T13:55:49Z</time>
      </trkpt>
      <trkpt lat="43.47444" lon="2.38279">
        <ele>410.475</ele>
        <time>2021-05-23T13:55:51Z</time>
      </trkpt>
      <trkpt lat="43.47446" lon="2.38281">
        <ele>410.577</ele>
        <time>2021-05-23T13:55:53Z</time>
      </trkpt>
      <trkpt lat="43.47448" lon="2.38281">
        <ele>406.236</ele>
        <time>2021-05-23T13:55:55Z</time>
      </trkpt>
      <trkpt lat="43.4745" lon="2.38283">
        <ele>406.483</ele>
        <time>2021-05-23T13:55:57Z</time>
      </trkpt>
      <trkpt lat="43.47452" lon="2.38285">
        <ele>407.497</ele>
        <time>2021-05-23T13:55:59Z</time>
      </trkpt>
      <trkpt lat="43.47455" lon="2.38286">
        <ele>407.511</ele>
        <time>2021-05-23T13:56:01Z</time>
      </trkpt>
      <trkpt lat="43.47456" lon="2.38288">
        <ele>407.385</ele>
        <time>2021-05-23T13:56:03Z</time>
      </trkpt>
      <trkpt lat="43.47458" lon="2.3829">
        <ele>407.657</ele>
        <time>2021-05-23T13:56:05Z</time>
      </trkpt>
      <trkpt lat="43.4746" lon="2.38292">
        <ele>407.296</ele>
        <time>2021-05-23T13:56:07Z</time>
      </trkpt>
      <trkpt lat="43.47461" lon="2.38292">
        <ele>404.985</ele>
        <time>2021-05-23T13:56:09Z</time>
      </trkpt>
      <trkpt lat="43.47462" lon="2.38291">
        <ele>401.897</ele>
        <time>2021-05-23T13:56:11Z</time>
      </trkpt>
      <trkpt lat="43.47463" lon="2.3829">
        <ele>401.556</ele>
        <time>2021-05-23T13:56:13Z</time>
      </trkpt>
      <trkpt lat="43.47463" lon="2.38289">
        <ele>400.37</ele>
        <time>2021-05-23T13:56:15Z</time>
      </trkpt>
      <trkpt lat="43.47464" lon="2.38289">
        <ele>399.625</ele>
        <time>2021-05-23T13:56:17Z</time>
      </trkpt>
      <trkpt lat="43.47464" lon="2.38288">
        <ele>398.913</ele>
        <time>2021-05-23T13:56:19Z</time>
      </trkpt>
      <trkpt lat="43.47464" lon="2.38288">
        <ele>398.897</ele>
        <time>2021-05-23T13:56:21Z</time>
      </trkpt>
      <trkpt lat="43.47464" lon="2.38288">
        <ele>398.887</ele>
        <time>2021-05-23T13:56:23Z</time>
      </trkpt>
      <trkpt lat="43.47464" lon="2.38288">
        <ele>398.886</ele>
        <time>2021-05-23T13:56:25Z</time>
      </trkpt>
      <trkpt lat="43.47464" lon="2.38288">
        <ele>398.887</ele>
        <time>2021-05-23T13:56:27Z</time>
      </trkpt>
      <trkpt lat="43.47464" lon="2.38288">
        <ele>398.887</ele>
        <time>2021-05-23T13:56:29Z</time>
      </trkpt>
      <trkpt lat="43.47464" lon="2.38288">
        <ele>398.872</ele>
        <time>2021-05-23T13:56:31Z</time>
      </trkpt>
      <trkpt lat="43.47464" lon="2.38288">
        <ele>398.682</ele>
        <time>2021-05-23T13:56:33Z</time>
      </trkpt>
      <trkpt lat="43.47464" lon="2.38288">
        <ele>398.666</ele>
        <time>2021-05-23T13:56:35Z</time>
      </trkpt>
      <trkpt lat="43.47464" lon="2.38288">
        <ele>398.654</ele>
        <time>2021-05-23T13:56:37Z</time>
      </trkpt>
      <trkpt lat="43.47464" lon="2.38288">
        <ele>398.649</ele>
        <time>2021-05-23T13:56:39Z</time>
      </trkpt>
      <trkpt lat="43.47464" lon="2.38288">
        <ele>398.648</ele>
        <time>2021-05-23T13:56:41Z</time>
      </trkpt>
      <trkpt lat="43.47464" lon="2.38288">
        <ele>398.65</ele>
        <time>2021-05-23T13:56:43Z</time>
      </trkpt>
      <trkpt lat="43.47464" lon="2.38288">
        <ele>398.64</ele>
        <time>2021-05-23T13:56:45Z</time>
      </trkpt>
      <trkpt lat="43.47464" lon="2.38288">
        <ele>398.637</ele>
        <time>2021-05-23T13:56:47Z</time>
      </trkpt>
      <trkpt lat="43.47464" lon="2.38288">
        <ele>398.624</ele>
        <time>2021-05-23T13:56:49Z</time>
      </trkpt>
      <trkpt lat="43.47464" lon="2.38288">
        <ele>398.049</ele>
        <time>2021-05-23T13:56:51Z</time>
      </trkpt>
      <trkpt lat="43.47464" lon="2.38288">
        <ele>398.047</ele>
        <time>2021-05-23T13:56:53Z</time>
      </trkpt>
      <trkpt lat="43.47464" lon="2.38288">
        <ele>396.996</ele>
        <time>2021-05-23T13:56:55Z</time>
      </trkpt>
      <trkpt lat="43.47465" lon="2.38287">
        <ele>396.344</ele>
        <time>2021-05-23T13:56:57Z</time>
      </trkpt>
      <trkpt lat="43.47465" lon="2.38287">
        <ele>396.345</ele>
        <time>2021-05-23T13:56:59Z</time>
      </trkpt>
      <trkpt lat="43.47465" lon="2.38287">
        <ele>396.622</ele>
        <time>2021-05-23T13:57:01Z</time>
      </trkpt>
      <trkpt lat="43.47466" lon="2.38286">
        <ele>396.108</ele>
        <time>2021-05-23T13:57:03Z</time>
      </trkpt>
      <trkpt lat="43.47466" lon="2.38287">
        <ele>396.841</ele>
        <time>2021-05-23T13:57:05Z</time>
      </trkpt>
      <trkpt lat="43.47466" lon="2.38287">
        <ele>396.358</ele>
        <time>2021-05-23T13:57:07Z</time>
      </trkpt>
      <trkpt lat="43.47466" lon="2.38288">
        <ele>396.471</ele>
        <time>2021-05-23T13:57:09Z</time>
      </trkpt>
      <trkpt lat="43.47466" lon="2.38288">
        <ele>396.474</ele>
        <time>2021-05-23T13:57:11Z</time>
      </trkpt>
      <trkpt lat="43.47466" lon="2.38289">
        <ele>396.291</ele>
        <time>2021-05-23T13:57:13Z</time>
      </trkpt>
      <trkpt lat="43.47466" lon="2.38289">
        <ele>396.312</ele>
        <time>2021-05-23T13:57:15Z</time>
      </trkpt>
      <trkpt lat="43.47465" lon="2.38289">
        <ele>396.309</ele>
        <time>2021-05-23T13:57:17Z</time>
      </trkpt>
      <trkpt lat="43.47466" lon="2.3829">
        <ele>396.288</ele>
        <time>2021-05-23T13:57:19Z</time>
      </trkpt>
      <trkpt lat="43.47466" lon="2.38292">
        <ele>396.162</ele>
        <time>2021-05-23T13:57:21Z</time>
      </trkpt>
      <trkpt lat="43.47466" lon="2.38292">
        <ele>395.067</ele>
        <time>2021-05-23T13:57:23Z</time>
      </trkpt>
      <trkpt lat="43.47466" lon="2.38291">
        <ele>395.05</ele>
        <time>2021-05-23T13:57:25Z</time>
      </trkpt>
      <trkpt lat="43.47466" lon="2.38291">
        <ele>395.013</ele>
        <time>2021-05-23T13:57:27Z</time>
      </trkpt>
      <trkpt lat="43.47466" lon="2.38291">
        <ele>394.995</ele>
        <time>2021-05-23T13:57:29Z</time>
      </trkpt>
      <trkpt lat="43.47466" lon="2.38291">
        <ele>394.789</ele>
        <time>2021-05-23T13:57:31Z</time>
      </trkpt>
      <trkpt lat="43.47466" lon="2.38291">
        <ele>395.781</ele>
        <time>2021-05-23T13:57:33Z</time>
      </trkpt>
      <trkpt lat="43.47466" lon="2.38291">
        <ele>395.831</ele>
        <time>2021-05-23T13:57:35Z</time>
      </trkpt>
      <trkpt lat="43.47466" lon="2.38291">
        <ele>396.079</ele>
        <time>2021-05-23T13:57:37Z</time>
      </trkpt>
      <trkpt lat="43.47466" lon="2.38291">
        <ele>396.081</ele>
        <time>2021-05-23T13:57:39Z</time>
      </trkpt>
      <trkpt lat="43.47466" lon="2.38291">
        <ele>396.068</ele>
        <time>2021-05-23T13:57:41Z</time>
      </trkpt>
      <trkpt lat="43.47466" lon="2.38291">
        <ele>396.071</ele>
        <time>2021-05-23T13:57:43Z</time>
      </trkpt>
      <trkpt lat="43.47465" lon="2.38291">
        <ele>396.071</ele>
        <time>2021-05-23T13:57:45Z</time>
      </trkpt>
      <trkpt lat="43.47465" lon="2.38291">
        <ele>396.075</ele>
        <time>2021-05-23T13:57:47Z</time>
      </trkpt>
      <trkpt lat="43.47466" lon="2.3829">
        <ele>395.877</ele>
        <time>2021-05-23T13:57:49Z</time>
      </trkpt>
      <trkpt lat="43.47466" lon="2.38289">
        <ele>394.306</ele>
        <time>2021-05-23T13:57:51Z</time>
      </trkpt>
      <trkpt lat="43.47466" lon="2.38288">
        <ele>394.977</ele>
        <time>2021-05-23T13:57:53Z</time>
      </trkpt>
      <trkpt lat="43.47466" lon="2.38289">
        <ele>394.329</ele>
        <time>2021-05-23T13:57:55Z</time>
      </trkpt>
      <trkpt lat="43.47466" lon="2.38289">
        <ele>394.134</ele>
        <time>2021-05-23T13:57:57Z</time>
      </trkpt>
      <trkpt lat="43.47466" lon="2.3829">
        <ele>394.142</ele>
        <time>2021-05-23T13:57:59Z</time>
      </trkpt>
      <trkpt lat="43.47466" lon="2.3829">
        <ele>394.137</ele>
        <time>2021-05-23T13:58:01Z</time>
      </trkpt>
      <trkpt lat="43.47466" lon="2.3829">
        <ele>394.127</ele>
        <time>2021-05-23T13:58:03Z</time>
      </trkpt>
      <trkpt lat="43.47466" lon="2.3829">
        <ele>394.127</ele>
        <time>2021-05-23T13:58:05Z</time>
      </trkpt>
      <trkpt lat="43.47466" lon="2.3829">
        <ele>394.127</ele>
        <time>2021-05-23T13:58:07Z</time>
      </trkpt>
      <trkpt lat="43.47466" lon="2.3829">
        <ele>394.126</ele>
        <time>2021-05-23T13:58:09Z</time>
      </trkpt>
      <trkpt lat="43.47466" lon="2.3829">
        <ele>394.123</ele>
        <time>2021-05-23T13:58:11Z</time>
      </trkpt>
      <trkpt lat="43.47466" lon="2.3829">
        <ele>394.062</ele>
        <time>2021-05-23T13:58:13Z</time>
      </trkpt>
      <trkpt lat="43.47466" lon="2.3829">
        <ele>393.905</ele>
        <time>2021-05-23T13:58:15Z</time>
      </trkpt>
      <trkpt lat="43.47468" lon="2.38289">
        <ele>393.898</ele>
        <time>2021-05-23T13:58:17Z</time>
      </trkpt>
      <trkpt lat="43.47467" lon="2.38289">
        <ele>393.99</ele>
        <time>2021-05-23T13:58:19Z</time>
      </trkpt>
      <trkpt lat="43.47467" lon="2.38289">
        <ele>393.999</ele>
        <time>2021-05-23T13:58:21Z</time>
      </trkpt>
      <trkpt lat="43.47467" lon="2.38289">
        <ele>393.983</ele>
        <time>2021-05-23T13:58:23Z</time>
      </trkpt>
      <trkpt lat="43.47468" lon="2.38289">
        <ele>394.265</ele>
        <time>2021-05-23T13:58:25Z</time>
      </trkpt>
      <trkpt lat="43.47468" lon="2.38286">
        <ele>393.632</ele>
        <time>2021-05-23T13:58:27Z</time>
      </trkpt>
      <trkpt lat="43.47467" lon="2.38286">
        <ele>393.14</ele>
        <time>2021-05-23T13:58:29Z</time>
      </trkpt>
      <trkpt lat="43.47466" lon="2.38285">
        <ele>392.957</ele>
        <time>2021-05-23T13:58:31Z</time>
      </trkpt>
      <trkpt lat="43.47465" lon="2.38284">
        <ele>393.825</ele>
        <time>2021-05-23T13:58:33Z</time>
      </trkpt>
      <trkpt lat="43.47465" lon="2.38284">
        <ele>393.17</ele>
        <time>2021-05-23T13:58:35Z</time>
      </trkpt>
      <trkpt lat="43.47465" lon="2.38284">
        <ele>393.16</ele>
        <time>2021-05-23T13:58:37Z</time>
      </trkpt>
      <trkpt lat="43.47465" lon="2.38284">
        <ele>393.157</ele>
        <time>2021-05-23T13:58:39Z</time>
      </trkpt>
    </trkseg>
  </trk>
</gpx>